﻿<?xml version="1.0" encoding="UTF-8" standalone="no" ?>
<gpx xmlns="http://www.topografix.com/GPX/1/1" creator="CompeGPS" version="1.1" xmlns:xsi="http://www.w3.org/2001/XMLSchema-instance" xsi:schemaLocation="http://www.topografix.com/GPX/1/1 http://www.topografix.com/GPX/1/1/gpx.xsd">
  <metadata>
    <link href="http://www.compegps.com">
      <text>CompeGPS TEAM, SL</text>
    </link>
    <time>2026-03-04T21:48:48Z</time>
    <bounds maxlat="43.053012" maxlon="-1.794333" minlat="43.001389" minlon="-1.827764"/>
  </metadata>
  <trk>
    <name>Basaburua_Essentials</name>
    <trkseg>
      <trkpt lat="43.002206" lon="-1.797771">
        <ele>551.2</ele>
        <time>2026-03-01T09:22:35Z</time>
      </trkpt>
      <trkpt lat="43.002207" lon="-1.797771">
        <ele>551.2</ele>
        <time>2026-03-01T09:22:36Z</time>
      </trkpt>
      <trkpt lat="43.002206" lon="-1.797771">
        <ele>551.2</ele>
        <time>2026-03-01T09:22:37Z</time>
      </trkpt>
      <trkpt lat="43.002206" lon="-1.797770">
        <ele>551.2</ele>
        <time>2026-03-01T09:22:38Z</time>
      </trkpt>
      <trkpt lat="43.002209" lon="-1.797763">
        <ele>551.4</ele>
        <time>2026-03-01T09:22:39Z</time>
      </trkpt>
      <trkpt lat="43.002210" lon="-1.797759">
        <ele>551.4</ele>
        <time>2026-03-01T09:22:41Z</time>
      </trkpt>
      <trkpt lat="43.002217" lon="-1.797773">
        <ele>551.6</ele>
        <time>2026-03-01T09:22:45Z</time>
      </trkpt>
      <trkpt lat="43.002234" lon="-1.797800">
        <ele>551.6</ele>
        <time>2026-03-01T09:22:50Z</time>
      </trkpt>
      <trkpt lat="43.002238" lon="-1.797788">
        <ele>551.6</ele>
        <time>2026-03-01T09:22:51Z</time>
      </trkpt>
      <trkpt lat="43.002246" lon="-1.797758">
        <ele>551.6</ele>
        <time>2026-03-01T09:22:53Z</time>
      </trkpt>
      <trkpt lat="43.002252" lon="-1.797733">
        <ele>551.6</ele>
        <time>2026-03-01T09:22:54Z</time>
      </trkpt>
      <trkpt lat="43.002261" lon="-1.797712">
        <ele>551.6</ele>
        <time>2026-03-01T09:22:55Z</time>
      </trkpt>
      <trkpt lat="43.002309" lon="-1.797666">
        <ele>551.6</ele>
        <time>2026-03-01T09:22:58Z</time>
      </trkpt>
      <trkpt lat="43.002324" lon="-1.797666">
        <ele>551.8</ele>
        <time>2026-03-01T09:22:59Z</time>
      </trkpt>
      <trkpt lat="43.002360" lon="-1.797683">
        <ele>552.4</ele>
        <time>2026-03-01T09:23:01Z</time>
      </trkpt>
      <trkpt lat="43.002410" lon="-1.797701">
        <ele>552.8</ele>
        <time>2026-03-01T09:23:03Z</time>
      </trkpt>
      <trkpt lat="43.002436" lon="-1.797697">
        <ele>553.0</ele>
        <time>2026-03-01T09:23:04Z</time>
      </trkpt>
      <trkpt lat="43.002457" lon="-1.797682">
        <ele>553.0</ele>
        <time>2026-03-01T09:23:05Z</time>
      </trkpt>
      <trkpt lat="43.002494" lon="-1.797652">
        <ele>551.6</ele>
        <time>2026-03-01T09:23:07Z</time>
      </trkpt>
      <trkpt lat="43.002506" lon="-1.797643">
        <ele>551.6</ele>
        <time>2026-03-01T09:23:08Z</time>
      </trkpt>
      <trkpt lat="43.002539" lon="-1.797631">
        <ele>551.6</ele>
        <time>2026-03-01T09:23:10Z</time>
      </trkpt>
      <trkpt lat="43.002551" lon="-1.797624">
        <ele>551.8</ele>
        <time>2026-03-01T09:23:11Z</time>
      </trkpt>
      <trkpt lat="43.002553" lon="-1.797621">
        <ele>552.0</ele>
        <time>2026-03-01T09:23:12Z</time>
      </trkpt>
      <trkpt lat="43.002593" lon="-1.797615">
        <ele>552.0</ele>
        <time>2026-03-01T09:23:17Z</time>
      </trkpt>
      <trkpt lat="43.002594" lon="-1.797614">
        <ele>552.0</ele>
        <time>2026-03-01T09:23:18Z</time>
      </trkpt>
      <trkpt lat="43.002595" lon="-1.797612">
        <ele>552.8</ele>
        <time>2026-03-01T09:23:26Z</time>
      </trkpt>
      <trkpt lat="43.002598" lon="-1.797613">
        <ele>552.6</ele>
        <time>2026-03-01T09:23:31Z</time>
      </trkpt>
      <trkpt lat="43.002608" lon="-1.797619">
        <ele>552.2</ele>
        <time>2026-03-01T09:23:37Z</time>
      </trkpt>
      <trkpt lat="43.002623" lon="-1.797636">
        <ele>552.2</ele>
        <time>2026-03-01T09:23:39Z</time>
      </trkpt>
      <trkpt lat="43.002638" lon="-1.797637">
        <ele>552.0</ele>
        <time>2026-03-01T09:23:41Z</time>
      </trkpt>
      <trkpt lat="43.002651" lon="-1.797652">
        <ele>552.2</ele>
        <time>2026-03-01T09:23:45Z</time>
      </trkpt>
      <trkpt lat="43.002651" lon="-1.797654">
        <ele>552.4</ele>
        <time>2026-03-01T09:23:47Z</time>
      </trkpt>
      <trkpt lat="43.002651" lon="-1.797654">
        <ele>552.4</ele>
        <time>2026-03-01T09:23:48Z</time>
      </trkpt>
      <trkpt lat="43.002652" lon="-1.797657">
        <ele>552.4</ele>
        <time>2026-03-01T09:23:54Z</time>
      </trkpt>
      <trkpt lat="43.002653" lon="-1.797654">
        <ele>552.2</ele>
        <time>2026-03-01T09:24:06Z</time>
      </trkpt>
      <trkpt lat="43.002654" lon="-1.797653">
        <ele>552.2</ele>
        <time>2026-03-01T09:24:10Z</time>
      </trkpt>
      <trkpt lat="43.002654" lon="-1.797653">
        <ele>552.4</ele>
        <time>2026-03-01T09:24:11Z</time>
      </trkpt>
      <trkpt lat="43.002658" lon="-1.797663">
        <ele>552.4</ele>
        <time>2026-03-01T09:24:16Z</time>
      </trkpt>
      <trkpt lat="43.002655" lon="-1.797664">
        <ele>552.4</ele>
        <time>2026-03-01T09:24:17Z</time>
      </trkpt>
      <trkpt lat="43.002656" lon="-1.797678">
        <ele>552.2</ele>
        <time>2026-03-01T09:24:20Z</time>
      </trkpt>
      <trkpt lat="43.002656" lon="-1.797689">
        <ele>552.2</ele>
        <time>2026-03-01T09:24:24Z</time>
      </trkpt>
      <trkpt lat="43.002656" lon="-1.797691">
        <ele>552.2</ele>
        <time>2026-03-01T09:24:26Z</time>
      </trkpt>
      <trkpt lat="43.002650" lon="-1.797701">
        <ele>552.2</ele>
        <time>2026-03-01T09:24:36Z</time>
      </trkpt>
      <trkpt lat="43.002649" lon="-1.797698">
        <ele>552.2</ele>
        <time>2026-03-01T09:24:38Z</time>
      </trkpt>
      <trkpt lat="43.002656" lon="-1.797684">
        <ele>552.2</ele>
        <time>2026-03-01T09:24:44Z</time>
      </trkpt>
      <trkpt lat="43.002671" lon="-1.797670">
        <ele>552.2</ele>
        <time>2026-03-01T09:24:47Z</time>
      </trkpt>
      <trkpt lat="43.002675" lon="-1.797649">
        <ele>552.2</ele>
        <time>2026-03-01T09:24:50Z</time>
      </trkpt>
      <trkpt lat="43.002672" lon="-1.797642">
        <ele>552.4</ele>
        <time>2026-03-01T09:24:53Z</time>
      </trkpt>
      <trkpt lat="43.002671" lon="-1.797641">
        <ele>552.4</ele>
        <time>2026-03-01T09:24:54Z</time>
      </trkpt>
      <trkpt lat="43.002671" lon="-1.797640">
        <ele>552.4</ele>
        <time>2026-03-01T09:24:55Z</time>
      </trkpt>
      <trkpt lat="43.002671" lon="-1.797641">
        <ele>552.4</ele>
        <time>2026-03-01T09:24:56Z</time>
      </trkpt>
      <trkpt lat="43.002671" lon="-1.797640">
        <ele>552.4</ele>
        <time>2026-03-01T09:24:57Z</time>
      </trkpt>
      <trkpt lat="43.002672" lon="-1.797638">
        <ele>552.6</ele>
        <time>2026-03-01T09:25:03Z</time>
      </trkpt>
      <trkpt lat="43.002672" lon="-1.797637">
        <ele>552.0</ele>
        <time>2026-03-01T09:25:18Z</time>
      </trkpt>
      <trkpt lat="43.002674" lon="-1.797637">
        <ele>552.0</ele>
        <time>2026-03-01T09:25:22Z</time>
      </trkpt>
      <trkpt lat="43.002675" lon="-1.797636">
        <ele>552.2</ele>
        <time>2026-03-01T09:25:24Z</time>
      </trkpt>
      <trkpt lat="43.002675" lon="-1.797636">
        <ele>552.2</ele>
        <time>2026-03-01T09:25:26Z</time>
      </trkpt>
      <trkpt lat="43.002675" lon="-1.797636">
        <ele>552.2</ele>
        <time>2026-03-01T09:25:27Z</time>
      </trkpt>
      <trkpt lat="43.002676" lon="-1.797636">
        <ele>552.2</ele>
        <time>2026-03-01T09:25:29Z</time>
      </trkpt>
      <trkpt lat="43.002677" lon="-1.797636">
        <ele>552.2</ele>
        <time>2026-03-01T09:25:30Z</time>
      </trkpt>
      <trkpt lat="43.002670" lon="-1.797646">
        <ele>551.8</ele>
        <time>2026-03-01T09:25:42Z</time>
      </trkpt>
      <trkpt lat="43.002666" lon="-1.797649">
        <ele>551.8</ele>
        <time>2026-03-01T09:25:44Z</time>
      </trkpt>
      <trkpt lat="43.002662" lon="-1.797665">
        <ele>552.2</ele>
        <time>2026-03-01T09:25:51Z</time>
      </trkpt>
      <trkpt lat="43.002716" lon="-1.797632">
        <ele>552.0</ele>
        <time>2026-03-01T09:25:59Z</time>
      </trkpt>
      <trkpt lat="43.002718" lon="-1.797631">
        <ele>551.8</ele>
        <time>2026-03-01T09:26:01Z</time>
      </trkpt>
      <trkpt lat="43.002721" lon="-1.797629">
        <ele>552.0</ele>
        <time>2026-03-01T09:26:08Z</time>
      </trkpt>
      <trkpt lat="43.002720" lon="-1.797627">
        <ele>552.0</ele>
        <time>2026-03-01T09:26:10Z</time>
      </trkpt>
      <trkpt lat="43.002720" lon="-1.797625">
        <ele>552.0</ele>
        <time>2026-03-01T09:26:12Z</time>
      </trkpt>
      <trkpt lat="43.002722" lon="-1.797624">
        <ele>552.0</ele>
        <time>2026-03-01T09:26:15Z</time>
      </trkpt>
      <trkpt lat="43.002740" lon="-1.797647">
        <ele>552.8</ele>
        <time>2026-03-01T09:26:23Z</time>
      </trkpt>
      <trkpt lat="43.002755" lon="-1.797647">
        <ele>552.4</ele>
        <time>2026-03-01T09:26:26Z</time>
      </trkpt>
      <trkpt lat="43.002766" lon="-1.797643">
        <ele>552.4</ele>
        <time>2026-03-01T09:26:27Z</time>
      </trkpt>
      <trkpt lat="43.002776" lon="-1.797627">
        <ele>552.4</ele>
        <time>2026-03-01T09:26:29Z</time>
      </trkpt>
      <trkpt lat="43.002797" lon="-1.797587">
        <ele>552.4</ele>
        <time>2026-03-01T09:26:32Z</time>
      </trkpt>
      <trkpt lat="43.002803" lon="-1.797508">
        <ele>552.2</ele>
        <time>2026-03-01T09:26:39Z</time>
      </trkpt>
      <trkpt lat="43.002783" lon="-1.797464">
        <ele>551.8</ele>
        <time>2026-03-01T09:26:41Z</time>
      </trkpt>
      <trkpt lat="43.002768" lon="-1.797452">
        <ele>551.8</ele>
        <time>2026-03-01T09:26:42Z</time>
      </trkpt>
      <trkpt lat="43.002751" lon="-1.797447">
        <ele>551.8</ele>
        <time>2026-03-01T09:26:43Z</time>
      </trkpt>
      <trkpt lat="43.002718" lon="-1.797447">
        <ele>551.6</ele>
        <time>2026-03-01T09:26:46Z</time>
      </trkpt>
      <trkpt lat="43.002708" lon="-1.797448">
        <ele>551.4</ele>
        <time>2026-03-01T09:26:52Z</time>
      </trkpt>
      <trkpt lat="43.002706" lon="-1.797445">
        <ele>551.2</ele>
        <time>2026-03-01T09:26:54Z</time>
      </trkpt>
      <trkpt lat="43.002705" lon="-1.797445">
        <ele>551.4</ele>
        <time>2026-03-01T09:27:00Z</time>
      </trkpt>
      <trkpt lat="43.002705" lon="-1.797445">
        <ele>551.4</ele>
        <time>2026-03-01T09:27:02Z</time>
      </trkpt>
      <trkpt lat="43.002703" lon="-1.797446">
        <ele>551.4</ele>
        <time>2026-03-01T09:27:08Z</time>
      </trkpt>
      <trkpt lat="43.002697" lon="-1.797450">
        <ele>552.2</ele>
        <time>2026-03-01T09:27:09Z</time>
      </trkpt>
      <trkpt lat="43.002690" lon="-1.797459">
        <ele>552.2</ele>
        <time>2026-03-01T09:27:10Z</time>
      </trkpt>
      <trkpt lat="43.002680" lon="-1.797470">
        <ele>552.4</ele>
        <time>2026-03-01T09:27:11Z</time>
      </trkpt>
      <trkpt lat="43.002637" lon="-1.797513">
        <ele>552.4</ele>
        <time>2026-03-01T09:27:14Z</time>
      </trkpt>
      <trkpt lat="43.002639" lon="-1.797555">
        <ele>552.4</ele>
        <time>2026-03-01T09:27:16Z</time>
      </trkpt>
      <trkpt lat="43.002714" lon="-1.797684">
        <ele>551.8</ele>
        <time>2026-03-01T09:27:21Z</time>
      </trkpt>
      <trkpt lat="43.002741" lon="-1.797729">
        <ele>551.8</ele>
        <time>2026-03-01T09:27:23Z</time>
      </trkpt>
      <trkpt lat="43.002747" lon="-1.797756">
        <ele>552.4</ele>
        <time>2026-03-01T09:27:24Z</time>
      </trkpt>
      <trkpt lat="43.002744" lon="-1.797798">
        <ele>552.4</ele>
        <time>2026-03-01T09:27:25Z</time>
      </trkpt>
      <trkpt lat="43.002714" lon="-1.797951">
        <ele>552.2</ele>
        <time>2026-03-01T09:27:29Z</time>
      </trkpt>
      <trkpt lat="43.002718" lon="-1.798006">
        <ele>552.0</ele>
        <time>2026-03-01T09:27:31Z</time>
      </trkpt>
      <trkpt lat="43.002697" lon="-1.798063">
        <ele>552.0</ele>
        <time>2026-03-01T09:27:33Z</time>
      </trkpt>
      <trkpt lat="43.002647" lon="-1.798203">
        <ele>551.8</ele>
        <time>2026-03-01T09:27:36Z</time>
      </trkpt>
      <trkpt lat="43.002577" lon="-1.798339">
        <ele>551.4</ele>
        <time>2026-03-01T09:27:39Z</time>
      </trkpt>
      <trkpt lat="43.002560" lon="-1.798405">
        <ele>551.4</ele>
        <time>2026-03-01T09:27:40Z</time>
      </trkpt>
      <trkpt lat="43.002532" lon="-1.798604">
        <ele>552.0</ele>
        <time>2026-03-01T09:27:45Z</time>
      </trkpt>
      <trkpt lat="43.002520" lon="-1.798640">
        <ele>552.2</ele>
        <time>2026-03-01T09:27:46Z</time>
      </trkpt>
      <trkpt lat="43.002496" lon="-1.798706">
        <ele>552.2</ele>
        <time>2026-03-01T09:27:48Z</time>
      </trkpt>
      <trkpt lat="43.002455" lon="-1.798784">
        <ele>552.2</ele>
        <time>2026-03-01T09:27:51Z</time>
      </trkpt>
      <trkpt lat="43.002342" lon="-1.798819">
        <ele>551.8</ele>
        <time>2026-03-01T09:27:55Z</time>
      </trkpt>
      <trkpt lat="43.002240" lon="-1.798841">
        <ele>551.0</ele>
        <time>2026-03-01T09:27:58Z</time>
      </trkpt>
      <trkpt lat="43.002167" lon="-1.798859">
        <ele>550.2</ele>
        <time>2026-03-01T09:28:00Z</time>
      </trkpt>
      <trkpt lat="43.002092" lon="-1.798917">
        <ele>549.8</ele>
        <time>2026-03-01T09:28:03Z</time>
      </trkpt>
      <trkpt lat="43.002042" lon="-1.798988">
        <ele>549.8</ele>
        <time>2026-03-01T09:28:06Z</time>
      </trkpt>
      <trkpt lat="43.001920" lon="-1.799144">
        <ele>550.4</ele>
        <time>2026-03-01T09:28:13Z</time>
      </trkpt>
      <trkpt lat="43.001795" lon="-1.799283">
        <ele>550.0</ele>
        <time>2026-03-01T09:28:18Z</time>
      </trkpt>
      <trkpt lat="43.001694" lon="-1.799394">
        <ele>550.2</ele>
        <time>2026-03-01T09:28:22Z</time>
      </trkpt>
      <trkpt lat="43.001678" lon="-1.799420">
        <ele>550.2</ele>
        <time>2026-03-01T09:28:23Z</time>
      </trkpt>
      <trkpt lat="43.001667" lon="-1.799466">
        <ele>550.2</ele>
        <time>2026-03-01T09:28:25Z</time>
      </trkpt>
      <trkpt lat="43.001660" lon="-1.799519">
        <ele>550.2</ele>
        <time>2026-03-01T09:28:27Z</time>
      </trkpt>
      <trkpt lat="43.001664" lon="-1.799654">
        <ele>549.8</ele>
        <time>2026-03-01T09:28:31Z</time>
      </trkpt>
      <trkpt lat="43.001701" lon="-1.799869">
        <ele>549.8</ele>
        <time>2026-03-01T09:28:37Z</time>
      </trkpt>
      <trkpt lat="43.001717" lon="-1.799912">
        <ele>550.2</ele>
        <time>2026-03-01T09:28:39Z</time>
      </trkpt>
      <trkpt lat="43.001741" lon="-1.799988">
        <ele>550.4</ele>
        <time>2026-03-01T09:28:41Z</time>
      </trkpt>
      <trkpt lat="43.001753" lon="-1.800024">
        <ele>550.6</ele>
        <time>2026-03-01T09:28:42Z</time>
      </trkpt>
      <trkpt lat="43.001774" lon="-1.800077">
        <ele>550.8</ele>
        <time>2026-03-01T09:28:44Z</time>
      </trkpt>
      <trkpt lat="43.001820" lon="-1.800088">
        <ele>550.8</ele>
        <time>2026-03-01T09:28:47Z</time>
      </trkpt>
      <trkpt lat="43.001835" lon="-1.800068">
        <ele>551.6</ele>
        <time>2026-03-01T09:28:49Z</time>
      </trkpt>
      <trkpt lat="43.001853" lon="-1.800014">
        <ele>551.6</ele>
        <time>2026-03-01T09:28:52Z</time>
      </trkpt>
      <trkpt lat="43.001857" lon="-1.799967">
        <ele>552.2</ele>
        <time>2026-03-01T09:28:56Z</time>
      </trkpt>
      <trkpt lat="43.001868" lon="-1.799958">
        <ele>552.2</ele>
        <time>2026-03-01T09:28:57Z</time>
      </trkpt>
      <trkpt lat="43.001897" lon="-1.799962">
        <ele>551.4</ele>
        <time>2026-03-01T09:29:02Z</time>
      </trkpt>
      <trkpt lat="43.001887" lon="-1.799978">
        <ele>551.4</ele>
        <time>2026-03-01T09:29:03Z</time>
      </trkpt>
      <trkpt lat="43.001871" lon="-1.800017">
        <ele>551.4</ele>
        <time>2026-03-01T09:29:05Z</time>
      </trkpt>
      <trkpt lat="43.001856" lon="-1.800054">
        <ele>552.0</ele>
        <time>2026-03-01T09:29:08Z</time>
      </trkpt>
      <trkpt lat="43.001843" lon="-1.800102">
        <ele>552.0</ele>
        <time>2026-03-01T09:29:11Z</time>
      </trkpt>
      <trkpt lat="43.001822" lon="-1.800100">
        <ele>551.8</ele>
        <time>2026-03-01T09:29:16Z</time>
      </trkpt>
      <trkpt lat="43.001829" lon="-1.800105">
        <ele>552.0</ele>
        <time>2026-03-01T09:29:18Z</time>
      </trkpt>
      <trkpt lat="43.001835" lon="-1.800108">
        <ele>552.0</ele>
        <time>2026-03-01T09:29:22Z</time>
      </trkpt>
      <trkpt lat="43.001837" lon="-1.800106">
        <ele>552.0</ele>
        <time>2026-03-01T09:29:25Z</time>
      </trkpt>
      <trkpt lat="43.001817" lon="-1.800100">
        <ele>552.0</ele>
        <time>2026-03-01T09:29:34Z</time>
      </trkpt>
      <trkpt lat="43.001824" lon="-1.800118">
        <ele>551.8</ele>
        <time>2026-03-01T09:29:37Z</time>
      </trkpt>
      <trkpt lat="43.001829" lon="-1.800126">
        <ele>551.6</ele>
        <time>2026-03-01T09:29:40Z</time>
      </trkpt>
      <trkpt lat="43.001837" lon="-1.800130">
        <ele>551.6</ele>
        <time>2026-03-01T09:29:45Z</time>
      </trkpt>
      <trkpt lat="43.001837" lon="-1.800134">
        <ele>551.4</ele>
        <time>2026-03-01T09:29:50Z</time>
      </trkpt>
      <trkpt lat="43.001837" lon="-1.800131">
        <ele>551.4</ele>
        <time>2026-03-01T09:29:55Z</time>
      </trkpt>
      <trkpt lat="43.001831" lon="-1.800137">
        <ele>551.4</ele>
        <time>2026-03-01T09:29:57Z</time>
      </trkpt>
      <trkpt lat="43.001805" lon="-1.800169">
        <ele>552.2</ele>
        <time>2026-03-01T09:30:00Z</time>
      </trkpt>
      <trkpt lat="43.001780" lon="-1.800246">
        <ele>551.4</ele>
        <time>2026-03-01T09:30:06Z</time>
      </trkpt>
      <trkpt lat="43.001785" lon="-1.800247">
        <ele>551.6</ele>
        <time>2026-03-01T09:30:10Z</time>
      </trkpt>
      <trkpt lat="43.001786" lon="-1.800245">
        <ele>551.2</ele>
        <time>2026-03-01T09:30:18Z</time>
      </trkpt>
      <trkpt lat="43.001787" lon="-1.800238">
        <ele>551.0</ele>
        <time>2026-03-01T09:30:26Z</time>
      </trkpt>
      <trkpt lat="43.001788" lon="-1.800237">
        <ele>551.0</ele>
        <time>2026-03-01T09:30:28Z</time>
      </trkpt>
      <trkpt lat="43.001771" lon="-1.800245">
        <ele>551.2</ele>
        <time>2026-03-01T09:30:34Z</time>
      </trkpt>
      <trkpt lat="43.001754" lon="-1.800251">
        <ele>551.0</ele>
        <time>2026-03-01T09:30:36Z</time>
      </trkpt>
      <trkpt lat="43.001745" lon="-1.800255">
        <ele>551.2</ele>
        <time>2026-03-01T09:30:38Z</time>
      </trkpt>
      <trkpt lat="43.001729" lon="-1.800268">
        <ele>551.2</ele>
        <time>2026-03-01T09:30:41Z</time>
      </trkpt>
      <trkpt lat="43.001722" lon="-1.800287">
        <ele>551.2</ele>
        <time>2026-03-01T09:30:42Z</time>
      </trkpt>
      <trkpt lat="43.001729" lon="-1.800420">
        <ele>550.8</ele>
        <time>2026-03-01T09:30:47Z</time>
      </trkpt>
      <trkpt lat="43.001796" lon="-1.800574">
        <ele>551.0</ele>
        <time>2026-03-01T09:30:52Z</time>
      </trkpt>
      <trkpt lat="43.001833" lon="-1.800639">
        <ele>551.2</ele>
        <time>2026-03-01T09:30:54Z</time>
      </trkpt>
      <trkpt lat="43.001862" lon="-1.800719">
        <ele>551.2</ele>
        <time>2026-03-01T09:30:56Z</time>
      </trkpt>
      <trkpt lat="43.001874" lon="-1.800746">
        <ele>551.2</ele>
        <time>2026-03-01T09:30:57Z</time>
      </trkpt>
      <trkpt lat="43.001888" lon="-1.800774">
        <ele>551.2</ele>
        <time>2026-03-01T09:30:58Z</time>
      </trkpt>
      <trkpt lat="43.001916" lon="-1.800824">
        <ele>551.6</ele>
        <time>2026-03-01T09:31:00Z</time>
      </trkpt>
      <trkpt lat="43.001928" lon="-1.800887">
        <ele>552.8</ele>
        <time>2026-03-01T09:31:03Z</time>
      </trkpt>
      <trkpt lat="43.001888" lon="-1.800972">
        <ele>552.8</ele>
        <time>2026-03-01T09:31:06Z</time>
      </trkpt>
      <trkpt lat="43.001856" lon="-1.801003">
        <ele>552.6</ele>
        <time>2026-03-01T09:31:07Z</time>
      </trkpt>
      <trkpt lat="43.001714" lon="-1.801151">
        <ele>551.0</ele>
        <time>2026-03-01T09:31:10Z</time>
      </trkpt>
      <trkpt lat="43.001670" lon="-1.801195">
        <ele>550.6</ele>
        <time>2026-03-01T09:31:11Z</time>
      </trkpt>
      <trkpt lat="43.001608" lon="-1.801246">
        <ele>549.8</ele>
        <time>2026-03-01T09:31:13Z</time>
      </trkpt>
      <trkpt lat="43.001586" lon="-1.801273">
        <ele>549.8</ele>
        <time>2026-03-01T09:31:14Z</time>
      </trkpt>
      <trkpt lat="43.001603" lon="-1.801387">
        <ele>550.6</ele>
        <time>2026-03-01T09:31:17Z</time>
      </trkpt>
      <trkpt lat="43.001642" lon="-1.801461">
        <ele>551.0</ele>
        <time>2026-03-01T09:31:19Z</time>
      </trkpt>
      <trkpt lat="43.001737" lon="-1.801667">
        <ele>551.8</ele>
        <time>2026-03-01T09:31:25Z</time>
      </trkpt>
      <trkpt lat="43.001742" lon="-1.801709">
        <ele>552.0</ele>
        <time>2026-03-01T09:31:26Z</time>
      </trkpt>
      <trkpt lat="43.001737" lon="-1.801758">
        <ele>552.2</ele>
        <time>2026-03-01T09:31:27Z</time>
      </trkpt>
      <trkpt lat="43.001711" lon="-1.801842">
        <ele>552.6</ele>
        <time>2026-03-01T09:31:29Z</time>
      </trkpt>
      <trkpt lat="43.001686" lon="-1.801886">
        <ele>552.8</ele>
        <time>2026-03-01T09:31:30Z</time>
      </trkpt>
      <trkpt lat="43.001644" lon="-1.801957">
        <ele>553.2</ele>
        <time>2026-03-01T09:31:32Z</time>
      </trkpt>
      <trkpt lat="43.001574" lon="-1.802067">
        <ele>553.4</ele>
        <time>2026-03-01T09:31:35Z</time>
      </trkpt>
      <trkpt lat="43.001460" lon="-1.802266">
        <ele>553.0</ele>
        <time>2026-03-01T09:31:41Z</time>
      </trkpt>
      <trkpt lat="43.001416" lon="-1.802334">
        <ele>553.0</ele>
        <time>2026-03-01T09:31:45Z</time>
      </trkpt>
      <trkpt lat="43.001402" lon="-1.802341">
        <ele>552.4</ele>
        <time>2026-03-01T09:31:47Z</time>
      </trkpt>
      <trkpt lat="43.001400" lon="-1.802348">
        <ele>552.2</ele>
        <time>2026-03-01T09:31:48Z</time>
      </trkpt>
      <trkpt lat="43.001395" lon="-1.802358">
        <ele>551.6</ele>
        <time>2026-03-01T09:31:55Z</time>
      </trkpt>
      <trkpt lat="43.001394" lon="-1.802359">
        <ele>551.6</ele>
        <time>2026-03-01T09:32:01Z</time>
      </trkpt>
      <trkpt lat="43.001393" lon="-1.802360">
        <ele>551.6</ele>
        <time>2026-03-01T09:32:07Z</time>
      </trkpt>
      <trkpt lat="43.001391" lon="-1.802375">
        <ele>551.6</ele>
        <time>2026-03-01T09:32:10Z</time>
      </trkpt>
      <trkpt lat="43.001389" lon="-1.802392">
        <ele>551.6</ele>
        <time>2026-03-01T09:32:11Z</time>
      </trkpt>
      <trkpt lat="43.001394" lon="-1.802440">
        <ele>551.6</ele>
        <time>2026-03-01T09:32:13Z</time>
      </trkpt>
      <trkpt lat="43.001426" lon="-1.802496">
        <ele>551.6</ele>
        <time>2026-03-01T09:32:16Z</time>
      </trkpt>
      <trkpt lat="43.001522" lon="-1.802642">
        <ele>552.2</ele>
        <time>2026-03-01T09:32:21Z</time>
      </trkpt>
      <trkpt lat="43.001581" lon="-1.802734">
        <ele>553.4</ele>
        <time>2026-03-01T09:32:24Z</time>
      </trkpt>
      <trkpt lat="43.001622" lon="-1.802795">
        <ele>553.8</ele>
        <time>2026-03-01T09:32:26Z</time>
      </trkpt>
      <trkpt lat="43.001665" lon="-1.802846">
        <ele>554.4</ele>
        <time>2026-03-01T09:32:28Z</time>
      </trkpt>
      <trkpt lat="43.001686" lon="-1.802875">
        <ele>554.6</ele>
        <time>2026-03-01T09:32:29Z</time>
      </trkpt>
      <trkpt lat="43.001744" lon="-1.802970">
        <ele>555.6</ele>
        <time>2026-03-01T09:32:32Z</time>
      </trkpt>
      <trkpt lat="43.001831" lon="-1.803156">
        <ele>556.6</ele>
        <time>2026-03-01T09:32:37Z</time>
      </trkpt>
      <trkpt lat="43.001843" lon="-1.803202">
        <ele>556.8</ele>
        <time>2026-03-01T09:32:38Z</time>
      </trkpt>
      <trkpt lat="43.001863" lon="-1.803304">
        <ele>556.8</ele>
        <time>2026-03-01T09:32:40Z</time>
      </trkpt>
      <trkpt lat="43.001893" lon="-1.803466">
        <ele>556.8</ele>
        <time>2026-03-01T09:32:43Z</time>
      </trkpt>
      <trkpt lat="43.001928" lon="-1.803699">
        <ele>557.0</ele>
        <time>2026-03-01T09:32:47Z</time>
      </trkpt>
      <trkpt lat="43.001937" lon="-1.803757">
        <ele>557.2</ele>
        <time>2026-03-01T09:32:48Z</time>
      </trkpt>
      <trkpt lat="43.001974" lon="-1.804042">
        <ele>557.4</ele>
        <time>2026-03-01T09:32:53Z</time>
      </trkpt>
      <trkpt lat="43.001991" lon="-1.804218">
        <ele>557.4</ele>
        <time>2026-03-01T09:32:56Z</time>
      </trkpt>
      <trkpt lat="43.002029" lon="-1.804435">
        <ele>557.6</ele>
        <time>2026-03-01T09:32:59Z</time>
      </trkpt>
      <trkpt lat="43.002145" lon="-1.804838">
        <ele>557.4</ele>
        <time>2026-03-01T09:33:05Z</time>
      </trkpt>
      <trkpt lat="43.002244" lon="-1.805322">
        <ele>557.2</ele>
        <time>2026-03-01T09:33:11Z</time>
      </trkpt>
      <trkpt lat="43.002287" lon="-1.805488">
        <ele>557.2</ele>
        <time>2026-03-01T09:33:13Z</time>
      </trkpt>
      <trkpt lat="43.002410" lon="-1.805909">
        <ele>556.6</ele>
        <time>2026-03-01T09:33:18Z</time>
      </trkpt>
      <trkpt lat="43.002443" lon="-1.805987">
        <ele>556.4</ele>
        <time>2026-03-01T09:33:19Z</time>
      </trkpt>
      <trkpt lat="43.002518" lon="-1.806090">
        <ele>556.4</ele>
        <time>2026-03-01T09:33:21Z</time>
      </trkpt>
      <trkpt lat="43.002589" lon="-1.806206">
        <ele>556.4</ele>
        <time>2026-03-01T09:33:23Z</time>
      </trkpt>
      <trkpt lat="43.002622" lon="-1.806270">
        <ele>556.4</ele>
        <time>2026-03-01T09:33:24Z</time>
      </trkpt>
      <trkpt lat="43.002678" lon="-1.806421">
        <ele>556.6</ele>
        <time>2026-03-01T09:33:26Z</time>
      </trkpt>
      <trkpt lat="43.002704" lon="-1.806602">
        <ele>556.6</ele>
        <time>2026-03-01T09:33:28Z</time>
      </trkpt>
      <trkpt lat="43.002728" lon="-1.806784">
        <ele>556.6</ele>
        <time>2026-03-01T09:33:30Z</time>
      </trkpt>
      <trkpt lat="43.002812" lon="-1.807187">
        <ele>557.0</ele>
        <time>2026-03-01T09:33:35Z</time>
      </trkpt>
      <trkpt lat="43.002894" lon="-1.807465">
        <ele>557.8</ele>
        <time>2026-03-01T09:33:39Z</time>
      </trkpt>
      <trkpt lat="43.002921" lon="-1.807520">
        <ele>558.0</ele>
        <time>2026-03-01T09:33:40Z</time>
      </trkpt>
      <trkpt lat="43.002947" lon="-1.807573">
        <ele>558.2</ele>
        <time>2026-03-01T09:33:41Z</time>
      </trkpt>
      <trkpt lat="43.003071" lon="-1.807820">
        <ele>559.0</ele>
        <time>2026-03-01T09:33:46Z</time>
      </trkpt>
      <trkpt lat="43.003120" lon="-1.807910">
        <ele>560.0</ele>
        <time>2026-03-01T09:33:48Z</time>
      </trkpt>
      <trkpt lat="43.003144" lon="-1.807956">
        <ele>560.4</ele>
        <time>2026-03-01T09:33:49Z</time>
      </trkpt>
      <trkpt lat="43.003212" lon="-1.808088">
        <ele>561.0</ele>
        <time>2026-03-01T09:33:52Z</time>
      </trkpt>
      <trkpt lat="43.003253" lon="-1.808174">
        <ele>561.4</ele>
        <time>2026-03-01T09:33:54Z</time>
      </trkpt>
      <trkpt lat="43.003320" lon="-1.808284">
        <ele>562.0</ele>
        <time>2026-03-01T09:33:57Z</time>
      </trkpt>
      <trkpt lat="43.003403" lon="-1.808428">
        <ele>562.4</ele>
        <time>2026-03-01T09:34:01Z</time>
      </trkpt>
      <trkpt lat="43.003507" lon="-1.808624">
        <ele>563.4</ele>
        <time>2026-03-01T09:34:06Z</time>
      </trkpt>
      <trkpt lat="43.003616" lon="-1.808830">
        <ele>564.6</ele>
        <time>2026-03-01T09:34:11Z</time>
      </trkpt>
      <trkpt lat="43.003658" lon="-1.808913">
        <ele>565.2</ele>
        <time>2026-03-01T09:34:13Z</time>
      </trkpt>
      <trkpt lat="43.003700" lon="-1.808992">
        <ele>565.6</ele>
        <time>2026-03-01T09:34:15Z</time>
      </trkpt>
      <trkpt lat="43.003721" lon="-1.809035">
        <ele>565.6</ele>
        <time>2026-03-01T09:34:16Z</time>
      </trkpt>
      <trkpt lat="43.003742" lon="-1.809081">
        <ele>565.8</ele>
        <time>2026-03-01T09:34:17Z</time>
      </trkpt>
      <trkpt lat="43.003784" lon="-1.809174">
        <ele>566.0</ele>
        <time>2026-03-01T09:34:19Z</time>
      </trkpt>
      <trkpt lat="43.003821" lon="-1.809274">
        <ele>566.2</ele>
        <time>2026-03-01T09:34:21Z</time>
      </trkpt>
      <trkpt lat="43.003918" lon="-1.809527">
        <ele>566.6</ele>
        <time>2026-03-01T09:34:26Z</time>
      </trkpt>
      <trkpt lat="43.003936" lon="-1.809580">
        <ele>566.8</ele>
        <time>2026-03-01T09:34:27Z</time>
      </trkpt>
      <trkpt lat="43.004082" lon="-1.810019">
        <ele>567.2</ele>
        <time>2026-03-01T09:34:35Z</time>
      </trkpt>
      <trkpt lat="43.004155" lon="-1.810245">
        <ele>567.6</ele>
        <time>2026-03-01T09:34:39Z</time>
      </trkpt>
      <trkpt lat="43.004176" lon="-1.810299">
        <ele>567.8</ele>
        <time>2026-03-01T09:34:40Z</time>
      </trkpt>
      <trkpt lat="43.004246" lon="-1.810502">
        <ele>568.4</ele>
        <time>2026-03-01T09:34:44Z</time>
      </trkpt>
      <trkpt lat="43.004331" lon="-1.810783">
        <ele>568.8</ele>
        <time>2026-03-01T09:34:49Z</time>
      </trkpt>
      <trkpt lat="43.004381" lon="-1.810951">
        <ele>569.6</ele>
        <time>2026-03-01T09:34:52Z</time>
      </trkpt>
      <trkpt lat="43.004430" lon="-1.811113">
        <ele>569.8</ele>
        <time>2026-03-01T09:34:55Z</time>
      </trkpt>
      <trkpt lat="43.004474" lon="-1.811282">
        <ele>570.6</ele>
        <time>2026-03-01T09:34:58Z</time>
      </trkpt>
      <trkpt lat="43.004502" lon="-1.811395">
        <ele>571.0</ele>
        <time>2026-03-01T09:35:00Z</time>
      </trkpt>
      <trkpt lat="43.004526" lon="-1.811508">
        <ele>571.0</ele>
        <time>2026-03-01T09:35:02Z</time>
      </trkpt>
      <trkpt lat="43.004648" lon="-1.812038">
        <ele>571.8</ele>
        <time>2026-03-01T09:35:11Z</time>
      </trkpt>
      <trkpt lat="43.004661" lon="-1.812095">
        <ele>572.0</ele>
        <time>2026-03-01T09:35:12Z</time>
      </trkpt>
      <trkpt lat="43.004674" lon="-1.812159">
        <ele>572.2</ele>
        <time>2026-03-01T09:35:13Z</time>
      </trkpt>
      <trkpt lat="43.004755" lon="-1.812711">
        <ele>572.8</ele>
        <time>2026-03-01T09:35:22Z</time>
      </trkpt>
      <trkpt lat="43.004762" lon="-1.812767">
        <ele>573.0</ele>
        <time>2026-03-01T09:35:23Z</time>
      </trkpt>
      <trkpt lat="43.004825" lon="-1.813099">
        <ele>574.2</ele>
        <time>2026-03-01T09:35:29Z</time>
      </trkpt>
      <trkpt lat="43.004841" lon="-1.813152">
        <ele>574.2</ele>
        <time>2026-03-01T09:35:30Z</time>
      </trkpt>
      <trkpt lat="43.004875" lon="-1.813260">
        <ele>574.8</ele>
        <time>2026-03-01T09:35:32Z</time>
      </trkpt>
      <trkpt lat="43.004908" lon="-1.813364">
        <ele>575.2</ele>
        <time>2026-03-01T09:35:34Z</time>
      </trkpt>
      <trkpt lat="43.004923" lon="-1.813416">
        <ele>575.4</ele>
        <time>2026-03-01T09:35:35Z</time>
      </trkpt>
      <trkpt lat="43.004980" lon="-1.813619">
        <ele>576.4</ele>
        <time>2026-03-01T09:35:39Z</time>
      </trkpt>
      <trkpt lat="43.004995" lon="-1.813669">
        <ele>576.6</ele>
        <time>2026-03-01T09:35:40Z</time>
      </trkpt>
      <trkpt lat="43.005031" lon="-1.813888">
        <ele>577.4</ele>
        <time>2026-03-01T09:35:44Z</time>
      </trkpt>
      <trkpt lat="43.005034" lon="-1.814064">
        <ele>577.4</ele>
        <time>2026-03-01T09:35:47Z</time>
      </trkpt>
      <trkpt lat="43.005014" lon="-1.814178">
        <ele>577.6</ele>
        <time>2026-03-01T09:35:49Z</time>
      </trkpt>
      <trkpt lat="43.004999" lon="-1.814230">
        <ele>577.8</ele>
        <time>2026-03-01T09:35:50Z</time>
      </trkpt>
      <trkpt lat="43.004948" lon="-1.814473">
        <ele>578.6</ele>
        <time>2026-03-01T09:35:55Z</time>
      </trkpt>
      <trkpt lat="43.004940" lon="-1.814522">
        <ele>578.6</ele>
        <time>2026-03-01T09:35:56Z</time>
      </trkpt>
      <trkpt lat="43.004928" lon="-1.814572">
        <ele>578.8</ele>
        <time>2026-03-01T09:35:57Z</time>
      </trkpt>
      <trkpt lat="43.004843" lon="-1.814847">
        <ele>579.6</ele>
        <time>2026-03-01T09:36:03Z</time>
      </trkpt>
      <trkpt lat="43.004775" lon="-1.815118">
        <ele>579.6</ele>
        <time>2026-03-01T09:36:09Z</time>
      </trkpt>
      <trkpt lat="43.004771" lon="-1.815270">
        <ele>579.6</ele>
        <time>2026-03-01T09:36:12Z</time>
      </trkpt>
      <trkpt lat="43.004776" lon="-1.815323">
        <ele>579.8</ele>
        <time>2026-03-01T09:36:13Z</time>
      </trkpt>
      <trkpt lat="43.004799" lon="-1.815425">
        <ele>580.4</ele>
        <time>2026-03-01T09:36:15Z</time>
      </trkpt>
      <trkpt lat="43.004817" lon="-1.815472">
        <ele>580.8</ele>
        <time>2026-03-01T09:36:16Z</time>
      </trkpt>
      <trkpt lat="43.004949" lon="-1.815688">
        <ele>580.8</ele>
        <time>2026-03-01T09:36:21Z</time>
      </trkpt>
      <trkpt lat="43.005021" lon="-1.815764">
        <ele>580.8</ele>
        <time>2026-03-01T09:36:23Z</time>
      </trkpt>
      <trkpt lat="43.005148" lon="-1.815872">
        <ele>580.8</ele>
        <time>2026-03-01T09:36:26Z</time>
      </trkpt>
      <trkpt lat="43.005196" lon="-1.815899">
        <ele>580.6</ele>
        <time>2026-03-01T09:36:27Z</time>
      </trkpt>
      <trkpt lat="43.005306" lon="-1.815944">
        <ele>580.6</ele>
        <time>2026-03-01T09:36:29Z</time>
      </trkpt>
      <trkpt lat="43.005363" lon="-1.815978">
        <ele>580.4</ele>
        <time>2026-03-01T09:36:30Z</time>
      </trkpt>
      <trkpt lat="43.005477" lon="-1.816068">
        <ele>579.4</ele>
        <time>2026-03-01T09:36:32Z</time>
      </trkpt>
      <trkpt lat="43.005693" lon="-1.816282">
        <ele>578.4</ele>
        <time>2026-03-01T09:36:36Z</time>
      </trkpt>
      <trkpt lat="43.005749" lon="-1.816328">
        <ele>578.4</ele>
        <time>2026-03-01T09:36:37Z</time>
      </trkpt>
      <trkpt lat="43.005867" lon="-1.816390">
        <ele>578.4</ele>
        <time>2026-03-01T09:36:39Z</time>
      </trkpt>
      <trkpt lat="43.006192" lon="-1.816534">
        <ele>579.4</ele>
        <time>2026-03-01T09:36:45Z</time>
      </trkpt>
      <trkpt lat="43.006244" lon="-1.816557">
        <ele>579.6</ele>
        <time>2026-03-01T09:36:46Z</time>
      </trkpt>
      <trkpt lat="43.006292" lon="-1.816578">
        <ele>580.0</ele>
        <time>2026-03-01T09:36:47Z</time>
      </trkpt>
      <trkpt lat="43.006385" lon="-1.816628">
        <ele>580.6</ele>
        <time>2026-03-01T09:36:49Z</time>
      </trkpt>
      <trkpt lat="43.006514" lon="-1.816693">
        <ele>581.0</ele>
        <time>2026-03-01T09:36:52Z</time>
      </trkpt>
      <trkpt lat="43.006645" lon="-1.816711">
        <ele>581.6</ele>
        <time>2026-03-01T09:36:55Z</time>
      </trkpt>
      <trkpt lat="43.006823" lon="-1.816756">
        <ele>582.6</ele>
        <time>2026-03-01T09:36:59Z</time>
      </trkpt>
      <trkpt lat="43.006868" lon="-1.816774">
        <ele>583.0</ele>
        <time>2026-03-01T09:37:00Z</time>
      </trkpt>
      <trkpt lat="43.006954" lon="-1.816831">
        <ele>583.2</ele>
        <time>2026-03-01T09:37:02Z</time>
      </trkpt>
      <trkpt lat="43.007031" lon="-1.816902">
        <ele>583.4</ele>
        <time>2026-03-01T09:37:04Z</time>
      </trkpt>
      <trkpt lat="43.007130" lon="-1.817035">
        <ele>584.0</ele>
        <time>2026-03-01T09:37:07Z</time>
      </trkpt>
      <trkpt lat="43.007266" lon="-1.817201">
        <ele>584.4</ele>
        <time>2026-03-01T09:37:11Z</time>
      </trkpt>
      <trkpt lat="43.007368" lon="-1.817313">
        <ele>585.2</ele>
        <time>2026-03-01T09:37:14Z</time>
      </trkpt>
      <trkpt lat="43.007438" lon="-1.817374">
        <ele>585.6</ele>
        <time>2026-03-01T09:37:16Z</time>
      </trkpt>
      <trkpt lat="43.007540" lon="-1.817450">
        <ele>586.4</ele>
        <time>2026-03-01T09:37:19Z</time>
      </trkpt>
      <trkpt lat="43.007642" lon="-1.817523">
        <ele>587.2</ele>
        <time>2026-03-01T09:37:22Z</time>
      </trkpt>
      <trkpt lat="43.007675" lon="-1.817548">
        <ele>587.6</ele>
        <time>2026-03-01T09:37:23Z</time>
      </trkpt>
      <trkpt lat="43.007823" lon="-1.817676">
        <ele>588.8</ele>
        <time>2026-03-01T09:37:28Z</time>
      </trkpt>
      <trkpt lat="43.007851" lon="-1.817702">
        <ele>589.0</ele>
        <time>2026-03-01T09:37:29Z</time>
      </trkpt>
      <trkpt lat="43.007907" lon="-1.817752">
        <ele>589.6</ele>
        <time>2026-03-01T09:37:31Z</time>
      </trkpt>
      <trkpt lat="43.007935" lon="-1.817779">
        <ele>590.0</ele>
        <time>2026-03-01T09:37:32Z</time>
      </trkpt>
      <trkpt lat="43.007983" lon="-1.817836">
        <ele>590.4</ele>
        <time>2026-03-01T09:37:34Z</time>
      </trkpt>
      <trkpt lat="43.008033" lon="-1.817892">
        <ele>590.8</ele>
        <time>2026-03-01T09:37:36Z</time>
      </trkpt>
      <trkpt lat="43.008060" lon="-1.817921">
        <ele>591.2</ele>
        <time>2026-03-01T09:37:37Z</time>
      </trkpt>
      <trkpt lat="43.008162" lon="-1.818063">
        <ele>592.4</ele>
        <time>2026-03-01T09:37:41Z</time>
      </trkpt>
      <trkpt lat="43.008255" lon="-1.818214">
        <ele>592.8</ele>
        <time>2026-03-01T09:37:45Z</time>
      </trkpt>
      <trkpt lat="43.008342" lon="-1.818369">
        <ele>593.4</ele>
        <time>2026-03-01T09:37:49Z</time>
      </trkpt>
      <trkpt lat="43.008413" lon="-1.818476">
        <ele>594.0</ele>
        <time>2026-03-01T09:37:52Z</time>
      </trkpt>
      <trkpt lat="43.008465" lon="-1.818540">
        <ele>594.2</ele>
        <time>2026-03-01T09:37:54Z</time>
      </trkpt>
      <trkpt lat="43.008513" lon="-1.818608">
        <ele>594.6</ele>
        <time>2026-03-01T09:37:56Z</time>
      </trkpt>
      <trkpt lat="43.008658" lon="-1.818835">
        <ele>595.4</ele>
        <time>2026-03-01T09:38:02Z</time>
      </trkpt>
      <trkpt lat="43.008684" lon="-1.818874">
        <ele>595.6</ele>
        <time>2026-03-01T09:38:03Z</time>
      </trkpt>
      <trkpt lat="43.008710" lon="-1.818914">
        <ele>595.6</ele>
        <time>2026-03-01T09:38:04Z</time>
      </trkpt>
      <trkpt lat="43.008896" lon="-1.819185">
        <ele>596.6</ele>
        <time>2026-03-01T09:38:11Z</time>
      </trkpt>
      <trkpt lat="43.008950" lon="-1.819266">
        <ele>596.6</ele>
        <time>2026-03-01T09:38:13Z</time>
      </trkpt>
      <trkpt lat="43.008976" lon="-1.819310">
        <ele>596.6</ele>
        <time>2026-03-01T09:38:14Z</time>
      </trkpt>
      <trkpt lat="43.009085" lon="-1.819478">
        <ele>596.8</ele>
        <time>2026-03-01T09:38:18Z</time>
      </trkpt>
      <trkpt lat="43.009221" lon="-1.819635">
        <ele>597.2</ele>
        <time>2026-03-01T09:38:22Z</time>
      </trkpt>
      <trkpt lat="43.009380" lon="-1.819784">
        <ele>597.0</ele>
        <time>2026-03-01T09:38:26Z</time>
      </trkpt>
      <trkpt lat="43.009421" lon="-1.819821">
        <ele>597.2</ele>
        <time>2026-03-01T09:38:27Z</time>
      </trkpt>
      <trkpt lat="43.009463" lon="-1.819858">
        <ele>597.2</ele>
        <time>2026-03-01T09:38:28Z</time>
      </trkpt>
      <trkpt lat="43.009505" lon="-1.819895">
        <ele>597.0</ele>
        <time>2026-03-01T09:38:29Z</time>
      </trkpt>
      <trkpt lat="43.009549" lon="-1.819931">
        <ele>596.8</ele>
        <time>2026-03-01T09:38:30Z</time>
      </trkpt>
      <trkpt lat="43.009595" lon="-1.819966">
        <ele>596.6</ele>
        <time>2026-03-01T09:38:31Z</time>
      </trkpt>
      <trkpt lat="43.009642" lon="-1.820000">
        <ele>596.6</ele>
        <time>2026-03-01T09:38:32Z</time>
      </trkpt>
      <trkpt lat="43.010048" lon="-1.820277">
        <ele>596.4</ele>
        <time>2026-03-01T09:38:40Z</time>
      </trkpt>
      <trkpt lat="43.010548" lon="-1.820679">
        <ele>596.2</ele>
        <time>2026-03-01T09:38:50Z</time>
      </trkpt>
      <trkpt lat="43.010808" lon="-1.820818">
        <ele>596.4</ele>
        <time>2026-03-01T09:38:55Z</time>
      </trkpt>
      <trkpt lat="43.010970" lon="-1.820869">
        <ele>596.6</ele>
        <time>2026-03-01T09:38:58Z</time>
      </trkpt>
      <trkpt lat="43.011224" lon="-1.820921">
        <ele>597.2</ele>
        <time>2026-03-01T09:39:03Z</time>
      </trkpt>
      <trkpt lat="43.011272" lon="-1.820919">
        <ele>597.4</ele>
        <time>2026-03-01T09:39:04Z</time>
      </trkpt>
      <trkpt lat="43.011365" lon="-1.820914">
        <ele>597.8</ele>
        <time>2026-03-01T09:39:06Z</time>
      </trkpt>
      <trkpt lat="43.011498" lon="-1.820929">
        <ele>598.0</ele>
        <time>2026-03-01T09:39:09Z</time>
      </trkpt>
      <trkpt lat="43.011608" lon="-1.821035">
        <ele>598.6</ele>
        <time>2026-03-01T09:39:12Z</time>
      </trkpt>
      <trkpt lat="43.011656" lon="-1.821055">
        <ele>598.8</ele>
        <time>2026-03-01T09:39:13Z</time>
      </trkpt>
      <trkpt lat="43.011700" lon="-1.821095">
        <ele>599.0</ele>
        <time>2026-03-01T09:39:14Z</time>
      </trkpt>
      <trkpt lat="43.011812" lon="-1.821267">
        <ele>599.4</ele>
        <time>2026-03-01T09:39:17Z</time>
      </trkpt>
      <trkpt lat="43.011910" lon="-1.821424">
        <ele>600.0</ele>
        <time>2026-03-01T09:39:20Z</time>
      </trkpt>
      <trkpt lat="43.012049" lon="-1.821584">
        <ele>600.4</ele>
        <time>2026-03-01T09:39:24Z</time>
      </trkpt>
      <trkpt lat="43.012113" lon="-1.821660">
        <ele>601.2</ele>
        <time>2026-03-01T09:39:26Z</time>
      </trkpt>
      <trkpt lat="43.012277" lon="-1.821817">
        <ele>602.2</ele>
        <time>2026-03-01T09:39:31Z</time>
      </trkpt>
      <trkpt lat="43.012307" lon="-1.821857">
        <ele>602.4</ele>
        <time>2026-03-01T09:39:32Z</time>
      </trkpt>
      <trkpt lat="43.012493" lon="-1.822087">
        <ele>602.4</ele>
        <time>2026-03-01T09:39:38Z</time>
      </trkpt>
      <trkpt lat="43.012565" lon="-1.822155">
        <ele>602.4</ele>
        <time>2026-03-01T09:39:40Z</time>
      </trkpt>
      <trkpt lat="43.012605" lon="-1.822184">
        <ele>602.4</ele>
        <time>2026-03-01T09:39:41Z</time>
      </trkpt>
      <trkpt lat="43.012776" lon="-1.822257">
        <ele>603.2</ele>
        <time>2026-03-01T09:39:45Z</time>
      </trkpt>
      <trkpt lat="43.012818" lon="-1.822261">
        <ele>603.2</ele>
        <time>2026-03-01T09:39:46Z</time>
      </trkpt>
      <trkpt lat="43.012942" lon="-1.822257">
        <ele>603.8</ele>
        <time>2026-03-01T09:39:49Z</time>
      </trkpt>
      <trkpt lat="43.013022" lon="-1.822237">
        <ele>604.2</ele>
        <time>2026-03-01T09:39:51Z</time>
      </trkpt>
      <trkpt lat="43.013064" lon="-1.822227">
        <ele>604.2</ele>
        <time>2026-03-01T09:39:52Z</time>
      </trkpt>
      <trkpt lat="43.013144" lon="-1.822203">
        <ele>604.6</ele>
        <time>2026-03-01T09:39:54Z</time>
      </trkpt>
      <trkpt lat="43.013329" lon="-1.822130">
        <ele>605.2</ele>
        <time>2026-03-01T09:39:59Z</time>
      </trkpt>
      <trkpt lat="43.013364" lon="-1.822116">
        <ele>605.4</ele>
        <time>2026-03-01T09:40:00Z</time>
      </trkpt>
      <trkpt lat="43.013554" lon="-1.822088">
        <ele>606.4</ele>
        <time>2026-03-01T09:40:05Z</time>
      </trkpt>
      <trkpt lat="43.013666" lon="-1.822114">
        <ele>607.0</ele>
        <time>2026-03-01T09:40:08Z</time>
      </trkpt>
      <trkpt lat="43.013718" lon="-1.822141">
        <ele>607.6</ele>
        <time>2026-03-01T09:40:10Z</time>
      </trkpt>
      <trkpt lat="43.013740" lon="-1.822158">
        <ele>608.0</ele>
        <time>2026-03-01T09:40:11Z</time>
      </trkpt>
      <trkpt lat="43.013793" lon="-1.822180">
        <ele>608.4</ele>
        <time>2026-03-01T09:40:13Z</time>
      </trkpt>
      <trkpt lat="43.013819" lon="-1.822186">
        <ele>608.6</ele>
        <time>2026-03-01T09:40:14Z</time>
      </trkpt>
      <trkpt lat="43.013901" lon="-1.822215">
        <ele>609.6</ele>
        <time>2026-03-01T09:40:17Z</time>
      </trkpt>
      <trkpt lat="43.013931" lon="-1.822219">
        <ele>609.8</ele>
        <time>2026-03-01T09:40:18Z</time>
      </trkpt>
      <trkpt lat="43.014026" lon="-1.822234">
        <ele>611.0</ele>
        <time>2026-03-01T09:40:22Z</time>
      </trkpt>
      <trkpt lat="43.014040" lon="-1.822247">
        <ele>611.2</ele>
        <time>2026-03-01T09:40:23Z</time>
      </trkpt>
      <trkpt lat="43.014108" lon="-1.822282">
        <ele>612.0</ele>
        <time>2026-03-01T09:40:26Z</time>
      </trkpt>
      <trkpt lat="43.014165" lon="-1.822303">
        <ele>612.6</ele>
        <time>2026-03-01T09:40:28Z</time>
      </trkpt>
      <trkpt lat="43.014215" lon="-1.822315">
        <ele>613.0</ele>
        <time>2026-03-01T09:40:30Z</time>
      </trkpt>
      <trkpt lat="43.014282" lon="-1.822318">
        <ele>613.4</ele>
        <time>2026-03-01T09:40:33Z</time>
      </trkpt>
      <trkpt lat="43.014302" lon="-1.822321">
        <ele>613.4</ele>
        <time>2026-03-01T09:40:34Z</time>
      </trkpt>
      <trkpt lat="43.014362" lon="-1.822333">
        <ele>614.0</ele>
        <time>2026-03-01T09:40:37Z</time>
      </trkpt>
      <trkpt lat="43.014457" lon="-1.822357">
        <ele>615.2</ele>
        <time>2026-03-01T09:40:41Z</time>
      </trkpt>
      <trkpt lat="43.014531" lon="-1.822398">
        <ele>616.4</ele>
        <time>2026-03-01T09:40:44Z</time>
      </trkpt>
      <trkpt lat="43.014628" lon="-1.822467">
        <ele>617.4</ele>
        <time>2026-03-01T09:40:48Z</time>
      </trkpt>
      <trkpt lat="43.014871" lon="-1.822590">
        <ele>618.2</ele>
        <time>2026-03-01T09:40:56Z</time>
      </trkpt>
      <trkpt lat="43.014934" lon="-1.822630">
        <ele>618.6</ele>
        <time>2026-03-01T09:40:58Z</time>
      </trkpt>
      <trkpt lat="43.015021" lon="-1.822694">
        <ele>619.2</ele>
        <time>2026-03-01T09:41:01Z</time>
      </trkpt>
      <trkpt lat="43.015074" lon="-1.822733">
        <ele>619.6</ele>
        <time>2026-03-01T09:41:03Z</time>
      </trkpt>
      <trkpt lat="43.015144" lon="-1.822807">
        <ele>619.8</ele>
        <time>2026-03-01T09:41:06Z</time>
      </trkpt>
      <trkpt lat="43.015181" lon="-1.822863">
        <ele>620.2</ele>
        <time>2026-03-01T09:41:08Z</time>
      </trkpt>
      <trkpt lat="43.015220" lon="-1.822919">
        <ele>620.8</ele>
        <time>2026-03-01T09:41:10Z</time>
      </trkpt>
      <trkpt lat="43.015326" lon="-1.823023">
        <ele>622.0</ele>
        <time>2026-03-01T09:41:15Z</time>
      </trkpt>
      <trkpt lat="43.015350" lon="-1.823042">
        <ele>622.2</ele>
        <time>2026-03-01T09:41:16Z</time>
      </trkpt>
      <trkpt lat="43.015435" lon="-1.823064">
        <ele>623.2</ele>
        <time>2026-03-01T09:41:19Z</time>
      </trkpt>
      <trkpt lat="43.015467" lon="-1.823100">
        <ele>623.6</ele>
        <time>2026-03-01T09:41:21Z</time>
      </trkpt>
      <trkpt lat="43.015500" lon="-1.823105">
        <ele>624.4</ele>
        <time>2026-03-01T09:41:23Z</time>
      </trkpt>
      <trkpt lat="43.015577" lon="-1.823066">
        <ele>625.4</ele>
        <time>2026-03-01T09:41:26Z</time>
      </trkpt>
      <trkpt lat="43.015602" lon="-1.823058">
        <ele>625.8</ele>
        <time>2026-03-01T09:41:27Z</time>
      </trkpt>
      <trkpt lat="43.015710" lon="-1.823023">
        <ele>626.6</ele>
        <time>2026-03-01T09:41:31Z</time>
      </trkpt>
      <trkpt lat="43.015789" lon="-1.822927">
        <ele>627.0</ele>
        <time>2026-03-01T09:41:34Z</time>
      </trkpt>
      <trkpt lat="43.015888" lon="-1.822811">
        <ele>627.8</ele>
        <time>2026-03-01T09:41:38Z</time>
      </trkpt>
      <trkpt lat="43.015983" lon="-1.822698">
        <ele>629.0</ele>
        <time>2026-03-01T09:41:42Z</time>
      </trkpt>
      <trkpt lat="43.016003" lon="-1.822677">
        <ele>629.2</ele>
        <time>2026-03-01T09:41:43Z</time>
      </trkpt>
      <trkpt lat="43.016073" lon="-1.822633">
        <ele>630.4</ele>
        <time>2026-03-01T09:41:46Z</time>
      </trkpt>
      <trkpt lat="43.016119" lon="-1.822605">
        <ele>631.0</ele>
        <time>2026-03-01T09:41:48Z</time>
      </trkpt>
      <trkpt lat="43.016189" lon="-1.822565">
        <ele>631.6</ele>
        <time>2026-03-01T09:41:51Z</time>
      </trkpt>
      <trkpt lat="43.016304" lon="-1.822534">
        <ele>632.6</ele>
        <time>2026-03-01T09:41:56Z</time>
      </trkpt>
      <trkpt lat="43.016461" lon="-1.822517">
        <ele>633.8</ele>
        <time>2026-03-01T09:42:02Z</time>
      </trkpt>
      <trkpt lat="43.016575" lon="-1.822523">
        <ele>634.6</ele>
        <time>2026-03-01T09:42:06Z</time>
      </trkpt>
      <trkpt lat="43.016631" lon="-1.822531">
        <ele>634.8</ele>
        <time>2026-03-01T09:42:08Z</time>
      </trkpt>
      <trkpt lat="43.016812" lon="-1.822587">
        <ele>635.4</ele>
        <time>2026-03-01T09:42:14Z</time>
      </trkpt>
      <trkpt lat="43.016967" lon="-1.822611">
        <ele>635.8</ele>
        <time>2026-03-01T09:42:19Z</time>
      </trkpt>
      <trkpt lat="43.017001" lon="-1.822613">
        <ele>635.8</ele>
        <time>2026-03-01T09:42:20Z</time>
      </trkpt>
      <trkpt lat="43.017158" lon="-1.822606">
        <ele>636.2</ele>
        <time>2026-03-01T09:42:25Z</time>
      </trkpt>
      <trkpt lat="43.017190" lon="-1.822607">
        <ele>636.2</ele>
        <time>2026-03-01T09:42:26Z</time>
      </trkpt>
      <trkpt lat="43.017311" lon="-1.822595">
        <ele>637.0</ele>
        <time>2026-03-01T09:42:30Z</time>
      </trkpt>
      <trkpt lat="43.017404" lon="-1.822593">
        <ele>637.8</ele>
        <time>2026-03-01T09:42:33Z</time>
      </trkpt>
      <trkpt lat="43.017435" lon="-1.822594">
        <ele>638.0</ele>
        <time>2026-03-01T09:42:34Z</time>
      </trkpt>
      <trkpt lat="43.017601" lon="-1.822553">
        <ele>639.2</ele>
        <time>2026-03-01T09:42:40Z</time>
      </trkpt>
      <trkpt lat="43.017630" lon="-1.822534">
        <ele>639.4</ele>
        <time>2026-03-01T09:42:41Z</time>
      </trkpt>
      <trkpt lat="43.017737" lon="-1.822463">
        <ele>640.4</ele>
        <time>2026-03-01T09:42:45Z</time>
      </trkpt>
      <trkpt lat="43.017852" lon="-1.822353">
        <ele>641.0</ele>
        <time>2026-03-01T09:42:49Z</time>
      </trkpt>
      <trkpt lat="43.017881" lon="-1.822319">
        <ele>641.2</ele>
        <time>2026-03-01T09:42:50Z</time>
      </trkpt>
      <trkpt lat="43.017911" lon="-1.822286">
        <ele>641.6</ele>
        <time>2026-03-01T09:42:51Z</time>
      </trkpt>
      <trkpt lat="43.018009" lon="-1.822192">
        <ele>641.8</ele>
        <time>2026-03-01T09:42:54Z</time>
      </trkpt>
      <trkpt lat="43.018120" lon="-1.822118">
        <ele>642.8</ele>
        <time>2026-03-01T09:42:58Z</time>
      </trkpt>
      <trkpt lat="43.018198" lon="-1.822087">
        <ele>644.0</ele>
        <time>2026-03-01T09:43:01Z</time>
      </trkpt>
      <trkpt lat="43.018222" lon="-1.822073">
        <ele>644.4</ele>
        <time>2026-03-01T09:43:02Z</time>
      </trkpt>
      <trkpt lat="43.018316" lon="-1.822021">
        <ele>645.2</ele>
        <time>2026-03-01T09:43:06Z</time>
      </trkpt>
      <trkpt lat="43.018393" lon="-1.822009">
        <ele>646.4</ele>
        <time>2026-03-01T09:43:09Z</time>
      </trkpt>
      <trkpt lat="43.018514" lon="-1.822010">
        <ele>647.0</ele>
        <time>2026-03-01T09:43:13Z</time>
      </trkpt>
      <trkpt lat="43.018629" lon="-1.822075">
        <ele>647.4</ele>
        <time>2026-03-01T09:43:17Z</time>
      </trkpt>
      <trkpt lat="43.018655" lon="-1.822098">
        <ele>647.2</ele>
        <time>2026-03-01T09:43:18Z</time>
      </trkpt>
      <trkpt lat="43.018832" lon="-1.822310">
        <ele>646.6</ele>
        <time>2026-03-01T09:43:24Z</time>
      </trkpt>
      <trkpt lat="43.018897" lon="-1.822356">
        <ele>646.4</ele>
        <time>2026-03-01T09:43:26Z</time>
      </trkpt>
      <trkpt lat="43.018933" lon="-1.822376">
        <ele>646.4</ele>
        <time>2026-03-01T09:43:27Z</time>
      </trkpt>
      <trkpt lat="43.018963" lon="-1.822382">
        <ele>646.2</ele>
        <time>2026-03-01T09:43:28Z</time>
      </trkpt>
      <trkpt lat="43.019138" lon="-1.822414">
        <ele>646.0</ele>
        <time>2026-03-01T09:43:32Z</time>
      </trkpt>
      <trkpt lat="43.019181" lon="-1.822404">
        <ele>646.0</ele>
        <time>2026-03-01T09:43:33Z</time>
      </trkpt>
      <trkpt lat="43.019308" lon="-1.822398">
        <ele>646.4</ele>
        <time>2026-03-01T09:43:36Z</time>
      </trkpt>
      <trkpt lat="43.019434" lon="-1.822469">
        <ele>647.4</ele>
        <time>2026-03-01T09:43:39Z</time>
      </trkpt>
      <trkpt lat="43.019573" lon="-1.822573">
        <ele>648.0</ele>
        <time>2026-03-01T09:43:42Z</time>
      </trkpt>
      <trkpt lat="43.019703" lon="-1.822662">
        <ele>648.4</ele>
        <time>2026-03-01T09:43:45Z</time>
      </trkpt>
      <trkpt lat="43.019898" lon="-1.822778">
        <ele>649.2</ele>
        <time>2026-03-01T09:43:50Z</time>
      </trkpt>
      <trkpt lat="43.020010" lon="-1.822836">
        <ele>649.6</ele>
        <time>2026-03-01T09:43:53Z</time>
      </trkpt>
      <trkpt lat="43.020090" lon="-1.822889">
        <ele>650.0</ele>
        <time>2026-03-01T09:43:55Z</time>
      </trkpt>
      <trkpt lat="43.020160" lon="-1.822976">
        <ele>650.0</ele>
        <time>2026-03-01T09:43:57Z</time>
      </trkpt>
      <trkpt lat="43.020216" lon="-1.823090">
        <ele>650.2</ele>
        <time>2026-03-01T09:43:59Z</time>
      </trkpt>
      <trkpt lat="43.020239" lon="-1.823153">
        <ele>650.2</ele>
        <time>2026-03-01T09:44:00Z</time>
      </trkpt>
      <trkpt lat="43.020357" lon="-1.823427">
        <ele>649.2</ele>
        <time>2026-03-01T09:44:04Z</time>
      </trkpt>
      <trkpt lat="43.020542" lon="-1.823639">
        <ele>648.8</ele>
        <time>2026-03-01T09:44:08Z</time>
      </trkpt>
      <trkpt lat="43.020649" lon="-1.823728">
        <ele>648.8</ele>
        <time>2026-03-01T09:44:10Z</time>
      </trkpt>
      <trkpt lat="43.020820" lon="-1.823814">
        <ele>648.6</ele>
        <time>2026-03-01T09:44:13Z</time>
      </trkpt>
      <trkpt lat="43.020877" lon="-1.823826">
        <ele>648.6</ele>
        <time>2026-03-01T09:44:14Z</time>
      </trkpt>
      <trkpt lat="43.020938" lon="-1.823836">
        <ele>648.8</ele>
        <time>2026-03-01T09:44:15Z</time>
      </trkpt>
      <trkpt lat="43.020994" lon="-1.823839">
        <ele>648.6</ele>
        <time>2026-03-01T09:44:16Z</time>
      </trkpt>
      <trkpt lat="43.021053" lon="-1.823845">
        <ele>648.6</ele>
        <time>2026-03-01T09:44:17Z</time>
      </trkpt>
      <trkpt lat="43.021108" lon="-1.823849">
        <ele>648.8</ele>
        <time>2026-03-01T09:44:18Z</time>
      </trkpt>
      <trkpt lat="43.021157" lon="-1.823848">
        <ele>648.8</ele>
        <time>2026-03-01T09:44:19Z</time>
      </trkpt>
      <trkpt lat="43.021211" lon="-1.823854">
        <ele>649.0</ele>
        <time>2026-03-01T09:44:20Z</time>
      </trkpt>
      <trkpt lat="43.021266" lon="-1.823868">
        <ele>649.2</ele>
        <time>2026-03-01T09:44:21Z</time>
      </trkpt>
      <trkpt lat="43.021424" lon="-1.823921">
        <ele>650.0</ele>
        <time>2026-03-01T09:44:24Z</time>
      </trkpt>
      <trkpt lat="43.021764" lon="-1.824085">
        <ele>649.8</ele>
        <time>2026-03-01T09:44:30Z</time>
      </trkpt>
      <trkpt lat="43.021823" lon="-1.824112">
        <ele>649.8</ele>
        <time>2026-03-01T09:44:31Z</time>
      </trkpt>
      <trkpt lat="43.021887" lon="-1.824130">
        <ele>649.8</ele>
        <time>2026-03-01T09:44:32Z</time>
      </trkpt>
      <trkpt lat="43.021951" lon="-1.824143">
        <ele>649.8</ele>
        <time>2026-03-01T09:44:33Z</time>
      </trkpt>
      <trkpt lat="43.022186" lon="-1.824158">
        <ele>650.6</ele>
        <time>2026-03-01T09:44:37Z</time>
      </trkpt>
      <trkpt lat="43.022242" lon="-1.824151">
        <ele>651.0</ele>
        <time>2026-03-01T09:44:38Z</time>
      </trkpt>
      <trkpt lat="43.022351" lon="-1.824142">
        <ele>651.6</ele>
        <time>2026-03-01T09:44:40Z</time>
      </trkpt>
      <trkpt lat="43.022488" lon="-1.824159">
        <ele>652.4</ele>
        <time>2026-03-01T09:44:43Z</time>
      </trkpt>
      <trkpt lat="43.022645" lon="-1.824234">
        <ele>653.8</ele>
        <time>2026-03-01T09:44:48Z</time>
      </trkpt>
      <trkpt lat="43.022718" lon="-1.824284">
        <ele>655.0</ele>
        <time>2026-03-01T09:44:51Z</time>
      </trkpt>
      <trkpt lat="43.022804" lon="-1.824357">
        <ele>656.4</ele>
        <time>2026-03-01T09:44:55Z</time>
      </trkpt>
      <trkpt lat="43.022844" lon="-1.824401">
        <ele>657.0</ele>
        <time>2026-03-01T09:44:57Z</time>
      </trkpt>
      <trkpt lat="43.022885" lon="-1.824440">
        <ele>657.4</ele>
        <time>2026-03-01T09:44:59Z</time>
      </trkpt>
      <trkpt lat="43.022905" lon="-1.824462">
        <ele>657.8</ele>
        <time>2026-03-01T09:45:00Z</time>
      </trkpt>
      <trkpt lat="43.022968" lon="-1.824548">
        <ele>658.4</ele>
        <time>2026-03-01T09:45:03Z</time>
      </trkpt>
      <trkpt lat="43.022986" lon="-1.824575">
        <ele>658.6</ele>
        <time>2026-03-01T09:45:04Z</time>
      </trkpt>
      <trkpt lat="43.023002" lon="-1.824599">
        <ele>658.8</ele>
        <time>2026-03-01T09:45:05Z</time>
      </trkpt>
      <trkpt lat="43.023068" lon="-1.824686">
        <ele>660.0</ele>
        <time>2026-03-01T09:45:09Z</time>
      </trkpt>
      <trkpt lat="43.023088" lon="-1.824706">
        <ele>660.2</ele>
        <time>2026-03-01T09:45:10Z</time>
      </trkpt>
      <trkpt lat="43.023105" lon="-1.824725">
        <ele>660.6</ele>
        <time>2026-03-01T09:45:11Z</time>
      </trkpt>
      <trkpt lat="43.023141" lon="-1.824767">
        <ele>661.0</ele>
        <time>2026-03-01T09:45:13Z</time>
      </trkpt>
      <trkpt lat="43.023195" lon="-1.824836">
        <ele>661.6</ele>
        <time>2026-03-01T09:45:16Z</time>
      </trkpt>
      <trkpt lat="43.023214" lon="-1.824858">
        <ele>662.0</ele>
        <time>2026-03-01T09:45:17Z</time>
      </trkpt>
      <trkpt lat="43.023268" lon="-1.824914">
        <ele>663.0</ele>
        <time>2026-03-01T09:45:20Z</time>
      </trkpt>
      <trkpt lat="43.023286" lon="-1.824932">
        <ele>663.2</ele>
        <time>2026-03-01T09:45:21Z</time>
      </trkpt>
      <trkpt lat="43.023347" lon="-1.825016">
        <ele>664.6</ele>
        <time>2026-03-01T09:45:25Z</time>
      </trkpt>
      <trkpt lat="43.023387" lon="-1.825039">
        <ele>665.0</ele>
        <time>2026-03-01T09:45:27Z</time>
      </trkpt>
      <trkpt lat="43.023435" lon="-1.825074">
        <ele>665.6</ele>
        <time>2026-03-01T09:45:30Z</time>
      </trkpt>
      <trkpt lat="43.023480" lon="-1.825119">
        <ele>666.4</ele>
        <time>2026-03-01T09:45:33Z</time>
      </trkpt>
      <trkpt lat="43.023492" lon="-1.825135">
        <ele>666.8</ele>
        <time>2026-03-01T09:45:34Z</time>
      </trkpt>
      <trkpt lat="43.023545" lon="-1.825222">
        <ele>667.8</ele>
        <time>2026-03-01T09:45:39Z</time>
      </trkpt>
      <trkpt lat="43.023575" lon="-1.825279">
        <ele>668.4</ele>
        <time>2026-03-01T09:45:42Z</time>
      </trkpt>
      <trkpt lat="43.023595" lon="-1.825322">
        <ele>669.0</ele>
        <time>2026-03-01T09:45:44Z</time>
      </trkpt>
      <trkpt lat="43.023642" lon="-1.825413">
        <ele>670.2</ele>
        <time>2026-03-01T09:45:48Z</time>
      </trkpt>
      <trkpt lat="43.023656" lon="-1.825432">
        <ele>670.4</ele>
        <time>2026-03-01T09:45:49Z</time>
      </trkpt>
      <trkpt lat="43.023684" lon="-1.825472">
        <ele>671.2</ele>
        <time>2026-03-01T09:45:51Z</time>
      </trkpt>
      <trkpt lat="43.023749" lon="-1.825535">
        <ele>672.2</ele>
        <time>2026-03-01T09:45:55Z</time>
      </trkpt>
      <trkpt lat="43.023768" lon="-1.825550">
        <ele>673.0</ele>
        <time>2026-03-01T09:45:56Z</time>
      </trkpt>
      <trkpt lat="43.023816" lon="-1.825569">
        <ele>673.4</ele>
        <time>2026-03-01T09:45:58Z</time>
      </trkpt>
      <trkpt lat="43.023868" lon="-1.825616">
        <ele>674.6</ele>
        <time>2026-03-01T09:46:01Z</time>
      </trkpt>
      <trkpt lat="43.023897" lon="-1.825647">
        <ele>674.8</ele>
        <time>2026-03-01T09:46:03Z</time>
      </trkpt>
      <trkpt lat="43.023961" lon="-1.825702">
        <ele>675.6</ele>
        <time>2026-03-01T09:46:07Z</time>
      </trkpt>
      <trkpt lat="43.024012" lon="-1.825749">
        <ele>676.4</ele>
        <time>2026-03-01T09:46:10Z</time>
      </trkpt>
      <trkpt lat="43.024030" lon="-1.825770">
        <ele>676.6</ele>
        <time>2026-03-01T09:46:11Z</time>
      </trkpt>
      <trkpt lat="43.024081" lon="-1.825824">
        <ele>677.2</ele>
        <time>2026-03-01T09:46:14Z</time>
      </trkpt>
      <trkpt lat="43.024124" lon="-1.825863">
        <ele>677.4</ele>
        <time>2026-03-01T09:46:16Z</time>
      </trkpt>
      <trkpt lat="43.024172" lon="-1.825898">
        <ele>677.6</ele>
        <time>2026-03-01T09:46:18Z</time>
      </trkpt>
      <trkpt lat="43.024254" lon="-1.826003">
        <ele>677.8</ele>
        <time>2026-03-01T09:46:22Z</time>
      </trkpt>
      <trkpt lat="43.024293" lon="-1.826065">
        <ele>678.0</ele>
        <time>2026-03-01T09:46:24Z</time>
      </trkpt>
      <trkpt lat="43.024367" lon="-1.826195">
        <ele>678.6</ele>
        <time>2026-03-01T09:46:28Z</time>
      </trkpt>
      <trkpt lat="43.024387" lon="-1.826224">
        <ele>678.6</ele>
        <time>2026-03-01T09:46:29Z</time>
      </trkpt>
      <trkpt lat="43.024409" lon="-1.826252">
        <ele>678.8</ele>
        <time>2026-03-01T09:46:30Z</time>
      </trkpt>
      <trkpt lat="43.024567" lon="-1.826379">
        <ele>679.4</ele>
        <time>2026-03-01T09:46:36Z</time>
      </trkpt>
      <trkpt lat="43.024594" lon="-1.826400">
        <ele>679.4</ele>
        <time>2026-03-01T09:46:37Z</time>
      </trkpt>
      <trkpt lat="43.024650" lon="-1.826435">
        <ele>679.8</ele>
        <time>2026-03-01T09:46:39Z</time>
      </trkpt>
      <trkpt lat="43.024677" lon="-1.826453">
        <ele>679.8</ele>
        <time>2026-03-01T09:46:40Z</time>
      </trkpt>
      <trkpt lat="43.024810" lon="-1.826514">
        <ele>680.2</ele>
        <time>2026-03-01T09:46:45Z</time>
      </trkpt>
      <trkpt lat="43.024938" lon="-1.826485">
        <ele>681.0</ele>
        <time>2026-03-01T09:46:50Z</time>
      </trkpt>
      <trkpt lat="43.024962" lon="-1.826478">
        <ele>681.2</ele>
        <time>2026-03-01T09:46:51Z</time>
      </trkpt>
      <trkpt lat="43.024994" lon="-1.826474">
        <ele>682.0</ele>
        <time>2026-03-01T09:46:55Z</time>
      </trkpt>
      <trkpt lat="43.024993" lon="-1.826473">
        <ele>682.0</ele>
        <time>2026-03-01T09:46:58Z</time>
      </trkpt>
      <trkpt lat="43.024993" lon="-1.826473">
        <ele>681.8</ele>
        <time>2026-03-01T09:47:00Z</time>
      </trkpt>
      <trkpt lat="43.024994" lon="-1.826477">
        <ele>682.0</ele>
        <time>2026-03-01T09:47:08Z</time>
      </trkpt>
      <trkpt lat="43.024995" lon="-1.826477">
        <ele>682.0</ele>
        <time>2026-03-01T09:47:13Z</time>
      </trkpt>
      <trkpt lat="43.024995" lon="-1.826473">
        <ele>681.8</ele>
        <time>2026-03-01T09:47:23Z</time>
      </trkpt>
      <trkpt lat="43.024995" lon="-1.826473">
        <ele>681.6</ele>
        <time>2026-03-01T09:47:27Z</time>
      </trkpt>
      <trkpt lat="43.024997" lon="-1.826473">
        <ele>681.6</ele>
        <time>2026-03-01T09:47:29Z</time>
      </trkpt>
      <trkpt lat="43.024998" lon="-1.826471">
        <ele>682.0</ele>
        <time>2026-03-01T09:47:34Z</time>
      </trkpt>
      <trkpt lat="43.024996" lon="-1.826471">
        <ele>681.8</ele>
        <time>2026-03-01T09:47:44Z</time>
      </trkpt>
      <trkpt lat="43.024996" lon="-1.826475">
        <ele>681.8</ele>
        <time>2026-03-01T09:47:47Z</time>
      </trkpt>
      <trkpt lat="43.024996" lon="-1.826475">
        <ele>681.6</ele>
        <time>2026-03-01T09:47:50Z</time>
      </trkpt>
      <trkpt lat="43.024995" lon="-1.826475">
        <ele>681.4</ele>
        <time>2026-03-01T09:47:52Z</time>
      </trkpt>
      <trkpt lat="43.024995" lon="-1.826475">
        <ele>681.6</ele>
        <time>2026-03-01T09:47:53Z</time>
      </trkpt>
      <trkpt lat="43.024996" lon="-1.826475">
        <ele>681.6</ele>
        <time>2026-03-01T09:47:54Z</time>
      </trkpt>
      <trkpt lat="43.025004" lon="-1.826480">
        <ele>681.4</ele>
        <time>2026-03-01T09:48:02Z</time>
      </trkpt>
      <trkpt lat="43.025014" lon="-1.826483">
        <ele>681.4</ele>
        <time>2026-03-01T09:48:03Z</time>
      </trkpt>
      <trkpt lat="43.025137" lon="-1.826437">
        <ele>681.6</ele>
        <time>2026-03-01T09:48:09Z</time>
      </trkpt>
      <trkpt lat="43.025362" lon="-1.826389">
        <ele>683.4</ele>
        <time>2026-03-01T09:48:18Z</time>
      </trkpt>
      <trkpt lat="43.025471" lon="-1.826408">
        <ele>684.6</ele>
        <time>2026-03-01T09:48:22Z</time>
      </trkpt>
      <trkpt lat="43.025500" lon="-1.826416">
        <ele>684.6</ele>
        <time>2026-03-01T09:48:23Z</time>
      </trkpt>
      <trkpt lat="43.025527" lon="-1.826426">
        <ele>684.8</ele>
        <time>2026-03-01T09:48:24Z</time>
      </trkpt>
      <trkpt lat="43.025555" lon="-1.826441">
        <ele>685.0</ele>
        <time>2026-03-01T09:48:25Z</time>
      </trkpt>
      <trkpt lat="43.025581" lon="-1.826459">
        <ele>685.0</ele>
        <time>2026-03-01T09:48:26Z</time>
      </trkpt>
      <trkpt lat="43.025633" lon="-1.826495">
        <ele>685.6</ele>
        <time>2026-03-01T09:48:28Z</time>
      </trkpt>
      <trkpt lat="43.025734" lon="-1.826571">
        <ele>686.6</ele>
        <time>2026-03-01T09:48:32Z</time>
      </trkpt>
      <trkpt lat="43.025862" lon="-1.826665">
        <ele>687.4</ele>
        <time>2026-03-01T09:48:37Z</time>
      </trkpt>
      <trkpt lat="43.025887" lon="-1.826684">
        <ele>687.8</ele>
        <time>2026-03-01T09:48:38Z</time>
      </trkpt>
      <trkpt lat="43.025970" lon="-1.826705">
        <ele>688.2</ele>
        <time>2026-03-01T09:48:41Z</time>
      </trkpt>
      <trkpt lat="43.026027" lon="-1.826703">
        <ele>688.4</ele>
        <time>2026-03-01T09:48:43Z</time>
      </trkpt>
      <trkpt lat="43.026084" lon="-1.826706">
        <ele>689.0</ele>
        <time>2026-03-01T09:48:45Z</time>
      </trkpt>
      <trkpt lat="43.026214" lon="-1.826724">
        <ele>689.8</ele>
        <time>2026-03-01T09:48:50Z</time>
      </trkpt>
      <trkpt lat="43.026240" lon="-1.826728">
        <ele>690.2</ele>
        <time>2026-03-01T09:48:51Z</time>
      </trkpt>
      <trkpt lat="43.026265" lon="-1.826731">
        <ele>690.4</ele>
        <time>2026-03-01T09:48:52Z</time>
      </trkpt>
      <trkpt lat="43.026401" lon="-1.826761">
        <ele>691.2</ele>
        <time>2026-03-01T09:48:57Z</time>
      </trkpt>
      <trkpt lat="43.026503" lon="-1.826789">
        <ele>691.8</ele>
        <time>2026-03-01T09:49:01Z</time>
      </trkpt>
      <trkpt lat="43.026542" lon="-1.826788">
        <ele>691.8</ele>
        <time>2026-03-01T09:49:03Z</time>
      </trkpt>
      <trkpt lat="43.026559" lon="-1.826786">
        <ele>692.4</ele>
        <time>2026-03-01T09:49:04Z</time>
      </trkpt>
      <trkpt lat="43.026572" lon="-1.826782">
        <ele>692.6</ele>
        <time>2026-03-01T09:49:05Z</time>
      </trkpt>
      <trkpt lat="43.026578" lon="-1.826775">
        <ele>692.8</ele>
        <time>2026-03-01T09:49:07Z</time>
      </trkpt>
      <trkpt lat="43.026578" lon="-1.826769">
        <ele>693.0</ele>
        <time>2026-03-01T09:49:13Z</time>
      </trkpt>
      <trkpt lat="43.026612" lon="-1.826767">
        <ele>693.0</ele>
        <time>2026-03-01T09:49:18Z</time>
      </trkpt>
      <trkpt lat="43.026611" lon="-1.826767">
        <ele>692.8</ele>
        <time>2026-03-01T09:49:20Z</time>
      </trkpt>
      <trkpt lat="43.026609" lon="-1.826766">
        <ele>692.8</ele>
        <time>2026-03-01T09:49:26Z</time>
      </trkpt>
      <trkpt lat="43.026609" lon="-1.826766">
        <ele>692.8</ele>
        <time>2026-03-01T09:49:29Z</time>
      </trkpt>
      <trkpt lat="43.026609" lon="-1.826766">
        <ele>692.6</ele>
        <time>2026-03-01T09:49:33Z</time>
      </trkpt>
      <trkpt lat="43.026609" lon="-1.826768">
        <ele>692.2</ele>
        <time>2026-03-01T09:49:43Z</time>
      </trkpt>
      <trkpt lat="43.026608" lon="-1.826770">
        <ele>692.2</ele>
        <time>2026-03-01T09:49:52Z</time>
      </trkpt>
      <trkpt lat="43.026608" lon="-1.826769">
        <ele>692.4</ele>
        <time>2026-03-01T09:49:57Z</time>
      </trkpt>
      <trkpt lat="43.026610" lon="-1.826779">
        <ele>692.4</ele>
        <time>2026-03-01T09:49:59Z</time>
      </trkpt>
      <trkpt lat="43.026614" lon="-1.826785">
        <ele>692.6</ele>
        <time>2026-03-01T09:50:00Z</time>
      </trkpt>
      <trkpt lat="43.026630" lon="-1.826809">
        <ele>692.6</ele>
        <time>2026-03-01T09:50:02Z</time>
      </trkpt>
      <trkpt lat="43.026735" lon="-1.826909">
        <ele>692.4</ele>
        <time>2026-03-01T09:50:07Z</time>
      </trkpt>
      <trkpt lat="43.026869" lon="-1.827078">
        <ele>693.4</ele>
        <time>2026-03-01T09:50:13Z</time>
      </trkpt>
      <trkpt lat="43.026890" lon="-1.827107">
        <ele>693.8</ele>
        <time>2026-03-01T09:50:14Z</time>
      </trkpt>
      <trkpt lat="43.026952" lon="-1.827190">
        <ele>694.4</ele>
        <time>2026-03-01T09:50:17Z</time>
      </trkpt>
      <trkpt lat="43.027052" lon="-1.827257">
        <ele>694.8</ele>
        <time>2026-03-01T09:50:21Z</time>
      </trkpt>
      <trkpt lat="43.027082" lon="-1.827255">
        <ele>695.0</ele>
        <time>2026-03-01T09:50:22Z</time>
      </trkpt>
      <trkpt lat="43.027137" lon="-1.827216">
        <ele>695.6</ele>
        <time>2026-03-01T09:50:24Z</time>
      </trkpt>
      <trkpt lat="43.027160" lon="-1.827188">
        <ele>695.6</ele>
        <time>2026-03-01T09:50:25Z</time>
      </trkpt>
      <trkpt lat="43.027246" lon="-1.827037">
        <ele>696.6</ele>
        <time>2026-03-01T09:50:30Z</time>
      </trkpt>
      <trkpt lat="43.027262" lon="-1.827007">
        <ele>697.0</ele>
        <time>2026-03-01T09:50:31Z</time>
      </trkpt>
      <trkpt lat="43.027303" lon="-1.826918">
        <ele>698.0</ele>
        <time>2026-03-01T09:50:34Z</time>
      </trkpt>
      <trkpt lat="43.027342" lon="-1.826826">
        <ele>699.0</ele>
        <time>2026-03-01T09:50:37Z</time>
      </trkpt>
      <trkpt lat="43.027357" lon="-1.826800">
        <ele>699.2</ele>
        <time>2026-03-01T09:50:38Z</time>
      </trkpt>
      <trkpt lat="43.027426" lon="-1.826650">
        <ele>700.0</ele>
        <time>2026-03-01T09:50:43Z</time>
      </trkpt>
      <trkpt lat="43.027469" lon="-1.826560">
        <ele>700.6</ele>
        <time>2026-03-01T09:50:46Z</time>
      </trkpt>
      <trkpt lat="43.027481" lon="-1.826528">
        <ele>701.0</ele>
        <time>2026-03-01T09:50:47Z</time>
      </trkpt>
      <trkpt lat="43.027554" lon="-1.826386">
        <ele>702.0</ele>
        <time>2026-03-01T09:50:52Z</time>
      </trkpt>
      <trkpt lat="43.027574" lon="-1.826372">
        <ele>702.2</ele>
        <time>2026-03-01T09:50:53Z</time>
      </trkpt>
      <trkpt lat="43.027595" lon="-1.826365">
        <ele>702.4</ele>
        <time>2026-03-01T09:50:54Z</time>
      </trkpt>
      <trkpt lat="43.027654" lon="-1.826378">
        <ele>703.2</ele>
        <time>2026-03-01T09:50:57Z</time>
      </trkpt>
      <trkpt lat="43.027667" lon="-1.826396">
        <ele>703.2</ele>
        <time>2026-03-01T09:50:58Z</time>
      </trkpt>
      <trkpt lat="43.027677" lon="-1.826422">
        <ele>703.6</ele>
        <time>2026-03-01T09:50:59Z</time>
      </trkpt>
      <trkpt lat="43.027734" lon="-1.826548">
        <ele>704.4</ele>
        <time>2026-03-01T09:51:04Z</time>
      </trkpt>
      <trkpt lat="43.027754" lon="-1.826573">
        <ele>705.0</ele>
        <time>2026-03-01T09:51:05Z</time>
      </trkpt>
      <trkpt lat="43.027794" lon="-1.826630">
        <ele>705.6</ele>
        <time>2026-03-01T09:51:07Z</time>
      </trkpt>
      <trkpt lat="43.027893" lon="-1.826763">
        <ele>706.2</ele>
        <time>2026-03-01T09:51:12Z</time>
      </trkpt>
      <trkpt lat="43.027960" lon="-1.826832">
        <ele>706.6</ele>
        <time>2026-03-01T09:51:15Z</time>
      </trkpt>
      <trkpt lat="43.028074" lon="-1.826930">
        <ele>707.0</ele>
        <time>2026-03-01T09:51:20Z</time>
      </trkpt>
      <trkpt lat="43.028140" lon="-1.826978">
        <ele>707.8</ele>
        <time>2026-03-01T09:51:23Z</time>
      </trkpt>
      <trkpt lat="43.028217" lon="-1.827002">
        <ele>708.4</ele>
        <time>2026-03-01T09:51:26Z</time>
      </trkpt>
      <trkpt lat="43.028242" lon="-1.827017">
        <ele>708.6</ele>
        <time>2026-03-01T09:51:27Z</time>
      </trkpt>
      <trkpt lat="43.028266" lon="-1.827037">
        <ele>708.8</ele>
        <time>2026-03-01T09:51:28Z</time>
      </trkpt>
      <trkpt lat="43.028385" lon="-1.827124">
        <ele>709.6</ele>
        <time>2026-03-01T09:51:33Z</time>
      </trkpt>
      <trkpt lat="43.028410" lon="-1.827138">
        <ele>710.0</ele>
        <time>2026-03-01T09:51:34Z</time>
      </trkpt>
      <trkpt lat="43.028435" lon="-1.827153">
        <ele>710.4</ele>
        <time>2026-03-01T09:51:35Z</time>
      </trkpt>
      <trkpt lat="43.028564" lon="-1.827159">
        <ele>711.2</ele>
        <time>2026-03-01T09:51:40Z</time>
      </trkpt>
      <trkpt lat="43.028587" lon="-1.827146">
        <ele>711.4</ele>
        <time>2026-03-01T09:51:41Z</time>
      </trkpt>
      <trkpt lat="43.028670" lon="-1.827074">
        <ele>712.4</ele>
        <time>2026-03-01T09:51:45Z</time>
      </trkpt>
      <trkpt lat="43.028743" lon="-1.827000">
        <ele>713.6</ele>
        <time>2026-03-01T09:51:49Z</time>
      </trkpt>
      <trkpt lat="43.028817" lon="-1.826924">
        <ele>714.6</ele>
        <time>2026-03-01T09:51:53Z</time>
      </trkpt>
      <trkpt lat="43.028873" lon="-1.826876">
        <ele>715.4</ele>
        <time>2026-03-01T09:51:56Z</time>
      </trkpt>
      <trkpt lat="43.028912" lon="-1.826850">
        <ele>716.0</ele>
        <time>2026-03-01T09:51:58Z</time>
      </trkpt>
      <trkpt lat="43.028976" lon="-1.826835">
        <ele>716.8</ele>
        <time>2026-03-01T09:52:01Z</time>
      </trkpt>
      <trkpt lat="43.029020" lon="-1.826840">
        <ele>717.2</ele>
        <time>2026-03-01T09:52:03Z</time>
      </trkpt>
      <trkpt lat="43.029146" lon="-1.826853">
        <ele>718.2</ele>
        <time>2026-03-01T09:52:09Z</time>
      </trkpt>
      <trkpt lat="43.029186" lon="-1.826860">
        <ele>719.4</ele>
        <time>2026-03-01T09:52:11Z</time>
      </trkpt>
      <trkpt lat="43.029250" lon="-1.826862">
        <ele>720.2</ele>
        <time>2026-03-01T09:52:14Z</time>
      </trkpt>
      <trkpt lat="43.029269" lon="-1.826861">
        <ele>720.6</ele>
        <time>2026-03-01T09:52:15Z</time>
      </trkpt>
      <trkpt lat="43.029352" lon="-1.826866">
        <ele>721.8</ele>
        <time>2026-03-01T09:52:19Z</time>
      </trkpt>
      <trkpt lat="43.029373" lon="-1.826867">
        <ele>721.8</ele>
        <time>2026-03-01T09:52:20Z</time>
      </trkpt>
      <trkpt lat="43.029454" lon="-1.826865">
        <ele>722.8</ele>
        <time>2026-03-01T09:52:24Z</time>
      </trkpt>
      <trkpt lat="43.029511" lon="-1.826851">
        <ele>724.0</ele>
        <time>2026-03-01T09:52:27Z</time>
      </trkpt>
      <trkpt lat="43.029576" lon="-1.826827">
        <ele>725.2</ele>
        <time>2026-03-01T09:52:31Z</time>
      </trkpt>
      <trkpt lat="43.029637" lon="-1.826828">
        <ele>725.8</ele>
        <time>2026-03-01T09:52:34Z</time>
      </trkpt>
      <trkpt lat="43.029673" lon="-1.826856">
        <ele>726.4</ele>
        <time>2026-03-01T09:52:36Z</time>
      </trkpt>
      <trkpt lat="43.029696" lon="-1.826901">
        <ele>727.0</ele>
        <time>2026-03-01T09:52:38Z</time>
      </trkpt>
      <trkpt lat="43.029701" lon="-1.826945">
        <ele>727.4</ele>
        <time>2026-03-01T09:52:40Z</time>
      </trkpt>
      <trkpt lat="43.029674" lon="-1.826986">
        <ele>728.2</ele>
        <time>2026-03-01T09:52:42Z</time>
      </trkpt>
      <trkpt lat="43.029632" lon="-1.827016">
        <ele>728.6</ele>
        <time>2026-03-01T09:52:44Z</time>
      </trkpt>
      <trkpt lat="43.029542" lon="-1.827042">
        <ele>729.4</ele>
        <time>2026-03-01T09:52:48Z</time>
      </trkpt>
      <trkpt lat="43.029520" lon="-1.827038">
        <ele>729.8</ele>
        <time>2026-03-01T09:52:49Z</time>
      </trkpt>
      <trkpt lat="43.029499" lon="-1.827037">
        <ele>730.0</ele>
        <time>2026-03-01T09:52:50Z</time>
      </trkpt>
      <trkpt lat="43.029416" lon="-1.827056">
        <ele>730.6</ele>
        <time>2026-03-01T09:52:54Z</time>
      </trkpt>
      <trkpt lat="43.029396" lon="-1.827069">
        <ele>731.0</ele>
        <time>2026-03-01T09:52:55Z</time>
      </trkpt>
      <trkpt lat="43.029378" lon="-1.827087">
        <ele>731.2</ele>
        <time>2026-03-01T09:52:56Z</time>
      </trkpt>
      <trkpt lat="43.029326" lon="-1.827218">
        <ele>732.0</ele>
        <time>2026-03-01T09:53:01Z</time>
      </trkpt>
      <trkpt lat="43.029321" lon="-1.827278">
        <ele>732.6</ele>
        <time>2026-03-01T09:53:03Z</time>
      </trkpt>
      <trkpt lat="43.029325" lon="-1.827309">
        <ele>733.0</ele>
        <time>2026-03-01T09:53:04Z</time>
      </trkpt>
      <trkpt lat="43.029335" lon="-1.827335">
        <ele>733.2</ele>
        <time>2026-03-01T09:53:05Z</time>
      </trkpt>
      <trkpt lat="43.029362" lon="-1.827371">
        <ele>733.6</ele>
        <time>2026-03-01T09:53:07Z</time>
      </trkpt>
      <trkpt lat="43.029417" lon="-1.827413">
        <ele>734.2</ele>
        <time>2026-03-01T09:53:10Z</time>
      </trkpt>
      <trkpt lat="43.029438" lon="-1.827422">
        <ele>734.4</ele>
        <time>2026-03-01T09:53:11Z</time>
      </trkpt>
      <trkpt lat="43.029523" lon="-1.827446">
        <ele>735.6</ele>
        <time>2026-03-01T09:53:15Z</time>
      </trkpt>
      <trkpt lat="43.029638" lon="-1.827494">
        <ele>736.6</ele>
        <time>2026-03-01T09:53:21Z</time>
      </trkpt>
      <trkpt lat="43.029692" lon="-1.827523">
        <ele>737.8</ele>
        <time>2026-03-01T09:53:24Z</time>
      </trkpt>
      <trkpt lat="43.029709" lon="-1.827530">
        <ele>738.0</ele>
        <time>2026-03-01T09:53:25Z</time>
      </trkpt>
      <trkpt lat="43.029727" lon="-1.827527">
        <ele>738.2</ele>
        <time>2026-03-01T09:53:26Z</time>
      </trkpt>
      <trkpt lat="43.029779" lon="-1.827513">
        <ele>738.8</ele>
        <time>2026-03-01T09:53:29Z</time>
      </trkpt>
      <trkpt lat="43.029797" lon="-1.827513">
        <ele>739.0</ele>
        <time>2026-03-01T09:53:30Z</time>
      </trkpt>
      <trkpt lat="43.029868" lon="-1.827546">
        <ele>739.8</ele>
        <time>2026-03-01T09:53:35Z</time>
      </trkpt>
      <trkpt lat="43.029880" lon="-1.827551">
        <ele>740.4</ele>
        <time>2026-03-01T09:53:36Z</time>
      </trkpt>
      <trkpt lat="43.029901" lon="-1.827571">
        <ele>741.0</ele>
        <time>2026-03-01T09:53:38Z</time>
      </trkpt>
      <trkpt lat="43.029913" lon="-1.827577">
        <ele>741.4</ele>
        <time>2026-03-01T09:53:39Z</time>
      </trkpt>
      <trkpt lat="43.029931" lon="-1.827580">
        <ele>742.2</ele>
        <time>2026-03-01T09:53:41Z</time>
      </trkpt>
      <trkpt lat="43.029928" lon="-1.827578">
        <ele>742.8</ele>
        <time>2026-03-01T09:53:55Z</time>
      </trkpt>
      <trkpt lat="43.029929" lon="-1.827577">
        <ele>742.8</ele>
        <time>2026-03-01T09:53:57Z</time>
      </trkpt>
      <trkpt lat="43.029928" lon="-1.827574">
        <ele>742.6</ele>
        <time>2026-03-01T09:54:06Z</time>
      </trkpt>
      <trkpt lat="43.029929" lon="-1.827572">
        <ele>742.6</ele>
        <time>2026-03-01T09:54:08Z</time>
      </trkpt>
      <trkpt lat="43.029929" lon="-1.827569">
        <ele>742.6</ele>
        <time>2026-03-01T09:54:11Z</time>
      </trkpt>
      <trkpt lat="43.029928" lon="-1.827575">
        <ele>742.8</ele>
        <time>2026-03-01T09:54:19Z</time>
      </trkpt>
      <trkpt lat="43.029929" lon="-1.827573">
        <ele>742.6</ele>
        <time>2026-03-01T09:54:22Z</time>
      </trkpt>
      <trkpt lat="43.029931" lon="-1.827576">
        <ele>743.0</ele>
        <time>2026-03-01T09:54:30Z</time>
      </trkpt>
      <trkpt lat="43.029932" lon="-1.827578">
        <ele>743.0</ele>
        <time>2026-03-01T09:54:31Z</time>
      </trkpt>
      <trkpt lat="43.029929" lon="-1.827580">
        <ele>743.0</ele>
        <time>2026-03-01T09:54:32Z</time>
      </trkpt>
      <trkpt lat="43.029924" lon="-1.827582">
        <ele>743.0</ele>
        <time>2026-03-01T09:54:37Z</time>
      </trkpt>
      <trkpt lat="43.029933" lon="-1.827584">
        <ele>743.0</ele>
        <time>2026-03-01T09:54:39Z</time>
      </trkpt>
      <trkpt lat="43.029951" lon="-1.827609">
        <ele>743.2</ele>
        <time>2026-03-01T09:54:41Z</time>
      </trkpt>
      <trkpt lat="43.029961" lon="-1.827626">
        <ele>743.2</ele>
        <time>2026-03-01T09:54:42Z</time>
      </trkpt>
      <trkpt lat="43.030000" lon="-1.827658">
        <ele>743.6</ele>
        <time>2026-03-01T09:54:45Z</time>
      </trkpt>
      <trkpt lat="43.030041" lon="-1.827678">
        <ele>744.6</ele>
        <time>2026-03-01T09:54:48Z</time>
      </trkpt>
      <trkpt lat="43.030065" lon="-1.827698">
        <ele>745.6</ele>
        <time>2026-03-01T09:54:50Z</time>
      </trkpt>
      <trkpt lat="43.030079" lon="-1.827708">
        <ele>746.0</ele>
        <time>2026-03-01T09:54:51Z</time>
      </trkpt>
      <trkpt lat="43.030130" lon="-1.827740">
        <ele>747.2</ele>
        <time>2026-03-01T09:54:55Z</time>
      </trkpt>
      <trkpt lat="43.030171" lon="-1.827755">
        <ele>747.8</ele>
        <time>2026-03-01T09:54:58Z</time>
      </trkpt>
      <trkpt lat="43.030197" lon="-1.827756">
        <ele>748.4</ele>
        <time>2026-03-01T09:55:00Z</time>
      </trkpt>
      <trkpt lat="43.030208" lon="-1.827755">
        <ele>748.8</ele>
        <time>2026-03-01T09:55:01Z</time>
      </trkpt>
      <trkpt lat="43.030230" lon="-1.827758">
        <ele>749.6</ele>
        <time>2026-03-01T09:55:03Z</time>
      </trkpt>
      <trkpt lat="43.030270" lon="-1.827764">
        <ele>750.4</ele>
        <time>2026-03-01T09:55:06Z</time>
      </trkpt>
      <trkpt lat="43.030283" lon="-1.827758">
        <ele>750.8</ele>
        <time>2026-03-01T09:55:07Z</time>
      </trkpt>
      <trkpt lat="43.030314" lon="-1.827718">
        <ele>751.8</ele>
        <time>2026-03-01T09:55:10Z</time>
      </trkpt>
      <trkpt lat="43.030358" lon="-1.827665">
        <ele>753.2</ele>
        <time>2026-03-01T09:55:13Z</time>
      </trkpt>
      <trkpt lat="43.030373" lon="-1.827621">
        <ele>754.6</ele>
        <time>2026-03-01T09:55:15Z</time>
      </trkpt>
      <trkpt lat="43.030381" lon="-1.827586">
        <ele>756.0</ele>
        <time>2026-03-01T09:55:17Z</time>
      </trkpt>
      <trkpt lat="43.030388" lon="-1.827554">
        <ele>756.8</ele>
        <time>2026-03-01T09:55:19Z</time>
      </trkpt>
      <trkpt lat="43.030393" lon="-1.827540">
        <ele>757.2</ele>
        <time>2026-03-01T09:55:20Z</time>
      </trkpt>
      <trkpt lat="43.030419" lon="-1.827477">
        <ele>758.2</ele>
        <time>2026-03-01T09:55:24Z</time>
      </trkpt>
      <trkpt lat="43.030445" lon="-1.827428">
        <ele>759.4</ele>
        <time>2026-03-01T09:55:27Z</time>
      </trkpt>
      <trkpt lat="43.030451" lon="-1.827415">
        <ele>759.6</ele>
        <time>2026-03-01T09:55:28Z</time>
      </trkpt>
      <trkpt lat="43.030457" lon="-1.827402">
        <ele>759.8</ele>
        <time>2026-03-01T09:55:29Z</time>
      </trkpt>
      <trkpt lat="43.030484" lon="-1.827372">
        <ele>760.4</ele>
        <time>2026-03-01T09:55:32Z</time>
      </trkpt>
      <trkpt lat="43.030511" lon="-1.827378">
        <ele>760.8</ele>
        <time>2026-03-01T09:55:34Z</time>
      </trkpt>
      <trkpt lat="43.030525" lon="-1.827373">
        <ele>761.0</ele>
        <time>2026-03-01T09:55:35Z</time>
      </trkpt>
      <trkpt lat="43.030545" lon="-1.827361">
        <ele>761.6</ele>
        <time>2026-03-01T09:55:37Z</time>
      </trkpt>
      <trkpt lat="43.030566" lon="-1.827357">
        <ele>761.8</ele>
        <time>2026-03-01T09:55:39Z</time>
      </trkpt>
      <trkpt lat="43.030601" lon="-1.827322">
        <ele>762.6</ele>
        <time>2026-03-01T09:55:43Z</time>
      </trkpt>
      <trkpt lat="43.030614" lon="-1.827307">
        <ele>763.2</ele>
        <time>2026-03-01T09:55:45Z</time>
      </trkpt>
      <trkpt lat="43.030621" lon="-1.827301">
        <ele>763.6</ele>
        <time>2026-03-01T09:55:46Z</time>
      </trkpt>
      <trkpt lat="43.030631" lon="-1.827297">
        <ele>763.8</ele>
        <time>2026-03-01T09:55:47Z</time>
      </trkpt>
      <trkpt lat="43.030645" lon="-1.827294">
        <ele>764.0</ele>
        <time>2026-03-01T09:55:48Z</time>
      </trkpt>
      <trkpt lat="43.030656" lon="-1.827272">
        <ele>764.6</ele>
        <time>2026-03-01T09:55:50Z</time>
      </trkpt>
      <trkpt lat="43.030659" lon="-1.827259">
        <ele>765.2</ele>
        <time>2026-03-01T09:55:51Z</time>
      </trkpt>
      <trkpt lat="43.030672" lon="-1.827247">
        <ele>765.6</ele>
        <time>2026-03-01T09:55:53Z</time>
      </trkpt>
      <trkpt lat="43.030679" lon="-1.827240">
        <ele>765.8</ele>
        <time>2026-03-01T09:55:54Z</time>
      </trkpt>
      <trkpt lat="43.030703" lon="-1.827214">
        <ele>766.2</ele>
        <time>2026-03-01T09:55:57Z</time>
      </trkpt>
      <trkpt lat="43.030728" lon="-1.827176">
        <ele>767.4</ele>
        <time>2026-03-01T09:56:00Z</time>
      </trkpt>
      <trkpt lat="43.030736" lon="-1.827163">
        <ele>767.8</ele>
        <time>2026-03-01T09:56:01Z</time>
      </trkpt>
      <trkpt lat="43.030746" lon="-1.827151">
        <ele>767.8</ele>
        <time>2026-03-01T09:56:02Z</time>
      </trkpt>
      <trkpt lat="43.030769" lon="-1.827132">
        <ele>768.0</ele>
        <time>2026-03-01T09:56:04Z</time>
      </trkpt>
      <trkpt lat="43.030795" lon="-1.827113">
        <ele>768.2</ele>
        <time>2026-03-01T09:56:06Z</time>
      </trkpt>
      <trkpt lat="43.030809" lon="-1.827108">
        <ele>768.2</ele>
        <time>2026-03-01T09:56:07Z</time>
      </trkpt>
      <trkpt lat="43.030851" lon="-1.827106">
        <ele>768.2</ele>
        <time>2026-03-01T09:56:10Z</time>
      </trkpt>
      <trkpt lat="43.030922" lon="-1.827105">
        <ele>768.2</ele>
        <time>2026-03-01T09:56:14Z</time>
      </trkpt>
      <trkpt lat="43.031013" lon="-1.827083">
        <ele>768.4</ele>
        <time>2026-03-01T09:56:18Z</time>
      </trkpt>
      <trkpt lat="43.031055" lon="-1.827074">
        <ele>768.8</ele>
        <time>2026-03-01T09:56:20Z</time>
      </trkpt>
      <trkpt lat="43.031076" lon="-1.827069">
        <ele>768.8</ele>
        <time>2026-03-01T09:56:21Z</time>
      </trkpt>
      <trkpt lat="43.031170" lon="-1.827017">
        <ele>769.8</ele>
        <time>2026-03-01T09:56:26Z</time>
      </trkpt>
      <trkpt lat="43.031186" lon="-1.827003">
        <ele>770.0</ele>
        <time>2026-03-01T09:56:27Z</time>
      </trkpt>
      <trkpt lat="43.031276" lon="-1.826908">
        <ele>771.0</ele>
        <time>2026-03-01T09:56:33Z</time>
      </trkpt>
      <trkpt lat="43.031319" lon="-1.826851">
        <ele>772.0</ele>
        <time>2026-03-01T09:56:37Z</time>
      </trkpt>
      <trkpt lat="43.031348" lon="-1.826820">
        <ele>772.8</ele>
        <time>2026-03-01T09:56:40Z</time>
      </trkpt>
      <trkpt lat="43.031358" lon="-1.826810">
        <ele>773.2</ele>
        <time>2026-03-01T09:56:41Z</time>
      </trkpt>
      <trkpt lat="43.031385" lon="-1.826721">
        <ele>774.6</ele>
        <time>2026-03-01T09:56:46Z</time>
      </trkpt>
      <trkpt lat="43.031405" lon="-1.826659">
        <ele>775.4</ele>
        <time>2026-03-01T09:56:49Z</time>
      </trkpt>
      <trkpt lat="43.031410" lon="-1.826642">
        <ele>775.6</ele>
        <time>2026-03-01T09:56:50Z</time>
      </trkpt>
      <trkpt lat="43.031428" lon="-1.826603">
        <ele>776.2</ele>
        <time>2026-03-01T09:56:52Z</time>
      </trkpt>
      <trkpt lat="43.031455" lon="-1.826540">
        <ele>776.8</ele>
        <time>2026-03-01T09:56:55Z</time>
      </trkpt>
      <trkpt lat="43.031476" lon="-1.826480">
        <ele>777.8</ele>
        <time>2026-03-01T09:56:58Z</time>
      </trkpt>
      <trkpt lat="43.031482" lon="-1.826460">
        <ele>778.4</ele>
        <time>2026-03-01T09:56:59Z</time>
      </trkpt>
      <trkpt lat="43.031519" lon="-1.826406">
        <ele>779.4</ele>
        <time>2026-03-01T09:57:02Z</time>
      </trkpt>
      <trkpt lat="43.031542" lon="-1.826369">
        <ele>779.8</ele>
        <time>2026-03-01T09:57:04Z</time>
      </trkpt>
      <trkpt lat="43.031558" lon="-1.826347">
        <ele>780.6</ele>
        <time>2026-03-01T09:57:06Z</time>
      </trkpt>
      <trkpt lat="43.031566" lon="-1.826341">
        <ele>780.8</ele>
        <time>2026-03-01T09:57:07Z</time>
      </trkpt>
      <trkpt lat="43.031574" lon="-1.826332">
        <ele>781.0</ele>
        <time>2026-03-01T09:57:09Z</time>
      </trkpt>
      <trkpt lat="43.031590" lon="-1.826318">
        <ele>781.2</ele>
        <time>2026-03-01T09:57:17Z</time>
      </trkpt>
      <trkpt lat="43.031582" lon="-1.826303">
        <ele>781.0</ele>
        <time>2026-03-01T09:57:22Z</time>
      </trkpt>
      <trkpt lat="43.031579" lon="-1.826301">
        <ele>780.8</ele>
        <time>2026-03-01T09:57:25Z</time>
      </trkpt>
      <trkpt lat="43.031580" lon="-1.826304">
        <ele>780.8</ele>
        <time>2026-03-01T09:57:29Z</time>
      </trkpt>
      <trkpt lat="43.031578" lon="-1.826307">
        <ele>781.2</ele>
        <time>2026-03-01T09:57:37Z</time>
      </trkpt>
      <trkpt lat="43.031578" lon="-1.826307">
        <ele>781.0</ele>
        <time>2026-03-01T09:57:39Z</time>
      </trkpt>
      <trkpt lat="43.031578" lon="-1.826307">
        <ele>781.0</ele>
        <time>2026-03-01T09:57:40Z</time>
      </trkpt>
      <trkpt lat="43.031578" lon="-1.826307">
        <ele>781.0</ele>
        <time>2026-03-01T09:57:41Z</time>
      </trkpt>
      <trkpt lat="43.031578" lon="-1.826306">
        <ele>781.2</ele>
        <time>2026-03-01T09:57:47Z</time>
      </trkpt>
      <trkpt lat="43.031573" lon="-1.826297">
        <ele>781.0</ele>
        <time>2026-03-01T09:57:57Z</time>
      </trkpt>
      <trkpt lat="43.031573" lon="-1.826297">
        <ele>781.0</ele>
        <time>2026-03-01T09:57:58Z</time>
      </trkpt>
      <trkpt lat="43.031574" lon="-1.826297">
        <ele>781.2</ele>
        <time>2026-03-01T09:58:00Z</time>
      </trkpt>
      <trkpt lat="43.031584" lon="-1.826299">
        <ele>781.4</ele>
        <time>2026-03-01T09:58:04Z</time>
      </trkpt>
      <trkpt lat="43.031593" lon="-1.826304">
        <ele>781.4</ele>
        <time>2026-03-01T09:58:05Z</time>
      </trkpt>
      <trkpt lat="43.031640" lon="-1.826304">
        <ele>781.6</ele>
        <time>2026-03-01T09:58:08Z</time>
      </trkpt>
      <trkpt lat="43.031680" lon="-1.826283">
        <ele>781.6</ele>
        <time>2026-03-01T09:58:10Z</time>
      </trkpt>
      <trkpt lat="43.031705" lon="-1.826278">
        <ele>781.8</ele>
        <time>2026-03-01T09:58:11Z</time>
      </trkpt>
      <trkpt lat="43.031779" lon="-1.826267">
        <ele>782.0</ele>
        <time>2026-03-01T09:58:14Z</time>
      </trkpt>
      <trkpt lat="43.031908" lon="-1.826243">
        <ele>782.8</ele>
        <time>2026-03-01T09:58:20Z</time>
      </trkpt>
      <trkpt lat="43.032024" lon="-1.826184">
        <ele>783.6</ele>
        <time>2026-03-01T09:58:26Z</time>
      </trkpt>
      <trkpt lat="43.032039" lon="-1.826174">
        <ele>783.8</ele>
        <time>2026-03-01T09:58:27Z</time>
      </trkpt>
      <trkpt lat="43.032135" lon="-1.826064">
        <ele>784.2</ele>
        <time>2026-03-01T09:58:33Z</time>
      </trkpt>
      <trkpt lat="43.032166" lon="-1.826019">
        <ele>784.8</ele>
        <time>2026-03-01T09:58:35Z</time>
      </trkpt>
      <trkpt lat="43.032242" lon="-1.825919">
        <ele>786.0</ele>
        <time>2026-03-01T09:58:40Z</time>
      </trkpt>
      <trkpt lat="43.032258" lon="-1.825897">
        <ele>786.2</ele>
        <time>2026-03-01T09:58:41Z</time>
      </trkpt>
      <trkpt lat="43.032332" lon="-1.825786">
        <ele>787.4</ele>
        <time>2026-03-01T09:58:46Z</time>
      </trkpt>
      <trkpt lat="43.032375" lon="-1.825731">
        <ele>788.0</ele>
        <time>2026-03-01T09:58:49Z</time>
      </trkpt>
      <trkpt lat="43.032404" lon="-1.825702">
        <ele>788.4</ele>
        <time>2026-03-01T09:58:51Z</time>
      </trkpt>
      <trkpt lat="43.032447" lon="-1.825661">
        <ele>789.6</ele>
        <time>2026-03-01T09:58:54Z</time>
      </trkpt>
      <trkpt lat="43.032492" lon="-1.825625">
        <ele>790.6</ele>
        <time>2026-03-01T09:58:57Z</time>
      </trkpt>
      <trkpt lat="43.032507" lon="-1.825619">
        <ele>790.8</ele>
        <time>2026-03-01T09:58:58Z</time>
      </trkpt>
      <trkpt lat="43.032531" lon="-1.825613">
        <ele>791.8</ele>
        <time>2026-03-01T09:59:00Z</time>
      </trkpt>
      <trkpt lat="43.032565" lon="-1.825614">
        <ele>793.2</ele>
        <time>2026-03-01T09:59:03Z</time>
      </trkpt>
      <trkpt lat="43.032575" lon="-1.825614">
        <ele>793.4</ele>
        <time>2026-03-01T09:59:04Z</time>
      </trkpt>
      <trkpt lat="43.032591" lon="-1.825601">
        <ele>794.2</ele>
        <time>2026-03-01T09:59:06Z</time>
      </trkpt>
      <trkpt lat="43.032632" lon="-1.825580">
        <ele>795.0</ele>
        <time>2026-03-01T09:59:10Z</time>
      </trkpt>
      <trkpt lat="43.032645" lon="-1.825581">
        <ele>795.2</ele>
        <time>2026-03-01T09:59:11Z</time>
      </trkpt>
      <trkpt lat="43.032682" lon="-1.825566">
        <ele>796.2</ele>
        <time>2026-03-01T09:59:14Z</time>
      </trkpt>
      <trkpt lat="43.032707" lon="-1.825549">
        <ele>796.8</ele>
        <time>2026-03-01T09:59:16Z</time>
      </trkpt>
      <trkpt lat="43.032733" lon="-1.825539">
        <ele>797.4</ele>
        <time>2026-03-01T09:59:18Z</time>
      </trkpt>
      <trkpt lat="43.032744" lon="-1.825529">
        <ele>798.0</ele>
        <time>2026-03-01T09:59:19Z</time>
      </trkpt>
      <trkpt lat="43.032768" lon="-1.825539">
        <ele>798.8</ele>
        <time>2026-03-01T09:59:22Z</time>
      </trkpt>
      <trkpt lat="43.032801" lon="-1.825533">
        <ele>800.2</ele>
        <time>2026-03-01T09:59:27Z</time>
      </trkpt>
      <trkpt lat="43.032841" lon="-1.825532">
        <ele>800.8</ele>
        <time>2026-03-01T09:59:30Z</time>
      </trkpt>
      <trkpt lat="43.032878" lon="-1.825529">
        <ele>801.4</ele>
        <time>2026-03-01T09:59:32Z</time>
      </trkpt>
      <trkpt lat="43.032928" lon="-1.825526">
        <ele>802.6</ele>
        <time>2026-03-01T09:59:35Z</time>
      </trkpt>
      <trkpt lat="43.032947" lon="-1.825522">
        <ele>802.8</ele>
        <time>2026-03-01T09:59:36Z</time>
      </trkpt>
      <trkpt lat="43.033009" lon="-1.825527">
        <ele>803.6</ele>
        <time>2026-03-01T09:59:40Z</time>
      </trkpt>
      <trkpt lat="43.033081" lon="-1.825530">
        <ele>804.4</ele>
        <time>2026-03-01T09:59:44Z</time>
      </trkpt>
      <trkpt lat="43.033099" lon="-1.825533">
        <ele>804.8</ele>
        <time>2026-03-01T09:59:45Z</time>
      </trkpt>
      <trkpt lat="43.033176" lon="-1.825530">
        <ele>805.6</ele>
        <time>2026-03-01T09:59:49Z</time>
      </trkpt>
      <trkpt lat="43.033193" lon="-1.825531">
        <ele>805.8</ele>
        <time>2026-03-01T09:59:50Z</time>
      </trkpt>
      <trkpt lat="43.033270" lon="-1.825518">
        <ele>807.0</ele>
        <time>2026-03-01T09:59:56Z</time>
      </trkpt>
      <trkpt lat="43.033280" lon="-1.825507">
        <ele>807.2</ele>
        <time>2026-03-01T09:59:57Z</time>
      </trkpt>
      <trkpt lat="43.033302" lon="-1.825480">
        <ele>807.4</ele>
        <time>2026-03-01T09:59:59Z</time>
      </trkpt>
      <trkpt lat="43.033336" lon="-1.825438">
        <ele>808.0</ele>
        <time>2026-03-01T10:00:02Z</time>
      </trkpt>
      <trkpt lat="43.033348" lon="-1.825404">
        <ele>808.4</ele>
        <time>2026-03-01T10:00:04Z</time>
      </trkpt>
      <trkpt lat="43.033367" lon="-1.825373">
        <ele>808.6</ele>
        <time>2026-03-01T10:00:06Z</time>
      </trkpt>
      <trkpt lat="43.033391" lon="-1.825340">
        <ele>809.0</ele>
        <time>2026-03-01T10:00:08Z</time>
      </trkpt>
      <trkpt lat="43.033415" lon="-1.825308">
        <ele>809.2</ele>
        <time>2026-03-01T10:00:10Z</time>
      </trkpt>
      <trkpt lat="43.033473" lon="-1.825269">
        <ele>810.4</ele>
        <time>2026-03-01T10:00:15Z</time>
      </trkpt>
      <trkpt lat="43.033485" lon="-1.825258">
        <ele>810.6</ele>
        <time>2026-03-01T10:00:16Z</time>
      </trkpt>
      <trkpt lat="43.033500" lon="-1.825254">
        <ele>810.8</ele>
        <time>2026-03-01T10:00:17Z</time>
      </trkpt>
      <trkpt lat="43.033529" lon="-1.825248">
        <ele>811.4</ele>
        <time>2026-03-01T10:00:19Z</time>
      </trkpt>
      <trkpt lat="43.033543" lon="-1.825242">
        <ele>811.6</ele>
        <time>2026-03-01T10:00:20Z</time>
      </trkpt>
      <trkpt lat="43.033626" lon="-1.825181">
        <ele>812.4</ele>
        <time>2026-03-01T10:00:26Z</time>
      </trkpt>
      <trkpt lat="43.033640" lon="-1.825170">
        <ele>812.4</ele>
        <time>2026-03-01T10:00:27Z</time>
      </trkpt>
      <trkpt lat="43.033746" lon="-1.825109">
        <ele>813.4</ele>
        <time>2026-03-01T10:00:34Z</time>
      </trkpt>
      <trkpt lat="43.033763" lon="-1.825101">
        <ele>813.6</ele>
        <time>2026-03-01T10:00:35Z</time>
      </trkpt>
      <trkpt lat="43.033840" lon="-1.825093">
        <ele>814.8</ele>
        <time>2026-03-01T10:00:40Z</time>
      </trkpt>
      <trkpt lat="43.033857" lon="-1.825091">
        <ele>815.0</ele>
        <time>2026-03-01T10:00:41Z</time>
      </trkpt>
      <trkpt lat="43.033870" lon="-1.825095">
        <ele>815.0</ele>
        <time>2026-03-01T10:00:42Z</time>
      </trkpt>
      <trkpt lat="43.033936" lon="-1.825116">
        <ele>815.6</ele>
        <time>2026-03-01T10:00:47Z</time>
      </trkpt>
      <trkpt lat="43.033948" lon="-1.825123">
        <ele>815.8</ele>
        <time>2026-03-01T10:00:48Z</time>
      </trkpt>
      <trkpt lat="43.033980" lon="-1.825140">
        <ele>816.8</ele>
        <time>2026-03-01T10:00:51Z</time>
      </trkpt>
      <trkpt lat="43.034023" lon="-1.825142">
        <ele>817.4</ele>
        <time>2026-03-01T10:00:54Z</time>
      </trkpt>
      <trkpt lat="43.034036" lon="-1.825142">
        <ele>817.4</ele>
        <time>2026-03-01T10:00:55Z</time>
      </trkpt>
      <trkpt lat="43.034072" lon="-1.825146">
        <ele>818.4</ele>
        <time>2026-03-01T10:00:58Z</time>
      </trkpt>
      <trkpt lat="43.034096" lon="-1.825151">
        <ele>818.8</ele>
        <time>2026-03-01T10:01:00Z</time>
      </trkpt>
      <trkpt lat="43.034135" lon="-1.825152">
        <ele>819.4</ele>
        <time>2026-03-01T10:01:03Z</time>
      </trkpt>
      <trkpt lat="43.034206" lon="-1.825139">
        <ele>820.4</ele>
        <time>2026-03-01T10:01:08Z</time>
      </trkpt>
      <trkpt lat="43.034216" lon="-1.825130">
        <ele>820.6</ele>
        <time>2026-03-01T10:01:09Z</time>
      </trkpt>
      <trkpt lat="43.034249" lon="-1.825086">
        <ele>821.2</ele>
        <time>2026-03-01T10:01:13Z</time>
      </trkpt>
      <trkpt lat="43.034256" lon="-1.825072">
        <ele>821.8</ele>
        <time>2026-03-01T10:01:14Z</time>
      </trkpt>
      <trkpt lat="43.034284" lon="-1.825046">
        <ele>823.0</ele>
        <time>2026-03-01T10:01:17Z</time>
      </trkpt>
      <trkpt lat="43.034301" lon="-1.825021">
        <ele>823.4</ele>
        <time>2026-03-01T10:01:19Z</time>
      </trkpt>
      <trkpt lat="43.034308" lon="-1.825007">
        <ele>823.6</ele>
        <time>2026-03-01T10:01:20Z</time>
      </trkpt>
      <trkpt lat="43.034323" lon="-1.824978">
        <ele>824.0</ele>
        <time>2026-03-01T10:01:22Z</time>
      </trkpt>
      <trkpt lat="43.034353" lon="-1.824922">
        <ele>825.0</ele>
        <time>2026-03-01T10:01:26Z</time>
      </trkpt>
      <trkpt lat="43.034388" lon="-1.824895">
        <ele>826.0</ele>
        <time>2026-03-01T10:01:29Z</time>
      </trkpt>
      <trkpt lat="43.034408" lon="-1.824847">
        <ele>826.6</ele>
        <time>2026-03-01T10:01:32Z</time>
      </trkpt>
      <trkpt lat="43.034434" lon="-1.824821">
        <ele>827.2</ele>
        <time>2026-03-01T10:01:35Z</time>
      </trkpt>
      <trkpt lat="43.034458" lon="-1.824805">
        <ele>828.0</ele>
        <time>2026-03-01T10:01:37Z</time>
      </trkpt>
      <trkpt lat="43.034467" lon="-1.824792">
        <ele>828.4</ele>
        <time>2026-03-01T10:01:38Z</time>
      </trkpt>
      <trkpt lat="43.034505" lon="-1.824743">
        <ele>829.2</ele>
        <time>2026-03-01T10:01:42Z</time>
      </trkpt>
      <trkpt lat="43.034535" lon="-1.824732">
        <ele>829.6</ele>
        <time>2026-03-01T10:01:44Z</time>
      </trkpt>
      <trkpt lat="43.034609" lon="-1.824666">
        <ele>830.8</ele>
        <time>2026-03-01T10:01:50Z</time>
      </trkpt>
      <trkpt lat="43.034619" lon="-1.824639">
        <ele>831.2</ele>
        <time>2026-03-01T10:01:52Z</time>
      </trkpt>
      <trkpt lat="43.034649" lon="-1.824580">
        <ele>831.8</ele>
        <time>2026-03-01T10:01:56Z</time>
      </trkpt>
      <trkpt lat="43.034660" lon="-1.824567">
        <ele>832.0</ele>
        <time>2026-03-01T10:01:57Z</time>
      </trkpt>
      <trkpt lat="43.034674" lon="-1.824557">
        <ele>832.2</ele>
        <time>2026-03-01T10:01:58Z</time>
      </trkpt>
      <trkpt lat="43.034706" lon="-1.824517">
        <ele>832.8</ele>
        <time>2026-03-01T10:02:01Z</time>
      </trkpt>
      <trkpt lat="43.034741" lon="-1.824462">
        <ele>833.6</ele>
        <time>2026-03-01T10:02:05Z</time>
      </trkpt>
      <trkpt lat="43.034768" lon="-1.824446">
        <ele>834.0</ele>
        <time>2026-03-01T10:02:07Z</time>
      </trkpt>
      <trkpt lat="43.034815" lon="-1.824397">
        <ele>834.8</ele>
        <time>2026-03-01T10:02:11Z</time>
      </trkpt>
      <trkpt lat="43.034828" lon="-1.824386">
        <ele>835.2</ele>
        <time>2026-03-01T10:02:12Z</time>
      </trkpt>
      <trkpt lat="43.034889" lon="-1.824298">
        <ele>836.2</ele>
        <time>2026-03-01T10:02:18Z</time>
      </trkpt>
      <trkpt lat="43.034901" lon="-1.824287">
        <ele>836.4</ele>
        <time>2026-03-01T10:02:19Z</time>
      </trkpt>
      <trkpt lat="43.034943" lon="-1.824219">
        <ele>837.2</ele>
        <time>2026-03-01T10:02:24Z</time>
      </trkpt>
      <trkpt lat="43.034963" lon="-1.824189">
        <ele>838.0</ele>
        <time>2026-03-01T10:02:26Z</time>
      </trkpt>
      <trkpt lat="43.034973" lon="-1.824171">
        <ele>838.2</ele>
        <time>2026-03-01T10:02:27Z</time>
      </trkpt>
      <trkpt lat="43.034984" lon="-1.824153">
        <ele>838.4</ele>
        <time>2026-03-01T10:02:28Z</time>
      </trkpt>
      <trkpt lat="43.035049" lon="-1.824055">
        <ele>839.6</ele>
        <time>2026-03-01T10:02:34Z</time>
      </trkpt>
      <trkpt lat="43.035075" lon="-1.824006">
        <ele>840.2</ele>
        <time>2026-03-01T10:02:37Z</time>
      </trkpt>
      <trkpt lat="43.035101" lon="-1.823959">
        <ele>840.8</ele>
        <time>2026-03-01T10:02:40Z</time>
      </trkpt>
      <trkpt lat="43.035147" lon="-1.823874">
        <ele>841.8</ele>
        <time>2026-03-01T10:02:45Z</time>
      </trkpt>
      <trkpt lat="43.035156" lon="-1.823855">
        <ele>842.0</ele>
        <time>2026-03-01T10:02:46Z</time>
      </trkpt>
      <trkpt lat="43.035184" lon="-1.823800">
        <ele>843.0</ele>
        <time>2026-03-01T10:02:49Z</time>
      </trkpt>
      <trkpt lat="43.035219" lon="-1.823726">
        <ele>843.4</ele>
        <time>2026-03-01T10:02:53Z</time>
      </trkpt>
      <trkpt lat="43.035236" lon="-1.823687">
        <ele>843.6</ele>
        <time>2026-03-01T10:02:55Z</time>
      </trkpt>
      <trkpt lat="43.035256" lon="-1.823647">
        <ele>844.0</ele>
        <time>2026-03-01T10:02:57Z</time>
      </trkpt>
      <trkpt lat="43.035284" lon="-1.823586">
        <ele>844.4</ele>
        <time>2026-03-01T10:03:00Z</time>
      </trkpt>
      <trkpt lat="43.035302" lon="-1.823544">
        <ele>844.8</ele>
        <time>2026-03-01T10:03:02Z</time>
      </trkpt>
      <trkpt lat="43.035330" lon="-1.823482">
        <ele>845.0</ele>
        <time>2026-03-01T10:03:05Z</time>
      </trkpt>
      <trkpt lat="43.035370" lon="-1.823402">
        <ele>845.4</ele>
        <time>2026-03-01T10:03:09Z</time>
      </trkpt>
      <trkpt lat="43.035395" lon="-1.823341">
        <ele>846.0</ele>
        <time>2026-03-01T10:03:12Z</time>
      </trkpt>
      <trkpt lat="43.035436" lon="-1.823241">
        <ele>846.8</ele>
        <time>2026-03-01T10:03:17Z</time>
      </trkpt>
      <trkpt lat="43.035457" lon="-1.823202">
        <ele>847.2</ele>
        <time>2026-03-01T10:03:19Z</time>
      </trkpt>
      <trkpt lat="43.035494" lon="-1.823082">
        <ele>847.8</ele>
        <time>2026-03-01T10:03:24Z</time>
      </trkpt>
      <trkpt lat="43.035497" lon="-1.823056">
        <ele>848.0</ele>
        <time>2026-03-01T10:03:25Z</time>
      </trkpt>
      <trkpt lat="43.035501" lon="-1.823006">
        <ele>848.4</ele>
        <time>2026-03-01T10:03:27Z</time>
      </trkpt>
      <trkpt lat="43.035516" lon="-1.822882">
        <ele>849.4</ele>
        <time>2026-03-01T10:03:32Z</time>
      </trkpt>
      <trkpt lat="43.035522" lon="-1.822776">
        <ele>850.4</ele>
        <time>2026-03-01T10:03:36Z</time>
      </trkpt>
      <trkpt lat="43.035522" lon="-1.822723">
        <ele>851.0</ele>
        <time>2026-03-01T10:03:38Z</time>
      </trkpt>
      <trkpt lat="43.035520" lon="-1.822604">
        <ele>851.6</ele>
        <time>2026-03-01T10:03:42Z</time>
      </trkpt>
      <trkpt lat="43.035526" lon="-1.822375">
        <ele>851.4</ele>
        <time>2026-03-01T10:03:48Z</time>
      </trkpt>
      <trkpt lat="43.035611" lon="-1.822143">
        <ele>850.6</ele>
        <time>2026-03-01T10:03:53Z</time>
      </trkpt>
      <trkpt lat="43.035671" lon="-1.822072">
        <ele>850.4</ele>
        <time>2026-03-01T10:03:55Z</time>
      </trkpt>
      <trkpt lat="43.035836" lon="-1.821886">
        <ele>851.0</ele>
        <time>2026-03-01T10:04:01Z</time>
      </trkpt>
      <trkpt lat="43.035885" lon="-1.821807">
        <ele>851.6</ele>
        <time>2026-03-01T10:04:04Z</time>
      </trkpt>
      <trkpt lat="43.035909" lon="-1.821736">
        <ele>852.2</ele>
        <time>2026-03-01T10:04:06Z</time>
      </trkpt>
      <trkpt lat="43.035923" lon="-1.821666">
        <ele>852.8</ele>
        <time>2026-03-01T10:04:08Z</time>
      </trkpt>
      <trkpt lat="43.035973" lon="-1.821389">
        <ele>853.6</ele>
        <time>2026-03-01T10:04:15Z</time>
      </trkpt>
      <trkpt lat="43.035973" lon="-1.821345">
        <ele>853.8</ele>
        <time>2026-03-01T10:04:16Z</time>
      </trkpt>
      <trkpt lat="43.035956" lon="-1.821157">
        <ele>854.4</ele>
        <time>2026-03-01T10:04:21Z</time>
      </trkpt>
      <trkpt lat="43.035953" lon="-1.821121">
        <ele>854.8</ele>
        <time>2026-03-01T10:04:22Z</time>
      </trkpt>
      <trkpt lat="43.035951" lon="-1.820949">
        <ele>856.0</ele>
        <time>2026-03-01T10:04:27Z</time>
      </trkpt>
      <trkpt lat="43.035957" lon="-1.820920">
        <ele>856.0</ele>
        <time>2026-03-01T10:04:28Z</time>
      </trkpt>
      <trkpt lat="43.035958" lon="-1.820856">
        <ele>857.0</ele>
        <time>2026-03-01T10:04:30Z</time>
      </trkpt>
      <trkpt lat="43.035960" lon="-1.820730">
        <ele>857.4</ele>
        <time>2026-03-01T10:04:34Z</time>
      </trkpt>
      <trkpt lat="43.035952" lon="-1.820624">
        <ele>857.4</ele>
        <time>2026-03-01T10:04:37Z</time>
      </trkpt>
      <trkpt lat="43.035943" lon="-1.820553">
        <ele>857.6</ele>
        <time>2026-03-01T10:04:39Z</time>
      </trkpt>
      <trkpt lat="43.035931" lon="-1.820383">
        <ele>857.6</ele>
        <time>2026-03-01T10:04:44Z</time>
      </trkpt>
      <trkpt lat="43.035931" lon="-1.820312">
        <ele>857.8</ele>
        <time>2026-03-01T10:04:46Z</time>
      </trkpt>
      <trkpt lat="43.035905" lon="-1.820221">
        <ele>858.0</ele>
        <time>2026-03-01T10:04:48Z</time>
      </trkpt>
      <trkpt lat="43.035899" lon="-1.820183">
        <ele>858.2</ele>
        <time>2026-03-01T10:04:49Z</time>
      </trkpt>
      <trkpt lat="43.035862" lon="-1.820075">
        <ele>858.4</ele>
        <time>2026-03-01T10:04:52Z</time>
      </trkpt>
      <trkpt lat="43.035830" lon="-1.819986">
        <ele>858.8</ele>
        <time>2026-03-01T10:04:54Z</time>
      </trkpt>
      <trkpt lat="43.035807" lon="-1.819923">
        <ele>859.0</ele>
        <time>2026-03-01T10:04:56Z</time>
      </trkpt>
      <trkpt lat="43.035763" lon="-1.819823">
        <ele>860.0</ele>
        <time>2026-03-01T10:05:00Z</time>
      </trkpt>
      <trkpt lat="43.035754" lon="-1.819800">
        <ele>860.4</ele>
        <time>2026-03-01T10:05:01Z</time>
      </trkpt>
      <trkpt lat="43.035747" lon="-1.819756">
        <ele>861.0</ele>
        <time>2026-03-01T10:05:03Z</time>
      </trkpt>
      <trkpt lat="43.035735" lon="-1.819713">
        <ele>861.4</ele>
        <time>2026-03-01T10:05:05Z</time>
      </trkpt>
      <trkpt lat="43.035726" lon="-1.819663">
        <ele>861.8</ele>
        <time>2026-03-01T10:05:07Z</time>
      </trkpt>
      <trkpt lat="43.035716" lon="-1.819617">
        <ele>862.6</ele>
        <time>2026-03-01T10:05:09Z</time>
      </trkpt>
      <trkpt lat="43.035694" lon="-1.819533">
        <ele>863.4</ele>
        <time>2026-03-01T10:05:13Z</time>
      </trkpt>
      <trkpt lat="43.035682" lon="-1.819511">
        <ele>863.6</ele>
        <time>2026-03-01T10:05:14Z</time>
      </trkpt>
      <trkpt lat="43.035622" lon="-1.819416">
        <ele>864.8</ele>
        <time>2026-03-01T10:05:19Z</time>
      </trkpt>
      <trkpt lat="43.035600" lon="-1.819362">
        <ele>865.4</ele>
        <time>2026-03-01T10:05:22Z</time>
      </trkpt>
      <trkpt lat="43.035569" lon="-1.819328">
        <ele>866.2</ele>
        <time>2026-03-01T10:05:24Z</time>
      </trkpt>
      <trkpt lat="43.035522" lon="-1.819282">
        <ele>867.6</ele>
        <time>2026-03-01T10:05:27Z</time>
      </trkpt>
      <trkpt lat="43.035483" lon="-1.819206">
        <ele>868.8</ele>
        <time>2026-03-01T10:05:32Z</time>
      </trkpt>
      <trkpt lat="43.035420" lon="-1.819062">
        <ele>869.8</ele>
        <time>2026-03-01T10:05:39Z</time>
      </trkpt>
      <trkpt lat="43.035415" lon="-1.819040">
        <ele>869.8</ele>
        <time>2026-03-01T10:05:40Z</time>
      </trkpt>
      <trkpt lat="43.035400" lon="-1.818948">
        <ele>870.2</ele>
        <time>2026-03-01T10:05:44Z</time>
      </trkpt>
      <trkpt lat="43.035405" lon="-1.818928">
        <ele>870.2</ele>
        <time>2026-03-01T10:05:45Z</time>
      </trkpt>
      <trkpt lat="43.035391" lon="-1.818785">
        <ele>870.6</ele>
        <time>2026-03-01T10:05:51Z</time>
      </trkpt>
      <trkpt lat="43.035376" lon="-1.818710">
        <ele>871.0</ele>
        <time>2026-03-01T10:05:54Z</time>
      </trkpt>
      <trkpt lat="43.035340" lon="-1.818620">
        <ele>871.4</ele>
        <time>2026-03-01T10:05:57Z</time>
      </trkpt>
      <trkpt lat="43.035256" lon="-1.818476">
        <ele>871.2</ele>
        <time>2026-03-01T10:06:02Z</time>
      </trkpt>
      <trkpt lat="43.035243" lon="-1.818457">
        <ele>871.4</ele>
        <time>2026-03-01T10:06:03Z</time>
      </trkpt>
      <trkpt lat="43.035195" lon="-1.818390">
        <ele>872.2</ele>
        <time>2026-03-01T10:06:06Z</time>
      </trkpt>
      <trkpt lat="43.035154" lon="-1.818317">
        <ele>873.0</ele>
        <time>2026-03-01T10:06:10Z</time>
      </trkpt>
      <trkpt lat="43.035147" lon="-1.818278">
        <ele>873.4</ele>
        <time>2026-03-01T10:06:12Z</time>
      </trkpt>
      <trkpt lat="43.035107" lon="-1.818206">
        <ele>874.2</ele>
        <time>2026-03-01T10:06:16Z</time>
      </trkpt>
      <trkpt lat="43.035102" lon="-1.818190">
        <ele>874.4</ele>
        <time>2026-03-01T10:06:17Z</time>
      </trkpt>
      <trkpt lat="43.035058" lon="-1.818102">
        <ele>875.0</ele>
        <time>2026-03-01T10:06:21Z</time>
      </trkpt>
      <trkpt lat="43.035026" lon="-1.818046">
        <ele>875.8</ele>
        <time>2026-03-01T10:06:24Z</time>
      </trkpt>
      <trkpt lat="43.034996" lon="-1.817965">
        <ele>876.6</ele>
        <time>2026-03-01T10:06:28Z</time>
      </trkpt>
      <trkpt lat="43.034974" lon="-1.817946">
        <ele>877.0</ele>
        <time>2026-03-01T10:06:30Z</time>
      </trkpt>
      <trkpt lat="43.034963" lon="-1.817925">
        <ele>877.6</ele>
        <time>2026-03-01T10:06:32Z</time>
      </trkpt>
      <trkpt lat="43.034947" lon="-1.817891">
        <ele>878.2</ele>
        <time>2026-03-01T10:06:35Z</time>
      </trkpt>
      <trkpt lat="43.034901" lon="-1.817855">
        <ele>878.6</ele>
        <time>2026-03-01T10:06:38Z</time>
      </trkpt>
      <trkpt lat="43.034873" lon="-1.817843">
        <ele>878.8</ele>
        <time>2026-03-01T10:06:40Z</time>
      </trkpt>
      <trkpt lat="43.034854" lon="-1.817839">
        <ele>878.8</ele>
        <time>2026-03-01T10:06:41Z</time>
      </trkpt>
      <trkpt lat="43.034826" lon="-1.817827">
        <ele>879.0</ele>
        <time>2026-03-01T10:06:42Z</time>
      </trkpt>
      <trkpt lat="43.034807" lon="-1.817816">
        <ele>879.2</ele>
        <time>2026-03-01T10:06:43Z</time>
      </trkpt>
      <trkpt lat="43.034795" lon="-1.817808">
        <ele>879.4</ele>
        <time>2026-03-01T10:06:44Z</time>
      </trkpt>
      <trkpt lat="43.034669" lon="-1.817783">
        <ele>880.2</ele>
        <time>2026-03-01T10:06:50Z</time>
      </trkpt>
      <trkpt lat="43.034651" lon="-1.817775">
        <ele>880.4</ele>
        <time>2026-03-01T10:06:51Z</time>
      </trkpt>
      <trkpt lat="43.034624" lon="-1.817770">
        <ele>880.8</ele>
        <time>2026-03-01T10:06:53Z</time>
      </trkpt>
      <trkpt lat="43.034578" lon="-1.817776">
        <ele>881.2</ele>
        <time>2026-03-01T10:06:55Z</time>
      </trkpt>
      <trkpt lat="43.034563" lon="-1.817775">
        <ele>881.4</ele>
        <time>2026-03-01T10:06:56Z</time>
      </trkpt>
      <trkpt lat="43.034550" lon="-1.817758">
        <ele>881.6</ele>
        <time>2026-03-01T10:06:58Z</time>
      </trkpt>
      <trkpt lat="43.034541" lon="-1.817749">
        <ele>882.2</ele>
        <time>2026-03-01T10:07:00Z</time>
      </trkpt>
      <trkpt lat="43.034527" lon="-1.817739">
        <ele>882.8</ele>
        <time>2026-03-01T10:07:02Z</time>
      </trkpt>
      <trkpt lat="43.034489" lon="-1.817727">
        <ele>883.6</ele>
        <time>2026-03-01T10:07:05Z</time>
      </trkpt>
      <trkpt lat="43.034469" lon="-1.817731">
        <ele>884.0</ele>
        <time>2026-03-01T10:07:06Z</time>
      </trkpt>
      <trkpt lat="43.034434" lon="-1.817726">
        <ele>884.8</ele>
        <time>2026-03-01T10:07:08Z</time>
      </trkpt>
      <trkpt lat="43.034426" lon="-1.817711">
        <ele>885.2</ele>
        <time>2026-03-01T10:07:10Z</time>
      </trkpt>
      <trkpt lat="43.034400" lon="-1.817679">
        <ele>886.4</ele>
        <time>2026-03-01T10:07:14Z</time>
      </trkpt>
      <trkpt lat="43.034405" lon="-1.817668">
        <ele>886.8</ele>
        <time>2026-03-01T10:07:16Z</time>
      </trkpt>
      <trkpt lat="43.034369" lon="-1.817644">
        <ele>887.4</ele>
        <time>2026-03-01T10:07:21Z</time>
      </trkpt>
      <trkpt lat="43.034352" lon="-1.817640">
        <ele>887.4</ele>
        <time>2026-03-01T10:07:22Z</time>
      </trkpt>
      <trkpt lat="43.034293" lon="-1.817613">
        <ele>887.8</ele>
        <time>2026-03-01T10:07:27Z</time>
      </trkpt>
      <trkpt lat="43.034278" lon="-1.817600">
        <ele>887.8</ele>
        <time>2026-03-01T10:07:28Z</time>
      </trkpt>
      <trkpt lat="43.034254" lon="-1.817571">
        <ele>888.6</ele>
        <time>2026-03-01T10:07:30Z</time>
      </trkpt>
      <trkpt lat="43.034218" lon="-1.817544">
        <ele>889.6</ele>
        <time>2026-03-01T10:07:34Z</time>
      </trkpt>
      <trkpt lat="43.034213" lon="-1.817537">
        <ele>889.6</ele>
        <time>2026-03-01T10:07:35Z</time>
      </trkpt>
      <trkpt lat="43.034196" lon="-1.817519">
        <ele>890.8</ele>
        <time>2026-03-01T10:07:39Z</time>
      </trkpt>
      <trkpt lat="43.034193" lon="-1.817515">
        <ele>891.0</ele>
        <time>2026-03-01T10:07:42Z</time>
      </trkpt>
      <trkpt lat="43.034197" lon="-1.817516">
        <ele>890.8</ele>
        <time>2026-03-01T10:07:45Z</time>
      </trkpt>
      <trkpt lat="43.034206" lon="-1.817509">
        <ele>890.8</ele>
        <time>2026-03-01T10:07:48Z</time>
      </trkpt>
      <trkpt lat="43.034215" lon="-1.817505">
        <ele>890.8</ele>
        <time>2026-03-01T10:07:49Z</time>
      </trkpt>
      <trkpt lat="43.034219" lon="-1.817490">
        <ele>890.8</ele>
        <time>2026-03-01T10:07:50Z</time>
      </trkpt>
      <trkpt lat="43.034195" lon="-1.817445">
        <ele>891.0</ele>
        <time>2026-03-01T10:07:53Z</time>
      </trkpt>
      <trkpt lat="43.034109" lon="-1.817382">
        <ele>891.8</ele>
        <time>2026-03-01T10:07:59Z</time>
      </trkpt>
      <trkpt lat="43.034095" lon="-1.817376">
        <ele>892.2</ele>
        <time>2026-03-01T10:08:05Z</time>
      </trkpt>
      <trkpt lat="43.034086" lon="-1.817352">
        <ele>892.2</ele>
        <time>2026-03-01T10:08:13Z</time>
      </trkpt>
      <trkpt lat="43.034074" lon="-1.817333">
        <ele>892.2</ele>
        <time>2026-03-01T10:08:16Z</time>
      </trkpt>
      <trkpt lat="43.034015" lon="-1.817273">
        <ele>892.0</ele>
        <time>2026-03-01T10:08:18Z</time>
      </trkpt>
      <trkpt lat="43.033989" lon="-1.817243">
        <ele>892.0</ele>
        <time>2026-03-01T10:08:20Z</time>
      </trkpt>
      <trkpt lat="43.033993" lon="-1.817241">
        <ele>892.2</ele>
        <time>2026-03-01T10:08:25Z</time>
      </trkpt>
      <trkpt lat="43.033998" lon="-1.817242">
        <ele>892.2</ele>
        <time>2026-03-01T10:08:26Z</time>
      </trkpt>
      <trkpt lat="43.034007" lon="-1.817246">
        <ele>892.2</ele>
        <time>2026-03-01T10:08:27Z</time>
      </trkpt>
      <trkpt lat="43.034016" lon="-1.817273">
        <ele>892.0</ele>
        <time>2026-03-01T10:08:31Z</time>
      </trkpt>
      <trkpt lat="43.034052" lon="-1.817306">
        <ele>892.0</ele>
        <time>2026-03-01T10:08:34Z</time>
      </trkpt>
      <trkpt lat="43.034112" lon="-1.817342">
        <ele>891.8</ele>
        <time>2026-03-01T10:08:40Z</time>
      </trkpt>
      <trkpt lat="43.034114" lon="-1.817345">
        <ele>891.8</ele>
        <time>2026-03-01T10:08:41Z</time>
      </trkpt>
      <trkpt lat="43.034095" lon="-1.817356">
        <ele>891.6</ele>
        <time>2026-03-01T10:08:43Z</time>
      </trkpt>
      <trkpt lat="43.034077" lon="-1.817357">
        <ele>891.6</ele>
        <time>2026-03-01T10:08:46Z</time>
      </trkpt>
      <trkpt lat="43.034065" lon="-1.817356">
        <ele>891.6</ele>
        <time>2026-03-01T10:08:48Z</time>
      </trkpt>
      <trkpt lat="43.034064" lon="-1.817346">
        <ele>891.4</ele>
        <time>2026-03-01T10:08:53Z</time>
      </trkpt>
      <trkpt lat="43.034057" lon="-1.817335">
        <ele>891.4</ele>
        <time>2026-03-01T10:08:59Z</time>
      </trkpt>
      <trkpt lat="43.034053" lon="-1.817334">
        <ele>891.4</ele>
        <time>2026-03-01T10:09:00Z</time>
      </trkpt>
      <trkpt lat="43.034061" lon="-1.817358">
        <ele>891.2</ele>
        <time>2026-03-01T10:09:07Z</time>
      </trkpt>
      <trkpt lat="43.034051" lon="-1.817361">
        <ele>891.2</ele>
        <time>2026-03-01T10:09:11Z</time>
      </trkpt>
      <trkpt lat="43.034061" lon="-1.817359">
        <ele>891.4</ele>
        <time>2026-03-01T10:09:13Z</time>
      </trkpt>
      <trkpt lat="43.034101" lon="-1.817360">
        <ele>891.6</ele>
        <time>2026-03-01T10:09:22Z</time>
      </trkpt>
      <trkpt lat="43.034132" lon="-1.817379">
        <ele>891.4</ele>
        <time>2026-03-01T10:09:27Z</time>
      </trkpt>
      <trkpt lat="43.034230" lon="-1.817380">
        <ele>891.4</ele>
        <time>2026-03-01T10:09:31Z</time>
      </trkpt>
      <trkpt lat="43.034264" lon="-1.817380">
        <ele>891.4</ele>
        <time>2026-03-01T10:09:38Z</time>
      </trkpt>
      <trkpt lat="43.034180" lon="-1.817345">
        <ele>891.4</ele>
        <time>2026-03-01T10:09:45Z</time>
      </trkpt>
      <trkpt lat="43.034133" lon="-1.817299">
        <ele>891.6</ele>
        <time>2026-03-01T10:09:52Z</time>
      </trkpt>
      <trkpt lat="43.034135" lon="-1.817313">
        <ele>891.4</ele>
        <time>2026-03-01T10:10:03Z</time>
      </trkpt>
      <trkpt lat="43.034131" lon="-1.817314">
        <ele>891.8</ele>
        <time>2026-03-01T10:10:07Z</time>
      </trkpt>
      <trkpt lat="43.034129" lon="-1.817314">
        <ele>891.8</ele>
        <time>2026-03-01T10:10:09Z</time>
      </trkpt>
      <trkpt lat="43.034131" lon="-1.817314">
        <ele>892.0</ele>
        <time>2026-03-01T10:10:10Z</time>
      </trkpt>
      <trkpt lat="43.034122" lon="-1.817308">
        <ele>895.0</ele>
        <time>2026-03-01T10:10:14Z</time>
      </trkpt>
      <trkpt lat="43.034107" lon="-1.817300">
        <ele>895.0</ele>
        <time>2026-03-01T10:10:15Z</time>
      </trkpt>
      <trkpt lat="43.034071" lon="-1.817268">
        <ele>895.0</ele>
        <time>2026-03-01T10:10:17Z</time>
      </trkpt>
      <trkpt lat="43.034052" lon="-1.817253">
        <ele>893.8</ele>
        <time>2026-03-01T10:10:18Z</time>
      </trkpt>
      <trkpt lat="43.034015" lon="-1.817228">
        <ele>893.0</ele>
        <time>2026-03-01T10:10:20Z</time>
      </trkpt>
      <trkpt lat="43.034006" lon="-1.817219">
        <ele>892.8</ele>
        <time>2026-03-01T10:10:21Z</time>
      </trkpt>
      <trkpt lat="43.033995" lon="-1.817206">
        <ele>892.6</ele>
        <time>2026-03-01T10:10:22Z</time>
      </trkpt>
      <trkpt lat="43.033980" lon="-1.817184">
        <ele>892.8</ele>
        <time>2026-03-01T10:10:24Z</time>
      </trkpt>
      <trkpt lat="43.033939" lon="-1.817112">
        <ele>893.4</ele>
        <time>2026-03-01T10:10:28Z</time>
      </trkpt>
      <trkpt lat="43.033880" lon="-1.817039">
        <ele>893.4</ele>
        <time>2026-03-01T10:10:33Z</time>
      </trkpt>
      <trkpt lat="43.033876" lon="-1.817047">
        <ele>893.6</ele>
        <time>2026-03-01T10:10:35Z</time>
      </trkpt>
      <trkpt lat="43.033888" lon="-1.817077">
        <ele>893.4</ele>
        <time>2026-03-01T10:10:37Z</time>
      </trkpt>
      <trkpt lat="43.033888" lon="-1.817129">
        <ele>893.8</ele>
        <time>2026-03-01T10:10:40Z</time>
      </trkpt>
      <trkpt lat="43.033925" lon="-1.817177">
        <ele>895.0</ele>
        <time>2026-03-01T10:10:43Z</time>
      </trkpt>
      <trkpt lat="43.033927" lon="-1.817189">
        <ele>895.0</ele>
        <time>2026-03-01T10:10:44Z</time>
      </trkpt>
      <trkpt lat="43.033931" lon="-1.817202">
        <ele>895.4</ele>
        <time>2026-03-01T10:10:45Z</time>
      </trkpt>
      <trkpt lat="43.033935" lon="-1.817258">
        <ele>896.0</ele>
        <time>2026-03-01T10:10:49Z</time>
      </trkpt>
      <trkpt lat="43.033917" lon="-1.817278">
        <ele>896.2</ele>
        <time>2026-03-01T10:10:51Z</time>
      </trkpt>
      <trkpt lat="43.033900" lon="-1.817269">
        <ele>897.2</ele>
        <time>2026-03-01T10:10:54Z</time>
      </trkpt>
      <trkpt lat="43.033893" lon="-1.817268">
        <ele>897.4</ele>
        <time>2026-03-01T10:10:55Z</time>
      </trkpt>
      <trkpt lat="43.033805" lon="-1.817203">
        <ele>898.2</ele>
        <time>2026-03-01T10:11:01Z</time>
      </trkpt>
      <trkpt lat="43.033787" lon="-1.817186">
        <ele>898.4</ele>
        <time>2026-03-01T10:11:02Z</time>
      </trkpt>
      <trkpt lat="43.033695" lon="-1.817093">
        <ele>898.6</ele>
        <time>2026-03-01T10:11:07Z</time>
      </trkpt>
      <trkpt lat="43.033571" lon="-1.817020">
        <ele>898.8</ele>
        <time>2026-03-01T10:11:12Z</time>
      </trkpt>
      <trkpt lat="43.033509" lon="-1.816976">
        <ele>899.4</ele>
        <time>2026-03-01T10:11:15Z</time>
      </trkpt>
      <trkpt lat="43.033429" lon="-1.816921">
        <ele>900.0</ele>
        <time>2026-03-01T10:11:19Z</time>
      </trkpt>
      <trkpt lat="43.033399" lon="-1.816898">
        <ele>900.4</ele>
        <time>2026-03-01T10:11:21Z</time>
      </trkpt>
      <trkpt lat="43.033370" lon="-1.816886">
        <ele>900.8</ele>
        <time>2026-03-01T10:11:23Z</time>
      </trkpt>
      <trkpt lat="43.033364" lon="-1.816874">
        <ele>900.8</ele>
        <time>2026-03-01T10:11:24Z</time>
      </trkpt>
      <trkpt lat="43.033332" lon="-1.816830">
        <ele>900.8</ele>
        <time>2026-03-01T10:11:26Z</time>
      </trkpt>
      <trkpt lat="43.033308" lon="-1.816806">
        <ele>900.4</ele>
        <time>2026-03-01T10:11:27Z</time>
      </trkpt>
      <trkpt lat="43.033230" lon="-1.816711">
        <ele>899.6</ele>
        <time>2026-03-01T10:11:31Z</time>
      </trkpt>
      <trkpt lat="43.033207" lon="-1.816700">
        <ele>899.4</ele>
        <time>2026-03-01T10:11:32Z</time>
      </trkpt>
      <trkpt lat="43.033144" lon="-1.816634">
        <ele>898.6</ele>
        <time>2026-03-01T10:11:36Z</time>
      </trkpt>
      <trkpt lat="43.033174" lon="-1.816575">
        <ele>898.4</ele>
        <time>2026-03-01T10:11:38Z</time>
      </trkpt>
      <trkpt lat="43.033159" lon="-1.816546">
        <ele>898.4</ele>
        <time>2026-03-01T10:11:39Z</time>
      </trkpt>
      <trkpt lat="43.033127" lon="-1.816503">
        <ele>898.4</ele>
        <time>2026-03-01T10:11:40Z</time>
      </trkpt>
      <trkpt lat="43.033054" lon="-1.816457">
        <ele>898.4</ele>
        <time>2026-03-01T10:11:42Z</time>
      </trkpt>
      <trkpt lat="43.033039" lon="-1.816439">
        <ele>898.4</ele>
        <time>2026-03-01T10:11:43Z</time>
      </trkpt>
      <trkpt lat="43.033004" lon="-1.816393">
        <ele>898.6</ele>
        <time>2026-03-01T10:11:45Z</time>
      </trkpt>
      <trkpt lat="43.032983" lon="-1.816396">
        <ele>898.8</ele>
        <time>2026-03-01T10:11:46Z</time>
      </trkpt>
      <trkpt lat="43.032962" lon="-1.816398">
        <ele>899.0</ele>
        <time>2026-03-01T10:11:48Z</time>
      </trkpt>
      <trkpt lat="43.032965" lon="-1.816406">
        <ele>899.2</ele>
        <time>2026-03-01T10:11:49Z</time>
      </trkpt>
      <trkpt lat="43.032995" lon="-1.816436">
        <ele>899.4</ele>
        <time>2026-03-01T10:11:52Z</time>
      </trkpt>
      <trkpt lat="43.033006" lon="-1.816466">
        <ele>899.8</ele>
        <time>2026-03-01T10:11:55Z</time>
      </trkpt>
      <trkpt lat="43.033012" lon="-1.816485">
        <ele>900.6</ele>
        <time>2026-03-01T10:11:57Z</time>
      </trkpt>
      <trkpt lat="43.033041" lon="-1.816521">
        <ele>901.4</ele>
        <time>2026-03-01T10:12:00Z</time>
      </trkpt>
      <trkpt lat="43.033055" lon="-1.816531">
        <ele>901.4</ele>
        <time>2026-03-01T10:12:01Z</time>
      </trkpt>
      <trkpt lat="43.033063" lon="-1.816557">
        <ele>901.8</ele>
        <time>2026-03-01T10:12:03Z</time>
      </trkpt>
      <trkpt lat="43.033082" lon="-1.816594">
        <ele>902.6</ele>
        <time>2026-03-01T10:12:06Z</time>
      </trkpt>
      <trkpt lat="43.033089" lon="-1.816604">
        <ele>903.2</ele>
        <time>2026-03-01T10:12:07Z</time>
      </trkpt>
      <trkpt lat="43.033133" lon="-1.816650">
        <ele>904.0</ele>
        <time>2026-03-01T10:12:11Z</time>
      </trkpt>
      <trkpt lat="43.033157" lon="-1.816686">
        <ele>904.4</ele>
        <time>2026-03-01T10:12:13Z</time>
      </trkpt>
      <trkpt lat="43.033238" lon="-1.816752">
        <ele>904.8</ele>
        <time>2026-03-01T10:12:17Z</time>
      </trkpt>
      <trkpt lat="43.033301" lon="-1.816787">
        <ele>905.0</ele>
        <time>2026-03-01T10:12:20Z</time>
      </trkpt>
      <trkpt lat="43.033333" lon="-1.816828">
        <ele>905.0</ele>
        <time>2026-03-01T10:12:23Z</time>
      </trkpt>
      <trkpt lat="43.033355" lon="-1.816859">
        <ele>905.0</ele>
        <time>2026-03-01T10:12:25Z</time>
      </trkpt>
      <trkpt lat="43.033369" lon="-1.816866">
        <ele>905.0</ele>
        <time>2026-03-01T10:12:26Z</time>
      </trkpt>
      <trkpt lat="43.033379" lon="-1.816879">
        <ele>905.0</ele>
        <time>2026-03-01T10:12:27Z</time>
      </trkpt>
      <trkpt lat="43.033386" lon="-1.816901">
        <ele>905.4</ele>
        <time>2026-03-01T10:12:29Z</time>
      </trkpt>
      <trkpt lat="43.033387" lon="-1.816909">
        <ele>905.6</ele>
        <time>2026-03-01T10:12:30Z</time>
      </trkpt>
      <trkpt lat="43.033359" lon="-1.816910">
        <ele>906.4</ele>
        <time>2026-03-01T10:12:33Z</time>
      </trkpt>
      <trkpt lat="43.033344" lon="-1.816904">
        <ele>906.6</ele>
        <time>2026-03-01T10:12:34Z</time>
      </trkpt>
      <trkpt lat="43.033318" lon="-1.816906">
        <ele>907.0</ele>
        <time>2026-03-01T10:12:36Z</time>
      </trkpt>
      <trkpt lat="43.033251" lon="-1.816870">
        <ele>907.0</ele>
        <time>2026-03-01T10:12:41Z</time>
      </trkpt>
      <trkpt lat="43.033227" lon="-1.816862">
        <ele>907.0</ele>
        <time>2026-03-01T10:12:42Z</time>
      </trkpt>
      <trkpt lat="43.033182" lon="-1.816822">
        <ele>907.0</ele>
        <time>2026-03-01T10:12:44Z</time>
      </trkpt>
      <trkpt lat="43.033144" lon="-1.816826">
        <ele>907.6</ele>
        <time>2026-03-01T10:12:46Z</time>
      </trkpt>
      <trkpt lat="43.033122" lon="-1.816835">
        <ele>908.0</ele>
        <time>2026-03-01T10:12:47Z</time>
      </trkpt>
      <trkpt lat="43.033103" lon="-1.816841">
        <ele>908.4</ele>
        <time>2026-03-01T10:12:49Z</time>
      </trkpt>
      <trkpt lat="43.033089" lon="-1.816846">
        <ele>908.6</ele>
        <time>2026-03-01T10:12:52Z</time>
      </trkpt>
      <trkpt lat="43.033080" lon="-1.816857">
        <ele>908.8</ele>
        <time>2026-03-01T10:12:55Z</time>
      </trkpt>
      <trkpt lat="43.033136" lon="-1.816853">
        <ele>909.0</ele>
        <time>2026-03-01T10:12:58Z</time>
      </trkpt>
      <trkpt lat="43.033168" lon="-1.816849">
        <ele>909.0</ele>
        <time>2026-03-01T10:12:59Z</time>
      </trkpt>
      <trkpt lat="43.033254" lon="-1.816909">
        <ele>909.0</ele>
        <time>2026-03-01T10:13:05Z</time>
      </trkpt>
      <trkpt lat="43.033320" lon="-1.816990">
        <ele>909.0</ele>
        <time>2026-03-01T10:13:11Z</time>
      </trkpt>
      <trkpt lat="43.033297" lon="-1.817010">
        <ele>909.8</ele>
        <time>2026-03-01T10:13:15Z</time>
      </trkpt>
      <trkpt lat="43.033299" lon="-1.817010">
        <ele>910.4</ele>
        <time>2026-03-01T10:13:16Z</time>
      </trkpt>
      <trkpt lat="43.033287" lon="-1.817005">
        <ele>910.8</ele>
        <time>2026-03-01T10:13:17Z</time>
      </trkpt>
      <trkpt lat="43.033278" lon="-1.817000">
        <ele>911.0</ele>
        <time>2026-03-01T10:13:18Z</time>
      </trkpt>
      <trkpt lat="43.033258" lon="-1.816988">
        <ele>911.4</ele>
        <time>2026-03-01T10:13:20Z</time>
      </trkpt>
      <trkpt lat="43.033251" lon="-1.816985">
        <ele>911.6</ele>
        <time>2026-03-01T10:13:22Z</time>
      </trkpt>
      <trkpt lat="43.033246" lon="-1.816974">
        <ele>912.2</ele>
        <time>2026-03-01T10:13:24Z</time>
      </trkpt>
      <trkpt lat="43.033214" lon="-1.816944">
        <ele>912.6</ele>
        <time>2026-03-01T10:13:27Z</time>
      </trkpt>
      <trkpt lat="43.033201" lon="-1.816933">
        <ele>912.6</ele>
        <time>2026-03-01T10:13:28Z</time>
      </trkpt>
      <trkpt lat="43.033076" lon="-1.816845">
        <ele>912.2</ele>
        <time>2026-03-01T10:13:34Z</time>
      </trkpt>
      <trkpt lat="43.033014" lon="-1.816825">
        <ele>912.4</ele>
        <time>2026-03-01T10:13:37Z</time>
      </trkpt>
      <trkpt lat="43.032938" lon="-1.816814">
        <ele>912.8</ele>
        <time>2026-03-01T10:13:40Z</time>
      </trkpt>
      <trkpt lat="43.032928" lon="-1.816795">
        <ele>913.4</ele>
        <time>2026-03-01T10:13:42Z</time>
      </trkpt>
      <trkpt lat="43.032877" lon="-1.816748">
        <ele>914.6</ele>
        <time>2026-03-01T10:13:45Z</time>
      </trkpt>
      <trkpt lat="43.032864" lon="-1.816740">
        <ele>914.6</ele>
        <time>2026-03-01T10:13:46Z</time>
      </trkpt>
      <trkpt lat="43.032846" lon="-1.816721">
        <ele>914.8</ele>
        <time>2026-03-01T10:13:47Z</time>
      </trkpt>
      <trkpt lat="43.032828" lon="-1.816705">
        <ele>915.0</ele>
        <time>2026-03-01T10:13:49Z</time>
      </trkpt>
      <trkpt lat="43.032816" lon="-1.816667">
        <ele>915.0</ele>
        <time>2026-03-01T10:13:52Z</time>
      </trkpt>
      <trkpt lat="43.032791" lon="-1.816636">
        <ele>915.2</ele>
        <time>2026-03-01T10:13:54Z</time>
      </trkpt>
      <trkpt lat="43.032763" lon="-1.816580">
        <ele>915.2</ele>
        <time>2026-03-01T10:13:57Z</time>
      </trkpt>
      <trkpt lat="43.032743" lon="-1.816522">
        <ele>915.2</ele>
        <time>2026-03-01T10:13:59Z</time>
      </trkpt>
      <trkpt lat="43.032727" lon="-1.816478">
        <ele>914.8</ele>
        <time>2026-03-01T10:14:01Z</time>
      </trkpt>
      <trkpt lat="43.032721" lon="-1.816461">
        <ele>914.6</ele>
        <time>2026-03-01T10:14:02Z</time>
      </trkpt>
      <trkpt lat="43.032706" lon="-1.816443">
        <ele>914.6</ele>
        <time>2026-03-01T10:14:03Z</time>
      </trkpt>
      <trkpt lat="43.032692" lon="-1.816423">
        <ele>914.4</ele>
        <time>2026-03-01T10:14:04Z</time>
      </trkpt>
      <trkpt lat="43.032677" lon="-1.816403">
        <ele>914.4</ele>
        <time>2026-03-01T10:14:05Z</time>
      </trkpt>
      <trkpt lat="43.032658" lon="-1.816376">
        <ele>914.4</ele>
        <time>2026-03-01T10:14:06Z</time>
      </trkpt>
      <trkpt lat="43.032637" lon="-1.816317">
        <ele>914.2</ele>
        <time>2026-03-01T10:14:08Z</time>
      </trkpt>
      <trkpt lat="43.032619" lon="-1.816282">
        <ele>914.2</ele>
        <time>2026-03-01T10:14:09Z</time>
      </trkpt>
      <trkpt lat="43.032496" lon="-1.816043">
        <ele>915.2</ele>
        <time>2026-03-01T10:14:33Z</time>
      </trkpt>
      <trkpt lat="43.032493" lon="-1.816035">
        <ele>915.0</ele>
        <time>2026-03-01T10:14:35Z</time>
      </trkpt>
      <trkpt lat="43.032490" lon="-1.816026">
        <ele>915.0</ele>
        <time>2026-03-01T10:14:36Z</time>
      </trkpt>
      <trkpt lat="43.032487" lon="-1.816017">
        <ele>914.6</ele>
        <time>2026-03-01T10:14:42Z</time>
      </trkpt>
      <trkpt lat="43.032484" lon="-1.816008">
        <ele>914.8</ele>
        <time>2026-03-01T10:14:49Z</time>
      </trkpt>
      <trkpt lat="43.032481" lon="-1.815999">
        <ele>914.8</ele>
        <time>2026-03-01T10:14:51Z</time>
      </trkpt>
      <trkpt lat="43.032478" lon="-1.815990">
        <ele>915.0</ele>
        <time>2026-03-01T10:14:56Z</time>
      </trkpt>
      <trkpt lat="43.032475" lon="-1.815981">
        <ele>915.0</ele>
        <time>2026-03-01T10:14:58Z</time>
      </trkpt>
      <trkpt lat="43.032461" lon="-1.816002">
        <ele>914.4</ele>
        <time>2026-03-01T10:15:55Z</time>
      </trkpt>
      <trkpt lat="43.032460" lon="-1.816000">
        <ele>914.4</ele>
        <time>2026-03-01T10:15:57Z</time>
      </trkpt>
      <trkpt lat="43.032458" lon="-1.816000">
        <ele>914.2</ele>
        <time>2026-03-01T10:16:02Z</time>
      </trkpt>
      <trkpt lat="43.032448" lon="-1.815996">
        <ele>914.4</ele>
        <time>2026-03-01T10:16:08Z</time>
      </trkpt>
      <trkpt lat="43.032441" lon="-1.815997">
        <ele>914.4</ele>
        <time>2026-03-01T10:16:09Z</time>
      </trkpt>
      <trkpt lat="43.032437" lon="-1.815999">
        <ele>914.2</ele>
        <time>2026-03-01T10:16:10Z</time>
      </trkpt>
      <trkpt lat="43.032439" lon="-1.816002">
        <ele>914.2</ele>
        <time>2026-03-01T10:16:11Z</time>
      </trkpt>
      <trkpt lat="43.032439" lon="-1.816002">
        <ele>914.2</ele>
        <time>2026-03-01T10:16:12Z</time>
      </trkpt>
      <trkpt lat="43.032435" lon="-1.816004">
        <ele>914.0</ele>
        <time>2026-03-01T10:16:14Z</time>
      </trkpt>
      <trkpt lat="43.032428" lon="-1.816011">
        <ele>914.0</ele>
        <time>2026-03-01T10:16:17Z</time>
      </trkpt>
      <trkpt lat="43.032430" lon="-1.816017">
        <ele>914.0</ele>
        <time>2026-03-01T10:16:19Z</time>
      </trkpt>
      <trkpt lat="43.032430" lon="-1.816027">
        <ele>914.2</ele>
        <time>2026-03-01T10:16:21Z</time>
      </trkpt>
      <trkpt lat="43.032437" lon="-1.816052">
        <ele>915.0</ele>
        <time>2026-03-01T10:16:26Z</time>
      </trkpt>
      <trkpt lat="43.032420" lon="-1.816071">
        <ele>914.4</ele>
        <time>2026-03-01T10:19:08Z</time>
      </trkpt>
      <trkpt lat="43.032434" lon="-1.816054">
        <ele>918.8</ele>
        <time>2026-03-01T10:21:19Z</time>
      </trkpt>
      <trkpt lat="43.032421" lon="-1.816081">
        <ele>919.0</ele>
        <time>2026-03-01T10:21:22Z</time>
      </trkpt>
      <trkpt lat="43.032428" lon="-1.816132">
        <ele>919.8</ele>
        <time>2026-03-01T10:21:25Z</time>
      </trkpt>
      <trkpt lat="43.032436" lon="-1.816171">
        <ele>920.2</ele>
        <time>2026-03-01T10:21:27Z</time>
      </trkpt>
      <trkpt lat="43.032438" lon="-1.816192">
        <ele>920.2</ele>
        <time>2026-03-01T10:21:28Z</time>
      </trkpt>
      <trkpt lat="43.032451" lon="-1.816231">
        <ele>920.4</ele>
        <time>2026-03-01T10:21:30Z</time>
      </trkpt>
      <trkpt lat="43.032505" lon="-1.816354">
        <ele>921.6</ele>
        <time>2026-03-01T10:21:36Z</time>
      </trkpt>
      <trkpt lat="43.032532" lon="-1.816456">
        <ele>922.0</ele>
        <time>2026-03-01T10:21:40Z</time>
      </trkpt>
      <trkpt lat="43.032554" lon="-1.816490">
        <ele>922.0</ele>
        <time>2026-03-01T10:21:42Z</time>
      </trkpt>
      <trkpt lat="43.032617" lon="-1.816599">
        <ele>921.6</ele>
        <time>2026-03-01T10:21:47Z</time>
      </trkpt>
      <trkpt lat="43.032622" lon="-1.816616">
        <ele>921.8</ele>
        <time>2026-03-01T10:21:48Z</time>
      </trkpt>
      <trkpt lat="43.032629" lon="-1.816630">
        <ele>921.8</ele>
        <time>2026-03-01T10:21:49Z</time>
      </trkpt>
      <trkpt lat="43.032704" lon="-1.816669">
        <ele>921.8</ele>
        <time>2026-03-01T10:21:52Z</time>
      </trkpt>
      <trkpt lat="43.032772" lon="-1.816704">
        <ele>920.6</ele>
        <time>2026-03-01T10:21:55Z</time>
      </trkpt>
      <trkpt lat="43.032797" lon="-1.816716">
        <ele>920.2</ele>
        <time>2026-03-01T10:21:56Z</time>
      </trkpt>
      <trkpt lat="43.032826" lon="-1.816728">
        <ele>920.0</ele>
        <time>2026-03-01T10:21:57Z</time>
      </trkpt>
      <trkpt lat="43.032930" lon="-1.816792">
        <ele>919.4</ele>
        <time>2026-03-01T10:22:01Z</time>
      </trkpt>
      <trkpt lat="43.032942" lon="-1.816841">
        <ele>919.6</ele>
        <time>2026-03-01T10:22:03Z</time>
      </trkpt>
      <trkpt lat="43.032968" lon="-1.816910">
        <ele>921.0</ele>
        <time>2026-03-01T10:22:06Z</time>
      </trkpt>
      <trkpt lat="43.033016" lon="-1.816961">
        <ele>921.6</ele>
        <time>2026-03-01T10:22:09Z</time>
      </trkpt>
      <trkpt lat="43.033064" lon="-1.816995">
        <ele>921.8</ele>
        <time>2026-03-01T10:22:11Z</time>
      </trkpt>
      <trkpt lat="43.033159" lon="-1.817076">
        <ele>921.4</ele>
        <time>2026-03-01T10:22:15Z</time>
      </trkpt>
      <trkpt lat="43.033129" lon="-1.817084">
        <ele>922.2</ele>
        <time>2026-03-01T10:22:18Z</time>
      </trkpt>
      <trkpt lat="43.033092" lon="-1.817075">
        <ele>922.6</ele>
        <time>2026-03-01T10:22:20Z</time>
      </trkpt>
      <trkpt lat="43.033042" lon="-1.817051">
        <ele>923.2</ele>
        <time>2026-03-01T10:22:23Z</time>
      </trkpt>
      <trkpt lat="43.033038" lon="-1.817042">
        <ele>923.4</ele>
        <time>2026-03-01T10:22:24Z</time>
      </trkpt>
      <trkpt lat="43.033028" lon="-1.817031">
        <ele>923.6</ele>
        <time>2026-03-01T10:22:25Z</time>
      </trkpt>
      <trkpt lat="43.033016" lon="-1.817025">
        <ele>923.6</ele>
        <time>2026-03-01T10:22:26Z</time>
      </trkpt>
      <trkpt lat="43.032954" lon="-1.816985">
        <ele>923.8</ele>
        <time>2026-03-01T10:22:30Z</time>
      </trkpt>
      <trkpt lat="43.032924" lon="-1.816969">
        <ele>923.8</ele>
        <time>2026-03-01T10:22:32Z</time>
      </trkpt>
      <trkpt lat="43.032893" lon="-1.816980">
        <ele>923.8</ele>
        <time>2026-03-01T10:22:33Z</time>
      </trkpt>
      <trkpt lat="43.032888" lon="-1.816996">
        <ele>924.4</ele>
        <time>2026-03-01T10:22:36Z</time>
      </trkpt>
      <trkpt lat="43.032892" lon="-1.817004">
        <ele>924.6</ele>
        <time>2026-03-01T10:22:37Z</time>
      </trkpt>
      <trkpt lat="43.032891" lon="-1.817014">
        <ele>924.6</ele>
        <time>2026-03-01T10:22:38Z</time>
      </trkpt>
      <trkpt lat="43.032957" lon="-1.817058">
        <ele>924.8</ele>
        <time>2026-03-01T10:22:42Z</time>
      </trkpt>
      <trkpt lat="43.032976" lon="-1.817074">
        <ele>924.8</ele>
        <time>2026-03-01T10:22:43Z</time>
      </trkpt>
      <trkpt lat="43.033013" lon="-1.817147">
        <ele>924.8</ele>
        <time>2026-03-01T10:22:47Z</time>
      </trkpt>
      <trkpt lat="43.033035" lon="-1.817165">
        <ele>924.8</ele>
        <time>2026-03-01T10:22:48Z</time>
      </trkpt>
      <trkpt lat="43.033058" lon="-1.817232">
        <ele>924.8</ele>
        <time>2026-03-01T10:22:51Z</time>
      </trkpt>
      <trkpt lat="43.033064" lon="-1.817269">
        <ele>925.4</ele>
        <time>2026-03-01T10:22:54Z</time>
      </trkpt>
      <trkpt lat="43.033051" lon="-1.817259">
        <ele>926.2</ele>
        <time>2026-03-01T10:22:56Z</time>
      </trkpt>
      <trkpt lat="43.033038" lon="-1.817249">
        <ele>926.8</ele>
        <time>2026-03-01T10:22:57Z</time>
      </trkpt>
      <trkpt lat="43.033006" lon="-1.817237">
        <ele>927.4</ele>
        <time>2026-03-01T10:22:59Z</time>
      </trkpt>
      <trkpt lat="43.032982" lon="-1.817212">
        <ele>927.6</ele>
        <time>2026-03-01T10:23:01Z</time>
      </trkpt>
      <trkpt lat="43.032962" lon="-1.817186">
        <ele>927.8</ele>
        <time>2026-03-01T10:23:03Z</time>
      </trkpt>
      <trkpt lat="43.032939" lon="-1.817174">
        <ele>927.8</ele>
        <time>2026-03-01T10:23:04Z</time>
      </trkpt>
      <trkpt lat="43.032919" lon="-1.817161">
        <ele>927.8</ele>
        <time>2026-03-01T10:23:05Z</time>
      </trkpt>
      <trkpt lat="43.032903" lon="-1.817147">
        <ele>927.8</ele>
        <time>2026-03-01T10:23:06Z</time>
      </trkpt>
      <trkpt lat="43.032869" lon="-1.817122">
        <ele>927.8</ele>
        <time>2026-03-01T10:23:09Z</time>
      </trkpt>
      <trkpt lat="43.032871" lon="-1.817117">
        <ele>928.0</ele>
        <time>2026-03-01T10:23:10Z</time>
      </trkpt>
      <trkpt lat="43.032846" lon="-1.817064">
        <ele>928.2</ele>
        <time>2026-03-01T10:23:13Z</time>
      </trkpt>
      <trkpt lat="43.032816" lon="-1.817044">
        <ele>928.4</ele>
        <time>2026-03-01T10:23:15Z</time>
      </trkpt>
      <trkpt lat="43.032799" lon="-1.817046">
        <ele>928.8</ele>
        <time>2026-03-01T10:23:16Z</time>
      </trkpt>
      <trkpt lat="43.032721" lon="-1.817062">
        <ele>929.2</ele>
        <time>2026-03-01T10:23:19Z</time>
      </trkpt>
      <trkpt lat="43.032733" lon="-1.817060">
        <ele>929.4</ele>
        <time>2026-03-01T10:23:22Z</time>
      </trkpt>
      <trkpt lat="43.032813" lon="-1.817113">
        <ele>929.6</ele>
        <time>2026-03-01T10:23:27Z</time>
      </trkpt>
      <trkpt lat="43.032829" lon="-1.817123">
        <ele>929.6</ele>
        <time>2026-03-01T10:23:28Z</time>
      </trkpt>
      <trkpt lat="43.032893" lon="-1.817168">
        <ele>929.2</ele>
        <time>2026-03-01T10:23:30Z</time>
      </trkpt>
      <trkpt lat="43.032945" lon="-1.817237">
        <ele>928.6</ele>
        <time>2026-03-01T10:23:32Z</time>
      </trkpt>
      <trkpt lat="43.032969" lon="-1.817263">
        <ele>928.4</ele>
        <time>2026-03-01T10:23:33Z</time>
      </trkpt>
      <trkpt lat="43.033041" lon="-1.817329">
        <ele>927.8</ele>
        <time>2026-03-01T10:23:36Z</time>
      </trkpt>
      <trkpt lat="43.033100" lon="-1.817386">
        <ele>927.8</ele>
        <time>2026-03-01T10:23:39Z</time>
      </trkpt>
      <trkpt lat="43.033112" lon="-1.817407">
        <ele>927.8</ele>
        <time>2026-03-01T10:23:40Z</time>
      </trkpt>
      <trkpt lat="43.033095" lon="-1.817443">
        <ele>928.4</ele>
        <time>2026-03-01T10:23:43Z</time>
      </trkpt>
      <trkpt lat="43.033088" lon="-1.817444">
        <ele>929.2</ele>
        <time>2026-03-01T10:23:44Z</time>
      </trkpt>
      <trkpt lat="43.033080" lon="-1.817433">
        <ele>929.6</ele>
        <time>2026-03-01T10:23:45Z</time>
      </trkpt>
      <trkpt lat="43.033045" lon="-1.817408">
        <ele>930.2</ele>
        <time>2026-03-01T10:23:47Z</time>
      </trkpt>
      <trkpt lat="43.033030" lon="-1.817400">
        <ele>930.2</ele>
        <time>2026-03-01T10:23:48Z</time>
      </trkpt>
      <trkpt lat="43.033018" lon="-1.817387">
        <ele>930.2</ele>
        <time>2026-03-01T10:23:49Z</time>
      </trkpt>
      <trkpt lat="43.032983" lon="-1.817348">
        <ele>930.2</ele>
        <time>2026-03-01T10:23:52Z</time>
      </trkpt>
      <trkpt lat="43.032928" lon="-1.817268">
        <ele>930.4</ele>
        <time>2026-03-01T10:23:57Z</time>
      </trkpt>
      <trkpt lat="43.032899" lon="-1.817224">
        <ele>930.6</ele>
        <time>2026-03-01T10:23:59Z</time>
      </trkpt>
      <trkpt lat="43.032889" lon="-1.817215">
        <ele>930.8</ele>
        <time>2026-03-01T10:24:00Z</time>
      </trkpt>
      <trkpt lat="43.032883" lon="-1.817216">
        <ele>931.0</ele>
        <time>2026-03-01T10:24:01Z</time>
      </trkpt>
      <trkpt lat="43.032878" lon="-1.817216">
        <ele>931.4</ele>
        <time>2026-03-01T10:24:02Z</time>
      </trkpt>
      <trkpt lat="43.032879" lon="-1.817225">
        <ele>931.6</ele>
        <time>2026-03-01T10:24:03Z</time>
      </trkpt>
      <trkpt lat="43.032871" lon="-1.817227">
        <ele>931.8</ele>
        <time>2026-03-01T10:24:04Z</time>
      </trkpt>
      <trkpt lat="43.032938" lon="-1.817281">
        <ele>932.0</ele>
        <time>2026-03-01T10:24:09Z</time>
      </trkpt>
      <trkpt lat="43.032957" lon="-1.817303">
        <ele>931.8</ele>
        <time>2026-03-01T10:24:10Z</time>
      </trkpt>
      <trkpt lat="43.032970" lon="-1.817322">
        <ele>931.6</ele>
        <time>2026-03-01T10:24:11Z</time>
      </trkpt>
      <trkpt lat="43.032981" lon="-1.817352">
        <ele>931.6</ele>
        <time>2026-03-01T10:24:13Z</time>
      </trkpt>
      <trkpt lat="43.032949" lon="-1.817374">
        <ele>931.6</ele>
        <time>2026-03-01T10:24:16Z</time>
      </trkpt>
      <trkpt lat="43.032923" lon="-1.817354">
        <ele>932.0</ele>
        <time>2026-03-01T10:24:18Z</time>
      </trkpt>
      <trkpt lat="43.032913" lon="-1.817339">
        <ele>932.4</ele>
        <time>2026-03-01T10:24:19Z</time>
      </trkpt>
      <trkpt lat="43.032902" lon="-1.817326">
        <ele>932.8</ele>
        <time>2026-03-01T10:24:20Z</time>
      </trkpt>
      <trkpt lat="43.032895" lon="-1.817317">
        <ele>933.2</ele>
        <time>2026-03-01T10:24:21Z</time>
      </trkpt>
      <trkpt lat="43.032890" lon="-1.817302">
        <ele>933.6</ele>
        <time>2026-03-01T10:24:24Z</time>
      </trkpt>
      <trkpt lat="43.032882" lon="-1.817300">
        <ele>934.0</ele>
        <time>2026-03-01T10:24:25Z</time>
      </trkpt>
      <trkpt lat="43.032867" lon="-1.817281">
        <ele>934.4</ele>
        <time>2026-03-01T10:24:28Z</time>
      </trkpt>
      <trkpt lat="43.032860" lon="-1.817270">
        <ele>934.4</ele>
        <time>2026-03-01T10:24:30Z</time>
      </trkpt>
      <trkpt lat="43.032839" lon="-1.817248">
        <ele>934.6</ele>
        <time>2026-03-01T10:24:33Z</time>
      </trkpt>
      <trkpt lat="43.032829" lon="-1.817240">
        <ele>934.6</ele>
        <time>2026-03-01T10:24:34Z</time>
      </trkpt>
      <trkpt lat="43.032815" lon="-1.817217">
        <ele>934.6</ele>
        <time>2026-03-01T10:24:36Z</time>
      </trkpt>
      <trkpt lat="43.032805" lon="-1.817202">
        <ele>934.6</ele>
        <time>2026-03-01T10:24:37Z</time>
      </trkpt>
      <trkpt lat="43.032790" lon="-1.817169">
        <ele>934.6</ele>
        <time>2026-03-01T10:24:39Z</time>
      </trkpt>
      <trkpt lat="43.032781" lon="-1.817126">
        <ele>934.8</ele>
        <time>2026-03-01T10:24:42Z</time>
      </trkpt>
      <trkpt lat="43.032774" lon="-1.817100">
        <ele>935.0</ele>
        <time>2026-03-01T10:24:44Z</time>
      </trkpt>
      <trkpt lat="43.032753" lon="-1.817088">
        <ele>935.4</ele>
        <time>2026-03-01T10:24:46Z</time>
      </trkpt>
      <trkpt lat="43.032745" lon="-1.817093">
        <ele>935.8</ele>
        <time>2026-03-01T10:24:47Z</time>
      </trkpt>
      <trkpt lat="43.032742" lon="-1.817111">
        <ele>936.0</ele>
        <time>2026-03-01T10:24:49Z</time>
      </trkpt>
      <trkpt lat="43.032746" lon="-1.817120">
        <ele>936.2</ele>
        <time>2026-03-01T10:24:50Z</time>
      </trkpt>
      <trkpt lat="43.032767" lon="-1.817142">
        <ele>936.4</ele>
        <time>2026-03-01T10:24:53Z</time>
      </trkpt>
      <trkpt lat="43.032791" lon="-1.817165">
        <ele>936.4</ele>
        <time>2026-03-01T10:24:55Z</time>
      </trkpt>
      <trkpt lat="43.032815" lon="-1.817245">
        <ele>935.8</ele>
        <time>2026-03-01T10:24:59Z</time>
      </trkpt>
      <trkpt lat="43.032797" lon="-1.817284">
        <ele>935.4</ele>
        <time>2026-03-01T10:25:02Z</time>
      </trkpt>
      <trkpt lat="43.032789" lon="-1.817280">
        <ele>935.6</ele>
        <time>2026-03-01T10:25:03Z</time>
      </trkpt>
      <trkpt lat="43.032770" lon="-1.817269">
        <ele>936.0</ele>
        <time>2026-03-01T10:25:04Z</time>
      </trkpt>
      <trkpt lat="43.032753" lon="-1.817240">
        <ele>936.4</ele>
        <time>2026-03-01T10:25:06Z</time>
      </trkpt>
      <trkpt lat="43.032725" lon="-1.817212">
        <ele>937.2</ele>
        <time>2026-03-01T10:25:09Z</time>
      </trkpt>
      <trkpt lat="43.032707" lon="-1.817180">
        <ele>937.8</ele>
        <time>2026-03-01T10:25:11Z</time>
      </trkpt>
      <trkpt lat="43.032681" lon="-1.817147">
        <ele>938.2</ele>
        <time>2026-03-01T10:25:14Z</time>
      </trkpt>
      <trkpt lat="43.032661" lon="-1.817122">
        <ele>938.6</ele>
        <time>2026-03-01T10:25:16Z</time>
      </trkpt>
      <trkpt lat="43.032633" lon="-1.817083">
        <ele>939.0</ele>
        <time>2026-03-01T10:25:19Z</time>
      </trkpt>
      <trkpt lat="43.032603" lon="-1.817061">
        <ele>939.2</ele>
        <time>2026-03-01T10:25:21Z</time>
      </trkpt>
      <trkpt lat="43.032584" lon="-1.817061">
        <ele>939.4</ele>
        <time>2026-03-01T10:25:22Z</time>
      </trkpt>
      <trkpt lat="43.032573" lon="-1.817074">
        <ele>939.6</ele>
        <time>2026-03-01T10:25:24Z</time>
      </trkpt>
      <trkpt lat="43.032588" lon="-1.817099">
        <ele>940.2</ele>
        <time>2026-03-01T10:25:26Z</time>
      </trkpt>
      <trkpt lat="43.032613" lon="-1.817157">
        <ele>940.8</ele>
        <time>2026-03-01T10:25:31Z</time>
      </trkpt>
      <trkpt lat="43.032643" lon="-1.817182">
        <ele>940.4</ele>
        <time>2026-03-01T10:25:33Z</time>
      </trkpt>
      <trkpt lat="43.032727" lon="-1.817282">
        <ele>939.8</ele>
        <time>2026-03-01T10:25:39Z</time>
      </trkpt>
      <trkpt lat="43.032709" lon="-1.817307">
        <ele>940.6</ele>
        <time>2026-03-01T10:25:41Z</time>
      </trkpt>
      <trkpt lat="43.032703" lon="-1.817317">
        <ele>940.8</ele>
        <time>2026-03-01T10:25:42Z</time>
      </trkpt>
      <trkpt lat="43.032678" lon="-1.817306">
        <ele>941.4</ele>
        <time>2026-03-01T10:25:45Z</time>
      </trkpt>
      <trkpt lat="43.032661" lon="-1.817283">
        <ele>941.6</ele>
        <time>2026-03-01T10:25:48Z</time>
      </trkpt>
      <trkpt lat="43.032627" lon="-1.817277">
        <ele>942.6</ele>
        <time>2026-03-01T10:25:51Z</time>
      </trkpt>
      <trkpt lat="43.032587" lon="-1.817240">
        <ele>943.8</ele>
        <time>2026-03-01T10:25:56Z</time>
      </trkpt>
      <trkpt lat="43.032573" lon="-1.817231">
        <ele>944.0</ele>
        <time>2026-03-01T10:25:57Z</time>
      </trkpt>
      <trkpt lat="43.032521" lon="-1.817179">
        <ele>944.6</ele>
        <time>2026-03-01T10:26:02Z</time>
      </trkpt>
      <trkpt lat="43.032494" lon="-1.817157">
        <ele>944.8</ele>
        <time>2026-03-01T10:26:04Z</time>
      </trkpt>
      <trkpt lat="43.032461" lon="-1.817135">
        <ele>945.2</ele>
        <time>2026-03-01T10:26:06Z</time>
      </trkpt>
      <trkpt lat="43.032368" lon="-1.817102">
        <ele>945.6</ele>
        <time>2026-03-01T10:26:12Z</time>
      </trkpt>
      <trkpt lat="43.032287" lon="-1.817108">
        <ele>945.4</ele>
        <time>2026-03-01T10:26:17Z</time>
      </trkpt>
      <trkpt lat="43.032246" lon="-1.817091">
        <ele>945.2</ele>
        <time>2026-03-01T10:26:19Z</time>
      </trkpt>
      <trkpt lat="43.032238" lon="-1.816979">
        <ele>944.6</ele>
        <time>2026-03-01T10:26:22Z</time>
      </trkpt>
      <trkpt lat="43.032194" lon="-1.816915">
        <ele>944.6</ele>
        <time>2026-03-01T10:26:24Z</time>
      </trkpt>
      <trkpt lat="43.032157" lon="-1.816844">
        <ele>944.8</ele>
        <time>2026-03-01T10:26:27Z</time>
      </trkpt>
      <trkpt lat="43.032130" lon="-1.816801">
        <ele>945.0</ele>
        <time>2026-03-01T10:26:29Z</time>
      </trkpt>
      <trkpt lat="43.032081" lon="-1.816724">
        <ele>946.0</ele>
        <time>2026-03-01T10:26:32Z</time>
      </trkpt>
      <trkpt lat="43.032044" lon="-1.816673">
        <ele>946.6</ele>
        <time>2026-03-01T10:26:34Z</time>
      </trkpt>
      <trkpt lat="43.032008" lon="-1.816581">
        <ele>947.0</ele>
        <time>2026-03-01T10:26:37Z</time>
      </trkpt>
      <trkpt lat="43.031992" lon="-1.816552">
        <ele>947.2</ele>
        <time>2026-03-01T10:26:38Z</time>
      </trkpt>
      <trkpt lat="43.031971" lon="-1.816520">
        <ele>947.6</ele>
        <time>2026-03-01T10:26:39Z</time>
      </trkpt>
      <trkpt lat="43.031950" lon="-1.816479">
        <ele>948.0</ele>
        <time>2026-03-01T10:26:41Z</time>
      </trkpt>
      <trkpt lat="43.031923" lon="-1.816448">
        <ele>948.4</ele>
        <time>2026-03-01T10:26:43Z</time>
      </trkpt>
      <trkpt lat="43.031898" lon="-1.816463">
        <ele>948.8</ele>
        <time>2026-03-01T10:26:45Z</time>
      </trkpt>
      <trkpt lat="43.031886" lon="-1.816512">
        <ele>949.0</ele>
        <time>2026-03-01T10:26:47Z</time>
      </trkpt>
      <trkpt lat="43.031880" lon="-1.816556">
        <ele>949.6</ele>
        <time>2026-03-01T10:26:49Z</time>
      </trkpt>
      <trkpt lat="43.031864" lon="-1.816597">
        <ele>950.2</ele>
        <time>2026-03-01T10:26:51Z</time>
      </trkpt>
      <trkpt lat="43.031830" lon="-1.816675">
        <ele>950.6</ele>
        <time>2026-03-01T10:26:55Z</time>
      </trkpt>
      <trkpt lat="43.031821" lon="-1.816712">
        <ele>951.4</ele>
        <time>2026-03-01T10:26:57Z</time>
      </trkpt>
      <trkpt lat="43.031818" lon="-1.816733">
        <ele>951.6</ele>
        <time>2026-03-01T10:26:58Z</time>
      </trkpt>
      <trkpt lat="43.031797" lon="-1.816870">
        <ele>952.0</ele>
        <time>2026-03-01T10:27:04Z</time>
      </trkpt>
      <trkpt lat="43.031785" lon="-1.816971">
        <ele>952.8</ele>
        <time>2026-03-01T10:27:08Z</time>
      </trkpt>
      <trkpt lat="43.031780" lon="-1.817023">
        <ele>953.0</ele>
        <time>2026-03-01T10:27:10Z</time>
      </trkpt>
      <trkpt lat="43.031747" lon="-1.817144">
        <ele>953.8</ele>
        <time>2026-03-01T10:27:16Z</time>
      </trkpt>
      <trkpt lat="43.031748" lon="-1.817167">
        <ele>954.0</ele>
        <time>2026-03-01T10:27:17Z</time>
      </trkpt>
      <trkpt lat="43.031752" lon="-1.817204">
        <ele>954.4</ele>
        <time>2026-03-01T10:27:19Z</time>
      </trkpt>
      <trkpt lat="43.031743" lon="-1.817216">
        <ele>954.6</ele>
        <time>2026-03-01T10:27:21Z</time>
      </trkpt>
      <trkpt lat="43.031737" lon="-1.817210">
        <ele>954.8</ele>
        <time>2026-03-01T10:27:22Z</time>
      </trkpt>
      <trkpt lat="43.031713" lon="-1.817142">
        <ele>955.2</ele>
        <time>2026-03-01T10:27:26Z</time>
      </trkpt>
      <trkpt lat="43.031684" lon="-1.817012">
        <ele>956.2</ele>
        <time>2026-03-01T10:27:32Z</time>
      </trkpt>
      <trkpt lat="43.031680" lon="-1.816988">
        <ele>956.4</ele>
        <time>2026-03-01T10:27:33Z</time>
      </trkpt>
      <trkpt lat="43.031656" lon="-1.816889">
        <ele>957.4</ele>
        <time>2026-03-01T10:27:38Z</time>
      </trkpt>
      <trkpt lat="43.031654" lon="-1.816873">
        <ele>957.6</ele>
        <time>2026-03-01T10:27:39Z</time>
      </trkpt>
      <trkpt lat="43.031633" lon="-1.816843">
        <ele>957.6</ele>
        <time>2026-03-01T10:27:41Z</time>
      </trkpt>
      <trkpt lat="43.031620" lon="-1.816856">
        <ele>957.8</ele>
        <time>2026-03-01T10:27:42Z</time>
      </trkpt>
      <trkpt lat="43.031628" lon="-1.816922">
        <ele>958.4</ele>
        <time>2026-03-01T10:27:45Z</time>
      </trkpt>
      <trkpt lat="43.031628" lon="-1.816945">
        <ele>958.6</ele>
        <time>2026-03-01T10:27:46Z</time>
      </trkpt>
      <trkpt lat="43.031625" lon="-1.816967">
        <ele>958.6</ele>
        <time>2026-03-01T10:27:47Z</time>
      </trkpt>
      <trkpt lat="43.031606" lon="-1.817030">
        <ele>959.0</ele>
        <time>2026-03-01T10:27:50Z</time>
      </trkpt>
      <trkpt lat="43.031602" lon="-1.817077">
        <ele>959.4</ele>
        <time>2026-03-01T10:27:52Z</time>
      </trkpt>
      <trkpt lat="43.031606" lon="-1.817102">
        <ele>959.6</ele>
        <time>2026-03-01T10:27:53Z</time>
      </trkpt>
      <trkpt lat="43.031610" lon="-1.817205">
        <ele>959.8</ele>
        <time>2026-03-01T10:27:57Z</time>
      </trkpt>
      <trkpt lat="43.031611" lon="-1.817231">
        <ele>959.8</ele>
        <time>2026-03-01T10:27:58Z</time>
      </trkpt>
      <trkpt lat="43.031612" lon="-1.817256">
        <ele>959.8</ele>
        <time>2026-03-01T10:27:59Z</time>
      </trkpt>
      <trkpt lat="43.031600" lon="-1.817356">
        <ele>959.8</ele>
        <time>2026-03-01T10:28:03Z</time>
      </trkpt>
      <trkpt lat="43.031584" lon="-1.817394">
        <ele>959.8</ele>
        <time>2026-03-01T10:28:05Z</time>
      </trkpt>
      <trkpt lat="43.031590" lon="-1.817457">
        <ele>960.6</ele>
        <time>2026-03-01T10:28:08Z</time>
      </trkpt>
      <trkpt lat="43.031603" lon="-1.817513">
        <ele>961.4</ele>
        <time>2026-03-01T10:28:11Z</time>
      </trkpt>
      <trkpt lat="43.031585" lon="-1.817523">
        <ele>961.4</ele>
        <time>2026-03-01T10:28:13Z</time>
      </trkpt>
      <trkpt lat="43.031560" lon="-1.817498">
        <ele>961.6</ele>
        <time>2026-03-01T10:28:15Z</time>
      </trkpt>
      <trkpt lat="43.031515" lon="-1.817466">
        <ele>961.8</ele>
        <time>2026-03-01T10:28:18Z</time>
      </trkpt>
      <trkpt lat="43.031493" lon="-1.817496">
        <ele>962.4</ele>
        <time>2026-03-01T10:28:20Z</time>
      </trkpt>
      <trkpt lat="43.031491" lon="-1.817517">
        <ele>962.8</ele>
        <time>2026-03-01T10:28:21Z</time>
      </trkpt>
      <trkpt lat="43.031490" lon="-1.817534">
        <ele>963.0</ele>
        <time>2026-03-01T10:28:22Z</time>
      </trkpt>
      <trkpt lat="43.031478" lon="-1.817600">
        <ele>963.8</ele>
        <time>2026-03-01T10:28:26Z</time>
      </trkpt>
      <trkpt lat="43.031470" lon="-1.817613">
        <ele>963.8</ele>
        <time>2026-03-01T10:28:27Z</time>
      </trkpt>
      <trkpt lat="43.031463" lon="-1.817624">
        <ele>964.0</ele>
        <time>2026-03-01T10:28:28Z</time>
      </trkpt>
      <trkpt lat="43.031443" lon="-1.817643">
        <ele>964.6</ele>
        <time>2026-03-01T10:28:30Z</time>
      </trkpt>
      <trkpt lat="43.031428" lon="-1.817652">
        <ele>964.8</ele>
        <time>2026-03-01T10:28:31Z</time>
      </trkpt>
      <trkpt lat="43.031418" lon="-1.817667">
        <ele>965.0</ele>
        <time>2026-03-01T10:28:32Z</time>
      </trkpt>
      <trkpt lat="43.031396" lon="-1.817731">
        <ele>965.4</ele>
        <time>2026-03-01T10:28:36Z</time>
      </trkpt>
      <trkpt lat="43.031392" lon="-1.817741">
        <ele>965.6</ele>
        <time>2026-03-01T10:28:37Z</time>
      </trkpt>
      <trkpt lat="43.031378" lon="-1.817767">
        <ele>965.8</ele>
        <time>2026-03-01T10:28:39Z</time>
      </trkpt>
      <trkpt lat="43.031354" lon="-1.817789">
        <ele>966.0</ele>
        <time>2026-03-01T10:28:41Z</time>
      </trkpt>
      <trkpt lat="43.031325" lon="-1.817819">
        <ele>966.6</ele>
        <time>2026-03-01T10:28:44Z</time>
      </trkpt>
      <trkpt lat="43.031316" lon="-1.817829">
        <ele>966.6</ele>
        <time>2026-03-01T10:28:45Z</time>
      </trkpt>
      <trkpt lat="43.031306" lon="-1.817841">
        <ele>966.6</ele>
        <time>2026-03-01T10:28:46Z</time>
      </trkpt>
      <trkpt lat="43.031299" lon="-1.817856">
        <ele>967.0</ele>
        <time>2026-03-01T10:28:47Z</time>
      </trkpt>
      <trkpt lat="43.031277" lon="-1.817907">
        <ele>968.4</ele>
        <time>2026-03-01T10:28:51Z</time>
      </trkpt>
      <trkpt lat="43.031239" lon="-1.817941">
        <ele>969.0</ele>
        <time>2026-03-01T10:28:54Z</time>
      </trkpt>
      <trkpt lat="43.031208" lon="-1.817956">
        <ele>969.0</ele>
        <time>2026-03-01T10:28:56Z</time>
      </trkpt>
      <trkpt lat="43.031189" lon="-1.817954">
        <ele>968.8</ele>
        <time>2026-03-01T10:28:57Z</time>
      </trkpt>
      <trkpt lat="43.031168" lon="-1.817955">
        <ele>968.8</ele>
        <time>2026-03-01T10:28:58Z</time>
      </trkpt>
      <trkpt lat="43.031149" lon="-1.817961">
        <ele>968.8</ele>
        <time>2026-03-01T10:28:59Z</time>
      </trkpt>
      <trkpt lat="43.031133" lon="-1.818007">
        <ele>968.8</ele>
        <time>2026-03-01T10:29:01Z</time>
      </trkpt>
      <trkpt lat="43.031121" lon="-1.818056">
        <ele>969.0</ele>
        <time>2026-03-01T10:29:03Z</time>
      </trkpt>
      <trkpt lat="43.031098" lon="-1.818078">
        <ele>969.2</ele>
        <time>2026-03-01T10:29:05Z</time>
      </trkpt>
      <trkpt lat="43.031063" lon="-1.818102">
        <ele>969.4</ele>
        <time>2026-03-01T10:29:08Z</time>
      </trkpt>
      <trkpt lat="43.031027" lon="-1.818092">
        <ele>969.8</ele>
        <time>2026-03-01T10:29:11Z</time>
      </trkpt>
      <trkpt lat="43.031002" lon="-1.818062">
        <ele>970.6</ele>
        <time>2026-03-01T10:29:14Z</time>
      </trkpt>
      <trkpt lat="43.030975" lon="-1.818041">
        <ele>971.2</ele>
        <time>2026-03-01T10:29:17Z</time>
      </trkpt>
      <trkpt lat="43.030966" lon="-1.818043">
        <ele>971.6</ele>
        <time>2026-03-01T10:29:18Z</time>
      </trkpt>
      <trkpt lat="43.030949" lon="-1.818048">
        <ele>972.0</ele>
        <time>2026-03-01T10:29:20Z</time>
      </trkpt>
      <trkpt lat="43.030914" lon="-1.818055">
        <ele>973.0</ele>
        <time>2026-03-01T10:29:23Z</time>
      </trkpt>
      <trkpt lat="43.030893" lon="-1.818060">
        <ele>973.4</ele>
        <time>2026-03-01T10:29:25Z</time>
      </trkpt>
      <trkpt lat="43.030883" lon="-1.818065">
        <ele>974.0</ele>
        <time>2026-03-01T10:29:26Z</time>
      </trkpt>
      <trkpt lat="43.030858" lon="-1.818075">
        <ele>974.6</ele>
        <time>2026-03-01T10:29:28Z</time>
      </trkpt>
      <trkpt lat="43.030844" lon="-1.818078">
        <ele>974.8</ele>
        <time>2026-03-01T10:29:29Z</time>
      </trkpt>
      <trkpt lat="43.030833" lon="-1.818084">
        <ele>975.0</ele>
        <time>2026-03-01T10:29:30Z</time>
      </trkpt>
      <trkpt lat="43.030824" lon="-1.818097">
        <ele>975.0</ele>
        <time>2026-03-01T10:29:31Z</time>
      </trkpt>
      <trkpt lat="43.030813" lon="-1.818111">
        <ele>975.2</ele>
        <time>2026-03-01T10:29:32Z</time>
      </trkpt>
      <trkpt lat="43.030803" lon="-1.818122">
        <ele>975.2</ele>
        <time>2026-03-01T10:29:33Z</time>
      </trkpt>
      <trkpt lat="43.030747" lon="-1.818170">
        <ele>975.8</ele>
        <time>2026-03-01T10:29:38Z</time>
      </trkpt>
      <trkpt lat="43.030728" lon="-1.818207">
        <ele>976.0</ele>
        <time>2026-03-01T10:29:41Z</time>
      </trkpt>
      <trkpt lat="43.030696" lon="-1.818237">
        <ele>976.6</ele>
        <time>2026-03-01T10:29:45Z</time>
      </trkpt>
      <trkpt lat="43.030677" lon="-1.818268">
        <ele>976.6</ele>
        <time>2026-03-01T10:29:48Z</time>
      </trkpt>
      <trkpt lat="43.030662" lon="-1.818288">
        <ele>977.0</ele>
        <time>2026-03-01T10:29:51Z</time>
      </trkpt>
      <trkpt lat="43.030665" lon="-1.818268">
        <ele>977.2</ele>
        <time>2026-03-01T10:29:53Z</time>
      </trkpt>
      <trkpt lat="43.030667" lon="-1.818200">
        <ele>977.8</ele>
        <time>2026-03-01T10:29:57Z</time>
      </trkpt>
      <trkpt lat="43.030635" lon="-1.818203">
        <ele>978.2</ele>
        <time>2026-03-01T10:30:00Z</time>
      </trkpt>
      <trkpt lat="43.030623" lon="-1.818210">
        <ele>978.6</ele>
        <time>2026-03-01T10:30:01Z</time>
      </trkpt>
      <trkpt lat="43.030586" lon="-1.818253">
        <ele>979.4</ele>
        <time>2026-03-01T10:30:04Z</time>
      </trkpt>
      <trkpt lat="43.030576" lon="-1.818260">
        <ele>979.8</ele>
        <time>2026-03-01T10:30:05Z</time>
      </trkpt>
      <trkpt lat="43.030554" lon="-1.818273">
        <ele>980.4</ele>
        <time>2026-03-01T10:30:07Z</time>
      </trkpt>
      <trkpt lat="43.030532" lon="-1.818270">
        <ele>980.8</ele>
        <time>2026-03-01T10:30:09Z</time>
      </trkpt>
      <trkpt lat="43.030517" lon="-1.818270">
        <ele>981.0</ele>
        <time>2026-03-01T10:30:10Z</time>
      </trkpt>
      <trkpt lat="43.030488" lon="-1.818275">
        <ele>982.0</ele>
        <time>2026-03-01T10:30:13Z</time>
      </trkpt>
      <trkpt lat="43.030458" lon="-1.818271">
        <ele>982.8</ele>
        <time>2026-03-01T10:30:17Z</time>
      </trkpt>
      <trkpt lat="43.030443" lon="-1.818270">
        <ele>983.0</ele>
        <time>2026-03-01T10:30:19Z</time>
      </trkpt>
      <trkpt lat="43.030435" lon="-1.818266">
        <ele>983.2</ele>
        <time>2026-03-01T10:30:20Z</time>
      </trkpt>
      <trkpt lat="43.030428" lon="-1.818258">
        <ele>983.2</ele>
        <time>2026-03-01T10:30:22Z</time>
      </trkpt>
      <trkpt lat="43.030421" lon="-1.818236">
        <ele>983.4</ele>
        <time>2026-03-01T10:30:24Z</time>
      </trkpt>
      <trkpt lat="43.030421" lon="-1.818227">
        <ele>983.4</ele>
        <time>2026-03-01T10:30:25Z</time>
      </trkpt>
      <trkpt lat="43.030419" lon="-1.818211">
        <ele>983.6</ele>
        <time>2026-03-01T10:30:26Z</time>
      </trkpt>
      <trkpt lat="43.030414" lon="-1.818179">
        <ele>984.2</ele>
        <time>2026-03-01T10:30:28Z</time>
      </trkpt>
      <trkpt lat="43.030438" lon="-1.818136">
        <ele>985.2</ele>
        <time>2026-03-01T10:30:31Z</time>
      </trkpt>
      <trkpt lat="43.030442" lon="-1.818125">
        <ele>985.4</ele>
        <time>2026-03-01T10:30:32Z</time>
      </trkpt>
      <trkpt lat="43.030429" lon="-1.818072">
        <ele>986.4</ele>
        <time>2026-03-01T10:30:37Z</time>
      </trkpt>
      <trkpt lat="43.030433" lon="-1.818045">
        <ele>987.0</ele>
        <time>2026-03-01T10:30:39Z</time>
      </trkpt>
      <trkpt lat="43.030432" lon="-1.818015">
        <ele>987.6</ele>
        <time>2026-03-01T10:30:42Z</time>
      </trkpt>
      <trkpt lat="43.030434" lon="-1.817975">
        <ele>988.6</ele>
        <time>2026-03-01T10:30:47Z</time>
      </trkpt>
      <trkpt lat="43.030440" lon="-1.817958">
        <ele>988.8</ele>
        <time>2026-03-01T10:30:48Z</time>
      </trkpt>
      <trkpt lat="43.030445" lon="-1.817915">
        <ele>989.0</ele>
        <time>2026-03-01T10:30:51Z</time>
      </trkpt>
      <trkpt lat="43.030448" lon="-1.817876">
        <ele>989.2</ele>
        <time>2026-03-01T10:30:53Z</time>
      </trkpt>
      <trkpt lat="43.030435" lon="-1.817783">
        <ele>989.8</ele>
        <time>2026-03-01T10:30:57Z</time>
      </trkpt>
      <trkpt lat="43.030430" lon="-1.817749">
        <ele>990.4</ele>
        <time>2026-03-01T10:31:00Z</time>
      </trkpt>
      <trkpt lat="43.030434" lon="-1.817713">
        <ele>991.0</ele>
        <time>2026-03-01T10:31:03Z</time>
      </trkpt>
      <trkpt lat="43.030452" lon="-1.817646">
        <ele>991.4</ele>
        <time>2026-03-01T10:31:09Z</time>
      </trkpt>
      <trkpt lat="43.030479" lon="-1.817600">
        <ele>991.6</ele>
        <time>2026-03-01T10:31:12Z</time>
      </trkpt>
      <trkpt lat="43.030480" lon="-1.817572">
        <ele>991.8</ele>
        <time>2026-03-01T10:31:15Z</time>
      </trkpt>
      <trkpt lat="43.030487" lon="-1.817562">
        <ele>992.2</ele>
        <time>2026-03-01T10:31:16Z</time>
      </trkpt>
      <trkpt lat="43.030524" lon="-1.817492">
        <ele>992.8</ele>
        <time>2026-03-01T10:31:22Z</time>
      </trkpt>
      <trkpt lat="43.030536" lon="-1.817484">
        <ele>992.8</ele>
        <time>2026-03-01T10:31:23Z</time>
      </trkpt>
      <trkpt lat="43.030561" lon="-1.817446">
        <ele>992.8</ele>
        <time>2026-03-01T10:31:27Z</time>
      </trkpt>
      <trkpt lat="43.030569" lon="-1.817431">
        <ele>993.0</ele>
        <time>2026-03-01T10:31:28Z</time>
      </trkpt>
      <trkpt lat="43.030569" lon="-1.817416">
        <ele>993.0</ele>
        <time>2026-03-01T10:31:29Z</time>
      </trkpt>
      <trkpt lat="43.030572" lon="-1.817401">
        <ele>993.2</ele>
        <time>2026-03-01T10:31:30Z</time>
      </trkpt>
      <trkpt lat="43.030570" lon="-1.817385">
        <ele>993.4</ele>
        <time>2026-03-01T10:31:31Z</time>
      </trkpt>
      <trkpt lat="43.030578" lon="-1.817355">
        <ele>993.6</ele>
        <time>2026-03-01T10:31:33Z</time>
      </trkpt>
      <trkpt lat="43.030569" lon="-1.817321">
        <ele>993.6</ele>
        <time>2026-03-01T10:31:36Z</time>
      </trkpt>
      <trkpt lat="43.030587" lon="-1.817238">
        <ele>993.8</ele>
        <time>2026-03-01T10:31:43Z</time>
      </trkpt>
      <trkpt lat="43.030579" lon="-1.817209">
        <ele>994.4</ele>
        <time>2026-03-01T10:31:47Z</time>
      </trkpt>
      <trkpt lat="43.030588" lon="-1.817190">
        <ele>994.6</ele>
        <time>2026-03-01T10:31:49Z</time>
      </trkpt>
      <trkpt lat="43.030592" lon="-1.817179">
        <ele>994.6</ele>
        <time>2026-03-01T10:31:50Z</time>
      </trkpt>
      <trkpt lat="43.030577" lon="-1.817158">
        <ele>994.8</ele>
        <time>2026-03-01T10:31:52Z</time>
      </trkpt>
      <trkpt lat="43.030579" lon="-1.817112">
        <ele>994.6</ele>
        <time>2026-03-01T10:31:56Z</time>
      </trkpt>
      <trkpt lat="43.030592" lon="-1.817092">
        <ele>994.8</ele>
        <time>2026-03-01T10:31:58Z</time>
      </trkpt>
      <trkpt lat="43.030592" lon="-1.817079">
        <ele>994.8</ele>
        <time>2026-03-01T10:31:59Z</time>
      </trkpt>
      <trkpt lat="43.030595" lon="-1.817063">
        <ele>995.0</ele>
        <time>2026-03-01T10:32:00Z</time>
      </trkpt>
      <trkpt lat="43.030598" lon="-1.817052">
        <ele>995.2</ele>
        <time>2026-03-01T10:32:02Z</time>
      </trkpt>
      <trkpt lat="43.030605" lon="-1.817041">
        <ele>995.4</ele>
        <time>2026-03-01T10:32:04Z</time>
      </trkpt>
      <trkpt lat="43.030618" lon="-1.817021">
        <ele>995.8</ele>
        <time>2026-03-01T10:32:06Z</time>
      </trkpt>
      <trkpt lat="43.030605" lon="-1.816994">
        <ele>996.0</ele>
        <time>2026-03-01T10:32:09Z</time>
      </trkpt>
      <trkpt lat="43.030595" lon="-1.816940">
        <ele>996.2</ele>
        <time>2026-03-01T10:32:15Z</time>
      </trkpt>
      <trkpt lat="43.030603" lon="-1.816928">
        <ele>996.2</ele>
        <time>2026-03-01T10:32:16Z</time>
      </trkpt>
      <trkpt lat="43.030614" lon="-1.816906">
        <ele>996.8</ele>
        <time>2026-03-01T10:32:18Z</time>
      </trkpt>
      <trkpt lat="43.030642" lon="-1.816861">
        <ele>997.2</ele>
        <time>2026-03-01T10:32:26Z</time>
      </trkpt>
      <trkpt lat="43.030642" lon="-1.816862">
        <ele>997.2</ele>
        <time>2026-03-01T10:32:32Z</time>
      </trkpt>
      <trkpt lat="43.030643" lon="-1.816861">
        <ele>997.0</ele>
        <time>2026-03-01T10:32:33Z</time>
      </trkpt>
      <trkpt lat="43.030644" lon="-1.816859">
        <ele>996.8</ele>
        <time>2026-03-01T10:32:34Z</time>
      </trkpt>
      <trkpt lat="43.030646" lon="-1.816850">
        <ele>996.8</ele>
        <time>2026-03-01T10:32:35Z</time>
      </trkpt>
      <trkpt lat="43.030648" lon="-1.816843">
        <ele>996.8</ele>
        <time>2026-03-01T10:32:36Z</time>
      </trkpt>
      <trkpt lat="43.030656" lon="-1.816807">
        <ele>997.0</ele>
        <time>2026-03-01T10:32:41Z</time>
      </trkpt>
      <trkpt lat="43.030682" lon="-1.816809">
        <ele>997.2</ele>
        <time>2026-03-01T10:32:44Z</time>
      </trkpt>
      <trkpt lat="43.030705" lon="-1.816816">
        <ele>996.4</ele>
        <time>2026-03-01T10:32:52Z</time>
      </trkpt>
      <trkpt lat="43.030705" lon="-1.816814">
        <ele>996.4</ele>
        <time>2026-03-01T10:32:54Z</time>
      </trkpt>
      <trkpt lat="43.030703" lon="-1.816810">
        <ele>996.8</ele>
        <time>2026-03-01T10:33:01Z</time>
      </trkpt>
      <trkpt lat="43.030703" lon="-1.816809">
        <ele>996.6</ele>
        <time>2026-03-01T10:33:07Z</time>
      </trkpt>
      <trkpt lat="43.030703" lon="-1.816809">
        <ele>996.8</ele>
        <time>2026-03-01T10:33:09Z</time>
      </trkpt>
      <trkpt lat="43.030702" lon="-1.816809">
        <ele>996.8</ele>
        <time>2026-03-01T10:33:10Z</time>
      </trkpt>
      <trkpt lat="43.030702" lon="-1.816809">
        <ele>996.6</ele>
        <time>2026-03-01T10:33:18Z</time>
      </trkpt>
      <trkpt lat="43.030700" lon="-1.816810">
        <ele>996.6</ele>
        <time>2026-03-01T10:33:23Z</time>
      </trkpt>
      <trkpt lat="43.030699" lon="-1.816810">
        <ele>996.6</ele>
        <time>2026-03-01T10:33:29Z</time>
      </trkpt>
      <trkpt lat="43.030697" lon="-1.816808">
        <ele>996.4</ele>
        <time>2026-03-01T10:33:37Z</time>
      </trkpt>
      <trkpt lat="43.030695" lon="-1.816806">
        <ele>997.8</ele>
        <time>2026-03-01T10:33:49Z</time>
      </trkpt>
      <trkpt lat="43.030693" lon="-1.816813">
        <ele>998.0</ele>
        <time>2026-03-01T10:33:51Z</time>
      </trkpt>
      <trkpt lat="43.030676" lon="-1.816839">
        <ele>999.0</ele>
        <time>2026-03-01T10:33:59Z</time>
      </trkpt>
      <trkpt lat="43.030627" lon="-1.816887">
        <ele>999.8</ele>
        <time>2026-03-01T10:34:03Z</time>
      </trkpt>
      <trkpt lat="43.030617" lon="-1.816897">
        <ele>1000.2</ele>
        <time>2026-03-01T10:34:04Z</time>
      </trkpt>
      <trkpt lat="43.030603" lon="-1.816909">
        <ele>1000.4</ele>
        <time>2026-03-01T10:34:05Z</time>
      </trkpt>
      <trkpt lat="43.030585" lon="-1.816930">
        <ele>1001.0</ele>
        <time>2026-03-01T10:34:07Z</time>
      </trkpt>
      <trkpt lat="43.030576" lon="-1.816941">
        <ele>1001.2</ele>
        <time>2026-03-01T10:34:08Z</time>
      </trkpt>
      <trkpt lat="43.030569" lon="-1.816949">
        <ele>1001.4</ele>
        <time>2026-03-01T10:34:09Z</time>
      </trkpt>
      <trkpt lat="43.030548" lon="-1.816961">
        <ele>1001.6</ele>
        <time>2026-03-01T10:34:10Z</time>
      </trkpt>
      <trkpt lat="43.030518" lon="-1.816984">
        <ele>1002.2</ele>
        <time>2026-03-01T10:34:13Z</time>
      </trkpt>
      <trkpt lat="43.030509" lon="-1.816991">
        <ele>1002.4</ele>
        <time>2026-03-01T10:34:14Z</time>
      </trkpt>
      <trkpt lat="43.030501" lon="-1.816996">
        <ele>1002.6</ele>
        <time>2026-03-01T10:34:16Z</time>
      </trkpt>
      <trkpt lat="43.030473" lon="-1.816994">
        <ele>1002.8</ele>
        <time>2026-03-01T10:34:20Z</time>
      </trkpt>
      <trkpt lat="43.030457" lon="-1.816991">
        <ele>1003.0</ele>
        <time>2026-03-01T10:34:27Z</time>
      </trkpt>
      <trkpt lat="43.030438" lon="-1.817015">
        <ele>1002.8</ele>
        <time>2026-03-01T10:34:31Z</time>
      </trkpt>
      <trkpt lat="43.030419" lon="-1.817038">
        <ele>1002.8</ele>
        <time>2026-03-01T10:34:33Z</time>
      </trkpt>
      <trkpt lat="43.030403" lon="-1.817057">
        <ele>1003.0</ele>
        <time>2026-03-01T10:34:34Z</time>
      </trkpt>
      <trkpt lat="43.030352" lon="-1.817107">
        <ele>1003.6</ele>
        <time>2026-03-01T10:34:37Z</time>
      </trkpt>
      <trkpt lat="43.030335" lon="-1.817119">
        <ele>1004.0</ele>
        <time>2026-03-01T10:34:38Z</time>
      </trkpt>
      <trkpt lat="43.030319" lon="-1.817125">
        <ele>1004.6</ele>
        <time>2026-03-01T10:34:39Z</time>
      </trkpt>
      <trkpt lat="43.030304" lon="-1.817137">
        <ele>1004.8</ele>
        <time>2026-03-01T10:34:40Z</time>
      </trkpt>
      <trkpt lat="43.030285" lon="-1.817141">
        <ele>1006.2</ele>
        <time>2026-03-01T10:34:42Z</time>
      </trkpt>
      <trkpt lat="43.030262" lon="-1.817161">
        <ele>1006.8</ele>
        <time>2026-03-01T10:34:44Z</time>
      </trkpt>
      <trkpt lat="43.030246" lon="-1.817186">
        <ele>1007.2</ele>
        <time>2026-03-01T10:34:46Z</time>
      </trkpt>
      <trkpt lat="43.030237" lon="-1.817195">
        <ele>1007.6</ele>
        <time>2026-03-01T10:34:47Z</time>
      </trkpt>
      <trkpt lat="43.030198" lon="-1.817227">
        <ele>1008.8</ele>
        <time>2026-03-01T10:34:50Z</time>
      </trkpt>
      <trkpt lat="43.030170" lon="-1.817242">
        <ele>1009.4</ele>
        <time>2026-03-01T10:34:52Z</time>
      </trkpt>
      <trkpt lat="43.030160" lon="-1.817245">
        <ele>1010.0</ele>
        <time>2026-03-01T10:34:53Z</time>
      </trkpt>
      <trkpt lat="43.030111" lon="-1.817260">
        <ele>1010.6</ele>
        <time>2026-03-01T10:34:57Z</time>
      </trkpt>
      <trkpt lat="43.030102" lon="-1.817265">
        <ele>1010.8</ele>
        <time>2026-03-01T10:34:58Z</time>
      </trkpt>
      <trkpt lat="43.030091" lon="-1.817268">
        <ele>1011.0</ele>
        <time>2026-03-01T10:34:59Z</time>
      </trkpt>
      <trkpt lat="43.030068" lon="-1.817285">
        <ele>1012.0</ele>
        <time>2026-03-01T10:35:02Z</time>
      </trkpt>
      <trkpt lat="43.030060" lon="-1.817289">
        <ele>1012.0</ele>
        <time>2026-03-01T10:35:03Z</time>
      </trkpt>
      <trkpt lat="43.030045" lon="-1.817299">
        <ele>1012.4</ele>
        <time>2026-03-01T10:35:05Z</time>
      </trkpt>
      <trkpt lat="43.030034" lon="-1.817306">
        <ele>1012.8</ele>
        <time>2026-03-01T10:35:06Z</time>
      </trkpt>
      <trkpt lat="43.030006" lon="-1.817323">
        <ele>1013.0</ele>
        <time>2026-03-01T10:35:08Z</time>
      </trkpt>
      <trkpt lat="43.029948" lon="-1.817355">
        <ele>1013.8</ele>
        <time>2026-03-01T10:35:12Z</time>
      </trkpt>
      <trkpt lat="43.029932" lon="-1.817365">
        <ele>1014.2</ele>
        <time>2026-03-01T10:35:13Z</time>
      </trkpt>
      <trkpt lat="43.029861" lon="-1.817422">
        <ele>1014.8</ele>
        <time>2026-03-01T10:35:18Z</time>
      </trkpt>
      <trkpt lat="43.029852" lon="-1.817426">
        <ele>1014.8</ele>
        <time>2026-03-01T10:35:19Z</time>
      </trkpt>
      <trkpt lat="43.029824" lon="-1.817429">
        <ele>1014.8</ele>
        <time>2026-03-01T10:35:21Z</time>
      </trkpt>
      <trkpt lat="43.029793" lon="-1.817440">
        <ele>1014.8</ele>
        <time>2026-03-01T10:35:23Z</time>
      </trkpt>
      <trkpt lat="43.029732" lon="-1.817469">
        <ele>1014.6</ele>
        <time>2026-03-01T10:35:28Z</time>
      </trkpt>
      <trkpt lat="43.029723" lon="-1.817495">
        <ele>1014.8</ele>
        <time>2026-03-01T10:35:33Z</time>
      </trkpt>
      <trkpt lat="43.029719" lon="-1.817491">
        <ele>1014.8</ele>
        <time>2026-03-01T10:35:36Z</time>
      </trkpt>
      <trkpt lat="43.029717" lon="-1.817480">
        <ele>1014.8</ele>
        <time>2026-03-01T10:35:38Z</time>
      </trkpt>
      <trkpt lat="43.029723" lon="-1.817468">
        <ele>1015.2</ele>
        <time>2026-03-01T10:35:40Z</time>
      </trkpt>
      <trkpt lat="43.029737" lon="-1.817455">
        <ele>1016.0</ele>
        <time>2026-03-01T10:35:44Z</time>
      </trkpt>
      <trkpt lat="43.029739" lon="-1.817444">
        <ele>1016.2</ele>
        <time>2026-03-01T10:35:45Z</time>
      </trkpt>
      <trkpt lat="43.029745" lon="-1.817430">
        <ele>1016.2</ele>
        <time>2026-03-01T10:35:46Z</time>
      </trkpt>
      <trkpt lat="43.029741" lon="-1.817410">
        <ele>1016.6</ele>
        <time>2026-03-01T10:35:49Z</time>
      </trkpt>
      <trkpt lat="43.029734" lon="-1.817403">
        <ele>1017.4</ele>
        <time>2026-03-01T10:35:51Z</time>
      </trkpt>
      <trkpt lat="43.029701" lon="-1.817386">
        <ele>1018.2</ele>
        <time>2026-03-01T10:35:55Z</time>
      </trkpt>
      <trkpt lat="43.029689" lon="-1.817360">
        <ele>1018.6</ele>
        <time>2026-03-01T10:35:57Z</time>
      </trkpt>
      <trkpt lat="43.029687" lon="-1.817352">
        <ele>1018.8</ele>
        <time>2026-03-01T10:35:58Z</time>
      </trkpt>
      <trkpt lat="43.029682" lon="-1.817308">
        <ele>1019.8</ele>
        <time>2026-03-01T10:36:03Z</time>
      </trkpt>
      <trkpt lat="43.029685" lon="-1.817303">
        <ele>1020.0</ele>
        <time>2026-03-01T10:36:04Z</time>
      </trkpt>
      <trkpt lat="43.029709" lon="-1.817278">
        <ele>1020.8</ele>
        <time>2026-03-01T10:36:09Z</time>
      </trkpt>
      <trkpt lat="43.029722" lon="-1.817254">
        <ele>1021.2</ele>
        <time>2026-03-01T10:36:11Z</time>
      </trkpt>
      <trkpt lat="43.029730" lon="-1.817218">
        <ele>1021.8</ele>
        <time>2026-03-01T10:36:15Z</time>
      </trkpt>
      <trkpt lat="43.029732" lon="-1.817206">
        <ele>1021.8</ele>
        <time>2026-03-01T10:36:16Z</time>
      </trkpt>
      <trkpt lat="43.029744" lon="-1.817171">
        <ele>1022.8</ele>
        <time>2026-03-01T10:36:20Z</time>
      </trkpt>
      <trkpt lat="43.029748" lon="-1.817159">
        <ele>1023.0</ele>
        <time>2026-03-01T10:36:21Z</time>
      </trkpt>
      <trkpt lat="43.029755" lon="-1.817139">
        <ele>1023.2</ele>
        <time>2026-03-01T10:36:23Z</time>
      </trkpt>
      <trkpt lat="43.029746" lon="-1.817103">
        <ele>1023.8</ele>
        <time>2026-03-01T10:36:27Z</time>
      </trkpt>
      <trkpt lat="43.029740" lon="-1.817100">
        <ele>1024.0</ele>
        <time>2026-03-01T10:36:28Z</time>
      </trkpt>
      <trkpt lat="43.029697" lon="-1.817075">
        <ele>1025.0</ele>
        <time>2026-03-01T10:36:37Z</time>
      </trkpt>
      <trkpt lat="43.029670" lon="-1.817051">
        <ele>1026.2</ele>
        <time>2026-03-01T10:36:42Z</time>
      </trkpt>
      <trkpt lat="43.029642" lon="-1.817038">
        <ele>1026.8</ele>
        <time>2026-03-01T10:36:46Z</time>
      </trkpt>
      <trkpt lat="43.029630" lon="-1.817033">
        <ele>1027.2</ele>
        <time>2026-03-01T10:36:48Z</time>
      </trkpt>
      <trkpt lat="43.029599" lon="-1.817018">
        <ele>1028.2</ele>
        <time>2026-03-01T10:36:53Z</time>
      </trkpt>
      <trkpt lat="43.029587" lon="-1.817009">
        <ele>1028.2</ele>
        <time>2026-03-01T10:36:55Z</time>
      </trkpt>
      <trkpt lat="43.029541" lon="-1.816998">
        <ele>1029.4</ele>
        <time>2026-03-01T10:37:01Z</time>
      </trkpt>
      <trkpt lat="43.029516" lon="-1.816988">
        <ele>1029.8</ele>
        <time>2026-03-01T10:37:09Z</time>
      </trkpt>
      <trkpt lat="43.029505" lon="-1.816990">
        <ele>1029.6</ele>
        <time>2026-03-01T10:37:19Z</time>
      </trkpt>
      <trkpt lat="43.029493" lon="-1.816990">
        <ele>1029.8</ele>
        <time>2026-03-01T10:37:27Z</time>
      </trkpt>
      <trkpt lat="43.029473" lon="-1.816995">
        <ele>1029.4</ele>
        <time>2026-03-01T10:37:34Z</time>
      </trkpt>
      <trkpt lat="43.029481" lon="-1.816979">
        <ele>1029.4</ele>
        <time>2026-03-01T10:37:43Z</time>
      </trkpt>
      <trkpt lat="43.029475" lon="-1.817001">
        <ele>1029.8</ele>
        <time>2026-03-01T10:37:48Z</time>
      </trkpt>
      <trkpt lat="43.029470" lon="-1.816995">
        <ele>1029.4</ele>
        <time>2026-03-01T10:37:54Z</time>
      </trkpt>
      <trkpt lat="43.029468" lon="-1.816985">
        <ele>1029.0</ele>
        <time>2026-03-01T10:38:04Z</time>
      </trkpt>
      <trkpt lat="43.029468" lon="-1.816983">
        <ele>1029.0</ele>
        <time>2026-03-01T10:38:05Z</time>
      </trkpt>
      <trkpt lat="43.029469" lon="-1.816980">
        <ele>1029.0</ele>
        <time>2026-03-01T10:38:09Z</time>
      </trkpt>
      <trkpt lat="43.029469" lon="-1.816980">
        <ele>1029.0</ele>
        <time>2026-03-01T10:38:10Z</time>
      </trkpt>
      <trkpt lat="43.029469" lon="-1.816979">
        <ele>1028.8</ele>
        <time>2026-03-01T10:38:11Z</time>
      </trkpt>
      <trkpt lat="43.029468" lon="-1.816979">
        <ele>1028.8</ele>
        <time>2026-03-01T10:38:12Z</time>
      </trkpt>
      <trkpt lat="43.029469" lon="-1.816978">
        <ele>1028.6</ele>
        <time>2026-03-01T10:38:13Z</time>
      </trkpt>
      <trkpt lat="43.029468" lon="-1.816977">
        <ele>1028.6</ele>
        <time>2026-03-01T10:38:16Z</time>
      </trkpt>
      <trkpt lat="43.029468" lon="-1.816977">
        <ele>1028.6</ele>
        <time>2026-03-01T10:38:17Z</time>
      </trkpt>
      <trkpt lat="43.029468" lon="-1.816977">
        <ele>1028.6</ele>
        <time>2026-03-01T10:38:19Z</time>
      </trkpt>
      <trkpt lat="43.029471" lon="-1.816978">
        <ele>1028.4</ele>
        <time>2026-03-01T10:38:27Z</time>
      </trkpt>
      <trkpt lat="43.029472" lon="-1.816978">
        <ele>1028.2</ele>
        <time>2026-03-01T10:38:28Z</time>
      </trkpt>
      <trkpt lat="43.029477" lon="-1.816981">
        <ele>1028.8</ele>
        <time>2026-03-01T10:38:36Z</time>
      </trkpt>
      <trkpt lat="43.029474" lon="-1.816982">
        <ele>1029.0</ele>
        <time>2026-03-01T10:38:39Z</time>
      </trkpt>
      <trkpt lat="43.029476" lon="-1.816984">
        <ele>1028.6</ele>
        <time>2026-03-01T10:38:46Z</time>
      </trkpt>
      <trkpt lat="43.029477" lon="-1.816986">
        <ele>1022.6</ele>
        <time>2026-03-01T10:38:55Z</time>
      </trkpt>
      <trkpt lat="43.029478" lon="-1.816986">
        <ele>1022.6</ele>
        <time>2026-03-01T10:38:57Z</time>
      </trkpt>
      <trkpt lat="43.029479" lon="-1.816988">
        <ele>1025.6</ele>
        <time>2026-03-01T10:38:59Z</time>
      </trkpt>
      <trkpt lat="43.029479" lon="-1.816988">
        <ele>1027.2</ele>
        <time>2026-03-01T10:39:00Z</time>
      </trkpt>
      <trkpt lat="43.029479" lon="-1.816986">
        <ele>1028.4</ele>
        <time>2026-03-01T10:39:02Z</time>
      </trkpt>
      <trkpt lat="43.029479" lon="-1.816984">
        <ele>1028.8</ele>
        <time>2026-03-01T10:39:07Z</time>
      </trkpt>
      <trkpt lat="43.029478" lon="-1.816981">
        <ele>1028.8</ele>
        <time>2026-03-01T10:39:15Z</time>
      </trkpt>
      <trkpt lat="43.029477" lon="-1.816979">
        <ele>1028.8</ele>
        <time>2026-03-01T10:39:21Z</time>
      </trkpt>
      <trkpt lat="43.029476" lon="-1.816978">
        <ele>1028.8</ele>
        <time>2026-03-01T10:39:22Z</time>
      </trkpt>
      <trkpt lat="43.029477" lon="-1.816977">
        <ele>1028.8</ele>
        <time>2026-03-01T10:39:23Z</time>
      </trkpt>
      <trkpt lat="43.029477" lon="-1.816976">
        <ele>1028.8</ele>
        <time>2026-03-01T10:39:24Z</time>
      </trkpt>
      <trkpt lat="43.029477" lon="-1.816976">
        <ele>1028.8</ele>
        <time>2026-03-01T10:39:25Z</time>
      </trkpt>
      <trkpt lat="43.029477" lon="-1.816977">
        <ele>1028.8</ele>
        <time>2026-03-01T10:39:26Z</time>
      </trkpt>
      <trkpt lat="43.029477" lon="-1.816979">
        <ele>1028.8</ele>
        <time>2026-03-01T10:39:31Z</time>
      </trkpt>
      <trkpt lat="43.029477" lon="-1.816979">
        <ele>1028.8</ele>
        <time>2026-03-01T10:39:34Z</time>
      </trkpt>
      <trkpt lat="43.029470" lon="-1.816969">
        <ele>1028.8</ele>
        <time>2026-03-01T10:39:43Z</time>
      </trkpt>
      <trkpt lat="43.029439" lon="-1.816952">
        <ele>1028.8</ele>
        <time>2026-03-01T10:39:51Z</time>
      </trkpt>
      <trkpt lat="43.029436" lon="-1.816966">
        <ele>1028.8</ele>
        <time>2026-03-01T10:39:56Z</time>
      </trkpt>
      <trkpt lat="43.029447" lon="-1.816987">
        <ele>1028.8</ele>
        <time>2026-03-01T10:40:04Z</time>
      </trkpt>
      <trkpt lat="43.029448" lon="-1.816988">
        <ele>1028.8</ele>
        <time>2026-03-01T10:40:05Z</time>
      </trkpt>
      <trkpt lat="43.029469" lon="-1.816981">
        <ele>1028.8</ele>
        <time>2026-03-01T10:40:11Z</time>
      </trkpt>
      <trkpt lat="43.029475" lon="-1.816981">
        <ele>1028.8</ele>
        <time>2026-03-01T10:40:15Z</time>
      </trkpt>
      <trkpt lat="43.029476" lon="-1.816981">
        <ele>1028.8</ele>
        <time>2026-03-01T10:40:16Z</time>
      </trkpt>
      <trkpt lat="43.029476" lon="-1.816982">
        <ele>1028.8</ele>
        <time>2026-03-01T10:40:19Z</time>
      </trkpt>
      <trkpt lat="43.029476" lon="-1.816982">
        <ele>1028.8</ele>
        <time>2026-03-01T10:40:24Z</time>
      </trkpt>
      <trkpt lat="43.029473" lon="-1.816983">
        <ele>1028.8</ele>
        <time>2026-03-01T10:40:26Z</time>
      </trkpt>
      <trkpt lat="43.029472" lon="-1.816991">
        <ele>1028.8</ele>
        <time>2026-03-01T10:40:28Z</time>
      </trkpt>
      <trkpt lat="43.029481" lon="-1.816992">
        <ele>1028.8</ele>
        <time>2026-03-01T10:40:35Z</time>
      </trkpt>
      <trkpt lat="43.029481" lon="-1.816993">
        <ele>1028.8</ele>
        <time>2026-03-01T10:40:37Z</time>
      </trkpt>
      <trkpt lat="43.029482" lon="-1.816994">
        <ele>1028.8</ele>
        <time>2026-03-01T10:40:42Z</time>
      </trkpt>
      <trkpt lat="43.029483" lon="-1.816995">
        <ele>1028.8</ele>
        <time>2026-03-01T10:40:49Z</time>
      </trkpt>
      <trkpt lat="43.029484" lon="-1.816996">
        <ele>1028.8</ele>
        <time>2026-03-01T10:40:54Z</time>
      </trkpt>
      <trkpt lat="43.029486" lon="-1.816998">
        <ele>1028.8</ele>
        <time>2026-03-01T10:41:00Z</time>
      </trkpt>
      <trkpt lat="43.029487" lon="-1.816997">
        <ele>1028.8</ele>
        <time>2026-03-01T10:41:04Z</time>
      </trkpt>
      <trkpt lat="43.029488" lon="-1.816997">
        <ele>1028.8</ele>
        <time>2026-03-01T10:41:05Z</time>
      </trkpt>
      <trkpt lat="43.029488" lon="-1.816997">
        <ele>1028.8</ele>
        <time>2026-03-01T10:41:06Z</time>
      </trkpt>
      <trkpt lat="43.029484" lon="-1.816993">
        <ele>1028.8</ele>
        <time>2026-03-01T10:41:20Z</time>
      </trkpt>
      <trkpt lat="43.029466" lon="-1.816976">
        <ele>1028.8</ele>
        <time>2026-03-01T10:41:34Z</time>
      </trkpt>
      <trkpt lat="43.029464" lon="-1.816975">
        <ele>1028.8</ele>
        <time>2026-03-01T10:41:41Z</time>
      </trkpt>
      <trkpt lat="43.029466" lon="-1.816972">
        <ele>1028.8</ele>
        <time>2026-03-01T10:41:43Z</time>
      </trkpt>
      <trkpt lat="43.029471" lon="-1.816972">
        <ele>1028.8</ele>
        <time>2026-03-01T10:41:51Z</time>
      </trkpt>
      <trkpt lat="43.029474" lon="-1.816973">
        <ele>1028.8</ele>
        <time>2026-03-01T10:41:59Z</time>
      </trkpt>
      <trkpt lat="43.029467" lon="-1.816979">
        <ele>1028.8</ele>
        <time>2026-03-01T10:42:04Z</time>
      </trkpt>
      <trkpt lat="43.029465" lon="-1.816979">
        <ele>1028.8</ele>
        <time>2026-03-01T10:42:05Z</time>
      </trkpt>
      <trkpt lat="43.029464" lon="-1.816979">
        <ele>1028.8</ele>
        <time>2026-03-01T10:42:06Z</time>
      </trkpt>
      <trkpt lat="43.029462" lon="-1.816979">
        <ele>1028.8</ele>
        <time>2026-03-01T10:42:12Z</time>
      </trkpt>
      <trkpt lat="43.029462" lon="-1.816978">
        <ele>1028.8</ele>
        <time>2026-03-01T10:42:15Z</time>
      </trkpt>
      <trkpt lat="43.029463" lon="-1.816976">
        <ele>1028.8</ele>
        <time>2026-03-01T10:42:24Z</time>
      </trkpt>
      <trkpt lat="43.029462" lon="-1.816974">
        <ele>1028.8</ele>
        <time>2026-03-01T10:42:28Z</time>
      </trkpt>
      <trkpt lat="43.029465" lon="-1.816972">
        <ele>1028.8</ele>
        <time>2026-03-01T10:42:30Z</time>
      </trkpt>
      <trkpt lat="43.029465" lon="-1.816971">
        <ele>1028.8</ele>
        <time>2026-03-01T10:42:31Z</time>
      </trkpt>
      <trkpt lat="43.029464" lon="-1.816971">
        <ele>1028.8</ele>
        <time>2026-03-01T10:42:32Z</time>
      </trkpt>
      <trkpt lat="43.029461" lon="-1.816964">
        <ele>1028.8</ele>
        <time>2026-03-01T10:42:41Z</time>
      </trkpt>
      <trkpt lat="43.029456" lon="-1.816954">
        <ele>1028.8</ele>
        <time>2026-03-01T10:42:46Z</time>
      </trkpt>
      <trkpt lat="43.029456" lon="-1.816955">
        <ele>1028.8</ele>
        <time>2026-03-01T10:42:52Z</time>
      </trkpt>
      <trkpt lat="43.029461" lon="-1.816961">
        <ele>1028.8</ele>
        <time>2026-03-01T10:43:00Z</time>
      </trkpt>
      <trkpt lat="43.029462" lon="-1.816962">
        <ele>1028.8</ele>
        <time>2026-03-01T10:43:03Z</time>
      </trkpt>
      <trkpt lat="43.029462" lon="-1.816963">
        <ele>1028.8</ele>
        <time>2026-03-01T10:43:05Z</time>
      </trkpt>
      <trkpt lat="43.029468" lon="-1.816968">
        <ele>1028.8</ele>
        <time>2026-03-01T10:43:10Z</time>
      </trkpt>
      <trkpt lat="43.029476" lon="-1.816974">
        <ele>1028.8</ele>
        <time>2026-03-01T10:43:20Z</time>
      </trkpt>
      <trkpt lat="43.029475" lon="-1.816976">
        <ele>1028.8</ele>
        <time>2026-03-01T10:43:35Z</time>
      </trkpt>
      <trkpt lat="43.029475" lon="-1.816976">
        <ele>1028.8</ele>
        <time>2026-03-01T10:43:36Z</time>
      </trkpt>
      <trkpt lat="43.029475" lon="-1.816976">
        <ele>1028.8</ele>
        <time>2026-03-01T10:43:38Z</time>
      </trkpt>
      <trkpt lat="43.029474" lon="-1.816976">
        <ele>1028.8</ele>
        <time>2026-03-01T10:43:53Z</time>
      </trkpt>
      <trkpt lat="43.029474" lon="-1.816976">
        <ele>1028.8</ele>
        <time>2026-03-01T10:43:59Z</time>
      </trkpt>
      <trkpt lat="43.029472" lon="-1.816978">
        <ele>1028.8</ele>
        <time>2026-03-01T10:44:08Z</time>
      </trkpt>
      <trkpt lat="43.029471" lon="-1.816979">
        <ele>1028.8</ele>
        <time>2026-03-01T10:44:11Z</time>
      </trkpt>
      <trkpt lat="43.029471" lon="-1.816981">
        <ele>1028.8</ele>
        <time>2026-03-01T10:44:17Z</time>
      </trkpt>
      <trkpt lat="43.029470" lon="-1.816978">
        <ele>1028.8</ele>
        <time>2026-03-01T10:44:38Z</time>
      </trkpt>
      <trkpt lat="43.029470" lon="-1.816978">
        <ele>1028.8</ele>
        <time>2026-03-01T10:44:39Z</time>
      </trkpt>
      <trkpt lat="43.029470" lon="-1.816977">
        <ele>1028.8</ele>
        <time>2026-03-01T10:44:44Z</time>
      </trkpt>
      <trkpt lat="43.029470" lon="-1.816976">
        <ele>1028.8</ele>
        <time>2026-03-01T10:44:45Z</time>
      </trkpt>
      <trkpt lat="43.029470" lon="-1.816976">
        <ele>1028.8</ele>
        <time>2026-03-01T10:44:46Z</time>
      </trkpt>
      <trkpt lat="43.029470" lon="-1.816976">
        <ele>1028.8</ele>
        <time>2026-03-01T10:44:51Z</time>
      </trkpt>
      <trkpt lat="43.029471" lon="-1.816980">
        <ele>1028.8</ele>
        <time>2026-03-01T10:45:07Z</time>
      </trkpt>
      <trkpt lat="43.029472" lon="-1.816980">
        <ele>1028.8</ele>
        <time>2026-03-01T10:45:12Z</time>
      </trkpt>
      <trkpt lat="43.029472" lon="-1.816980">
        <ele>1028.8</ele>
        <time>2026-03-01T10:45:13Z</time>
      </trkpt>
      <trkpt lat="43.029472" lon="-1.816981">
        <ele>1028.8</ele>
        <time>2026-03-01T10:45:15Z</time>
      </trkpt>
      <trkpt lat="43.029472" lon="-1.816983">
        <ele>1028.8</ele>
        <time>2026-03-01T10:45:22Z</time>
      </trkpt>
      <trkpt lat="43.029477" lon="-1.817005">
        <ele>1028.8</ele>
        <time>2026-03-01T10:45:31Z</time>
      </trkpt>
      <trkpt lat="43.029499" lon="-1.817003">
        <ele>1028.8</ele>
        <time>2026-03-01T10:45:35Z</time>
      </trkpt>
      <trkpt lat="43.029509" lon="-1.817008">
        <ele>1028.8</ele>
        <time>2026-03-01T10:45:36Z</time>
      </trkpt>
      <trkpt lat="43.029518" lon="-1.817014">
        <ele>1024.6</ele>
        <time>2026-03-01T10:45:37Z</time>
      </trkpt>
      <trkpt lat="43.029541" lon="-1.817011">
        <ele>1024.6</ele>
        <time>2026-03-01T10:45:40Z</time>
      </trkpt>
      <trkpt lat="43.029546" lon="-1.817012">
        <ele>1026.2</ele>
        <time>2026-03-01T10:45:41Z</time>
      </trkpt>
      <trkpt lat="43.029553" lon="-1.817014">
        <ele>1027.0</ele>
        <time>2026-03-01T10:45:42Z</time>
      </trkpt>
      <trkpt lat="43.029561" lon="-1.817016">
        <ele>1027.6</ele>
        <time>2026-03-01T10:45:43Z</time>
      </trkpt>
      <trkpt lat="43.029567" lon="-1.817015">
        <ele>1027.8</ele>
        <time>2026-03-01T10:45:44Z</time>
      </trkpt>
      <trkpt lat="43.029577" lon="-1.817014">
        <ele>1027.8</ele>
        <time>2026-03-01T10:45:45Z</time>
      </trkpt>
      <trkpt lat="43.029603" lon="-1.817015">
        <ele>1027.2</ele>
        <time>2026-03-01T10:45:49Z</time>
      </trkpt>
      <trkpt lat="43.029610" lon="-1.817017">
        <ele>1027.0</ele>
        <time>2026-03-01T10:45:50Z</time>
      </trkpt>
      <trkpt lat="43.029637" lon="-1.817026">
        <ele>1026.4</ele>
        <time>2026-03-01T10:45:53Z</time>
      </trkpt>
      <trkpt lat="43.029646" lon="-1.817033">
        <ele>1026.0</ele>
        <time>2026-03-01T10:45:55Z</time>
      </trkpt>
      <trkpt lat="43.029651" lon="-1.817037">
        <ele>1025.4</ele>
        <time>2026-03-01T10:45:57Z</time>
      </trkpt>
      <trkpt lat="43.029655" lon="-1.817043">
        <ele>1025.2</ele>
        <time>2026-03-01T10:45:59Z</time>
      </trkpt>
      <trkpt lat="43.029660" lon="-1.817048">
        <ele>1025.0</ele>
        <time>2026-03-01T10:46:03Z</time>
      </trkpt>
      <trkpt lat="43.029666" lon="-1.817050">
        <ele>1024.8</ele>
        <time>2026-03-01T10:46:04Z</time>
      </trkpt>
      <trkpt lat="43.029671" lon="-1.817048">
        <ele>1024.4</ele>
        <time>2026-03-01T10:46:08Z</time>
      </trkpt>
      <trkpt lat="43.029675" lon="-1.817048">
        <ele>1024.2</ele>
        <time>2026-03-01T10:46:09Z</time>
      </trkpt>
      <trkpt lat="43.029678" lon="-1.817050">
        <ele>1023.4</ele>
        <time>2026-03-01T10:46:13Z</time>
      </trkpt>
      <trkpt lat="43.029681" lon="-1.817059">
        <ele>1023.4</ele>
        <time>2026-03-01T10:46:17Z</time>
      </trkpt>
      <trkpt lat="43.029682" lon="-1.817060">
        <ele>1023.2</ele>
        <time>2026-03-01T10:46:19Z</time>
      </trkpt>
      <trkpt lat="43.029687" lon="-1.817068">
        <ele>1023.2</ele>
        <time>2026-03-01T10:46:22Z</time>
      </trkpt>
      <trkpt lat="43.029686" lon="-1.817071">
        <ele>1023.4</ele>
        <time>2026-03-01T10:46:28Z</time>
      </trkpt>
      <trkpt lat="43.029688" lon="-1.817072">
        <ele>1023.4</ele>
        <time>2026-03-01T10:46:31Z</time>
      </trkpt>
      <trkpt lat="43.029689" lon="-1.817073">
        <ele>1023.2</ele>
        <time>2026-03-01T10:46:32Z</time>
      </trkpt>
      <trkpt lat="43.029689" lon="-1.817069">
        <ele>1023.0</ele>
        <time>2026-03-01T10:46:35Z</time>
      </trkpt>
      <trkpt lat="43.029688" lon="-1.817060">
        <ele>1023.2</ele>
        <time>2026-03-01T10:46:41Z</time>
      </trkpt>
      <trkpt lat="43.029685" lon="-1.817064">
        <ele>1023.0</ele>
        <time>2026-03-01T10:46:47Z</time>
      </trkpt>
      <trkpt lat="43.029673" lon="-1.817060">
        <ele>1023.2</ele>
        <time>2026-03-01T10:46:55Z</time>
      </trkpt>
      <trkpt lat="43.029707" lon="-1.817073">
        <ele>1023.0</ele>
        <time>2026-03-01T10:47:01Z</time>
      </trkpt>
      <trkpt lat="43.029716" lon="-1.817082">
        <ele>1020.4</ele>
        <time>2026-03-01T10:47:02Z</time>
      </trkpt>
      <trkpt lat="43.029740" lon="-1.817124">
        <ele>1020.4</ele>
        <time>2026-03-01T10:47:06Z</time>
      </trkpt>
      <trkpt lat="43.029734" lon="-1.817148">
        <ele>1020.2</ele>
        <time>2026-03-01T10:47:08Z</time>
      </trkpt>
      <trkpt lat="43.029731" lon="-1.817165">
        <ele>1020.2</ele>
        <time>2026-03-01T10:47:09Z</time>
      </trkpt>
      <trkpt lat="43.029723" lon="-1.817200">
        <ele>1019.4</ele>
        <time>2026-03-01T10:47:11Z</time>
      </trkpt>
      <trkpt lat="43.029714" lon="-1.817216">
        <ele>1019.0</ele>
        <time>2026-03-01T10:47:12Z</time>
      </trkpt>
      <trkpt lat="43.029689" lon="-1.817244">
        <ele>1018.0</ele>
        <time>2026-03-01T10:47:14Z</time>
      </trkpt>
      <trkpt lat="43.029684" lon="-1.817257">
        <ele>1017.4</ele>
        <time>2026-03-01T10:47:15Z</time>
      </trkpt>
      <trkpt lat="43.029683" lon="-1.817276">
        <ele>1017.0</ele>
        <time>2026-03-01T10:47:16Z</time>
      </trkpt>
      <trkpt lat="43.029687" lon="-1.817290">
        <ele>1016.6</ele>
        <time>2026-03-01T10:47:17Z</time>
      </trkpt>
      <trkpt lat="43.029686" lon="-1.817313">
        <ele>1015.8</ele>
        <time>2026-03-01T10:47:19Z</time>
      </trkpt>
      <trkpt lat="43.029684" lon="-1.817326">
        <ele>1015.4</ele>
        <time>2026-03-01T10:47:20Z</time>
      </trkpt>
      <trkpt lat="43.029688" lon="-1.817331">
        <ele>1015.2</ele>
        <time>2026-03-01T10:47:21Z</time>
      </trkpt>
      <trkpt lat="43.029696" lon="-1.817343">
        <ele>1014.8</ele>
        <time>2026-03-01T10:47:23Z</time>
      </trkpt>
      <trkpt lat="43.029711" lon="-1.817344">
        <ele>1014.0</ele>
        <time>2026-03-01T10:47:26Z</time>
      </trkpt>
      <trkpt lat="43.029707" lon="-1.817350">
        <ele>1013.8</ele>
        <time>2026-03-01T10:47:27Z</time>
      </trkpt>
      <trkpt lat="43.029671" lon="-1.817428">
        <ele>1013.0</ele>
        <time>2026-03-01T10:47:33Z</time>
      </trkpt>
      <trkpt lat="43.029669" lon="-1.817437">
        <ele>1012.8</ele>
        <time>2026-03-01T10:47:34Z</time>
      </trkpt>
      <trkpt lat="43.029664" lon="-1.817448">
        <ele>1012.8</ele>
        <time>2026-03-01T10:47:35Z</time>
      </trkpt>
      <trkpt lat="43.029666" lon="-1.817475">
        <ele>1012.4</ele>
        <time>2026-03-01T10:47:37Z</time>
      </trkpt>
      <trkpt lat="43.029669" lon="-1.817489">
        <ele>1012.0</ele>
        <time>2026-03-01T10:47:38Z</time>
      </trkpt>
      <trkpt lat="43.029672" lon="-1.817508">
        <ele>1011.6</ele>
        <time>2026-03-01T10:47:39Z</time>
      </trkpt>
      <trkpt lat="43.029700" lon="-1.817529">
        <ele>1010.8</ele>
        <time>2026-03-01T10:47:43Z</time>
      </trkpt>
      <trkpt lat="43.029718" lon="-1.817513">
        <ele>1010.6</ele>
        <time>2026-03-01T10:47:45Z</time>
      </trkpt>
      <trkpt lat="43.029732" lon="-1.817501">
        <ele>1010.6</ele>
        <time>2026-03-01T10:47:46Z</time>
      </trkpt>
      <trkpt lat="43.029782" lon="-1.817475">
        <ele>1010.6</ele>
        <time>2026-03-01T10:47:50Z</time>
      </trkpt>
      <trkpt lat="43.029818" lon="-1.817450">
        <ele>1010.6</ele>
        <time>2026-03-01T10:47:52Z</time>
      </trkpt>
      <trkpt lat="43.029879" lon="-1.817401">
        <ele>1009.6</ele>
        <time>2026-03-01T10:47:55Z</time>
      </trkpt>
      <trkpt lat="43.029928" lon="-1.817367">
        <ele>1008.6</ele>
        <time>2026-03-01T10:47:58Z</time>
      </trkpt>
      <trkpt lat="43.029948" lon="-1.817357">
        <ele>1008.2</ele>
        <time>2026-03-01T10:47:59Z</time>
      </trkpt>
      <trkpt lat="43.029965" lon="-1.817344">
        <ele>1007.8</ele>
        <time>2026-03-01T10:48:00Z</time>
      </trkpt>
      <trkpt lat="43.030015" lon="-1.817306">
        <ele>1007.0</ele>
        <time>2026-03-01T10:48:02Z</time>
      </trkpt>
      <trkpt lat="43.030087" lon="-1.817247">
        <ele>1005.6</ele>
        <time>2026-03-01T10:48:04Z</time>
      </trkpt>
      <trkpt lat="43.030143" lon="-1.817195">
        <ele>1004.2</ele>
        <time>2026-03-01T10:48:06Z</time>
      </trkpt>
      <trkpt lat="43.030174" lon="-1.817168">
        <ele>1003.0</ele>
        <time>2026-03-01T10:48:07Z</time>
      </trkpt>
      <trkpt lat="43.030253" lon="-1.817086">
        <ele>1001.6</ele>
        <time>2026-03-01T10:48:10Z</time>
      </trkpt>
      <trkpt lat="43.030299" lon="-1.817046">
        <ele>999.8</ele>
        <time>2026-03-01T10:48:11Z</time>
      </trkpt>
      <trkpt lat="43.030340" lon="-1.817007">
        <ele>998.6</ele>
        <time>2026-03-01T10:48:12Z</time>
      </trkpt>
      <trkpt lat="43.030377" lon="-1.816979">
        <ele>997.6</ele>
        <time>2026-03-01T10:48:13Z</time>
      </trkpt>
      <trkpt lat="43.030434" lon="-1.816928">
        <ele>996.0</ele>
        <time>2026-03-01T10:48:15Z</time>
      </trkpt>
      <trkpt lat="43.030454" lon="-1.816909">
        <ele>995.4</ele>
        <time>2026-03-01T10:48:16Z</time>
      </trkpt>
      <trkpt lat="43.030471" lon="-1.816895">
        <ele>994.8</ele>
        <time>2026-03-01T10:48:17Z</time>
      </trkpt>
      <trkpt lat="43.030513" lon="-1.816883">
        <ele>993.2</ele>
        <time>2026-03-01T10:48:19Z</time>
      </trkpt>
      <trkpt lat="43.030495" lon="-1.816868">
        <ele>992.8</ele>
        <time>2026-03-01T10:48:20Z</time>
      </trkpt>
      <trkpt lat="43.030525" lon="-1.816824">
        <ele>992.0</ele>
        <time>2026-03-01T10:48:23Z</time>
      </trkpt>
      <trkpt lat="43.030540" lon="-1.816799">
        <ele>991.0</ele>
        <time>2026-03-01T10:48:24Z</time>
      </trkpt>
      <trkpt lat="43.030551" lon="-1.816793">
        <ele>990.4</ele>
        <time>2026-03-01T10:48:25Z</time>
      </trkpt>
      <trkpt lat="43.030587" lon="-1.816755">
        <ele>989.2</ele>
        <time>2026-03-01T10:48:28Z</time>
      </trkpt>
      <trkpt lat="43.030626" lon="-1.816691">
        <ele>987.6</ele>
        <time>2026-03-01T10:48:30Z</time>
      </trkpt>
      <trkpt lat="43.030645" lon="-1.816663">
        <ele>986.4</ele>
        <time>2026-03-01T10:48:31Z</time>
      </trkpt>
      <trkpt lat="43.030674" lon="-1.816621">
        <ele>985.4</ele>
        <time>2026-03-01T10:48:32Z</time>
      </trkpt>
      <trkpt lat="43.030720" lon="-1.816518">
        <ele>984.0</ele>
        <time>2026-03-01T10:48:34Z</time>
      </trkpt>
      <trkpt lat="43.030749" lon="-1.816465">
        <ele>983.4</ele>
        <time>2026-03-01T10:48:35Z</time>
      </trkpt>
      <trkpt lat="43.030775" lon="-1.816427">
        <ele>982.6</ele>
        <time>2026-03-01T10:48:36Z</time>
      </trkpt>
      <trkpt lat="43.030813" lon="-1.816381">
        <ele>981.0</ele>
        <time>2026-03-01T10:48:37Z</time>
      </trkpt>
      <trkpt lat="43.030879" lon="-1.816283">
        <ele>979.4</ele>
        <time>2026-03-01T10:48:39Z</time>
      </trkpt>
      <trkpt lat="43.030909" lon="-1.816242">
        <ele>978.6</ele>
        <time>2026-03-01T10:48:40Z</time>
      </trkpt>
      <trkpt lat="43.030943" lon="-1.816215">
        <ele>977.8</ele>
        <time>2026-03-01T10:48:41Z</time>
      </trkpt>
      <trkpt lat="43.030985" lon="-1.816179">
        <ele>977.4</ele>
        <time>2026-03-01T10:48:42Z</time>
      </trkpt>
      <trkpt lat="43.031014" lon="-1.816138">
        <ele>976.2</ele>
        <time>2026-03-01T10:48:43Z</time>
      </trkpt>
      <trkpt lat="43.031036" lon="-1.816095">
        <ele>975.4</ele>
        <time>2026-03-01T10:48:44Z</time>
      </trkpt>
      <trkpt lat="43.031057" lon="-1.816058">
        <ele>974.8</ele>
        <time>2026-03-01T10:48:45Z</time>
      </trkpt>
      <trkpt lat="43.031117" lon="-1.816003">
        <ele>973.0</ele>
        <time>2026-03-01T10:48:47Z</time>
      </trkpt>
      <trkpt lat="43.031140" lon="-1.816001">
        <ele>971.6</ele>
        <time>2026-03-01T10:48:48Z</time>
      </trkpt>
      <trkpt lat="43.031178" lon="-1.816010">
        <ele>970.0</ele>
        <time>2026-03-01T10:48:50Z</time>
      </trkpt>
      <trkpt lat="43.031189" lon="-1.816022">
        <ele>969.4</ele>
        <time>2026-03-01T10:48:51Z</time>
      </trkpt>
      <trkpt lat="43.031202" lon="-1.816033">
        <ele>968.4</ele>
        <time>2026-03-01T10:48:52Z</time>
      </trkpt>
      <trkpt lat="43.031217" lon="-1.816039">
        <ele>967.6</ele>
        <time>2026-03-01T10:48:53Z</time>
      </trkpt>
      <trkpt lat="43.031240" lon="-1.816073">
        <ele>966.8</ele>
        <time>2026-03-01T10:48:55Z</time>
      </trkpt>
      <trkpt lat="43.031250" lon="-1.816105">
        <ele>965.4</ele>
        <time>2026-03-01T10:48:57Z</time>
      </trkpt>
      <trkpt lat="43.031263" lon="-1.816126">
        <ele>964.2</ele>
        <time>2026-03-01T10:49:00Z</time>
      </trkpt>
      <trkpt lat="43.031293" lon="-1.816137">
        <ele>964.0</ele>
        <time>2026-03-01T10:49:01Z</time>
      </trkpt>
      <trkpt lat="43.031300" lon="-1.816155">
        <ele>964.0</ele>
        <time>2026-03-01T10:49:02Z</time>
      </trkpt>
      <trkpt lat="43.031324" lon="-1.816190">
        <ele>963.0</ele>
        <time>2026-03-01T10:49:04Z</time>
      </trkpt>
      <trkpt lat="43.031347" lon="-1.816254">
        <ele>961.4</ele>
        <time>2026-03-01T10:49:06Z</time>
      </trkpt>
      <trkpt lat="43.031371" lon="-1.816282">
        <ele>960.6</ele>
        <time>2026-03-01T10:49:08Z</time>
      </trkpt>
      <trkpt lat="43.031382" lon="-1.816275">
        <ele>960.0</ele>
        <time>2026-03-01T10:49:09Z</time>
      </trkpt>
      <trkpt lat="43.031411" lon="-1.816245">
        <ele>958.2</ele>
        <time>2026-03-01T10:49:11Z</time>
      </trkpt>
      <trkpt lat="43.031438" lon="-1.816216">
        <ele>957.4</ele>
        <time>2026-03-01T10:49:12Z</time>
      </trkpt>
      <trkpt lat="43.031451" lon="-1.816189">
        <ele>956.4</ele>
        <time>2026-03-01T10:49:13Z</time>
      </trkpt>
      <trkpt lat="43.031477" lon="-1.816149">
        <ele>955.4</ele>
        <time>2026-03-01T10:49:16Z</time>
      </trkpt>
      <trkpt lat="43.031493" lon="-1.816147">
        <ele>955.0</ele>
        <time>2026-03-01T10:49:17Z</time>
      </trkpt>
      <trkpt lat="43.031537" lon="-1.816152">
        <ele>953.6</ele>
        <time>2026-03-01T10:49:19Z</time>
      </trkpt>
      <trkpt lat="43.031578" lon="-1.816199">
        <ele>952.6</ele>
        <time>2026-03-01T10:49:21Z</time>
      </trkpt>
      <trkpt lat="43.031602" lon="-1.816242">
        <ele>951.0</ele>
        <time>2026-03-01T10:49:23Z</time>
      </trkpt>
      <trkpt lat="43.031614" lon="-1.816243">
        <ele>949.6</ele>
        <time>2026-03-01T10:49:25Z</time>
      </trkpt>
      <trkpt lat="43.031627" lon="-1.816240">
        <ele>948.8</ele>
        <time>2026-03-01T10:49:27Z</time>
      </trkpt>
      <trkpt lat="43.031641" lon="-1.816229">
        <ele>948.4</ele>
        <time>2026-03-01T10:49:28Z</time>
      </trkpt>
      <trkpt lat="43.031674" lon="-1.816188">
        <ele>947.2</ele>
        <time>2026-03-01T10:49:30Z</time>
      </trkpt>
      <trkpt lat="43.031685" lon="-1.816140">
        <ele>945.8</ele>
        <time>2026-03-01T10:49:32Z</time>
      </trkpt>
      <trkpt lat="43.031700" lon="-1.816131">
        <ele>945.6</ele>
        <time>2026-03-01T10:49:33Z</time>
      </trkpt>
      <trkpt lat="43.031715" lon="-1.816141">
        <ele>945.0</ele>
        <time>2026-03-01T10:49:34Z</time>
      </trkpt>
      <trkpt lat="43.031725" lon="-1.816156">
        <ele>944.2</ele>
        <time>2026-03-01T10:49:35Z</time>
      </trkpt>
      <trkpt lat="43.031763" lon="-1.816218">
        <ele>944.8</ele>
        <time>2026-03-01T10:49:37Z</time>
      </trkpt>
      <trkpt lat="43.031798" lon="-1.816250">
        <ele>944.8</ele>
        <time>2026-03-01T10:49:38Z</time>
      </trkpt>
      <trkpt lat="43.031878" lon="-1.816352">
        <ele>944.4</ele>
        <time>2026-03-01T10:49:42Z</time>
      </trkpt>
      <trkpt lat="43.031896" lon="-1.816384">
        <ele>943.0</ele>
        <time>2026-03-01T10:49:44Z</time>
      </trkpt>
      <trkpt lat="43.031924" lon="-1.816398">
        <ele>942.6</ele>
        <time>2026-03-01T10:49:45Z</time>
      </trkpt>
      <trkpt lat="43.031946" lon="-1.816391">
        <ele>941.8</ele>
        <time>2026-03-01T10:49:46Z</time>
      </trkpt>
      <trkpt lat="43.031962" lon="-1.816383">
        <ele>941.2</ele>
        <time>2026-03-01T10:49:47Z</time>
      </trkpt>
      <trkpt lat="43.031998" lon="-1.816388">
        <ele>940.2</ele>
        <time>2026-03-01T10:49:49Z</time>
      </trkpt>
      <trkpt lat="43.032015" lon="-1.816399">
        <ele>939.4</ele>
        <time>2026-03-01T10:49:50Z</time>
      </trkpt>
      <trkpt lat="43.032038" lon="-1.816409">
        <ele>939.0</ele>
        <time>2026-03-01T10:49:51Z</time>
      </trkpt>
      <trkpt lat="43.032105" lon="-1.816468">
        <ele>937.4</ele>
        <time>2026-03-01T10:49:54Z</time>
      </trkpt>
      <trkpt lat="43.032119" lon="-1.816488">
        <ele>936.8</ele>
        <time>2026-03-01T10:49:55Z</time>
      </trkpt>
      <trkpt lat="43.032132" lon="-1.816497">
        <ele>936.2</ele>
        <time>2026-03-01T10:49:56Z</time>
      </trkpt>
      <trkpt lat="43.032144" lon="-1.816493">
        <ele>935.8</ele>
        <time>2026-03-01T10:49:57Z</time>
      </trkpt>
      <trkpt lat="43.032156" lon="-1.816450">
        <ele>934.6</ele>
        <time>2026-03-01T10:49:59Z</time>
      </trkpt>
      <trkpt lat="43.032154" lon="-1.816422">
        <ele>933.2</ele>
        <time>2026-03-01T10:50:00Z</time>
      </trkpt>
      <trkpt lat="43.032160" lon="-1.816396">
        <ele>932.6</ele>
        <time>2026-03-01T10:50:01Z</time>
      </trkpt>
      <trkpt lat="43.032167" lon="-1.816376">
        <ele>932.2</ele>
        <time>2026-03-01T10:50:02Z</time>
      </trkpt>
      <trkpt lat="43.032184" lon="-1.816303">
        <ele>931.0</ele>
        <time>2026-03-01T10:50:04Z</time>
      </trkpt>
      <trkpt lat="43.032185" lon="-1.816274">
        <ele>930.4</ele>
        <time>2026-03-01T10:50:05Z</time>
      </trkpt>
      <trkpt lat="43.032193" lon="-1.816241">
        <ele>929.8</ele>
        <time>2026-03-01T10:50:06Z</time>
      </trkpt>
      <trkpt lat="43.032225" lon="-1.816121">
        <ele>928.6</ele>
        <time>2026-03-01T10:50:09Z</time>
      </trkpt>
      <trkpt lat="43.032239" lon="-1.816075">
        <ele>927.4</ele>
        <time>2026-03-01T10:50:11Z</time>
      </trkpt>
      <trkpt lat="43.032233" lon="-1.816058">
        <ele>926.0</ele>
        <time>2026-03-01T10:50:13Z</time>
      </trkpt>
      <trkpt lat="43.032233" lon="-1.816035">
        <ele>925.6</ele>
        <time>2026-03-01T10:50:14Z</time>
      </trkpt>
      <trkpt lat="43.032240" lon="-1.815956">
        <ele>924.6</ele>
        <time>2026-03-01T10:50:16Z</time>
      </trkpt>
      <trkpt lat="43.032244" lon="-1.815918">
        <ele>923.8</ele>
        <time>2026-03-01T10:50:17Z</time>
      </trkpt>
      <trkpt lat="43.032250" lon="-1.815877">
        <ele>922.8</ele>
        <time>2026-03-01T10:50:18Z</time>
      </trkpt>
      <trkpt lat="43.032247" lon="-1.815783">
        <ele>921.8</ele>
        <time>2026-03-01T10:50:21Z</time>
      </trkpt>
      <trkpt lat="43.032252" lon="-1.815765">
        <ele>921.2</ele>
        <time>2026-03-01T10:50:22Z</time>
      </trkpt>
      <trkpt lat="43.032262" lon="-1.815729">
        <ele>920.6</ele>
        <time>2026-03-01T10:50:23Z</time>
      </trkpt>
      <trkpt lat="43.032260" lon="-1.815708">
        <ele>920.4</ele>
        <time>2026-03-01T10:50:24Z</time>
      </trkpt>
      <trkpt lat="43.032253" lon="-1.815649">
        <ele>919.2</ele>
        <time>2026-03-01T10:50:26Z</time>
      </trkpt>
      <trkpt lat="43.032249" lon="-1.815611">
        <ele>918.8</ele>
        <time>2026-03-01T10:50:27Z</time>
      </trkpt>
      <trkpt lat="43.032225" lon="-1.815506">
        <ele>917.8</ele>
        <time>2026-03-01T10:50:30Z</time>
      </trkpt>
      <trkpt lat="43.032213" lon="-1.815464">
        <ele>917.6</ele>
        <time>2026-03-01T10:50:31Z</time>
      </trkpt>
      <trkpt lat="43.032197" lon="-1.815435">
        <ele>917.4</ele>
        <time>2026-03-01T10:50:32Z</time>
      </trkpt>
      <trkpt lat="43.032158" lon="-1.815345">
        <ele>916.6</ele>
        <time>2026-03-01T10:50:35Z</time>
      </trkpt>
      <trkpt lat="43.032133" lon="-1.815303">
        <ele>915.8</ele>
        <time>2026-03-01T10:50:37Z</time>
      </trkpt>
      <trkpt lat="43.032121" lon="-1.815283">
        <ele>915.4</ele>
        <time>2026-03-01T10:50:38Z</time>
      </trkpt>
      <trkpt lat="43.032111" lon="-1.815236">
        <ele>914.4</ele>
        <time>2026-03-01T10:50:40Z</time>
      </trkpt>
      <trkpt lat="43.032112" lon="-1.815216">
        <ele>913.2</ele>
        <time>2026-03-01T10:50:42Z</time>
      </trkpt>
      <trkpt lat="43.032111" lon="-1.815204">
        <ele>912.2</ele>
        <time>2026-03-01T10:50:44Z</time>
      </trkpt>
      <trkpt lat="43.032114" lon="-1.815086">
        <ele>911.2</ele>
        <time>2026-03-01T10:50:51Z</time>
      </trkpt>
      <trkpt lat="43.032115" lon="-1.815073">
        <ele>911.2</ele>
        <time>2026-03-01T10:50:54Z</time>
      </trkpt>
      <trkpt lat="43.032125" lon="-1.815077">
        <ele>911.0</ele>
        <time>2026-03-01T10:50:55Z</time>
      </trkpt>
      <trkpt lat="43.032135" lon="-1.815080">
        <ele>910.8</ele>
        <time>2026-03-01T10:50:56Z</time>
      </trkpt>
      <trkpt lat="43.032144" lon="-1.815085">
        <ele>910.4</ele>
        <time>2026-03-01T10:50:57Z</time>
      </trkpt>
      <trkpt lat="43.032201" lon="-1.815110">
        <ele>909.6</ele>
        <time>2026-03-01T10:51:00Z</time>
      </trkpt>
      <trkpt lat="43.032230" lon="-1.815127">
        <ele>909.0</ele>
        <time>2026-03-01T10:51:01Z</time>
      </trkpt>
      <trkpt lat="43.032251" lon="-1.815154">
        <ele>908.4</ele>
        <time>2026-03-01T10:51:02Z</time>
      </trkpt>
      <trkpt lat="43.032270" lon="-1.815182">
        <ele>907.8</ele>
        <time>2026-03-01T10:51:03Z</time>
      </trkpt>
      <trkpt lat="43.032295" lon="-1.815206">
        <ele>907.4</ele>
        <time>2026-03-01T10:51:04Z</time>
      </trkpt>
      <trkpt lat="43.032344" lon="-1.815258">
        <ele>906.6</ele>
        <time>2026-03-01T10:51:07Z</time>
      </trkpt>
      <trkpt lat="43.032368" lon="-1.815299">
        <ele>906.4</ele>
        <time>2026-03-01T10:51:10Z</time>
      </trkpt>
      <trkpt lat="43.032381" lon="-1.815288">
        <ele>906.2</ele>
        <time>2026-03-01T10:51:11Z</time>
      </trkpt>
      <trkpt lat="43.032387" lon="-1.815269">
        <ele>905.8</ele>
        <time>2026-03-01T10:51:12Z</time>
      </trkpt>
      <trkpt lat="43.032381" lon="-1.815230">
        <ele>904.2</ele>
        <time>2026-03-01T10:51:14Z</time>
      </trkpt>
      <trkpt lat="43.032398" lon="-1.815190">
        <ele>903.2</ele>
        <time>2026-03-01T10:51:15Z</time>
      </trkpt>
      <trkpt lat="43.032392" lon="-1.815153">
        <ele>902.2</ele>
        <time>2026-03-01T10:51:16Z</time>
      </trkpt>
      <trkpt lat="43.032383" lon="-1.815123">
        <ele>900.8</ele>
        <time>2026-03-01T10:51:17Z</time>
      </trkpt>
      <trkpt lat="43.032369" lon="-1.815070">
        <ele>899.6</ele>
        <time>2026-03-01T10:51:19Z</time>
      </trkpt>
      <trkpt lat="43.032358" lon="-1.815018">
        <ele>898.4</ele>
        <time>2026-03-01T10:51:21Z</time>
      </trkpt>
      <trkpt lat="43.032371" lon="-1.814978">
        <ele>897.2</ele>
        <time>2026-03-01T10:51:23Z</time>
      </trkpt>
      <trkpt lat="43.032383" lon="-1.814965">
        <ele>896.8</ele>
        <time>2026-03-01T10:51:24Z</time>
      </trkpt>
      <trkpt lat="43.032395" lon="-1.814970">
        <ele>896.0</ele>
        <time>2026-03-01T10:51:25Z</time>
      </trkpt>
      <trkpt lat="43.032446" lon="-1.814996">
        <ele>895.0</ele>
        <time>2026-03-01T10:51:28Z</time>
      </trkpt>
      <trkpt lat="43.032483" lon="-1.815016">
        <ele>894.2</ele>
        <time>2026-03-01T10:51:30Z</time>
      </trkpt>
      <trkpt lat="43.032505" lon="-1.815026">
        <ele>893.8</ele>
        <time>2026-03-01T10:51:31Z</time>
      </trkpt>
      <trkpt lat="43.032544" lon="-1.815048">
        <ele>893.2</ele>
        <time>2026-03-01T10:51:33Z</time>
      </trkpt>
      <trkpt lat="43.032564" lon="-1.815049">
        <ele>892.8</ele>
        <time>2026-03-01T10:51:34Z</time>
      </trkpt>
      <trkpt lat="43.032594" lon="-1.815044">
        <ele>892.4</ele>
        <time>2026-03-01T10:51:35Z</time>
      </trkpt>
      <trkpt lat="43.032644" lon="-1.815030">
        <ele>890.4</ele>
        <time>2026-03-01T10:51:37Z</time>
      </trkpt>
      <trkpt lat="43.032678" lon="-1.815043">
        <ele>889.2</ele>
        <time>2026-03-01T10:51:38Z</time>
      </trkpt>
      <trkpt lat="43.032711" lon="-1.815063">
        <ele>888.6</ele>
        <time>2026-03-01T10:51:39Z</time>
      </trkpt>
      <trkpt lat="43.032735" lon="-1.815077">
        <ele>886.2</ele>
        <time>2026-03-01T10:51:40Z</time>
      </trkpt>
      <trkpt lat="43.032760" lon="-1.815091">
        <ele>885.0</ele>
        <time>2026-03-01T10:51:41Z</time>
      </trkpt>
      <trkpt lat="43.032792" lon="-1.815147">
        <ele>883.4</ele>
        <time>2026-03-01T10:51:43Z</time>
      </trkpt>
      <trkpt lat="43.032807" lon="-1.815176">
        <ele>882.8</ele>
        <time>2026-03-01T10:51:44Z</time>
      </trkpt>
      <trkpt lat="43.032815" lon="-1.815218">
        <ele>882.4</ele>
        <time>2026-03-01T10:51:45Z</time>
      </trkpt>
      <trkpt lat="43.032850" lon="-1.815264">
        <ele>881.4</ele>
        <time>2026-03-01T10:51:46Z</time>
      </trkpt>
      <trkpt lat="43.032853" lon="-1.815301">
        <ele>881.0</ele>
        <time>2026-03-01T10:51:47Z</time>
      </trkpt>
      <trkpt lat="43.032848" lon="-1.815334">
        <ele>880.6</ele>
        <time>2026-03-01T10:51:48Z</time>
      </trkpt>
      <trkpt lat="43.032844" lon="-1.815359">
        <ele>880.4</ele>
        <time>2026-03-01T10:51:49Z</time>
      </trkpt>
      <trkpt lat="43.032886" lon="-1.815416">
        <ele>879.8</ele>
        <time>2026-03-01T10:51:52Z</time>
      </trkpt>
      <trkpt lat="43.032903" lon="-1.815415">
        <ele>879.4</ele>
        <time>2026-03-01T10:51:53Z</time>
      </trkpt>
      <trkpt lat="43.032920" lon="-1.815401">
        <ele>878.4</ele>
        <time>2026-03-01T10:51:54Z</time>
      </trkpt>
      <trkpt lat="43.032933" lon="-1.815381">
        <ele>877.2</ele>
        <time>2026-03-01T10:51:55Z</time>
      </trkpt>
      <trkpt lat="43.032960" lon="-1.815353">
        <ele>875.8</ele>
        <time>2026-03-01T10:51:57Z</time>
      </trkpt>
      <trkpt lat="43.032996" lon="-1.815378">
        <ele>873.8</ele>
        <time>2026-03-01T10:51:59Z</time>
      </trkpt>
      <trkpt lat="43.033009" lon="-1.815396">
        <ele>873.0</ele>
        <time>2026-03-01T10:52:00Z</time>
      </trkpt>
      <trkpt lat="43.033021" lon="-1.815411">
        <ele>872.6</ele>
        <time>2026-03-01T10:52:01Z</time>
      </trkpt>
      <trkpt lat="43.033029" lon="-1.815426">
        <ele>872.2</ele>
        <time>2026-03-01T10:52:02Z</time>
      </trkpt>
      <trkpt lat="43.033049" lon="-1.815439">
        <ele>872.0</ele>
        <time>2026-03-01T10:52:03Z</time>
      </trkpt>
      <trkpt lat="43.033069" lon="-1.815439">
        <ele>871.8</ele>
        <time>2026-03-01T10:52:04Z</time>
      </trkpt>
      <trkpt lat="43.033081" lon="-1.815427">
        <ele>871.2</ele>
        <time>2026-03-01T10:52:05Z</time>
      </trkpt>
      <trkpt lat="43.033101" lon="-1.815403">
        <ele>870.4</ele>
        <time>2026-03-01T10:52:06Z</time>
      </trkpt>
      <trkpt lat="43.033128" lon="-1.815370">
        <ele>870.0</ele>
        <time>2026-03-01T10:52:07Z</time>
      </trkpt>
      <trkpt lat="43.033154" lon="-1.815329">
        <ele>868.8</ele>
        <time>2026-03-01T10:52:08Z</time>
      </trkpt>
      <trkpt lat="43.033207" lon="-1.815216">
        <ele>867.2</ele>
        <time>2026-03-01T10:52:10Z</time>
      </trkpt>
      <trkpt lat="43.033230" lon="-1.815160">
        <ele>866.6</ele>
        <time>2026-03-01T10:52:11Z</time>
      </trkpt>
      <trkpt lat="43.033243" lon="-1.815131">
        <ele>865.8</ele>
        <time>2026-03-01T10:52:12Z</time>
      </trkpt>
      <trkpt lat="43.033259" lon="-1.815119">
        <ele>865.2</ele>
        <time>2026-03-01T10:52:13Z</time>
      </trkpt>
      <trkpt lat="43.033302" lon="-1.815071">
        <ele>864.6</ele>
        <time>2026-03-01T10:52:15Z</time>
      </trkpt>
      <trkpt lat="43.033343" lon="-1.815009">
        <ele>863.4</ele>
        <time>2026-03-01T10:52:17Z</time>
      </trkpt>
      <trkpt lat="43.033373" lon="-1.814985">
        <ele>862.8</ele>
        <time>2026-03-01T10:52:18Z</time>
      </trkpt>
      <trkpt lat="43.033404" lon="-1.814957">
        <ele>862.2</ele>
        <time>2026-03-01T10:52:19Z</time>
      </trkpt>
      <trkpt lat="43.033435" lon="-1.814916">
        <ele>861.2</ele>
        <time>2026-03-01T10:52:20Z</time>
      </trkpt>
      <trkpt lat="43.033471" lon="-1.814854">
        <ele>860.4</ele>
        <time>2026-03-01T10:52:21Z</time>
      </trkpt>
      <trkpt lat="43.033479" lon="-1.814798">
        <ele>858.8</ele>
        <time>2026-03-01T10:52:22Z</time>
      </trkpt>
      <trkpt lat="43.033492" lon="-1.814750">
        <ele>857.4</ele>
        <time>2026-03-01T10:52:23Z</time>
      </trkpt>
      <trkpt lat="43.033527" lon="-1.814660">
        <ele>856.2</ele>
        <time>2026-03-01T10:52:25Z</time>
      </trkpt>
      <trkpt lat="43.033586" lon="-1.814556">
        <ele>855.2</ele>
        <time>2026-03-01T10:52:28Z</time>
      </trkpt>
      <trkpt lat="43.033602" lon="-1.814532">
        <ele>854.4</ele>
        <time>2026-03-01T10:52:29Z</time>
      </trkpt>
      <trkpt lat="43.033617" lon="-1.814514">
        <ele>853.8</ele>
        <time>2026-03-01T10:52:30Z</time>
      </trkpt>
      <trkpt lat="43.033629" lon="-1.814514">
        <ele>852.8</ele>
        <time>2026-03-01T10:52:31Z</time>
      </trkpt>
      <trkpt lat="43.033636" lon="-1.814533">
        <ele>852.0</ele>
        <time>2026-03-01T10:52:32Z</time>
      </trkpt>
      <trkpt lat="43.033641" lon="-1.814553">
        <ele>851.6</ele>
        <time>2026-03-01T10:52:33Z</time>
      </trkpt>
      <trkpt lat="43.033651" lon="-1.814571">
        <ele>851.2</ele>
        <time>2026-03-01T10:52:34Z</time>
      </trkpt>
      <trkpt lat="43.033678" lon="-1.814558">
        <ele>850.2</ele>
        <time>2026-03-01T10:52:36Z</time>
      </trkpt>
      <trkpt lat="43.033702" lon="-1.814520">
        <ele>849.0</ele>
        <time>2026-03-01T10:52:38Z</time>
      </trkpt>
      <trkpt lat="43.033719" lon="-1.814515">
        <ele>848.2</ele>
        <time>2026-03-01T10:52:39Z</time>
      </trkpt>
      <trkpt lat="43.033733" lon="-1.814511">
        <ele>847.4</ele>
        <time>2026-03-01T10:52:40Z</time>
      </trkpt>
      <trkpt lat="43.033740" lon="-1.814507">
        <ele>846.8</ele>
        <time>2026-03-01T10:52:41Z</time>
      </trkpt>
      <trkpt lat="43.033755" lon="-1.814503">
        <ele>846.2</ele>
        <time>2026-03-01T10:52:42Z</time>
      </trkpt>
      <trkpt lat="43.033774" lon="-1.814508">
        <ele>845.4</ele>
        <time>2026-03-01T10:52:44Z</time>
      </trkpt>
      <trkpt lat="43.033789" lon="-1.814517">
        <ele>844.8</ele>
        <time>2026-03-01T10:52:46Z</time>
      </trkpt>
      <trkpt lat="43.033807" lon="-1.814512">
        <ele>844.0</ele>
        <time>2026-03-01T10:52:48Z</time>
      </trkpt>
      <trkpt lat="43.033818" lon="-1.814504">
        <ele>843.8</ele>
        <time>2026-03-01T10:52:50Z</time>
      </trkpt>
      <trkpt lat="43.033830" lon="-1.814497">
        <ele>843.4</ele>
        <time>2026-03-01T10:52:51Z</time>
      </trkpt>
      <trkpt lat="43.033852" lon="-1.814463">
        <ele>842.6</ele>
        <time>2026-03-01T10:52:53Z</time>
      </trkpt>
      <trkpt lat="43.033868" lon="-1.814439">
        <ele>842.4</ele>
        <time>2026-03-01T10:52:54Z</time>
      </trkpt>
      <trkpt lat="43.033895" lon="-1.814385">
        <ele>841.4</ele>
        <time>2026-03-01T10:52:56Z</time>
      </trkpt>
      <trkpt lat="43.033911" lon="-1.814322">
        <ele>840.4</ele>
        <time>2026-03-01T10:52:58Z</time>
      </trkpt>
      <trkpt lat="43.033924" lon="-1.814279">
        <ele>838.6</ele>
        <time>2026-03-01T10:53:00Z</time>
      </trkpt>
      <trkpt lat="43.033971" lon="-1.814201">
        <ele>837.2</ele>
        <time>2026-03-01T10:53:02Z</time>
      </trkpt>
      <trkpt lat="43.033986" lon="-1.814164">
        <ele>836.0</ele>
        <time>2026-03-01T10:53:03Z</time>
      </trkpt>
      <trkpt lat="43.033984" lon="-1.814120">
        <ele>834.6</ele>
        <time>2026-03-01T10:53:05Z</time>
      </trkpt>
      <trkpt lat="43.033978" lon="-1.814109">
        <ele>834.4</ele>
        <time>2026-03-01T10:53:06Z</time>
      </trkpt>
      <trkpt lat="43.033974" lon="-1.814067">
        <ele>834.0</ele>
        <time>2026-03-01T10:53:09Z</time>
      </trkpt>
      <trkpt lat="43.033979" lon="-1.813997">
        <ele>833.8</ele>
        <time>2026-03-01T10:53:12Z</time>
      </trkpt>
      <trkpt lat="43.033983" lon="-1.813981">
        <ele>833.4</ele>
        <time>2026-03-01T10:53:13Z</time>
      </trkpt>
      <trkpt lat="43.033997" lon="-1.813969">
        <ele>833.2</ele>
        <time>2026-03-01T10:53:14Z</time>
      </trkpt>
      <trkpt lat="43.034021" lon="-1.813945">
        <ele>832.4</ele>
        <time>2026-03-01T10:53:15Z</time>
      </trkpt>
      <trkpt lat="43.034028" lon="-1.813910">
        <ele>831.8</ele>
        <time>2026-03-01T10:53:16Z</time>
      </trkpt>
      <trkpt lat="43.034038" lon="-1.813863">
        <ele>830.6</ele>
        <time>2026-03-01T10:53:17Z</time>
      </trkpt>
      <trkpt lat="43.034038" lon="-1.813818">
        <ele>830.0</ele>
        <time>2026-03-01T10:53:18Z</time>
      </trkpt>
      <trkpt lat="43.034030" lon="-1.813740">
        <ele>829.4</ele>
        <time>2026-03-01T10:53:20Z</time>
      </trkpt>
      <trkpt lat="43.034046" lon="-1.813692">
        <ele>828.8</ele>
        <time>2026-03-01T10:53:21Z</time>
      </trkpt>
      <trkpt lat="43.034052" lon="-1.813584">
        <ele>827.8</ele>
        <time>2026-03-01T10:53:23Z</time>
      </trkpt>
      <trkpt lat="43.034049" lon="-1.813525">
        <ele>826.2</ele>
        <time>2026-03-01T10:53:25Z</time>
      </trkpt>
      <trkpt lat="43.034046" lon="-1.813500">
        <ele>825.4</ele>
        <time>2026-03-01T10:53:26Z</time>
      </trkpt>
      <trkpt lat="43.034045" lon="-1.813482">
        <ele>825.0</ele>
        <time>2026-03-01T10:53:27Z</time>
      </trkpt>
      <trkpt lat="43.034030" lon="-1.813443">
        <ele>824.2</ele>
        <time>2026-03-01T10:53:30Z</time>
      </trkpt>
      <trkpt lat="43.034017" lon="-1.813384">
        <ele>823.8</ele>
        <time>2026-03-01T10:53:32Z</time>
      </trkpt>
      <trkpt lat="43.034002" lon="-1.813312">
        <ele>823.4</ele>
        <time>2026-03-01T10:53:34Z</time>
      </trkpt>
      <trkpt lat="43.033987" lon="-1.813209">
        <ele>823.2</ele>
        <time>2026-03-01T10:53:38Z</time>
      </trkpt>
      <trkpt lat="43.033982" lon="-1.813187">
        <ele>823.2</ele>
        <time>2026-03-01T10:53:39Z</time>
      </trkpt>
      <trkpt lat="43.033971" lon="-1.813122">
        <ele>823.0</ele>
        <time>2026-03-01T10:53:42Z</time>
      </trkpt>
      <trkpt lat="43.033974" lon="-1.813101">
        <ele>822.6</ele>
        <time>2026-03-01T10:53:43Z</time>
      </trkpt>
      <trkpt lat="43.033999" lon="-1.813073">
        <ele>821.2</ele>
        <time>2026-03-01T10:53:46Z</time>
      </trkpt>
      <trkpt lat="43.034013" lon="-1.813077">
        <ele>820.8</ele>
        <time>2026-03-01T10:53:47Z</time>
      </trkpt>
      <trkpt lat="43.034025" lon="-1.813072">
        <ele>820.6</ele>
        <time>2026-03-01T10:53:48Z</time>
      </trkpt>
      <trkpt lat="43.034060" lon="-1.813087">
        <ele>819.8</ele>
        <time>2026-03-01T10:53:50Z</time>
      </trkpt>
      <trkpt lat="43.034068" lon="-1.813100">
        <ele>819.4</ele>
        <time>2026-03-01T10:53:51Z</time>
      </trkpt>
      <trkpt lat="43.034074" lon="-1.813116">
        <ele>819.0</ele>
        <time>2026-03-01T10:53:52Z</time>
      </trkpt>
      <trkpt lat="43.034075" lon="-1.813142">
        <ele>818.6</ele>
        <time>2026-03-01T10:53:53Z</time>
      </trkpt>
      <trkpt lat="43.034072" lon="-1.813167">
        <ele>817.4</ele>
        <time>2026-03-01T10:53:54Z</time>
      </trkpt>
      <trkpt lat="43.034106" lon="-1.813208">
        <ele>815.8</ele>
        <time>2026-03-01T10:53:56Z</time>
      </trkpt>
      <trkpt lat="43.034117" lon="-1.813229">
        <ele>815.0</ele>
        <time>2026-03-01T10:53:57Z</time>
      </trkpt>
      <trkpt lat="43.034131" lon="-1.813256">
        <ele>814.2</ele>
        <time>2026-03-01T10:53:58Z</time>
      </trkpt>
      <trkpt lat="43.034144" lon="-1.813290">
        <ele>812.6</ele>
        <time>2026-03-01T10:54:00Z</time>
      </trkpt>
      <trkpt lat="43.034188" lon="-1.813308">
        <ele>812.2</ele>
        <time>2026-03-01T10:54:01Z</time>
      </trkpt>
      <trkpt lat="43.034220" lon="-1.813325">
        <ele>811.8</ele>
        <time>2026-03-01T10:54:02Z</time>
      </trkpt>
      <trkpt lat="43.034235" lon="-1.813333">
        <ele>811.2</ele>
        <time>2026-03-01T10:54:03Z</time>
      </trkpt>
      <trkpt lat="43.034263" lon="-1.813344">
        <ele>810.0</ele>
        <time>2026-03-01T10:54:05Z</time>
      </trkpt>
      <trkpt lat="43.034280" lon="-1.813366">
        <ele>809.6</ele>
        <time>2026-03-01T10:54:06Z</time>
      </trkpt>
      <trkpt lat="43.034338" lon="-1.813428">
        <ele>808.6</ele>
        <time>2026-03-01T10:54:08Z</time>
      </trkpt>
      <trkpt lat="43.034353" lon="-1.813474">
        <ele>807.8</ele>
        <time>2026-03-01T10:54:09Z</time>
      </trkpt>
      <trkpt lat="43.034374" lon="-1.813519">
        <ele>807.0</ele>
        <time>2026-03-01T10:54:10Z</time>
      </trkpt>
      <trkpt lat="43.034384" lon="-1.813573">
        <ele>805.6</ele>
        <time>2026-03-01T10:54:11Z</time>
      </trkpt>
      <trkpt lat="43.034398" lon="-1.813658">
        <ele>804.2</ele>
        <time>2026-03-01T10:54:13Z</time>
      </trkpt>
      <trkpt lat="43.034444" lon="-1.813690">
        <ele>803.4</ele>
        <time>2026-03-01T10:54:15Z</time>
      </trkpt>
      <trkpt lat="43.034456" lon="-1.813688">
        <ele>803.0</ele>
        <time>2026-03-01T10:54:16Z</time>
      </trkpt>
      <trkpt lat="43.034463" lon="-1.813671">
        <ele>802.4</ele>
        <time>2026-03-01T10:54:17Z</time>
      </trkpt>
      <trkpt lat="43.034475" lon="-1.813640">
        <ele>801.6</ele>
        <time>2026-03-01T10:54:18Z</time>
      </trkpt>
      <trkpt lat="43.034535" lon="-1.813569">
        <ele>800.0</ele>
        <time>2026-03-01T10:54:19Z</time>
      </trkpt>
      <trkpt lat="43.034590" lon="-1.813492">
        <ele>799.0</ele>
        <time>2026-03-01T10:54:20Z</time>
      </trkpt>
      <trkpt lat="43.034621" lon="-1.813418">
        <ele>798.6</ele>
        <time>2026-03-01T10:54:21Z</time>
      </trkpt>
      <trkpt lat="43.034685" lon="-1.813263">
        <ele>797.2</ele>
        <time>2026-03-01T10:54:23Z</time>
      </trkpt>
      <trkpt lat="43.034700" lon="-1.813174">
        <ele>796.2</ele>
        <time>2026-03-01T10:54:24Z</time>
      </trkpt>
      <trkpt lat="43.034692" lon="-1.813093">
        <ele>795.8</ele>
        <time>2026-03-01T10:54:25Z</time>
      </trkpt>
      <trkpt lat="43.034685" lon="-1.812936">
        <ele>794.6</ele>
        <time>2026-03-01T10:54:27Z</time>
      </trkpt>
      <trkpt lat="43.034686" lon="-1.812857">
        <ele>793.8</ele>
        <time>2026-03-01T10:54:28Z</time>
      </trkpt>
      <trkpt lat="43.034684" lon="-1.812779">
        <ele>792.6</ele>
        <time>2026-03-01T10:54:29Z</time>
      </trkpt>
      <trkpt lat="43.034688" lon="-1.812698">
        <ele>791.8</ele>
        <time>2026-03-01T10:54:30Z</time>
      </trkpt>
      <trkpt lat="43.034685" lon="-1.812550">
        <ele>791.2</ele>
        <time>2026-03-01T10:54:32Z</time>
      </trkpt>
      <trkpt lat="43.034662" lon="-1.812490">
        <ele>790.0</ele>
        <time>2026-03-01T10:54:33Z</time>
      </trkpt>
      <trkpt lat="43.034652" lon="-1.812455">
        <ele>788.8</ele>
        <time>2026-03-01T10:54:34Z</time>
      </trkpt>
      <trkpt lat="43.034658" lon="-1.812408">
        <ele>787.8</ele>
        <time>2026-03-01T10:54:36Z</time>
      </trkpt>
      <trkpt lat="43.034650" lon="-1.812376">
        <ele>786.6</ele>
        <time>2026-03-01T10:54:39Z</time>
      </trkpt>
      <trkpt lat="43.034642" lon="-1.812368">
        <ele>786.0</ele>
        <time>2026-03-01T10:54:40Z</time>
      </trkpt>
      <trkpt lat="43.034629" lon="-1.812313">
        <ele>785.4</ele>
        <time>2026-03-01T10:54:42Z</time>
      </trkpt>
      <trkpt lat="43.034613" lon="-1.812261">
        <ele>783.4</ele>
        <time>2026-03-01T10:54:44Z</time>
      </trkpt>
      <trkpt lat="43.034601" lon="-1.812226">
        <ele>782.4</ele>
        <time>2026-03-01T10:54:45Z</time>
      </trkpt>
      <trkpt lat="43.034591" lon="-1.812203">
        <ele>780.8</ele>
        <time>2026-03-01T10:54:46Z</time>
      </trkpt>
      <trkpt lat="43.034573" lon="-1.812166">
        <ele>780.0</ele>
        <time>2026-03-01T10:54:47Z</time>
      </trkpt>
      <trkpt lat="43.034583" lon="-1.812134">
        <ele>779.4</ele>
        <time>2026-03-01T10:54:48Z</time>
      </trkpt>
      <trkpt lat="43.034591" lon="-1.812101">
        <ele>779.2</ele>
        <time>2026-03-01T10:54:49Z</time>
      </trkpt>
      <trkpt lat="43.034613" lon="-1.812068">
        <ele>778.0</ele>
        <time>2026-03-01T10:54:50Z</time>
      </trkpt>
      <trkpt lat="43.034625" lon="-1.812034">
        <ele>777.0</ele>
        <time>2026-03-01T10:54:51Z</time>
      </trkpt>
      <trkpt lat="43.034651" lon="-1.811986">
        <ele>775.4</ele>
        <time>2026-03-01T10:54:52Z</time>
      </trkpt>
      <trkpt lat="43.034666" lon="-1.811938">
        <ele>774.4</ele>
        <time>2026-03-01T10:54:53Z</time>
      </trkpt>
      <trkpt lat="43.034673" lon="-1.811888">
        <ele>773.8</ele>
        <time>2026-03-01T10:54:54Z</time>
      </trkpt>
      <trkpt lat="43.034678" lon="-1.811790">
        <ele>772.2</ele>
        <time>2026-03-01T10:54:56Z</time>
      </trkpt>
      <trkpt lat="43.034683" lon="-1.811787">
        <ele>771.2</ele>
        <time>2026-03-01T10:54:57Z</time>
      </trkpt>
      <trkpt lat="43.034703" lon="-1.811775">
        <ele>770.2</ele>
        <time>2026-03-01T10:54:58Z</time>
      </trkpt>
      <trkpt lat="43.034723" lon="-1.811756">
        <ele>769.0</ele>
        <time>2026-03-01T10:54:59Z</time>
      </trkpt>
      <trkpt lat="43.034747" lon="-1.811750">
        <ele>767.6</ele>
        <time>2026-03-01T10:55:01Z</time>
      </trkpt>
      <trkpt lat="43.034791" lon="-1.811770">
        <ele>766.4</ele>
        <time>2026-03-01T10:55:03Z</time>
      </trkpt>
      <trkpt lat="43.034814" lon="-1.811793">
        <ele>764.4</ele>
        <time>2026-03-01T10:55:05Z</time>
      </trkpt>
      <trkpt lat="43.034817" lon="-1.811815">
        <ele>763.0</ele>
        <time>2026-03-01T10:55:06Z</time>
      </trkpt>
      <trkpt lat="43.034830" lon="-1.811864">
        <ele>761.6</ele>
        <time>2026-03-01T10:55:08Z</time>
      </trkpt>
      <trkpt lat="43.034839" lon="-1.811895">
        <ele>761.0</ele>
        <time>2026-03-01T10:55:09Z</time>
      </trkpt>
      <trkpt lat="43.034848" lon="-1.811920">
        <ele>759.6</ele>
        <time>2026-03-01T10:55:10Z</time>
      </trkpt>
      <trkpt lat="43.034859" lon="-1.811941">
        <ele>758.6</ele>
        <time>2026-03-01T10:55:11Z</time>
      </trkpt>
      <trkpt lat="43.034884" lon="-1.811972">
        <ele>757.8</ele>
        <time>2026-03-01T10:55:12Z</time>
      </trkpt>
      <trkpt lat="43.034916" lon="-1.811985">
        <ele>757.0</ele>
        <time>2026-03-01T10:55:13Z</time>
      </trkpt>
      <trkpt lat="43.034942" lon="-1.811973">
        <ele>756.2</ele>
        <time>2026-03-01T10:55:14Z</time>
      </trkpt>
      <trkpt lat="43.034981" lon="-1.811945">
        <ele>756.0</ele>
        <time>2026-03-01T10:55:15Z</time>
      </trkpt>
      <trkpt lat="43.035016" lon="-1.811914">
        <ele>754.8</ele>
        <time>2026-03-01T10:55:16Z</time>
      </trkpt>
      <trkpt lat="43.035075" lon="-1.811878">
        <ele>753.4</ele>
        <time>2026-03-01T10:55:17Z</time>
      </trkpt>
      <trkpt lat="43.035113" lon="-1.811840">
        <ele>752.4</ele>
        <time>2026-03-01T10:55:18Z</time>
      </trkpt>
      <trkpt lat="43.035144" lon="-1.811823">
        <ele>751.8</ele>
        <time>2026-03-01T10:55:19Z</time>
      </trkpt>
      <trkpt lat="43.035221" lon="-1.811860">
        <ele>750.6</ele>
        <time>2026-03-01T10:55:22Z</time>
      </trkpt>
      <trkpt lat="43.035245" lon="-1.811851">
        <ele>750.4</ele>
        <time>2026-03-01T10:55:23Z</time>
      </trkpt>
      <trkpt lat="43.035300" lon="-1.811783">
        <ele>748.4</ele>
        <time>2026-03-01T10:55:25Z</time>
      </trkpt>
      <trkpt lat="43.035327" lon="-1.811677">
        <ele>746.4</ele>
        <time>2026-03-01T10:55:27Z</time>
      </trkpt>
      <trkpt lat="43.035341" lon="-1.811568">
        <ele>745.0</ele>
        <time>2026-03-01T10:55:29Z</time>
      </trkpt>
      <trkpt lat="43.035331" lon="-1.811525">
        <ele>744.0</ele>
        <time>2026-03-01T10:55:30Z</time>
      </trkpt>
      <trkpt lat="43.035310" lon="-1.811461">
        <ele>742.8</ele>
        <time>2026-03-01T10:55:32Z</time>
      </trkpt>
      <trkpt lat="43.035315" lon="-1.811450">
        <ele>741.4</ele>
        <time>2026-03-01T10:55:33Z</time>
      </trkpt>
      <trkpt lat="43.035335" lon="-1.811431">
        <ele>740.4</ele>
        <time>2026-03-01T10:55:34Z</time>
      </trkpt>
      <trkpt lat="43.035356" lon="-1.811407">
        <ele>739.6</ele>
        <time>2026-03-01T10:55:35Z</time>
      </trkpt>
      <trkpt lat="43.035380" lon="-1.811392">
        <ele>738.4</ele>
        <time>2026-03-01T10:55:36Z</time>
      </trkpt>
      <trkpt lat="43.035411" lon="-1.811345">
        <ele>737.0</ele>
        <time>2026-03-01T10:55:38Z</time>
      </trkpt>
      <trkpt lat="43.035417" lon="-1.811311">
        <ele>736.4</ele>
        <time>2026-03-01T10:55:39Z</time>
      </trkpt>
      <trkpt lat="43.035408" lon="-1.811291">
        <ele>736.0</ele>
        <time>2026-03-01T10:55:40Z</time>
      </trkpt>
      <trkpt lat="43.035396" lon="-1.811273">
        <ele>735.0</ele>
        <time>2026-03-01T10:55:41Z</time>
      </trkpt>
      <trkpt lat="43.035381" lon="-1.811251">
        <ele>733.8</ele>
        <time>2026-03-01T10:55:42Z</time>
      </trkpt>
      <trkpt lat="43.035365" lon="-1.811235">
        <ele>733.0</ele>
        <time>2026-03-01T10:55:43Z</time>
      </trkpt>
      <trkpt lat="43.035350" lon="-1.811204">
        <ele>732.6</ele>
        <time>2026-03-01T10:55:44Z</time>
      </trkpt>
      <trkpt lat="43.035344" lon="-1.811192">
        <ele>732.2</ele>
        <time>2026-03-01T10:55:45Z</time>
      </trkpt>
      <trkpt lat="43.035343" lon="-1.811176">
        <ele>731.6</ele>
        <time>2026-03-01T10:55:46Z</time>
      </trkpt>
      <trkpt lat="43.035344" lon="-1.811155">
        <ele>731.0</ele>
        <time>2026-03-01T10:55:47Z</time>
      </trkpt>
      <trkpt lat="43.035344" lon="-1.811135">
        <ele>730.2</ele>
        <time>2026-03-01T10:55:48Z</time>
      </trkpt>
      <trkpt lat="43.035343" lon="-1.811107">
        <ele>729.8</ele>
        <time>2026-03-01T10:55:49Z</time>
      </trkpt>
      <trkpt lat="43.035356" lon="-1.811050">
        <ele>728.2</ele>
        <time>2026-03-01T10:55:52Z</time>
      </trkpt>
      <trkpt lat="43.035373" lon="-1.811031">
        <ele>726.8</ele>
        <time>2026-03-01T10:55:54Z</time>
      </trkpt>
      <trkpt lat="43.035366" lon="-1.810974">
        <ele>725.6</ele>
        <time>2026-03-01T10:55:56Z</time>
      </trkpt>
      <trkpt lat="43.035362" lon="-1.810953">
        <ele>724.8</ele>
        <time>2026-03-01T10:55:57Z</time>
      </trkpt>
      <trkpt lat="43.035372" lon="-1.810959">
        <ele>724.0</ele>
        <time>2026-03-01T10:55:58Z</time>
      </trkpt>
      <trkpt lat="43.035388" lon="-1.810940">
        <ele>723.0</ele>
        <time>2026-03-01T10:55:59Z</time>
      </trkpt>
      <trkpt lat="43.035406" lon="-1.810922">
        <ele>722.4</ele>
        <time>2026-03-01T10:56:00Z</time>
      </trkpt>
      <trkpt lat="43.035443" lon="-1.810889">
        <ele>721.8</ele>
        <time>2026-03-01T10:56:01Z</time>
      </trkpt>
      <trkpt lat="43.035450" lon="-1.810872">
        <ele>721.2</ele>
        <time>2026-03-01T10:56:02Z</time>
      </trkpt>
      <trkpt lat="43.035486" lon="-1.810890">
        <ele>720.2</ele>
        <time>2026-03-01T10:56:04Z</time>
      </trkpt>
      <trkpt lat="43.035494" lon="-1.810910">
        <ele>719.0</ele>
        <time>2026-03-01T10:56:06Z</time>
      </trkpt>
      <trkpt lat="43.035515" lon="-1.810905">
        <ele>718.6</ele>
        <time>2026-03-01T10:56:08Z</time>
      </trkpt>
      <trkpt lat="43.035508" lon="-1.810908">
        <ele>718.6</ele>
        <time>2026-03-01T10:56:10Z</time>
      </trkpt>
      <trkpt lat="43.035522" lon="-1.810934">
        <ele>719.0</ele>
        <time>2026-03-01T10:56:12Z</time>
      </trkpt>
      <trkpt lat="43.035526" lon="-1.810961">
        <ele>719.0</ele>
        <time>2026-03-01T10:56:13Z</time>
      </trkpt>
      <trkpt lat="43.035542" lon="-1.811016">
        <ele>719.2</ele>
        <time>2026-03-01T10:56:15Z</time>
      </trkpt>
      <trkpt lat="43.035616" lon="-1.811180">
        <ele>719.2</ele>
        <time>2026-03-01T10:56:21Z</time>
      </trkpt>
      <trkpt lat="43.035657" lon="-1.811281">
        <ele>717.8</ele>
        <time>2026-03-01T10:56:25Z</time>
      </trkpt>
      <trkpt lat="43.035663" lon="-1.811321">
        <ele>717.4</ele>
        <time>2026-03-01T10:56:26Z</time>
      </trkpt>
      <trkpt lat="43.035694" lon="-1.811387">
        <ele>716.4</ele>
        <time>2026-03-01T10:56:28Z</time>
      </trkpt>
      <trkpt lat="43.035712" lon="-1.811435">
        <ele>715.8</ele>
        <time>2026-03-01T10:56:31Z</time>
      </trkpt>
      <trkpt lat="43.035732" lon="-1.811459">
        <ele>715.6</ele>
        <time>2026-03-01T10:56:36Z</time>
      </trkpt>
      <trkpt lat="43.035736" lon="-1.811473">
        <ele>715.4</ele>
        <time>2026-03-01T10:56:37Z</time>
      </trkpt>
      <trkpt lat="43.035779" lon="-1.811548">
        <ele>715.0</ele>
        <time>2026-03-01T10:56:43Z</time>
      </trkpt>
      <trkpt lat="43.035793" lon="-1.811567">
        <ele>714.8</ele>
        <time>2026-03-01T10:56:44Z</time>
      </trkpt>
      <trkpt lat="43.035810" lon="-1.811574">
        <ele>714.2</ele>
        <time>2026-03-01T10:56:45Z</time>
      </trkpt>
      <trkpt lat="43.035849" lon="-1.811582">
        <ele>713.6</ele>
        <time>2026-03-01T10:56:48Z</time>
      </trkpt>
      <trkpt lat="43.035857" lon="-1.811580">
        <ele>713.2</ele>
        <time>2026-03-01T10:56:49Z</time>
      </trkpt>
      <trkpt lat="43.035882" lon="-1.811541">
        <ele>712.6</ele>
        <time>2026-03-01T10:56:54Z</time>
      </trkpt>
      <trkpt lat="43.035883" lon="-1.811513">
        <ele>712.0</ele>
        <time>2026-03-01T10:56:56Z</time>
      </trkpt>
      <trkpt lat="43.035870" lon="-1.811462">
        <ele>711.0</ele>
        <time>2026-03-01T10:57:00Z</time>
      </trkpt>
      <trkpt lat="43.035876" lon="-1.811424">
        <ele>710.8</ele>
        <time>2026-03-01T10:57:02Z</time>
      </trkpt>
      <trkpt lat="43.035868" lon="-1.811378">
        <ele>709.8</ele>
        <time>2026-03-01T10:57:05Z</time>
      </trkpt>
      <trkpt lat="43.035871" lon="-1.811363">
        <ele>709.6</ele>
        <time>2026-03-01T10:57:06Z</time>
      </trkpt>
      <trkpt lat="43.035867" lon="-1.811340">
        <ele>709.8</ele>
        <time>2026-03-01T10:57:08Z</time>
      </trkpt>
      <trkpt lat="43.035862" lon="-1.811315">
        <ele>709.6</ele>
        <time>2026-03-01T10:57:11Z</time>
      </trkpt>
      <trkpt lat="43.035857" lon="-1.811299">
        <ele>709.6</ele>
        <time>2026-03-01T10:57:12Z</time>
      </trkpt>
      <trkpt lat="43.035866" lon="-1.811228">
        <ele>709.0</ele>
        <time>2026-03-01T10:57:18Z</time>
      </trkpt>
      <trkpt lat="43.035864" lon="-1.811190">
        <ele>708.8</ele>
        <time>2026-03-01T10:57:20Z</time>
      </trkpt>
      <trkpt lat="43.035846" lon="-1.811118">
        <ele>708.6</ele>
        <time>2026-03-01T10:57:23Z</time>
      </trkpt>
      <trkpt lat="43.035838" lon="-1.811086">
        <ele>708.4</ele>
        <time>2026-03-01T10:57:24Z</time>
      </trkpt>
      <trkpt lat="43.035823" lon="-1.810973">
        <ele>707.4</ele>
        <time>2026-03-01T10:57:27Z</time>
      </trkpt>
      <trkpt lat="43.035826" lon="-1.810902">
        <ele>706.2</ele>
        <time>2026-03-01T10:57:29Z</time>
      </trkpt>
      <trkpt lat="43.035825" lon="-1.810901">
        <ele>705.0</ele>
        <time>2026-03-01T10:57:31Z</time>
      </trkpt>
      <trkpt lat="43.035827" lon="-1.810909">
        <ele>703.8</ele>
        <time>2026-03-01T10:57:33Z</time>
      </trkpt>
      <trkpt lat="43.035874" lon="-1.810884">
        <ele>702.4</ele>
        <time>2026-03-01T10:57:35Z</time>
      </trkpt>
      <trkpt lat="43.035875" lon="-1.810866">
        <ele>701.8</ele>
        <time>2026-03-01T10:57:36Z</time>
      </trkpt>
      <trkpt lat="43.035901" lon="-1.810842">
        <ele>701.2</ele>
        <time>2026-03-01T10:57:37Z</time>
      </trkpt>
      <trkpt lat="43.035916" lon="-1.810826">
        <ele>700.4</ele>
        <time>2026-03-01T10:57:38Z</time>
      </trkpt>
      <trkpt lat="43.035947" lon="-1.810801">
        <ele>699.8</ele>
        <time>2026-03-01T10:57:39Z</time>
      </trkpt>
      <trkpt lat="43.035953" lon="-1.810777">
        <ele>699.4</ele>
        <time>2026-03-01T10:57:40Z</time>
      </trkpt>
      <trkpt lat="43.035998" lon="-1.810718">
        <ele>698.8</ele>
        <time>2026-03-01T10:57:42Z</time>
      </trkpt>
      <trkpt lat="43.036042" lon="-1.810655">
        <ele>698.0</ele>
        <time>2026-03-01T10:57:44Z</time>
      </trkpt>
      <trkpt lat="43.036026" lon="-1.810583">
        <ele>697.6</ele>
        <time>2026-03-01T10:57:46Z</time>
      </trkpt>
      <trkpt lat="43.036023" lon="-1.810553">
        <ele>697.6</ele>
        <time>2026-03-01T10:57:47Z</time>
      </trkpt>
      <trkpt lat="43.036025" lon="-1.810504">
        <ele>697.4</ele>
        <time>2026-03-01T10:57:49Z</time>
      </trkpt>
      <trkpt lat="43.036006" lon="-1.810425">
        <ele>697.4</ele>
        <time>2026-03-01T10:57:51Z</time>
      </trkpt>
      <trkpt lat="43.036011" lon="-1.810328">
        <ele>697.0</ele>
        <time>2026-03-01T10:57:53Z</time>
      </trkpt>
      <trkpt lat="43.035990" lon="-1.810236">
        <ele>696.6</ele>
        <time>2026-03-01T10:57:56Z</time>
      </trkpt>
      <trkpt lat="43.035998" lon="-1.810204">
        <ele>696.6</ele>
        <time>2026-03-01T10:57:57Z</time>
      </trkpt>
      <trkpt lat="43.035993" lon="-1.810179">
        <ele>696.2</ele>
        <time>2026-03-01T10:57:58Z</time>
      </trkpt>
      <trkpt lat="43.035977" lon="-1.810107">
        <ele>695.4</ele>
        <time>2026-03-01T10:58:01Z</time>
      </trkpt>
      <trkpt lat="43.035987" lon="-1.809987">
        <ele>694.4</ele>
        <time>2026-03-01T10:58:04Z</time>
      </trkpt>
      <trkpt lat="43.035975" lon="-1.809945">
        <ele>693.8</ele>
        <time>2026-03-01T10:58:05Z</time>
      </trkpt>
      <trkpt lat="43.035964" lon="-1.809906">
        <ele>693.4</ele>
        <time>2026-03-01T10:58:06Z</time>
      </trkpt>
      <trkpt lat="43.035951" lon="-1.809785">
        <ele>692.2</ele>
        <time>2026-03-01T10:58:09Z</time>
      </trkpt>
      <trkpt lat="43.035946" lon="-1.809762">
        <ele>692.0</ele>
        <time>2026-03-01T10:58:10Z</time>
      </trkpt>
      <trkpt lat="43.035903" lon="-1.809663">
        <ele>691.2</ele>
        <time>2026-03-01T10:58:16Z</time>
      </trkpt>
      <trkpt lat="43.035900" lon="-1.809657">
        <ele>691.0</ele>
        <time>2026-03-01T10:58:17Z</time>
      </trkpt>
      <trkpt lat="43.035893" lon="-1.809620">
        <ele>690.6</ele>
        <time>2026-03-01T10:58:22Z</time>
      </trkpt>
      <trkpt lat="43.035893" lon="-1.809618">
        <ele>690.4</ele>
        <time>2026-03-01T10:58:23Z</time>
      </trkpt>
      <trkpt lat="43.035881" lon="-1.809605">
        <ele>690.2</ele>
        <time>2026-03-01T10:58:25Z</time>
      </trkpt>
      <trkpt lat="43.035877" lon="-1.809603">
        <ele>690.2</ele>
        <time>2026-03-01T10:58:26Z</time>
      </trkpt>
      <trkpt lat="43.035859" lon="-1.809598">
        <ele>690.2</ele>
        <time>2026-03-01T10:58:27Z</time>
      </trkpt>
      <trkpt lat="43.035846" lon="-1.809580">
        <ele>690.0</ele>
        <time>2026-03-01T10:58:30Z</time>
      </trkpt>
      <trkpt lat="43.035835" lon="-1.809556">
        <ele>689.6</ele>
        <time>2026-03-01T10:58:33Z</time>
      </trkpt>
      <trkpt lat="43.035827" lon="-1.809480">
        <ele>689.2</ele>
        <time>2026-03-01T10:58:39Z</time>
      </trkpt>
      <trkpt lat="43.035832" lon="-1.809466">
        <ele>688.8</ele>
        <time>2026-03-01T10:58:40Z</time>
      </trkpt>
      <trkpt lat="43.035832" lon="-1.809449">
        <ele>688.6</ele>
        <time>2026-03-01T10:58:41Z</time>
      </trkpt>
      <trkpt lat="43.035827" lon="-1.809430">
        <ele>687.6</ele>
        <time>2026-03-01T10:58:43Z</time>
      </trkpt>
      <trkpt lat="43.035818" lon="-1.809409">
        <ele>686.6</ele>
        <time>2026-03-01T10:58:46Z</time>
      </trkpt>
      <trkpt lat="43.035800" lon="-1.809389">
        <ele>686.0</ele>
        <time>2026-03-01T10:58:48Z</time>
      </trkpt>
      <trkpt lat="43.035830" lon="-1.809355">
        <ele>685.6</ele>
        <time>2026-03-01T10:58:51Z</time>
      </trkpt>
      <trkpt lat="43.035840" lon="-1.809346">
        <ele>685.4</ele>
        <time>2026-03-01T10:58:52Z</time>
      </trkpt>
      <trkpt lat="43.035852" lon="-1.809315">
        <ele>684.2</ele>
        <time>2026-03-01T10:58:54Z</time>
      </trkpt>
      <trkpt lat="43.035887" lon="-1.809273">
        <ele>682.8</ele>
        <time>2026-03-01T10:58:57Z</time>
      </trkpt>
      <trkpt lat="43.035898" lon="-1.809249">
        <ele>681.2</ele>
        <time>2026-03-01T10:58:59Z</time>
      </trkpt>
      <trkpt lat="43.035954" lon="-1.809196">
        <ele>680.2</ele>
        <time>2026-03-01T10:59:02Z</time>
      </trkpt>
      <trkpt lat="43.035947" lon="-1.809178">
        <ele>680.0</ele>
        <time>2026-03-01T10:59:03Z</time>
      </trkpt>
      <trkpt lat="43.035927" lon="-1.809173">
        <ele>679.4</ele>
        <time>2026-03-01T10:59:05Z</time>
      </trkpt>
      <trkpt lat="43.035920" lon="-1.809162">
        <ele>679.0</ele>
        <time>2026-03-01T10:59:06Z</time>
      </trkpt>
      <trkpt lat="43.035922" lon="-1.809130">
        <ele>678.2</ele>
        <time>2026-03-01T10:59:09Z</time>
      </trkpt>
      <trkpt lat="43.035918" lon="-1.809112">
        <ele>677.6</ele>
        <time>2026-03-01T10:59:10Z</time>
      </trkpt>
      <trkpt lat="43.035863" lon="-1.809063">
        <ele>676.8</ele>
        <time>2026-03-01T10:59:16Z</time>
      </trkpt>
      <trkpt lat="43.035839" lon="-1.809080">
        <ele>676.6</ele>
        <time>2026-03-01T10:59:18Z</time>
      </trkpt>
      <trkpt lat="43.035837" lon="-1.809067">
        <ele>676.2</ele>
        <time>2026-03-01T10:59:20Z</time>
      </trkpt>
      <trkpt lat="43.035843" lon="-1.809049">
        <ele>675.8</ele>
        <time>2026-03-01T10:59:23Z</time>
      </trkpt>
      <trkpt lat="43.035843" lon="-1.809015">
        <ele>675.6</ele>
        <time>2026-03-01T10:59:26Z</time>
      </trkpt>
      <trkpt lat="43.035842" lon="-1.808997">
        <ele>675.2</ele>
        <time>2026-03-01T10:59:27Z</time>
      </trkpt>
      <trkpt lat="43.035844" lon="-1.808979">
        <ele>674.4</ele>
        <time>2026-03-01T10:59:28Z</time>
      </trkpt>
      <trkpt lat="43.035849" lon="-1.808959">
        <ele>674.0</ele>
        <time>2026-03-01T10:59:29Z</time>
      </trkpt>
      <trkpt lat="43.035857" lon="-1.808924">
        <ele>673.2</ele>
        <time>2026-03-01T10:59:31Z</time>
      </trkpt>
      <trkpt lat="43.035870" lon="-1.808893">
        <ele>672.8</ele>
        <time>2026-03-01T10:59:35Z</time>
      </trkpt>
      <trkpt lat="43.035905" lon="-1.808851">
        <ele>672.2</ele>
        <time>2026-03-01T10:59:41Z</time>
      </trkpt>
      <trkpt lat="43.035916" lon="-1.808851">
        <ele>672.0</ele>
        <time>2026-03-01T10:59:42Z</time>
      </trkpt>
      <trkpt lat="43.035941" lon="-1.808850">
        <ele>671.6</ele>
        <time>2026-03-01T10:59:48Z</time>
      </trkpt>
      <trkpt lat="43.035971" lon="-1.808858">
        <ele>671.6</ele>
        <time>2026-03-01T10:59:57Z</time>
      </trkpt>
      <trkpt lat="43.036009" lon="-1.808849">
        <ele>671.2</ele>
        <time>2026-03-01T11:00:02Z</time>
      </trkpt>
      <trkpt lat="43.036023" lon="-1.808855">
        <ele>670.6</ele>
        <time>2026-03-01T11:00:03Z</time>
      </trkpt>
      <trkpt lat="43.036048" lon="-1.808856">
        <ele>670.0</ele>
        <time>2026-03-01T11:00:04Z</time>
      </trkpt>
      <trkpt lat="43.036081" lon="-1.808842">
        <ele>669.2</ele>
        <time>2026-03-01T11:00:05Z</time>
      </trkpt>
      <trkpt lat="43.036122" lon="-1.808798">
        <ele>668.4</ele>
        <time>2026-03-01T11:00:06Z</time>
      </trkpt>
      <trkpt lat="43.036129" lon="-1.808680">
        <ele>666.6</ele>
        <time>2026-03-01T11:00:08Z</time>
      </trkpt>
      <trkpt lat="43.036100" lon="-1.808621">
        <ele>665.6</ele>
        <time>2026-03-01T11:00:09Z</time>
      </trkpt>
      <trkpt lat="43.036064" lon="-1.808572">
        <ele>664.2</ele>
        <time>2026-03-01T11:00:10Z</time>
      </trkpt>
      <trkpt lat="43.035993" lon="-1.808490">
        <ele>662.2</ele>
        <time>2026-03-01T11:00:12Z</time>
      </trkpt>
      <trkpt lat="43.035958" lon="-1.808457">
        <ele>661.2</ele>
        <time>2026-03-01T11:00:13Z</time>
      </trkpt>
      <trkpt lat="43.035928" lon="-1.808424">
        <ele>660.6</ele>
        <time>2026-03-01T11:00:14Z</time>
      </trkpt>
      <trkpt lat="43.035861" lon="-1.808380">
        <ele>659.2</ele>
        <time>2026-03-01T11:00:16Z</time>
      </trkpt>
      <trkpt lat="43.035791" lon="-1.808397">
        <ele>658.0</ele>
        <time>2026-03-01T11:00:18Z</time>
      </trkpt>
      <trkpt lat="43.035752" lon="-1.808425">
        <ele>657.6</ele>
        <time>2026-03-01T11:00:19Z</time>
      </trkpt>
      <trkpt lat="43.035659" lon="-1.808516">
        <ele>656.0</ele>
        <time>2026-03-01T11:00:21Z</time>
      </trkpt>
      <trkpt lat="43.035614" lon="-1.808563">
        <ele>654.6</ele>
        <time>2026-03-01T11:00:22Z</time>
      </trkpt>
      <trkpt lat="43.035576" lon="-1.808594">
        <ele>653.4</ele>
        <time>2026-03-01T11:00:23Z</time>
      </trkpt>
      <trkpt lat="43.035549" lon="-1.808607">
        <ele>652.6</ele>
        <time>2026-03-01T11:00:24Z</time>
      </trkpt>
      <trkpt lat="43.035539" lon="-1.808613">
        <ele>652.0</ele>
        <time>2026-03-01T11:00:25Z</time>
      </trkpt>
      <trkpt lat="43.035520" lon="-1.808595">
        <ele>651.4</ele>
        <time>2026-03-01T11:00:27Z</time>
      </trkpt>
      <trkpt lat="43.035503" lon="-1.808575">
        <ele>651.4</ele>
        <time>2026-03-01T11:00:28Z</time>
      </trkpt>
      <trkpt lat="43.035506" lon="-1.808576">
        <ele>651.4</ele>
        <time>2026-03-01T11:00:35Z</time>
      </trkpt>
      <trkpt lat="43.035516" lon="-1.808545">
        <ele>650.8</ele>
        <time>2026-03-01T11:00:41Z</time>
      </trkpt>
      <trkpt lat="43.035504" lon="-1.808528">
        <ele>650.8</ele>
        <time>2026-03-01T11:00:43Z</time>
      </trkpt>
      <trkpt lat="43.035484" lon="-1.808512">
        <ele>651.0</ele>
        <time>2026-03-01T11:00:47Z</time>
      </trkpt>
      <trkpt lat="43.035524" lon="-1.808459">
        <ele>651.2</ele>
        <time>2026-03-01T11:00:54Z</time>
      </trkpt>
      <trkpt lat="43.035520" lon="-1.808477">
        <ele>651.0</ele>
        <time>2026-03-01T11:00:58Z</time>
      </trkpt>
      <trkpt lat="43.035407" lon="-1.808382">
        <ele>651.2</ele>
        <time>2026-03-01T11:01:04Z</time>
      </trkpt>
      <trkpt lat="43.035312" lon="-1.808379">
        <ele>651.6</ele>
        <time>2026-03-01T11:01:11Z</time>
      </trkpt>
      <trkpt lat="43.035221" lon="-1.808358">
        <ele>651.8</ele>
        <time>2026-03-01T11:01:16Z</time>
      </trkpt>
      <trkpt lat="43.035230" lon="-1.808339">
        <ele>652.0</ele>
        <time>2026-03-01T11:01:18Z</time>
      </trkpt>
      <trkpt lat="43.035373" lon="-1.808343">
        <ele>651.2</ele>
        <time>2026-03-01T11:01:25Z</time>
      </trkpt>
      <trkpt lat="43.035392" lon="-1.808353">
        <ele>651.4</ele>
        <time>2026-03-01T11:01:27Z</time>
      </trkpt>
      <trkpt lat="43.035389" lon="-1.808369">
        <ele>651.6</ele>
        <time>2026-03-01T11:01:31Z</time>
      </trkpt>
      <trkpt lat="43.035384" lon="-1.808367">
        <ele>653.0</ele>
        <time>2026-03-01T11:01:33Z</time>
      </trkpt>
      <trkpt lat="43.035382" lon="-1.808367">
        <ele>653.0</ele>
        <time>2026-03-01T11:01:34Z</time>
      </trkpt>
      <trkpt lat="43.035388" lon="-1.808370">
        <ele>651.8</ele>
        <time>2026-03-01T11:01:38Z</time>
      </trkpt>
      <trkpt lat="43.035414" lon="-1.808386">
        <ele>651.4</ele>
        <time>2026-03-01T11:01:41Z</time>
      </trkpt>
      <trkpt lat="43.035416" lon="-1.808387">
        <ele>651.4</ele>
        <time>2026-03-01T11:01:42Z</time>
      </trkpt>
      <trkpt lat="43.035422" lon="-1.808378">
        <ele>651.4</ele>
        <time>2026-03-01T11:01:49Z</time>
      </trkpt>
      <trkpt lat="43.035432" lon="-1.808370">
        <ele>651.4</ele>
        <time>2026-03-01T11:01:50Z</time>
      </trkpt>
      <trkpt lat="43.035445" lon="-1.808354">
        <ele>651.6</ele>
        <time>2026-03-01T11:01:51Z</time>
      </trkpt>
      <trkpt lat="43.035483" lon="-1.808311">
        <ele>651.6</ele>
        <time>2026-03-01T11:01:53Z</time>
      </trkpt>
      <trkpt lat="43.035535" lon="-1.808256">
        <ele>650.4</ele>
        <time>2026-03-01T11:01:55Z</time>
      </trkpt>
      <trkpt lat="43.035614" lon="-1.808163">
        <ele>648.8</ele>
        <time>2026-03-01T11:01:57Z</time>
      </trkpt>
      <trkpt lat="43.035656" lon="-1.808115">
        <ele>648.2</ele>
        <time>2026-03-01T11:01:58Z</time>
      </trkpt>
      <trkpt lat="43.035701" lon="-1.808083">
        <ele>647.6</ele>
        <time>2026-03-01T11:01:59Z</time>
      </trkpt>
      <trkpt lat="43.035806" lon="-1.808034">
        <ele>646.0</ele>
        <time>2026-03-01T11:02:01Z</time>
      </trkpt>
      <trkpt lat="43.035857" lon="-1.808010">
        <ele>644.8</ele>
        <time>2026-03-01T11:02:02Z</time>
      </trkpt>
      <trkpt lat="43.035917" lon="-1.808003">
        <ele>644.2</ele>
        <time>2026-03-01T11:02:03Z</time>
      </trkpt>
      <trkpt lat="43.035996" lon="-1.807991">
        <ele>643.6</ele>
        <time>2026-03-01T11:02:04Z</time>
      </trkpt>
      <trkpt lat="43.036075" lon="-1.807984">
        <ele>642.2</ele>
        <time>2026-03-01T11:02:05Z</time>
      </trkpt>
      <trkpt lat="43.036213" lon="-1.807972">
        <ele>641.0</ele>
        <time>2026-03-01T11:02:07Z</time>
      </trkpt>
      <trkpt lat="43.036310" lon="-1.807956">
        <ele>641.2</ele>
        <time>2026-03-01T11:02:09Z</time>
      </trkpt>
      <trkpt lat="43.036453" lon="-1.807849">
        <ele>641.6</ele>
        <time>2026-03-01T11:02:12Z</time>
      </trkpt>
      <trkpt lat="43.036453" lon="-1.807745">
        <ele>642.0</ele>
        <time>2026-03-01T11:02:16Z</time>
      </trkpt>
      <trkpt lat="43.036444" lon="-1.807711">
        <ele>642.8</ele>
        <time>2026-03-01T11:02:18Z</time>
      </trkpt>
      <trkpt lat="43.036457" lon="-1.807691">
        <ele>643.2</ele>
        <time>2026-03-01T11:02:19Z</time>
      </trkpt>
      <trkpt lat="43.036471" lon="-1.807672">
        <ele>643.4</ele>
        <time>2026-03-01T11:02:20Z</time>
      </trkpt>
      <trkpt lat="43.036487" lon="-1.807580">
        <ele>644.4</ele>
        <time>2026-03-01T11:02:23Z</time>
      </trkpt>
      <trkpt lat="43.036502" lon="-1.807508">
        <ele>645.6</ele>
        <time>2026-03-01T11:02:26Z</time>
      </trkpt>
      <trkpt lat="43.036488" lon="-1.807455">
        <ele>646.4</ele>
        <time>2026-03-01T11:02:29Z</time>
      </trkpt>
      <trkpt lat="43.036487" lon="-1.807437">
        <ele>646.8</ele>
        <time>2026-03-01T11:02:30Z</time>
      </trkpt>
      <trkpt lat="43.036482" lon="-1.807395">
        <ele>647.4</ele>
        <time>2026-03-01T11:02:32Z</time>
      </trkpt>
      <trkpt lat="43.036474" lon="-1.807381">
        <ele>648.0</ele>
        <time>2026-03-01T11:02:33Z</time>
      </trkpt>
      <trkpt lat="43.036470" lon="-1.807366">
        <ele>648.2</ele>
        <time>2026-03-01T11:02:34Z</time>
      </trkpt>
      <trkpt lat="43.036466" lon="-1.807327">
        <ele>649.2</ele>
        <time>2026-03-01T11:02:36Z</time>
      </trkpt>
      <trkpt lat="43.036461" lon="-1.807266">
        <ele>650.2</ele>
        <time>2026-03-01T11:02:39Z</time>
      </trkpt>
      <trkpt lat="43.036459" lon="-1.807227">
        <ele>650.8</ele>
        <time>2026-03-01T11:02:41Z</time>
      </trkpt>
      <trkpt lat="43.036447" lon="-1.807191">
        <ele>651.4</ele>
        <time>2026-03-01T11:02:43Z</time>
      </trkpt>
      <trkpt lat="43.036432" lon="-1.807154">
        <ele>652.0</ele>
        <time>2026-03-01T11:02:45Z</time>
      </trkpt>
      <trkpt lat="43.036428" lon="-1.807133">
        <ele>652.6</ele>
        <time>2026-03-01T11:02:46Z</time>
      </trkpt>
      <trkpt lat="43.036420" lon="-1.807113">
        <ele>652.8</ele>
        <time>2026-03-01T11:02:47Z</time>
      </trkpt>
      <trkpt lat="43.036380" lon="-1.806985">
        <ele>653.6</ele>
        <time>2026-03-01T11:02:53Z</time>
      </trkpt>
      <trkpt lat="43.036370" lon="-1.806946">
        <ele>654.2</ele>
        <time>2026-03-01T11:02:55Z</time>
      </trkpt>
      <trkpt lat="43.036368" lon="-1.806926">
        <ele>654.6</ele>
        <time>2026-03-01T11:02:56Z</time>
      </trkpt>
      <trkpt lat="43.036364" lon="-1.806859">
        <ele>655.8</ele>
        <time>2026-03-01T11:02:59Z</time>
      </trkpt>
      <trkpt lat="43.036359" lon="-1.806816">
        <ele>656.0</ele>
        <time>2026-03-01T11:03:01Z</time>
      </trkpt>
      <trkpt lat="43.036353" lon="-1.806779">
        <ele>656.0</ele>
        <time>2026-03-01T11:03:03Z</time>
      </trkpt>
      <trkpt lat="43.036344" lon="-1.806658">
        <ele>657.0</ele>
        <time>2026-03-01T11:03:09Z</time>
      </trkpt>
      <trkpt lat="43.036339" lon="-1.806634">
        <ele>657.2</ele>
        <time>2026-03-01T11:03:10Z</time>
      </trkpt>
      <trkpt lat="43.036332" lon="-1.806547">
        <ele>658.0</ele>
        <time>2026-03-01T11:03:14Z</time>
      </trkpt>
      <trkpt lat="43.036330" lon="-1.806527">
        <ele>658.0</ele>
        <time>2026-03-01T11:03:15Z</time>
      </trkpt>
      <trkpt lat="43.036335" lon="-1.806488">
        <ele>658.2</ele>
        <time>2026-03-01T11:03:17Z</time>
      </trkpt>
      <trkpt lat="43.036340" lon="-1.806415">
        <ele>659.4</ele>
        <time>2026-03-01T11:03:21Z</time>
      </trkpt>
      <trkpt lat="43.036342" lon="-1.806396">
        <ele>659.6</ele>
        <time>2026-03-01T11:03:22Z</time>
      </trkpt>
      <trkpt lat="43.036363" lon="-1.806257">
        <ele>660.6</ele>
        <time>2026-03-01T11:03:29Z</time>
      </trkpt>
      <trkpt lat="43.036366" lon="-1.806213">
        <ele>661.4</ele>
        <time>2026-03-01T11:03:31Z</time>
      </trkpt>
      <trkpt lat="43.036369" lon="-1.806191">
        <ele>661.6</ele>
        <time>2026-03-01T11:03:32Z</time>
      </trkpt>
      <trkpt lat="43.036370" lon="-1.806122">
        <ele>662.6</ele>
        <time>2026-03-01T11:03:35Z</time>
      </trkpt>
      <trkpt lat="43.036370" lon="-1.806099">
        <ele>662.8</ele>
        <time>2026-03-01T11:03:36Z</time>
      </trkpt>
      <trkpt lat="43.036371" lon="-1.806055">
        <ele>663.4</ele>
        <time>2026-03-01T11:03:38Z</time>
      </trkpt>
      <trkpt lat="43.036379" lon="-1.806011">
        <ele>663.6</ele>
        <time>2026-03-01T11:03:40Z</time>
      </trkpt>
      <trkpt lat="43.036380" lon="-1.805967">
        <ele>664.0</ele>
        <time>2026-03-01T11:03:42Z</time>
      </trkpt>
      <trkpt lat="43.036379" lon="-1.805924">
        <ele>664.2</ele>
        <time>2026-03-01T11:03:44Z</time>
      </trkpt>
      <trkpt lat="43.036382" lon="-1.805861">
        <ele>664.4</ele>
        <time>2026-03-01T11:03:47Z</time>
      </trkpt>
      <trkpt lat="43.036374" lon="-1.805769">
        <ele>665.2</ele>
        <time>2026-03-01T11:03:51Z</time>
      </trkpt>
      <trkpt lat="43.036374" lon="-1.805746">
        <ele>665.4</ele>
        <time>2026-03-01T11:03:52Z</time>
      </trkpt>
      <trkpt lat="43.036371" lon="-1.805636">
        <ele>666.2</ele>
        <time>2026-03-01T11:03:57Z</time>
      </trkpt>
      <trkpt lat="43.036368" lon="-1.805613">
        <ele>666.4</ele>
        <time>2026-03-01T11:03:58Z</time>
      </trkpt>
      <trkpt lat="43.036382" lon="-1.805499">
        <ele>667.2</ele>
        <time>2026-03-01T11:04:04Z</time>
      </trkpt>
      <trkpt lat="43.036402" lon="-1.805475">
        <ele>667.2</ele>
        <time>2026-03-01T11:04:06Z</time>
      </trkpt>
      <trkpt lat="43.036473" lon="-1.805447">
        <ele>668.4</ele>
        <time>2026-03-01T11:04:11Z</time>
      </trkpt>
      <trkpt lat="43.036488" lon="-1.805445">
        <ele>668.6</ele>
        <time>2026-03-01T11:04:12Z</time>
      </trkpt>
      <trkpt lat="43.036545" lon="-1.805450">
        <ele>669.2</ele>
        <time>2026-03-01T11:04:16Z</time>
      </trkpt>
      <trkpt lat="43.036558" lon="-1.805448">
        <ele>669.4</ele>
        <time>2026-03-01T11:04:17Z</time>
      </trkpt>
      <trkpt lat="43.036601" lon="-1.805441">
        <ele>669.8</ele>
        <time>2026-03-01T11:04:20Z</time>
      </trkpt>
      <trkpt lat="43.036616" lon="-1.805431">
        <ele>670.0</ele>
        <time>2026-03-01T11:04:21Z</time>
      </trkpt>
      <trkpt lat="43.036624" lon="-1.805415">
        <ele>670.2</ele>
        <time>2026-03-01T11:04:22Z</time>
      </trkpt>
      <trkpt lat="43.036626" lon="-1.805393">
        <ele>670.4</ele>
        <time>2026-03-01T11:04:23Z</time>
      </trkpt>
      <trkpt lat="43.036628" lon="-1.805355">
        <ele>671.0</ele>
        <time>2026-03-01T11:04:25Z</time>
      </trkpt>
      <trkpt lat="43.036627" lon="-1.805315">
        <ele>671.2</ele>
        <time>2026-03-01T11:04:27Z</time>
      </trkpt>
      <trkpt lat="43.036611" lon="-1.805255">
        <ele>671.4</ele>
        <time>2026-03-01T11:04:30Z</time>
      </trkpt>
      <trkpt lat="43.036602" lon="-1.805237">
        <ele>671.6</ele>
        <time>2026-03-01T11:04:31Z</time>
      </trkpt>
      <trkpt lat="43.036570" lon="-1.805110">
        <ele>672.4</ele>
        <time>2026-03-01T11:04:37Z</time>
      </trkpt>
      <trkpt lat="43.036569" lon="-1.805060">
        <ele>672.6</ele>
        <time>2026-03-01T11:04:39Z</time>
      </trkpt>
      <trkpt lat="43.036559" lon="-1.804998">
        <ele>673.2</ele>
        <time>2026-03-01T11:04:42Z</time>
      </trkpt>
      <trkpt lat="43.036559" lon="-1.804977">
        <ele>673.2</ele>
        <time>2026-03-01T11:04:43Z</time>
      </trkpt>
      <trkpt lat="43.036576" lon="-1.804916">
        <ele>673.6</ele>
        <time>2026-03-01T11:04:46Z</time>
      </trkpt>
      <trkpt lat="43.036594" lon="-1.804882">
        <ele>673.6</ele>
        <time>2026-03-01T11:04:48Z</time>
      </trkpt>
      <trkpt lat="43.036622" lon="-1.804842">
        <ele>673.6</ele>
        <time>2026-03-01T11:04:51Z</time>
      </trkpt>
      <trkpt lat="43.036640" lon="-1.804819">
        <ele>673.6</ele>
        <time>2026-03-01T11:04:53Z</time>
      </trkpt>
      <trkpt lat="43.036655" lon="-1.804809">
        <ele>673.6</ele>
        <time>2026-03-01T11:04:55Z</time>
      </trkpt>
      <trkpt lat="43.036661" lon="-1.804809">
        <ele>673.8</ele>
        <time>2026-03-01T11:04:58Z</time>
      </trkpt>
      <trkpt lat="43.036662" lon="-1.804811">
        <ele>674.0</ele>
        <time>2026-03-01T11:05:04Z</time>
      </trkpt>
      <trkpt lat="43.036662" lon="-1.804811">
        <ele>673.8</ele>
        <time>2026-03-01T11:05:13Z</time>
      </trkpt>
      <trkpt lat="43.036659" lon="-1.804810">
        <ele>673.6</ele>
        <time>2026-03-01T11:05:22Z</time>
      </trkpt>
      <trkpt lat="43.036658" lon="-1.804810">
        <ele>673.4</ele>
        <time>2026-03-01T11:05:24Z</time>
      </trkpt>
      <trkpt lat="43.036657" lon="-1.804811">
        <ele>673.4</ele>
        <time>2026-03-01T11:05:35Z</time>
      </trkpt>
      <trkpt lat="43.036652" lon="-1.804809">
        <ele>673.4</ele>
        <time>2026-03-01T11:05:43Z</time>
      </trkpt>
      <trkpt lat="43.036654" lon="-1.804807">
        <ele>673.6</ele>
        <time>2026-03-01T11:05:47Z</time>
      </trkpt>
      <trkpt lat="43.036655" lon="-1.804805">
        <ele>673.6</ele>
        <time>2026-03-01T11:05:49Z</time>
      </trkpt>
      <trkpt lat="43.036656" lon="-1.804806">
        <ele>673.6</ele>
        <time>2026-03-01T11:05:50Z</time>
      </trkpt>
      <trkpt lat="43.036709" lon="-1.804813">
        <ele>673.0</ele>
        <time>2026-03-01T11:05:59Z</time>
      </trkpt>
      <trkpt lat="43.036713" lon="-1.804801">
        <ele>673.0</ele>
        <time>2026-03-01T11:06:01Z</time>
      </trkpt>
      <trkpt lat="43.036720" lon="-1.804757">
        <ele>673.6</ele>
        <time>2026-03-01T11:06:04Z</time>
      </trkpt>
      <trkpt lat="43.036707" lon="-1.804705">
        <ele>673.8</ele>
        <time>2026-03-01T11:06:07Z</time>
      </trkpt>
      <trkpt lat="43.036697" lon="-1.804686">
        <ele>673.8</ele>
        <time>2026-03-01T11:06:08Z</time>
      </trkpt>
      <trkpt lat="43.036678" lon="-1.804651">
        <ele>673.8</ele>
        <time>2026-03-01T11:06:10Z</time>
      </trkpt>
      <trkpt lat="43.036672" lon="-1.804635">
        <ele>674.0</ele>
        <time>2026-03-01T11:06:11Z</time>
      </trkpt>
      <trkpt lat="43.036666" lon="-1.804599">
        <ele>674.0</ele>
        <time>2026-03-01T11:06:13Z</time>
      </trkpt>
      <trkpt lat="43.036669" lon="-1.804581">
        <ele>673.8</ele>
        <time>2026-03-01T11:06:14Z</time>
      </trkpt>
      <trkpt lat="43.036674" lon="-1.804561">
        <ele>673.6</ele>
        <time>2026-03-01T11:06:15Z</time>
      </trkpt>
      <trkpt lat="43.036682" lon="-1.804545">
        <ele>673.6</ele>
        <time>2026-03-01T11:06:16Z</time>
      </trkpt>
      <trkpt lat="43.036687" lon="-1.804530">
        <ele>673.6</ele>
        <time>2026-03-01T11:06:17Z</time>
      </trkpt>
      <trkpt lat="43.036692" lon="-1.804485">
        <ele>673.8</ele>
        <time>2026-03-01T11:06:22Z</time>
      </trkpt>
      <trkpt lat="43.036692" lon="-1.804484">
        <ele>673.8</ele>
        <time>2026-03-01T11:06:29Z</time>
      </trkpt>
      <trkpt lat="43.036698" lon="-1.804480">
        <ele>673.8</ele>
        <time>2026-03-01T11:06:34Z</time>
      </trkpt>
      <trkpt lat="43.036698" lon="-1.804479">
        <ele>673.8</ele>
        <time>2026-03-01T11:06:40Z</time>
      </trkpt>
      <trkpt lat="43.036707" lon="-1.804479">
        <ele>674.2</ele>
        <time>2026-03-01T11:06:47Z</time>
      </trkpt>
      <trkpt lat="43.036707" lon="-1.804478">
        <ele>674.4</ele>
        <time>2026-03-01T11:06:48Z</time>
      </trkpt>
      <trkpt lat="43.036706" lon="-1.804478">
        <ele>673.8</ele>
        <time>2026-03-01T11:06:55Z</time>
      </trkpt>
      <trkpt lat="43.036708" lon="-1.804481">
        <ele>673.8</ele>
        <time>2026-03-01T11:07:00Z</time>
      </trkpt>
      <trkpt lat="43.036710" lon="-1.804474">
        <ele>673.2</ele>
        <time>2026-03-01T11:07:07Z</time>
      </trkpt>
      <trkpt lat="43.036709" lon="-1.804475">
        <ele>673.2</ele>
        <time>2026-03-01T11:07:11Z</time>
      </trkpt>
      <trkpt lat="43.036707" lon="-1.804487">
        <ele>673.4</ele>
        <time>2026-03-01T11:07:18Z</time>
      </trkpt>
      <trkpt lat="43.036704" lon="-1.804489">
        <ele>674.0</ele>
        <time>2026-03-01T11:07:23Z</time>
      </trkpt>
      <trkpt lat="43.036704" lon="-1.804493">
        <ele>673.6</ele>
        <time>2026-03-01T11:07:26Z</time>
      </trkpt>
      <trkpt lat="43.036704" lon="-1.804504">
        <ele>673.6</ele>
        <time>2026-03-01T11:07:29Z</time>
      </trkpt>
      <trkpt lat="43.036720" lon="-1.804529">
        <ele>673.6</ele>
        <time>2026-03-01T11:07:33Z</time>
      </trkpt>
      <trkpt lat="43.036768" lon="-1.804534">
        <ele>673.6</ele>
        <time>2026-03-01T11:07:36Z</time>
      </trkpt>
      <trkpt lat="43.036801" lon="-1.804501">
        <ele>672.6</ele>
        <time>2026-03-01T11:07:39Z</time>
      </trkpt>
      <trkpt lat="43.036829" lon="-1.804486">
        <ele>672.4</ele>
        <time>2026-03-01T11:07:41Z</time>
      </trkpt>
      <trkpt lat="43.036860" lon="-1.804461">
        <ele>674.2</ele>
        <time>2026-03-01T11:07:45Z</time>
      </trkpt>
      <trkpt lat="43.036880" lon="-1.804437">
        <ele>675.2</ele>
        <time>2026-03-01T11:07:48Z</time>
      </trkpt>
      <trkpt lat="43.036898" lon="-1.804405">
        <ele>675.4</ele>
        <time>2026-03-01T11:07:51Z</time>
      </trkpt>
      <trkpt lat="43.036937" lon="-1.804400">
        <ele>675.6</ele>
        <time>2026-03-01T11:07:54Z</time>
      </trkpt>
      <trkpt lat="43.036957" lon="-1.804383">
        <ele>675.6</ele>
        <time>2026-03-01T11:07:56Z</time>
      </trkpt>
      <trkpt lat="43.036963" lon="-1.804369">
        <ele>675.6</ele>
        <time>2026-03-01T11:07:57Z</time>
      </trkpt>
      <trkpt lat="43.036968" lon="-1.804361">
        <ele>676.0</ele>
        <time>2026-03-01T11:07:58Z</time>
      </trkpt>
      <trkpt lat="43.036978" lon="-1.804361">
        <ele>676.6</ele>
        <time>2026-03-01T11:07:59Z</time>
      </trkpt>
      <trkpt lat="43.036991" lon="-1.804361">
        <ele>677.0</ele>
        <time>2026-03-01T11:08:00Z</time>
      </trkpt>
      <trkpt lat="43.037018" lon="-1.804350">
        <ele>677.6</ele>
        <time>2026-03-01T11:08:02Z</time>
      </trkpt>
      <trkpt lat="43.037049" lon="-1.804292">
        <ele>678.4</ele>
        <time>2026-03-01T11:08:06Z</time>
      </trkpt>
      <trkpt lat="43.037076" lon="-1.804271">
        <ele>678.6</ele>
        <time>2026-03-01T11:08:08Z</time>
      </trkpt>
      <trkpt lat="43.037088" lon="-1.804258">
        <ele>678.6</ele>
        <time>2026-03-01T11:08:09Z</time>
      </trkpt>
      <trkpt lat="43.037132" lon="-1.804202">
        <ele>679.6</ele>
        <time>2026-03-01T11:08:14Z</time>
      </trkpt>
      <trkpt lat="43.037145" lon="-1.804195">
        <ele>679.6</ele>
        <time>2026-03-01T11:08:15Z</time>
      </trkpt>
      <trkpt lat="43.037161" lon="-1.804190">
        <ele>679.6</ele>
        <time>2026-03-01T11:08:16Z</time>
      </trkpt>
      <trkpt lat="43.037173" lon="-1.804181">
        <ele>680.0</ele>
        <time>2026-03-01T11:08:17Z</time>
      </trkpt>
      <trkpt lat="43.037198" lon="-1.804168">
        <ele>681.0</ele>
        <time>2026-03-01T11:08:19Z</time>
      </trkpt>
      <trkpt lat="43.037216" lon="-1.804156">
        <ele>681.6</ele>
        <time>2026-03-01T11:08:21Z</time>
      </trkpt>
      <trkpt lat="43.037230" lon="-1.804153">
        <ele>682.0</ele>
        <time>2026-03-01T11:08:23Z</time>
      </trkpt>
      <trkpt lat="43.037233" lon="-1.804122">
        <ele>682.6</ele>
        <time>2026-03-01T11:08:26Z</time>
      </trkpt>
      <trkpt lat="43.037254" lon="-1.804113">
        <ele>682.8</ele>
        <time>2026-03-01T11:08:28Z</time>
      </trkpt>
      <trkpt lat="43.037301" lon="-1.804131">
        <ele>683.2</ele>
        <time>2026-03-01T11:08:31Z</time>
      </trkpt>
      <trkpt lat="43.037341" lon="-1.804169">
        <ele>683.4</ele>
        <time>2026-03-01T11:08:34Z</time>
      </trkpt>
      <trkpt lat="43.037384" lon="-1.804198">
        <ele>683.4</ele>
        <time>2026-03-01T11:08:37Z</time>
      </trkpt>
      <trkpt lat="43.037449" lon="-1.804210">
        <ele>682.8</ele>
        <time>2026-03-01T11:08:42Z</time>
      </trkpt>
      <trkpt lat="43.037457" lon="-1.804205">
        <ele>683.0</ele>
        <time>2026-03-01T11:08:43Z</time>
      </trkpt>
      <trkpt lat="43.037527" lon="-1.804140">
        <ele>683.2</ele>
        <time>2026-03-01T11:08:48Z</time>
      </trkpt>
      <trkpt lat="43.037659" lon="-1.804135">
        <ele>684.2</ele>
        <time>2026-03-01T11:08:54Z</time>
      </trkpt>
      <trkpt lat="43.037678" lon="-1.804147">
        <ele>684.2</ele>
        <time>2026-03-01T11:08:55Z</time>
      </trkpt>
      <trkpt lat="43.037764" lon="-1.804239">
        <ele>685.0</ele>
        <time>2026-03-01T11:09:01Z</time>
      </trkpt>
      <trkpt lat="43.037783" lon="-1.804277">
        <ele>685.2</ele>
        <time>2026-03-01T11:09:03Z</time>
      </trkpt>
      <trkpt lat="43.037795" lon="-1.804295">
        <ele>685.4</ele>
        <time>2026-03-01T11:09:04Z</time>
      </trkpt>
      <trkpt lat="43.037833" lon="-1.804335">
        <ele>686.4</ele>
        <time>2026-03-01T11:09:07Z</time>
      </trkpt>
      <trkpt lat="43.037865" lon="-1.804377">
        <ele>687.4</ele>
        <time>2026-03-01T11:09:10Z</time>
      </trkpt>
      <trkpt lat="43.037877" lon="-1.804391">
        <ele>687.8</ele>
        <time>2026-03-01T11:09:11Z</time>
      </trkpt>
      <trkpt lat="43.037892" lon="-1.804401">
        <ele>688.6</ele>
        <time>2026-03-01T11:09:12Z</time>
      </trkpt>
      <trkpt lat="43.037906" lon="-1.804405">
        <ele>689.0</ele>
        <time>2026-03-01T11:09:13Z</time>
      </trkpt>
      <trkpt lat="43.037980" lon="-1.804395">
        <ele>690.0</ele>
        <time>2026-03-01T11:09:18Z</time>
      </trkpt>
      <trkpt lat="43.038061" lon="-1.804341">
        <ele>691.0</ele>
        <time>2026-03-01T11:09:24Z</time>
      </trkpt>
      <trkpt lat="43.038073" lon="-1.804329">
        <ele>691.2</ele>
        <time>2026-03-01T11:09:25Z</time>
      </trkpt>
      <trkpt lat="43.038087" lon="-1.804316">
        <ele>691.2</ele>
        <time>2026-03-01T11:09:26Z</time>
      </trkpt>
      <trkpt lat="43.038113" lon="-1.804293">
        <ele>691.6</ele>
        <time>2026-03-01T11:09:28Z</time>
      </trkpt>
      <trkpt lat="43.038139" lon="-1.804273">
        <ele>692.4</ele>
        <time>2026-03-01T11:09:30Z</time>
      </trkpt>
      <trkpt lat="43.038192" lon="-1.804233">
        <ele>693.4</ele>
        <time>2026-03-01T11:09:34Z</time>
      </trkpt>
      <trkpt lat="43.038221" lon="-1.804208">
        <ele>693.6</ele>
        <time>2026-03-01T11:09:36Z</time>
      </trkpt>
      <trkpt lat="43.038332" lon="-1.804106">
        <ele>694.6</ele>
        <time>2026-03-01T11:09:43Z</time>
      </trkpt>
      <trkpt lat="43.038347" lon="-1.804090">
        <ele>694.8</ele>
        <time>2026-03-01T11:09:44Z</time>
      </trkpt>
      <trkpt lat="43.038362" lon="-1.804073">
        <ele>695.0</ele>
        <time>2026-03-01T11:09:45Z</time>
      </trkpt>
      <trkpt lat="43.038389" lon="-1.804040">
        <ele>695.6</ele>
        <time>2026-03-01T11:09:47Z</time>
      </trkpt>
      <trkpt lat="43.038416" lon="-1.804017">
        <ele>696.0</ele>
        <time>2026-03-01T11:09:49Z</time>
      </trkpt>
      <trkpt lat="43.038446" lon="-1.803990">
        <ele>697.0</ele>
        <time>2026-03-01T11:09:51Z</time>
      </trkpt>
      <trkpt lat="43.038479" lon="-1.803962">
        <ele>697.2</ele>
        <time>2026-03-01T11:09:53Z</time>
      </trkpt>
      <trkpt lat="43.038509" lon="-1.803941">
        <ele>697.6</ele>
        <time>2026-03-01T11:09:55Z</time>
      </trkpt>
      <trkpt lat="43.038521" lon="-1.803931">
        <ele>698.0</ele>
        <time>2026-03-01T11:09:56Z</time>
      </trkpt>
      <trkpt lat="43.038542" lon="-1.803915">
        <ele>698.6</ele>
        <time>2026-03-01T11:09:58Z</time>
      </trkpt>
      <trkpt lat="43.038557" lon="-1.803911">
        <ele>698.8</ele>
        <time>2026-03-01T11:09:59Z</time>
      </trkpt>
      <trkpt lat="43.038592" lon="-1.803914">
        <ele>699.0</ele>
        <time>2026-03-01T11:10:01Z</time>
      </trkpt>
      <trkpt lat="43.038626" lon="-1.803932">
        <ele>699.2</ele>
        <time>2026-03-01T11:10:03Z</time>
      </trkpt>
      <trkpt lat="43.038675" lon="-1.803957">
        <ele>699.4</ele>
        <time>2026-03-01T11:10:06Z</time>
      </trkpt>
      <trkpt lat="43.038733" lon="-1.803999">
        <ele>700.2</ele>
        <time>2026-03-01T11:10:10Z</time>
      </trkpt>
      <trkpt lat="43.038763" lon="-1.804019">
        <ele>700.6</ele>
        <time>2026-03-01T11:10:12Z</time>
      </trkpt>
      <trkpt lat="43.038790" lon="-1.804044">
        <ele>700.8</ele>
        <time>2026-03-01T11:10:14Z</time>
      </trkpt>
      <trkpt lat="43.038817" lon="-1.804064">
        <ele>701.4</ele>
        <time>2026-03-01T11:10:16Z</time>
      </trkpt>
      <trkpt lat="43.038853" lon="-1.804067">
        <ele>702.4</ele>
        <time>2026-03-01T11:10:18Z</time>
      </trkpt>
      <trkpt lat="43.038873" lon="-1.804063">
        <ele>703.0</ele>
        <time>2026-03-01T11:10:19Z</time>
      </trkpt>
      <trkpt lat="43.038907" lon="-1.804048">
        <ele>703.4</ele>
        <time>2026-03-01T11:10:21Z</time>
      </trkpt>
      <trkpt lat="43.038965" lon="-1.803974">
        <ele>704.0</ele>
        <time>2026-03-01T11:10:26Z</time>
      </trkpt>
      <trkpt lat="43.038977" lon="-1.803931">
        <ele>704.8</ele>
        <time>2026-03-01T11:10:28Z</time>
      </trkpt>
      <trkpt lat="43.039004" lon="-1.803830">
        <ele>706.0</ele>
        <time>2026-03-01T11:10:33Z</time>
      </trkpt>
      <trkpt lat="43.039021" lon="-1.803767">
        <ele>706.6</ele>
        <time>2026-03-01T11:10:36Z</time>
      </trkpt>
      <trkpt lat="43.039026" lon="-1.803749">
        <ele>707.0</ele>
        <time>2026-03-01T11:10:37Z</time>
      </trkpt>
      <trkpt lat="43.039033" lon="-1.803730">
        <ele>707.2</ele>
        <time>2026-03-01T11:10:38Z</time>
      </trkpt>
      <trkpt lat="43.039056" lon="-1.803655">
        <ele>707.8</ele>
        <time>2026-03-01T11:10:42Z</time>
      </trkpt>
      <trkpt lat="43.039081" lon="-1.803606">
        <ele>708.6</ele>
        <time>2026-03-01T11:10:45Z</time>
      </trkpt>
      <trkpt lat="43.039105" lon="-1.803554">
        <ele>709.8</ele>
        <time>2026-03-01T11:10:48Z</time>
      </trkpt>
      <trkpt lat="43.039133" lon="-1.803504">
        <ele>710.6</ele>
        <time>2026-03-01T11:10:51Z</time>
      </trkpt>
      <trkpt lat="43.039153" lon="-1.803470">
        <ele>710.8</ele>
        <time>2026-03-01T11:10:53Z</time>
      </trkpt>
      <trkpt lat="43.039165" lon="-1.803454">
        <ele>710.8</ele>
        <time>2026-03-01T11:10:54Z</time>
      </trkpt>
      <trkpt lat="43.039214" lon="-1.803394">
        <ele>711.6</ele>
        <time>2026-03-01T11:10:58Z</time>
      </trkpt>
      <trkpt lat="43.039241" lon="-1.803372">
        <ele>711.8</ele>
        <time>2026-03-01T11:11:00Z</time>
      </trkpt>
      <trkpt lat="43.039293" lon="-1.803332">
        <ele>712.6</ele>
        <time>2026-03-01T11:11:04Z</time>
      </trkpt>
      <trkpt lat="43.039306" lon="-1.803322">
        <ele>713.0</ele>
        <time>2026-03-01T11:11:05Z</time>
      </trkpt>
      <trkpt lat="43.039382" lon="-1.803271">
        <ele>714.2</ele>
        <time>2026-03-01T11:11:11Z</time>
      </trkpt>
      <trkpt lat="43.039426" lon="-1.803243">
        <ele>715.2</ele>
        <time>2026-03-01T11:11:14Z</time>
      </trkpt>
      <trkpt lat="43.039443" lon="-1.803232">
        <ele>715.4</ele>
        <time>2026-03-01T11:11:15Z</time>
      </trkpt>
      <trkpt lat="43.039488" lon="-1.803204">
        <ele>716.4</ele>
        <time>2026-03-01T11:11:18Z</time>
      </trkpt>
      <trkpt lat="43.039583" lon="-1.803172">
        <ele>717.4</ele>
        <time>2026-03-01T11:11:24Z</time>
      </trkpt>
      <trkpt lat="43.039616" lon="-1.803169">
        <ele>717.4</ele>
        <time>2026-03-01T11:11:26Z</time>
      </trkpt>
      <trkpt lat="43.039699" lon="-1.803147">
        <ele>718.6</ele>
        <time>2026-03-01T11:11:31Z</time>
      </trkpt>
      <trkpt lat="43.039735" lon="-1.803141">
        <ele>719.0</ele>
        <time>2026-03-01T11:11:33Z</time>
      </trkpt>
      <trkpt lat="43.039814" lon="-1.803138">
        <ele>719.6</ele>
        <time>2026-03-01T11:11:37Z</time>
      </trkpt>
      <trkpt lat="43.039834" lon="-1.803138">
        <ele>719.8</ele>
        <time>2026-03-01T11:11:38Z</time>
      </trkpt>
      <trkpt lat="43.039896" lon="-1.803147">
        <ele>720.6</ele>
        <time>2026-03-01T11:11:41Z</time>
      </trkpt>
      <trkpt lat="43.039958" lon="-1.803152">
        <ele>721.0</ele>
        <time>2026-03-01T11:11:44Z</time>
      </trkpt>
      <trkpt lat="43.040100" lon="-1.803156">
        <ele>721.8</ele>
        <time>2026-03-01T11:11:51Z</time>
      </trkpt>
      <trkpt lat="43.040143" lon="-1.803157">
        <ele>722.0</ele>
        <time>2026-03-01T11:11:53Z</time>
      </trkpt>
      <trkpt lat="43.040189" lon="-1.803156">
        <ele>722.4</ele>
        <time>2026-03-01T11:11:55Z</time>
      </trkpt>
      <trkpt lat="43.040233" lon="-1.803158">
        <ele>723.0</ele>
        <time>2026-03-01T11:11:57Z</time>
      </trkpt>
      <trkpt lat="43.040272" lon="-1.803162">
        <ele>723.4</ele>
        <time>2026-03-01T11:11:59Z</time>
      </trkpt>
      <trkpt lat="43.040331" lon="-1.803168">
        <ele>724.0</ele>
        <time>2026-03-01T11:12:02Z</time>
      </trkpt>
      <trkpt lat="43.040367" lon="-1.803175">
        <ele>724.2</ele>
        <time>2026-03-01T11:12:04Z</time>
      </trkpt>
      <trkpt lat="43.040403" lon="-1.803186">
        <ele>725.2</ele>
        <time>2026-03-01T11:12:06Z</time>
      </trkpt>
      <trkpt lat="43.040463" lon="-1.803210">
        <ele>725.8</ele>
        <time>2026-03-01T11:12:09Z</time>
      </trkpt>
      <trkpt lat="43.040505" lon="-1.803235">
        <ele>726.4</ele>
        <time>2026-03-01T11:12:11Z</time>
      </trkpt>
      <trkpt lat="43.040587" lon="-1.803320">
        <ele>727.4</ele>
        <time>2026-03-01T11:12:16Z</time>
      </trkpt>
      <trkpt lat="43.040601" lon="-1.803342">
        <ele>727.4</ele>
        <time>2026-03-01T11:12:17Z</time>
      </trkpt>
      <trkpt lat="43.040659" lon="-1.803508">
        <ele>728.6</ele>
        <time>2026-03-01T11:12:23Z</time>
      </trkpt>
      <trkpt lat="43.040667" lon="-1.803533">
        <ele>728.6</ele>
        <time>2026-03-01T11:12:24Z</time>
      </trkpt>
      <trkpt lat="43.040686" lon="-1.803570">
        <ele>728.8</ele>
        <time>2026-03-01T11:12:26Z</time>
      </trkpt>
      <trkpt lat="43.040699" lon="-1.803611">
        <ele>729.2</ele>
        <time>2026-03-01T11:12:28Z</time>
      </trkpt>
      <trkpt lat="43.040709" lon="-1.803676">
        <ele>729.6</ele>
        <time>2026-03-01T11:12:30Z</time>
      </trkpt>
      <trkpt lat="43.040724" lon="-1.803804">
        <ele>729.8</ele>
        <time>2026-03-01T11:12:34Z</time>
      </trkpt>
      <trkpt lat="43.040718" lon="-1.803945">
        <ele>730.8</ele>
        <time>2026-03-01T11:12:38Z</time>
      </trkpt>
      <trkpt lat="43.040722" lon="-1.803971">
        <ele>730.8</ele>
        <time>2026-03-01T11:12:39Z</time>
      </trkpt>
      <trkpt lat="43.040739" lon="-1.804133">
        <ele>731.6</ele>
        <time>2026-03-01T11:12:45Z</time>
      </trkpt>
      <trkpt lat="43.040746" lon="-1.804175">
        <ele>731.8</ele>
        <time>2026-03-01T11:12:47Z</time>
      </trkpt>
      <trkpt lat="43.040756" lon="-1.804260">
        <ele>733.0</ele>
        <time>2026-03-01T11:12:51Z</time>
      </trkpt>
      <trkpt lat="43.040771" lon="-1.804346">
        <ele>734.0</ele>
        <time>2026-03-01T11:12:54Z</time>
      </trkpt>
      <trkpt lat="43.040772" lon="-1.804408">
        <ele>734.8</ele>
        <time>2026-03-01T11:12:56Z</time>
      </trkpt>
      <trkpt lat="43.040772" lon="-1.804444">
        <ele>735.0</ele>
        <time>2026-03-01T11:12:57Z</time>
      </trkpt>
      <trkpt lat="43.040784" lon="-1.804618">
        <ele>736.0</ele>
        <time>2026-03-01T11:13:02Z</time>
      </trkpt>
      <trkpt lat="43.040794" lon="-1.804656">
        <ele>736.2</ele>
        <time>2026-03-01T11:13:03Z</time>
      </trkpt>
      <trkpt lat="43.040869" lon="-1.804867">
        <ele>736.6</ele>
        <time>2026-03-01T11:13:09Z</time>
      </trkpt>
      <trkpt lat="43.040884" lon="-1.804897">
        <ele>736.6</ele>
        <time>2026-03-01T11:13:10Z</time>
      </trkpt>
      <trkpt lat="43.040940" lon="-1.804985">
        <ele>737.2</ele>
        <time>2026-03-01T11:13:13Z</time>
      </trkpt>
      <trkpt lat="43.041062" lon="-1.805119">
        <ele>737.4</ele>
        <time>2026-03-01T11:13:19Z</time>
      </trkpt>
      <trkpt lat="43.041088" lon="-1.805128">
        <ele>737.4</ele>
        <time>2026-03-01T11:13:20Z</time>
      </trkpt>
      <trkpt lat="43.041183" lon="-1.805234">
        <ele>737.8</ele>
        <time>2026-03-01T11:13:25Z</time>
      </trkpt>
      <trkpt lat="43.041246" lon="-1.805277">
        <ele>737.8</ele>
        <time>2026-03-01T11:13:27Z</time>
      </trkpt>
      <trkpt lat="43.041359" lon="-1.805326">
        <ele>737.8</ele>
        <time>2026-03-01T11:13:31Z</time>
      </trkpt>
      <trkpt lat="43.041393" lon="-1.805345">
        <ele>738.0</ele>
        <time>2026-03-01T11:13:33Z</time>
      </trkpt>
      <trkpt lat="43.041475" lon="-1.805382">
        <ele>738.2</ele>
        <time>2026-03-01T11:13:37Z</time>
      </trkpt>
      <trkpt lat="43.041491" lon="-1.805400">
        <ele>738.4</ele>
        <time>2026-03-01T11:13:38Z</time>
      </trkpt>
      <trkpt lat="43.041585" lon="-1.805495">
        <ele>739.0</ele>
        <time>2026-03-01T11:13:42Z</time>
      </trkpt>
      <trkpt lat="43.041622" lon="-1.805547">
        <ele>739.8</ele>
        <time>2026-03-01T11:13:44Z</time>
      </trkpt>
      <trkpt lat="43.041652" lon="-1.805598">
        <ele>740.4</ele>
        <time>2026-03-01T11:13:46Z</time>
      </trkpt>
      <trkpt lat="43.041678" lon="-1.805646">
        <ele>740.6</ele>
        <time>2026-03-01T11:13:48Z</time>
      </trkpt>
      <trkpt lat="43.041686" lon="-1.805672">
        <ele>740.8</ele>
        <time>2026-03-01T11:13:49Z</time>
      </trkpt>
      <trkpt lat="43.041695" lon="-1.805698">
        <ele>741.0</ele>
        <time>2026-03-01T11:13:50Z</time>
      </trkpt>
      <trkpt lat="43.041693" lon="-1.805760">
        <ele>741.2</ele>
        <time>2026-03-01T11:13:52Z</time>
      </trkpt>
      <trkpt lat="43.041693" lon="-1.805786">
        <ele>741.4</ele>
        <time>2026-03-01T11:13:53Z</time>
      </trkpt>
      <trkpt lat="43.041688" lon="-1.805892">
        <ele>742.2</ele>
        <time>2026-03-01T11:13:56Z</time>
      </trkpt>
      <trkpt lat="43.041675" lon="-1.805971">
        <ele>742.8</ele>
        <time>2026-03-01T11:13:58Z</time>
      </trkpt>
      <trkpt lat="43.041670" lon="-1.806012">
        <ele>743.0</ele>
        <time>2026-03-01T11:13:59Z</time>
      </trkpt>
      <trkpt lat="43.041653" lon="-1.806110">
        <ele>743.4</ele>
        <time>2026-03-01T11:14:01Z</time>
      </trkpt>
      <trkpt lat="43.041658" lon="-1.806182">
        <ele>743.8</ele>
        <time>2026-03-01T11:14:03Z</time>
      </trkpt>
      <trkpt lat="43.041669" lon="-1.806246">
        <ele>744.4</ele>
        <time>2026-03-01T11:14:05Z</time>
      </trkpt>
      <trkpt lat="43.041677" lon="-1.806273">
        <ele>744.6</ele>
        <time>2026-03-01T11:14:06Z</time>
      </trkpt>
      <trkpt lat="43.041731" lon="-1.806358">
        <ele>745.0</ele>
        <time>2026-03-01T11:14:10Z</time>
      </trkpt>
      <trkpt lat="43.041761" lon="-1.806434">
        <ele>745.6</ele>
        <time>2026-03-01T11:14:13Z</time>
      </trkpt>
      <trkpt lat="43.041769" lon="-1.806452">
        <ele>746.2</ele>
        <time>2026-03-01T11:14:14Z</time>
      </trkpt>
      <trkpt lat="43.041785" lon="-1.806460">
        <ele>747.0</ele>
        <time>2026-03-01T11:14:15Z</time>
      </trkpt>
      <trkpt lat="43.041798" lon="-1.806476">
        <ele>747.4</ele>
        <time>2026-03-01T11:14:16Z</time>
      </trkpt>
      <trkpt lat="43.041839" lon="-1.806529">
        <ele>748.0</ele>
        <time>2026-03-01T11:14:19Z</time>
      </trkpt>
      <trkpt lat="43.041898" lon="-1.806611">
        <ele>749.0</ele>
        <time>2026-03-01T11:14:23Z</time>
      </trkpt>
      <trkpt lat="43.041912" lon="-1.806616">
        <ele>749.4</ele>
        <time>2026-03-01T11:14:24Z</time>
      </trkpt>
      <trkpt lat="43.041955" lon="-1.806631">
        <ele>750.0</ele>
        <time>2026-03-01T11:14:27Z</time>
      </trkpt>
      <trkpt lat="43.041994" lon="-1.806650">
        <ele>750.4</ele>
        <time>2026-03-01T11:14:29Z</time>
      </trkpt>
      <trkpt lat="43.042027" lon="-1.806666">
        <ele>750.8</ele>
        <time>2026-03-01T11:14:31Z</time>
      </trkpt>
      <trkpt lat="43.042043" lon="-1.806698">
        <ele>751.0</ele>
        <time>2026-03-01T11:14:33Z</time>
      </trkpt>
      <trkpt lat="43.042072" lon="-1.806728">
        <ele>751.2</ele>
        <time>2026-03-01T11:14:35Z</time>
      </trkpt>
      <trkpt lat="43.042105" lon="-1.806752">
        <ele>751.4</ele>
        <time>2026-03-01T11:14:37Z</time>
      </trkpt>
      <trkpt lat="43.042201" lon="-1.806823">
        <ele>752.0</ele>
        <time>2026-03-01T11:14:42Z</time>
      </trkpt>
      <trkpt lat="43.042221" lon="-1.806841">
        <ele>752.2</ele>
        <time>2026-03-01T11:14:43Z</time>
      </trkpt>
      <trkpt lat="43.042274" lon="-1.806870">
        <ele>752.6</ele>
        <time>2026-03-01T11:14:45Z</time>
      </trkpt>
      <trkpt lat="43.042320" lon="-1.806892">
        <ele>752.8</ele>
        <time>2026-03-01T11:14:47Z</time>
      </trkpt>
      <trkpt lat="43.042392" lon="-1.806950">
        <ele>753.6</ele>
        <time>2026-03-01T11:14:51Z</time>
      </trkpt>
      <trkpt lat="43.042420" lon="-1.806984">
        <ele>754.0</ele>
        <time>2026-03-01T11:14:53Z</time>
      </trkpt>
      <trkpt lat="43.042476" lon="-1.807041">
        <ele>754.2</ele>
        <time>2026-03-01T11:14:57Z</time>
      </trkpt>
      <trkpt lat="43.042530" lon="-1.807079">
        <ele>754.8</ele>
        <time>2026-03-01T11:15:00Z</time>
      </trkpt>
      <trkpt lat="43.042606" lon="-1.807147">
        <ele>756.0</ele>
        <time>2026-03-01T11:15:05Z</time>
      </trkpt>
      <trkpt lat="43.042633" lon="-1.807171">
        <ele>756.4</ele>
        <time>2026-03-01T11:15:07Z</time>
      </trkpt>
      <trkpt lat="43.042701" lon="-1.807220">
        <ele>757.0</ele>
        <time>2026-03-01T11:15:11Z</time>
      </trkpt>
      <trkpt lat="43.042716" lon="-1.807232">
        <ele>757.2</ele>
        <time>2026-03-01T11:15:12Z</time>
      </trkpt>
      <trkpt lat="43.042767" lon="-1.807287">
        <ele>758.2</ele>
        <time>2026-03-01T11:15:16Z</time>
      </trkpt>
      <trkpt lat="43.042804" lon="-1.807308">
        <ele>758.8</ele>
        <time>2026-03-01T11:15:19Z</time>
      </trkpt>
      <trkpt lat="43.042815" lon="-1.807314">
        <ele>759.2</ele>
        <time>2026-03-01T11:15:20Z</time>
      </trkpt>
      <trkpt lat="43.042825" lon="-1.807322">
        <ele>759.4</ele>
        <time>2026-03-01T11:15:21Z</time>
      </trkpt>
      <trkpt lat="43.042836" lon="-1.807335">
        <ele>759.6</ele>
        <time>2026-03-01T11:15:22Z</time>
      </trkpt>
      <trkpt lat="43.042888" lon="-1.807366">
        <ele>760.4</ele>
        <time>2026-03-01T11:15:26Z</time>
      </trkpt>
      <trkpt lat="43.042902" lon="-1.807376">
        <ele>760.4</ele>
        <time>2026-03-01T11:15:27Z</time>
      </trkpt>
      <trkpt lat="43.042973" lon="-1.807427">
        <ele>761.6</ele>
        <time>2026-03-01T11:15:32Z</time>
      </trkpt>
      <trkpt lat="43.043034" lon="-1.807472">
        <ele>762.6</ele>
        <time>2026-03-01T11:15:37Z</time>
      </trkpt>
      <trkpt lat="43.043043" lon="-1.807477">
        <ele>763.0</ele>
        <time>2026-03-01T11:15:38Z</time>
      </trkpt>
      <trkpt lat="43.043067" lon="-1.807493">
        <ele>764.0</ele>
        <time>2026-03-01T11:15:40Z</time>
      </trkpt>
      <trkpt lat="43.043091" lon="-1.807527">
        <ele>765.0</ele>
        <time>2026-03-01T11:15:43Z</time>
      </trkpt>
      <trkpt lat="43.043101" lon="-1.807533">
        <ele>765.2</ele>
        <time>2026-03-01T11:15:44Z</time>
      </trkpt>
      <trkpt lat="43.043149" lon="-1.807554">
        <ele>766.0</ele>
        <time>2026-03-01T11:15:48Z</time>
      </trkpt>
      <trkpt lat="43.043170" lon="-1.807565">
        <ele>767.0</ele>
        <time>2026-03-01T11:15:50Z</time>
      </trkpt>
      <trkpt lat="43.043179" lon="-1.807565">
        <ele>767.2</ele>
        <time>2026-03-01T11:15:51Z</time>
      </trkpt>
      <trkpt lat="43.043243" lon="-1.807586">
        <ele>768.2</ele>
        <time>2026-03-01T11:15:56Z</time>
      </trkpt>
      <trkpt lat="43.043251" lon="-1.807592">
        <ele>768.4</ele>
        <time>2026-03-01T11:15:57Z</time>
      </trkpt>
      <trkpt lat="43.043262" lon="-1.807605">
        <ele>768.6</ele>
        <time>2026-03-01T11:15:58Z</time>
      </trkpt>
      <trkpt lat="43.043286" lon="-1.807621">
        <ele>769.0</ele>
        <time>2026-03-01T11:16:00Z</time>
      </trkpt>
      <trkpt lat="43.043298" lon="-1.807621">
        <ele>769.0</ele>
        <time>2026-03-01T11:16:01Z</time>
      </trkpt>
      <trkpt lat="43.043307" lon="-1.807626">
        <ele>769.4</ele>
        <time>2026-03-01T11:16:02Z</time>
      </trkpt>
      <trkpt lat="43.043317" lon="-1.807633">
        <ele>769.6</ele>
        <time>2026-03-01T11:16:03Z</time>
      </trkpt>
      <trkpt lat="43.043335" lon="-1.807648">
        <ele>770.2</ele>
        <time>2026-03-01T11:16:05Z</time>
      </trkpt>
      <trkpt lat="43.043359" lon="-1.807654">
        <ele>770.4</ele>
        <time>2026-03-01T11:16:07Z</time>
      </trkpt>
      <trkpt lat="43.043388" lon="-1.807661">
        <ele>770.8</ele>
        <time>2026-03-01T11:16:09Z</time>
      </trkpt>
      <trkpt lat="43.043410" lon="-1.807683">
        <ele>771.0</ele>
        <time>2026-03-01T11:16:11Z</time>
      </trkpt>
      <trkpt lat="43.043429" lon="-1.807712">
        <ele>771.2</ele>
        <time>2026-03-01T11:16:13Z</time>
      </trkpt>
      <trkpt lat="43.043459" lon="-1.807742">
        <ele>771.8</ele>
        <time>2026-03-01T11:16:16Z</time>
      </trkpt>
      <trkpt lat="43.043487" lon="-1.807771">
        <ele>772.4</ele>
        <time>2026-03-01T11:16:19Z</time>
      </trkpt>
      <trkpt lat="43.043503" lon="-1.807786">
        <ele>773.0</ele>
        <time>2026-03-01T11:16:21Z</time>
      </trkpt>
      <trkpt lat="43.043542" lon="-1.807834">
        <ele>774.2</ele>
        <time>2026-03-01T11:16:26Z</time>
      </trkpt>
      <trkpt lat="43.043549" lon="-1.807845">
        <ele>774.8</ele>
        <time>2026-03-01T11:16:27Z</time>
      </trkpt>
      <trkpt lat="43.043568" lon="-1.807866">
        <ele>775.4</ele>
        <time>2026-03-01T11:16:29Z</time>
      </trkpt>
      <trkpt lat="43.043599" lon="-1.807882">
        <ele>776.0</ele>
        <time>2026-03-01T11:16:32Z</time>
      </trkpt>
      <trkpt lat="43.043632" lon="-1.807905">
        <ele>776.4</ele>
        <time>2026-03-01T11:16:36Z</time>
      </trkpt>
      <trkpt lat="43.043651" lon="-1.807918">
        <ele>776.8</ele>
        <time>2026-03-01T11:16:38Z</time>
      </trkpt>
      <trkpt lat="43.043663" lon="-1.807948">
        <ele>777.4</ele>
        <time>2026-03-01T11:16:40Z</time>
      </trkpt>
      <trkpt lat="43.043671" lon="-1.807961">
        <ele>777.8</ele>
        <time>2026-03-01T11:16:41Z</time>
      </trkpt>
      <trkpt lat="43.043698" lon="-1.807981">
        <ele>778.2</ele>
        <time>2026-03-01T11:16:44Z</time>
      </trkpt>
      <trkpt lat="43.043719" lon="-1.807998">
        <ele>778.6</ele>
        <time>2026-03-01T11:16:46Z</time>
      </trkpt>
      <trkpt lat="43.043760" lon="-1.808028">
        <ele>779.8</ele>
        <time>2026-03-01T11:16:50Z</time>
      </trkpt>
      <trkpt lat="43.043774" lon="-1.808050">
        <ele>780.2</ele>
        <time>2026-03-01T11:16:52Z</time>
      </trkpt>
      <trkpt lat="43.043782" lon="-1.808059">
        <ele>780.4</ele>
        <time>2026-03-01T11:16:53Z</time>
      </trkpt>
      <trkpt lat="43.043800" lon="-1.808075">
        <ele>781.0</ele>
        <time>2026-03-01T11:16:55Z</time>
      </trkpt>
      <trkpt lat="43.043808" lon="-1.808084">
        <ele>781.4</ele>
        <time>2026-03-01T11:16:56Z</time>
      </trkpt>
      <trkpt lat="43.043837" lon="-1.808110">
        <ele>782.0</ele>
        <time>2026-03-01T11:16:59Z</time>
      </trkpt>
      <trkpt lat="43.043847" lon="-1.808119">
        <ele>782.2</ele>
        <time>2026-03-01T11:17:00Z</time>
      </trkpt>
      <trkpt lat="43.043859" lon="-1.808118">
        <ele>782.6</ele>
        <time>2026-03-01T11:17:01Z</time>
      </trkpt>
      <trkpt lat="43.043872" lon="-1.808121">
        <ele>782.8</ele>
        <time>2026-03-01T11:17:02Z</time>
      </trkpt>
      <trkpt lat="43.043904" lon="-1.808142">
        <ele>783.2</ele>
        <time>2026-03-01T11:17:05Z</time>
      </trkpt>
      <trkpt lat="43.043915" lon="-1.808148">
        <ele>783.6</ele>
        <time>2026-03-01T11:17:06Z</time>
      </trkpt>
      <trkpt lat="43.043957" lon="-1.808172">
        <ele>784.6</ele>
        <time>2026-03-01T11:17:10Z</time>
      </trkpt>
      <trkpt lat="43.043978" lon="-1.808178">
        <ele>785.0</ele>
        <time>2026-03-01T11:17:12Z</time>
      </trkpt>
      <trkpt lat="43.044005" lon="-1.808197">
        <ele>785.6</ele>
        <time>2026-03-01T11:17:15Z</time>
      </trkpt>
      <trkpt lat="43.044013" lon="-1.808203">
        <ele>785.8</ele>
        <time>2026-03-01T11:17:16Z</time>
      </trkpt>
      <trkpt lat="43.044025" lon="-1.808215">
        <ele>786.2</ele>
        <time>2026-03-01T11:17:18Z</time>
      </trkpt>
      <trkpt lat="43.044060" lon="-1.808238">
        <ele>786.8</ele>
        <time>2026-03-01T11:17:22Z</time>
      </trkpt>
      <trkpt lat="43.044077" lon="-1.808236">
        <ele>787.2</ele>
        <time>2026-03-01T11:17:24Z</time>
      </trkpt>
      <trkpt lat="43.044102" lon="-1.808249">
        <ele>788.0</ele>
        <time>2026-03-01T11:17:27Z</time>
      </trkpt>
      <trkpt lat="43.044113" lon="-1.808258">
        <ele>788.2</ele>
        <time>2026-03-01T11:17:28Z</time>
      </trkpt>
      <trkpt lat="43.044123" lon="-1.808261">
        <ele>788.4</ele>
        <time>2026-03-01T11:17:29Z</time>
      </trkpt>
      <trkpt lat="43.044133" lon="-1.808262">
        <ele>788.4</ele>
        <time>2026-03-01T11:17:30Z</time>
      </trkpt>
      <trkpt lat="43.044176" lon="-1.808287">
        <ele>789.0</ele>
        <time>2026-03-01T11:17:34Z</time>
      </trkpt>
      <trkpt lat="43.044198" lon="-1.808311">
        <ele>789.6</ele>
        <time>2026-03-01T11:17:36Z</time>
      </trkpt>
      <trkpt lat="43.044212" lon="-1.808321">
        <ele>789.8</ele>
        <time>2026-03-01T11:17:37Z</time>
      </trkpt>
      <trkpt lat="43.044228" lon="-1.808325">
        <ele>790.2</ele>
        <time>2026-03-01T11:17:38Z</time>
      </trkpt>
      <trkpt lat="43.044271" lon="-1.808349">
        <ele>791.0</ele>
        <time>2026-03-01T11:17:42Z</time>
      </trkpt>
      <trkpt lat="43.044280" lon="-1.808364">
        <ele>791.2</ele>
        <time>2026-03-01T11:17:43Z</time>
      </trkpt>
      <trkpt lat="43.044292" lon="-1.808375">
        <ele>791.4</ele>
        <time>2026-03-01T11:17:44Z</time>
      </trkpt>
      <trkpt lat="43.044348" lon="-1.808376">
        <ele>792.2</ele>
        <time>2026-03-01T11:17:48Z</time>
      </trkpt>
      <trkpt lat="43.044359" lon="-1.808379">
        <ele>792.4</ele>
        <time>2026-03-01T11:17:49Z</time>
      </trkpt>
      <trkpt lat="43.044371" lon="-1.808386">
        <ele>792.6</ele>
        <time>2026-03-01T11:17:50Z</time>
      </trkpt>
      <trkpt lat="43.044392" lon="-1.808401">
        <ele>793.0</ele>
        <time>2026-03-01T11:17:52Z</time>
      </trkpt>
      <trkpt lat="43.044404" lon="-1.808403">
        <ele>793.4</ele>
        <time>2026-03-01T11:17:53Z</time>
      </trkpt>
      <trkpt lat="43.044413" lon="-1.808405">
        <ele>793.8</ele>
        <time>2026-03-01T11:17:54Z</time>
      </trkpt>
      <trkpt lat="43.044430" lon="-1.808415">
        <ele>794.0</ele>
        <time>2026-03-01T11:17:56Z</time>
      </trkpt>
      <trkpt lat="43.044449" lon="-1.808424">
        <ele>794.4</ele>
        <time>2026-03-01T11:17:58Z</time>
      </trkpt>
      <trkpt lat="43.044466" lon="-1.808435">
        <ele>794.6</ele>
        <time>2026-03-01T11:18:00Z</time>
      </trkpt>
      <trkpt lat="43.044479" lon="-1.808435">
        <ele>795.0</ele>
        <time>2026-03-01T11:18:01Z</time>
      </trkpt>
      <trkpt lat="43.044506" lon="-1.808442">
        <ele>795.8</ele>
        <time>2026-03-01T11:18:04Z</time>
      </trkpt>
      <trkpt lat="43.044517" lon="-1.808451">
        <ele>796.0</ele>
        <time>2026-03-01T11:18:05Z</time>
      </trkpt>
      <trkpt lat="43.044563" lon="-1.808464">
        <ele>796.8</ele>
        <time>2026-03-01T11:18:10Z</time>
      </trkpt>
      <trkpt lat="43.044574" lon="-1.808467">
        <ele>797.2</ele>
        <time>2026-03-01T11:18:11Z</time>
      </trkpt>
      <trkpt lat="43.044584" lon="-1.808473">
        <ele>797.4</ele>
        <time>2026-03-01T11:18:12Z</time>
      </trkpt>
      <trkpt lat="43.044592" lon="-1.808482">
        <ele>797.4</ele>
        <time>2026-03-01T11:18:13Z</time>
      </trkpt>
      <trkpt lat="43.044611" lon="-1.808498">
        <ele>798.0</ele>
        <time>2026-03-01T11:18:15Z</time>
      </trkpt>
      <trkpt lat="43.044626" lon="-1.808502">
        <ele>798.2</ele>
        <time>2026-03-01T11:18:16Z</time>
      </trkpt>
      <trkpt lat="43.044715" lon="-1.808525">
        <ele>799.2</ele>
        <time>2026-03-01T11:18:23Z</time>
      </trkpt>
      <trkpt lat="43.044737" lon="-1.808535">
        <ele>799.8</ele>
        <time>2026-03-01T11:18:25Z</time>
      </trkpt>
      <trkpt lat="43.044775" lon="-1.808549">
        <ele>800.4</ele>
        <time>2026-03-01T11:18:28Z</time>
      </trkpt>
      <trkpt lat="43.044806" lon="-1.808551">
        <ele>800.6</ele>
        <time>2026-03-01T11:18:30Z</time>
      </trkpt>
      <trkpt lat="43.044883" lon="-1.808545">
        <ele>801.4</ele>
        <time>2026-03-01T11:18:35Z</time>
      </trkpt>
      <trkpt lat="43.044900" lon="-1.808549">
        <ele>801.6</ele>
        <time>2026-03-01T11:18:36Z</time>
      </trkpt>
      <trkpt lat="43.044989" lon="-1.808540">
        <ele>802.4</ele>
        <time>2026-03-01T11:18:42Z</time>
      </trkpt>
      <trkpt lat="43.045027" lon="-1.808547">
        <ele>802.6</ele>
        <time>2026-03-01T11:18:44Z</time>
      </trkpt>
      <trkpt lat="43.045091" lon="-1.808569">
        <ele>802.8</ele>
        <time>2026-03-01T11:18:48Z</time>
      </trkpt>
      <trkpt lat="43.045099" lon="-1.808578">
        <ele>802.8</ele>
        <time>2026-03-01T11:18:49Z</time>
      </trkpt>
      <trkpt lat="43.045136" lon="-1.808642">
        <ele>803.2</ele>
        <time>2026-03-01T11:18:54Z</time>
      </trkpt>
      <trkpt lat="43.045140" lon="-1.808665">
        <ele>803.4</ele>
        <time>2026-03-01T11:18:56Z</time>
      </trkpt>
      <trkpt lat="43.045140" lon="-1.808672">
        <ele>803.6</ele>
        <time>2026-03-01T11:18:58Z</time>
      </trkpt>
      <trkpt lat="43.045139" lon="-1.808661">
        <ele>803.6</ele>
        <time>2026-03-01T11:19:00Z</time>
      </trkpt>
      <trkpt lat="43.045141" lon="-1.808623">
        <ele>803.8</ele>
        <time>2026-03-01T11:19:06Z</time>
      </trkpt>
      <trkpt lat="43.045143" lon="-1.808626">
        <ele>803.8</ele>
        <time>2026-03-01T11:19:11Z</time>
      </trkpt>
      <trkpt lat="43.045138" lon="-1.808638">
        <ele>804.0</ele>
        <time>2026-03-01T11:19:17Z</time>
      </trkpt>
      <trkpt lat="43.045132" lon="-1.808654">
        <ele>804.0</ele>
        <time>2026-03-01T11:19:19Z</time>
      </trkpt>
      <trkpt lat="43.045157" lon="-1.808689">
        <ele>804.0</ele>
        <time>2026-03-01T11:19:23Z</time>
      </trkpt>
      <trkpt lat="43.045156" lon="-1.808714">
        <ele>804.0</ele>
        <time>2026-03-01T11:19:24Z</time>
      </trkpt>
      <trkpt lat="43.045154" lon="-1.808744">
        <ele>804.0</ele>
        <time>2026-03-01T11:19:25Z</time>
      </trkpt>
      <trkpt lat="43.045162" lon="-1.808762">
        <ele>804.2</ele>
        <time>2026-03-01T11:19:26Z</time>
      </trkpt>
      <trkpt lat="43.045171" lon="-1.808781">
        <ele>804.2</ele>
        <time>2026-03-01T11:19:27Z</time>
      </trkpt>
      <trkpt lat="43.045180" lon="-1.808800">
        <ele>804.4</ele>
        <time>2026-03-01T11:19:28Z</time>
      </trkpt>
      <trkpt lat="43.045184" lon="-1.808823">
        <ele>804.6</ele>
        <time>2026-03-01T11:19:29Z</time>
      </trkpt>
      <trkpt lat="43.045184" lon="-1.808894">
        <ele>805.2</ele>
        <time>2026-03-01T11:19:32Z</time>
      </trkpt>
      <trkpt lat="43.045188" lon="-1.808909">
        <ele>805.6</ele>
        <time>2026-03-01T11:19:33Z</time>
      </trkpt>
      <trkpt lat="43.045192" lon="-1.809017">
        <ele>806.4</ele>
        <time>2026-03-01T11:19:37Z</time>
      </trkpt>
      <trkpt lat="43.045201" lon="-1.809043">
        <ele>807.0</ele>
        <time>2026-03-01T11:19:38Z</time>
      </trkpt>
      <trkpt lat="43.045218" lon="-1.809090">
        <ele>807.6</ele>
        <time>2026-03-01T11:19:40Z</time>
      </trkpt>
      <trkpt lat="43.045225" lon="-1.809147">
        <ele>807.8</ele>
        <time>2026-03-01T11:19:42Z</time>
      </trkpt>
      <trkpt lat="43.045222" lon="-1.809181">
        <ele>808.2</ele>
        <time>2026-03-01T11:19:43Z</time>
      </trkpt>
      <trkpt lat="43.045226" lon="-1.809201">
        <ele>808.2</ele>
        <time>2026-03-01T11:19:44Z</time>
      </trkpt>
      <trkpt lat="43.045213" lon="-1.809377">
        <ele>809.0</ele>
        <time>2026-03-01T11:19:49Z</time>
      </trkpt>
      <trkpt lat="43.045195" lon="-1.809467">
        <ele>809.2</ele>
        <time>2026-03-01T11:19:51Z</time>
      </trkpt>
      <trkpt lat="43.045190" lon="-1.809606">
        <ele>810.2</ele>
        <time>2026-03-01T11:19:55Z</time>
      </trkpt>
      <trkpt lat="43.045191" lon="-1.809645">
        <ele>810.6</ele>
        <time>2026-03-01T11:19:56Z</time>
      </trkpt>
      <trkpt lat="43.045226" lon="-1.809787">
        <ele>811.0</ele>
        <time>2026-03-01T11:20:01Z</time>
      </trkpt>
      <trkpt lat="43.045231" lon="-1.809868">
        <ele>811.8</ele>
        <time>2026-03-01T11:20:04Z</time>
      </trkpt>
      <trkpt lat="43.045204" lon="-1.809933">
        <ele>812.2</ele>
        <time>2026-03-01T11:20:06Z</time>
      </trkpt>
      <trkpt lat="43.045153" lon="-1.810177">
        <ele>812.6</ele>
        <time>2026-03-01T11:20:12Z</time>
      </trkpt>
      <trkpt lat="43.045155" lon="-1.810204">
        <ele>813.0</ele>
        <time>2026-03-01T11:20:13Z</time>
      </trkpt>
      <trkpt lat="43.045163" lon="-1.810269">
        <ele>814.0</ele>
        <time>2026-03-01T11:20:16Z</time>
      </trkpt>
      <trkpt lat="43.045166" lon="-1.810290">
        <ele>814.6</ele>
        <time>2026-03-01T11:20:17Z</time>
      </trkpt>
      <trkpt lat="43.045170" lon="-1.810312">
        <ele>815.2</ele>
        <time>2026-03-01T11:20:18Z</time>
      </trkpt>
      <trkpt lat="43.045187" lon="-1.810414">
        <ele>816.4</ele>
        <time>2026-03-01T11:20:22Z</time>
      </trkpt>
      <trkpt lat="43.045209" lon="-1.810479">
        <ele>818.0</ele>
        <time>2026-03-01T11:20:25Z</time>
      </trkpt>
      <trkpt lat="43.045232" lon="-1.810556">
        <ele>819.2</ele>
        <time>2026-03-01T11:20:29Z</time>
      </trkpt>
      <trkpt lat="43.045239" lon="-1.810568">
        <ele>819.4</ele>
        <time>2026-03-01T11:20:30Z</time>
      </trkpt>
      <trkpt lat="43.045244" lon="-1.810583">
        <ele>819.6</ele>
        <time>2026-03-01T11:20:31Z</time>
      </trkpt>
      <trkpt lat="43.045263" lon="-1.810613">
        <ele>820.4</ele>
        <time>2026-03-01T11:20:33Z</time>
      </trkpt>
      <trkpt lat="43.045282" lon="-1.810653">
        <ele>821.2</ele>
        <time>2026-03-01T11:20:36Z</time>
      </trkpt>
      <trkpt lat="43.045290" lon="-1.810666">
        <ele>821.6</ele>
        <time>2026-03-01T11:20:37Z</time>
      </trkpt>
      <trkpt lat="43.045313" lon="-1.810711">
        <ele>822.8</ele>
        <time>2026-03-01T11:20:40Z</time>
      </trkpt>
      <trkpt lat="43.045335" lon="-1.810745">
        <ele>823.4</ele>
        <time>2026-03-01T11:20:42Z</time>
      </trkpt>
      <trkpt lat="43.045367" lon="-1.810816">
        <ele>824.0</ele>
        <time>2026-03-01T11:20:44Z</time>
      </trkpt>
      <trkpt lat="43.045420" lon="-1.810916">
        <ele>825.0</ele>
        <time>2026-03-01T11:20:49Z</time>
      </trkpt>
      <trkpt lat="43.045467" lon="-1.811024">
        <ele>826.0</ele>
        <time>2026-03-01T11:20:55Z</time>
      </trkpt>
      <trkpt lat="43.045485" lon="-1.811041">
        <ele>826.4</ele>
        <time>2026-03-01T11:20:57Z</time>
      </trkpt>
      <trkpt lat="43.045507" lon="-1.811107">
        <ele>827.2</ele>
        <time>2026-03-01T11:21:01Z</time>
      </trkpt>
      <trkpt lat="43.045530" lon="-1.811148">
        <ele>828.0</ele>
        <time>2026-03-01T11:21:04Z</time>
      </trkpt>
      <trkpt lat="43.045540" lon="-1.811158">
        <ele>828.4</ele>
        <time>2026-03-01T11:21:05Z</time>
      </trkpt>
      <trkpt lat="43.045551" lon="-1.811169">
        <ele>828.8</ele>
        <time>2026-03-01T11:21:06Z</time>
      </trkpt>
      <trkpt lat="43.045578" lon="-1.811200">
        <ele>829.6</ele>
        <time>2026-03-01T11:21:09Z</time>
      </trkpt>
      <trkpt lat="43.045586" lon="-1.811210">
        <ele>829.8</ele>
        <time>2026-03-01T11:21:10Z</time>
      </trkpt>
      <trkpt lat="43.045614" lon="-1.811250">
        <ele>830.4</ele>
        <time>2026-03-01T11:21:13Z</time>
      </trkpt>
      <trkpt lat="43.045622" lon="-1.811258">
        <ele>830.6</ele>
        <time>2026-03-01T11:21:14Z</time>
      </trkpt>
      <trkpt lat="43.045638" lon="-1.811271">
        <ele>831.2</ele>
        <time>2026-03-01T11:21:16Z</time>
      </trkpt>
      <trkpt lat="43.045667" lon="-1.811302">
        <ele>831.8</ele>
        <time>2026-03-01T11:21:19Z</time>
      </trkpt>
      <trkpt lat="43.045738" lon="-1.811384">
        <ele>832.8</ele>
        <time>2026-03-01T11:21:25Z</time>
      </trkpt>
      <trkpt lat="43.045805" lon="-1.811448">
        <ele>833.8</ele>
        <time>2026-03-01T11:21:30Z</time>
      </trkpt>
      <trkpt lat="43.045815" lon="-1.811457">
        <ele>833.8</ele>
        <time>2026-03-01T11:21:31Z</time>
      </trkpt>
      <trkpt lat="43.045828" lon="-1.811466">
        <ele>834.0</ele>
        <time>2026-03-01T11:21:32Z</time>
      </trkpt>
      <trkpt lat="43.045905" lon="-1.811521">
        <ele>835.0</ele>
        <time>2026-03-01T11:21:37Z</time>
      </trkpt>
      <trkpt lat="43.045929" lon="-1.811539">
        <ele>835.6</ele>
        <time>2026-03-01T11:21:40Z</time>
      </trkpt>
      <trkpt lat="43.045954" lon="-1.811544">
        <ele>836.2</ele>
        <time>2026-03-01T11:21:42Z</time>
      </trkpt>
      <trkpt lat="43.046013" lon="-1.811591">
        <ele>837.4</ele>
        <time>2026-03-01T11:21:47Z</time>
      </trkpt>
      <trkpt lat="43.046060" lon="-1.811626">
        <ele>838.6</ele>
        <time>2026-03-01T11:21:52Z</time>
      </trkpt>
      <trkpt lat="43.046073" lon="-1.811633">
        <ele>839.0</ele>
        <time>2026-03-01T11:21:53Z</time>
      </trkpt>
      <trkpt lat="43.046115" lon="-1.811668">
        <ele>839.6</ele>
        <time>2026-03-01T11:21:56Z</time>
      </trkpt>
      <trkpt lat="43.046148" lon="-1.811701">
        <ele>840.4</ele>
        <time>2026-03-01T11:21:59Z</time>
      </trkpt>
      <trkpt lat="43.046166" lon="-1.811708">
        <ele>840.6</ele>
        <time>2026-03-01T11:22:00Z</time>
      </trkpt>
      <trkpt lat="43.046198" lon="-1.811727">
        <ele>840.6</ele>
        <time>2026-03-01T11:22:02Z</time>
      </trkpt>
      <trkpt lat="43.046215" lon="-1.811738">
        <ele>840.8</ele>
        <time>2026-03-01T11:22:03Z</time>
      </trkpt>
      <trkpt lat="43.046238" lon="-1.811753">
        <ele>841.2</ele>
        <time>2026-03-01T11:22:05Z</time>
      </trkpt>
      <trkpt lat="43.046248" lon="-1.811762">
        <ele>841.6</ele>
        <time>2026-03-01T11:22:06Z</time>
      </trkpt>
      <trkpt lat="43.046256" lon="-1.811772">
        <ele>841.8</ele>
        <time>2026-03-01T11:22:07Z</time>
      </trkpt>
      <trkpt lat="43.046263" lon="-1.811785">
        <ele>842.0</ele>
        <time>2026-03-01T11:22:08Z</time>
      </trkpt>
      <trkpt lat="43.046377" lon="-1.811861">
        <ele>842.6</ele>
        <time>2026-03-01T11:22:14Z</time>
      </trkpt>
      <trkpt lat="43.046431" lon="-1.811903">
        <ele>843.0</ele>
        <time>2026-03-01T11:22:17Z</time>
      </trkpt>
      <trkpt lat="43.046461" lon="-1.811919">
        <ele>843.4</ele>
        <time>2026-03-01T11:22:19Z</time>
      </trkpt>
      <trkpt lat="43.046477" lon="-1.811926">
        <ele>843.8</ele>
        <time>2026-03-01T11:22:20Z</time>
      </trkpt>
      <trkpt lat="43.046491" lon="-1.811933">
        <ele>844.0</ele>
        <time>2026-03-01T11:22:21Z</time>
      </trkpt>
      <trkpt lat="43.046534" lon="-1.811943">
        <ele>844.2</ele>
        <time>2026-03-01T11:22:23Z</time>
      </trkpt>
      <trkpt lat="43.046575" lon="-1.811966">
        <ele>845.0</ele>
        <time>2026-03-01T11:22:26Z</time>
      </trkpt>
      <trkpt lat="43.046582" lon="-1.811973">
        <ele>845.2</ele>
        <time>2026-03-01T11:22:27Z</time>
      </trkpt>
      <trkpt lat="43.046586" lon="-1.811982">
        <ele>845.6</ele>
        <time>2026-03-01T11:22:28Z</time>
      </trkpt>
      <trkpt lat="43.046595" lon="-1.811988">
        <ele>846.0</ele>
        <time>2026-03-01T11:22:29Z</time>
      </trkpt>
      <trkpt lat="43.046605" lon="-1.811992">
        <ele>846.4</ele>
        <time>2026-03-01T11:22:30Z</time>
      </trkpt>
      <trkpt lat="43.046623" lon="-1.812025">
        <ele>847.2</ele>
        <time>2026-03-01T11:22:33Z</time>
      </trkpt>
      <trkpt lat="43.046627" lon="-1.812052">
        <ele>847.4</ele>
        <time>2026-03-01T11:22:34Z</time>
      </trkpt>
      <trkpt lat="43.046642" lon="-1.812092">
        <ele>848.8</ele>
        <time>2026-03-01T11:22:37Z</time>
      </trkpt>
      <trkpt lat="43.046645" lon="-1.812105">
        <ele>849.2</ele>
        <time>2026-03-01T11:22:38Z</time>
      </trkpt>
      <trkpt lat="43.046650" lon="-1.812155">
        <ele>849.4</ele>
        <time>2026-03-01T11:22:40Z</time>
      </trkpt>
      <trkpt lat="43.046668" lon="-1.812209">
        <ele>849.8</ele>
        <time>2026-03-01T11:22:43Z</time>
      </trkpt>
      <trkpt lat="43.046686" lon="-1.812248">
        <ele>850.0</ele>
        <time>2026-03-01T11:22:45Z</time>
      </trkpt>
      <trkpt lat="43.046690" lon="-1.812265">
        <ele>850.0</ele>
        <time>2026-03-01T11:22:46Z</time>
      </trkpt>
      <trkpt lat="43.046732" lon="-1.812343">
        <ele>850.6</ele>
        <time>2026-03-01T11:22:51Z</time>
      </trkpt>
      <trkpt lat="43.046739" lon="-1.812366">
        <ele>850.6</ele>
        <time>2026-03-01T11:22:52Z</time>
      </trkpt>
      <trkpt lat="43.046748" lon="-1.812385">
        <ele>850.6</ele>
        <time>2026-03-01T11:22:53Z</time>
      </trkpt>
      <trkpt lat="43.046768" lon="-1.812419">
        <ele>850.8</ele>
        <time>2026-03-01T11:22:55Z</time>
      </trkpt>
      <trkpt lat="43.046779" lon="-1.812440">
        <ele>850.8</ele>
        <time>2026-03-01T11:22:56Z</time>
      </trkpt>
      <trkpt lat="43.046790" lon="-1.812457">
        <ele>850.8</ele>
        <time>2026-03-01T11:22:57Z</time>
      </trkpt>
      <trkpt lat="43.046812" lon="-1.812544">
        <ele>851.2</ele>
        <time>2026-03-01T11:23:01Z</time>
      </trkpt>
      <trkpt lat="43.046822" lon="-1.812602">
        <ele>851.8</ele>
        <time>2026-03-01T11:23:03Z</time>
      </trkpt>
      <trkpt lat="43.046844" lon="-1.812659">
        <ele>853.0</ele>
        <time>2026-03-01T11:23:06Z</time>
      </trkpt>
      <trkpt lat="43.046881" lon="-1.812717">
        <ele>853.2</ele>
        <time>2026-03-01T11:23:09Z</time>
      </trkpt>
      <trkpt lat="43.046910" lon="-1.812820">
        <ele>853.8</ele>
        <time>2026-03-01T11:23:13Z</time>
      </trkpt>
      <trkpt lat="43.046917" lon="-1.812832">
        <ele>853.8</ele>
        <time>2026-03-01T11:23:14Z</time>
      </trkpt>
      <trkpt lat="43.046925" lon="-1.812846">
        <ele>854.4</ele>
        <time>2026-03-01T11:23:15Z</time>
      </trkpt>
      <trkpt lat="43.046940" lon="-1.812872">
        <ele>855.0</ele>
        <time>2026-03-01T11:23:17Z</time>
      </trkpt>
      <trkpt lat="43.046947" lon="-1.812889">
        <ele>855.4</ele>
        <time>2026-03-01T11:23:18Z</time>
      </trkpt>
      <trkpt lat="43.046953" lon="-1.812906">
        <ele>856.0</ele>
        <time>2026-03-01T11:23:19Z</time>
      </trkpt>
      <trkpt lat="43.046981" lon="-1.812946">
        <ele>856.4</ele>
        <time>2026-03-01T11:23:22Z</time>
      </trkpt>
      <trkpt lat="43.047000" lon="-1.813002">
        <ele>857.0</ele>
        <time>2026-03-01T11:23:25Z</time>
      </trkpt>
      <trkpt lat="43.047011" lon="-1.813036">
        <ele>857.6</ele>
        <time>2026-03-01T11:23:27Z</time>
      </trkpt>
      <trkpt lat="43.047036" lon="-1.813086">
        <ele>858.8</ele>
        <time>2026-03-01T11:23:31Z</time>
      </trkpt>
      <trkpt lat="43.047043" lon="-1.813108">
        <ele>859.2</ele>
        <time>2026-03-01T11:23:32Z</time>
      </trkpt>
      <trkpt lat="43.047059" lon="-1.813144">
        <ele>859.8</ele>
        <time>2026-03-01T11:23:34Z</time>
      </trkpt>
      <trkpt lat="43.047064" lon="-1.813213">
        <ele>860.8</ele>
        <time>2026-03-01T11:23:37Z</time>
      </trkpt>
      <trkpt lat="43.047070" lon="-1.813298">
        <ele>861.6</ele>
        <time>2026-03-01T11:23:40Z</time>
      </trkpt>
      <trkpt lat="43.047073" lon="-1.813317">
        <ele>862.0</ele>
        <time>2026-03-01T11:23:41Z</time>
      </trkpt>
      <trkpt lat="43.047105" lon="-1.813419">
        <ele>862.6</ele>
        <time>2026-03-01T11:23:46Z</time>
      </trkpt>
      <trkpt lat="43.047120" lon="-1.813459">
        <ele>863.0</ele>
        <time>2026-03-01T11:23:48Z</time>
      </trkpt>
      <trkpt lat="43.047156" lon="-1.813524">
        <ele>863.6</ele>
        <time>2026-03-01T11:23:52Z</time>
      </trkpt>
      <trkpt lat="43.047185" lon="-1.813548">
        <ele>863.8</ele>
        <time>2026-03-01T11:23:54Z</time>
      </trkpt>
      <trkpt lat="43.047202" lon="-1.813565">
        <ele>864.0</ele>
        <time>2026-03-01T11:23:55Z</time>
      </trkpt>
      <trkpt lat="43.047217" lon="-1.813603">
        <ele>864.2</ele>
        <time>2026-03-01T11:23:57Z</time>
      </trkpt>
      <trkpt lat="43.047223" lon="-1.813622">
        <ele>864.4</ele>
        <time>2026-03-01T11:23:58Z</time>
      </trkpt>
      <trkpt lat="43.047267" lon="-1.813691">
        <ele>865.2</ele>
        <time>2026-03-01T11:24:02Z</time>
      </trkpt>
      <trkpt lat="43.047289" lon="-1.813732">
        <ele>865.6</ele>
        <time>2026-03-01T11:24:04Z</time>
      </trkpt>
      <trkpt lat="43.047302" lon="-1.813768">
        <ele>866.0</ele>
        <time>2026-03-01T11:24:06Z</time>
      </trkpt>
      <trkpt lat="43.047315" lon="-1.813799">
        <ele>866.4</ele>
        <time>2026-03-01T11:24:08Z</time>
      </trkpt>
      <trkpt lat="43.047332" lon="-1.813826">
        <ele>866.8</ele>
        <time>2026-03-01T11:24:10Z</time>
      </trkpt>
      <trkpt lat="43.047341" lon="-1.813851">
        <ele>867.6</ele>
        <time>2026-03-01T11:24:12Z</time>
      </trkpt>
      <trkpt lat="43.047364" lon="-1.813882">
        <ele>868.8</ele>
        <time>2026-03-01T11:24:15Z</time>
      </trkpt>
      <trkpt lat="43.047377" lon="-1.813895">
        <ele>869.0</ele>
        <time>2026-03-01T11:24:16Z</time>
      </trkpt>
      <trkpt lat="43.047399" lon="-1.813912">
        <ele>869.8</ele>
        <time>2026-03-01T11:24:18Z</time>
      </trkpt>
      <trkpt lat="43.047403" lon="-1.813930">
        <ele>870.2</ele>
        <time>2026-03-01T11:24:19Z</time>
      </trkpt>
      <trkpt lat="43.047436" lon="-1.813971">
        <ele>871.4</ele>
        <time>2026-03-01T11:24:23Z</time>
      </trkpt>
      <trkpt lat="43.047414" lon="-1.814008">
        <ele>871.8</ele>
        <time>2026-03-01T11:24:29Z</time>
      </trkpt>
      <trkpt lat="43.047407" lon="-1.814022">
        <ele>872.0</ele>
        <time>2026-03-01T11:24:36Z</time>
      </trkpt>
      <trkpt lat="43.047405" lon="-1.814002">
        <ele>872.4</ele>
        <time>2026-03-01T11:24:52Z</time>
      </trkpt>
      <trkpt lat="43.047404" lon="-1.813997">
        <ele>872.4</ele>
        <time>2026-03-01T11:24:57Z</time>
      </trkpt>
      <trkpt lat="43.047403" lon="-1.813996">
        <ele>872.4</ele>
        <time>2026-03-01T11:24:59Z</time>
      </trkpt>
      <trkpt lat="43.047401" lon="-1.813994">
        <ele>873.0</ele>
        <time>2026-03-01T11:25:05Z</time>
      </trkpt>
      <trkpt lat="43.047395" lon="-1.813989">
        <ele>873.0</ele>
        <time>2026-03-01T11:25:08Z</time>
      </trkpt>
      <trkpt lat="43.047368" lon="-1.813986">
        <ele>872.6</ele>
        <time>2026-03-01T11:25:15Z</time>
      </trkpt>
      <trkpt lat="43.047362" lon="-1.813980">
        <ele>872.8</ele>
        <time>2026-03-01T11:25:19Z</time>
      </trkpt>
      <trkpt lat="43.047363" lon="-1.813983">
        <ele>873.0</ele>
        <time>2026-03-01T11:25:23Z</time>
      </trkpt>
      <trkpt lat="43.047364" lon="-1.813982">
        <ele>873.0</ele>
        <time>2026-03-01T11:25:24Z</time>
      </trkpt>
      <trkpt lat="43.047353" lon="-1.813991">
        <ele>871.8</ele>
        <time>2026-03-01T11:25:31Z</time>
      </trkpt>
      <trkpt lat="43.047313" lon="-1.813993">
        <ele>872.2</ele>
        <time>2026-03-01T11:25:39Z</time>
      </trkpt>
      <trkpt lat="43.047289" lon="-1.813947">
        <ele>871.8</ele>
        <time>2026-03-01T11:25:45Z</time>
      </trkpt>
      <trkpt lat="43.047239" lon="-1.813962">
        <ele>872.6</ele>
        <time>2026-03-01T11:25:53Z</time>
      </trkpt>
      <trkpt lat="43.047233" lon="-1.813988">
        <ele>872.2</ele>
        <time>2026-03-01T11:25:56Z</time>
      </trkpt>
      <trkpt lat="43.047231" lon="-1.813993">
        <ele>872.2</ele>
        <time>2026-03-01T11:25:57Z</time>
      </trkpt>
      <trkpt lat="43.047230" lon="-1.813996">
        <ele>872.2</ele>
        <time>2026-03-01T11:25:58Z</time>
      </trkpt>
      <trkpt lat="43.047233" lon="-1.814002">
        <ele>872.2</ele>
        <time>2026-03-01T11:25:59Z</time>
      </trkpt>
      <trkpt lat="43.047230" lon="-1.814003">
        <ele>872.4</ele>
        <time>2026-03-01T11:26:00Z</time>
      </trkpt>
      <trkpt lat="43.047231" lon="-1.814011">
        <ele>872.4</ele>
        <time>2026-03-01T11:26:01Z</time>
      </trkpt>
      <trkpt lat="43.047244" lon="-1.814036">
        <ele>872.6</ele>
        <time>2026-03-01T11:26:10Z</time>
      </trkpt>
      <trkpt lat="43.047250" lon="-1.814044">
        <ele>872.4</ele>
        <time>2026-03-01T11:26:13Z</time>
      </trkpt>
      <trkpt lat="43.047288" lon="-1.814015">
        <ele>872.4</ele>
        <time>2026-03-01T11:26:16Z</time>
      </trkpt>
      <trkpt lat="43.047309" lon="-1.813992">
        <ele>872.4</ele>
        <time>2026-03-01T11:26:18Z</time>
      </trkpt>
      <trkpt lat="43.047326" lon="-1.813997">
        <ele>872.4</ele>
        <time>2026-03-01T11:26:23Z</time>
      </trkpt>
      <trkpt lat="43.047324" lon="-1.814002">
        <ele>872.6</ele>
        <time>2026-03-01T11:26:27Z</time>
      </trkpt>
      <trkpt lat="43.047291" lon="-1.813993">
        <ele>872.4</ele>
        <time>2026-03-01T11:26:32Z</time>
      </trkpt>
      <trkpt lat="43.047274" lon="-1.813952">
        <ele>872.4</ele>
        <time>2026-03-01T11:26:36Z</time>
      </trkpt>
      <trkpt lat="43.047272" lon="-1.813979">
        <ele>872.6</ele>
        <time>2026-03-01T11:26:45Z</time>
      </trkpt>
      <trkpt lat="43.047274" lon="-1.813979">
        <ele>872.8</ele>
        <time>2026-03-01T11:26:55Z</time>
      </trkpt>
      <trkpt lat="43.047275" lon="-1.813978">
        <ele>872.6</ele>
        <time>2026-03-01T11:27:04Z</time>
      </trkpt>
      <trkpt lat="43.047279" lon="-1.813974">
        <ele>872.0</ele>
        <time>2026-03-01T11:27:12Z</time>
      </trkpt>
      <trkpt lat="43.047273" lon="-1.813982">
        <ele>871.6</ele>
        <time>2026-03-01T11:27:23Z</time>
      </trkpt>
      <trkpt lat="43.047244" lon="-1.814014">
        <ele>872.0</ele>
        <time>2026-03-01T11:27:32Z</time>
      </trkpt>
      <trkpt lat="43.047258" lon="-1.814005">
        <ele>871.4</ele>
        <time>2026-03-01T11:27:38Z</time>
      </trkpt>
      <trkpt lat="43.047252" lon="-1.813998">
        <ele>871.4</ele>
        <time>2026-03-01T11:27:41Z</time>
      </trkpt>
      <trkpt lat="43.047251" lon="-1.813996">
        <ele>871.4</ele>
        <time>2026-03-01T11:27:48Z</time>
      </trkpt>
      <trkpt lat="43.047260" lon="-1.813984">
        <ele>871.6</ele>
        <time>2026-03-01T11:27:59Z</time>
      </trkpt>
      <trkpt lat="43.047263" lon="-1.813981">
        <ele>871.4</ele>
        <time>2026-03-01T11:28:11Z</time>
      </trkpt>
      <trkpt lat="43.047271" lon="-1.813989">
        <ele>871.4</ele>
        <time>2026-03-01T11:28:21Z</time>
      </trkpt>
      <trkpt lat="43.047271" lon="-1.813994">
        <ele>870.8</ele>
        <time>2026-03-01T11:28:36Z</time>
      </trkpt>
      <trkpt lat="43.047269" lon="-1.813993">
        <ele>870.8</ele>
        <time>2026-03-01T11:28:39Z</time>
      </trkpt>
      <trkpt lat="43.047265" lon="-1.813991">
        <ele>870.8</ele>
        <time>2026-03-01T11:28:43Z</time>
      </trkpt>
      <trkpt lat="43.047263" lon="-1.813991">
        <ele>870.8</ele>
        <time>2026-03-01T11:28:44Z</time>
      </trkpt>
      <trkpt lat="43.047257" lon="-1.813986">
        <ele>870.8</ele>
        <time>2026-03-01T11:28:49Z</time>
      </trkpt>
      <trkpt lat="43.047263" lon="-1.813986">
        <ele>870.8</ele>
        <time>2026-03-01T11:28:54Z</time>
      </trkpt>
      <trkpt lat="43.047255" lon="-1.813986">
        <ele>870.6</ele>
        <time>2026-03-01T11:28:58Z</time>
      </trkpt>
      <trkpt lat="43.047252" lon="-1.813991">
        <ele>870.8</ele>
        <time>2026-03-01T11:29:00Z</time>
      </trkpt>
      <trkpt lat="43.047268" lon="-1.813997">
        <ele>870.8</ele>
        <time>2026-03-01T11:29:03Z</time>
      </trkpt>
      <trkpt lat="43.047290" lon="-1.813995">
        <ele>870.2</ele>
        <time>2026-03-01T11:29:08Z</time>
      </trkpt>
      <trkpt lat="43.047303" lon="-1.813987">
        <ele>870.4</ele>
        <time>2026-03-01T11:29:13Z</time>
      </trkpt>
      <trkpt lat="43.047286" lon="-1.813954">
        <ele>870.2</ele>
        <time>2026-03-01T11:29:22Z</time>
      </trkpt>
      <trkpt lat="43.047290" lon="-1.813956">
        <ele>869.6</ele>
        <time>2026-03-01T11:29:29Z</time>
      </trkpt>
      <trkpt lat="43.047288" lon="-1.813965">
        <ele>870.2</ele>
        <time>2026-03-01T11:29:34Z</time>
      </trkpt>
      <trkpt lat="43.047297" lon="-1.814003">
        <ele>871.0</ele>
        <time>2026-03-01T11:29:38Z</time>
      </trkpt>
      <trkpt lat="43.047295" lon="-1.814064">
        <ele>871.0</ele>
        <time>2026-03-01T11:29:44Z</time>
      </trkpt>
      <trkpt lat="43.047377" lon="-1.814115">
        <ele>871.0</ele>
        <time>2026-03-01T11:29:53Z</time>
      </trkpt>
      <trkpt lat="43.047447" lon="-1.814071">
        <ele>871.0</ele>
        <time>2026-03-01T11:30:01Z</time>
      </trkpt>
      <trkpt lat="43.047470" lon="-1.814070">
        <ele>871.0</ele>
        <time>2026-03-01T11:30:05Z</time>
      </trkpt>
      <trkpt lat="43.047489" lon="-1.814078">
        <ele>871.2</ele>
        <time>2026-03-01T11:30:07Z</time>
      </trkpt>
      <trkpt lat="43.047511" lon="-1.814079">
        <ele>871.2</ele>
        <time>2026-03-01T11:30:09Z</time>
      </trkpt>
      <trkpt lat="43.047522" lon="-1.814080">
        <ele>871.4</ele>
        <time>2026-03-01T11:30:10Z</time>
      </trkpt>
      <trkpt lat="43.047551" lon="-1.814105">
        <ele>871.8</ele>
        <time>2026-03-01T11:30:13Z</time>
      </trkpt>
      <trkpt lat="43.047581" lon="-1.814131">
        <ele>872.4</ele>
        <time>2026-03-01T11:30:16Z</time>
      </trkpt>
      <trkpt lat="43.047628" lon="-1.814164">
        <ele>873.6</ele>
        <time>2026-03-01T11:30:20Z</time>
      </trkpt>
      <trkpt lat="43.047637" lon="-1.814172">
        <ele>874.0</ele>
        <time>2026-03-01T11:30:21Z</time>
      </trkpt>
      <trkpt lat="43.047662" lon="-1.814208">
        <ele>874.8</ele>
        <time>2026-03-01T11:30:24Z</time>
      </trkpt>
      <trkpt lat="43.047687" lon="-1.814255">
        <ele>875.8</ele>
        <time>2026-03-01T11:30:27Z</time>
      </trkpt>
      <trkpt lat="43.047698" lon="-1.814265">
        <ele>876.0</ele>
        <time>2026-03-01T11:30:28Z</time>
      </trkpt>
      <trkpt lat="43.047722" lon="-1.814286">
        <ele>876.6</ele>
        <time>2026-03-01T11:30:30Z</time>
      </trkpt>
      <trkpt lat="43.047730" lon="-1.814311">
        <ele>876.8</ele>
        <time>2026-03-01T11:30:32Z</time>
      </trkpt>
      <trkpt lat="43.047730" lon="-1.814315">
        <ele>877.0</ele>
        <time>2026-03-01T11:30:33Z</time>
      </trkpt>
      <trkpt lat="43.047742" lon="-1.814323">
        <ele>877.2</ele>
        <time>2026-03-01T11:30:38Z</time>
      </trkpt>
      <trkpt lat="43.047744" lon="-1.814325">
        <ele>877.2</ele>
        <time>2026-03-01T11:30:40Z</time>
      </trkpt>
      <trkpt lat="43.047746" lon="-1.814325">
        <ele>877.2</ele>
        <time>2026-03-01T11:30:41Z</time>
      </trkpt>
      <trkpt lat="43.047750" lon="-1.814333">
        <ele>877.0</ele>
        <time>2026-03-01T11:30:49Z</time>
      </trkpt>
      <trkpt lat="43.047749" lon="-1.814333">
        <ele>877.0</ele>
        <time>2026-03-01T11:30:50Z</time>
      </trkpt>
      <trkpt lat="43.047740" lon="-1.814316">
        <ele>877.8</ele>
        <time>2026-03-01T11:31:00Z</time>
      </trkpt>
      <trkpt lat="43.047717" lon="-1.814336">
        <ele>877.6</ele>
        <time>2026-03-01T11:31:08Z</time>
      </trkpt>
      <trkpt lat="43.047719" lon="-1.814340">
        <ele>877.4</ele>
        <time>2026-03-01T11:31:11Z</time>
      </trkpt>
      <trkpt lat="43.047714" lon="-1.814346">
        <ele>877.4</ele>
        <time>2026-03-01T11:31:14Z</time>
      </trkpt>
      <trkpt lat="43.047709" lon="-1.814360">
        <ele>877.6</ele>
        <time>2026-03-01T11:31:16Z</time>
      </trkpt>
      <trkpt lat="43.047706" lon="-1.814364">
        <ele>878.0</ele>
        <time>2026-03-01T11:31:19Z</time>
      </trkpt>
      <trkpt lat="43.047713" lon="-1.814376">
        <ele>878.0</ele>
        <time>2026-03-01T11:31:28Z</time>
      </trkpt>
      <trkpt lat="43.047714" lon="-1.814388">
        <ele>878.0</ele>
        <time>2026-03-01T11:31:32Z</time>
      </trkpt>
      <trkpt lat="43.047716" lon="-1.814390">
        <ele>878.0</ele>
        <time>2026-03-01T11:31:35Z</time>
      </trkpt>
      <trkpt lat="43.047720" lon="-1.814392">
        <ele>878.2</ele>
        <time>2026-03-01T11:31:44Z</time>
      </trkpt>
      <trkpt lat="43.047722" lon="-1.814393">
        <ele>878.2</ele>
        <time>2026-03-01T11:31:45Z</time>
      </trkpt>
      <trkpt lat="43.047756" lon="-1.814358">
        <ele>878.6</ele>
        <time>2026-03-01T11:31:51Z</time>
      </trkpt>
      <trkpt lat="43.047774" lon="-1.814362">
        <ele>878.6</ele>
        <time>2026-03-01T11:31:52Z</time>
      </trkpt>
      <trkpt lat="43.047834" lon="-1.814404">
        <ele>879.2</ele>
        <time>2026-03-01T11:31:56Z</time>
      </trkpt>
      <trkpt lat="43.047848" lon="-1.814418">
        <ele>879.2</ele>
        <time>2026-03-01T11:31:57Z</time>
      </trkpt>
      <trkpt lat="43.047891" lon="-1.814464">
        <ele>880.4</ele>
        <time>2026-03-01T11:32:01Z</time>
      </trkpt>
      <trkpt lat="43.047915" lon="-1.814484">
        <ele>881.0</ele>
        <time>2026-03-01T11:32:03Z</time>
      </trkpt>
      <trkpt lat="43.047938" lon="-1.814507">
        <ele>881.6</ele>
        <time>2026-03-01T11:32:05Z</time>
      </trkpt>
      <trkpt lat="43.047989" lon="-1.814572">
        <ele>882.8</ele>
        <time>2026-03-01T11:32:10Z</time>
      </trkpt>
      <trkpt lat="43.048000" lon="-1.814584">
        <ele>883.2</ele>
        <time>2026-03-01T11:32:11Z</time>
      </trkpt>
      <trkpt lat="43.048032" lon="-1.814615">
        <ele>884.0</ele>
        <time>2026-03-01T11:32:14Z</time>
      </trkpt>
      <trkpt lat="43.048069" lon="-1.814678">
        <ele>885.6</ele>
        <time>2026-03-01T11:32:18Z</time>
      </trkpt>
      <trkpt lat="43.048087" lon="-1.814710">
        <ele>886.2</ele>
        <time>2026-03-01T11:32:20Z</time>
      </trkpt>
      <trkpt lat="43.048097" lon="-1.814724">
        <ele>886.6</ele>
        <time>2026-03-01T11:32:21Z</time>
      </trkpt>
      <trkpt lat="43.048123" lon="-1.814745">
        <ele>887.8</ele>
        <time>2026-03-01T11:32:23Z</time>
      </trkpt>
      <trkpt lat="43.048159" lon="-1.814784">
        <ele>889.2</ele>
        <time>2026-03-01T11:32:26Z</time>
      </trkpt>
      <trkpt lat="43.048170" lon="-1.814799">
        <ele>889.4</ele>
        <time>2026-03-01T11:32:27Z</time>
      </trkpt>
      <trkpt lat="43.048189" lon="-1.814827">
        <ele>890.2</ele>
        <time>2026-03-01T11:32:29Z</time>
      </trkpt>
      <trkpt lat="43.048207" lon="-1.814852">
        <ele>891.4</ele>
        <time>2026-03-01T11:32:31Z</time>
      </trkpt>
      <trkpt lat="43.048212" lon="-1.814865">
        <ele>891.8</ele>
        <time>2026-03-01T11:32:32Z</time>
      </trkpt>
      <trkpt lat="43.048216" lon="-1.814893">
        <ele>892.4</ele>
        <time>2026-03-01T11:32:34Z</time>
      </trkpt>
      <trkpt lat="43.048215" lon="-1.814897">
        <ele>892.8</ele>
        <time>2026-03-01T11:32:35Z</time>
      </trkpt>
      <trkpt lat="43.048212" lon="-1.814901">
        <ele>893.2</ele>
        <time>2026-03-01T11:32:41Z</time>
      </trkpt>
      <trkpt lat="43.048212" lon="-1.814903">
        <ele>893.2</ele>
        <time>2026-03-01T11:32:48Z</time>
      </trkpt>
      <trkpt lat="43.048211" lon="-1.814904">
        <ele>893.2</ele>
        <time>2026-03-01T11:32:49Z</time>
      </trkpt>
      <trkpt lat="43.048210" lon="-1.814899">
        <ele>893.0</ele>
        <time>2026-03-01T11:32:57Z</time>
      </trkpt>
      <trkpt lat="43.048213" lon="-1.814896">
        <ele>893.6</ele>
        <time>2026-03-01T11:32:59Z</time>
      </trkpt>
      <trkpt lat="43.048213" lon="-1.814896">
        <ele>893.6</ele>
        <time>2026-03-01T11:33:00Z</time>
      </trkpt>
      <trkpt lat="43.048217" lon="-1.814901">
        <ele>893.8</ele>
        <time>2026-03-01T11:33:04Z</time>
      </trkpt>
      <trkpt lat="43.048227" lon="-1.814898">
        <ele>893.6</ele>
        <time>2026-03-01T11:33:08Z</time>
      </trkpt>
      <trkpt lat="43.048236" lon="-1.814897">
        <ele>893.8</ele>
        <time>2026-03-01T11:33:09Z</time>
      </trkpt>
      <trkpt lat="43.048256" lon="-1.814900">
        <ele>894.0</ele>
        <time>2026-03-01T11:33:12Z</time>
      </trkpt>
      <trkpt lat="43.048284" lon="-1.814919">
        <ele>894.2</ele>
        <time>2026-03-01T11:33:14Z</time>
      </trkpt>
      <trkpt lat="43.048315" lon="-1.814944">
        <ele>894.8</ele>
        <time>2026-03-01T11:33:16Z</time>
      </trkpt>
      <trkpt lat="43.048329" lon="-1.814958">
        <ele>895.4</ele>
        <time>2026-03-01T11:33:17Z</time>
      </trkpt>
      <trkpt lat="43.048362" lon="-1.814986">
        <ele>896.2</ele>
        <time>2026-03-01T11:33:19Z</time>
      </trkpt>
      <trkpt lat="43.048377" lon="-1.814997">
        <ele>896.6</ele>
        <time>2026-03-01T11:33:20Z</time>
      </trkpt>
      <trkpt lat="43.048403" lon="-1.815023">
        <ele>897.0</ele>
        <time>2026-03-01T11:33:22Z</time>
      </trkpt>
      <trkpt lat="43.048417" lon="-1.815033">
        <ele>897.4</ele>
        <time>2026-03-01T11:33:23Z</time>
      </trkpt>
      <trkpt lat="43.048449" lon="-1.815052">
        <ele>897.8</ele>
        <time>2026-03-01T11:33:25Z</time>
      </trkpt>
      <trkpt lat="43.048483" lon="-1.815070">
        <ele>898.2</ele>
        <time>2026-03-01T11:33:27Z</time>
      </trkpt>
      <trkpt lat="43.048523" lon="-1.815108">
        <ele>898.8</ele>
        <time>2026-03-01T11:33:30Z</time>
      </trkpt>
      <trkpt lat="43.048548" lon="-1.815127">
        <ele>899.2</ele>
        <time>2026-03-01T11:33:32Z</time>
      </trkpt>
      <trkpt lat="43.048596" lon="-1.815156">
        <ele>899.6</ele>
        <time>2026-03-01T11:33:35Z</time>
      </trkpt>
      <trkpt lat="43.048656" lon="-1.815216">
        <ele>900.0</ele>
        <time>2026-03-01T11:33:39Z</time>
      </trkpt>
      <trkpt lat="43.048685" lon="-1.815245">
        <ele>900.4</ele>
        <time>2026-03-01T11:33:41Z</time>
      </trkpt>
      <trkpt lat="43.048700" lon="-1.815255">
        <ele>900.4</ele>
        <time>2026-03-01T11:33:42Z</time>
      </trkpt>
      <trkpt lat="43.048745" lon="-1.815288">
        <ele>901.2</ele>
        <time>2026-03-01T11:33:45Z</time>
      </trkpt>
      <trkpt lat="43.048771" lon="-1.815314">
        <ele>901.6</ele>
        <time>2026-03-01T11:33:47Z</time>
      </trkpt>
      <trkpt lat="43.048818" lon="-1.815339">
        <ele>902.6</ele>
        <time>2026-03-01T11:33:50Z</time>
      </trkpt>
      <trkpt lat="43.048867" lon="-1.815362">
        <ele>903.2</ele>
        <time>2026-03-01T11:33:53Z</time>
      </trkpt>
      <trkpt lat="43.048917" lon="-1.815399">
        <ele>903.6</ele>
        <time>2026-03-01T11:33:56Z</time>
      </trkpt>
      <trkpt lat="43.048956" lon="-1.815430">
        <ele>903.8</ele>
        <time>2026-03-01T11:33:58Z</time>
      </trkpt>
      <trkpt lat="43.048975" lon="-1.815447">
        <ele>904.0</ele>
        <time>2026-03-01T11:33:59Z</time>
      </trkpt>
      <trkpt lat="43.048992" lon="-1.815464">
        <ele>904.2</ele>
        <time>2026-03-01T11:34:00Z</time>
      </trkpt>
      <trkpt lat="43.049027" lon="-1.815495">
        <ele>904.4</ele>
        <time>2026-03-01T11:34:02Z</time>
      </trkpt>
      <trkpt lat="43.049047" lon="-1.815508">
        <ele>904.6</ele>
        <time>2026-03-01T11:34:03Z</time>
      </trkpt>
      <trkpt lat="43.049091" lon="-1.815535">
        <ele>904.8</ele>
        <time>2026-03-01T11:34:05Z</time>
      </trkpt>
      <trkpt lat="43.049163" lon="-1.815634">
        <ele>905.6</ele>
        <time>2026-03-01T11:34:10Z</time>
      </trkpt>
      <trkpt lat="43.049191" lon="-1.815669">
        <ele>906.2</ele>
        <time>2026-03-01T11:34:12Z</time>
      </trkpt>
      <trkpt lat="43.049222" lon="-1.815701">
        <ele>906.8</ele>
        <time>2026-03-01T11:34:14Z</time>
      </trkpt>
      <trkpt lat="43.049274" lon="-1.815756">
        <ele>907.8</ele>
        <time>2026-03-01T11:34:17Z</time>
      </trkpt>
      <trkpt lat="43.049293" lon="-1.815768">
        <ele>908.0</ele>
        <time>2026-03-01T11:34:18Z</time>
      </trkpt>
      <trkpt lat="43.049323" lon="-1.815790">
        <ele>908.2</ele>
        <time>2026-03-01T11:34:20Z</time>
      </trkpt>
      <trkpt lat="43.049350" lon="-1.815820">
        <ele>908.8</ele>
        <time>2026-03-01T11:34:23Z</time>
      </trkpt>
      <trkpt lat="43.049349" lon="-1.815822">
        <ele>909.0</ele>
        <time>2026-03-01T11:34:24Z</time>
      </trkpt>
      <trkpt lat="43.049360" lon="-1.815811">
        <ele>909.8</ele>
        <time>2026-03-01T11:34:29Z</time>
      </trkpt>
      <trkpt lat="43.049374" lon="-1.815807">
        <ele>910.0</ele>
        <time>2026-03-01T11:34:32Z</time>
      </trkpt>
      <trkpt lat="43.049385" lon="-1.815809">
        <ele>909.8</ele>
        <time>2026-03-01T11:34:35Z</time>
      </trkpt>
      <trkpt lat="43.049400" lon="-1.815815">
        <ele>909.8</ele>
        <time>2026-03-01T11:34:37Z</time>
      </trkpt>
      <trkpt lat="43.049437" lon="-1.815847">
        <ele>909.6</ele>
        <time>2026-03-01T11:34:41Z</time>
      </trkpt>
      <trkpt lat="43.049497" lon="-1.815882">
        <ele>910.8</ele>
        <time>2026-03-01T11:34:48Z</time>
      </trkpt>
      <trkpt lat="43.049504" lon="-1.815883">
        <ele>911.0</ele>
        <time>2026-03-01T11:34:49Z</time>
      </trkpt>
      <trkpt lat="43.049521" lon="-1.815886">
        <ele>911.2</ele>
        <time>2026-03-01T11:34:52Z</time>
      </trkpt>
      <trkpt lat="43.049532" lon="-1.815887">
        <ele>911.2</ele>
        <time>2026-03-01T11:34:54Z</time>
      </trkpt>
      <trkpt lat="43.049648" lon="-1.815892">
        <ele>911.6</ele>
        <time>2026-03-01T11:34:59Z</time>
      </trkpt>
      <trkpt lat="43.049747" lon="-1.815906">
        <ele>910.8</ele>
        <time>2026-03-01T11:35:02Z</time>
      </trkpt>
      <trkpt lat="43.049837" lon="-1.815885">
        <ele>910.6</ele>
        <time>2026-03-01T11:35:05Z</time>
      </trkpt>
      <trkpt lat="43.049962" lon="-1.815852">
        <ele>911.8</ele>
        <time>2026-03-01T11:35:11Z</time>
      </trkpt>
      <trkpt lat="43.049969" lon="-1.815854">
        <ele>912.2</ele>
        <time>2026-03-01T11:35:12Z</time>
      </trkpt>
      <trkpt lat="43.049975" lon="-1.815851">
        <ele>912.4</ele>
        <time>2026-03-01T11:35:16Z</time>
      </trkpt>
      <trkpt lat="43.049970" lon="-1.815852">
        <ele>913.2</ele>
        <time>2026-03-01T11:35:21Z</time>
      </trkpt>
      <trkpt lat="43.049969" lon="-1.815852">
        <ele>912.8</ele>
        <time>2026-03-01T11:35:28Z</time>
      </trkpt>
      <trkpt lat="43.049969" lon="-1.815851">
        <ele>912.4</ele>
        <time>2026-03-01T11:35:32Z</time>
      </trkpt>
      <trkpt lat="43.049968" lon="-1.815851">
        <ele>912.4</ele>
        <time>2026-03-01T11:35:35Z</time>
      </trkpt>
      <trkpt lat="43.049968" lon="-1.815851">
        <ele>912.2</ele>
        <time>2026-03-01T11:35:37Z</time>
      </trkpt>
      <trkpt lat="43.049968" lon="-1.815851">
        <ele>912.0</ele>
        <time>2026-03-01T11:35:38Z</time>
      </trkpt>
      <trkpt lat="43.049967" lon="-1.815855">
        <ele>912.2</ele>
        <time>2026-03-01T11:35:46Z</time>
      </trkpt>
      <trkpt lat="43.049967" lon="-1.815854">
        <ele>912.4</ele>
        <time>2026-03-01T11:35:49Z</time>
      </trkpt>
      <trkpt lat="43.049966" lon="-1.815856">
        <ele>912.2</ele>
        <time>2026-03-01T11:35:55Z</time>
      </trkpt>
      <trkpt lat="43.049966" lon="-1.815855">
        <ele>912.0</ele>
        <time>2026-03-01T11:35:56Z</time>
      </trkpt>
      <trkpt lat="43.049965" lon="-1.815855">
        <ele>911.6</ele>
        <time>2026-03-01T11:35:59Z</time>
      </trkpt>
      <trkpt lat="43.049965" lon="-1.815855">
        <ele>911.2</ele>
        <time>2026-03-01T11:36:03Z</time>
      </trkpt>
      <trkpt lat="43.049965" lon="-1.815854">
        <ele>911.6</ele>
        <time>2026-03-01T11:36:12Z</time>
      </trkpt>
      <trkpt lat="43.049965" lon="-1.815854">
        <ele>911.6</ele>
        <time>2026-03-01T11:36:15Z</time>
      </trkpt>
      <trkpt lat="43.049963" lon="-1.815855">
        <ele>911.8</ele>
        <time>2026-03-01T11:36:29Z</time>
      </trkpt>
      <trkpt lat="43.049963" lon="-1.815855">
        <ele>911.6</ele>
        <time>2026-03-01T11:36:32Z</time>
      </trkpt>
      <trkpt lat="43.049963" lon="-1.815855">
        <ele>911.4</ele>
        <time>2026-03-01T11:36:35Z</time>
      </trkpt>
      <trkpt lat="43.049962" lon="-1.815855">
        <ele>911.4</ele>
        <time>2026-03-01T11:36:38Z</time>
      </trkpt>
      <trkpt lat="43.049962" lon="-1.815854">
        <ele>911.8</ele>
        <time>2026-03-01T11:36:51Z</time>
      </trkpt>
      <trkpt lat="43.049961" lon="-1.815854">
        <ele>911.8</ele>
        <time>2026-03-01T11:36:58Z</time>
      </trkpt>
      <trkpt lat="43.049960" lon="-1.815855">
        <ele>911.6</ele>
        <time>2026-03-01T11:37:03Z</time>
      </trkpt>
      <trkpt lat="43.049960" lon="-1.815855">
        <ele>911.8</ele>
        <time>2026-03-01T11:37:11Z</time>
      </trkpt>
      <trkpt lat="43.049963" lon="-1.815856">
        <ele>912.2</ele>
        <time>2026-03-01T11:37:18Z</time>
      </trkpt>
      <trkpt lat="43.049964" lon="-1.815853">
        <ele>912.4</ele>
        <time>2026-03-01T11:37:20Z</time>
      </trkpt>
      <trkpt lat="43.049976" lon="-1.815805">
        <ele>912.4</ele>
        <time>2026-03-01T11:37:23Z</time>
      </trkpt>
      <trkpt lat="43.049991" lon="-1.815753">
        <ele>912.6</ele>
        <time>2026-03-01T11:37:26Z</time>
      </trkpt>
      <trkpt lat="43.050003" lon="-1.815712">
        <ele>912.8</ele>
        <time>2026-03-01T11:37:28Z</time>
      </trkpt>
      <trkpt lat="43.050060" lon="-1.815601">
        <ele>913.2</ele>
        <time>2026-03-01T11:37:33Z</time>
      </trkpt>
      <trkpt lat="43.050088" lon="-1.815561">
        <ele>913.6</ele>
        <time>2026-03-01T11:37:35Z</time>
      </trkpt>
      <trkpt lat="43.050116" lon="-1.815523">
        <ele>914.2</ele>
        <time>2026-03-01T11:37:37Z</time>
      </trkpt>
      <trkpt lat="43.050189" lon="-1.815426">
        <ele>915.4</ele>
        <time>2026-03-01T11:37:42Z</time>
      </trkpt>
      <trkpt lat="43.050227" lon="-1.815364">
        <ele>916.4</ele>
        <time>2026-03-01T11:37:45Z</time>
      </trkpt>
      <trkpt lat="43.050241" lon="-1.815343">
        <ele>916.6</ele>
        <time>2026-03-01T11:37:46Z</time>
      </trkpt>
      <trkpt lat="43.050295" lon="-1.815200">
        <ele>917.0</ele>
        <time>2026-03-01T11:37:52Z</time>
      </trkpt>
      <trkpt lat="43.050319" lon="-1.815100">
        <ele>918.0</ele>
        <time>2026-03-01T11:37:56Z</time>
      </trkpt>
      <trkpt lat="43.050318" lon="-1.815031">
        <ele>918.6</ele>
        <time>2026-03-01T11:37:59Z</time>
      </trkpt>
      <trkpt lat="43.050311" lon="-1.814989">
        <ele>919.2</ele>
        <time>2026-03-01T11:38:01Z</time>
      </trkpt>
      <trkpt lat="43.050286" lon="-1.814920">
        <ele>920.2</ele>
        <time>2026-03-01T11:38:05Z</time>
      </trkpt>
      <trkpt lat="43.050278" lon="-1.814903">
        <ele>920.4</ele>
        <time>2026-03-01T11:38:06Z</time>
      </trkpt>
      <trkpt lat="43.050263" lon="-1.814872">
        <ele>921.6</ele>
        <time>2026-03-01T11:38:08Z</time>
      </trkpt>
      <trkpt lat="43.050235" lon="-1.814806">
        <ele>922.6</ele>
        <time>2026-03-01T11:38:12Z</time>
      </trkpt>
      <trkpt lat="43.050225" lon="-1.814794">
        <ele>922.8</ele>
        <time>2026-03-01T11:38:13Z</time>
      </trkpt>
      <trkpt lat="43.050207" lon="-1.814768">
        <ele>923.8</ele>
        <time>2026-03-01T11:38:15Z</time>
      </trkpt>
      <trkpt lat="43.050161" lon="-1.814727">
        <ele>925.0</ele>
        <time>2026-03-01T11:38:19Z</time>
      </trkpt>
      <trkpt lat="43.050136" lon="-1.814713">
        <ele>925.2</ele>
        <time>2026-03-01T11:38:21Z</time>
      </trkpt>
      <trkpt lat="43.050083" lon="-1.814705">
        <ele>926.0</ele>
        <time>2026-03-01T11:38:25Z</time>
      </trkpt>
      <trkpt lat="43.050044" lon="-1.814711">
        <ele>927.0</ele>
        <time>2026-03-01T11:38:28Z</time>
      </trkpt>
      <trkpt lat="43.050032" lon="-1.814714">
        <ele>927.2</ele>
        <time>2026-03-01T11:38:29Z</time>
      </trkpt>
      <trkpt lat="43.049952" lon="-1.814719">
        <ele>928.2</ele>
        <time>2026-03-01T11:38:35Z</time>
      </trkpt>
      <trkpt lat="43.049938" lon="-1.814721">
        <ele>928.2</ele>
        <time>2026-03-01T11:38:36Z</time>
      </trkpt>
      <trkpt lat="43.049883" lon="-1.814725">
        <ele>928.6</ele>
        <time>2026-03-01T11:38:40Z</time>
      </trkpt>
      <trkpt lat="43.049868" lon="-1.814727">
        <ele>929.4</ele>
        <time>2026-03-01T11:38:41Z</time>
      </trkpt>
      <trkpt lat="43.049852" lon="-1.814728">
        <ele>930.2</ele>
        <time>2026-03-01T11:38:42Z</time>
      </trkpt>
      <trkpt lat="43.049837" lon="-1.814729">
        <ele>930.4</ele>
        <time>2026-03-01T11:38:43Z</time>
      </trkpt>
      <trkpt lat="43.049784" lon="-1.814734">
        <ele>931.6</ele>
        <time>2026-03-01T11:38:47Z</time>
      </trkpt>
      <trkpt lat="43.049743" lon="-1.814731">
        <ele>932.2</ele>
        <time>2026-03-01T11:38:50Z</time>
      </trkpt>
      <trkpt lat="43.049731" lon="-1.814728">
        <ele>932.2</ele>
        <time>2026-03-01T11:38:51Z</time>
      </trkpt>
      <trkpt lat="43.049711" lon="-1.814733">
        <ele>932.8</ele>
        <time>2026-03-01T11:38:53Z</time>
      </trkpt>
      <trkpt lat="43.049702" lon="-1.814733">
        <ele>933.2</ele>
        <time>2026-03-01T11:38:55Z</time>
      </trkpt>
      <trkpt lat="43.049690" lon="-1.814727">
        <ele>933.2</ele>
        <time>2026-03-01T11:38:57Z</time>
      </trkpt>
      <trkpt lat="43.049670" lon="-1.814722">
        <ele>933.0</ele>
        <time>2026-03-01T11:38:59Z</time>
      </trkpt>
      <trkpt lat="43.049641" lon="-1.814699">
        <ele>933.6</ele>
        <time>2026-03-01T11:39:05Z</time>
      </trkpt>
      <trkpt lat="43.049642" lon="-1.814695">
        <ele>933.8</ele>
        <time>2026-03-01T11:39:06Z</time>
      </trkpt>
      <trkpt lat="43.049638" lon="-1.814693">
        <ele>934.2</ele>
        <time>2026-03-01T11:39:07Z</time>
      </trkpt>
      <trkpt lat="43.049622" lon="-1.814665">
        <ele>934.8</ele>
        <time>2026-03-01T11:39:11Z</time>
      </trkpt>
      <trkpt lat="43.049626" lon="-1.814658">
        <ele>935.0</ele>
        <time>2026-03-01T11:39:19Z</time>
      </trkpt>
      <trkpt lat="43.049627" lon="-1.814655">
        <ele>935.8</ele>
        <time>2026-03-01T11:39:24Z</time>
      </trkpt>
      <trkpt lat="43.049627" lon="-1.814655">
        <ele>936.2</ele>
        <time>2026-03-01T11:39:27Z</time>
      </trkpt>
      <trkpt lat="43.049628" lon="-1.814659">
        <ele>936.2</ele>
        <time>2026-03-01T11:39:30Z</time>
      </trkpt>
      <trkpt lat="43.049627" lon="-1.814660">
        <ele>934.8</ele>
        <time>2026-03-01T11:39:34Z</time>
      </trkpt>
      <trkpt lat="43.049627" lon="-1.814659">
        <ele>934.8</ele>
        <time>2026-03-01T11:39:35Z</time>
      </trkpt>
      <trkpt lat="43.049633" lon="-1.814654">
        <ele>934.0</ele>
        <time>2026-03-01T11:39:41Z</time>
      </trkpt>
      <trkpt lat="43.049632" lon="-1.814659">
        <ele>934.4</ele>
        <time>2026-03-01T11:39:51Z</time>
      </trkpt>
      <trkpt lat="43.049632" lon="-1.814657">
        <ele>933.8</ele>
        <time>2026-03-01T11:40:01Z</time>
      </trkpt>
      <trkpt lat="43.049632" lon="-1.814657">
        <ele>934.0</ele>
        <time>2026-03-01T11:40:04Z</time>
      </trkpt>
      <trkpt lat="43.049631" lon="-1.814656">
        <ele>933.6</ele>
        <time>2026-03-01T11:40:07Z</time>
      </trkpt>
      <trkpt lat="43.049631" lon="-1.814655">
        <ele>934.6</ele>
        <time>2026-03-01T11:40:15Z</time>
      </trkpt>
      <trkpt lat="43.049631" lon="-1.814655">
        <ele>934.6</ele>
        <time>2026-03-01T11:40:17Z</time>
      </trkpt>
      <trkpt lat="43.049631" lon="-1.814656">
        <ele>934.6</ele>
        <time>2026-03-01T11:40:20Z</time>
      </trkpt>
      <trkpt lat="43.049641" lon="-1.814660">
        <ele>934.6</ele>
        <time>2026-03-01T11:40:25Z</time>
      </trkpt>
      <trkpt lat="43.049683" lon="-1.814702">
        <ele>934.6</ele>
        <time>2026-03-01T11:40:27Z</time>
      </trkpt>
      <trkpt lat="43.049696" lon="-1.814722">
        <ele>933.0</ele>
        <time>2026-03-01T11:40:30Z</time>
      </trkpt>
      <trkpt lat="43.049693" lon="-1.814718">
        <ele>932.4</ele>
        <time>2026-03-01T11:40:31Z</time>
      </trkpt>
      <trkpt lat="43.049685" lon="-1.814719">
        <ele>931.6</ele>
        <time>2026-03-01T11:40:33Z</time>
      </trkpt>
      <trkpt lat="43.049676" lon="-1.814718">
        <ele>931.2</ele>
        <time>2026-03-01T11:40:34Z</time>
      </trkpt>
      <trkpt lat="43.049664" lon="-1.814718">
        <ele>931.0</ele>
        <time>2026-03-01T11:40:35Z</time>
      </trkpt>
      <trkpt lat="43.049633" lon="-1.814694">
        <ele>931.6</ele>
        <time>2026-03-01T11:40:40Z</time>
      </trkpt>
      <trkpt lat="43.049632" lon="-1.814683">
        <ele>932.0</ele>
        <time>2026-03-01T11:40:41Z</time>
      </trkpt>
      <trkpt lat="43.049631" lon="-1.814657">
        <ele>932.4</ele>
        <time>2026-03-01T11:40:43Z</time>
      </trkpt>
      <trkpt lat="43.049628" lon="-1.814657">
        <ele>933.0</ele>
        <time>2026-03-01T11:40:45Z</time>
      </trkpt>
      <trkpt lat="43.049619" lon="-1.814684">
        <ele>933.2</ele>
        <time>2026-03-01T11:40:49Z</time>
      </trkpt>
      <trkpt lat="43.049626" lon="-1.814692">
        <ele>933.2</ele>
        <time>2026-03-01T11:40:51Z</time>
      </trkpt>
      <trkpt lat="43.049627" lon="-1.814699">
        <ele>933.0</ele>
        <time>2026-03-01T11:40:54Z</time>
      </trkpt>
      <trkpt lat="43.049629" lon="-1.814701">
        <ele>931.8</ele>
        <time>2026-03-01T11:40:58Z</time>
      </trkpt>
      <trkpt lat="43.049630" lon="-1.814703">
        <ele>932.2</ele>
        <time>2026-03-01T11:41:04Z</time>
      </trkpt>
      <trkpt lat="43.049630" lon="-1.814703">
        <ele>932.2</ele>
        <time>2026-03-01T11:41:08Z</time>
      </trkpt>
      <trkpt lat="43.049628" lon="-1.814703">
        <ele>932.2</ele>
        <time>2026-03-01T11:41:10Z</time>
      </trkpt>
      <trkpt lat="43.049620" lon="-1.814710">
        <ele>932.0</ele>
        <time>2026-03-01T11:41:14Z</time>
      </trkpt>
      <trkpt lat="43.049618" lon="-1.814708">
        <ele>932.0</ele>
        <time>2026-03-01T11:41:15Z</time>
      </trkpt>
      <trkpt lat="43.049604" lon="-1.814704">
        <ele>932.0</ele>
        <time>2026-03-01T11:41:17Z</time>
      </trkpt>
      <trkpt lat="43.049558" lon="-1.814679">
        <ele>933.0</ele>
        <time>2026-03-01T11:41:21Z</time>
      </trkpt>
      <trkpt lat="43.049527" lon="-1.814664">
        <ele>933.2</ele>
        <time>2026-03-01T11:41:23Z</time>
      </trkpt>
      <trkpt lat="43.049479" lon="-1.814645">
        <ele>933.4</ele>
        <time>2026-03-01T11:41:26Z</time>
      </trkpt>
      <trkpt lat="43.049423" lon="-1.814615">
        <ele>934.2</ele>
        <time>2026-03-01T11:41:29Z</time>
      </trkpt>
      <trkpt lat="43.049406" lon="-1.814605">
        <ele>934.6</ele>
        <time>2026-03-01T11:41:30Z</time>
      </trkpt>
      <trkpt lat="43.049358" lon="-1.814570">
        <ele>935.6</ele>
        <time>2026-03-01T11:41:33Z</time>
      </trkpt>
      <trkpt lat="43.049310" lon="-1.814517">
        <ele>935.6</ele>
        <time>2026-03-01T11:41:36Z</time>
      </trkpt>
      <trkpt lat="43.049261" lon="-1.814457">
        <ele>936.6</ele>
        <time>2026-03-01T11:41:39Z</time>
      </trkpt>
      <trkpt lat="43.049196" lon="-1.814366">
        <ele>937.6</ele>
        <time>2026-03-01T11:41:43Z</time>
      </trkpt>
      <trkpt lat="43.049163" lon="-1.814314">
        <ele>938.2</ele>
        <time>2026-03-01T11:41:45Z</time>
      </trkpt>
      <trkpt lat="43.049096" lon="-1.814213">
        <ele>940.0</ele>
        <time>2026-03-01T11:41:49Z</time>
      </trkpt>
      <trkpt lat="43.049067" lon="-1.814176">
        <ele>941.2</ele>
        <time>2026-03-01T11:41:51Z</time>
      </trkpt>
      <trkpt lat="43.049044" lon="-1.814133">
        <ele>941.4</ele>
        <time>2026-03-01T11:41:53Z</time>
      </trkpt>
      <trkpt lat="43.049014" lon="-1.814085">
        <ele>939.8</ele>
        <time>2026-03-01T11:41:57Z</time>
      </trkpt>
      <trkpt lat="43.049001" lon="-1.814091">
        <ele>938.6</ele>
        <time>2026-03-01T11:42:02Z</time>
      </trkpt>
      <trkpt lat="43.049004" lon="-1.814087">
        <ele>938.2</ele>
        <time>2026-03-01T11:42:04Z</time>
      </trkpt>
      <trkpt lat="43.048996" lon="-1.814094">
        <ele>937.6</ele>
        <time>2026-03-01T11:42:09Z</time>
      </trkpt>
      <trkpt lat="43.048992" lon="-1.814092">
        <ele>938.2</ele>
        <time>2026-03-01T11:42:14Z</time>
      </trkpt>
      <trkpt lat="43.048991" lon="-1.814087">
        <ele>938.2</ele>
        <time>2026-03-01T11:42:15Z</time>
      </trkpt>
      <trkpt lat="43.048975" lon="-1.814029">
        <ele>938.2</ele>
        <time>2026-03-01T11:42:20Z</time>
      </trkpt>
      <trkpt lat="43.048957" lon="-1.814006">
        <ele>937.4</ele>
        <time>2026-03-01T11:42:22Z</time>
      </trkpt>
      <trkpt lat="43.048942" lon="-1.813912">
        <ele>937.2</ele>
        <time>2026-03-01T11:42:26Z</time>
      </trkpt>
      <trkpt lat="43.048948" lon="-1.813857">
        <ele>937.6</ele>
        <time>2026-03-01T11:42:28Z</time>
      </trkpt>
      <trkpt lat="43.048956" lon="-1.813832">
        <ele>938.0</ele>
        <time>2026-03-01T11:42:29Z</time>
      </trkpt>
      <trkpt lat="43.048997" lon="-1.813769">
        <ele>939.2</ele>
        <time>2026-03-01T11:42:32Z</time>
      </trkpt>
      <trkpt lat="43.049056" lon="-1.813744">
        <ele>940.4</ele>
        <time>2026-03-01T11:42:35Z</time>
      </trkpt>
      <trkpt lat="43.049097" lon="-1.813723">
        <ele>941.0</ele>
        <time>2026-03-01T11:42:37Z</time>
      </trkpt>
      <trkpt lat="43.049134" lon="-1.813697">
        <ele>941.6</ele>
        <time>2026-03-01T11:42:39Z</time>
      </trkpt>
      <trkpt lat="43.049186" lon="-1.813652">
        <ele>942.4</ele>
        <time>2026-03-01T11:42:42Z</time>
      </trkpt>
      <trkpt lat="43.049205" lon="-1.813633">
        <ele>942.8</ele>
        <time>2026-03-01T11:42:43Z</time>
      </trkpt>
      <trkpt lat="43.049223" lon="-1.813616">
        <ele>943.0</ele>
        <time>2026-03-01T11:42:44Z</time>
      </trkpt>
      <trkpt lat="43.049269" lon="-1.813554">
        <ele>944.2</ele>
        <time>2026-03-01T11:42:47Z</time>
      </trkpt>
      <trkpt lat="43.049328" lon="-1.813471">
        <ele>944.8</ele>
        <time>2026-03-01T11:42:51Z</time>
      </trkpt>
      <trkpt lat="43.049362" lon="-1.813406">
        <ele>945.2</ele>
        <time>2026-03-01T11:42:54Z</time>
      </trkpt>
      <trkpt lat="43.049420" lon="-1.813305">
        <ele>945.0</ele>
        <time>2026-03-01T11:42:58Z</time>
      </trkpt>
      <trkpt lat="43.049482" lon="-1.813140">
        <ele>945.8</ele>
        <time>2026-03-01T11:43:04Z</time>
      </trkpt>
      <trkpt lat="43.049510" lon="-1.813074">
        <ele>946.2</ele>
        <time>2026-03-01T11:43:07Z</time>
      </trkpt>
      <trkpt lat="43.049553" lon="-1.812996">
        <ele>947.6</ele>
        <time>2026-03-01T11:43:11Z</time>
      </trkpt>
      <trkpt lat="43.049578" lon="-1.812935">
        <ele>948.2</ele>
        <time>2026-03-01T11:43:14Z</time>
      </trkpt>
      <trkpt lat="43.049595" lon="-1.812897">
        <ele>948.6</ele>
        <time>2026-03-01T11:43:16Z</time>
      </trkpt>
      <trkpt lat="43.049640" lon="-1.812824">
        <ele>949.4</ele>
        <time>2026-03-01T11:43:20Z</time>
      </trkpt>
      <trkpt lat="43.049650" lon="-1.812804">
        <ele>949.8</ele>
        <time>2026-03-01T11:43:21Z</time>
      </trkpt>
      <trkpt lat="43.049721" lon="-1.812672">
        <ele>950.6</ele>
        <time>2026-03-01T11:43:28Z</time>
      </trkpt>
      <trkpt lat="43.049743" lon="-1.812632">
        <ele>951.0</ele>
        <time>2026-03-01T11:43:30Z</time>
      </trkpt>
      <trkpt lat="43.049774" lon="-1.812570">
        <ele>952.2</ele>
        <time>2026-03-01T11:43:33Z</time>
      </trkpt>
      <trkpt lat="43.049809" lon="-1.812523">
        <ele>953.0</ele>
        <time>2026-03-01T11:43:36Z</time>
      </trkpt>
      <trkpt lat="43.049834" lon="-1.812490">
        <ele>953.4</ele>
        <time>2026-03-01T11:43:38Z</time>
      </trkpt>
      <trkpt lat="43.049861" lon="-1.812460">
        <ele>953.6</ele>
        <time>2026-03-01T11:43:40Z</time>
      </trkpt>
      <trkpt lat="43.049928" lon="-1.812385">
        <ele>954.4</ele>
        <time>2026-03-01T11:43:45Z</time>
      </trkpt>
      <trkpt lat="43.049992" lon="-1.812321">
        <ele>955.0</ele>
        <time>2026-03-01T11:43:50Z</time>
      </trkpt>
      <trkpt lat="43.050016" lon="-1.812297">
        <ele>955.4</ele>
        <time>2026-03-01T11:43:52Z</time>
      </trkpt>
      <trkpt lat="43.050029" lon="-1.812285">
        <ele>955.6</ele>
        <time>2026-03-01T11:43:53Z</time>
      </trkpt>
      <trkpt lat="43.050083" lon="-1.812186">
        <ele>956.2</ele>
        <time>2026-03-01T11:43:59Z</time>
      </trkpt>
      <trkpt lat="43.050099" lon="-1.812147">
        <ele>956.8</ele>
        <time>2026-03-01T11:44:01Z</time>
      </trkpt>
      <trkpt lat="43.050131" lon="-1.812104">
        <ele>957.6</ele>
        <time>2026-03-01T11:44:05Z</time>
      </trkpt>
      <trkpt lat="43.050147" lon="-1.812074">
        <ele>958.0</ele>
        <time>2026-03-01T11:44:07Z</time>
      </trkpt>
      <trkpt lat="43.050198" lon="-1.812003">
        <ele>959.2</ele>
        <time>2026-03-01T11:44:12Z</time>
      </trkpt>
      <trkpt lat="43.050233" lon="-1.811889">
        <ele>960.4</ele>
        <time>2026-03-01T11:44:18Z</time>
      </trkpt>
      <trkpt lat="43.050238" lon="-1.811875">
        <ele>960.6</ele>
        <time>2026-03-01T11:44:19Z</time>
      </trkpt>
      <trkpt lat="43.050311" lon="-1.811784">
        <ele>961.2</ele>
        <time>2026-03-01T11:44:26Z</time>
      </trkpt>
      <trkpt lat="43.050322" lon="-1.811745">
        <ele>961.6</ele>
        <time>2026-03-01T11:44:28Z</time>
      </trkpt>
      <trkpt lat="43.050349" lon="-1.811693">
        <ele>962.4</ele>
        <time>2026-03-01T11:44:31Z</time>
      </trkpt>
      <trkpt lat="43.050361" lon="-1.811676">
        <ele>962.6</ele>
        <time>2026-03-01T11:44:32Z</time>
      </trkpt>
      <trkpt lat="43.050371" lon="-1.811660">
        <ele>962.8</ele>
        <time>2026-03-01T11:44:33Z</time>
      </trkpt>
      <trkpt lat="43.050382" lon="-1.811642">
        <ele>962.8</ele>
        <time>2026-03-01T11:44:34Z</time>
      </trkpt>
      <trkpt lat="43.050390" lon="-1.811629">
        <ele>963.0</ele>
        <time>2026-03-01T11:44:35Z</time>
      </trkpt>
      <trkpt lat="43.050430" lon="-1.811571">
        <ele>963.8</ele>
        <time>2026-03-01T11:44:40Z</time>
      </trkpt>
      <trkpt lat="43.050436" lon="-1.811560">
        <ele>964.2</ele>
        <time>2026-03-01T11:44:41Z</time>
      </trkpt>
      <trkpt lat="43.050440" lon="-1.811549">
        <ele>964.2</ele>
        <time>2026-03-01T11:44:42Z</time>
      </trkpt>
      <trkpt lat="43.050472" lon="-1.811495">
        <ele>964.8</ele>
        <time>2026-03-01T11:44:46Z</time>
      </trkpt>
      <trkpt lat="43.050491" lon="-1.811471">
        <ele>965.2</ele>
        <time>2026-03-01T11:44:48Z</time>
      </trkpt>
      <trkpt lat="43.050508" lon="-1.811448">
        <ele>965.6</ele>
        <time>2026-03-01T11:44:50Z</time>
      </trkpt>
      <trkpt lat="43.050518" lon="-1.811432">
        <ele>966.0</ele>
        <time>2026-03-01T11:44:52Z</time>
      </trkpt>
      <trkpt lat="43.050528" lon="-1.811422">
        <ele>966.2</ele>
        <time>2026-03-01T11:44:53Z</time>
      </trkpt>
      <trkpt lat="43.050551" lon="-1.811406">
        <ele>966.4</ele>
        <time>2026-03-01T11:44:55Z</time>
      </trkpt>
      <trkpt lat="43.050592" lon="-1.811362">
        <ele>967.2</ele>
        <time>2026-03-01T11:44:58Z</time>
      </trkpt>
      <trkpt lat="43.050610" lon="-1.811337">
        <ele>968.0</ele>
        <time>2026-03-01T11:45:00Z</time>
      </trkpt>
      <trkpt lat="43.050624" lon="-1.811329">
        <ele>968.2</ele>
        <time>2026-03-01T11:45:01Z</time>
      </trkpt>
      <trkpt lat="43.050638" lon="-1.811319">
        <ele>968.2</ele>
        <time>2026-03-01T11:45:02Z</time>
      </trkpt>
      <trkpt lat="43.050700" lon="-1.811290">
        <ele>969.6</ele>
        <time>2026-03-01T11:45:06Z</time>
      </trkpt>
      <trkpt lat="43.050731" lon="-1.811272">
        <ele>969.8</ele>
        <time>2026-03-01T11:45:08Z</time>
      </trkpt>
      <trkpt lat="43.050848" lon="-1.811232">
        <ele>970.4</ele>
        <time>2026-03-01T11:45:16Z</time>
      </trkpt>
      <trkpt lat="43.050865" lon="-1.811225">
        <ele>970.6</ele>
        <time>2026-03-01T11:45:17Z</time>
      </trkpt>
      <trkpt lat="43.050895" lon="-1.811215">
        <ele>970.6</ele>
        <time>2026-03-01T11:45:20Z</time>
      </trkpt>
      <trkpt lat="43.050930" lon="-1.811200">
        <ele>971.0</ele>
        <time>2026-03-01T11:45:23Z</time>
      </trkpt>
      <trkpt lat="43.050950" lon="-1.811189">
        <ele>971.0</ele>
        <time>2026-03-01T11:45:24Z</time>
      </trkpt>
      <trkpt lat="43.050969" lon="-1.811179">
        <ele>971.2</ele>
        <time>2026-03-01T11:45:25Z</time>
      </trkpt>
      <trkpt lat="43.050989" lon="-1.811170">
        <ele>971.2</ele>
        <time>2026-03-01T11:45:26Z</time>
      </trkpt>
      <trkpt lat="43.051022" lon="-1.811152">
        <ele>971.6</ele>
        <time>2026-03-01T11:45:28Z</time>
      </trkpt>
      <trkpt lat="43.051056" lon="-1.811134">
        <ele>972.0</ele>
        <time>2026-03-01T11:45:30Z</time>
      </trkpt>
      <trkpt lat="43.051179" lon="-1.811082">
        <ele>972.6</ele>
        <time>2026-03-01T11:45:36Z</time>
      </trkpt>
      <trkpt lat="43.051204" lon="-1.811076">
        <ele>972.6</ele>
        <time>2026-03-01T11:45:37Z</time>
      </trkpt>
      <trkpt lat="43.051264" lon="-1.811052">
        <ele>972.8</ele>
        <time>2026-03-01T11:45:40Z</time>
      </trkpt>
      <trkpt lat="43.051305" lon="-1.811019">
        <ele>973.0</ele>
        <time>2026-03-01T11:45:42Z</time>
      </trkpt>
      <trkpt lat="43.051322" lon="-1.811003">
        <ele>973.2</ele>
        <time>2026-03-01T11:45:43Z</time>
      </trkpt>
      <trkpt lat="43.051358" lon="-1.810968">
        <ele>973.8</ele>
        <time>2026-03-01T11:45:45Z</time>
      </trkpt>
      <trkpt lat="43.051424" lon="-1.810903">
        <ele>974.4</ele>
        <time>2026-03-01T11:45:49Z</time>
      </trkpt>
      <trkpt lat="43.051440" lon="-1.810890">
        <ele>974.4</ele>
        <time>2026-03-01T11:45:50Z</time>
      </trkpt>
      <trkpt lat="43.051454" lon="-1.810877">
        <ele>975.0</ele>
        <time>2026-03-01T11:45:51Z</time>
      </trkpt>
      <trkpt lat="43.051531" lon="-1.810813">
        <ele>975.6</ele>
        <time>2026-03-01T11:45:56Z</time>
      </trkpt>
      <trkpt lat="43.051550" lon="-1.810803">
        <ele>975.6</ele>
        <time>2026-03-01T11:45:57Z</time>
      </trkpt>
      <trkpt lat="43.051583" lon="-1.810781">
        <ele>976.2</ele>
        <time>2026-03-01T11:45:59Z</time>
      </trkpt>
      <trkpt lat="43.051631" lon="-1.810744">
        <ele>977.0</ele>
        <time>2026-03-01T11:46:02Z</time>
      </trkpt>
      <trkpt lat="43.051646" lon="-1.810727">
        <ele>977.2</ele>
        <time>2026-03-01T11:46:03Z</time>
      </trkpt>
      <trkpt lat="43.051723" lon="-1.810633">
        <ele>978.4</ele>
        <time>2026-03-01T11:46:09Z</time>
      </trkpt>
      <trkpt lat="43.051747" lon="-1.810601">
        <ele>978.6</ele>
        <time>2026-03-01T11:46:11Z</time>
      </trkpt>
      <trkpt lat="43.051764" lon="-1.810579">
        <ele>979.4</ele>
        <time>2026-03-01T11:46:14Z</time>
      </trkpt>
      <trkpt lat="43.051785" lon="-1.810547">
        <ele>980.4</ele>
        <time>2026-03-01T11:46:17Z</time>
      </trkpt>
      <trkpt lat="43.051826" lon="-1.810488">
        <ele>982.0</ele>
        <time>2026-03-01T11:46:22Z</time>
      </trkpt>
      <trkpt lat="43.051845" lon="-1.810455">
        <ele>982.8</ele>
        <time>2026-03-01T11:46:24Z</time>
      </trkpt>
      <trkpt lat="43.051856" lon="-1.810438">
        <ele>983.0</ele>
        <time>2026-03-01T11:46:25Z</time>
      </trkpt>
      <trkpt lat="43.051905" lon="-1.810388">
        <ele>984.2</ele>
        <time>2026-03-01T11:46:29Z</time>
      </trkpt>
      <trkpt lat="43.051920" lon="-1.810377">
        <ele>984.6</ele>
        <time>2026-03-01T11:46:30Z</time>
      </trkpt>
      <trkpt lat="43.051932" lon="-1.810366">
        <ele>985.0</ele>
        <time>2026-03-01T11:46:31Z</time>
      </trkpt>
      <trkpt lat="43.051947" lon="-1.810354">
        <ele>985.2</ele>
        <time>2026-03-01T11:46:32Z</time>
      </trkpt>
      <trkpt lat="43.051961" lon="-1.810344">
        <ele>985.4</ele>
        <time>2026-03-01T11:46:33Z</time>
      </trkpt>
      <trkpt lat="43.052006" lon="-1.810312">
        <ele>986.0</ele>
        <time>2026-03-01T11:46:36Z</time>
      </trkpt>
      <trkpt lat="43.052042" lon="-1.810283">
        <ele>986.4</ele>
        <time>2026-03-01T11:46:38Z</time>
      </trkpt>
      <trkpt lat="43.052085" lon="-1.810243">
        <ele>987.0</ele>
        <time>2026-03-01T11:46:41Z</time>
      </trkpt>
      <trkpt lat="43.052123" lon="-1.810211">
        <ele>987.2</ele>
        <time>2026-03-01T11:46:44Z</time>
      </trkpt>
      <trkpt lat="43.052138" lon="-1.810185">
        <ele>987.6</ele>
        <time>2026-03-01T11:46:46Z</time>
      </trkpt>
      <trkpt lat="43.052156" lon="-1.810165">
        <ele>987.8</ele>
        <time>2026-03-01T11:46:48Z</time>
      </trkpt>
      <trkpt lat="43.052213" lon="-1.810131">
        <ele>988.8</ele>
        <time>2026-03-01T11:46:52Z</time>
      </trkpt>
      <trkpt lat="43.052242" lon="-1.810099">
        <ele>989.4</ele>
        <time>2026-03-01T11:46:55Z</time>
      </trkpt>
      <trkpt lat="43.052266" lon="-1.810076">
        <ele>989.8</ele>
        <time>2026-03-01T11:46:58Z</time>
      </trkpt>
      <trkpt lat="43.052274" lon="-1.810069">
        <ele>990.0</ele>
        <time>2026-03-01T11:46:59Z</time>
      </trkpt>
      <trkpt lat="43.052320" lon="-1.809997">
        <ele>991.0</ele>
        <time>2026-03-01T11:47:04Z</time>
      </trkpt>
      <trkpt lat="43.052349" lon="-1.809960">
        <ele>992.0</ele>
        <time>2026-03-01T11:47:07Z</time>
      </trkpt>
      <trkpt lat="43.052354" lon="-1.809946">
        <ele>992.2</ele>
        <time>2026-03-01T11:47:08Z</time>
      </trkpt>
      <trkpt lat="43.052365" lon="-1.809934">
        <ele>992.4</ele>
        <time>2026-03-01T11:47:09Z</time>
      </trkpt>
      <trkpt lat="43.052385" lon="-1.809901">
        <ele>992.6</ele>
        <time>2026-03-01T11:47:11Z</time>
      </trkpt>
      <trkpt lat="43.052394" lon="-1.809889">
        <ele>992.8</ele>
        <time>2026-03-01T11:47:12Z</time>
      </trkpt>
      <trkpt lat="43.052423" lon="-1.809852">
        <ele>993.6</ele>
        <time>2026-03-01T11:47:15Z</time>
      </trkpt>
      <trkpt lat="43.052430" lon="-1.809827">
        <ele>994.2</ele>
        <time>2026-03-01T11:47:17Z</time>
      </trkpt>
      <trkpt lat="43.052446" lon="-1.809810">
        <ele>994.6</ele>
        <time>2026-03-01T11:47:18Z</time>
      </trkpt>
      <trkpt lat="43.052454" lon="-1.809797">
        <ele>994.8</ele>
        <time>2026-03-01T11:47:19Z</time>
      </trkpt>
      <trkpt lat="43.052537" lon="-1.809712">
        <ele>995.8</ele>
        <time>2026-03-01T11:47:25Z</time>
      </trkpt>
      <trkpt lat="43.052549" lon="-1.809692">
        <ele>996.0</ele>
        <time>2026-03-01T11:47:26Z</time>
      </trkpt>
      <trkpt lat="43.052618" lon="-1.809596">
        <ele>996.8</ele>
        <time>2026-03-01T11:47:31Z</time>
      </trkpt>
      <trkpt lat="43.052644" lon="-1.809550">
        <ele>997.2</ele>
        <time>2026-03-01T11:47:34Z</time>
      </trkpt>
      <trkpt lat="43.052690" lon="-1.809480">
        <ele>997.8</ele>
        <time>2026-03-01T11:47:38Z</time>
      </trkpt>
      <trkpt lat="43.052703" lon="-1.809460">
        <ele>997.8</ele>
        <time>2026-03-01T11:47:39Z</time>
      </trkpt>
      <trkpt lat="43.052732" lon="-1.809392">
        <ele>998.2</ele>
        <time>2026-03-01T11:47:42Z</time>
      </trkpt>
      <trkpt lat="43.052780" lon="-1.809275">
        <ele>998.8</ele>
        <time>2026-03-01T11:47:48Z</time>
      </trkpt>
      <trkpt lat="43.052879" lon="-1.809209">
        <ele>1000.0</ele>
        <time>2026-03-01T11:47:53Z</time>
      </trkpt>
      <trkpt lat="43.052897" lon="-1.809198">
        <ele>1000.2</ele>
        <time>2026-03-01T11:47:54Z</time>
      </trkpt>
      <trkpt lat="43.052980" lon="-1.809100">
        <ele>1000.8</ele>
        <time>2026-03-01T11:48:00Z</time>
      </trkpt>
      <trkpt lat="43.052989" lon="-1.809074">
        <ele>1000.8</ele>
        <time>2026-03-01T11:48:01Z</time>
      </trkpt>
      <trkpt lat="43.053004" lon="-1.809035">
        <ele>1001.2</ele>
        <time>2026-03-01T11:48:03Z</time>
      </trkpt>
      <trkpt lat="43.053011" lon="-1.809014">
        <ele>1001.2</ele>
        <time>2026-03-01T11:48:04Z</time>
      </trkpt>
      <trkpt lat="43.053012" lon="-1.808984">
        <ele>1001.4</ele>
        <time>2026-03-01T11:48:06Z</time>
      </trkpt>
      <trkpt lat="43.053006" lon="-1.808992">
        <ele>1001.2</ele>
        <time>2026-03-01T11:48:14Z</time>
      </trkpt>
      <trkpt lat="43.053006" lon="-1.808990">
        <ele>1001.0</ele>
        <time>2026-03-01T11:48:21Z</time>
      </trkpt>
      <trkpt lat="43.053001" lon="-1.808962">
        <ele>1002.0</ele>
        <time>2026-03-01T11:48:29Z</time>
      </trkpt>
      <trkpt lat="43.052985" lon="-1.808933">
        <ele>1002.0</ele>
        <time>2026-03-01T11:48:31Z</time>
      </trkpt>
      <trkpt lat="43.052961" lon="-1.808909">
        <ele>1002.2</ele>
        <time>2026-03-01T11:48:33Z</time>
      </trkpt>
      <trkpt lat="43.052949" lon="-1.808896">
        <ele>1002.2</ele>
        <time>2026-03-01T11:48:34Z</time>
      </trkpt>
      <trkpt lat="43.052936" lon="-1.808881">
        <ele>1002.2</ele>
        <time>2026-03-01T11:48:35Z</time>
      </trkpt>
      <trkpt lat="43.052898" lon="-1.808837">
        <ele>1002.8</ele>
        <time>2026-03-01T11:48:38Z</time>
      </trkpt>
      <trkpt lat="43.052874" lon="-1.808810">
        <ele>1003.4</ele>
        <time>2026-03-01T11:48:40Z</time>
      </trkpt>
      <trkpt lat="43.052851" lon="-1.808791">
        <ele>1004.0</ele>
        <time>2026-03-01T11:48:42Z</time>
      </trkpt>
      <trkpt lat="43.052840" lon="-1.808784">
        <ele>1004.4</ele>
        <time>2026-03-01T11:48:43Z</time>
      </trkpt>
      <trkpt lat="43.052829" lon="-1.808775">
        <ele>1004.6</ele>
        <time>2026-03-01T11:48:44Z</time>
      </trkpt>
      <trkpt lat="43.052812" lon="-1.808754">
        <ele>1004.8</ele>
        <time>2026-03-01T11:48:46Z</time>
      </trkpt>
      <trkpt lat="43.052807" lon="-1.808739">
        <ele>1005.2</ele>
        <time>2026-03-01T11:48:47Z</time>
      </trkpt>
      <trkpt lat="43.052794" lon="-1.808696">
        <ele>1005.4</ele>
        <time>2026-03-01T11:48:49Z</time>
      </trkpt>
      <trkpt lat="43.052782" lon="-1.808658">
        <ele>1005.4</ele>
        <time>2026-03-01T11:48:51Z</time>
      </trkpt>
      <trkpt lat="43.052766" lon="-1.808584">
        <ele>1006.0</ele>
        <time>2026-03-01T11:48:55Z</time>
      </trkpt>
      <trkpt lat="43.052757" lon="-1.808545">
        <ele>1006.6</ele>
        <time>2026-03-01T11:48:57Z</time>
      </trkpt>
      <trkpt lat="43.052748" lon="-1.808509">
        <ele>1007.0</ele>
        <time>2026-03-01T11:48:59Z</time>
      </trkpt>
      <trkpt lat="43.052746" lon="-1.808498">
        <ele>1007.2</ele>
        <time>2026-03-01T11:49:00Z</time>
      </trkpt>
      <trkpt lat="43.052749" lon="-1.808484">
        <ele>1007.4</ele>
        <time>2026-03-01T11:49:01Z</time>
      </trkpt>
      <trkpt lat="43.052751" lon="-1.808467">
        <ele>1007.4</ele>
        <time>2026-03-01T11:49:02Z</time>
      </trkpt>
      <trkpt lat="43.052732" lon="-1.808376">
        <ele>1007.8</ele>
        <time>2026-03-01T11:49:07Z</time>
      </trkpt>
      <trkpt lat="43.052730" lon="-1.808359">
        <ele>1008.0</ele>
        <time>2026-03-01T11:49:08Z</time>
      </trkpt>
      <trkpt lat="43.052707" lon="-1.808293">
        <ele>1008.6</ele>
        <time>2026-03-01T11:49:12Z</time>
      </trkpt>
      <trkpt lat="43.052702" lon="-1.808271">
        <ele>1008.8</ele>
        <time>2026-03-01T11:49:13Z</time>
      </trkpt>
      <trkpt lat="43.052699" lon="-1.808226">
        <ele>1009.6</ele>
        <time>2026-03-01T11:49:15Z</time>
      </trkpt>
      <trkpt lat="43.052697" lon="-1.808180">
        <ele>1010.2</ele>
        <time>2026-03-01T11:49:17Z</time>
      </trkpt>
      <trkpt lat="43.052701" lon="-1.808089">
        <ele>1011.2</ele>
        <time>2026-03-01T11:49:21Z</time>
      </trkpt>
      <trkpt lat="43.052699" lon="-1.808041">
        <ele>1011.4</ele>
        <time>2026-03-01T11:49:23Z</time>
      </trkpt>
      <trkpt lat="43.052684" lon="-1.807914">
        <ele>1011.6</ele>
        <time>2026-03-01T11:49:29Z</time>
      </trkpt>
      <trkpt lat="43.052678" lon="-1.807818">
        <ele>1011.8</ele>
        <time>2026-03-01T11:49:32Z</time>
      </trkpt>
      <trkpt lat="43.052667" lon="-1.807801">
        <ele>1011.8</ele>
        <time>2026-03-01T11:49:33Z</time>
      </trkpt>
      <trkpt lat="43.052653" lon="-1.807793">
        <ele>1011.8</ele>
        <time>2026-03-01T11:49:34Z</time>
      </trkpt>
      <trkpt lat="43.052646" lon="-1.807801">
        <ele>1012.0</ele>
        <time>2026-03-01T11:49:35Z</time>
      </trkpt>
      <trkpt lat="43.052633" lon="-1.807859">
        <ele>1012.0</ele>
        <time>2026-03-01T11:49:38Z</time>
      </trkpt>
      <trkpt lat="43.052613" lon="-1.807922">
        <ele>1012.4</ele>
        <time>2026-03-01T11:49:41Z</time>
      </trkpt>
      <trkpt lat="43.052605" lon="-1.807987">
        <ele>1012.8</ele>
        <time>2026-03-01T11:49:44Z</time>
      </trkpt>
      <trkpt lat="43.052568" lon="-1.808081">
        <ele>1014.0</ele>
        <time>2026-03-01T11:49:48Z</time>
      </trkpt>
      <trkpt lat="43.052549" lon="-1.808130">
        <ele>1014.8</ele>
        <time>2026-03-01T11:49:50Z</time>
      </trkpt>
      <trkpt lat="43.052539" lon="-1.808151">
        <ele>1015.0</ele>
        <time>2026-03-01T11:49:51Z</time>
      </trkpt>
      <trkpt lat="43.052504" lon="-1.808255">
        <ele>1015.4</ele>
        <time>2026-03-01T11:49:56Z</time>
      </trkpt>
      <trkpt lat="43.052452" lon="-1.808354">
        <ele>1016.0</ele>
        <time>2026-03-01T11:50:01Z</time>
      </trkpt>
      <trkpt lat="43.052441" lon="-1.808365">
        <ele>1016.2</ele>
        <time>2026-03-01T11:50:02Z</time>
      </trkpt>
      <trkpt lat="43.052430" lon="-1.808378">
        <ele>1016.4</ele>
        <time>2026-03-01T11:50:03Z</time>
      </trkpt>
      <trkpt lat="43.052421" lon="-1.808379">
        <ele>1017.0</ele>
        <time>2026-03-01T11:50:05Z</time>
      </trkpt>
      <trkpt lat="43.052426" lon="-1.808356">
        <ele>1017.8</ele>
        <time>2026-03-01T11:50:07Z</time>
      </trkpt>
      <trkpt lat="43.052433" lon="-1.808344">
        <ele>1018.0</ele>
        <time>2026-03-01T11:50:08Z</time>
      </trkpt>
      <trkpt lat="43.052439" lon="-1.808325">
        <ele>1018.2</ele>
        <time>2026-03-01T11:50:09Z</time>
      </trkpt>
      <trkpt lat="43.052451" lon="-1.808214">
        <ele>1018.6</ele>
        <time>2026-03-01T11:50:14Z</time>
      </trkpt>
      <trkpt lat="43.052449" lon="-1.808140">
        <ele>1018.6</ele>
        <time>2026-03-01T11:50:17Z</time>
      </trkpt>
      <trkpt lat="43.052416" lon="-1.808101">
        <ele>1018.8</ele>
        <time>2026-03-01T11:50:19Z</time>
      </trkpt>
      <trkpt lat="43.052380" lon="-1.808119">
        <ele>1019.2</ele>
        <time>2026-03-01T11:50:22Z</time>
      </trkpt>
      <trkpt lat="43.052363" lon="-1.808142">
        <ele>1019.8</ele>
        <time>2026-03-01T11:50:24Z</time>
      </trkpt>
      <trkpt lat="43.052318" lon="-1.808186">
        <ele>1020.4</ele>
        <time>2026-03-01T11:50:28Z</time>
      </trkpt>
      <trkpt lat="43.052309" lon="-1.808216">
        <ele>1021.2</ele>
        <time>2026-03-01T11:50:30Z</time>
      </trkpt>
      <trkpt lat="43.052294" lon="-1.808249">
        <ele>1021.6</ele>
        <time>2026-03-01T11:50:32Z</time>
      </trkpt>
      <trkpt lat="43.052269" lon="-1.808235">
        <ele>1022.6</ele>
        <time>2026-03-01T11:50:36Z</time>
      </trkpt>
      <trkpt lat="43.052272" lon="-1.808216">
        <ele>1023.0</ele>
        <time>2026-03-01T11:50:38Z</time>
      </trkpt>
      <trkpt lat="43.052265" lon="-1.808112">
        <ele>1023.4</ele>
        <time>2026-03-01T11:50:42Z</time>
      </trkpt>
      <trkpt lat="43.052246" lon="-1.808054">
        <ele>1023.6</ele>
        <time>2026-03-01T11:50:45Z</time>
      </trkpt>
      <trkpt lat="43.052240" lon="-1.807987">
        <ele>1024.2</ele>
        <time>2026-03-01T11:50:48Z</time>
      </trkpt>
      <trkpt lat="43.052242" lon="-1.807909">
        <ele>1024.8</ele>
        <time>2026-03-01T11:50:52Z</time>
      </trkpt>
      <trkpt lat="43.052247" lon="-1.807845">
        <ele>1025.4</ele>
        <time>2026-03-01T11:50:55Z</time>
      </trkpt>
      <trkpt lat="43.052246" lon="-1.807764">
        <ele>1025.8</ele>
        <time>2026-03-01T11:50:59Z</time>
      </trkpt>
      <trkpt lat="43.052232" lon="-1.807674">
        <ele>1026.0</ele>
        <time>2026-03-01T11:51:03Z</time>
      </trkpt>
      <trkpt lat="43.052215" lon="-1.807516">
        <ele>1026.8</ele>
        <time>2026-03-01T11:51:10Z</time>
      </trkpt>
      <trkpt lat="43.052203" lon="-1.807425">
        <ele>1028.0</ele>
        <time>2026-03-01T11:51:14Z</time>
      </trkpt>
      <trkpt lat="43.052191" lon="-1.807405">
        <ele>1028.4</ele>
        <time>2026-03-01T11:51:15Z</time>
      </trkpt>
      <trkpt lat="43.052174" lon="-1.807396">
        <ele>1028.6</ele>
        <time>2026-03-01T11:51:16Z</time>
      </trkpt>
      <trkpt lat="43.052143" lon="-1.807408">
        <ele>1029.2</ele>
        <time>2026-03-01T11:51:18Z</time>
      </trkpt>
      <trkpt lat="43.052113" lon="-1.807452">
        <ele>1030.4</ele>
        <time>2026-03-01T11:51:21Z</time>
      </trkpt>
      <trkpt lat="43.052093" lon="-1.807472">
        <ele>1031.6</ele>
        <time>2026-03-01T11:51:23Z</time>
      </trkpt>
      <trkpt lat="43.052044" lon="-1.807544">
        <ele>1032.4</ele>
        <time>2026-03-01T11:51:28Z</time>
      </trkpt>
      <trkpt lat="43.051980" lon="-1.807649">
        <ele>1032.4</ele>
        <time>2026-03-01T11:51:35Z</time>
      </trkpt>
      <trkpt lat="43.051970" lon="-1.807667">
        <ele>1032.6</ele>
        <time>2026-03-01T11:51:36Z</time>
      </trkpt>
      <trkpt lat="43.051918" lon="-1.807766">
        <ele>1033.2</ele>
        <time>2026-03-01T11:51:41Z</time>
      </trkpt>
      <trkpt lat="43.051883" lon="-1.807829">
        <ele>1032.8</ele>
        <time>2026-03-01T11:51:44Z</time>
      </trkpt>
      <trkpt lat="43.051854" lon="-1.807897">
        <ele>1033.0</ele>
        <time>2026-03-01T11:51:47Z</time>
      </trkpt>
      <trkpt lat="43.051787" lon="-1.807961">
        <ele>1033.8</ele>
        <time>2026-03-01T11:51:52Z</time>
      </trkpt>
      <trkpt lat="43.051774" lon="-1.807964">
        <ele>1034.0</ele>
        <time>2026-03-01T11:51:53Z</time>
      </trkpt>
      <trkpt lat="43.051719" lon="-1.808000">
        <ele>1034.6</ele>
        <time>2026-03-01T11:51:57Z</time>
      </trkpt>
      <trkpt lat="43.051706" lon="-1.807998">
        <ele>1035.0</ele>
        <time>2026-03-01T11:51:58Z</time>
      </trkpt>
      <trkpt lat="43.051698" lon="-1.807991">
        <ele>1035.2</ele>
        <time>2026-03-01T11:51:59Z</time>
      </trkpt>
      <trkpt lat="43.051695" lon="-1.807968">
        <ele>1035.6</ele>
        <time>2026-03-01T11:52:01Z</time>
      </trkpt>
      <trkpt lat="43.051707" lon="-1.807943">
        <ele>1036.2</ele>
        <time>2026-03-01T11:52:03Z</time>
      </trkpt>
      <trkpt lat="43.051745" lon="-1.807818">
        <ele>1036.8</ele>
        <time>2026-03-01T11:52:09Z</time>
      </trkpt>
      <trkpt lat="43.051747" lon="-1.807750">
        <ele>1037.0</ele>
        <time>2026-03-01T11:52:12Z</time>
      </trkpt>
      <trkpt lat="43.051750" lon="-1.807730">
        <ele>1037.2</ele>
        <time>2026-03-01T11:52:13Z</time>
      </trkpt>
      <trkpt lat="43.051755" lon="-1.807705">
        <ele>1037.2</ele>
        <time>2026-03-01T11:52:14Z</time>
      </trkpt>
      <trkpt lat="43.051812" lon="-1.807554">
        <ele>1037.0</ele>
        <time>2026-03-01T11:52:20Z</time>
      </trkpt>
      <trkpt lat="43.051853" lon="-1.807355">
        <ele>1037.0</ele>
        <time>2026-03-01T11:52:26Z</time>
      </trkpt>
      <trkpt lat="43.051849" lon="-1.807232">
        <ele>1038.4</ele>
        <time>2026-03-01T11:52:32Z</time>
      </trkpt>
      <trkpt lat="43.051839" lon="-1.807153">
        <ele>1039.0</ele>
        <time>2026-03-01T11:52:35Z</time>
      </trkpt>
      <trkpt lat="43.051808" lon="-1.807137">
        <ele>1039.2</ele>
        <time>2026-03-01T11:52:37Z</time>
      </trkpt>
      <trkpt lat="43.051795" lon="-1.807147">
        <ele>1039.4</ele>
        <time>2026-03-01T11:52:38Z</time>
      </trkpt>
      <trkpt lat="43.051744" lon="-1.807212">
        <ele>1040.2</ele>
        <time>2026-03-01T11:52:44Z</time>
      </trkpt>
      <trkpt lat="43.051696" lon="-1.807283">
        <ele>1040.6</ele>
        <time>2026-03-01T11:52:48Z</time>
      </trkpt>
      <trkpt lat="43.051667" lon="-1.807333">
        <ele>1041.2</ele>
        <time>2026-03-01T11:52:51Z</time>
      </trkpt>
      <trkpt lat="43.051620" lon="-1.807418">
        <ele>1041.4</ele>
        <time>2026-03-01T11:52:55Z</time>
      </trkpt>
      <trkpt lat="43.051605" lon="-1.807421">
        <ele>1041.4</ele>
        <time>2026-03-01T11:52:56Z</time>
      </trkpt>
      <trkpt lat="43.051600" lon="-1.807409">
        <ele>1042.2</ele>
        <time>2026-03-01T11:52:58Z</time>
      </trkpt>
      <trkpt lat="43.051616" lon="-1.807377">
        <ele>1043.0</ele>
        <time>2026-03-01T11:53:00Z</time>
      </trkpt>
      <trkpt lat="43.051629" lon="-1.807328">
        <ele>1043.4</ele>
        <time>2026-03-01T11:53:02Z</time>
      </trkpt>
      <trkpt lat="43.051640" lon="-1.807300">
        <ele>1043.8</ele>
        <time>2026-03-01T11:53:04Z</time>
      </trkpt>
      <trkpt lat="43.051619" lon="-1.807286">
        <ele>1044.0</ele>
        <time>2026-03-01T11:53:06Z</time>
      </trkpt>
      <trkpt lat="43.051521" lon="-1.807336">
        <ele>1043.8</ele>
        <time>2026-03-01T11:53:12Z</time>
      </trkpt>
      <trkpt lat="43.051463" lon="-1.807373">
        <ele>1044.4</ele>
        <time>2026-03-01T11:53:16Z</time>
      </trkpt>
      <trkpt lat="43.051420" lon="-1.807405">
        <ele>1044.4</ele>
        <time>2026-03-01T11:53:19Z</time>
      </trkpt>
      <trkpt lat="43.051404" lon="-1.807408">
        <ele>1045.0</ele>
        <time>2026-03-01T11:53:20Z</time>
      </trkpt>
      <trkpt lat="43.051392" lon="-1.807400">
        <ele>1045.4</ele>
        <time>2026-03-01T11:53:21Z</time>
      </trkpt>
      <trkpt lat="43.051381" lon="-1.807388">
        <ele>1045.8</ele>
        <time>2026-03-01T11:53:22Z</time>
      </trkpt>
      <trkpt lat="43.051379" lon="-1.807373">
        <ele>1046.2</ele>
        <time>2026-03-01T11:53:23Z</time>
      </trkpt>
      <trkpt lat="43.051398" lon="-1.807346">
        <ele>1046.4</ele>
        <time>2026-03-01T11:53:25Z</time>
      </trkpt>
      <trkpt lat="43.051412" lon="-1.807276">
        <ele>1047.0</ele>
        <time>2026-03-01T11:53:29Z</time>
      </trkpt>
      <trkpt lat="43.051430" lon="-1.807240">
        <ele>1047.4</ele>
        <time>2026-03-01T11:53:31Z</time>
      </trkpt>
      <trkpt lat="43.051446" lon="-1.807226">
        <ele>1047.6</ele>
        <time>2026-03-01T11:53:32Z</time>
      </trkpt>
      <trkpt lat="43.051459" lon="-1.807213">
        <ele>1047.8</ele>
        <time>2026-03-01T11:53:33Z</time>
      </trkpt>
      <trkpt lat="43.051460" lon="-1.807190">
        <ele>1048.0</ele>
        <time>2026-03-01T11:53:34Z</time>
      </trkpt>
      <trkpt lat="43.051458" lon="-1.807146">
        <ele>1048.4</ele>
        <time>2026-03-01T11:53:36Z</time>
      </trkpt>
      <trkpt lat="43.051452" lon="-1.807125">
        <ele>1048.6</ele>
        <time>2026-03-01T11:53:37Z</time>
      </trkpt>
      <trkpt lat="43.051453" lon="-1.807090">
        <ele>1048.8</ele>
        <time>2026-03-01T11:53:39Z</time>
      </trkpt>
      <trkpt lat="43.051445" lon="-1.807042">
        <ele>1049.0</ele>
        <time>2026-03-01T11:53:41Z</time>
      </trkpt>
      <trkpt lat="43.051427" lon="-1.807028">
        <ele>1049.2</ele>
        <time>2026-03-01T11:53:42Z</time>
      </trkpt>
      <trkpt lat="43.051360" lon="-1.807061">
        <ele>1049.6</ele>
        <time>2026-03-01T11:53:47Z</time>
      </trkpt>
      <trkpt lat="43.051344" lon="-1.807076">
        <ele>1049.6</ele>
        <time>2026-03-01T11:53:48Z</time>
      </trkpt>
      <trkpt lat="43.051275" lon="-1.807113">
        <ele>1050.4</ele>
        <time>2026-03-01T11:53:53Z</time>
      </trkpt>
      <trkpt lat="43.051272" lon="-1.807099">
        <ele>1050.8</ele>
        <time>2026-03-01T11:53:54Z</time>
      </trkpt>
      <trkpt lat="43.051269" lon="-1.807044">
        <ele>1051.4</ele>
        <time>2026-03-01T11:53:57Z</time>
      </trkpt>
      <trkpt lat="43.051273" lon="-1.807027">
        <ele>1051.6</ele>
        <time>2026-03-01T11:53:58Z</time>
      </trkpt>
      <trkpt lat="43.051279" lon="-1.806992">
        <ele>1051.8</ele>
        <time>2026-03-01T11:54:00Z</time>
      </trkpt>
      <trkpt lat="43.051289" lon="-1.806962">
        <ele>1052.0</ele>
        <time>2026-03-01T11:54:02Z</time>
      </trkpt>
      <trkpt lat="43.051311" lon="-1.806934">
        <ele>1052.2</ele>
        <time>2026-03-01T11:54:04Z</time>
      </trkpt>
      <trkpt lat="43.051318" lon="-1.806911">
        <ele>1052.2</ele>
        <time>2026-03-01T11:54:05Z</time>
      </trkpt>
      <trkpt lat="43.051317" lon="-1.806875">
        <ele>1052.2</ele>
        <time>2026-03-01T11:54:07Z</time>
      </trkpt>
      <trkpt lat="43.051305" lon="-1.806873">
        <ele>1052.4</ele>
        <time>2026-03-01T11:54:08Z</time>
      </trkpt>
      <trkpt lat="43.051266" lon="-1.806899">
        <ele>1053.0</ele>
        <time>2026-03-01T11:54:11Z</time>
      </trkpt>
      <trkpt lat="43.051232" lon="-1.806910">
        <ele>1053.4</ele>
        <time>2026-03-01T11:54:13Z</time>
      </trkpt>
      <trkpt lat="43.051142" lon="-1.806951">
        <ele>1053.8</ele>
        <time>2026-03-01T11:54:19Z</time>
      </trkpt>
      <trkpt lat="43.051109" lon="-1.806968">
        <ele>1054.0</ele>
        <time>2026-03-01T11:54:21Z</time>
      </trkpt>
      <trkpt lat="43.051053" lon="-1.806965">
        <ele>1055.0</ele>
        <time>2026-03-01T11:54:25Z</time>
      </trkpt>
      <trkpt lat="43.051044" lon="-1.806959">
        <ele>1055.6</ele>
        <time>2026-03-01T11:54:26Z</time>
      </trkpt>
      <trkpt lat="43.050994" lon="-1.806931">
        <ele>1056.6</ele>
        <time>2026-03-01T11:54:30Z</time>
      </trkpt>
      <trkpt lat="43.050940" lon="-1.806857">
        <ele>1057.8</ele>
        <time>2026-03-01T11:54:36Z</time>
      </trkpt>
      <trkpt lat="43.050938" lon="-1.806847">
        <ele>1057.8</ele>
        <time>2026-03-01T11:54:37Z</time>
      </trkpt>
      <trkpt lat="43.050939" lon="-1.806788">
        <ele>1057.8</ele>
        <time>2026-03-01T11:54:44Z</time>
      </trkpt>
      <trkpt lat="43.050941" lon="-1.806758">
        <ele>1057.4</ele>
        <time>2026-03-01T11:54:52Z</time>
      </trkpt>
      <trkpt lat="43.050941" lon="-1.806758">
        <ele>1057.4</ele>
        <time>2026-03-01T11:54:53Z</time>
      </trkpt>
      <trkpt lat="43.050944" lon="-1.806758">
        <ele>1057.2</ele>
        <time>2026-03-01T11:55:00Z</time>
      </trkpt>
      <trkpt lat="43.050950" lon="-1.806750">
        <ele>1057.4</ele>
        <time>2026-03-01T11:55:03Z</time>
      </trkpt>
      <trkpt lat="43.050952" lon="-1.806740">
        <ele>1057.4</ele>
        <time>2026-03-01T11:55:10Z</time>
      </trkpt>
      <trkpt lat="43.050950" lon="-1.806731">
        <ele>1057.6</ele>
        <time>2026-03-01T11:55:18Z</time>
      </trkpt>
      <trkpt lat="43.050950" lon="-1.806731">
        <ele>1057.6</ele>
        <time>2026-03-01T11:55:19Z</time>
      </trkpt>
      <trkpt lat="43.050951" lon="-1.806731">
        <ele>1057.6</ele>
        <time>2026-03-01T11:55:20Z</time>
      </trkpt>
      <trkpt lat="43.050952" lon="-1.806740">
        <ele>1058.2</ele>
        <time>2026-03-01T11:55:31Z</time>
      </trkpt>
      <trkpt lat="43.050949" lon="-1.806733">
        <ele>1057.8</ele>
        <time>2026-03-01T11:55:39Z</time>
      </trkpt>
      <trkpt lat="43.050953" lon="-1.806719">
        <ele>1057.4</ele>
        <time>2026-03-01T11:55:42Z</time>
      </trkpt>
      <trkpt lat="43.050955" lon="-1.806713">
        <ele>1057.4</ele>
        <time>2026-03-01T11:55:43Z</time>
      </trkpt>
      <trkpt lat="43.050959" lon="-1.806709">
        <ele>1057.2</ele>
        <time>2026-03-01T11:55:44Z</time>
      </trkpt>
      <trkpt lat="43.050961" lon="-1.806701">
        <ele>1057.0</ele>
        <time>2026-03-01T11:55:45Z</time>
      </trkpt>
      <trkpt lat="43.050965" lon="-1.806694">
        <ele>1057.0</ele>
        <time>2026-03-01T11:55:46Z</time>
      </trkpt>
      <trkpt lat="43.050970" lon="-1.806690">
        <ele>1056.8</ele>
        <time>2026-03-01T11:55:47Z</time>
      </trkpt>
      <trkpt lat="43.050979" lon="-1.806686">
        <ele>1056.8</ele>
        <time>2026-03-01T11:55:48Z</time>
      </trkpt>
      <trkpt lat="43.050989" lon="-1.806678">
        <ele>1056.8</ele>
        <time>2026-03-01T11:55:49Z</time>
      </trkpt>
      <trkpt lat="43.051017" lon="-1.806628">
        <ele>1057.0</ele>
        <time>2026-03-01T11:55:55Z</time>
      </trkpt>
      <trkpt lat="43.051022" lon="-1.806605">
        <ele>1057.0</ele>
        <time>2026-03-01T11:55:57Z</time>
      </trkpt>
      <trkpt lat="43.051013" lon="-1.806560">
        <ele>1057.0</ele>
        <time>2026-03-01T11:56:08Z</time>
      </trkpt>
      <trkpt lat="43.050941" lon="-1.806600">
        <ele>1058.2</ele>
        <time>2026-03-01T11:56:13Z</time>
      </trkpt>
      <trkpt lat="43.050883" lon="-1.806617">
        <ele>1058.0</ele>
        <time>2026-03-01T11:56:17Z</time>
      </trkpt>
      <trkpt lat="43.050863" lon="-1.806605">
        <ele>1058.0</ele>
        <time>2026-03-01T11:56:19Z</time>
      </trkpt>
      <trkpt lat="43.050871" lon="-1.806646">
        <ele>1058.2</ele>
        <time>2026-03-01T11:56:23Z</time>
      </trkpt>
      <trkpt lat="43.050882" lon="-1.806664">
        <ele>1058.2</ele>
        <time>2026-03-01T11:56:24Z</time>
      </trkpt>
      <trkpt lat="43.050938" lon="-1.806742">
        <ele>1058.2</ele>
        <time>2026-03-01T11:56:29Z</time>
      </trkpt>
      <trkpt lat="43.050936" lon="-1.806711">
        <ele>1057.0</ele>
        <time>2026-03-01T11:56:37Z</time>
      </trkpt>
      <trkpt lat="43.050937" lon="-1.806709">
        <ele>1057.6</ele>
        <time>2026-03-01T11:56:43Z</time>
      </trkpt>
      <trkpt lat="43.050926" lon="-1.806705">
        <ele>1057.8</ele>
        <time>2026-03-01T11:56:45Z</time>
      </trkpt>
      <trkpt lat="43.050914" lon="-1.806701">
        <ele>1057.8</ele>
        <time>2026-03-01T11:56:46Z</time>
      </trkpt>
      <trkpt lat="43.050891" lon="-1.806682">
        <ele>1058.0</ele>
        <time>2026-03-01T11:56:51Z</time>
      </trkpt>
      <trkpt lat="43.050874" lon="-1.806650">
        <ele>1058.8</ele>
        <time>2026-03-01T11:56:57Z</time>
      </trkpt>
      <trkpt lat="43.050877" lon="-1.806653">
        <ele>1059.0</ele>
        <time>2026-03-01T11:57:01Z</time>
      </trkpt>
      <trkpt lat="43.050886" lon="-1.806673">
        <ele>1058.8</ele>
        <time>2026-03-01T11:57:02Z</time>
      </trkpt>
      <trkpt lat="43.050907" lon="-1.806720">
        <ele>1058.6</ele>
        <time>2026-03-01T11:57:04Z</time>
      </trkpt>
      <trkpt lat="43.050926" lon="-1.806752">
        <ele>1058.4</ele>
        <time>2026-03-01T11:57:06Z</time>
      </trkpt>
      <trkpt lat="43.050934" lon="-1.806755">
        <ele>1058.4</ele>
        <time>2026-03-01T11:57:07Z</time>
      </trkpt>
      <trkpt lat="43.050927" lon="-1.806755">
        <ele>1057.8</ele>
        <time>2026-03-01T11:57:11Z</time>
      </trkpt>
      <trkpt lat="43.050927" lon="-1.806758">
        <ele>1057.8</ele>
        <time>2026-03-01T11:57:12Z</time>
      </trkpt>
      <trkpt lat="43.050927" lon="-1.806759">
        <ele>1057.8</ele>
        <time>2026-03-01T11:57:13Z</time>
      </trkpt>
      <trkpt lat="43.050923" lon="-1.806754">
        <ele>1057.6</ele>
        <time>2026-03-01T11:57:16Z</time>
      </trkpt>
      <trkpt lat="43.050937" lon="-1.806722">
        <ele>1057.4</ele>
        <time>2026-03-01T11:57:20Z</time>
      </trkpt>
      <trkpt lat="43.050935" lon="-1.806715">
        <ele>1057.2</ele>
        <time>2026-03-01T11:57:21Z</time>
      </trkpt>
      <trkpt lat="43.050924" lon="-1.806696">
        <ele>1057.6</ele>
        <time>2026-03-01T11:57:26Z</time>
      </trkpt>
      <trkpt lat="43.050921" lon="-1.806692">
        <ele>1057.8</ele>
        <time>2026-03-01T11:57:31Z</time>
      </trkpt>
      <trkpt lat="43.050921" lon="-1.806691">
        <ele>1057.8</ele>
        <time>2026-03-01T11:57:33Z</time>
      </trkpt>
      <trkpt lat="43.050922" lon="-1.806691">
        <ele>1057.8</ele>
        <time>2026-03-01T11:57:34Z</time>
      </trkpt>
      <trkpt lat="43.050908" lon="-1.806680">
        <ele>1058.0</ele>
        <time>2026-03-01T11:57:37Z</time>
      </trkpt>
      <trkpt lat="43.050883" lon="-1.806656">
        <ele>1058.2</ele>
        <time>2026-03-01T11:57:39Z</time>
      </trkpt>
      <trkpt lat="43.050870" lon="-1.806644">
        <ele>1056.6</ele>
        <time>2026-03-01T11:57:43Z</time>
      </trkpt>
      <trkpt lat="43.050868" lon="-1.806643">
        <ele>1056.6</ele>
        <time>2026-03-01T11:57:44Z</time>
      </trkpt>
      <trkpt lat="43.050866" lon="-1.806629">
        <ele>1057.8</ele>
        <time>2026-03-01T11:57:48Z</time>
      </trkpt>
      <trkpt lat="43.050869" lon="-1.806632">
        <ele>1057.8</ele>
        <time>2026-03-01T11:57:49Z</time>
      </trkpt>
      <trkpt lat="43.050877" lon="-1.806640">
        <ele>1058.0</ele>
        <time>2026-03-01T11:57:50Z</time>
      </trkpt>
      <trkpt lat="43.050887" lon="-1.806649">
        <ele>1058.0</ele>
        <time>2026-03-01T11:57:51Z</time>
      </trkpt>
      <trkpt lat="43.050894" lon="-1.806661">
        <ele>1058.0</ele>
        <time>2026-03-01T11:57:52Z</time>
      </trkpt>
      <trkpt lat="43.050925" lon="-1.806706">
        <ele>1058.0</ele>
        <time>2026-03-01T11:57:54Z</time>
      </trkpt>
      <trkpt lat="43.050940" lon="-1.806741">
        <ele>1058.0</ele>
        <time>2026-03-01T11:57:58Z</time>
      </trkpt>
      <trkpt lat="43.050929" lon="-1.806748">
        <ele>1058.2</ele>
        <time>2026-03-01T11:58:01Z</time>
      </trkpt>
      <trkpt lat="43.050919" lon="-1.806743">
        <ele>1058.2</ele>
        <time>2026-03-01T11:58:03Z</time>
      </trkpt>
      <trkpt lat="43.050908" lon="-1.806742">
        <ele>1058.8</ele>
        <time>2026-03-01T11:58:05Z</time>
      </trkpt>
      <trkpt lat="43.050905" lon="-1.806744">
        <ele>1058.8</ele>
        <time>2026-03-01T11:58:06Z</time>
      </trkpt>
      <trkpt lat="43.050893" lon="-1.806736">
        <ele>1059.4</ele>
        <time>2026-03-01T11:58:13Z</time>
      </trkpt>
      <trkpt lat="43.050890" lon="-1.806721">
        <ele>1059.8</ele>
        <time>2026-03-01T11:58:15Z</time>
      </trkpt>
      <trkpt lat="43.050913" lon="-1.806690">
        <ele>1059.8</ele>
        <time>2026-03-01T11:58:22Z</time>
      </trkpt>
      <trkpt lat="43.050904" lon="-1.806646">
        <ele>1059.8</ele>
        <time>2026-03-01T11:58:29Z</time>
      </trkpt>
      <trkpt lat="43.050883" lon="-1.806577">
        <ele>1060.0</ele>
        <time>2026-03-01T11:58:36Z</time>
      </trkpt>
      <trkpt lat="43.050898" lon="-1.806603">
        <ele>1060.6</ele>
        <time>2026-03-01T11:58:46Z</time>
      </trkpt>
      <trkpt lat="43.050897" lon="-1.806605">
        <ele>1061.0</ele>
        <time>2026-03-01T11:58:47Z</time>
      </trkpt>
      <trkpt lat="43.050891" lon="-1.806606">
        <ele>1061.0</ele>
        <time>2026-03-01T11:58:54Z</time>
      </trkpt>
      <trkpt lat="43.050888" lon="-1.806602">
        <ele>1060.8</ele>
        <time>2026-03-01T11:59:02Z</time>
      </trkpt>
      <trkpt lat="43.050887" lon="-1.806594">
        <ele>1060.8</ele>
        <time>2026-03-01T11:59:04Z</time>
      </trkpt>
      <trkpt lat="43.050880" lon="-1.806560">
        <ele>1061.0</ele>
        <time>2026-03-01T11:59:07Z</time>
      </trkpt>
      <trkpt lat="43.050861" lon="-1.806501">
        <ele>1061.6</ele>
        <time>2026-03-01T11:59:10Z</time>
      </trkpt>
      <trkpt lat="43.050843" lon="-1.806436">
        <ele>1062.2</ele>
        <time>2026-03-01T11:59:13Z</time>
      </trkpt>
      <trkpt lat="43.050824" lon="-1.806377">
        <ele>1063.2</ele>
        <time>2026-03-01T11:59:16Z</time>
      </trkpt>
      <trkpt lat="43.050817" lon="-1.806358">
        <ele>1063.4</ele>
        <time>2026-03-01T11:59:17Z</time>
      </trkpt>
      <trkpt lat="43.050757" lon="-1.806227">
        <ele>1064.4</ele>
        <time>2026-03-01T11:59:23Z</time>
      </trkpt>
      <trkpt lat="43.050755" lon="-1.806204">
        <ele>1064.6</ele>
        <time>2026-03-01T11:59:24Z</time>
      </trkpt>
      <trkpt lat="43.050740" lon="-1.806148">
        <ele>1065.6</ele>
        <time>2026-03-01T11:59:26Z</time>
      </trkpt>
      <trkpt lat="43.050716" lon="-1.806065">
        <ele>1066.8</ele>
        <time>2026-03-01T11:59:29Z</time>
      </trkpt>
      <trkpt lat="43.050712" lon="-1.805990">
        <ele>1068.2</ele>
        <time>2026-03-01T11:59:32Z</time>
      </trkpt>
      <trkpt lat="43.050699" lon="-1.805890">
        <ele>1069.4</ele>
        <time>2026-03-01T11:59:36Z</time>
      </trkpt>
      <trkpt lat="43.050672" lon="-1.805775">
        <ele>1070.4</ele>
        <time>2026-03-01T11:59:41Z</time>
      </trkpt>
      <trkpt lat="43.050661" lon="-1.805749">
        <ele>1070.6</ele>
        <time>2026-03-01T11:59:42Z</time>
      </trkpt>
      <trkpt lat="43.050648" lon="-1.805727">
        <ele>1070.8</ele>
        <time>2026-03-01T11:59:43Z</time>
      </trkpt>
      <trkpt lat="43.050577" lon="-1.805645">
        <ele>1071.8</ele>
        <time>2026-03-01T11:59:48Z</time>
      </trkpt>
      <trkpt lat="43.050558" lon="-1.805630">
        <ele>1072.0</ele>
        <time>2026-03-01T11:59:49Z</time>
      </trkpt>
      <trkpt lat="43.050536" lon="-1.805594">
        <ele>1073.0</ele>
        <time>2026-03-01T11:59:51Z</time>
      </trkpt>
      <trkpt lat="43.050484" lon="-1.805537">
        <ele>1074.2</ele>
        <time>2026-03-01T11:59:55Z</time>
      </trkpt>
      <trkpt lat="43.050459" lon="-1.805524">
        <ele>1074.6</ele>
        <time>2026-03-01T11:59:57Z</time>
      </trkpt>
      <trkpt lat="43.050424" lon="-1.805520">
        <ele>1075.4</ele>
        <time>2026-03-01T12:00:00Z</time>
      </trkpt>
      <trkpt lat="43.050414" lon="-1.805519">
        <ele>1075.4</ele>
        <time>2026-03-01T12:00:01Z</time>
      </trkpt>
      <trkpt lat="43.050319" lon="-1.805431">
        <ele>1076.4</ele>
        <time>2026-03-01T12:00:08Z</time>
      </trkpt>
      <trkpt lat="43.050262" lon="-1.805337">
        <ele>1077.4</ele>
        <time>2026-03-01T12:00:13Z</time>
      </trkpt>
      <trkpt lat="43.050252" lon="-1.805315">
        <ele>1077.6</ele>
        <time>2026-03-01T12:00:14Z</time>
      </trkpt>
      <trkpt lat="43.050242" lon="-1.805294">
        <ele>1078.0</ele>
        <time>2026-03-01T12:00:15Z</time>
      </trkpt>
      <trkpt lat="43.050199" lon="-1.805210">
        <ele>1078.8</ele>
        <time>2026-03-01T12:00:19Z</time>
      </trkpt>
      <trkpt lat="43.050171" lon="-1.805170">
        <ele>1079.0</ele>
        <time>2026-03-01T12:00:21Z</time>
      </trkpt>
      <trkpt lat="43.050150" lon="-1.805133">
        <ele>1079.8</ele>
        <time>2026-03-01T12:00:23Z</time>
      </trkpt>
      <trkpt lat="43.050103" lon="-1.805041">
        <ele>1080.8</ele>
        <time>2026-03-01T12:00:28Z</time>
      </trkpt>
      <trkpt lat="43.050093" lon="-1.805024">
        <ele>1080.8</ele>
        <time>2026-03-01T12:00:29Z</time>
      </trkpt>
      <trkpt lat="43.050012" lon="-1.804903">
        <ele>1082.0</ele>
        <time>2026-03-01T12:00:37Z</time>
      </trkpt>
      <trkpt lat="43.049967" lon="-1.804848">
        <ele>1083.2</ele>
        <time>2026-03-01T12:00:41Z</time>
      </trkpt>
      <trkpt lat="43.049939" lon="-1.804826">
        <ele>1084.2</ele>
        <time>2026-03-01T12:00:43Z</time>
      </trkpt>
      <trkpt lat="43.049889" lon="-1.804801">
        <ele>1084.8</ele>
        <time>2026-03-01T12:00:46Z</time>
      </trkpt>
      <trkpt lat="43.049863" lon="-1.804786">
        <ele>1085.4</ele>
        <time>2026-03-01T12:00:48Z</time>
      </trkpt>
      <trkpt lat="43.049806" lon="-1.804756">
        <ele>1086.4</ele>
        <time>2026-03-01T12:00:52Z</time>
      </trkpt>
      <trkpt lat="43.049791" lon="-1.804749">
        <ele>1086.4</ele>
        <time>2026-03-01T12:00:53Z</time>
      </trkpt>
      <trkpt lat="43.049703" lon="-1.804682">
        <ele>1087.4</ele>
        <time>2026-03-01T12:00:59Z</time>
      </trkpt>
      <trkpt lat="43.049599" lon="-1.804664">
        <ele>1087.8</ele>
        <time>2026-03-01T12:01:05Z</time>
      </trkpt>
      <trkpt lat="43.049565" lon="-1.804646">
        <ele>1088.0</ele>
        <time>2026-03-01T12:01:07Z</time>
      </trkpt>
      <trkpt lat="43.049492" lon="-1.804600">
        <ele>1088.6</ele>
        <time>2026-03-01T12:01:11Z</time>
      </trkpt>
      <trkpt lat="43.049443" lon="-1.804545">
        <ele>1089.4</ele>
        <time>2026-03-01T12:01:14Z</time>
      </trkpt>
      <trkpt lat="43.049432" lon="-1.804522">
        <ele>1089.6</ele>
        <time>2026-03-01T12:01:15Z</time>
      </trkpt>
      <trkpt lat="43.049378" lon="-1.804433">
        <ele>1090.8</ele>
        <time>2026-03-01T12:01:19Z</time>
      </trkpt>
      <trkpt lat="43.049357" lon="-1.804401">
        <ele>1091.4</ele>
        <time>2026-03-01T12:01:21Z</time>
      </trkpt>
      <trkpt lat="43.049346" lon="-1.804383">
        <ele>1091.6</ele>
        <time>2026-03-01T12:01:22Z</time>
      </trkpt>
      <trkpt lat="43.049331" lon="-1.804364">
        <ele>1091.6</ele>
        <time>2026-03-01T12:01:23Z</time>
      </trkpt>
      <trkpt lat="43.049301" lon="-1.804331">
        <ele>1091.8</ele>
        <time>2026-03-01T12:01:25Z</time>
      </trkpt>
      <trkpt lat="43.049256" lon="-1.804286">
        <ele>1092.6</ele>
        <time>2026-03-01T12:01:29Z</time>
      </trkpt>
      <trkpt lat="43.049250" lon="-1.804271">
        <ele>1093.2</ele>
        <time>2026-03-01T12:01:30Z</time>
      </trkpt>
      <trkpt lat="43.049244" lon="-1.804256">
        <ele>1093.4</ele>
        <time>2026-03-01T12:01:31Z</time>
      </trkpt>
      <trkpt lat="43.049199" lon="-1.804183">
        <ele>1094.4</ele>
        <time>2026-03-01T12:01:35Z</time>
      </trkpt>
      <trkpt lat="43.049186" lon="-1.804161">
        <ele>1094.6</ele>
        <time>2026-03-01T12:01:36Z</time>
      </trkpt>
      <trkpt lat="43.049151" lon="-1.804101">
        <ele>1095.4</ele>
        <time>2026-03-01T12:01:39Z</time>
      </trkpt>
      <trkpt lat="43.049121" lon="-1.804065">
        <ele>1095.6</ele>
        <time>2026-03-01T12:01:41Z</time>
      </trkpt>
      <trkpt lat="43.049088" lon="-1.804036">
        <ele>1096.4</ele>
        <time>2026-03-01T12:01:43Z</time>
      </trkpt>
      <trkpt lat="43.049024" lon="-1.803992">
        <ele>1096.8</ele>
        <time>2026-03-01T12:01:47Z</time>
      </trkpt>
      <trkpt lat="43.048939" lon="-1.803928">
        <ele>1097.6</ele>
        <time>2026-03-01T12:01:52Z</time>
      </trkpt>
      <trkpt lat="43.048910" lon="-1.803895">
        <ele>1097.8</ele>
        <time>2026-03-01T12:01:54Z</time>
      </trkpt>
      <trkpt lat="43.048782" lon="-1.803798">
        <ele>1098.4</ele>
        <time>2026-03-01T12:02:02Z</time>
      </trkpt>
      <trkpt lat="43.048766" lon="-1.803782">
        <ele>1098.6</ele>
        <time>2026-03-01T12:02:03Z</time>
      </trkpt>
      <trkpt lat="43.048715" lon="-1.803722">
        <ele>1099.8</ele>
        <time>2026-03-01T12:02:07Z</time>
      </trkpt>
      <trkpt lat="43.048698" lon="-1.803704">
        <ele>1100.4</ele>
        <time>2026-03-01T12:02:08Z</time>
      </trkpt>
      <trkpt lat="43.048640" lon="-1.803649">
        <ele>1101.0</ele>
        <time>2026-03-01T12:02:12Z</time>
      </trkpt>
      <trkpt lat="43.048629" lon="-1.803638">
        <ele>1101.0</ele>
        <time>2026-03-01T12:02:13Z</time>
      </trkpt>
      <trkpt lat="43.048616" lon="-1.803624">
        <ele>1101.0</ele>
        <time>2026-03-01T12:02:14Z</time>
      </trkpt>
      <trkpt lat="43.048543" lon="-1.803554">
        <ele>1102.0</ele>
        <time>2026-03-01T12:02:19Z</time>
      </trkpt>
      <trkpt lat="43.048523" lon="-1.803516">
        <ele>1102.6</ele>
        <time>2026-03-01T12:02:21Z</time>
      </trkpt>
      <trkpt lat="43.048502" lon="-1.803486">
        <ele>1103.0</ele>
        <time>2026-03-01T12:02:23Z</time>
      </trkpt>
      <trkpt lat="43.048495" lon="-1.803478">
        <ele>1103.2</ele>
        <time>2026-03-01T12:02:24Z</time>
      </trkpt>
      <trkpt lat="43.048451" lon="-1.803437">
        <ele>1103.8</ele>
        <time>2026-03-01T12:02:27Z</time>
      </trkpt>
      <trkpt lat="43.048439" lon="-1.803424">
        <ele>1104.2</ele>
        <time>2026-03-01T12:02:28Z</time>
      </trkpt>
      <trkpt lat="43.048407" lon="-1.803397">
        <ele>1105.4</ele>
        <time>2026-03-01T12:02:31Z</time>
      </trkpt>
      <trkpt lat="43.048359" lon="-1.803351">
        <ele>1105.8</ele>
        <time>2026-03-01T12:02:35Z</time>
      </trkpt>
      <trkpt lat="43.048338" lon="-1.803327">
        <ele>1106.4</ele>
        <time>2026-03-01T12:02:37Z</time>
      </trkpt>
      <trkpt lat="43.048321" lon="-1.803297">
        <ele>1106.4</ele>
        <time>2026-03-01T12:02:39Z</time>
      </trkpt>
      <trkpt lat="43.048312" lon="-1.803263">
        <ele>1106.8</ele>
        <time>2026-03-01T12:02:41Z</time>
      </trkpt>
      <trkpt lat="43.048281" lon="-1.803216">
        <ele>1107.4</ele>
        <time>2026-03-01T12:02:44Z</time>
      </trkpt>
      <trkpt lat="43.048236" lon="-1.803178">
        <ele>1108.2</ele>
        <time>2026-03-01T12:02:47Z</time>
      </trkpt>
      <trkpt lat="43.048221" lon="-1.803166">
        <ele>1108.6</ele>
        <time>2026-03-01T12:02:48Z</time>
      </trkpt>
      <trkpt lat="43.048206" lon="-1.803153">
        <ele>1108.8</ele>
        <time>2026-03-01T12:02:49Z</time>
      </trkpt>
      <trkpt lat="43.048179" lon="-1.803127">
        <ele>1109.0</ele>
        <time>2026-03-01T12:02:51Z</time>
      </trkpt>
      <trkpt lat="43.048161" lon="-1.803099">
        <ele>1109.2</ele>
        <time>2026-03-01T12:02:53Z</time>
      </trkpt>
      <trkpt lat="43.048159" lon="-1.803084">
        <ele>1109.8</ele>
        <time>2026-03-01T12:02:54Z</time>
      </trkpt>
      <trkpt lat="43.048152" lon="-1.803050">
        <ele>1110.2</ele>
        <time>2026-03-01T12:02:56Z</time>
      </trkpt>
      <trkpt lat="43.048139" lon="-1.803007">
        <ele>1111.2</ele>
        <time>2026-03-01T12:02:58Z</time>
      </trkpt>
      <trkpt lat="43.048129" lon="-1.802986">
        <ele>1111.6</ele>
        <time>2026-03-01T12:02:59Z</time>
      </trkpt>
      <trkpt lat="43.048115" lon="-1.802939">
        <ele>1112.0</ele>
        <time>2026-03-01T12:03:01Z</time>
      </trkpt>
      <trkpt lat="43.048107" lon="-1.802914">
        <ele>1112.4</ele>
        <time>2026-03-01T12:03:02Z</time>
      </trkpt>
      <trkpt lat="43.048084" lon="-1.802834">
        <ele>1113.0</ele>
        <time>2026-03-01T12:03:06Z</time>
      </trkpt>
      <trkpt lat="43.048079" lon="-1.802816">
        <ele>1113.2</ele>
        <time>2026-03-01T12:03:07Z</time>
      </trkpt>
      <trkpt lat="43.048084" lon="-1.802801">
        <ele>1113.4</ele>
        <time>2026-03-01T12:03:08Z</time>
      </trkpt>
      <trkpt lat="43.048083" lon="-1.802783">
        <ele>1113.4</ele>
        <time>2026-03-01T12:03:09Z</time>
      </trkpt>
      <trkpt lat="43.048075" lon="-1.802766">
        <ele>1113.4</ele>
        <time>2026-03-01T12:03:10Z</time>
      </trkpt>
      <trkpt lat="43.048056" lon="-1.802741">
        <ele>1113.4</ele>
        <time>2026-03-01T12:03:12Z</time>
      </trkpt>
      <trkpt lat="43.047970" lon="-1.802676">
        <ele>1113.6</ele>
        <time>2026-03-01T12:03:19Z</time>
      </trkpt>
      <trkpt lat="43.047958" lon="-1.802666">
        <ele>1113.6</ele>
        <time>2026-03-01T12:03:20Z</time>
      </trkpt>
      <trkpt lat="43.047913" lon="-1.802611">
        <ele>1114.6</ele>
        <time>2026-03-01T12:03:24Z</time>
      </trkpt>
      <trkpt lat="43.047900" lon="-1.802556">
        <ele>1115.4</ele>
        <time>2026-03-01T12:03:27Z</time>
      </trkpt>
      <trkpt lat="43.047897" lon="-1.802541">
        <ele>1115.6</ele>
        <time>2026-03-01T12:03:28Z</time>
      </trkpt>
      <trkpt lat="43.047888" lon="-1.802522">
        <ele>1115.6</ele>
        <time>2026-03-01T12:03:29Z</time>
      </trkpt>
      <trkpt lat="43.047892" lon="-1.802449">
        <ele>1115.6</ele>
        <time>2026-03-01T12:03:34Z</time>
      </trkpt>
      <trkpt lat="43.047869" lon="-1.802381">
        <ele>1115.4</ele>
        <time>2026-03-01T12:03:40Z</time>
      </trkpt>
      <trkpt lat="43.047870" lon="-1.802376">
        <ele>1115.4</ele>
        <time>2026-03-01T12:03:41Z</time>
      </trkpt>
      <trkpt lat="43.047855" lon="-1.802341">
        <ele>1114.6</ele>
        <time>2026-03-01T12:03:47Z</time>
      </trkpt>
      <trkpt lat="43.047846" lon="-1.802329">
        <ele>1114.8</ele>
        <time>2026-03-01T12:03:49Z</time>
      </trkpt>
      <trkpt lat="43.047843" lon="-1.802332">
        <ele>1114.8</ele>
        <time>2026-03-01T12:03:51Z</time>
      </trkpt>
      <trkpt lat="43.047842" lon="-1.802334">
        <ele>1114.8</ele>
        <time>2026-03-01T12:03:52Z</time>
      </trkpt>
      <trkpt lat="43.047841" lon="-1.802335">
        <ele>1114.8</ele>
        <time>2026-03-01T12:03:53Z</time>
      </trkpt>
      <trkpt lat="43.047842" lon="-1.802342">
        <ele>1114.6</ele>
        <time>2026-03-01T12:03:58Z</time>
      </trkpt>
      <trkpt lat="43.047844" lon="-1.802343">
        <ele>1114.8</ele>
        <time>2026-03-01T12:04:03Z</time>
      </trkpt>
      <trkpt lat="43.047837" lon="-1.802343">
        <ele>1114.2</ele>
        <time>2026-03-01T12:04:11Z</time>
      </trkpt>
      <trkpt lat="43.047830" lon="-1.802343">
        <ele>1114.6</ele>
        <time>2026-03-01T12:04:16Z</time>
      </trkpt>
      <trkpt lat="43.047840" lon="-1.802348">
        <ele>1114.8</ele>
        <time>2026-03-01T12:04:18Z</time>
      </trkpt>
      <trkpt lat="43.047841" lon="-1.802348">
        <ele>1114.8</ele>
        <time>2026-03-01T12:04:19Z</time>
      </trkpt>
      <trkpt lat="43.047842" lon="-1.802348">
        <ele>1114.6</ele>
        <time>2026-03-01T12:04:21Z</time>
      </trkpt>
      <trkpt lat="43.047842" lon="-1.802347">
        <ele>1114.4</ele>
        <time>2026-03-01T12:04:22Z</time>
      </trkpt>
      <trkpt lat="43.047842" lon="-1.802347">
        <ele>1114.4</ele>
        <time>2026-03-01T12:04:23Z</time>
      </trkpt>
      <trkpt lat="43.047844" lon="-1.802345">
        <ele>1114.2</ele>
        <time>2026-03-01T12:04:28Z</time>
      </trkpt>
      <trkpt lat="43.047844" lon="-1.802344">
        <ele>1114.2</ele>
        <time>2026-03-01T12:04:30Z</time>
      </trkpt>
      <trkpt lat="43.047844" lon="-1.802343">
        <ele>1114.4</ele>
        <time>2026-03-01T12:04:32Z</time>
      </trkpt>
      <trkpt lat="43.047850" lon="-1.802332">
        <ele>1114.0</ele>
        <time>2026-03-01T12:04:50Z</time>
      </trkpt>
      <trkpt lat="43.047831" lon="-1.802315">
        <ele>1113.8</ele>
        <time>2026-03-01T12:04:58Z</time>
      </trkpt>
      <trkpt lat="43.047818" lon="-1.802289">
        <ele>1114.4</ele>
        <time>2026-03-01T12:05:04Z</time>
      </trkpt>
      <trkpt lat="43.047814" lon="-1.802292">
        <ele>1114.2</ele>
        <time>2026-03-01T12:05:13Z</time>
      </trkpt>
      <trkpt lat="43.047799" lon="-1.802347">
        <ele>1114.6</ele>
        <time>2026-03-01T12:05:22Z</time>
      </trkpt>
      <trkpt lat="43.047798" lon="-1.802328">
        <ele>1114.2</ele>
        <time>2026-03-01T12:05:30Z</time>
      </trkpt>
      <trkpt lat="43.047804" lon="-1.802311">
        <ele>1114.2</ele>
        <time>2026-03-01T12:05:33Z</time>
      </trkpt>
      <trkpt lat="43.047805" lon="-1.802311">
        <ele>1114.2</ele>
        <time>2026-03-01T12:05:34Z</time>
      </trkpt>
      <trkpt lat="43.047809" lon="-1.802319">
        <ele>1114.8</ele>
        <time>2026-03-01T12:05:41Z</time>
      </trkpt>
      <trkpt lat="43.047813" lon="-1.802324">
        <ele>1114.6</ele>
        <time>2026-03-01T12:05:48Z</time>
      </trkpt>
      <trkpt lat="43.047815" lon="-1.802326">
        <ele>1114.4</ele>
        <time>2026-03-01T12:05:53Z</time>
      </trkpt>
      <trkpt lat="43.047833" lon="-1.802302">
        <ele>1115.0</ele>
        <time>2026-03-01T12:05:57Z</time>
      </trkpt>
      <trkpt lat="43.047828" lon="-1.802287">
        <ele>1114.8</ele>
        <time>2026-03-01T12:05:59Z</time>
      </trkpt>
      <trkpt lat="43.047815" lon="-1.802264">
        <ele>1114.0</ele>
        <time>2026-03-01T12:06:06Z</time>
      </trkpt>
      <trkpt lat="43.047827" lon="-1.802282">
        <ele>1114.2</ele>
        <time>2026-03-01T12:06:14Z</time>
      </trkpt>
      <trkpt lat="43.047821" lon="-1.802257">
        <ele>1114.4</ele>
        <time>2026-03-01T12:06:23Z</time>
      </trkpt>
      <trkpt lat="43.047848" lon="-1.802299">
        <ele>1114.0</ele>
        <time>2026-03-01T12:06:30Z</time>
      </trkpt>
      <trkpt lat="43.047844" lon="-1.802307">
        <ele>1114.0</ele>
        <time>2026-03-01T12:06:31Z</time>
      </trkpt>
      <trkpt lat="43.047834" lon="-1.802345">
        <ele>1114.0</ele>
        <time>2026-03-01T12:06:35Z</time>
      </trkpt>
      <trkpt lat="43.047836" lon="-1.802354">
        <ele>1114.0</ele>
        <time>2026-03-01T12:06:36Z</time>
      </trkpt>
      <trkpt lat="43.047837" lon="-1.802366">
        <ele>1114.0</ele>
        <time>2026-03-01T12:06:37Z</time>
      </trkpt>
      <trkpt lat="43.047831" lon="-1.802373">
        <ele>1114.4</ele>
        <time>2026-03-01T12:06:38Z</time>
      </trkpt>
      <trkpt lat="43.047833" lon="-1.802382">
        <ele>1114.4</ele>
        <time>2026-03-01T12:06:39Z</time>
      </trkpt>
      <trkpt lat="43.047829" lon="-1.802383">
        <ele>1114.6</ele>
        <time>2026-03-01T12:06:40Z</time>
      </trkpt>
      <trkpt lat="43.047812" lon="-1.802400">
        <ele>1112.0</ele>
        <time>2026-03-01T12:06:43Z</time>
      </trkpt>
      <trkpt lat="43.047803" lon="-1.802401">
        <ele>1112.0</ele>
        <time>2026-03-01T12:06:44Z</time>
      </trkpt>
      <trkpt lat="43.047801" lon="-1.802402">
        <ele>1112.0</ele>
        <time>2026-03-01T12:06:45Z</time>
      </trkpt>
      <trkpt lat="43.047801" lon="-1.802402">
        <ele>1113.2</ele>
        <time>2026-03-01T12:06:47Z</time>
      </trkpt>
      <trkpt lat="43.047804" lon="-1.802395">
        <ele>1114.2</ele>
        <time>2026-03-01T12:06:50Z</time>
      </trkpt>
      <trkpt lat="43.047798" lon="-1.802375">
        <ele>1114.2</ele>
        <time>2026-03-01T12:06:53Z</time>
      </trkpt>
      <trkpt lat="43.047805" lon="-1.802299">
        <ele>1114.2</ele>
        <time>2026-03-01T12:07:00Z</time>
      </trkpt>
      <trkpt lat="43.047798" lon="-1.802270">
        <ele>1114.4</ele>
        <time>2026-03-01T12:07:03Z</time>
      </trkpt>
      <trkpt lat="43.047818" lon="-1.802265">
        <ele>1114.2</ele>
        <time>2026-03-01T12:07:08Z</time>
      </trkpt>
      <trkpt lat="43.047817" lon="-1.802278">
        <ele>1113.8</ele>
        <time>2026-03-01T12:07:14Z</time>
      </trkpt>
      <trkpt lat="43.047785" lon="-1.802317">
        <ele>1114.0</ele>
        <time>2026-03-01T12:07:21Z</time>
      </trkpt>
      <trkpt lat="43.047773" lon="-1.802345">
        <ele>1114.2</ele>
        <time>2026-03-01T12:07:30Z</time>
      </trkpt>
      <trkpt lat="43.047773" lon="-1.802346">
        <ele>1114.2</ele>
        <time>2026-03-01T12:07:31Z</time>
      </trkpt>
      <trkpt lat="43.047772" lon="-1.802346">
        <ele>1114.2</ele>
        <time>2026-03-01T12:07:32Z</time>
      </trkpt>
      <trkpt lat="43.047771" lon="-1.802347">
        <ele>1114.4</ele>
        <time>2026-03-01T12:07:33Z</time>
      </trkpt>
      <trkpt lat="43.047767" lon="-1.802350">
        <ele>1114.2</ele>
        <time>2026-03-01T12:07:37Z</time>
      </trkpt>
      <trkpt lat="43.047766" lon="-1.802354">
        <ele>1113.8</ele>
        <time>2026-03-01T12:07:43Z</time>
      </trkpt>
      <trkpt lat="43.047763" lon="-1.802357">
        <ele>1113.2</ele>
        <time>2026-03-01T12:07:49Z</time>
      </trkpt>
      <trkpt lat="43.047763" lon="-1.802358">
        <ele>1113.2</ele>
        <time>2026-03-01T12:07:50Z</time>
      </trkpt>
      <trkpt lat="43.047763" lon="-1.802359">
        <ele>1113.0</ele>
        <time>2026-03-01T12:07:52Z</time>
      </trkpt>
      <trkpt lat="43.047762" lon="-1.802374">
        <ele>1113.4</ele>
        <time>2026-03-01T12:08:01Z</time>
      </trkpt>
      <trkpt lat="43.047758" lon="-1.802393">
        <ele>1113.4</ele>
        <time>2026-03-01T12:08:04Z</time>
      </trkpt>
      <trkpt lat="43.047757" lon="-1.802415">
        <ele>1113.4</ele>
        <time>2026-03-01T12:08:05Z</time>
      </trkpt>
      <trkpt lat="43.047760" lon="-1.802443">
        <ele>1113.2</ele>
        <time>2026-03-01T12:08:06Z</time>
      </trkpt>
      <trkpt lat="43.047780" lon="-1.802621">
        <ele>1112.8</ele>
        <time>2026-03-01T12:08:11Z</time>
      </trkpt>
      <trkpt lat="43.047783" lon="-1.802687">
        <ele>1112.8</ele>
        <time>2026-03-01T12:08:12Z</time>
      </trkpt>
      <trkpt lat="43.047788" lon="-1.802754">
        <ele>1111.8</ele>
        <time>2026-03-01T12:08:13Z</time>
      </trkpt>
      <trkpt lat="43.047805" lon="-1.802831">
        <ele>1110.6</ele>
        <time>2026-03-01T12:08:14Z</time>
      </trkpt>
      <trkpt lat="43.047832" lon="-1.802891">
        <ele>1109.6</ele>
        <time>2026-03-01T12:08:15Z</time>
      </trkpt>
      <trkpt lat="43.047867" lon="-1.802936">
        <ele>1109.0</ele>
        <time>2026-03-01T12:08:16Z</time>
      </trkpt>
      <trkpt lat="43.047933" lon="-1.803058">
        <ele>1108.6</ele>
        <time>2026-03-01T12:08:18Z</time>
      </trkpt>
      <trkpt lat="43.047953" lon="-1.803131">
        <ele>1107.8</ele>
        <time>2026-03-01T12:08:19Z</time>
      </trkpt>
      <trkpt lat="43.047980" lon="-1.803193">
        <ele>1106.8</ele>
        <time>2026-03-01T12:08:20Z</time>
      </trkpt>
      <trkpt lat="43.048019" lon="-1.803244">
        <ele>1105.6</ele>
        <time>2026-03-01T12:08:21Z</time>
      </trkpt>
      <trkpt lat="43.048055" lon="-1.803298">
        <ele>1104.4</ele>
        <time>2026-03-01T12:08:22Z</time>
      </trkpt>
      <trkpt lat="43.048093" lon="-1.803346">
        <ele>1103.4</ele>
        <time>2026-03-01T12:08:23Z</time>
      </trkpt>
      <trkpt lat="43.048162" lon="-1.803404">
        <ele>1102.2</ele>
        <time>2026-03-01T12:08:26Z</time>
      </trkpt>
      <trkpt lat="43.048193" lon="-1.803472">
        <ele>1100.8</ele>
        <time>2026-03-01T12:08:28Z</time>
      </trkpt>
      <trkpt lat="43.048224" lon="-1.803522">
        <ele>1099.0</ele>
        <time>2026-03-01T12:08:29Z</time>
      </trkpt>
      <trkpt lat="43.048280" lon="-1.803586">
        <ele>1097.8</ele>
        <time>2026-03-01T12:08:30Z</time>
      </trkpt>
      <trkpt lat="43.048401" lon="-1.803755">
        <ele>1095.8</ele>
        <time>2026-03-01T12:08:32Z</time>
      </trkpt>
      <trkpt lat="43.048470" lon="-1.803842">
        <ele>1094.2</ele>
        <time>2026-03-01T12:08:33Z</time>
      </trkpt>
      <trkpt lat="43.048514" lon="-1.803904">
        <ele>1093.4</ele>
        <time>2026-03-01T12:08:34Z</time>
      </trkpt>
      <trkpt lat="43.048559" lon="-1.803984">
        <ele>1092.8</ele>
        <time>2026-03-01T12:08:35Z</time>
      </trkpt>
      <trkpt lat="43.048641" lon="-1.804132">
        <ele>1091.8</ele>
        <time>2026-03-01T12:08:37Z</time>
      </trkpt>
      <trkpt lat="43.048685" lon="-1.804183">
        <ele>1090.2</ele>
        <time>2026-03-01T12:08:38Z</time>
      </trkpt>
      <trkpt lat="43.048732" lon="-1.804239">
        <ele>1088.8</ele>
        <time>2026-03-01T12:08:39Z</time>
      </trkpt>
      <trkpt lat="43.048779" lon="-1.804281">
        <ele>1087.6</ele>
        <time>2026-03-01T12:08:40Z</time>
      </trkpt>
      <trkpt lat="43.048874" lon="-1.804363">
        <ele>1086.4</ele>
        <time>2026-03-01T12:08:42Z</time>
      </trkpt>
      <trkpt lat="43.048924" lon="-1.804393">
        <ele>1086.2</ele>
        <time>2026-03-01T12:08:43Z</time>
      </trkpt>
      <trkpt lat="43.049015" lon="-1.804465">
        <ele>1086.0</ele>
        <time>2026-03-01T12:08:45Z</time>
      </trkpt>
      <trkpt lat="43.049088" lon="-1.804524">
        <ele>1085.6</ele>
        <time>2026-03-01T12:08:47Z</time>
      </trkpt>
      <trkpt lat="43.049096" lon="-1.804548">
        <ele>1085.2</ele>
        <time>2026-03-01T12:08:48Z</time>
      </trkpt>
      <trkpt lat="43.049101" lon="-1.804637">
        <ele>1083.6</ele>
        <time>2026-03-01T12:08:50Z</time>
      </trkpt>
      <trkpt lat="43.049177" lon="-1.804775">
        <ele>1082.4</ele>
        <time>2026-03-01T12:08:53Z</time>
      </trkpt>
      <trkpt lat="43.049177" lon="-1.804819">
        <ele>1082.0</ele>
        <time>2026-03-01T12:08:54Z</time>
      </trkpt>
      <trkpt lat="43.049145" lon="-1.804853">
        <ele>1081.0</ele>
        <time>2026-03-01T12:08:55Z</time>
      </trkpt>
      <trkpt lat="43.049112" lon="-1.804895">
        <ele>1080.6</ele>
        <time>2026-03-01T12:08:56Z</time>
      </trkpt>
      <trkpt lat="43.049105" lon="-1.804934">
        <ele>1080.2</ele>
        <time>2026-03-01T12:08:57Z</time>
      </trkpt>
      <trkpt lat="43.049115" lon="-1.804978">
        <ele>1080.0</ele>
        <time>2026-03-01T12:08:58Z</time>
      </trkpt>
      <trkpt lat="43.049170" lon="-1.805081">
        <ele>1078.4</ele>
        <time>2026-03-01T12:09:00Z</time>
      </trkpt>
      <trkpt lat="43.049242" lon="-1.805206">
        <ele>1076.8</ele>
        <time>2026-03-01T12:09:02Z</time>
      </trkpt>
      <trkpt lat="43.049283" lon="-1.805258">
        <ele>1075.6</ele>
        <time>2026-03-01T12:09:03Z</time>
      </trkpt>
      <trkpt lat="43.049318" lon="-1.805305">
        <ele>1074.8</ele>
        <time>2026-03-01T12:09:04Z</time>
      </trkpt>
      <trkpt lat="43.049361" lon="-1.805350">
        <ele>1073.8</ele>
        <time>2026-03-01T12:09:05Z</time>
      </trkpt>
      <trkpt lat="43.049395" lon="-1.805396">
        <ele>1072.8</ele>
        <time>2026-03-01T12:09:06Z</time>
      </trkpt>
      <trkpt lat="43.049402" lon="-1.805432">
        <ele>1072.2</ele>
        <time>2026-03-01T12:09:07Z</time>
      </trkpt>
      <trkpt lat="43.049384" lon="-1.805471">
        <ele>1071.8</ele>
        <time>2026-03-01T12:09:08Z</time>
      </trkpt>
      <trkpt lat="43.049351" lon="-1.805493">
        <ele>1071.2</ele>
        <time>2026-03-01T12:09:09Z</time>
      </trkpt>
      <trkpt lat="43.049315" lon="-1.805524">
        <ele>1070.2</ele>
        <time>2026-03-01T12:09:10Z</time>
      </trkpt>
      <trkpt lat="43.049277" lon="-1.805552">
        <ele>1069.2</ele>
        <time>2026-03-01T12:09:11Z</time>
      </trkpt>
      <trkpt lat="43.049232" lon="-1.805578">
        <ele>1068.4</ele>
        <time>2026-03-01T12:09:12Z</time>
      </trkpt>
      <trkpt lat="43.049185" lon="-1.805601">
        <ele>1067.8</ele>
        <time>2026-03-01T12:09:13Z</time>
      </trkpt>
      <trkpt lat="43.049107" lon="-1.805615">
        <ele>1066.6</ele>
        <time>2026-03-01T12:09:15Z</time>
      </trkpt>
      <trkpt lat="43.049093" lon="-1.805653">
        <ele>1065.8</ele>
        <time>2026-03-01T12:09:16Z</time>
      </trkpt>
      <trkpt lat="43.049094" lon="-1.805708">
        <ele>1064.8</ele>
        <time>2026-03-01T12:09:17Z</time>
      </trkpt>
      <trkpt lat="43.049102" lon="-1.805758">
        <ele>1064.2</ele>
        <time>2026-03-01T12:09:18Z</time>
      </trkpt>
      <trkpt lat="43.049118" lon="-1.805820">
        <ele>1063.8</ele>
        <time>2026-03-01T12:09:19Z</time>
      </trkpt>
      <trkpt lat="43.049148" lon="-1.805870">
        <ele>1062.8</ele>
        <time>2026-03-01T12:09:20Z</time>
      </trkpt>
      <trkpt lat="43.049225" lon="-1.805971">
        <ele>1061.4</ele>
        <time>2026-03-01T12:09:22Z</time>
      </trkpt>
      <trkpt lat="43.049262" lon="-1.806038">
        <ele>1060.2</ele>
        <time>2026-03-01T12:09:23Z</time>
      </trkpt>
      <trkpt lat="43.049294" lon="-1.806107">
        <ele>1059.4</ele>
        <time>2026-03-01T12:09:24Z</time>
      </trkpt>
      <trkpt lat="43.049325" lon="-1.806167">
        <ele>1058.6</ele>
        <time>2026-03-01T12:09:25Z</time>
      </trkpt>
      <trkpt lat="43.049354" lon="-1.806203">
        <ele>1058.4</ele>
        <time>2026-03-01T12:09:26Z</time>
      </trkpt>
      <trkpt lat="43.049410" lon="-1.806268">
        <ele>1057.4</ele>
        <time>2026-03-01T12:09:28Z</time>
      </trkpt>
      <trkpt lat="43.049466" lon="-1.806378">
        <ele>1056.0</ele>
        <time>2026-03-01T12:09:30Z</time>
      </trkpt>
      <trkpt lat="43.049490" lon="-1.806413">
        <ele>1054.8</ele>
        <time>2026-03-01T12:09:31Z</time>
      </trkpt>
      <trkpt lat="43.049523" lon="-1.806439">
        <ele>1054.4</ele>
        <time>2026-03-01T12:09:32Z</time>
      </trkpt>
      <trkpt lat="43.049567" lon="-1.806440">
        <ele>1053.6</ele>
        <time>2026-03-01T12:09:33Z</time>
      </trkpt>
      <trkpt lat="43.049649" lon="-1.806451">
        <ele>1052.6</ele>
        <time>2026-03-01T12:09:35Z</time>
      </trkpt>
      <trkpt lat="43.049639" lon="-1.806484">
        <ele>1052.4</ele>
        <time>2026-03-01T12:09:36Z</time>
      </trkpt>
      <trkpt lat="43.049607" lon="-1.806511">
        <ele>1051.6</ele>
        <time>2026-03-01T12:09:37Z</time>
      </trkpt>
      <trkpt lat="43.049573" lon="-1.806548">
        <ele>1050.4</ele>
        <time>2026-03-01T12:09:38Z</time>
      </trkpt>
      <trkpt lat="43.049510" lon="-1.806608">
        <ele>1048.6</ele>
        <time>2026-03-01T12:09:40Z</time>
      </trkpt>
      <trkpt lat="43.049467" lon="-1.806643">
        <ele>1047.2</ele>
        <time>2026-03-01T12:09:41Z</time>
      </trkpt>
      <trkpt lat="43.049416" lon="-1.806693">
        <ele>1046.0</ele>
        <time>2026-03-01T12:09:42Z</time>
      </trkpt>
      <trkpt lat="43.049368" lon="-1.806719">
        <ele>1045.0</ele>
        <time>2026-03-01T12:09:43Z</time>
      </trkpt>
      <trkpt lat="43.049329" lon="-1.806737">
        <ele>1043.6</ele>
        <time>2026-03-01T12:09:44Z</time>
      </trkpt>
      <trkpt lat="43.049282" lon="-1.806791">
        <ele>1042.8</ele>
        <time>2026-03-01T12:09:45Z</time>
      </trkpt>
      <trkpt lat="43.049231" lon="-1.806846">
        <ele>1042.0</ele>
        <time>2026-03-01T12:09:46Z</time>
      </trkpt>
      <trkpt lat="43.049175" lon="-1.806886">
        <ele>1040.0</ele>
        <time>2026-03-01T12:09:47Z</time>
      </trkpt>
      <trkpt lat="43.049102" lon="-1.806905">
        <ele>1038.2</ele>
        <time>2026-03-01T12:09:48Z</time>
      </trkpt>
      <trkpt lat="43.049032" lon="-1.806925">
        <ele>1037.2</ele>
        <time>2026-03-01T12:09:49Z</time>
      </trkpt>
      <trkpt lat="43.048960" lon="-1.806955">
        <ele>1035.8</ele>
        <time>2026-03-01T12:09:50Z</time>
      </trkpt>
      <trkpt lat="43.048884" lon="-1.806973">
        <ele>1034.6</ele>
        <time>2026-03-01T12:09:51Z</time>
      </trkpt>
      <trkpt lat="43.048778" lon="-1.807009">
        <ele>1033.2</ele>
        <time>2026-03-01T12:09:53Z</time>
      </trkpt>
      <trkpt lat="43.048745" lon="-1.807001">
        <ele>1032.8</ele>
        <time>2026-03-01T12:09:54Z</time>
      </trkpt>
      <trkpt lat="43.048704" lon="-1.807012">
        <ele>1032.6</ele>
        <time>2026-03-01T12:09:55Z</time>
      </trkpt>
      <trkpt lat="43.048659" lon="-1.807012">
        <ele>1030.8</ele>
        <time>2026-03-01T12:09:56Z</time>
      </trkpt>
      <trkpt lat="43.048609" lon="-1.807029">
        <ele>1029.4</ele>
        <time>2026-03-01T12:09:57Z</time>
      </trkpt>
      <trkpt lat="43.048568" lon="-1.807041">
        <ele>1028.4</ele>
        <time>2026-03-01T12:09:58Z</time>
      </trkpt>
      <trkpt lat="43.048523" lon="-1.807038">
        <ele>1028.0</ele>
        <time>2026-03-01T12:09:59Z</time>
      </trkpt>
      <trkpt lat="43.048469" lon="-1.807040">
        <ele>1026.6</ele>
        <time>2026-03-01T12:10:00Z</time>
      </trkpt>
      <trkpt lat="43.048390" lon="-1.807021">
        <ele>1025.2</ele>
        <time>2026-03-01T12:10:02Z</time>
      </trkpt>
      <trkpt lat="43.048372" lon="-1.807036">
        <ele>1025.0</ele>
        <time>2026-03-01T12:10:03Z</time>
      </trkpt>
      <trkpt lat="43.048393" lon="-1.807122">
        <ele>1024.4</ele>
        <time>2026-03-01T12:10:05Z</time>
      </trkpt>
      <trkpt lat="43.048394" lon="-1.807210">
        <ele>1023.4</ele>
        <time>2026-03-01T12:10:07Z</time>
      </trkpt>
      <trkpt lat="43.048368" lon="-1.807247">
        <ele>1022.6</ele>
        <time>2026-03-01T12:10:08Z</time>
      </trkpt>
      <trkpt lat="43.048336" lon="-1.807267">
        <ele>1021.8</ele>
        <time>2026-03-01T12:10:09Z</time>
      </trkpt>
      <trkpt lat="43.048293" lon="-1.807257">
        <ele>1020.6</ele>
        <time>2026-03-01T12:10:10Z</time>
      </trkpt>
      <trkpt lat="43.048257" lon="-1.807276">
        <ele>1019.8</ele>
        <time>2026-03-01T12:10:11Z</time>
      </trkpt>
      <trkpt lat="43.048225" lon="-1.807322">
        <ele>1019.4</ele>
        <time>2026-03-01T12:10:12Z</time>
      </trkpt>
      <trkpt lat="43.048203" lon="-1.807398">
        <ele>1019.0</ele>
        <time>2026-03-01T12:10:13Z</time>
      </trkpt>
      <trkpt lat="43.048198" lon="-1.807470">
        <ele>1018.6</ele>
        <time>2026-03-01T12:10:14Z</time>
      </trkpt>
      <trkpt lat="43.048199" lon="-1.807538">
        <ele>1018.2</ele>
        <time>2026-03-01T12:10:15Z</time>
      </trkpt>
      <trkpt lat="43.048203" lon="-1.807598">
        <ele>1017.4</ele>
        <time>2026-03-01T12:10:16Z</time>
      </trkpt>
      <trkpt lat="43.048222" lon="-1.807665">
        <ele>1016.8</ele>
        <time>2026-03-01T12:10:17Z</time>
      </trkpt>
      <trkpt lat="43.048290" lon="-1.807818">
        <ele>1014.8</ele>
        <time>2026-03-01T12:10:19Z</time>
      </trkpt>
      <trkpt lat="43.048329" lon="-1.807953">
        <ele>1013.2</ele>
        <time>2026-03-01T12:10:21Z</time>
      </trkpt>
      <trkpt lat="43.048326" lon="-1.807989">
        <ele>1012.6</ele>
        <time>2026-03-01T12:10:22Z</time>
      </trkpt>
      <trkpt lat="43.048299" lon="-1.808030">
        <ele>1011.4</ele>
        <time>2026-03-01T12:10:23Z</time>
      </trkpt>
      <trkpt lat="43.048223" lon="-1.808056">
        <ele>1009.8</ele>
        <time>2026-03-01T12:10:25Z</time>
      </trkpt>
      <trkpt lat="43.048174" lon="-1.808085">
        <ele>1008.6</ele>
        <time>2026-03-01T12:10:26Z</time>
      </trkpt>
      <trkpt lat="43.048150" lon="-1.808128">
        <ele>1007.8</ele>
        <time>2026-03-01T12:10:27Z</time>
      </trkpt>
      <trkpt lat="43.048148" lon="-1.808188">
        <ele>1007.4</ele>
        <time>2026-03-01T12:10:28Z</time>
      </trkpt>
      <trkpt lat="43.048155" lon="-1.808270">
        <ele>1007.0</ele>
        <time>2026-03-01T12:10:29Z</time>
      </trkpt>
      <trkpt lat="43.048207" lon="-1.808372">
        <ele>1006.2</ele>
        <time>2026-03-01T12:10:31Z</time>
      </trkpt>
      <trkpt lat="43.048229" lon="-1.808458">
        <ele>1005.6</ele>
        <time>2026-03-01T12:10:33Z</time>
      </trkpt>
      <trkpt lat="43.048202" lon="-1.808508">
        <ele>1005.2</ele>
        <time>2026-03-01T12:10:34Z</time>
      </trkpt>
      <trkpt lat="43.048131" lon="-1.808550">
        <ele>1004.2</ele>
        <time>2026-03-01T12:10:36Z</time>
      </trkpt>
      <trkpt lat="43.048092" lon="-1.808554">
        <ele>1003.4</ele>
        <time>2026-03-01T12:10:37Z</time>
      </trkpt>
      <trkpt lat="43.048043" lon="-1.808539">
        <ele>1002.4</ele>
        <time>2026-03-01T12:10:38Z</time>
      </trkpt>
      <trkpt lat="43.047997" lon="-1.808537">
        <ele>1001.2</ele>
        <time>2026-03-01T12:10:39Z</time>
      </trkpt>
      <trkpt lat="43.047968" lon="-1.808571">
        <ele>1000.4</ele>
        <time>2026-03-01T12:10:40Z</time>
      </trkpt>
      <trkpt lat="43.047961" lon="-1.808611">
        <ele>999.6</ele>
        <time>2026-03-01T12:10:41Z</time>
      </trkpt>
      <trkpt lat="43.047973" lon="-1.808715">
        <ele>998.4</ele>
        <time>2026-03-01T12:10:43Z</time>
      </trkpt>
      <trkpt lat="43.047968" lon="-1.808780">
        <ele>998.2</ele>
        <time>2026-03-01T12:10:44Z</time>
      </trkpt>
      <trkpt lat="43.047989" lon="-1.808928">
        <ele>997.2</ele>
        <time>2026-03-01T12:10:46Z</time>
      </trkpt>
      <trkpt lat="43.047993" lon="-1.809011">
        <ele>996.4</ele>
        <time>2026-03-01T12:10:47Z</time>
      </trkpt>
      <trkpt lat="43.048000" lon="-1.809085">
        <ele>995.8</ele>
        <time>2026-03-01T12:10:48Z</time>
      </trkpt>
      <trkpt lat="43.048013" lon="-1.809172">
        <ele>994.6</ele>
        <time>2026-03-01T12:10:49Z</time>
      </trkpt>
      <trkpt lat="43.048051" lon="-1.809343">
        <ele>992.8</ele>
        <time>2026-03-01T12:10:51Z</time>
      </trkpt>
      <trkpt lat="43.048097" lon="-1.809488">
        <ele>991.4</ele>
        <time>2026-03-01T12:10:53Z</time>
      </trkpt>
      <trkpt lat="43.048102" lon="-1.809550">
        <ele>990.6</ele>
        <time>2026-03-01T12:10:54Z</time>
      </trkpt>
      <trkpt lat="43.048087" lon="-1.809587">
        <ele>989.0</ele>
        <time>2026-03-01T12:10:55Z</time>
      </trkpt>
      <trkpt lat="43.048067" lon="-1.809621">
        <ele>988.0</ele>
        <time>2026-03-01T12:10:56Z</time>
      </trkpt>
      <trkpt lat="43.048058" lon="-1.809648">
        <ele>987.4</ele>
        <time>2026-03-01T12:10:57Z</time>
      </trkpt>
      <trkpt lat="43.048065" lon="-1.809680">
        <ele>986.4</ele>
        <time>2026-03-01T12:10:58Z</time>
      </trkpt>
      <trkpt lat="43.048081" lon="-1.809721">
        <ele>985.8</ele>
        <time>2026-03-01T12:10:59Z</time>
      </trkpt>
      <trkpt lat="43.048104" lon="-1.809797">
        <ele>985.2</ele>
        <time>2026-03-01T12:11:00Z</time>
      </trkpt>
      <trkpt lat="43.048128" lon="-1.809858">
        <ele>985.0</ele>
        <time>2026-03-01T12:11:02Z</time>
      </trkpt>
      <trkpt lat="43.048072" lon="-1.809917">
        <ele>983.0</ele>
        <time>2026-03-01T12:11:04Z</time>
      </trkpt>
      <trkpt lat="43.048030" lon="-1.809940">
        <ele>981.2</ele>
        <time>2026-03-01T12:11:05Z</time>
      </trkpt>
      <trkpt lat="43.047992" lon="-1.809957">
        <ele>978.8</ele>
        <time>2026-03-01T12:11:06Z</time>
      </trkpt>
      <trkpt lat="43.047940" lon="-1.809970">
        <ele>977.2</ele>
        <time>2026-03-01T12:11:07Z</time>
      </trkpt>
      <trkpt lat="43.047900" lon="-1.809941">
        <ele>976.2</ele>
        <time>2026-03-01T12:11:08Z</time>
      </trkpt>
      <trkpt lat="43.047866" lon="-1.809926">
        <ele>975.6</ele>
        <time>2026-03-01T12:11:09Z</time>
      </trkpt>
      <trkpt lat="43.047823" lon="-1.809845">
        <ele>975.2</ele>
        <time>2026-03-01T12:11:12Z</time>
      </trkpt>
      <trkpt lat="43.047795" lon="-1.809836">
        <ele>975.2</ele>
        <time>2026-03-01T12:11:13Z</time>
      </trkpt>
      <trkpt lat="43.047734" lon="-1.809868">
        <ele>974.4</ele>
        <time>2026-03-01T12:11:15Z</time>
      </trkpt>
      <trkpt lat="43.047686" lon="-1.809895">
        <ele>973.0</ele>
        <time>2026-03-01T12:11:16Z</time>
      </trkpt>
      <trkpt lat="43.047636" lon="-1.809876">
        <ele>971.6</ele>
        <time>2026-03-01T12:11:17Z</time>
      </trkpt>
      <trkpt lat="43.047595" lon="-1.809848">
        <ele>969.8</ele>
        <time>2026-03-01T12:11:18Z</time>
      </trkpt>
      <trkpt lat="43.047545" lon="-1.809801">
        <ele>966.8</ele>
        <time>2026-03-01T12:11:19Z</time>
      </trkpt>
      <trkpt lat="43.047490" lon="-1.809746">
        <ele>965.2</ele>
        <time>2026-03-01T12:11:20Z</time>
      </trkpt>
      <trkpt lat="43.047363" lon="-1.809635">
        <ele>963.0</ele>
        <time>2026-03-01T12:11:22Z</time>
      </trkpt>
      <trkpt lat="43.047312" lon="-1.809580">
        <ele>962.0</ele>
        <time>2026-03-01T12:11:23Z</time>
      </trkpt>
      <trkpt lat="43.047266" lon="-1.809526">
        <ele>960.2</ele>
        <time>2026-03-01T12:11:24Z</time>
      </trkpt>
      <trkpt lat="43.047225" lon="-1.809469">
        <ele>958.4</ele>
        <time>2026-03-01T12:11:25Z</time>
      </trkpt>
      <trkpt lat="43.047197" lon="-1.809404">
        <ele>956.2</ele>
        <time>2026-03-01T12:11:26Z</time>
      </trkpt>
      <trkpt lat="43.047174" lon="-1.809350">
        <ele>954.6</ele>
        <time>2026-03-01T12:11:27Z</time>
      </trkpt>
      <trkpt lat="43.047146" lon="-1.809235">
        <ele>953.4</ele>
        <time>2026-03-01T12:11:29Z</time>
      </trkpt>
      <trkpt lat="43.047132" lon="-1.809097">
        <ele>953.2</ele>
        <time>2026-03-01T12:11:31Z</time>
      </trkpt>
      <trkpt lat="43.047114" lon="-1.809023">
        <ele>951.8</ele>
        <time>2026-03-01T12:11:32Z</time>
      </trkpt>
      <trkpt lat="43.047106" lon="-1.808970">
        <ele>951.0</ele>
        <time>2026-03-01T12:11:33Z</time>
      </trkpt>
      <trkpt lat="43.047092" lon="-1.808925">
        <ele>950.6</ele>
        <time>2026-03-01T12:11:34Z</time>
      </trkpt>
      <trkpt lat="43.047068" lon="-1.808805">
        <ele>947.6</ele>
        <time>2026-03-01T12:11:36Z</time>
      </trkpt>
      <trkpt lat="43.047034" lon="-1.808721">
        <ele>945.6</ele>
        <time>2026-03-01T12:11:37Z</time>
      </trkpt>
      <trkpt lat="43.046988" lon="-1.808640">
        <ele>944.2</ele>
        <time>2026-03-01T12:11:38Z</time>
      </trkpt>
      <trkpt lat="43.046963" lon="-1.808577">
        <ele>943.4</ele>
        <time>2026-03-01T12:11:39Z</time>
      </trkpt>
      <trkpt lat="43.046929" lon="-1.808507">
        <ele>942.8</ele>
        <time>2026-03-01T12:11:40Z</time>
      </trkpt>
      <trkpt lat="43.046894" lon="-1.808439">
        <ele>941.6</ele>
        <time>2026-03-01T12:11:41Z</time>
      </trkpt>
      <trkpt lat="43.046855" lon="-1.808367">
        <ele>940.8</ele>
        <time>2026-03-01T12:11:42Z</time>
      </trkpt>
      <trkpt lat="43.046826" lon="-1.808299">
        <ele>940.2</ele>
        <time>2026-03-01T12:11:43Z</time>
      </trkpt>
      <trkpt lat="43.046753" lon="-1.808087">
        <ele>940.0</ele>
        <time>2026-03-01T12:11:46Z</time>
      </trkpt>
      <trkpt lat="43.046722" lon="-1.808014">
        <ele>939.8</ele>
        <time>2026-03-01T12:11:47Z</time>
      </trkpt>
      <trkpt lat="43.046699" lon="-1.807934">
        <ele>939.8</ele>
        <time>2026-03-01T12:11:48Z</time>
      </trkpt>
      <trkpt lat="43.046618" lon="-1.807670">
        <ele>938.6</ele>
        <time>2026-03-01T12:11:52Z</time>
      </trkpt>
      <trkpt lat="43.046588" lon="-1.807558">
        <ele>937.2</ele>
        <time>2026-03-01T12:11:54Z</time>
      </trkpt>
      <trkpt lat="43.046592" lon="-1.807504">
        <ele>936.8</ele>
        <time>2026-03-01T12:11:56Z</time>
      </trkpt>
      <trkpt lat="43.046538" lon="-1.807447">
        <ele>937.4</ele>
        <time>2026-03-01T12:12:04Z</time>
      </trkpt>
      <trkpt lat="43.046515" lon="-1.807400">
        <ele>935.8</ele>
        <time>2026-03-01T12:12:11Z</time>
      </trkpt>
      <trkpt lat="43.046504" lon="-1.807388">
        <ele>935.6</ele>
        <time>2026-03-01T12:12:12Z</time>
      </trkpt>
      <trkpt lat="43.046494" lon="-1.807373">
        <ele>935.4</ele>
        <time>2026-03-01T12:12:13Z</time>
      </trkpt>
      <trkpt lat="43.046487" lon="-1.807355">
        <ele>935.2</ele>
        <time>2026-03-01T12:12:14Z</time>
      </trkpt>
      <trkpt lat="43.046479" lon="-1.807339">
        <ele>934.8</ele>
        <time>2026-03-01T12:12:15Z</time>
      </trkpt>
      <trkpt lat="43.046465" lon="-1.807308">
        <ele>934.0</ele>
        <time>2026-03-01T12:12:17Z</time>
      </trkpt>
      <trkpt lat="43.046464" lon="-1.807298">
        <ele>933.6</ele>
        <time>2026-03-01T12:12:18Z</time>
      </trkpt>
      <trkpt lat="43.046460" lon="-1.807284">
        <ele>933.0</ele>
        <time>2026-03-01T12:12:20Z</time>
      </trkpt>
      <trkpt lat="43.046460" lon="-1.807281">
        <ele>932.6</ele>
        <time>2026-03-01T12:12:21Z</time>
      </trkpt>
      <trkpt lat="43.046462" lon="-1.807267">
        <ele>932.0</ele>
        <time>2026-03-01T12:12:25Z</time>
      </trkpt>
      <trkpt lat="43.046456" lon="-1.807211">
        <ele>932.8</ele>
        <time>2026-03-01T12:12:34Z</time>
      </trkpt>
      <trkpt lat="43.046455" lon="-1.807208">
        <ele>932.8</ele>
        <time>2026-03-01T12:12:41Z</time>
      </trkpt>
      <trkpt lat="43.046452" lon="-1.807207">
        <ele>932.6</ele>
        <time>2026-03-01T12:12:42Z</time>
      </trkpt>
      <trkpt lat="43.046440" lon="-1.807181">
        <ele>933.2</ele>
        <time>2026-03-01T12:12:49Z</time>
      </trkpt>
      <trkpt lat="43.046430" lon="-1.807178">
        <ele>933.2</ele>
        <time>2026-03-01T12:12:50Z</time>
      </trkpt>
      <trkpt lat="43.046421" lon="-1.807172">
        <ele>933.4</ele>
        <time>2026-03-01T12:12:57Z</time>
      </trkpt>
      <trkpt lat="43.046421" lon="-1.807172">
        <ele>933.4</ele>
        <time>2026-03-01T12:12:59Z</time>
      </trkpt>
      <trkpt lat="43.046421" lon="-1.807172">
        <ele>933.6</ele>
        <time>2026-03-01T12:13:01Z</time>
      </trkpt>
      <trkpt lat="43.046417" lon="-1.807159">
        <ele>933.4</ele>
        <time>2026-03-01T12:13:14Z</time>
      </trkpt>
      <trkpt lat="43.046414" lon="-1.807158">
        <ele>933.4</ele>
        <time>2026-03-01T12:13:22Z</time>
      </trkpt>
      <trkpt lat="43.046399" lon="-1.807153">
        <ele>934.0</ele>
        <time>2026-03-01T12:13:24Z</time>
      </trkpt>
      <trkpt lat="43.046382" lon="-1.807156">
        <ele>933.4</ele>
        <time>2026-03-01T12:13:29Z</time>
      </trkpt>
      <trkpt lat="43.046365" lon="-1.807123">
        <ele>933.2</ele>
        <time>2026-03-01T12:13:36Z</time>
      </trkpt>
      <trkpt lat="43.046371" lon="-1.807132">
        <ele>933.6</ele>
        <time>2026-03-01T12:13:39Z</time>
      </trkpt>
      <trkpt lat="43.046378" lon="-1.807154">
        <ele>934.0</ele>
        <time>2026-03-01T12:13:40Z</time>
      </trkpt>
      <trkpt lat="43.046389" lon="-1.807169">
        <ele>934.2</ele>
        <time>2026-03-01T12:13:41Z</time>
      </trkpt>
      <trkpt lat="43.046403" lon="-1.807203">
        <ele>934.4</ele>
        <time>2026-03-01T12:13:43Z</time>
      </trkpt>
      <trkpt lat="43.046414" lon="-1.807217">
        <ele>934.6</ele>
        <time>2026-03-01T12:13:44Z</time>
      </trkpt>
      <trkpt lat="43.046425" lon="-1.807225">
        <ele>934.6</ele>
        <time>2026-03-01T12:13:46Z</time>
      </trkpt>
      <trkpt lat="43.046423" lon="-1.807235">
        <ele>934.2</ele>
        <time>2026-03-01T12:13:51Z</time>
      </trkpt>
      <trkpt lat="43.046423" lon="-1.807234">
        <ele>934.2</ele>
        <time>2026-03-01T12:13:54Z</time>
      </trkpt>
      <trkpt lat="43.046424" lon="-1.807233">
        <ele>934.6</ele>
        <time>2026-03-01T12:13:57Z</time>
      </trkpt>
      <trkpt lat="43.046434" lon="-1.807230">
        <ele>934.4</ele>
        <time>2026-03-01T12:14:05Z</time>
      </trkpt>
      <trkpt lat="43.046413" lon="-1.807230">
        <ele>934.6</ele>
        <time>2026-03-01T12:14:13Z</time>
      </trkpt>
      <trkpt lat="43.046389" lon="-1.807201">
        <ele>935.0</ele>
        <time>2026-03-01T12:14:18Z</time>
      </trkpt>
      <trkpt lat="43.046380" lon="-1.807181">
        <ele>934.8</ele>
        <time>2026-03-01T12:14:20Z</time>
      </trkpt>
      <trkpt lat="43.046330" lon="-1.807202">
        <ele>934.2</ele>
        <time>2026-03-01T12:14:27Z</time>
      </trkpt>
      <trkpt lat="43.046316" lon="-1.807195">
        <ele>934.6</ele>
        <time>2026-03-01T12:14:33Z</time>
      </trkpt>
      <trkpt lat="43.046293" lon="-1.807191">
        <ele>934.4</ele>
        <time>2026-03-01T12:14:38Z</time>
      </trkpt>
      <trkpt lat="43.046274" lon="-1.807177">
        <ele>934.4</ele>
        <time>2026-03-01T12:14:39Z</time>
      </trkpt>
      <trkpt lat="43.046181" lon="-1.807077">
        <ele>933.6</ele>
        <time>2026-03-01T12:14:43Z</time>
      </trkpt>
      <trkpt lat="43.046156" lon="-1.807047">
        <ele>933.4</ele>
        <time>2026-03-01T12:14:44Z</time>
      </trkpt>
      <trkpt lat="43.046043" lon="-1.806903">
        <ele>931.6</ele>
        <time>2026-03-01T12:14:47Z</time>
      </trkpt>
      <trkpt lat="43.045954" lon="-1.806781">
        <ele>930.2</ele>
        <time>2026-03-01T12:14:49Z</time>
      </trkpt>
      <trkpt lat="43.045914" lon="-1.806726">
        <ele>929.6</ele>
        <time>2026-03-01T12:14:50Z</time>
      </trkpt>
      <trkpt lat="43.045859" lon="-1.806682">
        <ele>929.2</ele>
        <time>2026-03-01T12:14:51Z</time>
      </trkpt>
      <trkpt lat="43.045751" lon="-1.806589">
        <ele>927.8</ele>
        <time>2026-03-01T12:14:53Z</time>
      </trkpt>
      <trkpt lat="43.045702" lon="-1.806541">
        <ele>927.4</ele>
        <time>2026-03-01T12:14:54Z</time>
      </trkpt>
      <trkpt lat="43.045660" lon="-1.806481">
        <ele>926.6</ele>
        <time>2026-03-01T12:14:55Z</time>
      </trkpt>
      <trkpt lat="43.045625" lon="-1.806418">
        <ele>925.8</ele>
        <time>2026-03-01T12:14:56Z</time>
      </trkpt>
      <trkpt lat="43.045572" lon="-1.806359">
        <ele>925.4</ele>
        <time>2026-03-01T12:14:57Z</time>
      </trkpt>
      <trkpt lat="43.045451" lon="-1.806192">
        <ele>924.4</ele>
        <time>2026-03-01T12:15:00Z</time>
      </trkpt>
      <trkpt lat="43.045407" lon="-1.806128">
        <ele>923.6</ele>
        <time>2026-03-01T12:15:01Z</time>
      </trkpt>
      <trkpt lat="43.045358" lon="-1.806065">
        <ele>923.0</ele>
        <time>2026-03-01T12:15:02Z</time>
      </trkpt>
      <trkpt lat="43.045248" lon="-1.805946">
        <ele>922.2</ele>
        <time>2026-03-01T12:15:04Z</time>
      </trkpt>
      <trkpt lat="43.045102" lon="-1.805769">
        <ele>922.0</ele>
        <time>2026-03-01T12:15:07Z</time>
      </trkpt>
      <trkpt lat="43.045063" lon="-1.805723">
        <ele>921.6</ele>
        <time>2026-03-01T12:15:08Z</time>
      </trkpt>
      <trkpt lat="43.045018" lon="-1.805678">
        <ele>920.6</ele>
        <time>2026-03-01T12:15:09Z</time>
      </trkpt>
      <trkpt lat="43.044948" lon="-1.805621">
        <ele>919.4</ele>
        <time>2026-03-01T12:15:10Z</time>
      </trkpt>
      <trkpt lat="43.044829" lon="-1.805480">
        <ele>917.4</ele>
        <time>2026-03-01T12:15:12Z</time>
      </trkpt>
      <trkpt lat="43.044704" lon="-1.805315">
        <ele>916.6</ele>
        <time>2026-03-01T12:15:14Z</time>
      </trkpt>
      <trkpt lat="43.044636" lon="-1.805249">
        <ele>916.0</ele>
        <time>2026-03-01T12:15:15Z</time>
      </trkpt>
      <trkpt lat="43.044578" lon="-1.805175">
        <ele>914.8</ele>
        <time>2026-03-01T12:15:16Z</time>
      </trkpt>
      <trkpt lat="43.044528" lon="-1.805109">
        <ele>914.4</ele>
        <time>2026-03-01T12:15:17Z</time>
      </trkpt>
      <trkpt lat="43.044451" lon="-1.804983">
        <ele>913.6</ele>
        <time>2026-03-01T12:15:19Z</time>
      </trkpt>
      <trkpt lat="43.044364" lon="-1.804839">
        <ele>911.0</ele>
        <time>2026-03-01T12:15:21Z</time>
      </trkpt>
      <trkpt lat="43.044319" lon="-1.804786">
        <ele>909.6</ele>
        <time>2026-03-01T12:15:22Z</time>
      </trkpt>
      <trkpt lat="43.044289" lon="-1.804738">
        <ele>908.8</ele>
        <time>2026-03-01T12:15:23Z</time>
      </trkpt>
      <trkpt lat="43.044261" lon="-1.804688">
        <ele>908.2</ele>
        <time>2026-03-01T12:15:24Z</time>
      </trkpt>
      <trkpt lat="43.044245" lon="-1.804637">
        <ele>906.8</ele>
        <time>2026-03-01T12:15:25Z</time>
      </trkpt>
      <trkpt lat="43.044205" lon="-1.804578">
        <ele>905.8</ele>
        <time>2026-03-01T12:15:26Z</time>
      </trkpt>
      <trkpt lat="43.044176" lon="-1.804505">
        <ele>905.2</ele>
        <time>2026-03-01T12:15:27Z</time>
      </trkpt>
      <trkpt lat="43.044154" lon="-1.804429">
        <ele>904.8</ele>
        <time>2026-03-01T12:15:28Z</time>
      </trkpt>
      <trkpt lat="43.044131" lon="-1.804293">
        <ele>903.0</ele>
        <time>2026-03-01T12:15:30Z</time>
      </trkpt>
      <trkpt lat="43.044127" lon="-1.804233">
        <ele>902.0</ele>
        <time>2026-03-01T12:15:31Z</time>
      </trkpt>
      <trkpt lat="43.044123" lon="-1.804143">
        <ele>900.8</ele>
        <time>2026-03-01T12:15:32Z</time>
      </trkpt>
      <trkpt lat="43.044099" lon="-1.804050">
        <ele>900.2</ele>
        <time>2026-03-01T12:15:33Z</time>
      </trkpt>
      <trkpt lat="43.044083" lon="-1.803962">
        <ele>899.4</ele>
        <time>2026-03-01T12:15:34Z</time>
      </trkpt>
      <trkpt lat="43.044057" lon="-1.803874">
        <ele>898.6</ele>
        <time>2026-03-01T12:15:35Z</time>
      </trkpt>
      <trkpt lat="43.044026" lon="-1.803792">
        <ele>898.2</ele>
        <time>2026-03-01T12:15:36Z</time>
      </trkpt>
      <trkpt lat="43.044001" lon="-1.803732">
        <ele>895.8</ele>
        <time>2026-03-01T12:15:37Z</time>
      </trkpt>
      <trkpt lat="43.043978" lon="-1.803676">
        <ele>893.8</ele>
        <time>2026-03-01T12:15:38Z</time>
      </trkpt>
      <trkpt lat="43.043945" lon="-1.803623">
        <ele>892.4</ele>
        <time>2026-03-01T12:15:39Z</time>
      </trkpt>
      <trkpt lat="43.043893" lon="-1.803578">
        <ele>891.2</ele>
        <time>2026-03-01T12:15:40Z</time>
      </trkpt>
      <trkpt lat="43.043848" lon="-1.803529">
        <ele>889.4</ele>
        <time>2026-03-01T12:15:41Z</time>
      </trkpt>
      <trkpt lat="43.043794" lon="-1.803474">
        <ele>888.0</ele>
        <time>2026-03-01T12:15:42Z</time>
      </trkpt>
      <trkpt lat="43.043759" lon="-1.803408">
        <ele>886.8</ele>
        <time>2026-03-01T12:15:43Z</time>
      </trkpt>
      <trkpt lat="43.043727" lon="-1.803336">
        <ele>885.6</ele>
        <time>2026-03-01T12:15:44Z</time>
      </trkpt>
      <trkpt lat="43.043684" lon="-1.803270">
        <ele>884.2</ele>
        <time>2026-03-01T12:15:45Z</time>
      </trkpt>
      <trkpt lat="43.043638" lon="-1.803202">
        <ele>882.0</ele>
        <time>2026-03-01T12:15:46Z</time>
      </trkpt>
      <trkpt lat="43.043589" lon="-1.803129">
        <ele>881.0</ele>
        <time>2026-03-01T12:15:47Z</time>
      </trkpt>
      <trkpt lat="43.043543" lon="-1.803052">
        <ele>880.4</ele>
        <time>2026-03-01T12:15:48Z</time>
      </trkpt>
      <trkpt lat="43.043467" lon="-1.802908">
        <ele>880.0</ele>
        <time>2026-03-01T12:15:50Z</time>
      </trkpt>
      <trkpt lat="43.043445" lon="-1.802853">
        <ele>879.8</ele>
        <time>2026-03-01T12:15:51Z</time>
      </trkpt>
      <trkpt lat="43.043432" lon="-1.802805">
        <ele>878.4</ele>
        <time>2026-03-01T12:15:52Z</time>
      </trkpt>
      <trkpt lat="43.043458" lon="-1.802632">
        <ele>875.6</ele>
        <time>2026-03-01T12:15:55Z</time>
      </trkpt>
      <trkpt lat="43.043480" lon="-1.802577">
        <ele>873.8</ele>
        <time>2026-03-01T12:15:56Z</time>
      </trkpt>
      <trkpt lat="43.043483" lon="-1.802489">
        <ele>871.6</ele>
        <time>2026-03-01T12:15:57Z</time>
      </trkpt>
      <trkpt lat="43.043476" lon="-1.802419">
        <ele>870.0</ele>
        <time>2026-03-01T12:15:58Z</time>
      </trkpt>
      <trkpt lat="43.043467" lon="-1.802365">
        <ele>868.8</ele>
        <time>2026-03-01T12:15:59Z</time>
      </trkpt>
      <trkpt lat="43.043477" lon="-1.802344">
        <ele>868.2</ele>
        <time>2026-03-01T12:16:00Z</time>
      </trkpt>
      <trkpt lat="43.043495" lon="-1.802332">
        <ele>867.4</ele>
        <time>2026-03-01T12:16:01Z</time>
      </trkpt>
      <trkpt lat="43.043506" lon="-1.802335">
        <ele>867.0</ele>
        <time>2026-03-01T12:16:02Z</time>
      </trkpt>
      <trkpt lat="43.043513" lon="-1.802286">
        <ele>866.0</ele>
        <time>2026-03-01T12:16:04Z</time>
      </trkpt>
      <trkpt lat="43.043541" lon="-1.802221">
        <ele>865.0</ele>
        <time>2026-03-01T12:16:06Z</time>
      </trkpt>
      <trkpt lat="43.043560" lon="-1.802153">
        <ele>863.2</ele>
        <time>2026-03-01T12:16:08Z</time>
      </trkpt>
      <trkpt lat="43.043537" lon="-1.802042">
        <ele>860.4</ele>
        <time>2026-03-01T12:16:10Z</time>
      </trkpt>
      <trkpt lat="43.043539" lon="-1.801983">
        <ele>858.6</ele>
        <time>2026-03-01T12:16:11Z</time>
      </trkpt>
      <trkpt lat="43.043535" lon="-1.801906">
        <ele>856.6</ele>
        <time>2026-03-01T12:16:12Z</time>
      </trkpt>
      <trkpt lat="43.043540" lon="-1.801780">
        <ele>853.6</ele>
        <time>2026-03-01T12:16:13Z</time>
      </trkpt>
      <trkpt lat="43.043547" lon="-1.801655">
        <ele>851.6</ele>
        <time>2026-03-01T12:16:14Z</time>
      </trkpt>
      <trkpt lat="43.043551" lon="-1.801552">
        <ele>850.6</ele>
        <time>2026-03-01T12:16:15Z</time>
      </trkpt>
      <trkpt lat="43.043505" lon="-1.801339">
        <ele>849.0</ele>
        <time>2026-03-01T12:16:17Z</time>
      </trkpt>
      <trkpt lat="43.043486" lon="-1.801233">
        <ele>847.8</ele>
        <time>2026-03-01T12:16:18Z</time>
      </trkpt>
      <trkpt lat="43.043483" lon="-1.801111">
        <ele>845.4</ele>
        <time>2026-03-01T12:16:19Z</time>
      </trkpt>
      <trkpt lat="43.043457" lon="-1.800991">
        <ele>843.6</ele>
        <time>2026-03-01T12:16:20Z</time>
      </trkpt>
      <trkpt lat="43.043384" lon="-1.800825">
        <ele>842.2</ele>
        <time>2026-03-01T12:16:22Z</time>
      </trkpt>
      <trkpt lat="43.043294" lon="-1.800749">
        <ele>841.8</ele>
        <time>2026-03-01T12:16:24Z</time>
      </trkpt>
      <trkpt lat="43.043287" lon="-1.800749">
        <ele>842.0</ele>
        <time>2026-03-01T12:16:25Z</time>
      </trkpt>
      <trkpt lat="43.043287" lon="-1.800737">
        <ele>842.2</ele>
        <time>2026-03-01T12:16:30Z</time>
      </trkpt>
      <trkpt lat="43.043272" lon="-1.800731">
        <ele>842.0</ele>
        <time>2026-03-01T12:16:32Z</time>
      </trkpt>
      <trkpt lat="43.043215" lon="-1.800739">
        <ele>841.0</ele>
        <time>2026-03-01T12:16:35Z</time>
      </trkpt>
      <trkpt lat="43.043150" lon="-1.800762">
        <ele>839.6</ele>
        <time>2026-03-01T12:16:37Z</time>
      </trkpt>
      <trkpt lat="43.043122" lon="-1.800767">
        <ele>836.4</ele>
        <time>2026-03-01T12:16:38Z</time>
      </trkpt>
      <trkpt lat="43.043088" lon="-1.800762">
        <ele>834.4</ele>
        <time>2026-03-01T12:16:39Z</time>
      </trkpt>
      <trkpt lat="43.043046" lon="-1.800756">
        <ele>832.4</ele>
        <time>2026-03-01T12:16:40Z</time>
      </trkpt>
      <trkpt lat="43.043002" lon="-1.800735">
        <ele>830.0</ele>
        <time>2026-03-01T12:16:41Z</time>
      </trkpt>
      <trkpt lat="43.042955" lon="-1.800728">
        <ele>828.2</ele>
        <time>2026-03-01T12:16:42Z</time>
      </trkpt>
      <trkpt lat="43.042918" lon="-1.800726">
        <ele>827.2</ele>
        <time>2026-03-01T12:16:43Z</time>
      </trkpt>
      <trkpt lat="43.042871" lon="-1.800718">
        <ele>826.2</ele>
        <time>2026-03-01T12:16:44Z</time>
      </trkpt>
      <trkpt lat="43.042793" lon="-1.800718">
        <ele>824.6</ele>
        <time>2026-03-01T12:16:46Z</time>
      </trkpt>
      <trkpt lat="43.042704" lon="-1.800750">
        <ele>822.2</ele>
        <time>2026-03-01T12:16:48Z</time>
      </trkpt>
      <trkpt lat="43.042652" lon="-1.800783">
        <ele>820.8</ele>
        <time>2026-03-01T12:16:49Z</time>
      </trkpt>
      <trkpt lat="43.042605" lon="-1.800806">
        <ele>819.2</ele>
        <time>2026-03-01T12:16:50Z</time>
      </trkpt>
      <trkpt lat="43.042561" lon="-1.800815">
        <ele>817.0</ele>
        <time>2026-03-01T12:16:51Z</time>
      </trkpt>
      <trkpt lat="43.042527" lon="-1.800817">
        <ele>815.6</ele>
        <time>2026-03-01T12:16:52Z</time>
      </trkpt>
      <trkpt lat="43.042504" lon="-1.800831">
        <ele>814.8</ele>
        <time>2026-03-01T12:16:53Z</time>
      </trkpt>
      <trkpt lat="43.042487" lon="-1.800842">
        <ele>814.2</ele>
        <time>2026-03-01T12:16:54Z</time>
      </trkpt>
      <trkpt lat="43.042460" lon="-1.800878">
        <ele>814.0</ele>
        <time>2026-03-01T12:16:55Z</time>
      </trkpt>
      <trkpt lat="43.042425" lon="-1.800896">
        <ele>813.6</ele>
        <time>2026-03-01T12:16:56Z</time>
      </trkpt>
      <trkpt lat="43.042350" lon="-1.800907">
        <ele>811.2</ele>
        <time>2026-03-01T12:16:58Z</time>
      </trkpt>
      <trkpt lat="43.042331" lon="-1.800926">
        <ele>810.2</ele>
        <time>2026-03-01T12:16:59Z</time>
      </trkpt>
      <trkpt lat="43.042321" lon="-1.800951">
        <ele>809.6</ele>
        <time>2026-03-01T12:17:00Z</time>
      </trkpt>
      <trkpt lat="43.042307" lon="-1.800978">
        <ele>808.8</ele>
        <time>2026-03-01T12:17:01Z</time>
      </trkpt>
      <trkpt lat="43.042262" lon="-1.800997">
        <ele>807.2</ele>
        <time>2026-03-01T12:17:03Z</time>
      </trkpt>
      <trkpt lat="43.042247" lon="-1.801011">
        <ele>805.2</ele>
        <time>2026-03-01T12:17:04Z</time>
      </trkpt>
      <trkpt lat="43.042218" lon="-1.801029">
        <ele>804.2</ele>
        <time>2026-03-01T12:17:05Z</time>
      </trkpt>
      <trkpt lat="43.042186" lon="-1.801049">
        <ele>802.6</ele>
        <time>2026-03-01T12:17:06Z</time>
      </trkpt>
      <trkpt lat="43.042122" lon="-1.801089">
        <ele>800.4</ele>
        <time>2026-03-01T12:17:08Z</time>
      </trkpt>
      <trkpt lat="43.042078" lon="-1.801103">
        <ele>799.0</ele>
        <time>2026-03-01T12:17:09Z</time>
      </trkpt>
      <trkpt lat="43.041997" lon="-1.801154">
        <ele>797.8</ele>
        <time>2026-03-01T12:17:11Z</time>
      </trkpt>
      <trkpt lat="43.041957" lon="-1.801168">
        <ele>796.0</ele>
        <time>2026-03-01T12:17:12Z</time>
      </trkpt>
      <trkpt lat="43.041922" lon="-1.801171">
        <ele>794.4</ele>
        <time>2026-03-01T12:17:13Z</time>
      </trkpt>
      <trkpt lat="43.041897" lon="-1.801162">
        <ele>793.0</ele>
        <time>2026-03-01T12:17:14Z</time>
      </trkpt>
      <trkpt lat="43.041863" lon="-1.801156">
        <ele>792.2</ele>
        <time>2026-03-01T12:17:15Z</time>
      </trkpt>
      <trkpt lat="43.041830" lon="-1.801167">
        <ele>791.6</ele>
        <time>2026-03-01T12:17:16Z</time>
      </trkpt>
      <trkpt lat="43.041766" lon="-1.801204">
        <ele>790.4</ele>
        <time>2026-03-01T12:17:18Z</time>
      </trkpt>
      <trkpt lat="43.041737" lon="-1.801221">
        <ele>788.8</ele>
        <time>2026-03-01T12:17:19Z</time>
      </trkpt>
      <trkpt lat="43.041704" lon="-1.801237">
        <ele>787.8</ele>
        <time>2026-03-01T12:17:20Z</time>
      </trkpt>
      <trkpt lat="43.041668" lon="-1.801246">
        <ele>786.6</ele>
        <time>2026-03-01T12:17:21Z</time>
      </trkpt>
      <trkpt lat="43.041638" lon="-1.801266">
        <ele>785.2</ele>
        <time>2026-03-01T12:17:22Z</time>
      </trkpt>
      <trkpt lat="43.041576" lon="-1.801313">
        <ele>783.0</ele>
        <time>2026-03-01T12:17:24Z</time>
      </trkpt>
      <trkpt lat="43.041522" lon="-1.801362">
        <ele>781.6</ele>
        <time>2026-03-01T12:17:26Z</time>
      </trkpt>
      <trkpt lat="43.041508" lon="-1.801398">
        <ele>780.4</ele>
        <time>2026-03-01T12:17:27Z</time>
      </trkpt>
      <trkpt lat="43.041493" lon="-1.801435">
        <ele>779.4</ele>
        <time>2026-03-01T12:17:28Z</time>
      </trkpt>
      <trkpt lat="43.041460" lon="-1.801471">
        <ele>778.6</ele>
        <time>2026-03-01T12:17:29Z</time>
      </trkpt>
      <trkpt lat="43.041414" lon="-1.801511">
        <ele>777.4</ele>
        <time>2026-03-01T12:17:30Z</time>
      </trkpt>
      <trkpt lat="43.041365" lon="-1.801553">
        <ele>775.2</ele>
        <time>2026-03-01T12:17:31Z</time>
      </trkpt>
      <trkpt lat="43.041312" lon="-1.801602">
        <ele>773.6</ele>
        <time>2026-03-01T12:17:32Z</time>
      </trkpt>
      <trkpt lat="43.041264" lon="-1.801653">
        <ele>772.4</ele>
        <time>2026-03-01T12:17:33Z</time>
      </trkpt>
      <trkpt lat="43.041223" lon="-1.801716">
        <ele>770.8</ele>
        <time>2026-03-01T12:17:34Z</time>
      </trkpt>
      <trkpt lat="43.041186" lon="-1.801773">
        <ele>769.4</ele>
        <time>2026-03-01T12:17:35Z</time>
      </trkpt>
      <trkpt lat="43.041141" lon="-1.801860">
        <ele>767.8</ele>
        <time>2026-03-01T12:17:36Z</time>
      </trkpt>
      <trkpt lat="43.041123" lon="-1.801927">
        <ele>766.6</ele>
        <time>2026-03-01T12:17:37Z</time>
      </trkpt>
      <trkpt lat="43.041120" lon="-1.801978">
        <ele>765.2</ele>
        <time>2026-03-01T12:17:38Z</time>
      </trkpt>
      <trkpt lat="43.041121" lon="-1.802032">
        <ele>764.2</ele>
        <time>2026-03-01T12:17:39Z</time>
      </trkpt>
      <trkpt lat="43.041135" lon="-1.802079">
        <ele>763.4</ele>
        <time>2026-03-01T12:17:40Z</time>
      </trkpt>
      <trkpt lat="43.041159" lon="-1.802108">
        <ele>762.4</ele>
        <time>2026-03-01T12:17:41Z</time>
      </trkpt>
      <trkpt lat="43.041187" lon="-1.802123">
        <ele>761.6</ele>
        <time>2026-03-01T12:17:42Z</time>
      </trkpt>
      <trkpt lat="43.041203" lon="-1.802151">
        <ele>761.0</ele>
        <time>2026-03-01T12:17:43Z</time>
      </trkpt>
      <trkpt lat="43.041210" lon="-1.802187">
        <ele>760.6</ele>
        <time>2026-03-01T12:17:44Z</time>
      </trkpt>
      <trkpt lat="43.041223" lon="-1.802213">
        <ele>759.6</ele>
        <time>2026-03-01T12:17:45Z</time>
      </trkpt>
      <trkpt lat="43.041246" lon="-1.802232">
        <ele>758.8</ele>
        <time>2026-03-01T12:17:46Z</time>
      </trkpt>
      <trkpt lat="43.041269" lon="-1.802240">
        <ele>757.6</ele>
        <time>2026-03-01T12:17:47Z</time>
      </trkpt>
      <trkpt lat="43.041279" lon="-1.802259">
        <ele>756.6</ele>
        <time>2026-03-01T12:17:48Z</time>
      </trkpt>
      <trkpt lat="43.041275" lon="-1.802279">
        <ele>755.4</ele>
        <time>2026-03-01T12:17:49Z</time>
      </trkpt>
      <trkpt lat="43.041252" lon="-1.802296">
        <ele>754.6</ele>
        <time>2026-03-01T12:17:50Z</time>
      </trkpt>
      <trkpt lat="43.041215" lon="-1.802318">
        <ele>754.0</ele>
        <time>2026-03-01T12:17:51Z</time>
      </trkpt>
      <trkpt lat="43.041175" lon="-1.802351">
        <ele>753.0</ele>
        <time>2026-03-01T12:17:52Z</time>
      </trkpt>
      <trkpt lat="43.041104" lon="-1.802407">
        <ele>752.2</ele>
        <time>2026-03-01T12:17:54Z</time>
      </trkpt>
      <trkpt lat="43.041081" lon="-1.802443">
        <ele>751.0</ele>
        <time>2026-03-01T12:17:55Z</time>
      </trkpt>
      <trkpt lat="43.041053" lon="-1.802500">
        <ele>750.2</ele>
        <time>2026-03-01T12:17:56Z</time>
      </trkpt>
      <trkpt lat="43.041018" lon="-1.802557">
        <ele>749.0</ele>
        <time>2026-03-01T12:17:57Z</time>
      </trkpt>
      <trkpt lat="43.040993" lon="-1.802592">
        <ele>748.4</ele>
        <time>2026-03-01T12:17:58Z</time>
      </trkpt>
      <trkpt lat="43.040950" lon="-1.802617">
        <ele>747.6</ele>
        <time>2026-03-01T12:17:59Z</time>
      </trkpt>
      <trkpt lat="43.040876" lon="-1.802657">
        <ele>745.8</ele>
        <time>2026-03-01T12:18:01Z</time>
      </trkpt>
      <trkpt lat="43.040800" lon="-1.802699">
        <ele>744.4</ele>
        <time>2026-03-01T12:18:03Z</time>
      </trkpt>
      <trkpt lat="43.040704" lon="-1.802711">
        <ele>743.2</ele>
        <time>2026-03-01T12:18:05Z</time>
      </trkpt>
      <trkpt lat="43.040672" lon="-1.802679">
        <ele>743.0</ele>
        <time>2026-03-01T12:18:06Z</time>
      </trkpt>
      <trkpt lat="43.040568" lon="-1.802634">
        <ele>742.4</ele>
        <time>2026-03-01T12:18:09Z</time>
      </trkpt>
      <trkpt lat="43.040543" lon="-1.802619">
        <ele>742.0</ele>
        <time>2026-03-01T12:18:10Z</time>
      </trkpt>
      <trkpt lat="43.040460" lon="-1.802631">
        <ele>741.0</ele>
        <time>2026-03-01T12:18:12Z</time>
      </trkpt>
      <trkpt lat="43.040410" lon="-1.802648">
        <ele>740.8</ele>
        <time>2026-03-01T12:18:13Z</time>
      </trkpt>
      <trkpt lat="43.040365" lon="-1.802682">
        <ele>739.0</ele>
        <time>2026-03-01T12:18:14Z</time>
      </trkpt>
      <trkpt lat="43.040310" lon="-1.802724">
        <ele>738.0</ele>
        <time>2026-03-01T12:18:15Z</time>
      </trkpt>
      <trkpt lat="43.040241" lon="-1.802754">
        <ele>736.4</ele>
        <time>2026-03-01T12:18:16Z</time>
      </trkpt>
      <trkpt lat="43.040173" lon="-1.802799">
        <ele>734.6</ele>
        <time>2026-03-01T12:18:17Z</time>
      </trkpt>
      <trkpt lat="43.040094" lon="-1.802842">
        <ele>731.6</ele>
        <time>2026-03-01T12:18:18Z</time>
      </trkpt>
      <trkpt lat="43.040008" lon="-1.802860">
        <ele>730.0</ele>
        <time>2026-03-01T12:18:19Z</time>
      </trkpt>
      <trkpt lat="43.039935" lon="-1.802877">
        <ele>727.0</ele>
        <time>2026-03-01T12:18:20Z</time>
      </trkpt>
      <trkpt lat="43.039866" lon="-1.802879">
        <ele>725.4</ele>
        <time>2026-03-01T12:18:21Z</time>
      </trkpt>
      <trkpt lat="43.039742" lon="-1.802844">
        <ele>724.2</ele>
        <time>2026-03-01T12:18:23Z</time>
      </trkpt>
      <trkpt lat="43.039638" lon="-1.802677">
        <ele>724.2</ele>
        <time>2026-03-01T12:18:26Z</time>
      </trkpt>
      <trkpt lat="43.039578" lon="-1.802680">
        <ele>724.0</ele>
        <time>2026-03-01T12:18:28Z</time>
      </trkpt>
      <trkpt lat="43.039545" lon="-1.802701">
        <ele>723.6</ele>
        <time>2026-03-01T12:18:29Z</time>
      </trkpt>
      <trkpt lat="43.039480" lon="-1.802816">
        <ele>723.0</ele>
        <time>2026-03-01T12:18:32Z</time>
      </trkpt>
      <trkpt lat="43.039468" lon="-1.802867">
        <ele>722.6</ele>
        <time>2026-03-01T12:18:33Z</time>
      </trkpt>
      <trkpt lat="43.039460" lon="-1.802927">
        <ele>721.6</ele>
        <time>2026-03-01T12:18:34Z</time>
      </trkpt>
      <trkpt lat="43.039460" lon="-1.802993">
        <ele>720.4</ele>
        <time>2026-03-01T12:18:35Z</time>
      </trkpt>
      <trkpt lat="43.039468" lon="-1.803054">
        <ele>719.4</ele>
        <time>2026-03-01T12:18:36Z</time>
      </trkpt>
      <trkpt lat="43.039475" lon="-1.803102">
        <ele>718.2</ele>
        <time>2026-03-01T12:18:37Z</time>
      </trkpt>
      <trkpt lat="43.039471" lon="-1.803138">
        <ele>717.8</ele>
        <time>2026-03-01T12:18:38Z</time>
      </trkpt>
      <trkpt lat="43.039454" lon="-1.803162">
        <ele>717.4</ele>
        <time>2026-03-01T12:18:39Z</time>
      </trkpt>
      <trkpt lat="43.039422" lon="-1.803194">
        <ele>717.2</ele>
        <time>2026-03-01T12:18:40Z</time>
      </trkpt>
      <trkpt lat="43.039380" lon="-1.803232">
        <ele>717.0</ele>
        <time>2026-03-01T12:18:41Z</time>
      </trkpt>
      <trkpt lat="43.039330" lon="-1.803277">
        <ele>715.6</ele>
        <time>2026-03-01T12:18:42Z</time>
      </trkpt>
      <trkpt lat="43.039272" lon="-1.803323">
        <ele>713.6</ele>
        <time>2026-03-01T12:18:43Z</time>
      </trkpt>
      <trkpt lat="43.039216" lon="-1.803389">
        <ele>712.4</ele>
        <time>2026-03-01T12:18:44Z</time>
      </trkpt>
      <trkpt lat="43.039167" lon="-1.803457">
        <ele>711.0</ele>
        <time>2026-03-01T12:18:45Z</time>
      </trkpt>
      <trkpt lat="43.039091" lon="-1.803599">
        <ele>709.6</ele>
        <time>2026-03-01T12:18:47Z</time>
      </trkpt>
      <trkpt lat="43.039057" lon="-1.803681">
        <ele>709.4</ele>
        <time>2026-03-01T12:18:48Z</time>
      </trkpt>
      <trkpt lat="43.038996" lon="-1.803855">
        <ele>707.6</ele>
        <time>2026-03-01T12:18:50Z</time>
      </trkpt>
      <trkpt lat="43.038960" lon="-1.803930">
        <ele>706.6</ele>
        <time>2026-03-01T12:18:51Z</time>
      </trkpt>
      <trkpt lat="43.038920" lon="-1.803989">
        <ele>706.0</ele>
        <time>2026-03-01T12:18:52Z</time>
      </trkpt>
      <trkpt lat="43.038866" lon="-1.804030">
        <ele>704.6</ele>
        <time>2026-03-01T12:18:53Z</time>
      </trkpt>
      <trkpt lat="43.038809" lon="-1.804045">
        <ele>703.6</ele>
        <time>2026-03-01T12:18:54Z</time>
      </trkpt>
      <trkpt lat="43.038753" lon="-1.804033">
        <ele>702.8</ele>
        <time>2026-03-01T12:18:55Z</time>
      </trkpt>
      <trkpt lat="43.038700" lon="-1.803999">
        <ele>701.6</ele>
        <time>2026-03-01T12:18:56Z</time>
      </trkpt>
      <trkpt lat="43.038652" lon="-1.803960">
        <ele>700.8</ele>
        <time>2026-03-01T12:18:57Z</time>
      </trkpt>
      <trkpt lat="43.038595" lon="-1.803946">
        <ele>700.0</ele>
        <time>2026-03-01T12:18:58Z</time>
      </trkpt>
      <trkpt lat="43.038542" lon="-1.803966">
        <ele>698.8</ele>
        <time>2026-03-01T12:18:59Z</time>
      </trkpt>
      <trkpt lat="43.038484" lon="-1.803998">
        <ele>698.0</ele>
        <time>2026-03-01T12:19:00Z</time>
      </trkpt>
      <trkpt lat="43.038421" lon="-1.804033">
        <ele>697.4</ele>
        <time>2026-03-01T12:19:01Z</time>
      </trkpt>
      <trkpt lat="43.038260" lon="-1.804149">
        <ele>696.2</ele>
        <time>2026-03-01T12:19:04Z</time>
      </trkpt>
      <trkpt lat="43.038211" lon="-1.804190">
        <ele>696.0</ele>
        <time>2026-03-01T12:19:05Z</time>
      </trkpt>
      <trkpt lat="43.038168" lon="-1.804239">
        <ele>695.0</ele>
        <time>2026-03-01T12:19:06Z</time>
      </trkpt>
      <trkpt lat="43.038068" lon="-1.804323">
        <ele>693.8</ele>
        <time>2026-03-01T12:19:08Z</time>
      </trkpt>
      <trkpt lat="43.038012" lon="-1.804355">
        <ele>693.4</ele>
        <time>2026-03-01T12:19:09Z</time>
      </trkpt>
      <trkpt lat="43.037957" lon="-1.804377">
        <ele>692.2</ele>
        <time>2026-03-01T12:19:10Z</time>
      </trkpt>
      <trkpt lat="43.037905" lon="-1.804383">
        <ele>691.4</ele>
        <time>2026-03-01T12:19:11Z</time>
      </trkpt>
      <trkpt lat="43.037856" lon="-1.804365">
        <ele>690.4</ele>
        <time>2026-03-01T12:19:12Z</time>
      </trkpt>
      <trkpt lat="43.037807" lon="-1.804326">
        <ele>689.0</ele>
        <time>2026-03-01T12:19:13Z</time>
      </trkpt>
      <trkpt lat="43.037761" lon="-1.804277">
        <ele>688.4</ele>
        <time>2026-03-01T12:19:14Z</time>
      </trkpt>
      <trkpt lat="43.037713" lon="-1.804229">
        <ele>687.6</ele>
        <time>2026-03-01T12:19:15Z</time>
      </trkpt>
      <trkpt lat="43.037656" lon="-1.804187">
        <ele>686.8</ele>
        <time>2026-03-01T12:19:16Z</time>
      </trkpt>
      <trkpt lat="43.037603" lon="-1.804168">
        <ele>686.2</ele>
        <time>2026-03-01T12:19:17Z</time>
      </trkpt>
      <trkpt lat="43.037553" lon="-1.804171">
        <ele>685.8</ele>
        <time>2026-03-01T12:19:18Z</time>
      </trkpt>
      <trkpt lat="43.037469" lon="-1.804195">
        <ele>685.0</ele>
        <time>2026-03-01T12:19:20Z</time>
      </trkpt>
      <trkpt lat="43.037440" lon="-1.804214">
        <ele>684.6</ele>
        <time>2026-03-01T12:19:21Z</time>
      </trkpt>
      <trkpt lat="43.037424" lon="-1.804239">
        <ele>684.4</ele>
        <time>2026-03-01T12:19:22Z</time>
      </trkpt>
      <trkpt lat="43.037402" lon="-1.804281">
        <ele>684.4</ele>
        <time>2026-03-01T12:19:24Z</time>
      </trkpt>
      <trkpt lat="43.037382" lon="-1.804306">
        <ele>684.4</ele>
        <time>2026-03-01T12:19:26Z</time>
      </trkpt>
      <trkpt lat="43.037372" lon="-1.804316">
        <ele>684.4</ele>
        <time>2026-03-01T12:19:27Z</time>
      </trkpt>
      <trkpt lat="43.037350" lon="-1.804328">
        <ele>684.4</ele>
        <time>2026-03-01T12:19:32Z</time>
      </trkpt>
      <trkpt lat="43.037349" lon="-1.804327">
        <ele>684.2</ele>
        <time>2026-03-01T12:19:37Z</time>
      </trkpt>
      <trkpt lat="43.037344" lon="-1.804301">
        <ele>684.2</ele>
        <time>2026-03-01T12:19:41Z</time>
      </trkpt>
      <trkpt lat="43.037342" lon="-1.804289">
        <ele>684.2</ele>
        <time>2026-03-01T12:19:42Z</time>
      </trkpt>
      <trkpt lat="43.037319" lon="-1.804207">
        <ele>683.8</ele>
        <time>2026-03-01T12:19:46Z</time>
      </trkpt>
      <trkpt lat="43.037298" lon="-1.804176">
        <ele>683.8</ele>
        <time>2026-03-01T12:19:48Z</time>
      </trkpt>
      <trkpt lat="43.037240" lon="-1.804162">
        <ele>683.6</ele>
        <time>2026-03-01T12:19:51Z</time>
      </trkpt>
      <trkpt lat="43.037115" lon="-1.804214">
        <ele>682.4</ele>
        <time>2026-03-01T12:19:55Z</time>
      </trkpt>
      <trkpt lat="43.037035" lon="-1.804306">
        <ele>681.2</ele>
        <time>2026-03-01T12:19:57Z</time>
      </trkpt>
      <trkpt lat="43.036957" lon="-1.804374">
        <ele>680.2</ele>
        <time>2026-03-01T12:19:59Z</time>
      </trkpt>
      <trkpt lat="43.036919" lon="-1.804396">
        <ele>679.2</ele>
        <time>2026-03-01T12:20:00Z</time>
      </trkpt>
      <trkpt lat="43.036890" lon="-1.804449">
        <ele>678.0</ele>
        <time>2026-03-01T12:20:01Z</time>
      </trkpt>
      <trkpt lat="43.036874" lon="-1.804521">
        <ele>677.0</ele>
        <time>2026-03-01T12:20:02Z</time>
      </trkpt>
      <trkpt lat="43.036865" lon="-1.804597">
        <ele>675.8</ele>
        <time>2026-03-01T12:20:03Z</time>
      </trkpt>
      <trkpt lat="43.036849" lon="-1.804670">
        <ele>674.8</ele>
        <time>2026-03-01T12:20:04Z</time>
      </trkpt>
      <trkpt lat="43.036818" lon="-1.804730">
        <ele>674.4</ele>
        <time>2026-03-01T12:20:05Z</time>
      </trkpt>
      <trkpt lat="43.036773" lon="-1.804768">
        <ele>673.6</ele>
        <time>2026-03-01T12:20:06Z</time>
      </trkpt>
      <trkpt lat="43.036728" lon="-1.804796">
        <ele>673.2</ele>
        <time>2026-03-01T12:20:07Z</time>
      </trkpt>
      <trkpt lat="43.036639" lon="-1.804863">
        <ele>672.2</ele>
        <time>2026-03-01T12:20:09Z</time>
      </trkpt>
      <trkpt lat="43.036607" lon="-1.804908">
        <ele>672.0</ele>
        <time>2026-03-01T12:20:10Z</time>
      </trkpt>
      <trkpt lat="43.036585" lon="-1.804964">
        <ele>672.0</ele>
        <time>2026-03-01T12:20:11Z</time>
      </trkpt>
      <trkpt lat="43.036583" lon="-1.805094">
        <ele>672.2</ele>
        <time>2026-03-01T12:20:13Z</time>
      </trkpt>
      <trkpt lat="43.036597" lon="-1.805159">
        <ele>672.0</ele>
        <time>2026-03-01T12:20:14Z</time>
      </trkpt>
      <trkpt lat="43.036632" lon="-1.805386">
        <ele>671.4</ele>
        <time>2026-03-01T12:20:18Z</time>
      </trkpt>
      <trkpt lat="43.036569" lon="-1.805456">
        <ele>670.6</ele>
        <time>2026-03-01T12:20:20Z</time>
      </trkpt>
      <trkpt lat="43.036526" lon="-1.805461">
        <ele>669.8</ele>
        <time>2026-03-01T12:20:21Z</time>
      </trkpt>
      <trkpt lat="43.036480" lon="-1.805457">
        <ele>669.4</ele>
        <time>2026-03-01T12:20:22Z</time>
      </trkpt>
      <trkpt lat="43.036433" lon="-1.805472">
        <ele>668.8</ele>
        <time>2026-03-01T12:20:23Z</time>
      </trkpt>
      <trkpt lat="43.036395" lon="-1.805516">
        <ele>668.2</ele>
        <time>2026-03-01T12:20:24Z</time>
      </trkpt>
      <trkpt lat="43.036372" lon="-1.805590">
        <ele>667.8</ele>
        <time>2026-03-01T12:20:25Z</time>
      </trkpt>
      <trkpt lat="43.036364" lon="-1.805681">
        <ele>666.8</ele>
        <time>2026-03-01T12:20:26Z</time>
      </trkpt>
      <trkpt lat="43.036361" lon="-1.805870">
        <ele>664.4</ele>
        <time>2026-03-01T12:20:28Z</time>
      </trkpt>
      <trkpt lat="43.036359" lon="-1.805971">
        <ele>663.2</ele>
        <time>2026-03-01T12:20:29Z</time>
      </trkpt>
      <trkpt lat="43.036349" lon="-1.806171">
        <ele>662.2</ele>
        <time>2026-03-01T12:20:31Z</time>
      </trkpt>
      <trkpt lat="43.036342" lon="-1.806266">
        <ele>661.8</ele>
        <time>2026-03-01T12:20:32Z</time>
      </trkpt>
      <trkpt lat="43.036329" lon="-1.806587">
        <ele>661.2</ele>
        <time>2026-03-01T12:20:35Z</time>
      </trkpt>
      <trkpt lat="43.036338" lon="-1.806707">
        <ele>660.2</ele>
        <time>2026-03-01T12:20:36Z</time>
      </trkpt>
      <trkpt lat="43.036358" lon="-1.806822">
        <ele>658.2</ele>
        <time>2026-03-01T12:20:37Z</time>
      </trkpt>
      <trkpt lat="43.036386" lon="-1.806942">
        <ele>656.8</ele>
        <time>2026-03-01T12:20:38Z</time>
      </trkpt>
      <trkpt lat="43.036439" lon="-1.807150">
        <ele>654.2</ele>
        <time>2026-03-01T12:20:40Z</time>
      </trkpt>
      <trkpt lat="43.036461" lon="-1.807237">
        <ele>652.6</ele>
        <time>2026-03-01T12:20:41Z</time>
      </trkpt>
      <trkpt lat="43.036483" lon="-1.807319">
        <ele>651.6</ele>
        <time>2026-03-01T12:20:42Z</time>
      </trkpt>
      <trkpt lat="43.036501" lon="-1.807397">
        <ele>651.0</ele>
        <time>2026-03-01T12:20:43Z</time>
      </trkpt>
      <trkpt lat="43.036507" lon="-1.807482">
        <ele>650.0</ele>
        <time>2026-03-01T12:20:44Z</time>
      </trkpt>
      <trkpt lat="43.036498" lon="-1.807571">
        <ele>648.0</ele>
        <time>2026-03-01T12:20:45Z</time>
      </trkpt>
      <trkpt lat="43.036479" lon="-1.807660">
        <ele>646.8</ele>
        <time>2026-03-01T12:20:46Z</time>
      </trkpt>
      <trkpt lat="43.036454" lon="-1.807740">
        <ele>645.2</ele>
        <time>2026-03-01T12:20:47Z</time>
      </trkpt>
      <trkpt lat="43.036419" lon="-1.807808">
        <ele>643.0</ele>
        <time>2026-03-01T12:20:48Z</time>
      </trkpt>
      <trkpt lat="43.036377" lon="-1.807865">
        <ele>641.8</ele>
        <time>2026-03-01T12:20:49Z</time>
      </trkpt>
      <trkpt lat="43.036282" lon="-1.807928">
        <ele>641.0</ele>
        <time>2026-03-01T12:20:51Z</time>
      </trkpt>
      <trkpt lat="43.036238" lon="-1.807938">
        <ele>640.8</ele>
        <time>2026-03-01T12:20:52Z</time>
      </trkpt>
      <trkpt lat="43.036062" lon="-1.807941">
        <ele>642.0</ele>
        <time>2026-03-01T12:20:57Z</time>
      </trkpt>
      <trkpt lat="43.036042" lon="-1.807934">
        <ele>642.4</ele>
        <time>2026-03-01T12:20:58Z</time>
      </trkpt>
      <trkpt lat="43.035985" lon="-1.807970">
        <ele>643.2</ele>
        <time>2026-03-01T12:21:00Z</time>
      </trkpt>
      <trkpt lat="43.035964" lon="-1.807975">
        <ele>643.6</ele>
        <time>2026-03-01T12:21:01Z</time>
      </trkpt>
      <trkpt lat="43.035933" lon="-1.807981">
        <ele>644.2</ele>
        <time>2026-03-01T12:21:02Z</time>
      </trkpt>
      <trkpt lat="43.035873" lon="-1.807999">
        <ele>645.0</ele>
        <time>2026-03-01T12:21:04Z</time>
      </trkpt>
      <trkpt lat="43.035844" lon="-1.808013">
        <ele>645.2</ele>
        <time>2026-03-01T12:21:05Z</time>
      </trkpt>
      <trkpt lat="43.035781" lon="-1.808069">
        <ele>646.4</ele>
        <time>2026-03-01T12:21:08Z</time>
      </trkpt>
      <trkpt lat="43.035751" lon="-1.808119">
        <ele>646.6</ele>
        <time>2026-03-01T12:21:10Z</time>
      </trkpt>
      <trkpt lat="43.035711" lon="-1.808161">
        <ele>647.2</ele>
        <time>2026-03-01T12:21:12Z</time>
      </trkpt>
      <trkpt lat="43.035695" lon="-1.808187">
        <ele>647.4</ele>
        <time>2026-03-01T12:21:13Z</time>
      </trkpt>
      <trkpt lat="43.035645" lon="-1.808270">
        <ele>648.0</ele>
        <time>2026-03-01T12:21:16Z</time>
      </trkpt>
      <trkpt lat="43.035624" lon="-1.808294">
        <ele>648.4</ele>
        <time>2026-03-01T12:21:17Z</time>
      </trkpt>
      <trkpt lat="43.035549" lon="-1.808378">
        <ele>649.4</ele>
        <time>2026-03-01T12:21:21Z</time>
      </trkpt>
      <trkpt lat="43.035504" lon="-1.808386">
        <ele>650.2</ele>
        <time>2026-03-01T12:21:23Z</time>
      </trkpt>
      <trkpt lat="43.035463" lon="-1.808358">
        <ele>650.4</ele>
        <time>2026-03-01T12:21:25Z</time>
      </trkpt>
      <trkpt lat="43.035451" lon="-1.808336">
        <ele>650.6</ele>
        <time>2026-03-01T12:21:26Z</time>
      </trkpt>
      <trkpt lat="43.035442" lon="-1.808314">
        <ele>650.8</ele>
        <time>2026-03-01T12:21:27Z</time>
      </trkpt>
      <trkpt lat="43.035412" lon="-1.808260">
        <ele>651.8</ele>
        <time>2026-03-01T12:21:30Z</time>
      </trkpt>
      <trkpt lat="43.035394" lon="-1.808198">
        <ele>653.0</ele>
        <time>2026-03-01T12:21:34Z</time>
      </trkpt>
      <trkpt lat="43.035392" lon="-1.808180">
        <ele>653.4</ele>
        <time>2026-03-01T12:21:35Z</time>
      </trkpt>
      <trkpt lat="43.035386" lon="-1.808148">
        <ele>654.2</ele>
        <time>2026-03-01T12:21:37Z</time>
      </trkpt>
      <trkpt lat="43.035388" lon="-1.808079">
        <ele>656.0</ele>
        <time>2026-03-01T12:21:41Z</time>
      </trkpt>
      <trkpt lat="43.035392" lon="-1.808058">
        <ele>656.4</ele>
        <time>2026-03-01T12:21:42Z</time>
      </trkpt>
      <trkpt lat="43.035386" lon="-1.808040">
        <ele>656.8</ele>
        <time>2026-03-01T12:21:43Z</time>
      </trkpt>
      <trkpt lat="43.035379" lon="-1.808022">
        <ele>657.4</ele>
        <time>2026-03-01T12:21:44Z</time>
      </trkpt>
      <trkpt lat="43.035370" lon="-1.807967">
        <ele>658.2</ele>
        <time>2026-03-01T12:21:47Z</time>
      </trkpt>
      <trkpt lat="43.035365" lon="-1.807952">
        <ele>658.8</ele>
        <time>2026-03-01T12:21:48Z</time>
      </trkpt>
      <trkpt lat="43.035350" lon="-1.807904">
        <ele>659.6</ele>
        <time>2026-03-01T12:21:51Z</time>
      </trkpt>
      <trkpt lat="43.035339" lon="-1.807868">
        <ele>660.2</ele>
        <time>2026-03-01T12:21:53Z</time>
      </trkpt>
      <trkpt lat="43.035321" lon="-1.807775">
        <ele>660.4</ele>
        <time>2026-03-01T12:21:57Z</time>
      </trkpt>
      <trkpt lat="43.035317" lon="-1.807745">
        <ele>660.4</ele>
        <time>2026-03-01T12:21:58Z</time>
      </trkpt>
      <trkpt lat="43.035306" lon="-1.807684">
        <ele>660.2</ele>
        <time>2026-03-01T12:22:00Z</time>
      </trkpt>
      <trkpt lat="43.035234" lon="-1.807502">
        <ele>659.8</ele>
        <time>2026-03-01T12:22:05Z</time>
      </trkpt>
      <trkpt lat="43.035187" lon="-1.807381">
        <ele>659.8</ele>
        <time>2026-03-01T12:22:08Z</time>
      </trkpt>
      <trkpt lat="43.035113" lon="-1.807186">
        <ele>660.2</ele>
        <time>2026-03-01T12:22:13Z</time>
      </trkpt>
      <trkpt lat="43.035031" lon="-1.807014">
        <ele>661.0</ele>
        <time>2026-03-01T12:22:19Z</time>
      </trkpt>
      <trkpt lat="43.035014" lon="-1.806994">
        <ele>661.8</ele>
        <time>2026-03-01T12:22:20Z</time>
      </trkpt>
      <trkpt lat="43.034971" lon="-1.806931">
        <ele>663.0</ele>
        <time>2026-03-01T12:22:23Z</time>
      </trkpt>
      <trkpt lat="43.034929" lon="-1.806854">
        <ele>664.2</ele>
        <time>2026-03-01T12:22:27Z</time>
      </trkpt>
      <trkpt lat="43.034894" lon="-1.806800">
        <ele>665.0</ele>
        <time>2026-03-01T12:22:30Z</time>
      </trkpt>
      <trkpt lat="43.034881" lon="-1.806783">
        <ele>665.4</ele>
        <time>2026-03-01T12:22:31Z</time>
      </trkpt>
      <trkpt lat="43.034853" lon="-1.806729">
        <ele>666.4</ele>
        <time>2026-03-01T12:22:34Z</time>
      </trkpt>
      <trkpt lat="43.034841" lon="-1.806710">
        <ele>666.6</ele>
        <time>2026-03-01T12:22:35Z</time>
      </trkpt>
      <trkpt lat="43.034782" lon="-1.806605">
        <ele>667.6</ele>
        <time>2026-03-01T12:22:41Z</time>
      </trkpt>
      <trkpt lat="43.034763" lon="-1.806557">
        <ele>668.2</ele>
        <time>2026-03-01T12:22:44Z</time>
      </trkpt>
      <trkpt lat="43.034746" lon="-1.806533">
        <ele>668.8</ele>
        <time>2026-03-01T12:22:46Z</time>
      </trkpt>
      <trkpt lat="43.034740" lon="-1.806526">
        <ele>669.0</ele>
        <time>2026-03-01T12:22:47Z</time>
      </trkpt>
      <trkpt lat="43.034702" lon="-1.806471">
        <ele>670.0</ele>
        <time>2026-03-01T12:22:52Z</time>
      </trkpt>
      <trkpt lat="43.034689" lon="-1.806464">
        <ele>670.4</ele>
        <time>2026-03-01T12:22:53Z</time>
      </trkpt>
      <trkpt lat="43.034670" lon="-1.806419">
        <ele>671.2</ele>
        <time>2026-03-01T12:22:56Z</time>
      </trkpt>
      <trkpt lat="43.034657" lon="-1.806370">
        <ele>672.0</ele>
        <time>2026-03-01T12:22:59Z</time>
      </trkpt>
      <trkpt lat="43.034645" lon="-1.806343">
        <ele>672.6</ele>
        <time>2026-03-01T12:23:01Z</time>
      </trkpt>
      <trkpt lat="43.034613" lon="-1.806296">
        <ele>673.8</ele>
        <time>2026-03-01T12:23:05Z</time>
      </trkpt>
      <trkpt lat="43.034608" lon="-1.806280">
        <ele>674.2</ele>
        <time>2026-03-01T12:23:06Z</time>
      </trkpt>
      <trkpt lat="43.034585" lon="-1.806244">
        <ele>674.4</ele>
        <time>2026-03-01T12:23:09Z</time>
      </trkpt>
      <trkpt lat="43.034570" lon="-1.806215">
        <ele>674.8</ele>
        <time>2026-03-01T12:23:11Z</time>
      </trkpt>
      <trkpt lat="43.034559" lon="-1.806190">
        <ele>675.6</ele>
        <time>2026-03-01T12:23:13Z</time>
      </trkpt>
      <trkpt lat="43.034559" lon="-1.806174">
        <ele>675.8</ele>
        <time>2026-03-01T12:23:14Z</time>
      </trkpt>
      <trkpt lat="43.034554" lon="-1.806159">
        <ele>676.2</ele>
        <time>2026-03-01T12:23:15Z</time>
      </trkpt>
      <trkpt lat="43.034547" lon="-1.806143">
        <ele>676.4</ele>
        <time>2026-03-01T12:23:16Z</time>
      </trkpt>
      <trkpt lat="43.034536" lon="-1.806092">
        <ele>676.8</ele>
        <time>2026-03-01T12:23:19Z</time>
      </trkpt>
      <trkpt lat="43.034521" lon="-1.806061">
        <ele>677.0</ele>
        <time>2026-03-01T12:23:21Z</time>
      </trkpt>
      <trkpt lat="43.034487" lon="-1.805976">
        <ele>678.2</ele>
        <time>2026-03-01T12:23:26Z</time>
      </trkpt>
      <trkpt lat="43.034480" lon="-1.805960">
        <ele>678.6</ele>
        <time>2026-03-01T12:23:27Z</time>
      </trkpt>
      <trkpt lat="43.034477" lon="-1.805939">
        <ele>678.6</ele>
        <time>2026-03-01T12:23:28Z</time>
      </trkpt>
      <trkpt lat="43.034443" lon="-1.805868">
        <ele>679.2</ele>
        <time>2026-03-01T12:23:32Z</time>
      </trkpt>
      <trkpt lat="43.034433" lon="-1.805849">
        <ele>679.4</ele>
        <time>2026-03-01T12:23:33Z</time>
      </trkpt>
      <trkpt lat="43.034389" lon="-1.805772">
        <ele>679.8</ele>
        <time>2026-03-01T12:23:37Z</time>
      </trkpt>
      <trkpt lat="43.034365" lon="-1.805716">
        <ele>680.2</ele>
        <time>2026-03-01T12:23:40Z</time>
      </trkpt>
      <trkpt lat="43.034357" lon="-1.805695">
        <ele>680.4</ele>
        <time>2026-03-01T12:23:41Z</time>
      </trkpt>
      <trkpt lat="43.034310" lon="-1.805546">
        <ele>681.0</ele>
        <time>2026-03-01T12:23:49Z</time>
      </trkpt>
      <trkpt lat="43.034302" lon="-1.805506">
        <ele>681.4</ele>
        <time>2026-03-01T12:23:51Z</time>
      </trkpt>
      <trkpt lat="43.034285" lon="-1.805470">
        <ele>681.8</ele>
        <time>2026-03-01T12:23:53Z</time>
      </trkpt>
      <trkpt lat="43.034272" lon="-1.805422">
        <ele>682.2</ele>
        <time>2026-03-01T12:23:56Z</time>
      </trkpt>
      <trkpt lat="43.034253" lon="-1.805361">
        <ele>682.6</ele>
        <time>2026-03-01T12:23:59Z</time>
      </trkpt>
      <trkpt lat="43.034220" lon="-1.805289">
        <ele>683.6</ele>
        <time>2026-03-01T12:24:03Z</time>
      </trkpt>
      <trkpt lat="43.034199" lon="-1.805261">
        <ele>684.0</ele>
        <time>2026-03-01T12:24:05Z</time>
      </trkpt>
      <trkpt lat="43.034204" lon="-1.805238">
        <ele>684.0</ele>
        <time>2026-03-01T12:24:06Z</time>
      </trkpt>
      <trkpt lat="43.034195" lon="-1.805199">
        <ele>684.4</ele>
        <time>2026-03-01T12:24:08Z</time>
      </trkpt>
      <trkpt lat="43.034184" lon="-1.805164">
        <ele>684.8</ele>
        <time>2026-03-01T12:24:10Z</time>
      </trkpt>
      <trkpt lat="43.034138" lon="-1.805044">
        <ele>686.0</ele>
        <time>2026-03-01T12:24:17Z</time>
      </trkpt>
      <trkpt lat="43.034130" lon="-1.805029">
        <ele>686.0</ele>
        <time>2026-03-01T12:24:18Z</time>
      </trkpt>
      <trkpt lat="43.034111" lon="-1.804995">
        <ele>686.6</ele>
        <time>2026-03-01T12:24:20Z</time>
      </trkpt>
      <trkpt lat="43.034099" lon="-1.804976">
        <ele>687.0</ele>
        <time>2026-03-01T12:24:21Z</time>
      </trkpt>
      <trkpt lat="43.034057" lon="-1.804901">
        <ele>687.8</ele>
        <time>2026-03-01T12:24:25Z</time>
      </trkpt>
      <trkpt lat="43.034052" lon="-1.804878">
        <ele>688.0</ele>
        <time>2026-03-01T12:24:26Z</time>
      </trkpt>
      <trkpt lat="43.034022" lon="-1.804832">
        <ele>688.8</ele>
        <time>2026-03-01T12:24:29Z</time>
      </trkpt>
      <trkpt lat="43.034017" lon="-1.804817">
        <ele>689.0</ele>
        <time>2026-03-01T12:24:30Z</time>
      </trkpt>
      <trkpt lat="43.034005" lon="-1.804786">
        <ele>689.4</ele>
        <time>2026-03-01T12:24:32Z</time>
      </trkpt>
      <trkpt lat="43.033977" lon="-1.804742">
        <ele>690.2</ele>
        <time>2026-03-01T12:24:35Z</time>
      </trkpt>
      <trkpt lat="43.033941" lon="-1.804690">
        <ele>690.6</ele>
        <time>2026-03-01T12:24:38Z</time>
      </trkpt>
      <trkpt lat="43.033891" lon="-1.804631">
        <ele>691.2</ele>
        <time>2026-03-01T12:24:42Z</time>
      </trkpt>
      <trkpt lat="43.033831" lon="-1.804568">
        <ele>691.4</ele>
        <time>2026-03-01T12:24:46Z</time>
      </trkpt>
      <trkpt lat="43.033795" lon="-1.804525">
        <ele>692.0</ele>
        <time>2026-03-01T12:24:49Z</time>
      </trkpt>
      <trkpt lat="43.033782" lon="-1.804511">
        <ele>692.2</ele>
        <time>2026-03-01T12:24:50Z</time>
      </trkpt>
      <trkpt lat="43.033759" lon="-1.804484">
        <ele>692.8</ele>
        <time>2026-03-01T12:24:52Z</time>
      </trkpt>
      <trkpt lat="43.033732" lon="-1.804457">
        <ele>693.2</ele>
        <time>2026-03-01T12:24:54Z</time>
      </trkpt>
      <trkpt lat="43.033721" lon="-1.804442">
        <ele>693.4</ele>
        <time>2026-03-01T12:24:55Z</time>
      </trkpt>
      <trkpt lat="43.033708" lon="-1.804429">
        <ele>693.4</ele>
        <time>2026-03-01T12:24:56Z</time>
      </trkpt>
      <trkpt lat="43.033643" lon="-1.804383">
        <ele>694.4</ele>
        <time>2026-03-01T12:25:01Z</time>
      </trkpt>
      <trkpt lat="43.033578" lon="-1.804329">
        <ele>695.2</ele>
        <time>2026-03-01T12:25:06Z</time>
      </trkpt>
      <trkpt lat="43.033566" lon="-1.804321">
        <ele>695.8</ele>
        <time>2026-03-01T12:25:07Z</time>
      </trkpt>
      <trkpt lat="43.033552" lon="-1.804318">
        <ele>696.0</ele>
        <time>2026-03-01T12:25:08Z</time>
      </trkpt>
      <trkpt lat="43.033477" lon="-1.804330">
        <ele>696.8</ele>
        <time>2026-03-01T12:25:13Z</time>
      </trkpt>
      <trkpt lat="43.033445" lon="-1.804339">
        <ele>697.0</ele>
        <time>2026-03-01T12:25:15Z</time>
      </trkpt>
      <trkpt lat="43.033383" lon="-1.804364">
        <ele>697.8</ele>
        <time>2026-03-01T12:25:19Z</time>
      </trkpt>
      <trkpt lat="43.033368" lon="-1.804374">
        <ele>697.8</ele>
        <time>2026-03-01T12:25:20Z</time>
      </trkpt>
      <trkpt lat="43.033352" lon="-1.804384">
        <ele>698.2</ele>
        <time>2026-03-01T12:25:21Z</time>
      </trkpt>
      <trkpt lat="43.033257" lon="-1.804436">
        <ele>699.0</ele>
        <time>2026-03-01T12:25:27Z</time>
      </trkpt>
      <trkpt lat="43.033146" lon="-1.804498">
        <ele>699.2</ele>
        <time>2026-03-01T12:25:33Z</time>
      </trkpt>
      <trkpt lat="43.032984" lon="-1.804602">
        <ele>698.8</ele>
        <time>2026-03-01T12:25:39Z</time>
      </trkpt>
      <trkpt lat="43.032848" lon="-1.804673">
        <ele>697.8</ele>
        <time>2026-03-01T12:25:43Z</time>
      </trkpt>
      <trkpt lat="43.032782" lon="-1.804705">
        <ele>697.6</ele>
        <time>2026-03-01T12:25:45Z</time>
      </trkpt>
      <trkpt lat="43.032632" lon="-1.804750">
        <ele>697.4</ele>
        <time>2026-03-01T12:25:49Z</time>
      </trkpt>
      <trkpt lat="43.032586" lon="-1.804757">
        <ele>697.4</ele>
        <time>2026-03-01T12:25:50Z</time>
      </trkpt>
      <trkpt lat="43.032443" lon="-1.804797">
        <ele>697.4</ele>
        <time>2026-03-01T12:25:53Z</time>
      </trkpt>
      <trkpt lat="43.032360" lon="-1.804854">
        <ele>697.2</ele>
        <time>2026-03-01T12:25:55Z</time>
      </trkpt>
      <trkpt lat="43.032285" lon="-1.804926">
        <ele>697.0</ele>
        <time>2026-03-01T12:25:57Z</time>
      </trkpt>
      <trkpt lat="43.032251" lon="-1.804964">
        <ele>696.8</ele>
        <time>2026-03-01T12:25:58Z</time>
      </trkpt>
      <trkpt lat="43.032150" lon="-1.805069">
        <ele>696.4</ele>
        <time>2026-03-01T12:26:01Z</time>
      </trkpt>
      <trkpt lat="43.032021" lon="-1.805205">
        <ele>697.6</ele>
        <time>2026-03-01T12:26:06Z</time>
      </trkpt>
      <trkpt lat="43.032003" lon="-1.805233">
        <ele>698.0</ele>
        <time>2026-03-01T12:26:07Z</time>
      </trkpt>
      <trkpt lat="43.031953" lon="-1.805297">
        <ele>699.6</ele>
        <time>2026-03-01T12:26:10Z</time>
      </trkpt>
      <trkpt lat="43.031895" lon="-1.805365">
        <ele>700.8</ele>
        <time>2026-03-01T12:26:13Z</time>
      </trkpt>
      <trkpt lat="43.031878" lon="-1.805387">
        <ele>701.0</ele>
        <time>2026-03-01T12:26:14Z</time>
      </trkpt>
      <trkpt lat="43.031781" lon="-1.805510">
        <ele>701.6</ele>
        <time>2026-03-01T12:26:19Z</time>
      </trkpt>
      <trkpt lat="43.031756" lon="-1.805540">
        <ele>701.6</ele>
        <time>2026-03-01T12:26:20Z</time>
      </trkpt>
      <trkpt lat="43.031581" lon="-1.805816">
        <ele>700.8</ele>
        <time>2026-03-01T12:26:27Z</time>
      </trkpt>
      <trkpt lat="43.031501" lon="-1.805965">
        <ele>702.0</ele>
        <time>2026-03-01T12:26:32Z</time>
      </trkpt>
      <trkpt lat="43.031479" lon="-1.805996">
        <ele>702.2</ele>
        <time>2026-03-01T12:26:33Z</time>
      </trkpt>
      <trkpt lat="43.031373" lon="-1.806152">
        <ele>702.6</ele>
        <time>2026-03-01T12:26:38Z</time>
      </trkpt>
      <trkpt lat="43.031303" lon="-1.806226">
        <ele>702.6</ele>
        <time>2026-03-01T12:26:41Z</time>
      </trkpt>
      <trkpt lat="43.031223" lon="-1.806311">
        <ele>703.4</ele>
        <time>2026-03-01T12:26:45Z</time>
      </trkpt>
      <trkpt lat="43.031188" lon="-1.806353">
        <ele>703.8</ele>
        <time>2026-03-01T12:26:47Z</time>
      </trkpt>
      <trkpt lat="43.031117" lon="-1.806447">
        <ele>704.6</ele>
        <time>2026-03-01T12:26:51Z</time>
      </trkpt>
      <trkpt lat="43.031085" lon="-1.806492">
        <ele>705.4</ele>
        <time>2026-03-01T12:26:53Z</time>
      </trkpt>
      <trkpt lat="43.031056" lon="-1.806497">
        <ele>705.8</ele>
        <time>2026-03-01T12:26:54Z</time>
      </trkpt>
      <trkpt lat="43.030958" lon="-1.806625">
        <ele>706.8</ele>
        <time>2026-03-01T12:27:00Z</time>
      </trkpt>
      <trkpt lat="43.030914" lon="-1.806698">
        <ele>707.2</ele>
        <time>2026-03-01T12:27:03Z</time>
      </trkpt>
      <trkpt lat="43.030879" lon="-1.806755">
        <ele>708.2</ele>
        <time>2026-03-01T12:27:06Z</time>
      </trkpt>
      <trkpt lat="43.030857" lon="-1.806792">
        <ele>709.2</ele>
        <time>2026-03-01T12:27:08Z</time>
      </trkpt>
      <trkpt lat="43.030847" lon="-1.806813">
        <ele>709.6</ele>
        <time>2026-03-01T12:27:09Z</time>
      </trkpt>
      <trkpt lat="43.030811" lon="-1.806887">
        <ele>710.8</ele>
        <time>2026-03-01T12:27:12Z</time>
      </trkpt>
      <trkpt lat="43.030793" lon="-1.806920">
        <ele>711.4</ele>
        <time>2026-03-01T12:27:14Z</time>
      </trkpt>
      <trkpt lat="43.030796" lon="-1.807011">
        <ele>711.6</ele>
        <time>2026-03-01T12:27:18Z</time>
      </trkpt>
      <trkpt lat="43.030798" lon="-1.807036">
        <ele>711.8</ele>
        <time>2026-03-01T12:27:19Z</time>
      </trkpt>
      <trkpt lat="43.030796" lon="-1.807056">
        <ele>712.0</ele>
        <time>2026-03-01T12:27:20Z</time>
      </trkpt>
      <trkpt lat="43.030812" lon="-1.807148">
        <ele>712.8</ele>
        <time>2026-03-01T12:27:25Z</time>
      </trkpt>
      <trkpt lat="43.030809" lon="-1.807156">
        <ele>712.8</ele>
        <time>2026-03-01T12:27:27Z</time>
      </trkpt>
      <trkpt lat="43.030812" lon="-1.807163">
        <ele>712.8</ele>
        <time>2026-03-01T12:27:31Z</time>
      </trkpt>
      <trkpt lat="43.030811" lon="-1.807191">
        <ele>712.6</ele>
        <time>2026-03-01T12:27:38Z</time>
      </trkpt>
      <trkpt lat="43.030810" lon="-1.807192">
        <ele>712.6</ele>
        <time>2026-03-01T12:27:41Z</time>
      </trkpt>
      <trkpt lat="43.030810" lon="-1.807193">
        <ele>712.4</ele>
        <time>2026-03-01T12:27:45Z</time>
      </trkpt>
      <trkpt lat="43.030809" lon="-1.807193">
        <ele>712.4</ele>
        <time>2026-03-01T12:27:52Z</time>
      </trkpt>
      <trkpt lat="43.030808" lon="-1.807192">
        <ele>712.2</ele>
        <time>2026-03-01T12:27:57Z</time>
      </trkpt>
      <trkpt lat="43.030806" lon="-1.807191">
        <ele>712.4</ele>
        <time>2026-03-01T12:28:00Z</time>
      </trkpt>
      <trkpt lat="43.030801" lon="-1.807200">
        <ele>712.4</ele>
        <time>2026-03-01T12:28:03Z</time>
      </trkpt>
      <trkpt lat="43.030796" lon="-1.807207">
        <ele>712.4</ele>
        <time>2026-03-01T12:28:13Z</time>
      </trkpt>
      <trkpt lat="43.030795" lon="-1.807208">
        <ele>712.6</ele>
        <time>2026-03-01T12:28:16Z</time>
      </trkpt>
      <trkpt lat="43.030793" lon="-1.807207">
        <ele>713.2</ele>
        <time>2026-03-01T12:28:25Z</time>
      </trkpt>
      <trkpt lat="43.030792" lon="-1.807207">
        <ele>713.2</ele>
        <time>2026-03-01T12:28:26Z</time>
      </trkpt>
      <trkpt lat="43.030792" lon="-1.807208">
        <ele>713.2</ele>
        <time>2026-03-01T12:28:27Z</time>
      </trkpt>
      <trkpt lat="43.030791" lon="-1.807208">
        <ele>713.6</ele>
        <time>2026-03-01T12:28:30Z</time>
      </trkpt>
      <trkpt lat="43.030786" lon="-1.807209">
        <ele>713.0</ele>
        <time>2026-03-01T12:28:40Z</time>
      </trkpt>
      <trkpt lat="43.030785" lon="-1.807210">
        <ele>713.0</ele>
        <time>2026-03-01T12:28:47Z</time>
      </trkpt>
      <trkpt lat="43.030786" lon="-1.807227">
        <ele>713.2</ele>
        <time>2026-03-01T12:28:58Z</time>
      </trkpt>
      <trkpt lat="43.030759" lon="-1.807246">
        <ele>713.4</ele>
        <time>2026-03-01T12:29:05Z</time>
      </trkpt>
      <trkpt lat="43.030761" lon="-1.807246">
        <ele>712.4</ele>
        <time>2026-03-01T12:29:14Z</time>
      </trkpt>
      <trkpt lat="43.030760" lon="-1.807246">
        <ele>712.6</ele>
        <time>2026-03-01T12:29:21Z</time>
      </trkpt>
      <trkpt lat="43.030759" lon="-1.807248">
        <ele>713.0</ele>
        <time>2026-03-01T12:29:25Z</time>
      </trkpt>
      <trkpt lat="43.030755" lon="-1.807257">
        <ele>714.4</ele>
        <time>2026-03-01T12:29:30Z</time>
      </trkpt>
      <trkpt lat="43.030756" lon="-1.807260">
        <ele>714.4</ele>
        <time>2026-03-01T12:29:32Z</time>
      </trkpt>
      <trkpt lat="43.030752" lon="-1.807263">
        <ele>713.4</ele>
        <time>2026-03-01T12:29:38Z</time>
      </trkpt>
      <trkpt lat="43.030751" lon="-1.807264">
        <ele>713.2</ele>
        <time>2026-03-01T12:29:39Z</time>
      </trkpt>
      <trkpt lat="43.030751" lon="-1.807269">
        <ele>713.2</ele>
        <time>2026-03-01T12:29:43Z</time>
      </trkpt>
      <trkpt lat="43.030753" lon="-1.807270">
        <ele>713.2</ele>
        <time>2026-03-01T12:29:53Z</time>
      </trkpt>
      <trkpt lat="43.030753" lon="-1.807275">
        <ele>713.2</ele>
        <time>2026-03-01T12:29:55Z</time>
      </trkpt>
      <trkpt lat="43.030753" lon="-1.807290">
        <ele>713.2</ele>
        <time>2026-03-01T12:30:07Z</time>
      </trkpt>
      <trkpt lat="43.030746" lon="-1.807270">
        <ele>713.2</ele>
        <time>2026-03-01T12:30:10Z</time>
      </trkpt>
      <trkpt lat="43.030726" lon="-1.807262">
        <ele>713.2</ele>
        <time>2026-03-01T12:30:14Z</time>
      </trkpt>
      <trkpt lat="43.030723" lon="-1.807333">
        <ele>713.2</ele>
        <time>2026-03-01T12:30:18Z</time>
      </trkpt>
      <trkpt lat="43.030730" lon="-1.807369">
        <ele>713.2</ele>
        <time>2026-03-01T12:30:19Z</time>
      </trkpt>
      <trkpt lat="43.030740" lon="-1.807389">
        <ele>713.2</ele>
        <time>2026-03-01T12:30:22Z</time>
      </trkpt>
      <trkpt lat="43.030741" lon="-1.807384">
        <ele>713.0</ele>
        <time>2026-03-01T12:30:25Z</time>
      </trkpt>
      <trkpt lat="43.030752" lon="-1.807330">
        <ele>713.8</ele>
        <time>2026-03-01T12:30:28Z</time>
      </trkpt>
      <trkpt lat="43.030756" lon="-1.807311">
        <ele>714.4</ele>
        <time>2026-03-01T12:30:29Z</time>
      </trkpt>
      <trkpt lat="43.030785" lon="-1.807297">
        <ele>715.6</ele>
        <time>2026-03-01T12:30:32Z</time>
      </trkpt>
      <trkpt lat="43.030788" lon="-1.807309">
        <ele>716.0</ele>
        <time>2026-03-01T12:30:33Z</time>
      </trkpt>
      <trkpt lat="43.030785" lon="-1.807311">
        <ele>715.4</ele>
        <time>2026-03-01T12:30:41Z</time>
      </trkpt>
      <trkpt lat="43.030771" lon="-1.807307">
        <ele>715.2</ele>
        <time>2026-03-01T12:30:52Z</time>
      </trkpt>
      <trkpt lat="43.030758" lon="-1.807318">
        <ele>715.4</ele>
        <time>2026-03-01T12:30:55Z</time>
      </trkpt>
      <trkpt lat="43.030752" lon="-1.807344">
        <ele>715.4</ele>
        <time>2026-03-01T12:30:57Z</time>
      </trkpt>
      <trkpt lat="43.030750" lon="-1.807362">
        <ele>714.4</ele>
        <time>2026-03-01T12:30:58Z</time>
      </trkpt>
      <trkpt lat="43.030744" lon="-1.807372">
        <ele>713.0</ele>
        <time>2026-03-01T12:31:01Z</time>
      </trkpt>
      <trkpt lat="43.030742" lon="-1.807372">
        <ele>712.8</ele>
        <time>2026-03-01T12:31:02Z</time>
      </trkpt>
      <trkpt lat="43.030739" lon="-1.807393">
        <ele>712.6</ele>
        <time>2026-03-01T12:31:07Z</time>
      </trkpt>
      <trkpt lat="43.030732" lon="-1.807385">
        <ele>712.8</ele>
        <time>2026-03-01T12:31:08Z</time>
      </trkpt>
      <trkpt lat="43.030730" lon="-1.807381">
        <ele>712.8</ele>
        <time>2026-03-01T12:31:09Z</time>
      </trkpt>
      <trkpt lat="43.030731" lon="-1.807382">
        <ele>713.0</ele>
        <time>2026-03-01T12:31:14Z</time>
      </trkpt>
      <trkpt lat="43.030748" lon="-1.807312">
        <ele>713.6</ele>
        <time>2026-03-01T12:31:20Z</time>
      </trkpt>
      <trkpt lat="43.030763" lon="-1.807301">
        <ele>714.2</ele>
        <time>2026-03-01T12:31:22Z</time>
      </trkpt>
      <trkpt lat="43.030754" lon="-1.807291">
        <ele>714.6</ele>
        <time>2026-03-01T12:31:26Z</time>
      </trkpt>
      <trkpt lat="43.030730" lon="-1.807303">
        <ele>714.6</ele>
        <time>2026-03-01T12:31:28Z</time>
      </trkpt>
      <trkpt lat="43.030727" lon="-1.807330">
        <ele>714.2</ele>
        <time>2026-03-01T12:31:30Z</time>
      </trkpt>
      <trkpt lat="43.030737" lon="-1.807342">
        <ele>713.4</ele>
        <time>2026-03-01T12:31:33Z</time>
      </trkpt>
      <trkpt lat="43.030747" lon="-1.807355">
        <ele>713.0</ele>
        <time>2026-03-01T12:31:35Z</time>
      </trkpt>
      <trkpt lat="43.030751" lon="-1.807363">
        <ele>712.8</ele>
        <time>2026-03-01T12:31:36Z</time>
      </trkpt>
      <trkpt lat="43.030756" lon="-1.807404">
        <ele>712.4</ele>
        <time>2026-03-01T12:31:42Z</time>
      </trkpt>
      <trkpt lat="43.030758" lon="-1.807396">
        <ele>712.4</ele>
        <time>2026-03-01T12:31:45Z</time>
      </trkpt>
      <trkpt lat="43.030749" lon="-1.807371">
        <ele>712.6</ele>
        <time>2026-03-01T12:31:47Z</time>
      </trkpt>
      <trkpt lat="43.030766" lon="-1.807326">
        <ele>713.4</ele>
        <time>2026-03-01T12:31:52Z</time>
      </trkpt>
      <trkpt lat="43.030764" lon="-1.807313">
        <ele>713.6</ele>
        <time>2026-03-01T12:31:54Z</time>
      </trkpt>
      <trkpt lat="43.030754" lon="-1.807322">
        <ele>713.6</ele>
        <time>2026-03-01T12:31:57Z</time>
      </trkpt>
      <trkpt lat="43.030747" lon="-1.807359">
        <ele>713.0</ele>
        <time>2026-03-01T12:32:04Z</time>
      </trkpt>
      <trkpt lat="43.030749" lon="-1.807399">
        <ele>712.2</ele>
        <time>2026-03-01T12:32:12Z</time>
      </trkpt>
      <trkpt lat="43.030745" lon="-1.807407">
        <ele>712.2</ele>
        <time>2026-03-01T12:32:16Z</time>
      </trkpt>
      <trkpt lat="43.030744" lon="-1.807409">
        <ele>712.2</ele>
        <time>2026-03-01T12:32:17Z</time>
      </trkpt>
      <trkpt lat="43.030743" lon="-1.807409">
        <ele>712.2</ele>
        <time>2026-03-01T12:32:18Z</time>
      </trkpt>
      <trkpt lat="43.030741" lon="-1.807408">
        <ele>712.4</ele>
        <time>2026-03-01T12:32:24Z</time>
      </trkpt>
      <trkpt lat="43.030737" lon="-1.807410">
        <ele>712.4</ele>
        <time>2026-03-01T12:32:34Z</time>
      </trkpt>
      <trkpt lat="43.030751" lon="-1.807386">
        <ele>712.6</ele>
        <time>2026-03-01T12:32:44Z</time>
      </trkpt>
      <trkpt lat="43.030760" lon="-1.807363">
        <ele>712.6</ele>
        <time>2026-03-01T12:32:47Z</time>
      </trkpt>
      <trkpt lat="43.030769" lon="-1.807326">
        <ele>713.0</ele>
        <time>2026-03-01T12:32:50Z</time>
      </trkpt>
      <trkpt lat="43.030776" lon="-1.807289">
        <ele>714.0</ele>
        <time>2026-03-01T12:32:55Z</time>
      </trkpt>
      <trkpt lat="43.030783" lon="-1.807283">
        <ele>714.4</ele>
        <time>2026-03-01T12:32:58Z</time>
      </trkpt>
      <trkpt lat="43.030794" lon="-1.807283">
        <ele>714.6</ele>
        <time>2026-03-01T12:32:59Z</time>
      </trkpt>
      <trkpt lat="43.030791" lon="-1.807285">
        <ele>714.6</ele>
        <time>2026-03-01T12:33:06Z</time>
      </trkpt>
      <trkpt lat="43.030791" lon="-1.807285">
        <ele>714.6</ele>
        <time>2026-03-01T12:33:08Z</time>
      </trkpt>
      <trkpt lat="43.030791" lon="-1.807284">
        <ele>714.6</ele>
        <time>2026-03-01T12:33:10Z</time>
      </trkpt>
      <trkpt lat="43.030791" lon="-1.807284">
        <ele>714.4</ele>
        <time>2026-03-01T12:33:16Z</time>
      </trkpt>
      <trkpt lat="43.030791" lon="-1.807284">
        <ele>714.4</ele>
        <time>2026-03-01T12:33:20Z</time>
      </trkpt>
      <trkpt lat="43.030790" lon="-1.807340">
        <ele>713.6</ele>
        <time>2026-03-01T12:33:31Z</time>
      </trkpt>
      <trkpt lat="43.030791" lon="-1.807356">
        <ele>712.6</ele>
        <time>2026-03-01T12:33:33Z</time>
      </trkpt>
      <trkpt lat="43.030790" lon="-1.807353">
        <ele>712.2</ele>
        <time>2026-03-01T12:33:35Z</time>
      </trkpt>
      <trkpt lat="43.030774" lon="-1.807353">
        <ele>713.0</ele>
        <time>2026-03-01T12:33:42Z</time>
      </trkpt>
      <trkpt lat="43.030769" lon="-1.807347">
        <ele>713.0</ele>
        <time>2026-03-01T12:33:46Z</time>
      </trkpt>
      <trkpt lat="43.030765" lon="-1.807334">
        <ele>713.0</ele>
        <time>2026-03-01T12:33:48Z</time>
      </trkpt>
      <trkpt lat="43.030777" lon="-1.807320">
        <ele>713.8</ele>
        <time>2026-03-01T12:33:50Z</time>
      </trkpt>
      <trkpt lat="43.030779" lon="-1.807320">
        <ele>714.4</ele>
        <time>2026-03-01T12:33:53Z</time>
      </trkpt>
      <trkpt lat="43.030779" lon="-1.807317">
        <ele>714.6</ele>
        <time>2026-03-01T12:33:54Z</time>
      </trkpt>
      <trkpt lat="43.030752" lon="-1.807304">
        <ele>714.6</ele>
        <time>2026-03-01T12:33:58Z</time>
      </trkpt>
      <trkpt lat="43.030748" lon="-1.807322">
        <ele>714.4</ele>
        <time>2026-03-01T12:34:00Z</time>
      </trkpt>
      <trkpt lat="43.030747" lon="-1.807334">
        <ele>714.2</ele>
        <time>2026-03-01T12:34:02Z</time>
      </trkpt>
      <trkpt lat="43.030780" lon="-1.807380">
        <ele>714.0</ele>
        <time>2026-03-01T12:34:07Z</time>
      </trkpt>
      <trkpt lat="43.030781" lon="-1.807419">
        <ele>713.0</ele>
        <time>2026-03-01T12:34:13Z</time>
      </trkpt>
      <trkpt lat="43.030779" lon="-1.807413">
        <ele>713.0</ele>
        <time>2026-03-01T12:34:15Z</time>
      </trkpt>
      <trkpt lat="43.030778" lon="-1.807367">
        <ele>713.2</ele>
        <time>2026-03-01T12:34:18Z</time>
      </trkpt>
      <trkpt lat="43.030777" lon="-1.807349">
        <ele>713.4</ele>
        <time>2026-03-01T12:34:19Z</time>
      </trkpt>
      <trkpt lat="43.030779" lon="-1.807345">
        <ele>713.6</ele>
        <time>2026-03-01T12:34:20Z</time>
      </trkpt>
      <trkpt lat="43.030780" lon="-1.807345">
        <ele>713.8</ele>
        <time>2026-03-01T12:34:21Z</time>
      </trkpt>
      <trkpt lat="43.030781" lon="-1.807346">
        <ele>714.0</ele>
        <time>2026-03-01T12:34:22Z</time>
      </trkpt>
      <trkpt lat="43.030764" lon="-1.807358">
        <ele>713.0</ele>
        <time>2026-03-01T12:34:29Z</time>
      </trkpt>
      <trkpt lat="43.030753" lon="-1.807391">
        <ele>713.4</ele>
        <time>2026-03-01T12:34:35Z</time>
      </trkpt>
      <trkpt lat="43.030757" lon="-1.807402">
        <ele>713.4</ele>
        <time>2026-03-01T12:34:37Z</time>
      </trkpt>
      <trkpt lat="43.030757" lon="-1.807420">
        <ele>713.4</ele>
        <time>2026-03-01T12:34:42Z</time>
      </trkpt>
      <trkpt lat="43.030753" lon="-1.807425">
        <ele>713.4</ele>
        <time>2026-03-01T12:34:46Z</time>
      </trkpt>
      <trkpt lat="43.030737" lon="-1.807426">
        <ele>713.4</ele>
        <time>2026-03-01T12:34:57Z</time>
      </trkpt>
      <trkpt lat="43.030721" lon="-1.807450">
        <ele>713.4</ele>
        <time>2026-03-01T12:35:03Z</time>
      </trkpt>
      <trkpt lat="43.030733" lon="-1.807516">
        <ele>713.4</ele>
        <time>2026-03-01T12:35:06Z</time>
      </trkpt>
      <trkpt lat="43.030745" lon="-1.807595">
        <ele>713.0</ele>
        <time>2026-03-01T12:35:08Z</time>
      </trkpt>
      <trkpt lat="43.030747" lon="-1.807640">
        <ele>712.8</ele>
        <time>2026-03-01T12:35:09Z</time>
      </trkpt>
      <trkpt lat="43.030716" lon="-1.807783">
        <ele>712.2</ele>
        <time>2026-03-01T12:35:12Z</time>
      </trkpt>
      <trkpt lat="43.030604" lon="-1.807804">
        <ele>712.2</ele>
        <time>2026-03-01T12:35:16Z</time>
      </trkpt>
      <trkpt lat="43.030470" lon="-1.807829">
        <ele>712.8</ele>
        <time>2026-03-01T12:35:20Z</time>
      </trkpt>
      <trkpt lat="43.030388" lon="-1.807884">
        <ele>713.4</ele>
        <time>2026-03-01T12:35:23Z</time>
      </trkpt>
      <trkpt lat="43.030335" lon="-1.808074">
        <ele>713.2</ele>
        <time>2026-03-01T12:35:27Z</time>
      </trkpt>
      <trkpt lat="43.030335" lon="-1.808130">
        <ele>711.8</ele>
        <time>2026-03-01T12:35:28Z</time>
      </trkpt>
      <trkpt lat="43.030345" lon="-1.808196">
        <ele>711.0</ele>
        <time>2026-03-01T12:35:29Z</time>
      </trkpt>
      <trkpt lat="43.030344" lon="-1.808267">
        <ele>710.6</ele>
        <time>2026-03-01T12:35:30Z</time>
      </trkpt>
      <trkpt lat="43.030319" lon="-1.808354">
        <ele>710.2</ele>
        <time>2026-03-01T12:35:31Z</time>
      </trkpt>
      <trkpt lat="43.030271" lon="-1.808425">
        <ele>709.4</ele>
        <time>2026-03-01T12:35:33Z</time>
      </trkpt>
      <trkpt lat="43.030260" lon="-1.808428">
        <ele>708.8</ele>
        <time>2026-03-01T12:35:34Z</time>
      </trkpt>
      <trkpt lat="43.030203" lon="-1.808438">
        <ele>708.2</ele>
        <time>2026-03-01T12:35:36Z</time>
      </trkpt>
      <trkpt lat="43.030163" lon="-1.808460">
        <ele>708.2</ele>
        <time>2026-03-01T12:35:37Z</time>
      </trkpt>
      <trkpt lat="43.030118" lon="-1.808495">
        <ele>708.0</ele>
        <time>2026-03-01T12:35:38Z</time>
      </trkpt>
      <trkpt lat="43.030018" lon="-1.808562">
        <ele>707.4</ele>
        <time>2026-03-01T12:35:40Z</time>
      </trkpt>
      <trkpt lat="43.029975" lon="-1.808598">
        <ele>707.2</ele>
        <time>2026-03-01T12:35:41Z</time>
      </trkpt>
      <trkpt lat="43.029907" lon="-1.808667">
        <ele>707.0</ele>
        <time>2026-03-01T12:35:43Z</time>
      </trkpt>
      <trkpt lat="43.029799" lon="-1.808737">
        <ele>706.2</ele>
        <time>2026-03-01T12:35:46Z</time>
      </trkpt>
      <trkpt lat="43.029666" lon="-1.808785">
        <ele>705.8</ele>
        <time>2026-03-01T12:35:49Z</time>
      </trkpt>
      <trkpt lat="43.029634" lon="-1.808796">
        <ele>706.0</ele>
        <time>2026-03-01T12:35:50Z</time>
      </trkpt>
      <trkpt lat="43.029563" lon="-1.808868">
        <ele>705.8</ele>
        <time>2026-03-01T12:35:53Z</time>
      </trkpt>
      <trkpt lat="43.029517" lon="-1.808935">
        <ele>705.6</ele>
        <time>2026-03-01T12:35:55Z</time>
      </trkpt>
      <trkpt lat="43.029517" lon="-1.808993">
        <ele>705.0</ele>
        <time>2026-03-01T12:35:56Z</time>
      </trkpt>
      <trkpt lat="43.029517" lon="-1.809053">
        <ele>704.4</ele>
        <time>2026-03-01T12:35:57Z</time>
      </trkpt>
      <trkpt lat="43.029454" lon="-1.809200">
        <ele>704.0</ele>
        <time>2026-03-01T12:36:00Z</time>
      </trkpt>
      <trkpt lat="43.029430" lon="-1.809234">
        <ele>704.0</ele>
        <time>2026-03-01T12:36:01Z</time>
      </trkpt>
      <trkpt lat="43.029377" lon="-1.809420">
        <ele>704.0</ele>
        <time>2026-03-01T12:36:05Z</time>
      </trkpt>
      <trkpt lat="43.029365" lon="-1.809495">
        <ele>703.8</ele>
        <time>2026-03-01T12:36:06Z</time>
      </trkpt>
      <trkpt lat="43.029357" lon="-1.809579">
        <ele>703.6</ele>
        <time>2026-03-01T12:36:07Z</time>
      </trkpt>
      <trkpt lat="43.029345" lon="-1.809747">
        <ele>702.8</ele>
        <time>2026-03-01T12:36:10Z</time>
      </trkpt>
      <trkpt lat="43.029310" lon="-1.809825">
        <ele>701.8</ele>
        <time>2026-03-01T12:36:13Z</time>
      </trkpt>
      <trkpt lat="43.029301" lon="-1.809835">
        <ele>701.6</ele>
        <time>2026-03-01T12:36:14Z</time>
      </trkpt>
      <trkpt lat="43.029298" lon="-1.809764">
        <ele>701.4</ele>
        <time>2026-03-01T12:36:18Z</time>
      </trkpt>
      <trkpt lat="43.029291" lon="-1.809754">
        <ele>701.4</ele>
        <time>2026-03-01T12:36:19Z</time>
      </trkpt>
      <trkpt lat="43.029278" lon="-1.809728">
        <ele>701.8</ele>
        <time>2026-03-01T12:36:25Z</time>
      </trkpt>
      <trkpt lat="43.029253" lon="-1.809734">
        <ele>702.0</ele>
        <time>2026-03-01T12:36:27Z</time>
      </trkpt>
      <trkpt lat="43.029222" lon="-1.809711">
        <ele>702.0</ele>
        <time>2026-03-01T12:36:30Z</time>
      </trkpt>
      <trkpt lat="43.029136" lon="-1.809660">
        <ele>702.0</ele>
        <time>2026-03-01T12:36:36Z</time>
      </trkpt>
      <trkpt lat="43.029114" lon="-1.809650">
        <ele>702.0</ele>
        <time>2026-03-01T12:36:37Z</time>
      </trkpt>
      <trkpt lat="43.028994" lon="-1.809500">
        <ele>701.8</ele>
        <time>2026-03-01T12:36:43Z</time>
      </trkpt>
      <trkpt lat="43.028895" lon="-1.809342">
        <ele>701.6</ele>
        <time>2026-03-01T12:36:47Z</time>
      </trkpt>
      <trkpt lat="43.028839" lon="-1.809306">
        <ele>702.4</ele>
        <time>2026-03-01T12:36:50Z</time>
      </trkpt>
      <trkpt lat="43.028822" lon="-1.809308">
        <ele>702.8</ele>
        <time>2026-03-01T12:36:51Z</time>
      </trkpt>
      <trkpt lat="43.028810" lon="-1.809311">
        <ele>703.0</ele>
        <time>2026-03-01T12:36:52Z</time>
      </trkpt>
      <trkpt lat="43.028776" lon="-1.809308">
        <ele>703.8</ele>
        <time>2026-03-01T12:36:54Z</time>
      </trkpt>
      <trkpt lat="43.028767" lon="-1.809318">
        <ele>704.0</ele>
        <time>2026-03-01T12:36:55Z</time>
      </trkpt>
      <trkpt lat="43.028766" lon="-1.809341">
        <ele>705.0</ele>
        <time>2026-03-01T12:36:57Z</time>
      </trkpt>
      <trkpt lat="43.028770" lon="-1.809386">
        <ele>706.0</ele>
        <time>2026-03-01T12:37:01Z</time>
      </trkpt>
      <trkpt lat="43.028777" lon="-1.809414">
        <ele>706.4</ele>
        <time>2026-03-01T12:37:04Z</time>
      </trkpt>
      <trkpt lat="43.028792" lon="-1.809481">
        <ele>706.2</ele>
        <time>2026-03-01T12:37:07Z</time>
      </trkpt>
      <trkpt lat="43.028822" lon="-1.809506">
        <ele>706.2</ele>
        <time>2026-03-01T12:37:09Z</time>
      </trkpt>
      <trkpt lat="43.028858" lon="-1.809562">
        <ele>706.2</ele>
        <time>2026-03-01T12:37:14Z</time>
      </trkpt>
      <trkpt lat="43.028848" lon="-1.809567">
        <ele>706.2</ele>
        <time>2026-03-01T12:37:15Z</time>
      </trkpt>
      <trkpt lat="43.028813" lon="-1.809561">
        <ele>707.0</ele>
        <time>2026-03-01T12:37:18Z</time>
      </trkpt>
      <trkpt lat="43.028782" lon="-1.809540">
        <ele>707.2</ele>
        <time>2026-03-01T12:37:20Z</time>
      </trkpt>
      <trkpt lat="43.028729" lon="-1.809485">
        <ele>707.8</ele>
        <time>2026-03-01T12:37:24Z</time>
      </trkpt>
      <trkpt lat="43.028717" lon="-1.809492">
        <ele>708.0</ele>
        <time>2026-03-01T12:37:25Z</time>
      </trkpt>
      <trkpt lat="43.028715" lon="-1.809503">
        <ele>708.4</ele>
        <time>2026-03-01T12:37:26Z</time>
      </trkpt>
      <trkpt lat="43.028721" lon="-1.809523">
        <ele>709.8</ele>
        <time>2026-03-01T12:37:28Z</time>
      </trkpt>
      <trkpt lat="43.028730" lon="-1.809544">
        <ele>710.2</ele>
        <time>2026-03-01T12:37:30Z</time>
      </trkpt>
      <trkpt lat="43.028736" lon="-1.809557">
        <ele>710.4</ele>
        <time>2026-03-01T12:37:31Z</time>
      </trkpt>
      <trkpt lat="43.028747" lon="-1.809594">
        <ele>710.8</ele>
        <time>2026-03-01T12:37:33Z</time>
      </trkpt>
      <trkpt lat="43.028763" lon="-1.809624">
        <ele>710.8</ele>
        <time>2026-03-01T12:37:35Z</time>
      </trkpt>
      <trkpt lat="43.028770" lon="-1.809633">
        <ele>711.0</ele>
        <time>2026-03-01T12:37:36Z</time>
      </trkpt>
      <trkpt lat="43.028787" lon="-1.809689">
        <ele>711.6</ele>
        <time>2026-03-01T12:37:40Z</time>
      </trkpt>
      <trkpt lat="43.028801" lon="-1.809723">
        <ele>712.0</ele>
        <time>2026-03-01T12:37:42Z</time>
      </trkpt>
      <trkpt lat="43.028821" lon="-1.809741">
        <ele>712.0</ele>
        <time>2026-03-01T12:37:43Z</time>
      </trkpt>
      <trkpt lat="43.028834" lon="-1.809777">
        <ele>712.6</ele>
        <time>2026-03-01T12:37:45Z</time>
      </trkpt>
      <trkpt lat="43.028826" lon="-1.809778">
        <ele>712.8</ele>
        <time>2026-03-01T12:37:47Z</time>
      </trkpt>
      <trkpt lat="43.028815" lon="-1.809776">
        <ele>713.2</ele>
        <time>2026-03-01T12:37:48Z</time>
      </trkpt>
      <trkpt lat="43.028778" lon="-1.809770">
        <ele>714.4</ele>
        <time>2026-03-01T12:37:54Z</time>
      </trkpt>
      <trkpt lat="43.028736" lon="-1.809757">
        <ele>714.6</ele>
        <time>2026-03-01T12:37:57Z</time>
      </trkpt>
      <trkpt lat="43.028718" lon="-1.809778">
        <ele>714.8</ele>
        <time>2026-03-01T12:37:59Z</time>
      </trkpt>
      <trkpt lat="43.028719" lon="-1.809788">
        <ele>715.4</ele>
        <time>2026-03-01T12:38:00Z</time>
      </trkpt>
      <trkpt lat="43.028737" lon="-1.809804">
        <ele>716.6</ele>
        <time>2026-03-01T12:38:03Z</time>
      </trkpt>
      <trkpt lat="43.028744" lon="-1.809816">
        <ele>716.6</ele>
        <time>2026-03-01T12:38:04Z</time>
      </trkpt>
      <trkpt lat="43.028802" lon="-1.809895">
        <ele>716.8</ele>
        <time>2026-03-01T12:38:10Z</time>
      </trkpt>
      <trkpt lat="43.028826" lon="-1.809953">
        <ele>717.6</ele>
        <time>2026-03-01T12:38:13Z</time>
      </trkpt>
      <trkpt lat="43.028834" lon="-1.809976">
        <ele>717.8</ele>
        <time>2026-03-01T12:38:14Z</time>
      </trkpt>
      <trkpt lat="43.028856" lon="-1.810015">
        <ele>718.0</ele>
        <time>2026-03-01T12:38:16Z</time>
      </trkpt>
      <trkpt lat="43.028926" lon="-1.810113">
        <ele>718.4</ele>
        <time>2026-03-01T12:38:22Z</time>
      </trkpt>
      <trkpt lat="43.028958" lon="-1.810152">
        <ele>718.4</ele>
        <time>2026-03-01T12:38:24Z</time>
      </trkpt>
      <trkpt lat="43.028980" lon="-1.810187">
        <ele>718.2</ele>
        <time>2026-03-01T12:38:26Z</time>
      </trkpt>
      <trkpt lat="43.028996" lon="-1.810226">
        <ele>718.2</ele>
        <time>2026-03-01T12:38:28Z</time>
      </trkpt>
      <trkpt lat="43.029019" lon="-1.810287">
        <ele>718.6</ele>
        <time>2026-03-01T12:38:31Z</time>
      </trkpt>
      <trkpt lat="43.029047" lon="-1.810336">
        <ele>719.4</ele>
        <time>2026-03-01T12:38:34Z</time>
      </trkpt>
      <trkpt lat="43.029080" lon="-1.810397">
        <ele>719.8</ele>
        <time>2026-03-01T12:38:38Z</time>
      </trkpt>
      <trkpt lat="43.029088" lon="-1.810397">
        <ele>720.0</ele>
        <time>2026-03-01T12:38:39Z</time>
      </trkpt>
      <trkpt lat="43.029069" lon="-1.810390">
        <ele>720.4</ele>
        <time>2026-03-01T12:38:45Z</time>
      </trkpt>
      <trkpt lat="43.029064" lon="-1.810380">
        <ele>720.8</ele>
        <time>2026-03-01T12:38:47Z</time>
      </trkpt>
      <trkpt lat="43.029059" lon="-1.810371">
        <ele>721.4</ele>
        <time>2026-03-01T12:38:52Z</time>
      </trkpt>
      <trkpt lat="43.029036" lon="-1.810343">
        <ele>721.6</ele>
        <time>2026-03-01T12:38:56Z</time>
      </trkpt>
      <trkpt lat="43.029005" lon="-1.810297">
        <ele>721.8</ele>
        <time>2026-03-01T12:38:59Z</time>
      </trkpt>
      <trkpt lat="43.028993" lon="-1.810282">
        <ele>722.0</ele>
        <time>2026-03-01T12:39:00Z</time>
      </trkpt>
      <trkpt lat="43.028976" lon="-1.810251">
        <ele>722.2</ele>
        <time>2026-03-01T12:39:02Z</time>
      </trkpt>
      <trkpt lat="43.028965" lon="-1.810240">
        <ele>722.4</ele>
        <time>2026-03-01T12:39:03Z</time>
      </trkpt>
      <trkpt lat="43.028931" lon="-1.810208">
        <ele>722.6</ele>
        <time>2026-03-01T12:39:06Z</time>
      </trkpt>
      <trkpt lat="43.028918" lon="-1.810196">
        <ele>722.8</ele>
        <time>2026-03-01T12:39:07Z</time>
      </trkpt>
      <trkpt lat="43.028868" lon="-1.810159">
        <ele>723.2</ele>
        <time>2026-03-01T12:39:11Z</time>
      </trkpt>
      <trkpt lat="43.028825" lon="-1.810155">
        <ele>723.8</ele>
        <time>2026-03-01T12:39:14Z</time>
      </trkpt>
      <trkpt lat="43.028794" lon="-1.810138">
        <ele>724.4</ele>
        <time>2026-03-01T12:39:17Z</time>
      </trkpt>
      <trkpt lat="43.028736" lon="-1.810106">
        <ele>725.2</ele>
        <time>2026-03-01T12:39:22Z</time>
      </trkpt>
      <trkpt lat="43.028719" lon="-1.810095">
        <ele>725.4</ele>
        <time>2026-03-01T12:39:23Z</time>
      </trkpt>
      <trkpt lat="43.028610" lon="-1.810047">
        <ele>726.4</ele>
        <time>2026-03-01T12:39:30Z</time>
      </trkpt>
      <trkpt lat="43.028622" lon="-1.810070">
        <ele>727.4</ele>
        <time>2026-03-01T12:39:33Z</time>
      </trkpt>
      <trkpt lat="43.028629" lon="-1.810073">
        <ele>728.0</ele>
        <time>2026-03-01T12:39:35Z</time>
      </trkpt>
      <trkpt lat="43.028665" lon="-1.810116">
        <ele>728.4</ele>
        <time>2026-03-01T12:39:39Z</time>
      </trkpt>
      <trkpt lat="43.028703" lon="-1.810152">
        <ele>728.8</ele>
        <time>2026-03-01T12:39:42Z</time>
      </trkpt>
      <trkpt lat="43.028773" lon="-1.810282">
        <ele>729.4</ele>
        <time>2026-03-01T12:39:49Z</time>
      </trkpt>
      <trkpt lat="43.028784" lon="-1.810295">
        <ele>729.4</ele>
        <time>2026-03-01T12:39:50Z</time>
      </trkpt>
      <trkpt lat="43.028810" lon="-1.810325">
        <ele>729.6</ele>
        <time>2026-03-01T12:39:52Z</time>
      </trkpt>
      <trkpt lat="43.028816" lon="-1.810368">
        <ele>729.8</ele>
        <time>2026-03-01T12:39:54Z</time>
      </trkpt>
      <trkpt lat="43.028823" lon="-1.810397">
        <ele>730.6</ele>
        <time>2026-03-01T12:39:56Z</time>
      </trkpt>
      <trkpt lat="43.028829" lon="-1.810431">
        <ele>731.8</ele>
        <time>2026-03-01T12:39:58Z</time>
      </trkpt>
      <trkpt lat="43.028845" lon="-1.810467">
        <ele>732.8</ele>
        <time>2026-03-01T12:40:00Z</time>
      </trkpt>
      <trkpt lat="43.028853" lon="-1.810481">
        <ele>733.0</ele>
        <time>2026-03-01T12:40:01Z</time>
      </trkpt>
      <trkpt lat="43.028877" lon="-1.810552">
        <ele>734.2</ele>
        <time>2026-03-01T12:40:05Z</time>
      </trkpt>
      <trkpt lat="43.028882" lon="-1.810573">
        <ele>734.6</ele>
        <time>2026-03-01T12:40:06Z</time>
      </trkpt>
      <trkpt lat="43.028886" lon="-1.810590">
        <ele>734.8</ele>
        <time>2026-03-01T12:40:07Z</time>
      </trkpt>
      <trkpt lat="43.028898" lon="-1.810630">
        <ele>735.0</ele>
        <time>2026-03-01T12:40:09Z</time>
      </trkpt>
      <trkpt lat="43.028902" lon="-1.810648">
        <ele>735.0</ele>
        <time>2026-03-01T12:40:10Z</time>
      </trkpt>
      <trkpt lat="43.028907" lon="-1.810695">
        <ele>735.2</ele>
        <time>2026-03-01T12:40:13Z</time>
      </trkpt>
      <trkpt lat="43.028903" lon="-1.810723">
        <ele>735.8</ele>
        <time>2026-03-01T12:40:15Z</time>
      </trkpt>
      <trkpt lat="43.028896" lon="-1.810733">
        <ele>736.4</ele>
        <time>2026-03-01T12:40:17Z</time>
      </trkpt>
      <trkpt lat="43.028865" lon="-1.810762">
        <ele>736.8</ele>
        <time>2026-03-01T12:40:23Z</time>
      </trkpt>
      <trkpt lat="43.028868" lon="-1.810748">
        <ele>737.4</ele>
        <time>2026-03-01T12:40:29Z</time>
      </trkpt>
      <trkpt lat="43.028868" lon="-1.810737">
        <ele>737.4</ele>
        <time>2026-03-01T12:40:30Z</time>
      </trkpt>
      <trkpt lat="43.028861" lon="-1.810717">
        <ele>737.4</ele>
        <time>2026-03-01T12:40:31Z</time>
      </trkpt>
      <trkpt lat="43.028824" lon="-1.810601">
        <ele>736.8</ele>
        <time>2026-03-01T12:40:36Z</time>
      </trkpt>
      <trkpt lat="43.028808" lon="-1.810578">
        <ele>736.8</ele>
        <time>2026-03-01T12:40:37Z</time>
      </trkpt>
      <trkpt lat="43.028752" lon="-1.810526">
        <ele>737.4</ele>
        <time>2026-03-01T12:40:43Z</time>
      </trkpt>
      <trkpt lat="43.028651" lon="-1.810473">
        <ele>737.8</ele>
        <time>2026-03-01T12:40:51Z</time>
      </trkpt>
      <trkpt lat="43.028633" lon="-1.810465">
        <ele>738.0</ele>
        <time>2026-03-01T12:40:52Z</time>
      </trkpt>
      <trkpt lat="43.028566" lon="-1.810430">
        <ele>738.4</ele>
        <time>2026-03-01T12:40:56Z</time>
      </trkpt>
      <trkpt lat="43.028510" lon="-1.810401">
        <ele>738.8</ele>
        <time>2026-03-01T12:40:59Z</time>
      </trkpt>
      <trkpt lat="43.028463" lon="-1.810393">
        <ele>739.6</ele>
        <time>2026-03-01T12:41:02Z</time>
      </trkpt>
      <trkpt lat="43.028446" lon="-1.810392">
        <ele>740.0</ele>
        <time>2026-03-01T12:41:03Z</time>
      </trkpt>
      <trkpt lat="43.028431" lon="-1.810409">
        <ele>740.2</ele>
        <time>2026-03-01T12:41:05Z</time>
      </trkpt>
      <trkpt lat="43.028436" lon="-1.810416">
        <ele>740.8</ele>
        <time>2026-03-01T12:41:06Z</time>
      </trkpt>
      <trkpt lat="43.028444" lon="-1.810417">
        <ele>741.4</ele>
        <time>2026-03-01T12:41:08Z</time>
      </trkpt>
      <trkpt lat="43.028463" lon="-1.810422">
        <ele>741.4</ele>
        <time>2026-03-01T12:41:10Z</time>
      </trkpt>
      <trkpt lat="43.028513" lon="-1.810458">
        <ele>740.8</ele>
        <time>2026-03-01T12:41:13Z</time>
      </trkpt>
      <trkpt lat="43.028562" lon="-1.810504">
        <ele>740.8</ele>
        <time>2026-03-01T12:41:16Z</time>
      </trkpt>
      <trkpt lat="43.028623" lon="-1.810560">
        <ele>741.8</ele>
        <time>2026-03-01T12:41:20Z</time>
      </trkpt>
      <trkpt lat="43.028666" lon="-1.810608">
        <ele>742.2</ele>
        <time>2026-03-01T12:41:23Z</time>
      </trkpt>
      <trkpt lat="43.028687" lon="-1.810642">
        <ele>742.4</ele>
        <time>2026-03-01T12:41:25Z</time>
      </trkpt>
      <trkpt lat="43.028693" lon="-1.810695">
        <ele>742.8</ele>
        <time>2026-03-01T12:41:29Z</time>
      </trkpt>
      <trkpt lat="43.028655" lon="-1.810643">
        <ele>743.8</ele>
        <time>2026-03-01T12:41:36Z</time>
      </trkpt>
      <trkpt lat="43.028589" lon="-1.810611">
        <ele>744.0</ele>
        <time>2026-03-01T12:41:42Z</time>
      </trkpt>
      <trkpt lat="43.028570" lon="-1.810614">
        <ele>744.0</ele>
        <time>2026-03-01T12:41:43Z</time>
      </trkpt>
      <trkpt lat="43.028520" lon="-1.810628">
        <ele>744.8</ele>
        <time>2026-03-01T12:41:47Z</time>
      </trkpt>
      <trkpt lat="43.028493" lon="-1.810627">
        <ele>745.0</ele>
        <time>2026-03-01T12:41:49Z</time>
      </trkpt>
      <trkpt lat="43.028371" lon="-1.810595">
        <ele>746.0</ele>
        <time>2026-03-01T12:41:57Z</time>
      </trkpt>
      <trkpt lat="43.028355" lon="-1.810593">
        <ele>746.2</ele>
        <time>2026-03-01T12:41:58Z</time>
      </trkpt>
      <trkpt lat="43.028299" lon="-1.810573">
        <ele>746.4</ele>
        <time>2026-03-01T12:42:01Z</time>
      </trkpt>
      <trkpt lat="43.028260" lon="-1.810565">
        <ele>746.8</ele>
        <time>2026-03-01T12:42:04Z</time>
      </trkpt>
      <trkpt lat="43.028229" lon="-1.810569">
        <ele>747.4</ele>
        <time>2026-03-01T12:42:06Z</time>
      </trkpt>
      <trkpt lat="43.028144" lon="-1.810578">
        <ele>747.8</ele>
        <time>2026-03-01T12:42:11Z</time>
      </trkpt>
      <trkpt lat="43.028131" lon="-1.810584">
        <ele>748.0</ele>
        <time>2026-03-01T12:42:12Z</time>
      </trkpt>
      <trkpt lat="43.028137" lon="-1.810595">
        <ele>748.4</ele>
        <time>2026-03-01T12:42:14Z</time>
      </trkpt>
      <trkpt lat="43.028144" lon="-1.810599">
        <ele>748.6</ele>
        <time>2026-03-01T12:42:15Z</time>
      </trkpt>
      <trkpt lat="43.028204" lon="-1.810640">
        <ele>749.4</ele>
        <time>2026-03-01T12:42:23Z</time>
      </trkpt>
      <trkpt lat="43.028260" lon="-1.810683">
        <ele>750.6</ele>
        <time>2026-03-01T12:42:29Z</time>
      </trkpt>
      <trkpt lat="43.028278" lon="-1.810699">
        <ele>751.0</ele>
        <time>2026-03-01T12:42:31Z</time>
      </trkpt>
      <trkpt lat="43.028332" lon="-1.810750">
        <ele>751.4</ele>
        <time>2026-03-01T12:42:35Z</time>
      </trkpt>
      <trkpt lat="43.028366" lon="-1.810786">
        <ele>751.6</ele>
        <time>2026-03-01T12:42:38Z</time>
      </trkpt>
      <trkpt lat="43.028385" lon="-1.810816">
        <ele>752.4</ele>
        <time>2026-03-01T12:42:41Z</time>
      </trkpt>
      <trkpt lat="43.028379" lon="-1.810820">
        <ele>752.6</ele>
        <time>2026-03-01T12:42:42Z</time>
      </trkpt>
      <trkpt lat="43.028353" lon="-1.810826">
        <ele>753.8</ele>
        <time>2026-03-01T12:42:46Z</time>
      </trkpt>
      <trkpt lat="43.028350" lon="-1.810834">
        <ele>754.0</ele>
        <time>2026-03-01T12:42:47Z</time>
      </trkpt>
      <trkpt lat="43.028326" lon="-1.810841">
        <ele>754.2</ele>
        <time>2026-03-01T12:42:50Z</time>
      </trkpt>
      <trkpt lat="43.028265" lon="-1.810861">
        <ele>754.6</ele>
        <time>2026-03-01T12:42:55Z</time>
      </trkpt>
      <trkpt lat="43.028254" lon="-1.810863">
        <ele>755.0</ele>
        <time>2026-03-01T12:42:56Z</time>
      </trkpt>
      <trkpt lat="43.028200" lon="-1.810869">
        <ele>755.6</ele>
        <time>2026-03-01T12:43:00Z</time>
      </trkpt>
      <trkpt lat="43.028195" lon="-1.810900">
        <ele>756.2</ele>
        <time>2026-03-01T12:43:03Z</time>
      </trkpt>
      <trkpt lat="43.028204" lon="-1.810901">
        <ele>756.8</ele>
        <time>2026-03-01T12:43:04Z</time>
      </trkpt>
      <trkpt lat="43.028223" lon="-1.810914">
        <ele>757.4</ele>
        <time>2026-03-01T12:43:06Z</time>
      </trkpt>
      <trkpt lat="43.028257" lon="-1.810933">
        <ele>757.6</ele>
        <time>2026-03-01T12:43:09Z</time>
      </trkpt>
      <trkpt lat="43.028299" lon="-1.810979">
        <ele>758.2</ele>
        <time>2026-03-01T12:43:14Z</time>
      </trkpt>
      <trkpt lat="43.028300" lon="-1.810992">
        <ele>758.6</ele>
        <time>2026-03-01T12:43:15Z</time>
      </trkpt>
      <trkpt lat="43.028294" lon="-1.811005">
        <ele>758.8</ele>
        <time>2026-03-01T12:43:16Z</time>
      </trkpt>
      <trkpt lat="43.028244" lon="-1.811030">
        <ele>759.8</ele>
        <time>2026-03-01T12:43:20Z</time>
      </trkpt>
      <trkpt lat="43.028205" lon="-1.811048">
        <ele>760.4</ele>
        <time>2026-03-01T12:43:23Z</time>
      </trkpt>
      <trkpt lat="43.028194" lon="-1.811051">
        <ele>760.8</ele>
        <time>2026-03-01T12:43:24Z</time>
      </trkpt>
      <trkpt lat="43.028141" lon="-1.811069">
        <ele>762.0</ele>
        <time>2026-03-01T12:43:29Z</time>
      </trkpt>
      <trkpt lat="43.028118" lon="-1.811081">
        <ele>762.6</ele>
        <time>2026-03-01T12:43:31Z</time>
      </trkpt>
      <trkpt lat="43.028082" lon="-1.811098">
        <ele>763.2</ele>
        <time>2026-03-01T12:43:34Z</time>
      </trkpt>
      <trkpt lat="43.028034" lon="-1.811148">
        <ele>763.8</ele>
        <time>2026-03-01T12:43:39Z</time>
      </trkpt>
      <trkpt lat="43.028027" lon="-1.811162">
        <ele>764.0</ele>
        <time>2026-03-01T12:43:40Z</time>
      </trkpt>
      <trkpt lat="43.028018" lon="-1.811193">
        <ele>764.6</ele>
        <time>2026-03-01T12:43:42Z</time>
      </trkpt>
      <trkpt lat="43.028012" lon="-1.811222">
        <ele>765.4</ele>
        <time>2026-03-01T12:43:44Z</time>
      </trkpt>
      <trkpt lat="43.028007" lon="-1.811238">
        <ele>765.6</ele>
        <time>2026-03-01T12:43:45Z</time>
      </trkpt>
      <trkpt lat="43.027990" lon="-1.811323">
        <ele>766.8</ele>
        <time>2026-03-01T12:43:51Z</time>
      </trkpt>
      <trkpt lat="43.027949" lon="-1.811396">
        <ele>767.6</ele>
        <time>2026-03-01T12:43:57Z</time>
      </trkpt>
      <trkpt lat="43.027942" lon="-1.811408">
        <ele>768.0</ele>
        <time>2026-03-01T12:43:58Z</time>
      </trkpt>
      <trkpt lat="43.027916" lon="-1.811466">
        <ele>769.0</ele>
        <time>2026-03-01T12:44:02Z</time>
      </trkpt>
      <trkpt lat="43.027908" lon="-1.811478">
        <ele>769.0</ele>
        <time>2026-03-01T12:44:03Z</time>
      </trkpt>
      <trkpt lat="43.027900" lon="-1.811486">
        <ele>769.2</ele>
        <time>2026-03-01T12:44:04Z</time>
      </trkpt>
      <trkpt lat="43.027877" lon="-1.811506">
        <ele>769.4</ele>
        <time>2026-03-01T12:44:06Z</time>
      </trkpt>
      <trkpt lat="43.027850" lon="-1.811540">
        <ele>770.0</ele>
        <time>2026-03-01T12:44:09Z</time>
      </trkpt>
      <trkpt lat="43.027831" lon="-1.811618">
        <ele>770.8</ele>
        <time>2026-03-01T12:44:14Z</time>
      </trkpt>
      <trkpt lat="43.027826" lon="-1.811645">
        <ele>771.0</ele>
        <time>2026-03-01T12:44:16Z</time>
      </trkpt>
      <trkpt lat="43.027806" lon="-1.811704">
        <ele>771.8</ele>
        <time>2026-03-01T12:44:21Z</time>
      </trkpt>
      <trkpt lat="43.027788" lon="-1.811738">
        <ele>772.2</ele>
        <time>2026-03-01T12:44:25Z</time>
      </trkpt>
      <trkpt lat="43.027768" lon="-1.811775">
        <ele>773.0</ele>
        <time>2026-03-01T12:44:28Z</time>
      </trkpt>
      <trkpt lat="43.027764" lon="-1.811784">
        <ele>773.4</ele>
        <time>2026-03-01T12:44:29Z</time>
      </trkpt>
      <trkpt lat="43.027760" lon="-1.811797">
        <ele>773.6</ele>
        <time>2026-03-01T12:44:30Z</time>
      </trkpt>
      <trkpt lat="43.027750" lon="-1.811822">
        <ele>774.4</ele>
        <time>2026-03-01T12:44:33Z</time>
      </trkpt>
      <trkpt lat="43.027740" lon="-1.811832">
        <ele>774.6</ele>
        <time>2026-03-01T12:44:35Z</time>
      </trkpt>
      <trkpt lat="43.027726" lon="-1.811867">
        <ele>775.0</ele>
        <time>2026-03-01T12:44:45Z</time>
      </trkpt>
      <trkpt lat="43.027712" lon="-1.811855">
        <ele>775.2</ele>
        <time>2026-03-01T12:44:55Z</time>
      </trkpt>
      <trkpt lat="43.027709" lon="-1.811869">
        <ele>775.2</ele>
        <time>2026-03-01T12:45:03Z</time>
      </trkpt>
      <trkpt lat="43.027714" lon="-1.811866">
        <ele>775.2</ele>
        <time>2026-03-01T12:45:05Z</time>
      </trkpt>
      <trkpt lat="43.027728" lon="-1.811876">
        <ele>775.2</ele>
        <time>2026-03-01T12:45:11Z</time>
      </trkpt>
      <trkpt lat="43.027733" lon="-1.811874">
        <ele>775.2</ele>
        <time>2026-03-01T12:45:13Z</time>
      </trkpt>
      <trkpt lat="43.027735" lon="-1.811879">
        <ele>775.4</ele>
        <time>2026-03-01T12:45:17Z</time>
      </trkpt>
      <trkpt lat="43.027730" lon="-1.811875">
        <ele>775.4</ele>
        <time>2026-03-01T12:45:20Z</time>
      </trkpt>
      <trkpt lat="43.027732" lon="-1.811878">
        <ele>775.4</ele>
        <time>2026-03-01T12:45:23Z</time>
      </trkpt>
      <trkpt lat="43.027729" lon="-1.811886">
        <ele>775.4</ele>
        <time>2026-03-01T12:45:27Z</time>
      </trkpt>
      <trkpt lat="43.027728" lon="-1.811897">
        <ele>775.6</ele>
        <time>2026-03-01T12:45:28Z</time>
      </trkpt>
      <trkpt lat="43.027725" lon="-1.811909">
        <ele>775.6</ele>
        <time>2026-03-01T12:45:29Z</time>
      </trkpt>
      <trkpt lat="43.027705" lon="-1.811935">
        <ele>776.0</ele>
        <time>2026-03-01T12:45:33Z</time>
      </trkpt>
      <trkpt lat="43.027710" lon="-1.811917">
        <ele>776.4</ele>
        <time>2026-03-01T12:45:36Z</time>
      </trkpt>
      <trkpt lat="43.027715" lon="-1.811905">
        <ele>776.4</ele>
        <time>2026-03-01T12:45:37Z</time>
      </trkpt>
      <trkpt lat="43.027724" lon="-1.811885">
        <ele>776.2</ele>
        <time>2026-03-01T12:45:39Z</time>
      </trkpt>
      <trkpt lat="43.027747" lon="-1.811870">
        <ele>775.2</ele>
        <time>2026-03-01T12:45:45Z</time>
      </trkpt>
      <trkpt lat="43.027748" lon="-1.811869">
        <ele>775.2</ele>
        <time>2026-03-01T12:45:46Z</time>
      </trkpt>
      <trkpt lat="43.027744" lon="-1.811872">
        <ele>775.2</ele>
        <time>2026-03-01T12:45:48Z</time>
      </trkpt>
      <trkpt lat="43.027736" lon="-1.811896">
        <ele>775.8</ele>
        <time>2026-03-01T12:45:52Z</time>
      </trkpt>
      <trkpt lat="43.027731" lon="-1.811919">
        <ele>776.2</ele>
        <time>2026-03-01T12:45:55Z</time>
      </trkpt>
      <trkpt lat="43.027724" lon="-1.811924">
        <ele>776.4</ele>
        <time>2026-03-01T12:45:57Z</time>
      </trkpt>
      <trkpt lat="43.027722" lon="-1.811921">
        <ele>776.6</ele>
        <time>2026-03-01T12:45:58Z</time>
      </trkpt>
      <trkpt lat="43.027716" lon="-1.811890">
        <ele>776.4</ele>
        <time>2026-03-01T12:46:06Z</time>
      </trkpt>
      <trkpt lat="43.027685" lon="-1.811902">
        <ele>776.6</ele>
        <time>2026-03-01T12:46:14Z</time>
      </trkpt>
      <trkpt lat="43.027700" lon="-1.811918">
        <ele>776.6</ele>
        <time>2026-03-01T12:46:17Z</time>
      </trkpt>
      <trkpt lat="43.027708" lon="-1.811914">
        <ele>776.4</ele>
        <time>2026-03-01T12:46:24Z</time>
      </trkpt>
      <trkpt lat="43.027708" lon="-1.811915">
        <ele>776.4</ele>
        <time>2026-03-01T12:46:26Z</time>
      </trkpt>
      <trkpt lat="43.027708" lon="-1.811916">
        <ele>776.4</ele>
        <time>2026-03-01T12:46:27Z</time>
      </trkpt>
      <trkpt lat="43.027710" lon="-1.811920">
        <ele>776.6</ele>
        <time>2026-03-01T12:46:29Z</time>
      </trkpt>
      <trkpt lat="43.027703" lon="-1.811911">
        <ele>776.4</ele>
        <time>2026-03-01T12:46:33Z</time>
      </trkpt>
      <trkpt lat="43.027701" lon="-1.811903">
        <ele>776.4</ele>
        <time>2026-03-01T12:46:35Z</time>
      </trkpt>
      <trkpt lat="43.027699" lon="-1.811899">
        <ele>776.0</ele>
        <time>2026-03-01T12:46:43Z</time>
      </trkpt>
      <trkpt lat="43.027699" lon="-1.811899">
        <ele>776.0</ele>
        <time>2026-03-01T12:46:44Z</time>
      </trkpt>
      <trkpt lat="43.027696" lon="-1.811892">
        <ele>776.2</ele>
        <time>2026-03-01T12:46:51Z</time>
      </trkpt>
      <trkpt lat="43.027699" lon="-1.811888">
        <ele>776.4</ele>
        <time>2026-03-01T12:46:53Z</time>
      </trkpt>
      <trkpt lat="43.027701" lon="-1.811886">
        <ele>776.8</ele>
        <time>2026-03-01T12:47:02Z</time>
      </trkpt>
      <trkpt lat="43.027702" lon="-1.811887">
        <ele>776.6</ele>
        <time>2026-03-01T12:47:03Z</time>
      </trkpt>
      <trkpt lat="43.027705" lon="-1.811886">
        <ele>776.6</ele>
        <time>2026-03-01T12:47:05Z</time>
      </trkpt>
      <trkpt lat="43.027715" lon="-1.811885">
        <ele>777.0</ele>
        <time>2026-03-01T12:47:16Z</time>
      </trkpt>
      <trkpt lat="43.027715" lon="-1.811890">
        <ele>776.8</ele>
        <time>2026-03-01T12:47:26Z</time>
      </trkpt>
      <trkpt lat="43.027711" lon="-1.811888">
        <ele>776.8</ele>
        <time>2026-03-01T12:47:28Z</time>
      </trkpt>
      <trkpt lat="43.027710" lon="-1.811911">
        <ele>776.6</ele>
        <time>2026-03-01T12:47:37Z</time>
      </trkpt>
      <trkpt lat="43.027695" lon="-1.811885">
        <ele>776.4</ele>
        <time>2026-03-01T12:47:45Z</time>
      </trkpt>
      <trkpt lat="43.027698" lon="-1.811895">
        <ele>776.6</ele>
        <time>2026-03-01T12:47:54Z</time>
      </trkpt>
      <trkpt lat="43.027700" lon="-1.811895">
        <ele>776.6</ele>
        <time>2026-03-01T12:47:56Z</time>
      </trkpt>
      <trkpt lat="43.027722" lon="-1.811896">
        <ele>777.4</ele>
        <time>2026-03-01T12:48:05Z</time>
      </trkpt>
      <trkpt lat="43.027722" lon="-1.811895">
        <ele>777.4</ele>
        <time>2026-03-01T12:48:06Z</time>
      </trkpt>
      <trkpt lat="43.027723" lon="-1.811894">
        <ele>777.4</ele>
        <time>2026-03-01T12:48:07Z</time>
      </trkpt>
      <trkpt lat="43.027730" lon="-1.811898">
        <ele>777.0</ele>
        <time>2026-03-01T12:48:15Z</time>
      </trkpt>
      <trkpt lat="43.027721" lon="-1.811919">
        <ele>777.0</ele>
        <time>2026-03-01T12:48:24Z</time>
      </trkpt>
      <trkpt lat="43.027721" lon="-1.811910">
        <ele>777.0</ele>
        <time>2026-03-01T12:48:35Z</time>
      </trkpt>
      <trkpt lat="43.027719" lon="-1.811911">
        <ele>777.2</ele>
        <time>2026-03-01T12:48:45Z</time>
      </trkpt>
      <trkpt lat="43.027718" lon="-1.811913">
        <ele>777.0</ele>
        <time>2026-03-01T12:48:50Z</time>
      </trkpt>
      <trkpt lat="43.027718" lon="-1.811918">
        <ele>777.0</ele>
        <time>2026-03-01T12:49:00Z</time>
      </trkpt>
      <trkpt lat="43.027720" lon="-1.811917">
        <ele>776.8</ele>
        <time>2026-03-01T12:49:03Z</time>
      </trkpt>
      <trkpt lat="43.027720" lon="-1.811918">
        <ele>777.0</ele>
        <time>2026-03-01T12:49:11Z</time>
      </trkpt>
      <trkpt lat="43.027719" lon="-1.811921">
        <ele>777.0</ele>
        <time>2026-03-01T12:49:20Z</time>
      </trkpt>
      <trkpt lat="43.027719" lon="-1.811922">
        <ele>777.0</ele>
        <time>2026-03-01T12:49:22Z</time>
      </trkpt>
      <trkpt lat="43.027721" lon="-1.811922">
        <ele>777.0</ele>
        <time>2026-03-01T12:49:29Z</time>
      </trkpt>
      <trkpt lat="43.027721" lon="-1.811921">
        <ele>777.0</ele>
        <time>2026-03-01T12:49:34Z</time>
      </trkpt>
      <trkpt lat="43.027722" lon="-1.811921">
        <ele>777.0</ele>
        <time>2026-03-01T12:49:36Z</time>
      </trkpt>
      <trkpt lat="43.027723" lon="-1.811919">
        <ele>773.2</ele>
        <time>2026-03-01T12:49:39Z</time>
      </trkpt>
      <trkpt lat="43.027724" lon="-1.811917">
        <ele>775.2</ele>
        <time>2026-03-01T12:49:43Z</time>
      </trkpt>
      <trkpt lat="43.027726" lon="-1.811915">
        <ele>776.6</ele>
        <time>2026-03-01T12:49:45Z</time>
      </trkpt>
      <trkpt lat="43.027726" lon="-1.811914">
        <ele>777.0</ele>
        <time>2026-03-01T12:49:48Z</time>
      </trkpt>
      <trkpt lat="43.027730" lon="-1.811912">
        <ele>777.2</ele>
        <time>2026-03-01T12:49:59Z</time>
      </trkpt>
      <trkpt lat="43.027746" lon="-1.811911">
        <ele>777.2</ele>
        <time>2026-03-01T12:50:08Z</time>
      </trkpt>
      <trkpt lat="43.027745" lon="-1.811912">
        <ele>777.2</ele>
        <time>2026-03-01T12:50:09Z</time>
      </trkpt>
      <trkpt lat="43.027746" lon="-1.811924">
        <ele>777.2</ele>
        <time>2026-03-01T12:50:15Z</time>
      </trkpt>
      <trkpt lat="43.027746" lon="-1.811926">
        <ele>777.2</ele>
        <time>2026-03-01T12:50:16Z</time>
      </trkpt>
      <trkpt lat="43.027747" lon="-1.811928">
        <ele>777.2</ele>
        <time>2026-03-01T12:50:17Z</time>
      </trkpt>
      <trkpt lat="43.027748" lon="-1.811931">
        <ele>777.2</ele>
        <time>2026-03-01T12:50:18Z</time>
      </trkpt>
      <trkpt lat="43.027751" lon="-1.811934">
        <ele>777.2</ele>
        <time>2026-03-01T12:50:19Z</time>
      </trkpt>
      <trkpt lat="43.027753" lon="-1.811962">
        <ele>777.2</ele>
        <time>2026-03-01T12:50:27Z</time>
      </trkpt>
      <trkpt lat="43.027754" lon="-1.811963">
        <ele>777.2</ele>
        <time>2026-03-01T12:50:28Z</time>
      </trkpt>
      <trkpt lat="43.027753" lon="-1.811965">
        <ele>777.2</ele>
        <time>2026-03-01T12:50:30Z</time>
      </trkpt>
      <trkpt lat="43.027752" lon="-1.811965">
        <ele>777.2</ele>
        <time>2026-03-01T12:50:31Z</time>
      </trkpt>
      <trkpt lat="43.027751" lon="-1.811965">
        <ele>777.2</ele>
        <time>2026-03-01T12:50:40Z</time>
      </trkpt>
      <trkpt lat="43.027749" lon="-1.811968">
        <ele>777.2</ele>
        <time>2026-03-01T12:50:50Z</time>
      </trkpt>
      <trkpt lat="43.027748" lon="-1.811969">
        <ele>777.2</ele>
        <time>2026-03-01T12:50:51Z</time>
      </trkpt>
      <trkpt lat="43.027742" lon="-1.811973">
        <ele>777.2</ele>
        <time>2026-03-01T12:50:54Z</time>
      </trkpt>
      <trkpt lat="43.027740" lon="-1.811973">
        <ele>777.2</ele>
        <time>2026-03-01T12:50:55Z</time>
      </trkpt>
      <trkpt lat="43.027736" lon="-1.811981">
        <ele>777.2</ele>
        <time>2026-03-01T12:51:05Z</time>
      </trkpt>
      <trkpt lat="43.027731" lon="-1.811986">
        <ele>777.2</ele>
        <time>2026-03-01T12:51:06Z</time>
      </trkpt>
      <trkpt lat="43.027698" lon="-1.812040">
        <ele>777.2</ele>
        <time>2026-03-01T12:51:14Z</time>
      </trkpt>
      <trkpt lat="43.027572" lon="-1.812068">
        <ele>777.0</ele>
        <time>2026-03-01T12:51:20Z</time>
      </trkpt>
      <trkpt lat="43.027497" lon="-1.812106">
        <ele>776.8</ele>
        <time>2026-03-01T12:51:22Z</time>
      </trkpt>
      <trkpt lat="43.027440" lon="-1.812137">
        <ele>775.2</ele>
        <time>2026-03-01T12:51:23Z</time>
      </trkpt>
      <trkpt lat="43.027307" lon="-1.812221">
        <ele>771.4</ele>
        <time>2026-03-01T12:51:25Z</time>
      </trkpt>
      <trkpt lat="43.027230" lon="-1.812250">
        <ele>769.4</ele>
        <time>2026-03-01T12:51:26Z</time>
      </trkpt>
      <trkpt lat="43.027145" lon="-1.812255">
        <ele>767.6</ele>
        <time>2026-03-01T12:51:27Z</time>
      </trkpt>
      <trkpt lat="43.027053" lon="-1.812237">
        <ele>766.8</ele>
        <time>2026-03-01T12:51:28Z</time>
      </trkpt>
      <trkpt lat="43.026977" lon="-1.812219">
        <ele>766.4</ele>
        <time>2026-03-01T12:51:29Z</time>
      </trkpt>
      <trkpt lat="43.026911" lon="-1.812188">
        <ele>766.2</ele>
        <time>2026-03-01T12:51:30Z</time>
      </trkpt>
      <trkpt lat="43.026778" lon="-1.812129">
        <ele>767.0</ele>
        <time>2026-03-01T12:51:33Z</time>
      </trkpt>
      <trkpt lat="43.026675" lon="-1.812107">
        <ele>767.6</ele>
        <time>2026-03-01T12:51:35Z</time>
      </trkpt>
      <trkpt lat="43.026629" lon="-1.812094">
        <ele>767.6</ele>
        <time>2026-03-01T12:51:36Z</time>
      </trkpt>
      <trkpt lat="43.026596" lon="-1.812073">
        <ele>767.4</ele>
        <time>2026-03-01T12:51:37Z</time>
      </trkpt>
      <trkpt lat="43.026571" lon="-1.812039">
        <ele>767.4</ele>
        <time>2026-03-01T12:51:38Z</time>
      </trkpt>
      <trkpt lat="43.026549" lon="-1.811998">
        <ele>767.2</ele>
        <time>2026-03-01T12:51:39Z</time>
      </trkpt>
      <trkpt lat="43.026533" lon="-1.811930">
        <ele>767.2</ele>
        <time>2026-03-01T12:51:41Z</time>
      </trkpt>
      <trkpt lat="43.026461" lon="-1.811757">
        <ele>768.0</ele>
        <time>2026-03-01T12:51:45Z</time>
      </trkpt>
      <trkpt lat="43.026435" lon="-1.811718">
        <ele>768.4</ele>
        <time>2026-03-01T12:51:46Z</time>
      </trkpt>
      <trkpt lat="43.026343" lon="-1.811565">
        <ele>768.6</ele>
        <time>2026-03-01T12:51:49Z</time>
      </trkpt>
      <trkpt lat="43.026218" lon="-1.811392">
        <ele>767.0</ele>
        <time>2026-03-01T12:51:52Z</time>
      </trkpt>
      <trkpt lat="43.026177" lon="-1.811346">
        <ele>765.8</ele>
        <time>2026-03-01T12:51:53Z</time>
      </trkpt>
      <trkpt lat="43.026137" lon="-1.811310">
        <ele>764.8</ele>
        <time>2026-03-01T12:51:54Z</time>
      </trkpt>
      <trkpt lat="43.026097" lon="-1.811298">
        <ele>764.4</ele>
        <time>2026-03-01T12:51:55Z</time>
      </trkpt>
      <trkpt lat="43.026021" lon="-1.811297">
        <ele>764.0</ele>
        <time>2026-03-01T12:51:57Z</time>
      </trkpt>
      <trkpt lat="43.025925" lon="-1.811264">
        <ele>765.6</ele>
        <time>2026-03-01T12:52:01Z</time>
      </trkpt>
      <trkpt lat="43.025901" lon="-1.811258">
        <ele>765.8</ele>
        <time>2026-03-01T12:52:02Z</time>
      </trkpt>
      <trkpt lat="43.025841" lon="-1.811224">
        <ele>766.6</ele>
        <time>2026-03-01T12:52:05Z</time>
      </trkpt>
      <trkpt lat="43.025814" lon="-1.811211">
        <ele>766.6</ele>
        <time>2026-03-01T12:52:06Z</time>
      </trkpt>
      <trkpt lat="43.025739" lon="-1.811159">
        <ele>766.8</ele>
        <time>2026-03-01T12:52:08Z</time>
      </trkpt>
      <trkpt lat="43.025616" lon="-1.811022">
        <ele>767.0</ele>
        <time>2026-03-01T12:52:12Z</time>
      </trkpt>
      <trkpt lat="43.025472" lon="-1.810907">
        <ele>766.2</ele>
        <time>2026-03-01T12:52:16Z</time>
      </trkpt>
      <trkpt lat="43.025453" lon="-1.810847">
        <ele>766.0</ele>
        <time>2026-03-01T12:52:17Z</time>
      </trkpt>
      <trkpt lat="43.025332" lon="-1.810593">
        <ele>767.4</ele>
        <time>2026-03-01T12:52:22Z</time>
      </trkpt>
      <trkpt lat="43.025288" lon="-1.810507">
        <ele>767.6</ele>
        <time>2026-03-01T12:52:24Z</time>
      </trkpt>
      <trkpt lat="43.025181" lon="-1.810356">
        <ele>768.2</ele>
        <time>2026-03-01T12:52:28Z</time>
      </trkpt>
      <trkpt lat="43.025098" lon="-1.810267">
        <ele>768.8</ele>
        <time>2026-03-01T12:52:31Z</time>
      </trkpt>
      <trkpt lat="43.025064" lon="-1.810238">
        <ele>769.6</ele>
        <time>2026-03-01T12:52:33Z</time>
      </trkpt>
      <trkpt lat="43.025053" lon="-1.810225">
        <ele>770.0</ele>
        <time>2026-03-01T12:52:34Z</time>
      </trkpt>
      <trkpt lat="43.024996" lon="-1.810149">
        <ele>770.8</ele>
        <time>2026-03-01T12:52:38Z</time>
      </trkpt>
      <trkpt lat="43.024961" lon="-1.810113">
        <ele>771.2</ele>
        <time>2026-03-01T12:52:40Z</time>
      </trkpt>
      <trkpt lat="43.024912" lon="-1.810045">
        <ele>772.4</ele>
        <time>2026-03-01T12:52:44Z</time>
      </trkpt>
      <trkpt lat="43.024853" lon="-1.809960">
        <ele>773.4</ele>
        <time>2026-03-01T12:52:49Z</time>
      </trkpt>
      <trkpt lat="43.024841" lon="-1.809944">
        <ele>773.4</ele>
        <time>2026-03-01T12:52:50Z</time>
      </trkpt>
      <trkpt lat="43.024826" lon="-1.809928">
        <ele>773.4</ele>
        <time>2026-03-01T12:52:51Z</time>
      </trkpt>
      <trkpt lat="43.024795" lon="-1.809885">
        <ele>774.2</ele>
        <time>2026-03-01T12:52:54Z</time>
      </trkpt>
      <trkpt lat="43.024788" lon="-1.809873">
        <ele>774.4</ele>
        <time>2026-03-01T12:52:55Z</time>
      </trkpt>
      <trkpt lat="43.024773" lon="-1.809843">
        <ele>774.8</ele>
        <time>2026-03-01T12:52:57Z</time>
      </trkpt>
      <trkpt lat="43.024756" lon="-1.809816">
        <ele>775.4</ele>
        <time>2026-03-01T12:52:59Z</time>
      </trkpt>
      <trkpt lat="43.024749" lon="-1.809804">
        <ele>775.8</ele>
        <time>2026-03-01T12:53:00Z</time>
      </trkpt>
      <trkpt lat="43.024732" lon="-1.809774">
        <ele>776.2</ele>
        <time>2026-03-01T12:53:02Z</time>
      </trkpt>
      <trkpt lat="43.024725" lon="-1.809744">
        <ele>776.6</ele>
        <time>2026-03-01T12:53:04Z</time>
      </trkpt>
      <trkpt lat="43.024721" lon="-1.809730">
        <ele>777.0</ele>
        <time>2026-03-01T12:53:05Z</time>
      </trkpt>
      <trkpt lat="43.024716" lon="-1.809718">
        <ele>777.4</ele>
        <time>2026-03-01T12:53:06Z</time>
      </trkpt>
      <trkpt lat="43.024703" lon="-1.809687">
        <ele>777.6</ele>
        <time>2026-03-01T12:53:08Z</time>
      </trkpt>
      <trkpt lat="43.024693" lon="-1.809650">
        <ele>778.0</ele>
        <time>2026-03-01T12:53:10Z</time>
      </trkpt>
      <trkpt lat="43.024673" lon="-1.809600">
        <ele>778.8</ele>
        <time>2026-03-01T12:53:13Z</time>
      </trkpt>
      <trkpt lat="43.024640" lon="-1.809533">
        <ele>779.8</ele>
        <time>2026-03-01T12:53:17Z</time>
      </trkpt>
      <trkpt lat="43.024613" lon="-1.809469">
        <ele>780.4</ele>
        <time>2026-03-01T12:53:21Z</time>
      </trkpt>
      <trkpt lat="43.024608" lon="-1.809457">
        <ele>780.4</ele>
        <time>2026-03-01T12:53:22Z</time>
      </trkpt>
      <trkpt lat="43.024607" lon="-1.809441">
        <ele>780.4</ele>
        <time>2026-03-01T12:53:23Z</time>
      </trkpt>
      <trkpt lat="43.024604" lon="-1.809429">
        <ele>780.8</ele>
        <time>2026-03-01T12:53:24Z</time>
      </trkpt>
      <trkpt lat="43.024588" lon="-1.809420">
        <ele>781.0</ele>
        <time>2026-03-01T12:53:25Z</time>
      </trkpt>
      <trkpt lat="43.024561" lon="-1.809390">
        <ele>781.8</ele>
        <time>2026-03-01T12:53:28Z</time>
      </trkpt>
      <trkpt lat="43.024553" lon="-1.809378">
        <ele>782.0</ele>
        <time>2026-03-01T12:53:29Z</time>
      </trkpt>
      <trkpt lat="43.024495" lon="-1.809298">
        <ele>782.8</ele>
        <time>2026-03-01T12:53:35Z</time>
      </trkpt>
      <trkpt lat="43.024474" lon="-1.809277">
        <ele>783.2</ele>
        <time>2026-03-01T12:53:37Z</time>
      </trkpt>
      <trkpt lat="43.024449" lon="-1.809242">
        <ele>784.0</ele>
        <time>2026-03-01T12:53:40Z</time>
      </trkpt>
      <trkpt lat="43.024426" lon="-1.809202">
        <ele>785.0</ele>
        <time>2026-03-01T12:53:43Z</time>
      </trkpt>
      <trkpt lat="43.024418" lon="-1.809189">
        <ele>785.0</ele>
        <time>2026-03-01T12:53:44Z</time>
      </trkpt>
      <trkpt lat="43.024354" lon="-1.809129">
        <ele>786.2</ele>
        <time>2026-03-01T12:53:50Z</time>
      </trkpt>
      <trkpt lat="43.024330" lon="-1.809085">
        <ele>786.8</ele>
        <time>2026-03-01T12:53:53Z</time>
      </trkpt>
      <trkpt lat="43.024293" lon="-1.809042">
        <ele>787.4</ele>
        <time>2026-03-01T12:53:56Z</time>
      </trkpt>
      <trkpt lat="43.024261" lon="-1.809021">
        <ele>787.8</ele>
        <time>2026-03-01T12:53:59Z</time>
      </trkpt>
      <trkpt lat="43.024234" lon="-1.809008">
        <ele>788.0</ele>
        <time>2026-03-01T12:54:01Z</time>
      </trkpt>
      <trkpt lat="43.024222" lon="-1.809001">
        <ele>788.4</ele>
        <time>2026-03-01T12:54:02Z</time>
      </trkpt>
      <trkpt lat="43.024181" lon="-1.808995">
        <ele>788.8</ele>
        <time>2026-03-01T12:54:05Z</time>
      </trkpt>
      <trkpt lat="43.024136" lon="-1.808996">
        <ele>789.2</ele>
        <time>2026-03-01T12:54:11Z</time>
      </trkpt>
      <trkpt lat="43.024125" lon="-1.808989">
        <ele>789.0</ele>
        <time>2026-03-01T12:54:21Z</time>
      </trkpt>
      <trkpt lat="43.024130" lon="-1.808992">
        <ele>789.0</ele>
        <time>2026-03-01T12:54:25Z</time>
      </trkpt>
      <trkpt lat="43.024129" lon="-1.808985">
        <ele>789.0</ele>
        <time>2026-03-01T12:54:32Z</time>
      </trkpt>
      <trkpt lat="43.024117" lon="-1.808946">
        <ele>788.8</ele>
        <time>2026-03-01T12:54:41Z</time>
      </trkpt>
      <trkpt lat="43.024115" lon="-1.808940">
        <ele>788.8</ele>
        <time>2026-03-01T12:54:42Z</time>
      </trkpt>
      <trkpt lat="43.024114" lon="-1.808935">
        <ele>788.8</ele>
        <time>2026-03-01T12:54:45Z</time>
      </trkpt>
      <trkpt lat="43.024113" lon="-1.808933">
        <ele>789.0</ele>
        <time>2026-03-01T12:54:48Z</time>
      </trkpt>
      <trkpt lat="43.024112" lon="-1.808926">
        <ele>789.0</ele>
        <time>2026-03-01T12:54:55Z</time>
      </trkpt>
      <trkpt lat="43.024114" lon="-1.808922">
        <ele>789.2</ele>
        <time>2026-03-01T12:54:56Z</time>
      </trkpt>
      <trkpt lat="43.024090" lon="-1.808920">
        <ele>789.2</ele>
        <time>2026-03-01T12:54:58Z</time>
      </trkpt>
      <trkpt lat="43.024069" lon="-1.808930">
        <ele>789.2</ele>
        <time>2026-03-01T12:54:59Z</time>
      </trkpt>
      <trkpt lat="43.024022" lon="-1.808970">
        <ele>788.8</ele>
        <time>2026-03-01T12:55:01Z</time>
      </trkpt>
      <trkpt lat="43.023956" lon="-1.809008">
        <ele>788.4</ele>
        <time>2026-03-01T12:55:03Z</time>
      </trkpt>
      <trkpt lat="43.023907" lon="-1.809041">
        <ele>788.0</ele>
        <time>2026-03-01T12:55:04Z</time>
      </trkpt>
      <trkpt lat="43.023846" lon="-1.809083">
        <ele>787.2</ele>
        <time>2026-03-01T12:55:05Z</time>
      </trkpt>
      <trkpt lat="43.023789" lon="-1.809120">
        <ele>785.2</ele>
        <time>2026-03-01T12:55:06Z</time>
      </trkpt>
      <trkpt lat="43.023746" lon="-1.809139">
        <ele>784.2</ele>
        <time>2026-03-01T12:55:07Z</time>
      </trkpt>
      <trkpt lat="43.023712" lon="-1.809160">
        <ele>783.6</ele>
        <time>2026-03-01T12:55:08Z</time>
      </trkpt>
      <trkpt lat="43.023654" lon="-1.809180">
        <ele>783.6</ele>
        <time>2026-03-01T12:55:10Z</time>
      </trkpt>
      <trkpt lat="43.023641" lon="-1.809176">
        <ele>784.2</ele>
        <time>2026-03-01T12:55:11Z</time>
      </trkpt>
      <trkpt lat="43.023617" lon="-1.809149">
        <ele>785.8</ele>
        <time>2026-03-01T12:55:12Z</time>
      </trkpt>
      <trkpt lat="43.023593" lon="-1.809112">
        <ele>787.2</ele>
        <time>2026-03-01T12:55:14Z</time>
      </trkpt>
      <trkpt lat="43.023587" lon="-1.809085">
        <ele>787.4</ele>
        <time>2026-03-01T12:55:15Z</time>
      </trkpt>
      <trkpt lat="43.023574" lon="-1.809035">
        <ele>787.8</ele>
        <time>2026-03-01T12:55:17Z</time>
      </trkpt>
      <trkpt lat="43.023558" lon="-1.808982">
        <ele>788.0</ele>
        <time>2026-03-01T12:55:19Z</time>
      </trkpt>
      <trkpt lat="43.023547" lon="-1.808960">
        <ele>788.4</ele>
        <time>2026-03-01T12:55:20Z</time>
      </trkpt>
      <trkpt lat="43.023524" lon="-1.808920">
        <ele>788.8</ele>
        <time>2026-03-01T12:55:22Z</time>
      </trkpt>
      <trkpt lat="43.023507" lon="-1.808900">
        <ele>789.0</ele>
        <time>2026-03-01T12:55:23Z</time>
      </trkpt>
      <trkpt lat="43.023467" lon="-1.808843">
        <ele>789.4</ele>
        <time>2026-03-01T12:55:25Z</time>
      </trkpt>
      <trkpt lat="43.023401" lon="-1.808784">
        <ele>789.4</ele>
        <time>2026-03-01T12:55:28Z</time>
      </trkpt>
      <trkpt lat="43.023343" lon="-1.808733">
        <ele>789.8</ele>
        <time>2026-03-01T12:55:31Z</time>
      </trkpt>
      <trkpt lat="43.023261" lon="-1.808667">
        <ele>790.2</ele>
        <time>2026-03-01T12:55:34Z</time>
      </trkpt>
      <trkpt lat="43.023031" lon="-1.808497">
        <ele>789.8</ele>
        <time>2026-03-01T12:55:42Z</time>
      </trkpt>
      <trkpt lat="43.022829" lon="-1.808332">
        <ele>790.2</ele>
        <time>2026-03-01T12:55:48Z</time>
      </trkpt>
      <trkpt lat="43.022806" lon="-1.808310">
        <ele>790.6</ele>
        <time>2026-03-01T12:55:49Z</time>
      </trkpt>
      <trkpt lat="43.022678" lon="-1.808229">
        <ele>791.6</ele>
        <time>2026-03-01T12:55:53Z</time>
      </trkpt>
      <trkpt lat="43.022619" lon="-1.808187">
        <ele>792.2</ele>
        <time>2026-03-01T12:55:55Z</time>
      </trkpt>
      <trkpt lat="43.022596" lon="-1.808167">
        <ele>792.8</ele>
        <time>2026-03-01T12:55:56Z</time>
      </trkpt>
      <trkpt lat="43.022491" lon="-1.808101">
        <ele>794.0</ele>
        <time>2026-03-01T12:56:00Z</time>
      </trkpt>
      <trkpt lat="43.022464" lon="-1.808092">
        <ele>794.2</ele>
        <time>2026-03-01T12:56:01Z</time>
      </trkpt>
      <trkpt lat="43.022336" lon="-1.808086">
        <ele>794.4</ele>
        <time>2026-03-01T12:56:06Z</time>
      </trkpt>
      <trkpt lat="43.022304" lon="-1.808089">
        <ele>794.4</ele>
        <time>2026-03-01T12:56:07Z</time>
      </trkpt>
      <trkpt lat="43.022270" lon="-1.808097">
        <ele>794.0</ele>
        <time>2026-03-01T12:56:08Z</time>
      </trkpt>
      <trkpt lat="43.022240" lon="-1.808110">
        <ele>793.8</ele>
        <time>2026-03-01T12:56:09Z</time>
      </trkpt>
      <trkpt lat="43.022203" lon="-1.808121">
        <ele>793.4</ele>
        <time>2026-03-01T12:56:10Z</time>
      </trkpt>
      <trkpt lat="43.022169" lon="-1.808144">
        <ele>793.2</ele>
        <time>2026-03-01T12:56:11Z</time>
      </trkpt>
      <trkpt lat="43.022140" lon="-1.808178">
        <ele>793.0</ele>
        <time>2026-03-01T12:56:12Z</time>
      </trkpt>
      <trkpt lat="43.022108" lon="-1.808207">
        <ele>793.0</ele>
        <time>2026-03-01T12:56:13Z</time>
      </trkpt>
      <trkpt lat="43.021987" lon="-1.808364">
        <ele>792.4</ele>
        <time>2026-03-01T12:56:17Z</time>
      </trkpt>
      <trkpt lat="43.021783" lon="-1.808547">
        <ele>794.0</ele>
        <time>2026-03-01T12:56:24Z</time>
      </trkpt>
      <trkpt lat="43.021673" lon="-1.808639">
        <ele>795.0</ele>
        <time>2026-03-01T12:56:28Z</time>
      </trkpt>
      <trkpt lat="43.021599" lon="-1.808722">
        <ele>795.8</ele>
        <time>2026-03-01T12:56:31Z</time>
      </trkpt>
      <trkpt lat="43.021569" lon="-1.808792">
        <ele>796.2</ele>
        <time>2026-03-01T12:56:33Z</time>
      </trkpt>
      <trkpt lat="43.021543" lon="-1.808911">
        <ele>796.2</ele>
        <time>2026-03-01T12:56:35Z</time>
      </trkpt>
      <trkpt lat="43.021497" lon="-1.809031">
        <ele>793.8</ele>
        <time>2026-03-01T12:56:37Z</time>
      </trkpt>
      <trkpt lat="43.021454" lon="-1.809128">
        <ele>792.4</ele>
        <time>2026-03-01T12:56:39Z</time>
      </trkpt>
      <trkpt lat="43.021435" lon="-1.809170">
        <ele>792.2</ele>
        <time>2026-03-01T12:56:40Z</time>
      </trkpt>
      <trkpt lat="43.021358" lon="-1.809308">
        <ele>792.6</ele>
        <time>2026-03-01T12:56:45Z</time>
      </trkpt>
      <trkpt lat="43.021313" lon="-1.809367">
        <ele>793.2</ele>
        <time>2026-03-01T12:56:47Z</time>
      </trkpt>
      <trkpt lat="43.021269" lon="-1.809422">
        <ele>793.2</ele>
        <time>2026-03-01T12:56:49Z</time>
      </trkpt>
      <trkpt lat="43.021216" lon="-1.809465">
        <ele>793.4</ele>
        <time>2026-03-01T12:56:51Z</time>
      </trkpt>
      <trkpt lat="43.021165" lon="-1.809494">
        <ele>793.6</ele>
        <time>2026-03-01T12:56:53Z</time>
      </trkpt>
      <trkpt lat="43.021058" lon="-1.809551">
        <ele>794.2</ele>
        <time>2026-03-01T12:56:58Z</time>
      </trkpt>
      <trkpt lat="43.020999" lon="-1.809557">
        <ele>794.6</ele>
        <time>2026-03-01T12:57:01Z</time>
      </trkpt>
      <trkpt lat="43.020950" lon="-1.809564">
        <ele>795.8</ele>
        <time>2026-03-01T12:57:04Z</time>
      </trkpt>
      <trkpt lat="43.020939" lon="-1.809566">
        <ele>796.0</ele>
        <time>2026-03-01T12:57:05Z</time>
      </trkpt>
      <trkpt lat="43.020927" lon="-1.809565">
        <ele>796.4</ele>
        <time>2026-03-01T12:57:06Z</time>
      </trkpt>
      <trkpt lat="43.020889" lon="-1.809567">
        <ele>797.0</ele>
        <time>2026-03-01T12:57:09Z</time>
      </trkpt>
      <trkpt lat="43.020854" lon="-1.809563">
        <ele>797.6</ele>
        <time>2026-03-01T12:57:12Z</time>
      </trkpt>
      <trkpt lat="43.020821" lon="-1.809538">
        <ele>798.0</ele>
        <time>2026-03-01T12:57:15Z</time>
      </trkpt>
      <trkpt lat="43.020810" lon="-1.809533">
        <ele>798.0</ele>
        <time>2026-03-01T12:57:16Z</time>
      </trkpt>
      <trkpt lat="43.020767" lon="-1.809519">
        <ele>798.8</ele>
        <time>2026-03-01T12:57:19Z</time>
      </trkpt>
      <trkpt lat="43.020715" lon="-1.809508">
        <ele>799.2</ele>
        <time>2026-03-01T12:57:22Z</time>
      </trkpt>
      <trkpt lat="43.020642" lon="-1.809484">
        <ele>800.2</ele>
        <time>2026-03-01T12:57:27Z</time>
      </trkpt>
      <trkpt lat="43.020560" lon="-1.809461">
        <ele>801.2</ele>
        <time>2026-03-01T12:57:32Z</time>
      </trkpt>
      <trkpt lat="43.020527" lon="-1.809451">
        <ele>801.4</ele>
        <time>2026-03-01T12:57:34Z</time>
      </trkpt>
      <trkpt lat="43.020427" lon="-1.809453">
        <ele>802.2</ele>
        <time>2026-03-01T12:57:39Z</time>
      </trkpt>
      <trkpt lat="43.020362" lon="-1.809460">
        <ele>802.6</ele>
        <time>2026-03-01T12:57:42Z</time>
      </trkpt>
      <trkpt lat="43.020321" lon="-1.809471">
        <ele>803.0</ele>
        <time>2026-03-01T12:57:44Z</time>
      </trkpt>
      <trkpt lat="43.020289" lon="-1.809491">
        <ele>803.2</ele>
        <time>2026-03-01T12:57:46Z</time>
      </trkpt>
      <trkpt lat="43.020267" lon="-1.809502">
        <ele>803.4</ele>
        <time>2026-03-01T12:57:47Z</time>
      </trkpt>
      <trkpt lat="43.020165" lon="-1.809578">
        <ele>804.4</ele>
        <time>2026-03-01T12:57:53Z</time>
      </trkpt>
      <trkpt lat="43.020152" lon="-1.809591">
        <ele>804.6</ele>
        <time>2026-03-01T12:57:54Z</time>
      </trkpt>
      <trkpt lat="43.020111" lon="-1.809703">
        <ele>805.2</ele>
        <time>2026-03-01T12:57:59Z</time>
      </trkpt>
      <trkpt lat="43.020081" lon="-1.809885">
        <ele>805.4</ele>
        <time>2026-03-01T12:58:05Z</time>
      </trkpt>
      <trkpt lat="43.020067" lon="-1.809979">
        <ele>805.8</ele>
        <time>2026-03-01T12:58:08Z</time>
      </trkpt>
      <trkpt lat="43.020051" lon="-1.810073">
        <ele>806.6</ele>
        <time>2026-03-01T12:58:11Z</time>
      </trkpt>
      <trkpt lat="43.020024" lon="-1.810162">
        <ele>807.4</ele>
        <time>2026-03-01T12:58:14Z</time>
      </trkpt>
      <trkpt lat="43.020013" lon="-1.810189">
        <ele>807.6</ele>
        <time>2026-03-01T12:58:15Z</time>
      </trkpt>
      <trkpt lat="43.020004" lon="-1.810218">
        <ele>808.0</ele>
        <time>2026-03-01T12:58:16Z</time>
      </trkpt>
      <trkpt lat="43.019975" lon="-1.810311">
        <ele>808.2</ele>
        <time>2026-03-01T12:58:19Z</time>
      </trkpt>
      <trkpt lat="43.019891" lon="-1.810426">
        <ele>808.6</ele>
        <time>2026-03-01T12:58:24Z</time>
      </trkpt>
      <trkpt lat="43.019868" lon="-1.810439">
        <ele>808.8</ele>
        <time>2026-03-01T12:58:25Z</time>
      </trkpt>
      <trkpt lat="43.019773" lon="-1.810501">
        <ele>809.6</ele>
        <time>2026-03-01T12:58:30Z</time>
      </trkpt>
      <trkpt lat="43.019752" lon="-1.810512">
        <ele>809.6</ele>
        <time>2026-03-01T12:58:31Z</time>
      </trkpt>
      <trkpt lat="43.019735" lon="-1.810526">
        <ele>809.8</ele>
        <time>2026-03-01T12:58:32Z</time>
      </trkpt>
      <trkpt lat="43.019719" lon="-1.810537">
        <ele>810.0</ele>
        <time>2026-03-01T12:58:33Z</time>
      </trkpt>
      <trkpt lat="43.019683" lon="-1.810589">
        <ele>810.8</ele>
        <time>2026-03-01T12:58:36Z</time>
      </trkpt>
      <trkpt lat="43.019672" lon="-1.810610">
        <ele>811.0</ele>
        <time>2026-03-01T12:58:37Z</time>
      </trkpt>
      <trkpt lat="43.019598" lon="-1.810730">
        <ele>812.0</ele>
        <time>2026-03-01T12:58:44Z</time>
      </trkpt>
      <trkpt lat="43.019559" lon="-1.810773">
        <ele>812.6</ele>
        <time>2026-03-01T12:58:47Z</time>
      </trkpt>
      <trkpt lat="43.019544" lon="-1.810804">
        <ele>813.0</ele>
        <time>2026-03-01T12:58:49Z</time>
      </trkpt>
      <trkpt lat="43.019534" lon="-1.810819">
        <ele>813.2</ele>
        <time>2026-03-01T12:58:50Z</time>
      </trkpt>
      <trkpt lat="43.019507" lon="-1.810896">
        <ele>813.6</ele>
        <time>2026-03-01T12:58:54Z</time>
      </trkpt>
      <trkpt lat="43.019500" lon="-1.810910">
        <ele>814.2</ele>
        <time>2026-03-01T12:58:55Z</time>
      </trkpt>
      <trkpt lat="43.019496" lon="-1.810926">
        <ele>814.8</ele>
        <time>2026-03-01T12:58:56Z</time>
      </trkpt>
      <trkpt lat="43.019483" lon="-1.810954">
        <ele>815.6</ele>
        <time>2026-03-01T12:58:58Z</time>
      </trkpt>
      <trkpt lat="43.019424" lon="-1.810989">
        <ele>816.8</ele>
        <time>2026-03-01T12:59:03Z</time>
      </trkpt>
      <trkpt lat="43.019394" lon="-1.810992">
        <ele>817.8</ele>
        <time>2026-03-01T12:59:06Z</time>
      </trkpt>
      <trkpt lat="43.019385" lon="-1.810998">
        <ele>818.2</ele>
        <time>2026-03-01T12:59:07Z</time>
      </trkpt>
      <trkpt lat="43.019363" lon="-1.811027">
        <ele>819.2</ele>
        <time>2026-03-01T12:59:10Z</time>
      </trkpt>
      <trkpt lat="43.019360" lon="-1.811040">
        <ele>819.6</ele>
        <time>2026-03-01T12:59:11Z</time>
      </trkpt>
      <trkpt lat="43.019367" lon="-1.811065">
        <ele>820.4</ele>
        <time>2026-03-01T12:59:13Z</time>
      </trkpt>
      <trkpt lat="43.019375" lon="-1.811081">
        <ele>820.6</ele>
        <time>2026-03-01T12:59:14Z</time>
      </trkpt>
      <trkpt lat="43.019383" lon="-1.811097">
        <ele>820.6</ele>
        <time>2026-03-01T12:59:15Z</time>
      </trkpt>
      <trkpt lat="43.019451" lon="-1.811173">
        <ele>820.6</ele>
        <time>2026-03-01T12:59:20Z</time>
      </trkpt>
      <trkpt lat="43.019488" lon="-1.811208">
        <ele>820.6</ele>
        <time>2026-03-01T12:59:23Z</time>
      </trkpt>
      <trkpt lat="43.019542" lon="-1.811234">
        <ele>820.8</ele>
        <time>2026-03-01T12:59:27Z</time>
      </trkpt>
      <trkpt lat="43.019579" lon="-1.811233">
        <ele>821.0</ele>
        <time>2026-03-01T12:59:30Z</time>
      </trkpt>
      <trkpt lat="43.019628" lon="-1.811223">
        <ele>821.0</ele>
        <time>2026-03-01T12:59:34Z</time>
      </trkpt>
      <trkpt lat="43.019690" lon="-1.811206">
        <ele>821.4</ele>
        <time>2026-03-01T12:59:39Z</time>
      </trkpt>
      <trkpt lat="43.019715" lon="-1.811194">
        <ele>821.6</ele>
        <time>2026-03-01T12:59:41Z</time>
      </trkpt>
      <trkpt lat="43.019737" lon="-1.811180">
        <ele>822.2</ele>
        <time>2026-03-01T12:59:43Z</time>
      </trkpt>
      <trkpt lat="43.019758" lon="-1.811168">
        <ele>822.6</ele>
        <time>2026-03-01T12:59:45Z</time>
      </trkpt>
      <trkpt lat="43.019763" lon="-1.811162">
        <ele>823.0</ele>
        <time>2026-03-01T12:59:46Z</time>
      </trkpt>
      <trkpt lat="43.019777" lon="-1.811154">
        <ele>823.4</ele>
        <time>2026-03-01T12:59:48Z</time>
      </trkpt>
      <trkpt lat="43.019799" lon="-1.811136">
        <ele>824.0</ele>
        <time>2026-03-01T12:59:51Z</time>
      </trkpt>
      <trkpt lat="43.019805" lon="-1.811125">
        <ele>824.2</ele>
        <time>2026-03-01T12:59:52Z</time>
      </trkpt>
      <trkpt lat="43.019816" lon="-1.811081">
        <ele>824.8</ele>
        <time>2026-03-01T12:59:55Z</time>
      </trkpt>
      <trkpt lat="43.019821" lon="-1.811060">
        <ele>825.4</ele>
        <time>2026-03-01T12:59:57Z</time>
      </trkpt>
      <trkpt lat="43.019826" lon="-1.811043">
        <ele>825.8</ele>
        <time>2026-03-01T12:59:59Z</time>
      </trkpt>
      <trkpt lat="43.019847" lon="-1.811018">
        <ele>826.2</ele>
        <time>2026-03-01T13:00:02Z</time>
      </trkpt>
      <trkpt lat="43.019853" lon="-1.811011">
        <ele>826.2</ele>
        <time>2026-03-01T13:00:03Z</time>
      </trkpt>
      <trkpt lat="43.019860" lon="-1.811004">
        <ele>826.4</ele>
        <time>2026-03-01T13:00:04Z</time>
      </trkpt>
      <trkpt lat="43.019877" lon="-1.810975">
        <ele>827.4</ele>
        <time>2026-03-01T13:00:07Z</time>
      </trkpt>
      <trkpt lat="43.019897" lon="-1.810967">
        <ele>827.8</ele>
        <time>2026-03-01T13:00:09Z</time>
      </trkpt>
      <trkpt lat="43.019920" lon="-1.810946">
        <ele>828.8</ele>
        <time>2026-03-01T13:00:12Z</time>
      </trkpt>
      <trkpt lat="43.019951" lon="-1.810933">
        <ele>829.6</ele>
        <time>2026-03-01T13:00:15Z</time>
      </trkpt>
      <trkpt lat="43.019960" lon="-1.810928">
        <ele>829.8</ele>
        <time>2026-03-01T13:00:16Z</time>
      </trkpt>
      <trkpt lat="43.020005" lon="-1.810918">
        <ele>830.8</ele>
        <time>2026-03-01T13:00:21Z</time>
      </trkpt>
      <trkpt lat="43.020014" lon="-1.810920">
        <ele>831.0</ele>
        <time>2026-03-01T13:00:22Z</time>
      </trkpt>
      <trkpt lat="43.020029" lon="-1.810920">
        <ele>831.2</ele>
        <time>2026-03-01T13:00:24Z</time>
      </trkpt>
      <trkpt lat="43.020097" lon="-1.810903">
        <ele>832.0</ele>
        <time>2026-03-01T13:00:30Z</time>
      </trkpt>
      <trkpt lat="43.020108" lon="-1.810896">
        <ele>832.0</ele>
        <time>2026-03-01T13:00:31Z</time>
      </trkpt>
      <trkpt lat="43.020166" lon="-1.810873">
        <ele>833.0</ele>
        <time>2026-03-01T13:00:36Z</time>
      </trkpt>
      <trkpt lat="43.020258" lon="-1.810820">
        <ele>834.0</ele>
        <time>2026-03-01T13:00:43Z</time>
      </trkpt>
      <trkpt lat="43.020271" lon="-1.810809">
        <ele>834.0</ele>
        <time>2026-03-01T13:00:44Z</time>
      </trkpt>
      <trkpt lat="43.020349" lon="-1.810757">
        <ele>835.2</ele>
        <time>2026-03-01T13:00:49Z</time>
      </trkpt>
      <trkpt lat="43.020422" lon="-1.810714">
        <ele>836.4</ele>
        <time>2026-03-01T13:00:54Z</time>
      </trkpt>
      <trkpt lat="43.020436" lon="-1.810712">
        <ele>836.6</ele>
        <time>2026-03-01T13:00:55Z</time>
      </trkpt>
      <trkpt lat="43.020450" lon="-1.810712">
        <ele>836.6</ele>
        <time>2026-03-01T13:00:56Z</time>
      </trkpt>
      <trkpt lat="43.020464" lon="-1.810713">
        <ele>836.8</ele>
        <time>2026-03-01T13:00:57Z</time>
      </trkpt>
      <trkpt lat="43.020552" lon="-1.810756">
        <ele>837.6</ele>
        <time>2026-03-01T13:01:04Z</time>
      </trkpt>
      <trkpt lat="43.020562" lon="-1.810768">
        <ele>837.6</ele>
        <time>2026-03-01T13:01:05Z</time>
      </trkpt>
      <trkpt lat="43.020578" lon="-1.810820">
        <ele>838.0</ele>
        <time>2026-03-01T13:01:08Z</time>
      </trkpt>
      <trkpt lat="43.020587" lon="-1.810876">
        <ele>838.4</ele>
        <time>2026-03-01T13:01:11Z</time>
      </trkpt>
      <trkpt lat="43.020594" lon="-1.810908">
        <ele>838.6</ele>
        <time>2026-03-01T13:01:13Z</time>
      </trkpt>
      <trkpt lat="43.020598" lon="-1.810940">
        <ele>839.0</ele>
        <time>2026-03-01T13:01:15Z</time>
      </trkpt>
      <trkpt lat="43.020597" lon="-1.810970">
        <ele>839.6</ele>
        <time>2026-03-01T13:01:17Z</time>
      </trkpt>
      <trkpt lat="43.020592" lon="-1.810986">
        <ele>839.8</ele>
        <time>2026-03-01T13:01:18Z</time>
      </trkpt>
      <trkpt lat="43.020597" lon="-1.811079">
        <ele>840.4</ele>
        <time>2026-03-01T13:01:23Z</time>
      </trkpt>
      <trkpt lat="43.020606" lon="-1.811111">
        <ele>840.8</ele>
        <time>2026-03-01T13:01:25Z</time>
      </trkpt>
      <trkpt lat="43.020622" lon="-1.811157">
        <ele>841.6</ele>
        <time>2026-03-01T13:01:28Z</time>
      </trkpt>
      <trkpt lat="43.020630" lon="-1.811173">
        <ele>842.0</ele>
        <time>2026-03-01T13:01:29Z</time>
      </trkpt>
      <trkpt lat="43.020665" lon="-1.811233">
        <ele>843.2</ele>
        <time>2026-03-01T13:01:33Z</time>
      </trkpt>
      <trkpt lat="43.020683" lon="-1.811262">
        <ele>843.2</ele>
        <time>2026-03-01T13:01:35Z</time>
      </trkpt>
      <trkpt lat="43.020759" lon="-1.811338">
        <ele>844.2</ele>
        <time>2026-03-01T13:01:43Z</time>
      </trkpt>
      <trkpt lat="43.020824" lon="-1.811400">
        <ele>845.2</ele>
        <time>2026-03-01T13:01:50Z</time>
      </trkpt>
      <trkpt lat="43.020843" lon="-1.811427">
        <ele>845.4</ele>
        <time>2026-03-01T13:01:52Z</time>
      </trkpt>
      <trkpt lat="43.020856" lon="-1.811468">
        <ele>845.8</ele>
        <time>2026-03-01T13:01:55Z</time>
      </trkpt>
      <trkpt lat="43.020864" lon="-1.811483">
        <ele>845.8</ele>
        <time>2026-03-01T13:01:56Z</time>
      </trkpt>
      <trkpt lat="43.020868" lon="-1.811500">
        <ele>846.0</ele>
        <time>2026-03-01T13:01:57Z</time>
      </trkpt>
      <trkpt lat="43.020874" lon="-1.811517">
        <ele>846.4</ele>
        <time>2026-03-01T13:01:58Z</time>
      </trkpt>
      <trkpt lat="43.020881" lon="-1.811532">
        <ele>846.8</ele>
        <time>2026-03-01T13:01:59Z</time>
      </trkpt>
      <trkpt lat="43.020901" lon="-1.811572">
        <ele>847.6</ele>
        <time>2026-03-01T13:02:02Z</time>
      </trkpt>
      <trkpt lat="43.020926" lon="-1.811603">
        <ele>848.0</ele>
        <time>2026-03-01T13:02:05Z</time>
      </trkpt>
      <trkpt lat="43.020934" lon="-1.811623">
        <ele>848.2</ele>
        <time>2026-03-01T13:02:06Z</time>
      </trkpt>
      <trkpt lat="43.020966" lon="-1.811656">
        <ele>848.8</ele>
        <time>2026-03-01T13:02:09Z</time>
      </trkpt>
      <trkpt lat="43.020991" lon="-1.811661">
        <ele>849.0</ele>
        <time>2026-03-01T13:02:11Z</time>
      </trkpt>
      <trkpt lat="43.021064" lon="-1.811701">
        <ele>849.2</ele>
        <time>2026-03-01T13:02:17Z</time>
      </trkpt>
      <trkpt lat="43.021072" lon="-1.811708">
        <ele>849.6</ele>
        <time>2026-03-01T13:02:18Z</time>
      </trkpt>
      <trkpt lat="43.021082" lon="-1.811718">
        <ele>849.8</ele>
        <time>2026-03-01T13:02:19Z</time>
      </trkpt>
      <trkpt lat="43.021090" lon="-1.811727">
        <ele>850.0</ele>
        <time>2026-03-01T13:02:20Z</time>
      </trkpt>
      <trkpt lat="43.021115" lon="-1.811759">
        <ele>850.4</ele>
        <time>2026-03-01T13:02:24Z</time>
      </trkpt>
      <trkpt lat="43.021135" lon="-1.811786">
        <ele>850.8</ele>
        <time>2026-03-01T13:02:27Z</time>
      </trkpt>
      <trkpt lat="43.021131" lon="-1.811828">
        <ele>851.6</ele>
        <time>2026-03-01T13:02:31Z</time>
      </trkpt>
      <trkpt lat="43.021129" lon="-1.811854">
        <ele>851.6</ele>
        <time>2026-03-01T13:02:33Z</time>
      </trkpt>
      <trkpt lat="43.021157" lon="-1.811874">
        <ele>852.4</ele>
        <time>2026-03-01T13:02:36Z</time>
      </trkpt>
      <trkpt lat="43.021173" lon="-1.811877">
        <ele>852.6</ele>
        <time>2026-03-01T13:02:37Z</time>
      </trkpt>
      <trkpt lat="43.021204" lon="-1.811881">
        <ele>853.4</ele>
        <time>2026-03-01T13:02:39Z</time>
      </trkpt>
      <trkpt lat="43.021234" lon="-1.811887">
        <ele>854.0</ele>
        <time>2026-03-01T13:02:41Z</time>
      </trkpt>
      <trkpt lat="43.021258" lon="-1.811906">
        <ele>854.8</ele>
        <time>2026-03-01T13:02:43Z</time>
      </trkpt>
      <trkpt lat="43.021289" lon="-1.811925">
        <ele>856.0</ele>
        <time>2026-03-01T13:02:46Z</time>
      </trkpt>
      <trkpt lat="43.021307" lon="-1.811935">
        <ele>857.2</ele>
        <time>2026-03-01T13:02:48Z</time>
      </trkpt>
      <trkpt lat="43.021314" lon="-1.811936">
        <ele>857.6</ele>
        <time>2026-03-01T13:02:49Z</time>
      </trkpt>
      <trkpt lat="43.021331" lon="-1.811937">
        <ele>858.2</ele>
        <time>2026-03-01T13:02:51Z</time>
      </trkpt>
      <trkpt lat="43.021340" lon="-1.811941">
        <ele>858.2</ele>
        <time>2026-03-01T13:02:52Z</time>
      </trkpt>
      <trkpt lat="43.021346" lon="-1.811954">
        <ele>858.4</ele>
        <time>2026-03-01T13:02:54Z</time>
      </trkpt>
      <trkpt lat="43.021345" lon="-1.811961">
        <ele>859.0</ele>
        <time>2026-03-01T13:03:01Z</time>
      </trkpt>
      <trkpt lat="43.021348" lon="-1.811946">
        <ele>858.8</ele>
        <time>2026-03-01T13:03:06Z</time>
      </trkpt>
      <trkpt lat="43.021358" lon="-1.811934">
        <ele>858.8</ele>
        <time>2026-03-01T13:03:08Z</time>
      </trkpt>
      <trkpt lat="43.021395" lon="-1.811928">
        <ele>859.6</ele>
        <time>2026-03-01T13:03:14Z</time>
      </trkpt>
      <trkpt lat="43.021408" lon="-1.811930">
        <ele>860.0</ele>
        <time>2026-03-01T13:03:16Z</time>
      </trkpt>
      <trkpt lat="43.021419" lon="-1.811924">
        <ele>860.6</ele>
        <time>2026-03-01T13:03:18Z</time>
      </trkpt>
      <trkpt lat="43.021452" lon="-1.811918">
        <ele>861.8</ele>
        <time>2026-03-01T13:03:24Z</time>
      </trkpt>
      <trkpt lat="43.021461" lon="-1.811922">
        <ele>862.0</ele>
        <time>2026-03-01T13:03:26Z</time>
      </trkpt>
      <trkpt lat="43.021500" lon="-1.811949">
        <ele>862.8</ele>
        <time>2026-03-01T13:03:31Z</time>
      </trkpt>
      <trkpt lat="43.021526" lon="-1.811960">
        <ele>863.4</ele>
        <time>2026-03-01T13:03:34Z</time>
      </trkpt>
      <trkpt lat="43.021542" lon="-1.811965">
        <ele>863.6</ele>
        <time>2026-03-01T13:03:36Z</time>
      </trkpt>
      <trkpt lat="43.021580" lon="-1.812001">
        <ele>863.6</ele>
        <time>2026-03-01T13:03:40Z</time>
      </trkpt>
      <trkpt lat="43.021598" lon="-1.812021">
        <ele>864.0</ele>
        <time>2026-03-01T13:03:42Z</time>
      </trkpt>
      <trkpt lat="43.021603" lon="-1.812034">
        <ele>864.2</ele>
        <time>2026-03-01T13:03:43Z</time>
      </trkpt>
      <trkpt lat="43.021621" lon="-1.812061">
        <ele>864.6</ele>
        <time>2026-03-01T13:03:46Z</time>
      </trkpt>
      <trkpt lat="43.021635" lon="-1.812072">
        <ele>865.0</ele>
        <time>2026-03-01T13:03:48Z</time>
      </trkpt>
      <trkpt lat="43.021640" lon="-1.812076">
        <ele>865.2</ele>
        <time>2026-03-01T13:03:49Z</time>
      </trkpt>
      <trkpt lat="43.021640" lon="-1.812084">
        <ele>865.6</ele>
        <time>2026-03-01T13:03:51Z</time>
      </trkpt>
      <trkpt lat="43.021639" lon="-1.812088">
        <ele>865.8</ele>
        <time>2026-03-01T13:03:52Z</time>
      </trkpt>
      <trkpt lat="43.021637" lon="-1.812090">
        <ele>866.2</ele>
        <time>2026-03-01T13:03:54Z</time>
      </trkpt>
      <trkpt lat="43.021637" lon="-1.812090">
        <ele>866.2</ele>
        <time>2026-03-01T13:03:55Z</time>
      </trkpt>
      <trkpt lat="43.021637" lon="-1.812090">
        <ele>866.4</ele>
        <time>2026-03-01T13:03:57Z</time>
      </trkpt>
      <trkpt lat="43.021646" lon="-1.812095">
        <ele>866.8</ele>
        <time>2026-03-01T13:04:01Z</time>
      </trkpt>
      <trkpt lat="43.021663" lon="-1.812101">
        <ele>866.4</ele>
        <time>2026-03-01T13:04:03Z</time>
      </trkpt>
      <trkpt lat="43.021721" lon="-1.812117">
        <ele>866.8</ele>
        <time>2026-03-01T13:04:09Z</time>
      </trkpt>
      <trkpt lat="43.021746" lon="-1.812123">
        <ele>866.8</ele>
        <time>2026-03-01T13:04:12Z</time>
      </trkpt>
      <trkpt lat="43.021769" lon="-1.812133">
        <ele>867.2</ele>
        <time>2026-03-01T13:04:14Z</time>
      </trkpt>
      <trkpt lat="43.021793" lon="-1.812153">
        <ele>867.4</ele>
        <time>2026-03-01T13:04:16Z</time>
      </trkpt>
      <trkpt lat="43.021814" lon="-1.812165">
        <ele>867.8</ele>
        <time>2026-03-01T13:04:18Z</time>
      </trkpt>
      <trkpt lat="43.021833" lon="-1.812187">
        <ele>868.2</ele>
        <time>2026-03-01T13:04:20Z</time>
      </trkpt>
      <trkpt lat="43.021844" lon="-1.812192">
        <ele>868.6</ele>
        <time>2026-03-01T13:04:21Z</time>
      </trkpt>
      <trkpt lat="43.021899" lon="-1.812225">
        <ele>869.2</ele>
        <time>2026-03-01T13:04:27Z</time>
      </trkpt>
      <trkpt lat="43.021908" lon="-1.812225">
        <ele>869.2</ele>
        <time>2026-03-01T13:04:28Z</time>
      </trkpt>
      <trkpt lat="43.021942" lon="-1.812233">
        <ele>869.6</ele>
        <time>2026-03-01T13:04:32Z</time>
      </trkpt>
      <trkpt lat="43.021955" lon="-1.812235">
        <ele>869.6</ele>
        <time>2026-03-01T13:04:33Z</time>
      </trkpt>
      <trkpt lat="43.022048" lon="-1.812204">
        <ele>869.4</ele>
        <time>2026-03-01T13:04:40Z</time>
      </trkpt>
      <trkpt lat="43.022187" lon="-1.812228">
        <ele>868.4</ele>
        <time>2026-03-01T13:04:44Z</time>
      </trkpt>
      <trkpt lat="43.022292" lon="-1.812258">
        <ele>867.4</ele>
        <time>2026-03-01T13:04:47Z</time>
      </trkpt>
      <trkpt lat="43.022396" lon="-1.812276">
        <ele>866.2</ele>
        <time>2026-03-01T13:04:49Z</time>
      </trkpt>
      <trkpt lat="43.022439" lon="-1.812293">
        <ele>865.8</ele>
        <time>2026-03-01T13:04:50Z</time>
      </trkpt>
      <trkpt lat="43.022622" lon="-1.812375">
        <ele>865.6</ele>
        <time>2026-03-01T13:04:55Z</time>
      </trkpt>
      <trkpt lat="43.022654" lon="-1.812377">
        <ele>865.6</ele>
        <time>2026-03-01T13:04:56Z</time>
      </trkpt>
      <trkpt lat="43.022849" lon="-1.812403">
        <ele>865.6</ele>
        <time>2026-03-01T13:05:03Z</time>
      </trkpt>
      <trkpt lat="43.022933" lon="-1.812433">
        <ele>864.8</ele>
        <time>2026-03-01T13:05:06Z</time>
      </trkpt>
      <trkpt lat="43.022975" lon="-1.812455">
        <ele>864.4</ele>
        <time>2026-03-01T13:05:08Z</time>
      </trkpt>
      <trkpt lat="43.023008" lon="-1.812474">
        <ele>864.0</ele>
        <time>2026-03-01T13:05:10Z</time>
      </trkpt>
      <trkpt lat="43.023026" lon="-1.812472">
        <ele>863.8</ele>
        <time>2026-03-01T13:05:12Z</time>
      </trkpt>
      <trkpt lat="43.023046" lon="-1.812480">
        <ele>863.8</ele>
        <time>2026-03-01T13:05:13Z</time>
      </trkpt>
      <trkpt lat="43.023121" lon="-1.812493">
        <ele>863.6</ele>
        <time>2026-03-01T13:05:21Z</time>
      </trkpt>
      <trkpt lat="43.023115" lon="-1.812512">
        <ele>863.6</ele>
        <time>2026-03-01T13:05:24Z</time>
      </trkpt>
      <trkpt lat="43.023118" lon="-1.812509">
        <ele>863.2</ele>
        <time>2026-03-01T13:05:30Z</time>
      </trkpt>
      <trkpt lat="43.023113" lon="-1.812520">
        <ele>863.4</ele>
        <time>2026-03-01T13:05:40Z</time>
      </trkpt>
      <trkpt lat="43.023112" lon="-1.812517">
        <ele>863.4</ele>
        <time>2026-03-01T13:05:41Z</time>
      </trkpt>
      <trkpt lat="43.023105" lon="-1.812507">
        <ele>863.2</ele>
        <time>2026-03-01T13:05:42Z</time>
      </trkpt>
      <trkpt lat="43.023074" lon="-1.812495">
        <ele>863.2</ele>
        <time>2026-03-01T13:05:46Z</time>
      </trkpt>
      <trkpt lat="43.023054" lon="-1.812463">
        <ele>863.6</ele>
        <time>2026-03-01T13:05:50Z</time>
      </trkpt>
      <trkpt lat="43.023051" lon="-1.812457">
        <ele>863.6</ele>
        <time>2026-03-01T13:05:52Z</time>
      </trkpt>
      <trkpt lat="43.023059" lon="-1.812438">
        <ele>863.2</ele>
        <time>2026-03-01T13:06:02Z</time>
      </trkpt>
      <trkpt lat="43.023069" lon="-1.812416">
        <ele>862.8</ele>
        <time>2026-03-01T13:06:07Z</time>
      </trkpt>
      <trkpt lat="43.023076" lon="-1.812415">
        <ele>863.0</ele>
        <time>2026-03-01T13:06:09Z</time>
      </trkpt>
      <trkpt lat="43.023094" lon="-1.812414">
        <ele>861.4</ele>
        <time>2026-03-01T13:06:15Z</time>
      </trkpt>
      <trkpt lat="43.023096" lon="-1.812414">
        <ele>862.6</ele>
        <time>2026-03-01T13:06:19Z</time>
      </trkpt>
      <trkpt lat="43.023096" lon="-1.812415">
        <ele>863.4</ele>
        <time>2026-03-01T13:06:23Z</time>
      </trkpt>
      <trkpt lat="43.023096" lon="-1.812415">
        <ele>863.6</ele>
        <time>2026-03-01T13:06:25Z</time>
      </trkpt>
      <trkpt lat="43.023078" lon="-1.812413">
        <ele>863.6</ele>
        <time>2026-03-01T13:06:40Z</time>
      </trkpt>
      <trkpt lat="43.023074" lon="-1.812414">
        <ele>863.6</ele>
        <time>2026-03-01T13:06:41Z</time>
      </trkpt>
      <trkpt lat="43.023069" lon="-1.812414">
        <ele>863.6</ele>
        <time>2026-03-01T13:06:44Z</time>
      </trkpt>
      <trkpt lat="43.023068" lon="-1.812416">
        <ele>863.6</ele>
        <time>2026-03-01T13:06:47Z</time>
      </trkpt>
      <trkpt lat="43.023066" lon="-1.812417">
        <ele>863.6</ele>
        <time>2026-03-01T13:06:55Z</time>
      </trkpt>
      <trkpt lat="43.023065" lon="-1.812420">
        <ele>863.6</ele>
        <time>2026-03-01T13:07:01Z</time>
      </trkpt>
      <trkpt lat="43.023063" lon="-1.812421">
        <ele>863.6</ele>
        <time>2026-03-01T13:07:09Z</time>
      </trkpt>
      <trkpt lat="43.023064" lon="-1.812424">
        <ele>863.6</ele>
        <time>2026-03-01T13:07:15Z</time>
      </trkpt>
      <trkpt lat="43.023064" lon="-1.812407">
        <ele>863.6</ele>
        <time>2026-03-01T13:07:26Z</time>
      </trkpt>
      <trkpt lat="43.023063" lon="-1.812402">
        <ele>863.6</ele>
        <time>2026-03-01T13:07:28Z</time>
      </trkpt>
      <trkpt lat="43.023108" lon="-1.812448">
        <ele>863.6</ele>
        <time>2026-03-01T13:07:40Z</time>
      </trkpt>
      <trkpt lat="43.023110" lon="-1.812458">
        <ele>863.6</ele>
        <time>2026-03-01T13:07:45Z</time>
      </trkpt>
      <trkpt lat="43.023110" lon="-1.812459">
        <ele>863.6</ele>
        <time>2026-03-01T13:07:49Z</time>
      </trkpt>
      <trkpt lat="43.023112" lon="-1.812458">
        <ele>863.6</ele>
        <time>2026-03-01T13:07:57Z</time>
      </trkpt>
      <trkpt lat="43.023112" lon="-1.812458">
        <ele>863.6</ele>
        <time>2026-03-01T13:07:58Z</time>
      </trkpt>
      <trkpt lat="43.023113" lon="-1.812457">
        <ele>863.6</ele>
        <time>2026-03-01T13:08:13Z</time>
      </trkpt>
      <trkpt lat="43.023123" lon="-1.812458">
        <ele>863.6</ele>
        <time>2026-03-01T13:08:16Z</time>
      </trkpt>
      <trkpt lat="43.023121" lon="-1.812459">
        <ele>863.6</ele>
        <time>2026-03-01T13:08:23Z</time>
      </trkpt>
      <trkpt lat="43.023118" lon="-1.812450">
        <ele>863.6</ele>
        <time>2026-03-01T13:08:26Z</time>
      </trkpt>
      <trkpt lat="43.023117" lon="-1.812447">
        <ele>863.6</ele>
        <time>2026-03-01T13:08:27Z</time>
      </trkpt>
      <trkpt lat="43.023128" lon="-1.812415">
        <ele>863.6</ele>
        <time>2026-03-01T13:08:36Z</time>
      </trkpt>
      <trkpt lat="43.023125" lon="-1.812413">
        <ele>863.6</ele>
        <time>2026-03-01T13:08:37Z</time>
      </trkpt>
      <trkpt lat="43.023062" lon="-1.812409">
        <ele>863.6</ele>
        <time>2026-03-01T13:08:45Z</time>
      </trkpt>
      <trkpt lat="43.023072" lon="-1.812415">
        <ele>863.6</ele>
        <time>2026-03-01T13:08:49Z</time>
      </trkpt>
      <trkpt lat="43.023072" lon="-1.812418">
        <ele>863.6</ele>
        <time>2026-03-01T13:08:50Z</time>
      </trkpt>
      <trkpt lat="43.023072" lon="-1.812419">
        <ele>863.6</ele>
        <time>2026-03-01T13:08:53Z</time>
      </trkpt>
      <trkpt lat="43.023073" lon="-1.812420">
        <ele>863.6</ele>
        <time>2026-03-01T13:08:58Z</time>
      </trkpt>
      <trkpt lat="43.023074" lon="-1.812420">
        <ele>863.6</ele>
        <time>2026-03-01T13:08:59Z</time>
      </trkpt>
      <trkpt lat="43.023076" lon="-1.812422">
        <ele>863.6</ele>
        <time>2026-03-01T13:09:01Z</time>
      </trkpt>
      <trkpt lat="43.023078" lon="-1.812426">
        <ele>863.6</ele>
        <time>2026-03-01T13:09:04Z</time>
      </trkpt>
      <trkpt lat="43.023079" lon="-1.812426">
        <ele>863.6</ele>
        <time>2026-03-01T13:09:12Z</time>
      </trkpt>
      <trkpt lat="43.023079" lon="-1.812425">
        <ele>863.6</ele>
        <time>2026-03-01T13:09:16Z</time>
      </trkpt>
      <trkpt lat="43.023080" lon="-1.812424">
        <ele>863.6</ele>
        <time>2026-03-01T13:09:18Z</time>
      </trkpt>
      <trkpt lat="43.023087" lon="-1.812417">
        <ele>863.6</ele>
        <time>2026-03-01T13:09:22Z</time>
      </trkpt>
      <trkpt lat="43.023108" lon="-1.812409">
        <ele>862.8</ele>
        <time>2026-03-01T13:09:24Z</time>
      </trkpt>
      <trkpt lat="43.023131" lon="-1.812398">
        <ele>863.6</ele>
        <time>2026-03-01T13:09:29Z</time>
      </trkpt>
      <trkpt lat="43.023143" lon="-1.812381">
        <ele>863.8</ele>
        <time>2026-03-01T13:09:31Z</time>
      </trkpt>
      <trkpt lat="43.023163" lon="-1.812366">
        <ele>863.6</ele>
        <time>2026-03-01T13:09:34Z</time>
      </trkpt>
      <trkpt lat="43.023158" lon="-1.812368">
        <ele>863.0</ele>
        <time>2026-03-01T13:09:36Z</time>
      </trkpt>
      <trkpt lat="43.023129" lon="-1.812378">
        <ele>862.8</ele>
        <time>2026-03-01T13:09:39Z</time>
      </trkpt>
      <trkpt lat="43.023113" lon="-1.812386">
        <ele>862.8</ele>
        <time>2026-03-01T13:09:40Z</time>
      </trkpt>
      <trkpt lat="43.023067" lon="-1.812405">
        <ele>864.2</ele>
        <time>2026-03-01T13:09:44Z</time>
      </trkpt>
      <trkpt lat="43.023066" lon="-1.812418">
        <ele>864.6</ele>
        <time>2026-03-01T13:09:48Z</time>
      </trkpt>
      <trkpt lat="43.023083" lon="-1.812417">
        <ele>864.6</ele>
        <time>2026-03-01T13:09:56Z</time>
      </trkpt>
      <trkpt lat="43.023091" lon="-1.812413">
        <ele>864.2</ele>
        <time>2026-03-01T13:10:00Z</time>
      </trkpt>
      <trkpt lat="43.023082" lon="-1.812415">
        <ele>864.2</ele>
        <time>2026-03-01T13:10:05Z</time>
      </trkpt>
      <trkpt lat="43.023082" lon="-1.812414">
        <ele>864.2</ele>
        <time>2026-03-01T13:10:07Z</time>
      </trkpt>
      <trkpt lat="43.023078" lon="-1.812415">
        <ele>864.4</ele>
        <time>2026-03-01T13:10:10Z</time>
      </trkpt>
      <trkpt lat="43.023076" lon="-1.812411">
        <ele>864.4</ele>
        <time>2026-03-01T13:10:18Z</time>
      </trkpt>
      <trkpt lat="43.023075" lon="-1.812409">
        <ele>864.0</ele>
        <time>2026-03-01T13:10:24Z</time>
      </trkpt>
      <trkpt lat="43.023095" lon="-1.812382">
        <ele>863.4</ele>
        <time>2026-03-01T13:10:30Z</time>
      </trkpt>
      <trkpt lat="43.023100" lon="-1.812376">
        <ele>863.2</ele>
        <time>2026-03-01T13:10:31Z</time>
      </trkpt>
      <trkpt lat="43.023128" lon="-1.812379">
        <ele>862.4</ele>
        <time>2026-03-01T13:10:40Z</time>
      </trkpt>
      <trkpt lat="43.023135" lon="-1.812375">
        <ele>862.2</ele>
        <time>2026-03-01T13:10:43Z</time>
      </trkpt>
      <trkpt lat="43.023140" lon="-1.812364">
        <ele>862.4</ele>
        <time>2026-03-01T13:10:49Z</time>
      </trkpt>
      <trkpt lat="43.023193" lon="-1.812376">
        <ele>862.0</ele>
        <time>2026-03-01T13:10:52Z</time>
      </trkpt>
      <trkpt lat="43.023206" lon="-1.812385">
        <ele>861.2</ele>
        <time>2026-03-01T13:10:53Z</time>
      </trkpt>
      <trkpt lat="43.023218" lon="-1.812392">
        <ele>860.8</ele>
        <time>2026-03-01T13:10:54Z</time>
      </trkpt>
      <trkpt lat="43.023231" lon="-1.812404">
        <ele>860.4</ele>
        <time>2026-03-01T13:10:55Z</time>
      </trkpt>
      <trkpt lat="43.023268" lon="-1.812437">
        <ele>860.0</ele>
        <time>2026-03-01T13:10:57Z</time>
      </trkpt>
      <trkpt lat="43.023289" lon="-1.812452">
        <ele>859.8</ele>
        <time>2026-03-01T13:10:58Z</time>
      </trkpt>
      <trkpt lat="43.023390" lon="-1.812529">
        <ele>858.8</ele>
        <time>2026-03-01T13:11:02Z</time>
      </trkpt>
      <trkpt lat="43.023425" lon="-1.812538">
        <ele>858.6</ele>
        <time>2026-03-01T13:11:03Z</time>
      </trkpt>
      <trkpt lat="43.023537" lon="-1.812538">
        <ele>858.0</ele>
        <time>2026-03-01T13:11:07Z</time>
      </trkpt>
      <trkpt lat="43.023555" lon="-1.812524">
        <ele>858.0</ele>
        <time>2026-03-01T13:11:08Z</time>
      </trkpt>
      <trkpt lat="43.023620" lon="-1.812496">
        <ele>859.2</ele>
        <time>2026-03-01T13:11:12Z</time>
      </trkpt>
      <trkpt lat="43.023677" lon="-1.812480">
        <ele>859.8</ele>
        <time>2026-03-01T13:11:15Z</time>
      </trkpt>
      <trkpt lat="43.023706" lon="-1.812470">
        <ele>860.2</ele>
        <time>2026-03-01T13:11:17Z</time>
      </trkpt>
      <trkpt lat="43.023714" lon="-1.812456">
        <ele>860.2</ele>
        <time>2026-03-01T13:11:18Z</time>
      </trkpt>
      <trkpt lat="43.023719" lon="-1.812441">
        <ele>860.4</ele>
        <time>2026-03-01T13:11:19Z</time>
      </trkpt>
      <trkpt lat="43.023751" lon="-1.812356">
        <ele>860.8</ele>
        <time>2026-03-01T13:11:23Z</time>
      </trkpt>
      <trkpt lat="43.023793" lon="-1.812335">
        <ele>860.4</ele>
        <time>2026-03-01T13:11:26Z</time>
      </trkpt>
      <trkpt lat="43.023825" lon="-1.812352">
        <ele>860.4</ele>
        <time>2026-03-01T13:11:28Z</time>
      </trkpt>
      <trkpt lat="43.023857" lon="-1.812335">
        <ele>860.6</ele>
        <time>2026-03-01T13:11:34Z</time>
      </trkpt>
      <trkpt lat="43.023868" lon="-1.812348">
        <ele>860.8</ele>
        <time>2026-03-01T13:11:38Z</time>
      </trkpt>
      <trkpt lat="43.023871" lon="-1.812362">
        <ele>861.0</ele>
        <time>2026-03-01T13:11:39Z</time>
      </trkpt>
      <trkpt lat="43.023873" lon="-1.812377">
        <ele>861.0</ele>
        <time>2026-03-01T13:11:40Z</time>
      </trkpt>
      <trkpt lat="43.023872" lon="-1.812395">
        <ele>861.2</ele>
        <time>2026-03-01T13:11:41Z</time>
      </trkpt>
      <trkpt lat="43.023859" lon="-1.812468">
        <ele>861.2</ele>
        <time>2026-03-01T13:11:44Z</time>
      </trkpt>
      <trkpt lat="43.023858" lon="-1.812495">
        <ele>861.2</ele>
        <time>2026-03-01T13:11:45Z</time>
      </trkpt>
      <trkpt lat="43.023851" lon="-1.812524">
        <ele>861.0</ele>
        <time>2026-03-01T13:11:46Z</time>
      </trkpt>
      <trkpt lat="43.023833" lon="-1.812664">
        <ele>860.4</ele>
        <time>2026-03-01T13:11:49Z</time>
      </trkpt>
      <trkpt lat="43.023827" lon="-1.812716">
        <ele>860.0</ele>
        <time>2026-03-01T13:11:50Z</time>
      </trkpt>
      <trkpt lat="43.023836" lon="-1.812794">
        <ele>858.4</ele>
        <time>2026-03-01T13:11:52Z</time>
      </trkpt>
      <trkpt lat="43.023856" lon="-1.812817">
        <ele>857.6</ele>
        <time>2026-03-01T13:11:53Z</time>
      </trkpt>
      <trkpt lat="43.023882" lon="-1.812831">
        <ele>857.2</ele>
        <time>2026-03-01T13:11:54Z</time>
      </trkpt>
      <trkpt lat="43.023928" lon="-1.812864">
        <ele>856.0</ele>
        <time>2026-03-01T13:11:56Z</time>
      </trkpt>
      <trkpt lat="43.023942" lon="-1.812887">
        <ele>855.6</ele>
        <time>2026-03-01T13:11:57Z</time>
      </trkpt>
      <trkpt lat="43.023955" lon="-1.812939">
        <ele>854.8</ele>
        <time>2026-03-01T13:11:59Z</time>
      </trkpt>
      <trkpt lat="43.023975" lon="-1.812988">
        <ele>854.2</ele>
        <time>2026-03-01T13:12:01Z</time>
      </trkpt>
      <trkpt lat="43.023985" lon="-1.813001">
        <ele>853.8</ele>
        <time>2026-03-01T13:12:02Z</time>
      </trkpt>
      <trkpt lat="43.023997" lon="-1.813022">
        <ele>853.2</ele>
        <time>2026-03-01T13:12:04Z</time>
      </trkpt>
      <trkpt lat="43.024011" lon="-1.813039">
        <ele>852.8</ele>
        <time>2026-03-01T13:12:06Z</time>
      </trkpt>
      <trkpt lat="43.024021" lon="-1.813043">
        <ele>852.4</ele>
        <time>2026-03-01T13:12:08Z</time>
      </trkpt>
      <trkpt lat="43.024032" lon="-1.813028">
        <ele>852.2</ele>
        <time>2026-03-01T13:12:09Z</time>
      </trkpt>
      <trkpt lat="43.024048" lon="-1.813002">
        <ele>851.6</ele>
        <time>2026-03-01T13:12:11Z</time>
      </trkpt>
      <trkpt lat="43.024062" lon="-1.812972">
        <ele>851.4</ele>
        <time>2026-03-01T13:12:13Z</time>
      </trkpt>
      <trkpt lat="43.024060" lon="-1.812953">
        <ele>851.4</ele>
        <time>2026-03-01T13:12:14Z</time>
      </trkpt>
      <trkpt lat="43.024066" lon="-1.812902">
        <ele>852.2</ele>
        <time>2026-03-01T13:12:18Z</time>
      </trkpt>
      <trkpt lat="43.024093" lon="-1.812873">
        <ele>852.2</ele>
        <time>2026-03-01T13:12:20Z</time>
      </trkpt>
      <trkpt lat="43.024119" lon="-1.812894">
        <ele>851.0</ele>
        <time>2026-03-01T13:12:22Z</time>
      </trkpt>
      <trkpt lat="43.024126" lon="-1.812917">
        <ele>850.2</ele>
        <time>2026-03-01T13:12:23Z</time>
      </trkpt>
      <trkpt lat="43.024169" lon="-1.812985">
        <ele>849.0</ele>
        <time>2026-03-01T13:12:25Z</time>
      </trkpt>
      <trkpt lat="43.024173" lon="-1.813035">
        <ele>847.8</ele>
        <time>2026-03-01T13:12:26Z</time>
      </trkpt>
      <trkpt lat="43.024171" lon="-1.813132">
        <ele>846.2</ele>
        <time>2026-03-01T13:12:28Z</time>
      </trkpt>
      <trkpt lat="43.024200" lon="-1.813200">
        <ele>845.0</ele>
        <time>2026-03-01T13:12:30Z</time>
      </trkpt>
      <trkpt lat="43.024234" lon="-1.813218">
        <ele>844.4</ele>
        <time>2026-03-01T13:12:31Z</time>
      </trkpt>
      <trkpt lat="43.024234" lon="-1.813255">
        <ele>844.0</ele>
        <time>2026-03-01T13:12:32Z</time>
      </trkpt>
      <trkpt lat="43.024236" lon="-1.813289">
        <ele>843.8</ele>
        <time>2026-03-01T13:12:33Z</time>
      </trkpt>
      <trkpt lat="43.024225" lon="-1.813322">
        <ele>843.4</ele>
        <time>2026-03-01T13:12:34Z</time>
      </trkpt>
      <trkpt lat="43.024209" lon="-1.813368">
        <ele>842.6</ele>
        <time>2026-03-01T13:12:35Z</time>
      </trkpt>
      <trkpt lat="43.024165" lon="-1.813503">
        <ele>841.4</ele>
        <time>2026-03-01T13:12:37Z</time>
      </trkpt>
      <trkpt lat="43.024146" lon="-1.813573">
        <ele>840.2</ele>
        <time>2026-03-01T13:12:38Z</time>
      </trkpt>
      <trkpt lat="43.024125" lon="-1.813639">
        <ele>839.6</ele>
        <time>2026-03-01T13:12:39Z</time>
      </trkpt>
      <trkpt lat="43.024094" lon="-1.813710">
        <ele>839.0</ele>
        <time>2026-03-01T13:12:40Z</time>
      </trkpt>
      <trkpt lat="43.024055" lon="-1.813786">
        <ele>838.8</ele>
        <time>2026-03-01T13:12:41Z</time>
      </trkpt>
      <trkpt lat="43.023988" lon="-1.813865">
        <ele>838.6</ele>
        <time>2026-03-01T13:12:43Z</time>
      </trkpt>
      <trkpt lat="43.023931" lon="-1.813926">
        <ele>838.8</ele>
        <time>2026-03-01T13:12:45Z</time>
      </trkpt>
      <trkpt lat="43.023895" lon="-1.814000">
        <ele>838.8</ele>
        <time>2026-03-01T13:12:47Z</time>
      </trkpt>
      <trkpt lat="43.023900" lon="-1.814031">
        <ele>838.8</ele>
        <time>2026-03-01T13:12:48Z</time>
      </trkpt>
      <trkpt lat="43.023897" lon="-1.814074">
        <ele>838.2</ele>
        <time>2026-03-01T13:12:49Z</time>
      </trkpt>
      <trkpt lat="43.023892" lon="-1.814108">
        <ele>837.2</ele>
        <time>2026-03-01T13:12:50Z</time>
      </trkpt>
      <trkpt lat="43.023898" lon="-1.814163">
        <ele>835.8</ele>
        <time>2026-03-01T13:12:52Z</time>
      </trkpt>
      <trkpt lat="43.023906" lon="-1.814177">
        <ele>835.2</ele>
        <time>2026-03-01T13:12:53Z</time>
      </trkpt>
      <trkpt lat="43.023913" lon="-1.814196">
        <ele>835.0</ele>
        <time>2026-03-01T13:12:54Z</time>
      </trkpt>
      <trkpt lat="43.023918" lon="-1.814232">
        <ele>834.6</ele>
        <time>2026-03-01T13:12:55Z</time>
      </trkpt>
      <trkpt lat="43.023933" lon="-1.814272">
        <ele>833.4</ele>
        <time>2026-03-01T13:12:56Z</time>
      </trkpt>
      <trkpt lat="43.023942" lon="-1.814346">
        <ele>832.2</ele>
        <time>2026-03-01T13:12:58Z</time>
      </trkpt>
      <trkpt lat="43.023946" lon="-1.814356">
        <ele>832.0</ele>
        <time>2026-03-01T13:12:59Z</time>
      </trkpt>
      <trkpt lat="43.023960" lon="-1.814436">
        <ele>832.2</ele>
        <time>2026-03-01T13:13:05Z</time>
      </trkpt>
      <trkpt lat="43.023927" lon="-1.814571">
        <ele>832.2</ele>
        <time>2026-03-01T13:13:10Z</time>
      </trkpt>
      <trkpt lat="43.023911" lon="-1.814655">
        <ele>832.4</ele>
        <time>2026-03-01T13:13:16Z</time>
      </trkpt>
      <trkpt lat="43.023909" lon="-1.814672">
        <ele>832.4</ele>
        <time>2026-03-01T13:13:18Z</time>
      </trkpt>
      <trkpt lat="43.023908" lon="-1.814705">
        <ele>832.4</ele>
        <time>2026-03-01T13:13:22Z</time>
      </trkpt>
      <trkpt lat="43.023906" lon="-1.814704">
        <ele>832.6</ele>
        <time>2026-03-01T13:13:26Z</time>
      </trkpt>
      <trkpt lat="43.023881" lon="-1.814703">
        <ele>832.6</ele>
        <time>2026-03-01T13:13:36Z</time>
      </trkpt>
      <trkpt lat="43.023887" lon="-1.814695">
        <ele>832.8</ele>
        <time>2026-03-01T13:13:43Z</time>
      </trkpt>
      <trkpt lat="43.023885" lon="-1.814699">
        <ele>833.2</ele>
        <time>2026-03-01T13:13:50Z</time>
      </trkpt>
      <trkpt lat="43.023884" lon="-1.814698">
        <ele>833.0</ele>
        <time>2026-03-01T13:13:51Z</time>
      </trkpt>
      <trkpt lat="43.023884" lon="-1.814687">
        <ele>833.0</ele>
        <time>2026-03-01T13:13:55Z</time>
      </trkpt>
      <trkpt lat="43.023864" lon="-1.814690">
        <ele>832.8</ele>
        <time>2026-03-01T13:13:58Z</time>
      </trkpt>
      <trkpt lat="43.023854" lon="-1.814700">
        <ele>832.2</ele>
        <time>2026-03-01T13:14:00Z</time>
      </trkpt>
      <trkpt lat="43.023846" lon="-1.814721">
        <ele>831.4</ele>
        <time>2026-03-01T13:14:03Z</time>
      </trkpt>
      <trkpt lat="43.023840" lon="-1.814715">
        <ele>831.0</ele>
        <time>2026-03-01T13:14:04Z</time>
      </trkpt>
      <trkpt lat="43.023842" lon="-1.814721">
        <ele>830.2</ele>
        <time>2026-03-01T13:14:07Z</time>
      </trkpt>
      <trkpt lat="43.023836" lon="-1.814772">
        <ele>830.2</ele>
        <time>2026-03-01T13:14:11Z</time>
      </trkpt>
      <trkpt lat="43.023838" lon="-1.814773">
        <ele>830.0</ele>
        <time>2026-03-01T13:14:18Z</time>
      </trkpt>
      <trkpt lat="43.023837" lon="-1.814772">
        <ele>830.0</ele>
        <time>2026-03-01T13:14:19Z</time>
      </trkpt>
      <trkpt lat="43.023837" lon="-1.814772">
        <ele>830.0</ele>
        <time>2026-03-01T13:14:20Z</time>
      </trkpt>
      <trkpt lat="43.023847" lon="-1.814765">
        <ele>829.8</ele>
        <time>2026-03-01T13:14:27Z</time>
      </trkpt>
      <trkpt lat="43.023851" lon="-1.814743">
        <ele>829.8</ele>
        <time>2026-03-01T13:14:34Z</time>
      </trkpt>
      <trkpt lat="43.023848" lon="-1.814739">
        <ele>829.8</ele>
        <time>2026-03-01T13:14:37Z</time>
      </trkpt>
      <trkpt lat="43.023855" lon="-1.814736">
        <ele>829.8</ele>
        <time>2026-03-01T13:14:42Z</time>
      </trkpt>
      <trkpt lat="43.023863" lon="-1.814724">
        <ele>829.8</ele>
        <time>2026-03-01T13:14:48Z</time>
      </trkpt>
      <trkpt lat="43.023868" lon="-1.814704">
        <ele>829.8</ele>
        <time>2026-03-01T13:14:49Z</time>
      </trkpt>
      <trkpt lat="43.023873" lon="-1.814667">
        <ele>831.4</ele>
        <time>2026-03-01T13:14:51Z</time>
      </trkpt>
      <trkpt lat="43.023868" lon="-1.814652">
        <ele>832.4</ele>
        <time>2026-03-01T13:14:54Z</time>
      </trkpt>
      <trkpt lat="43.023868" lon="-1.814666">
        <ele>832.8</ele>
        <time>2026-03-01T13:14:57Z</time>
      </trkpt>
      <trkpt lat="43.023863" lon="-1.814698">
        <ele>832.2</ele>
        <time>2026-03-01T13:15:00Z</time>
      </trkpt>
      <trkpt lat="43.023859" lon="-1.814700">
        <ele>831.0</ele>
        <time>2026-03-01T13:15:02Z</time>
      </trkpt>
      <trkpt lat="43.023872" lon="-1.814716">
        <ele>830.2</ele>
        <time>2026-03-01T13:15:05Z</time>
      </trkpt>
      <trkpt lat="43.023893" lon="-1.814707">
        <ele>830.0</ele>
        <time>2026-03-01T13:15:07Z</time>
      </trkpt>
      <trkpt lat="43.023897" lon="-1.814711">
        <ele>830.0</ele>
        <time>2026-03-01T13:15:10Z</time>
      </trkpt>
      <trkpt lat="43.023900" lon="-1.814709">
        <ele>830.0</ele>
        <time>2026-03-01T13:15:12Z</time>
      </trkpt>
      <trkpt lat="43.023893" lon="-1.814682">
        <ele>829.8</ele>
        <time>2026-03-01T13:15:21Z</time>
      </trkpt>
      <trkpt lat="43.023863" lon="-1.814672">
        <ele>829.8</ele>
        <time>2026-03-01T13:15:25Z</time>
      </trkpt>
      <trkpt lat="43.023836" lon="-1.814668">
        <ele>829.6</ele>
        <time>2026-03-01T13:15:28Z</time>
      </trkpt>
      <trkpt lat="43.023812" lon="-1.814754">
        <ele>829.4</ele>
        <time>2026-03-01T13:15:37Z</time>
      </trkpt>
      <trkpt lat="43.023804" lon="-1.814767">
        <ele>829.4</ele>
        <time>2026-03-01T13:15:40Z</time>
      </trkpt>
      <trkpt lat="43.023806" lon="-1.814772">
        <ele>829.4</ele>
        <time>2026-03-01T13:15:42Z</time>
      </trkpt>
      <trkpt lat="43.023798" lon="-1.814785">
        <ele>829.4</ele>
        <time>2026-03-01T13:15:43Z</time>
      </trkpt>
      <trkpt lat="43.023743" lon="-1.814812">
        <ele>829.4</ele>
        <time>2026-03-01T13:15:46Z</time>
      </trkpt>
      <trkpt lat="43.023719" lon="-1.814824">
        <ele>828.8</ele>
        <time>2026-03-01T13:15:48Z</time>
      </trkpt>
      <trkpt lat="43.023697" lon="-1.814860">
        <ele>829.0</ele>
        <time>2026-03-01T13:15:50Z</time>
      </trkpt>
      <trkpt lat="43.023672" lon="-1.814922">
        <ele>829.0</ele>
        <time>2026-03-01T13:15:54Z</time>
      </trkpt>
      <trkpt lat="43.023672" lon="-1.814951">
        <ele>828.8</ele>
        <time>2026-03-01T13:15:55Z</time>
      </trkpt>
      <trkpt lat="43.023686" lon="-1.814969">
        <ele>828.8</ele>
        <time>2026-03-01T13:15:56Z</time>
      </trkpt>
      <trkpt lat="43.023733" lon="-1.814988">
        <ele>828.2</ele>
        <time>2026-03-01T13:15:58Z</time>
      </trkpt>
      <trkpt lat="43.023755" lon="-1.815013">
        <ele>827.4</ele>
        <time>2026-03-01T13:15:59Z</time>
      </trkpt>
      <trkpt lat="43.023788" lon="-1.815059">
        <ele>825.6</ele>
        <time>2026-03-01T13:16:01Z</time>
      </trkpt>
      <trkpt lat="43.023801" lon="-1.815077">
        <ele>825.2</ele>
        <time>2026-03-01T13:16:02Z</time>
      </trkpt>
      <trkpt lat="43.023804" lon="-1.815094">
        <ele>824.6</ele>
        <time>2026-03-01T13:16:03Z</time>
      </trkpt>
      <trkpt lat="43.023814" lon="-1.815117">
        <ele>824.4</ele>
        <time>2026-03-01T13:16:04Z</time>
      </trkpt>
      <trkpt lat="43.023820" lon="-1.815144">
        <ele>824.0</ele>
        <time>2026-03-01T13:16:05Z</time>
      </trkpt>
      <trkpt lat="43.023778" lon="-1.815224">
        <ele>822.8</ele>
        <time>2026-03-01T13:16:07Z</time>
      </trkpt>
      <trkpt lat="43.023768" lon="-1.815253">
        <ele>822.2</ele>
        <time>2026-03-01T13:16:08Z</time>
      </trkpt>
      <trkpt lat="43.023759" lon="-1.815318">
        <ele>821.6</ele>
        <time>2026-03-01T13:16:10Z</time>
      </trkpt>
      <trkpt lat="43.023773" lon="-1.815328">
        <ele>820.6</ele>
        <time>2026-03-01T13:16:11Z</time>
      </trkpt>
      <trkpt lat="43.023786" lon="-1.815333">
        <ele>820.2</ele>
        <time>2026-03-01T13:16:12Z</time>
      </trkpt>
      <trkpt lat="43.023840" lon="-1.815408">
        <ele>819.0</ele>
        <time>2026-03-01T13:16:16Z</time>
      </trkpt>
      <trkpt lat="43.023855" lon="-1.815425">
        <ele>819.0</ele>
        <time>2026-03-01T13:16:17Z</time>
      </trkpt>
      <trkpt lat="43.023897" lon="-1.815460">
        <ele>818.4</ele>
        <time>2026-03-01T13:16:19Z</time>
      </trkpt>
      <trkpt lat="43.023924" lon="-1.815521">
        <ele>817.8</ele>
        <time>2026-03-01T13:16:21Z</time>
      </trkpt>
      <trkpt lat="43.023939" lon="-1.815538">
        <ele>817.8</ele>
        <time>2026-03-01T13:16:22Z</time>
      </trkpt>
      <trkpt lat="43.023972" lon="-1.815583">
        <ele>816.8</ele>
        <time>2026-03-01T13:16:25Z</time>
      </trkpt>
      <trkpt lat="43.023993" lon="-1.815626">
        <ele>815.8</ele>
        <time>2026-03-01T13:16:27Z</time>
      </trkpt>
      <trkpt lat="43.024024" lon="-1.815664">
        <ele>814.6</ele>
        <time>2026-03-01T13:16:29Z</time>
      </trkpt>
      <trkpt lat="43.024047" lon="-1.815701">
        <ele>813.4</ele>
        <time>2026-03-01T13:16:31Z</time>
      </trkpt>
      <trkpt lat="43.024047" lon="-1.815722">
        <ele>812.6</ele>
        <time>2026-03-01T13:16:32Z</time>
      </trkpt>
      <trkpt lat="43.024032" lon="-1.815750">
        <ele>812.0</ele>
        <time>2026-03-01T13:16:33Z</time>
      </trkpt>
      <trkpt lat="43.023972" lon="-1.815814">
        <ele>811.0</ele>
        <time>2026-03-01T13:16:35Z</time>
      </trkpt>
      <trkpt lat="43.023933" lon="-1.815846">
        <ele>810.0</ele>
        <time>2026-03-01T13:16:36Z</time>
      </trkpt>
      <trkpt lat="43.023886" lon="-1.815885">
        <ele>808.6</ele>
        <time>2026-03-01T13:16:37Z</time>
      </trkpt>
      <trkpt lat="43.023785" lon="-1.815982">
        <ele>807.0</ele>
        <time>2026-03-01T13:16:39Z</time>
      </trkpt>
      <trkpt lat="43.023746" lon="-1.816043">
        <ele>805.4</ele>
        <time>2026-03-01T13:16:40Z</time>
      </trkpt>
      <trkpt lat="43.023718" lon="-1.816098">
        <ele>804.6</ele>
        <time>2026-03-01T13:16:41Z</time>
      </trkpt>
      <trkpt lat="43.023682" lon="-1.816167">
        <ele>803.2</ele>
        <time>2026-03-01T13:16:42Z</time>
      </trkpt>
      <trkpt lat="43.023657" lon="-1.816231">
        <ele>802.0</ele>
        <time>2026-03-01T13:16:43Z</time>
      </trkpt>
      <trkpt lat="43.023646" lon="-1.816312">
        <ele>800.0</ele>
        <time>2026-03-01T13:16:45Z</time>
      </trkpt>
      <trkpt lat="43.023663" lon="-1.816333">
        <ele>798.8</ele>
        <time>2026-03-01T13:16:46Z</time>
      </trkpt>
      <trkpt lat="43.023701" lon="-1.816343">
        <ele>797.4</ele>
        <time>2026-03-01T13:16:47Z</time>
      </trkpt>
      <trkpt lat="43.023782" lon="-1.816338">
        <ele>795.2</ele>
        <time>2026-03-01T13:16:49Z</time>
      </trkpt>
      <trkpt lat="43.023864" lon="-1.816354">
        <ele>793.6</ele>
        <time>2026-03-01T13:16:51Z</time>
      </trkpt>
      <trkpt lat="43.023924" lon="-1.816389">
        <ele>792.4</ele>
        <time>2026-03-01T13:16:53Z</time>
      </trkpt>
      <trkpt lat="43.023940" lon="-1.816432">
        <ele>791.4</ele>
        <time>2026-03-01T13:16:55Z</time>
      </trkpt>
      <trkpt lat="43.023938" lon="-1.816460">
        <ele>791.0</ele>
        <time>2026-03-01T13:16:57Z</time>
      </trkpt>
      <trkpt lat="43.023943" lon="-1.816469">
        <ele>790.6</ele>
        <time>2026-03-01T13:16:59Z</time>
      </trkpt>
      <trkpt lat="43.023942" lon="-1.816472">
        <ele>790.4</ele>
        <time>2026-03-01T13:17:00Z</time>
      </trkpt>
      <trkpt lat="43.023937" lon="-1.816487">
        <ele>789.4</ele>
        <time>2026-03-01T13:17:04Z</time>
      </trkpt>
      <trkpt lat="43.023935" lon="-1.816502">
        <ele>789.2</ele>
        <time>2026-03-01T13:17:05Z</time>
      </trkpt>
      <trkpt lat="43.023927" lon="-1.816569">
        <ele>788.0</ele>
        <time>2026-03-01T13:17:08Z</time>
      </trkpt>
      <trkpt lat="43.023945" lon="-1.816609">
        <ele>786.2</ele>
        <time>2026-03-01T13:17:10Z</time>
      </trkpt>
      <trkpt lat="43.023959" lon="-1.816638">
        <ele>785.4</ele>
        <time>2026-03-01T13:17:11Z</time>
      </trkpt>
      <trkpt lat="43.023969" lon="-1.816674">
        <ele>784.8</ele>
        <time>2026-03-01T13:17:12Z</time>
      </trkpt>
      <trkpt lat="43.023961" lon="-1.816703">
        <ele>783.6</ele>
        <time>2026-03-01T13:17:13Z</time>
      </trkpt>
      <trkpt lat="43.023946" lon="-1.816734">
        <ele>782.6</ele>
        <time>2026-03-01T13:17:14Z</time>
      </trkpt>
      <trkpt lat="43.023953" lon="-1.816767">
        <ele>781.2</ele>
        <time>2026-03-01T13:17:15Z</time>
      </trkpt>
      <trkpt lat="43.023955" lon="-1.816803">
        <ele>779.8</ele>
        <time>2026-03-01T13:17:16Z</time>
      </trkpt>
      <trkpt lat="43.023949" lon="-1.816832">
        <ele>779.0</ele>
        <time>2026-03-01T13:17:17Z</time>
      </trkpt>
      <trkpt lat="43.023938" lon="-1.816860">
        <ele>778.4</ele>
        <time>2026-03-01T13:17:18Z</time>
      </trkpt>
      <trkpt lat="43.023936" lon="-1.816893">
        <ele>777.2</ele>
        <time>2026-03-01T13:17:19Z</time>
      </trkpt>
      <trkpt lat="43.023950" lon="-1.816932">
        <ele>776.2</ele>
        <time>2026-03-01T13:17:20Z</time>
      </trkpt>
      <trkpt lat="43.023979" lon="-1.817036">
        <ele>774.6</ele>
        <time>2026-03-01T13:17:22Z</time>
      </trkpt>
      <trkpt lat="43.023985" lon="-1.817108">
        <ele>772.8</ele>
        <time>2026-03-01T13:17:23Z</time>
      </trkpt>
      <trkpt lat="43.023998" lon="-1.817243">
        <ele>771.4</ele>
        <time>2026-03-01T13:17:25Z</time>
      </trkpt>
      <trkpt lat="43.023998" lon="-1.817297">
        <ele>771.0</ele>
        <time>2026-03-01T13:17:26Z</time>
      </trkpt>
      <trkpt lat="43.023991" lon="-1.817343">
        <ele>770.6</ele>
        <time>2026-03-01T13:17:27Z</time>
      </trkpt>
      <trkpt lat="43.023984" lon="-1.817380">
        <ele>770.2</ele>
        <time>2026-03-01T13:17:28Z</time>
      </trkpt>
      <trkpt lat="43.023948" lon="-1.817506">
        <ele>769.4</ele>
        <time>2026-03-01T13:17:30Z</time>
      </trkpt>
      <trkpt lat="43.023924" lon="-1.817570">
        <ele>768.6</ele>
        <time>2026-03-01T13:17:31Z</time>
      </trkpt>
      <trkpt lat="43.023862" lon="-1.817714">
        <ele>765.4</ele>
        <time>2026-03-01T13:17:33Z</time>
      </trkpt>
      <trkpt lat="43.023831" lon="-1.817773">
        <ele>764.2</ele>
        <time>2026-03-01T13:17:34Z</time>
      </trkpt>
      <trkpt lat="43.023815" lon="-1.817820">
        <ele>763.4</ele>
        <time>2026-03-01T13:17:35Z</time>
      </trkpt>
      <trkpt lat="43.023809" lon="-1.817858">
        <ele>763.0</ele>
        <time>2026-03-01T13:17:36Z</time>
      </trkpt>
      <trkpt lat="43.023819" lon="-1.817889">
        <ele>762.8</ele>
        <time>2026-03-01T13:17:37Z</time>
      </trkpt>
      <trkpt lat="43.023843" lon="-1.817942">
        <ele>762.0</ele>
        <time>2026-03-01T13:17:39Z</time>
      </trkpt>
      <trkpt lat="43.023850" lon="-1.817976">
        <ele>761.6</ele>
        <time>2026-03-01T13:17:40Z</time>
      </trkpt>
      <trkpt lat="43.023860" lon="-1.817999">
        <ele>761.4</ele>
        <time>2026-03-01T13:17:42Z</time>
      </trkpt>
      <trkpt lat="43.023863" lon="-1.818065">
        <ele>761.2</ele>
        <time>2026-03-01T13:17:47Z</time>
      </trkpt>
      <trkpt lat="43.023865" lon="-1.818080">
        <ele>761.0</ele>
        <time>2026-03-01T13:17:48Z</time>
      </trkpt>
      <trkpt lat="43.023867" lon="-1.818095">
        <ele>760.8</ele>
        <time>2026-03-01T13:17:49Z</time>
      </trkpt>
      <trkpt lat="43.023868" lon="-1.818140">
        <ele>759.6</ele>
        <time>2026-03-01T13:17:52Z</time>
      </trkpt>
      <trkpt lat="43.023860" lon="-1.818166">
        <ele>758.6</ele>
        <time>2026-03-01T13:17:54Z</time>
      </trkpt>
      <trkpt lat="43.023847" lon="-1.818187">
        <ele>757.6</ele>
        <time>2026-03-01T13:17:55Z</time>
      </trkpt>
      <trkpt lat="43.023835" lon="-1.818207">
        <ele>757.0</ele>
        <time>2026-03-01T13:17:57Z</time>
      </trkpt>
      <trkpt lat="43.023833" lon="-1.818207">
        <ele>756.6</ele>
        <time>2026-03-01T13:17:58Z</time>
      </trkpt>
      <trkpt lat="43.023829" lon="-1.818213">
        <ele>756.4</ele>
        <time>2026-03-01T13:17:59Z</time>
      </trkpt>
      <trkpt lat="43.023821" lon="-1.818217">
        <ele>756.2</ele>
        <time>2026-03-01T13:18:00Z</time>
      </trkpt>
      <trkpt lat="43.023808" lon="-1.818210">
        <ele>756.2</ele>
        <time>2026-03-01T13:18:01Z</time>
      </trkpt>
      <trkpt lat="43.023767" lon="-1.818187">
        <ele>755.4</ele>
        <time>2026-03-01T13:18:03Z</time>
      </trkpt>
      <trkpt lat="43.023719" lon="-1.818175">
        <ele>754.0</ele>
        <time>2026-03-01T13:18:05Z</time>
      </trkpt>
      <trkpt lat="43.023697" lon="-1.818183">
        <ele>753.2</ele>
        <time>2026-03-01T13:18:06Z</time>
      </trkpt>
      <trkpt lat="43.023684" lon="-1.818198">
        <ele>752.8</ele>
        <time>2026-03-01T13:18:07Z</time>
      </trkpt>
      <trkpt lat="43.023674" lon="-1.818254">
        <ele>751.2</ele>
        <time>2026-03-01T13:18:09Z</time>
      </trkpt>
      <trkpt lat="43.023668" lon="-1.818275">
        <ele>750.0</ele>
        <time>2026-03-01T13:18:10Z</time>
      </trkpt>
      <trkpt lat="43.023645" lon="-1.818321">
        <ele>748.0</ele>
        <time>2026-03-01T13:18:12Z</time>
      </trkpt>
      <trkpt lat="43.023635" lon="-1.818350">
        <ele>746.8</ele>
        <time>2026-03-01T13:18:13Z</time>
      </trkpt>
      <trkpt lat="43.023625" lon="-1.818397">
        <ele>745.2</ele>
        <time>2026-03-01T13:18:14Z</time>
      </trkpt>
      <trkpt lat="43.023632" lon="-1.818440">
        <ele>744.4</ele>
        <time>2026-03-01T13:18:15Z</time>
      </trkpt>
      <trkpt lat="43.023648" lon="-1.818478">
        <ele>743.8</ele>
        <time>2026-03-01T13:18:16Z</time>
      </trkpt>
      <trkpt lat="43.023678" lon="-1.818518">
        <ele>743.2</ele>
        <time>2026-03-01T13:18:18Z</time>
      </trkpt>
      <trkpt lat="43.023684" lon="-1.818532">
        <ele>743.0</ele>
        <time>2026-03-01T13:18:19Z</time>
      </trkpt>
      <trkpt lat="43.023688" lon="-1.818552">
        <ele>743.0</ele>
        <time>2026-03-01T13:18:20Z</time>
      </trkpt>
      <trkpt lat="43.023716" lon="-1.818660">
        <ele>743.2</ele>
        <time>2026-03-01T13:18:23Z</time>
      </trkpt>
      <trkpt lat="43.023706" lon="-1.818759">
        <ele>742.6</ele>
        <time>2026-03-01T13:18:25Z</time>
      </trkpt>
      <trkpt lat="43.023702" lon="-1.818835">
        <ele>741.8</ele>
        <time>2026-03-01T13:18:27Z</time>
      </trkpt>
      <trkpt lat="43.023692" lon="-1.818885">
        <ele>741.2</ele>
        <time>2026-03-01T13:18:28Z</time>
      </trkpt>
      <trkpt lat="43.023673" lon="-1.818928">
        <ele>740.8</ele>
        <time>2026-03-01T13:18:29Z</time>
      </trkpt>
      <trkpt lat="43.023667" lon="-1.819010">
        <ele>740.4</ele>
        <time>2026-03-01T13:18:31Z</time>
      </trkpt>
      <trkpt lat="43.023674" lon="-1.819040">
        <ele>740.4</ele>
        <time>2026-03-01T13:18:32Z</time>
      </trkpt>
      <trkpt lat="43.023673" lon="-1.819073">
        <ele>740.6</ele>
        <time>2026-03-01T13:18:33Z</time>
      </trkpt>
      <trkpt lat="43.023659" lon="-1.819125">
        <ele>741.0</ele>
        <time>2026-03-01T13:18:35Z</time>
      </trkpt>
      <trkpt lat="43.023635" lon="-1.819164">
        <ele>741.2</ele>
        <time>2026-03-01T13:18:36Z</time>
      </trkpt>
      <trkpt lat="43.023578" lon="-1.819258">
        <ele>741.2</ele>
        <time>2026-03-01T13:18:38Z</time>
      </trkpt>
      <trkpt lat="43.023511" lon="-1.819321">
        <ele>740.6</ele>
        <time>2026-03-01T13:18:40Z</time>
      </trkpt>
      <trkpt lat="43.023475" lon="-1.819368">
        <ele>740.0</ele>
        <time>2026-03-01T13:18:41Z</time>
      </trkpt>
      <trkpt lat="43.023417" lon="-1.819448">
        <ele>738.2</ele>
        <time>2026-03-01T13:18:43Z</time>
      </trkpt>
      <trkpt lat="43.023397" lon="-1.819509">
        <ele>737.4</ele>
        <time>2026-03-01T13:18:44Z</time>
      </trkpt>
      <trkpt lat="43.023381" lon="-1.819569">
        <ele>736.4</ele>
        <time>2026-03-01T13:18:45Z</time>
      </trkpt>
      <trkpt lat="43.023380" lon="-1.819627">
        <ele>735.6</ele>
        <time>2026-03-01T13:18:46Z</time>
      </trkpt>
      <trkpt lat="43.023386" lon="-1.819683">
        <ele>735.2</ele>
        <time>2026-03-01T13:18:47Z</time>
      </trkpt>
      <trkpt lat="43.023386" lon="-1.819741">
        <ele>734.6</ele>
        <time>2026-03-01T13:18:48Z</time>
      </trkpt>
      <trkpt lat="43.023393" lon="-1.819810">
        <ele>734.0</ele>
        <time>2026-03-01T13:18:50Z</time>
      </trkpt>
      <trkpt lat="43.023405" lon="-1.819875">
        <ele>734.2</ele>
        <time>2026-03-01T13:18:52Z</time>
      </trkpt>
      <trkpt lat="43.023420" lon="-1.819934">
        <ele>735.2</ele>
        <time>2026-03-01T13:18:54Z</time>
      </trkpt>
      <trkpt lat="43.023416" lon="-1.819983">
        <ele>736.4</ele>
        <time>2026-03-01T13:18:56Z</time>
      </trkpt>
      <trkpt lat="43.023409" lon="-1.820014">
        <ele>736.6</ele>
        <time>2026-03-01T13:18:57Z</time>
      </trkpt>
      <trkpt lat="43.023416" lon="-1.820112">
        <ele>735.2</ele>
        <time>2026-03-01T13:19:01Z</time>
      </trkpt>
      <trkpt lat="43.023418" lon="-1.820136">
        <ele>734.6</ele>
        <time>2026-03-01T13:19:02Z</time>
      </trkpt>
      <trkpt lat="43.023407" lon="-1.820188">
        <ele>734.0</ele>
        <time>2026-03-01T13:19:03Z</time>
      </trkpt>
      <trkpt lat="43.023399" lon="-1.820257">
        <ele>732.4</ele>
        <time>2026-03-01T13:19:05Z</time>
      </trkpt>
      <trkpt lat="43.023392" lon="-1.820276">
        <ele>731.0</ele>
        <time>2026-03-01T13:19:06Z</time>
      </trkpt>
      <trkpt lat="43.023387" lon="-1.820289">
        <ele>729.8</ele>
        <time>2026-03-01T13:19:07Z</time>
      </trkpt>
      <trkpt lat="43.023355" lon="-1.820336">
        <ele>728.6</ele>
        <time>2026-03-01T13:19:09Z</time>
      </trkpt>
      <trkpt lat="43.023339" lon="-1.820355">
        <ele>728.0</ele>
        <time>2026-03-01T13:19:10Z</time>
      </trkpt>
      <trkpt lat="43.023322" lon="-1.820383">
        <ele>727.4</ele>
        <time>2026-03-01T13:19:11Z</time>
      </trkpt>
      <trkpt lat="43.023270" lon="-1.820453">
        <ele>726.0</ele>
        <time>2026-03-01T13:19:13Z</time>
      </trkpt>
      <trkpt lat="43.023238" lon="-1.820479">
        <ele>725.2</ele>
        <time>2026-03-01T13:19:14Z</time>
      </trkpt>
      <trkpt lat="43.023206" lon="-1.820497">
        <ele>723.2</ele>
        <time>2026-03-01T13:19:15Z</time>
      </trkpt>
      <trkpt lat="43.023173" lon="-1.820496">
        <ele>722.0</ele>
        <time>2026-03-01T13:19:16Z</time>
      </trkpt>
      <trkpt lat="43.023146" lon="-1.820515">
        <ele>720.4</ele>
        <time>2026-03-01T13:19:17Z</time>
      </trkpt>
      <trkpt lat="43.023131" lon="-1.820535">
        <ele>719.4</ele>
        <time>2026-03-01T13:19:18Z</time>
      </trkpt>
      <trkpt lat="43.023129" lon="-1.820557">
        <ele>718.8</ele>
        <time>2026-03-01T13:19:19Z</time>
      </trkpt>
      <trkpt lat="43.023144" lon="-1.820584">
        <ele>717.4</ele>
        <time>2026-03-01T13:19:20Z</time>
      </trkpt>
      <trkpt lat="43.023150" lon="-1.820617">
        <ele>716.0</ele>
        <time>2026-03-01T13:19:21Z</time>
      </trkpt>
      <trkpt lat="43.023154" lon="-1.820647">
        <ele>715.0</ele>
        <time>2026-03-01T13:19:22Z</time>
      </trkpt>
      <trkpt lat="43.023167" lon="-1.820675">
        <ele>714.4</ele>
        <time>2026-03-01T13:19:23Z</time>
      </trkpt>
      <trkpt lat="43.023164" lon="-1.820709">
        <ele>713.2</ele>
        <time>2026-03-01T13:19:24Z</time>
      </trkpt>
      <trkpt lat="43.023155" lon="-1.820752">
        <ele>712.2</ele>
        <time>2026-03-01T13:19:25Z</time>
      </trkpt>
      <trkpt lat="43.023130" lon="-1.820773">
        <ele>711.0</ele>
        <time>2026-03-01T13:19:26Z</time>
      </trkpt>
      <trkpt lat="43.023103" lon="-1.820789">
        <ele>710.2</ele>
        <time>2026-03-01T13:19:27Z</time>
      </trkpt>
      <trkpt lat="43.023086" lon="-1.820791">
        <ele>709.8</ele>
        <time>2026-03-01T13:19:28Z</time>
      </trkpt>
      <trkpt lat="43.023064" lon="-1.820777">
        <ele>709.2</ele>
        <time>2026-03-01T13:19:30Z</time>
      </trkpt>
      <trkpt lat="43.023045" lon="-1.820810">
        <ele>708.8</ele>
        <time>2026-03-01T13:19:32Z</time>
      </trkpt>
      <trkpt lat="43.023023" lon="-1.820864">
        <ele>708.6</ele>
        <time>2026-03-01T13:19:34Z</time>
      </trkpt>
      <trkpt lat="43.023023" lon="-1.820864">
        <ele>708.2</ele>
        <time>2026-03-01T13:19:37Z</time>
      </trkpt>
      <trkpt lat="43.023022" lon="-1.820871">
        <ele>708.2</ele>
        <time>2026-03-01T13:19:41Z</time>
      </trkpt>
      <trkpt lat="43.023004" lon="-1.820879">
        <ele>708.2</ele>
        <time>2026-03-01T13:19:45Z</time>
      </trkpt>
      <trkpt lat="43.022991" lon="-1.820874">
        <ele>708.2</ele>
        <time>2026-03-01T13:19:47Z</time>
      </trkpt>
      <trkpt lat="43.022971" lon="-1.820872">
        <ele>708.4</ele>
        <time>2026-03-01T13:19:48Z</time>
      </trkpt>
      <trkpt lat="43.022934" lon="-1.820874">
        <ele>708.8</ele>
        <time>2026-03-01T13:19:50Z</time>
      </trkpt>
      <trkpt lat="43.022895" lon="-1.820899">
        <ele>709.0</ele>
        <time>2026-03-01T13:19:52Z</time>
      </trkpt>
      <trkpt lat="43.022849" lon="-1.820962">
        <ele>709.0</ele>
        <time>2026-03-01T13:19:55Z</time>
      </trkpt>
      <trkpt lat="43.022831" lon="-1.821063">
        <ele>709.2</ele>
        <time>2026-03-01T13:19:58Z</time>
      </trkpt>
      <trkpt lat="43.022827" lon="-1.821096">
        <ele>709.4</ele>
        <time>2026-03-01T13:19:59Z</time>
      </trkpt>
      <trkpt lat="43.022823" lon="-1.821131">
        <ele>709.4</ele>
        <time>2026-03-01T13:20:00Z</time>
      </trkpt>
      <trkpt lat="43.022816" lon="-1.821281">
        <ele>709.8</ele>
        <time>2026-03-01T13:20:04Z</time>
      </trkpt>
      <trkpt lat="43.022809" lon="-1.821370">
        <ele>710.4</ele>
        <time>2026-03-01T13:20:06Z</time>
      </trkpt>
      <trkpt lat="43.022796" lon="-1.821540">
        <ele>711.0</ele>
        <time>2026-03-01T13:20:10Z</time>
      </trkpt>
      <trkpt lat="43.022783" lon="-1.821674">
        <ele>711.8</ele>
        <time>2026-03-01T13:20:13Z</time>
      </trkpt>
      <trkpt lat="43.022746" lon="-1.821809">
        <ele>712.0</ele>
        <time>2026-03-01T13:20:16Z</time>
      </trkpt>
      <trkpt lat="43.022717" lon="-1.821839">
        <ele>712.2</ele>
        <time>2026-03-01T13:20:17Z</time>
      </trkpt>
      <trkpt lat="43.022610" lon="-1.821912">
        <ele>712.0</ele>
        <time>2026-03-01T13:20:20Z</time>
      </trkpt>
      <trkpt lat="43.022529" lon="-1.821938">
        <ele>712.2</ele>
        <time>2026-03-01T13:20:22Z</time>
      </trkpt>
      <trkpt lat="43.022405" lon="-1.821955">
        <ele>712.6</ele>
        <time>2026-03-01T13:20:25Z</time>
      </trkpt>
      <trkpt lat="43.022234" lon="-1.821964">
        <ele>712.4</ele>
        <time>2026-03-01T13:20:29Z</time>
      </trkpt>
      <trkpt lat="43.022014" lon="-1.821948">
        <ele>712.8</ele>
        <time>2026-03-01T13:20:34Z</time>
      </trkpt>
      <trkpt lat="43.021837" lon="-1.821924">
        <ele>712.8</ele>
        <time>2026-03-01T13:20:38Z</time>
      </trkpt>
      <trkpt lat="43.021553" lon="-1.821893">
        <ele>713.0</ele>
        <time>2026-03-01T13:20:45Z</time>
      </trkpt>
      <trkpt lat="43.021513" lon="-1.821889">
        <ele>713.2</ele>
        <time>2026-03-01T13:20:46Z</time>
      </trkpt>
      <trkpt lat="43.021252" lon="-1.821854">
        <ele>714.6</ele>
        <time>2026-03-01T13:20:53Z</time>
      </trkpt>
      <trkpt lat="43.021034" lon="-1.821830">
        <ele>715.6</ele>
        <time>2026-03-01T13:20:59Z</time>
      </trkpt>
      <trkpt lat="43.020897" lon="-1.821790">
        <ele>715.8</ele>
        <time>2026-03-01T13:21:03Z</time>
      </trkpt>
      <trkpt lat="43.020830" lon="-1.821770">
        <ele>716.2</ele>
        <time>2026-03-01T13:21:05Z</time>
      </trkpt>
      <trkpt lat="43.020797" lon="-1.821758">
        <ele>716.4</ele>
        <time>2026-03-01T13:21:06Z</time>
      </trkpt>
      <trkpt lat="43.020695" lon="-1.821713">
        <ele>716.8</ele>
        <time>2026-03-01T13:21:09Z</time>
      </trkpt>
      <trkpt lat="43.020663" lon="-1.821697">
        <ele>716.8</ele>
        <time>2026-03-01T13:21:10Z</time>
      </trkpt>
      <trkpt lat="43.020568" lon="-1.821645">
        <ele>716.8</ele>
        <time>2026-03-01T13:21:13Z</time>
      </trkpt>
      <trkpt lat="43.020508" lon="-1.821604">
        <ele>717.6</ele>
        <time>2026-03-01T13:21:15Z</time>
      </trkpt>
      <trkpt lat="43.020454" lon="-1.821560">
        <ele>718.0</ele>
        <time>2026-03-01T13:21:17Z</time>
      </trkpt>
      <trkpt lat="43.020364" lon="-1.821460">
        <ele>718.2</ele>
        <time>2026-03-01T13:21:21Z</time>
      </trkpt>
      <trkpt lat="43.020349" lon="-1.821429">
        <ele>718.4</ele>
        <time>2026-03-01T13:21:22Z</time>
      </trkpt>
      <trkpt lat="43.020323" lon="-1.821286">
        <ele>718.6</ele>
        <time>2026-03-01T13:21:26Z</time>
      </trkpt>
      <trkpt lat="43.020343" lon="-1.821055">
        <ele>719.0</ele>
        <time>2026-03-01T13:21:32Z</time>
      </trkpt>
      <trkpt lat="43.020357" lon="-1.820801">
        <ele>719.0</ele>
        <time>2026-03-01T13:21:39Z</time>
      </trkpt>
      <trkpt lat="43.020348" lon="-1.820764">
        <ele>719.2</ele>
        <time>2026-03-01T13:21:40Z</time>
      </trkpt>
      <trkpt lat="43.020312" lon="-1.820611">
        <ele>720.4</ele>
        <time>2026-03-01T13:21:44Z</time>
      </trkpt>
      <trkpt lat="43.020296" lon="-1.820545">
        <ele>721.4</ele>
        <time>2026-03-01T13:21:46Z</time>
      </trkpt>
      <trkpt lat="43.020283" lon="-1.820484">
        <ele>722.4</ele>
        <time>2026-03-01T13:21:48Z</time>
      </trkpt>
      <trkpt lat="43.020274" lon="-1.820460">
        <ele>722.6</ele>
        <time>2026-03-01T13:21:49Z</time>
      </trkpt>
      <trkpt lat="43.020264" lon="-1.820440">
        <ele>722.8</ele>
        <time>2026-03-01T13:21:50Z</time>
      </trkpt>
      <trkpt lat="43.020255" lon="-1.820420">
        <ele>723.0</ele>
        <time>2026-03-01T13:21:51Z</time>
      </trkpt>
      <trkpt lat="43.020246" lon="-1.820399">
        <ele>723.4</ele>
        <time>2026-03-01T13:21:52Z</time>
      </trkpt>
      <trkpt lat="43.020239" lon="-1.820379">
        <ele>723.6</ele>
        <time>2026-03-01T13:21:53Z</time>
      </trkpt>
      <trkpt lat="43.020231" lon="-1.820361">
        <ele>724.0</ele>
        <time>2026-03-01T13:21:54Z</time>
      </trkpt>
      <trkpt lat="43.020179" lon="-1.820243">
        <ele>724.8</ele>
        <time>2026-03-01T13:21:59Z</time>
      </trkpt>
      <trkpt lat="43.020154" lon="-1.820192">
        <ele>725.0</ele>
        <time>2026-03-01T13:22:01Z</time>
      </trkpt>
      <trkpt lat="43.020096" lon="-1.820102">
        <ele>725.8</ele>
        <time>2026-03-01T13:22:06Z</time>
      </trkpt>
      <trkpt lat="43.020052" lon="-1.820031">
        <ele>726.8</ele>
        <time>2026-03-01T13:22:10Z</time>
      </trkpt>
      <trkpt lat="43.020043" lon="-1.820011">
        <ele>727.0</ele>
        <time>2026-03-01T13:22:11Z</time>
      </trkpt>
      <trkpt lat="43.019991" lon="-1.819926">
        <ele>728.0</ele>
        <time>2026-03-01T13:22:16Z</time>
      </trkpt>
      <trkpt lat="43.019969" lon="-1.819906">
        <ele>728.4</ele>
        <time>2026-03-01T13:22:18Z</time>
      </trkpt>
      <trkpt lat="43.019944" lon="-1.819863">
        <ele>729.4</ele>
        <time>2026-03-01T13:22:22Z</time>
      </trkpt>
      <trkpt lat="43.019936" lon="-1.819855">
        <ele>729.4</ele>
        <time>2026-03-01T13:22:23Z</time>
      </trkpt>
      <trkpt lat="43.019894" lon="-1.819819">
        <ele>730.6</ele>
        <time>2026-03-01T13:22:27Z</time>
      </trkpt>
      <trkpt lat="43.019838" lon="-1.819776">
        <ele>731.4</ele>
        <time>2026-03-01T13:22:31Z</time>
      </trkpt>
      <trkpt lat="43.019811" lon="-1.819755">
        <ele>731.6</ele>
        <time>2026-03-01T13:22:32Z</time>
      </trkpt>
      <trkpt lat="43.019718" lon="-1.819727">
        <ele>732.8</ele>
        <time>2026-03-01T13:22:36Z</time>
      </trkpt>
      <trkpt lat="43.019697" lon="-1.819734">
        <ele>733.2</ele>
        <time>2026-03-01T13:22:37Z</time>
      </trkpt>
      <trkpt lat="43.019619" lon="-1.819779">
        <ele>733.4</ele>
        <time>2026-03-01T13:22:41Z</time>
      </trkpt>
      <trkpt lat="43.019589" lon="-1.819812">
        <ele>733.6</ele>
        <time>2026-03-01T13:22:43Z</time>
      </trkpt>
      <trkpt lat="43.019578" lon="-1.819831">
        <ele>733.6</ele>
        <time>2026-03-01T13:22:44Z</time>
      </trkpt>
      <trkpt lat="43.019560" lon="-1.819877">
        <ele>733.8</ele>
        <time>2026-03-01T13:22:46Z</time>
      </trkpt>
      <trkpt lat="43.019530" lon="-1.819977">
        <ele>735.0</ele>
        <time>2026-03-01T13:22:50Z</time>
      </trkpt>
      <trkpt lat="43.019525" lon="-1.820003">
        <ele>735.2</ele>
        <time>2026-03-01T13:22:51Z</time>
      </trkpt>
      <trkpt lat="43.019506" lon="-1.820190">
        <ele>736.0</ele>
        <time>2026-03-01T13:22:58Z</time>
      </trkpt>
      <trkpt lat="43.019504" lon="-1.820215">
        <ele>736.4</ele>
        <time>2026-03-01T13:22:59Z</time>
      </trkpt>
      <trkpt lat="43.019471" lon="-1.820301">
        <ele>737.2</ele>
        <time>2026-03-01T13:23:03Z</time>
      </trkpt>
      <trkpt lat="43.019452" lon="-1.820317">
        <ele>737.2</ele>
        <time>2026-03-01T13:23:04Z</time>
      </trkpt>
      <trkpt lat="43.019432" lon="-1.820329">
        <ele>737.4</ele>
        <time>2026-03-01T13:23:05Z</time>
      </trkpt>
      <trkpt lat="43.019392" lon="-1.820340">
        <ele>737.6</ele>
        <time>2026-03-01T13:23:07Z</time>
      </trkpt>
      <trkpt lat="43.019371" lon="-1.820333">
        <ele>737.6</ele>
        <time>2026-03-01T13:23:08Z</time>
      </trkpt>
      <trkpt lat="43.019351" lon="-1.820325">
        <ele>737.6</ele>
        <time>2026-03-01T13:23:09Z</time>
      </trkpt>
      <trkpt lat="43.019262" lon="-1.820205">
        <ele>738.4</ele>
        <time>2026-03-01T13:23:15Z</time>
      </trkpt>
      <trkpt lat="43.019193" lon="-1.820089">
        <ele>738.4</ele>
        <time>2026-03-01T13:23:21Z</time>
      </trkpt>
      <trkpt lat="43.019181" lon="-1.820074">
        <ele>738.4</ele>
        <time>2026-03-01T13:23:22Z</time>
      </trkpt>
      <trkpt lat="43.019140" lon="-1.820028">
        <ele>738.8</ele>
        <time>2026-03-01T13:23:25Z</time>
      </trkpt>
      <trkpt lat="43.019128" lon="-1.820011">
        <ele>738.8</ele>
        <time>2026-03-01T13:23:26Z</time>
      </trkpt>
      <trkpt lat="43.019103" lon="-1.819974">
        <ele>739.6</ele>
        <time>2026-03-01T13:23:28Z</time>
      </trkpt>
      <trkpt lat="43.019076" lon="-1.819939">
        <ele>740.0</ele>
        <time>2026-03-01T13:23:30Z</time>
      </trkpt>
      <trkpt lat="43.019023" lon="-1.819869">
        <ele>740.8</ele>
        <time>2026-03-01T13:23:34Z</time>
      </trkpt>
      <trkpt lat="43.018982" lon="-1.819819">
        <ele>741.4</ele>
        <time>2026-03-01T13:23:37Z</time>
      </trkpt>
      <trkpt lat="43.018969" lon="-1.819803">
        <ele>741.6</ele>
        <time>2026-03-01T13:23:38Z</time>
      </trkpt>
      <trkpt lat="43.018957" lon="-1.819784">
        <ele>741.8</ele>
        <time>2026-03-01T13:23:39Z</time>
      </trkpt>
      <trkpt lat="43.018894" lon="-1.819690">
        <ele>743.0</ele>
        <time>2026-03-01T13:23:44Z</time>
      </trkpt>
      <trkpt lat="43.018860" lon="-1.819639">
        <ele>743.2</ele>
        <time>2026-03-01T13:23:47Z</time>
      </trkpt>
      <trkpt lat="43.018797" lon="-1.819519">
        <ele>743.8</ele>
        <time>2026-03-01T13:23:53Z</time>
      </trkpt>
      <trkpt lat="43.018789" lon="-1.819504">
        <ele>744.2</ele>
        <time>2026-03-01T13:23:54Z</time>
      </trkpt>
      <trkpt lat="43.018742" lon="-1.819398">
        <ele>744.8</ele>
        <time>2026-03-01T13:24:00Z</time>
      </trkpt>
      <trkpt lat="43.018719" lon="-1.819340">
        <ele>745.4</ele>
        <time>2026-03-01T13:24:03Z</time>
      </trkpt>
      <trkpt lat="43.018672" lon="-1.819229">
        <ele>746.4</ele>
        <time>2026-03-01T13:24:08Z</time>
      </trkpt>
      <trkpt lat="43.018584" lon="-1.819084">
        <ele>747.4</ele>
        <time>2026-03-01T13:24:14Z</time>
      </trkpt>
      <trkpt lat="43.018538" lon="-1.818991">
        <ele>747.2</ele>
        <time>2026-03-01T13:24:18Z</time>
      </trkpt>
      <trkpt lat="43.018499" lon="-1.818924">
        <ele>747.2</ele>
        <time>2026-03-01T13:24:21Z</time>
      </trkpt>
      <trkpt lat="43.018488" lon="-1.818899">
        <ele>747.4</ele>
        <time>2026-03-01T13:24:22Z</time>
      </trkpt>
      <trkpt lat="43.018460" lon="-1.818822">
        <ele>748.8</ele>
        <time>2026-03-01T13:24:25Z</time>
      </trkpt>
      <trkpt lat="43.018431" lon="-1.818747">
        <ele>749.8</ele>
        <time>2026-03-01T13:24:28Z</time>
      </trkpt>
      <trkpt lat="43.018422" lon="-1.818722">
        <ele>750.0</ele>
        <time>2026-03-01T13:24:29Z</time>
      </trkpt>
      <trkpt lat="43.018381" lon="-1.818633">
        <ele>750.2</ele>
        <time>2026-03-01T13:24:33Z</time>
      </trkpt>
      <trkpt lat="43.018362" lon="-1.818594">
        <ele>750.2</ele>
        <time>2026-03-01T13:24:35Z</time>
      </trkpt>
      <trkpt lat="43.018355" lon="-1.818572">
        <ele>750.2</ele>
        <time>2026-03-01T13:24:36Z</time>
      </trkpt>
      <trkpt lat="43.018333" lon="-1.818517">
        <ele>751.2</ele>
        <time>2026-03-01T13:24:39Z</time>
      </trkpt>
      <trkpt lat="43.018327" lon="-1.818499">
        <ele>751.6</ele>
        <time>2026-03-01T13:24:40Z</time>
      </trkpt>
      <trkpt lat="43.018312" lon="-1.818445">
        <ele>752.2</ele>
        <time>2026-03-01T13:24:43Z</time>
      </trkpt>
      <trkpt lat="43.018289" lon="-1.818393">
        <ele>752.8</ele>
        <time>2026-03-01T13:24:46Z</time>
      </trkpt>
      <trkpt lat="43.018286" lon="-1.818376">
        <ele>753.0</ele>
        <time>2026-03-01T13:24:47Z</time>
      </trkpt>
      <trkpt lat="43.018268" lon="-1.818323">
        <ele>753.4</ele>
        <time>2026-03-01T13:24:50Z</time>
      </trkpt>
      <trkpt lat="43.018264" lon="-1.818305">
        <ele>753.6</ele>
        <time>2026-03-01T13:24:51Z</time>
      </trkpt>
      <trkpt lat="43.018216" lon="-1.818200">
        <ele>754.2</ele>
        <time>2026-03-01T13:24:55Z</time>
      </trkpt>
      <trkpt lat="43.018206" lon="-1.818171">
        <ele>754.4</ele>
        <time>2026-03-01T13:24:56Z</time>
      </trkpt>
      <trkpt lat="43.018186" lon="-1.818122">
        <ele>755.2</ele>
        <time>2026-03-01T13:24:58Z</time>
      </trkpt>
      <trkpt lat="43.018118" lon="-1.817922">
        <ele>756.0</ele>
        <time>2026-03-01T13:25:06Z</time>
      </trkpt>
      <trkpt lat="43.018112" lon="-1.817869">
        <ele>757.0</ele>
        <time>2026-03-01T13:25:08Z</time>
      </trkpt>
      <trkpt lat="43.018111" lon="-1.817815">
        <ele>757.4</ele>
        <time>2026-03-01T13:25:10Z</time>
      </trkpt>
      <trkpt lat="43.018103" lon="-1.817680">
        <ele>757.4</ele>
        <time>2026-03-01T13:25:15Z</time>
      </trkpt>
      <trkpt lat="43.018061" lon="-1.817500">
        <ele>757.8</ele>
        <time>2026-03-01T13:25:22Z</time>
      </trkpt>
      <trkpt lat="43.018050" lon="-1.817476">
        <ele>758.0</ele>
        <time>2026-03-01T13:25:23Z</time>
      </trkpt>
      <trkpt lat="43.018039" lon="-1.817454">
        <ele>758.2</ele>
        <time>2026-03-01T13:25:24Z</time>
      </trkpt>
      <trkpt lat="43.017990" lon="-1.817331">
        <ele>759.2</ele>
        <time>2026-03-01T13:25:30Z</time>
      </trkpt>
      <trkpt lat="43.017977" lon="-1.817288">
        <ele>759.4</ele>
        <time>2026-03-01T13:25:32Z</time>
      </trkpt>
      <trkpt lat="43.017931" lon="-1.817157">
        <ele>760.4</ele>
        <time>2026-03-01T13:25:38Z</time>
      </trkpt>
      <trkpt lat="43.017895" lon="-1.817046">
        <ele>761.2</ele>
        <time>2026-03-01T13:25:43Z</time>
      </trkpt>
      <trkpt lat="43.017886" lon="-1.817026">
        <ele>761.4</ele>
        <time>2026-03-01T13:25:44Z</time>
      </trkpt>
      <trkpt lat="43.017865" lon="-1.816977">
        <ele>762.0</ele>
        <time>2026-03-01T13:25:46Z</time>
      </trkpt>
      <trkpt lat="43.017850" lon="-1.816933">
        <ele>762.6</ele>
        <time>2026-03-01T13:25:48Z</time>
      </trkpt>
      <trkpt lat="43.017818" lon="-1.816873">
        <ele>763.4</ele>
        <time>2026-03-01T13:25:51Z</time>
      </trkpt>
      <trkpt lat="43.017808" lon="-1.816853">
        <ele>763.8</ele>
        <time>2026-03-01T13:25:52Z</time>
      </trkpt>
      <trkpt lat="43.017755" lon="-1.816741">
        <ele>764.8</ele>
        <time>2026-03-01T13:25:57Z</time>
      </trkpt>
      <trkpt lat="43.017745" lon="-1.816721">
        <ele>765.2</ele>
        <time>2026-03-01T13:25:58Z</time>
      </trkpt>
      <trkpt lat="43.017735" lon="-1.816703">
        <ele>765.8</ele>
        <time>2026-03-01T13:25:59Z</time>
      </trkpt>
      <trkpt lat="43.017729" lon="-1.816689">
        <ele>766.0</ele>
        <time>2026-03-01T13:26:00Z</time>
      </trkpt>
      <trkpt lat="43.017670" lon="-1.816507">
        <ele>766.8</ele>
        <time>2026-03-01T13:26:07Z</time>
      </trkpt>
      <trkpt lat="43.017641" lon="-1.816414">
        <ele>767.0</ele>
        <time>2026-03-01T13:26:11Z</time>
      </trkpt>
      <trkpt lat="43.017638" lon="-1.816385">
        <ele>767.2</ele>
        <time>2026-03-01T13:26:12Z</time>
      </trkpt>
      <trkpt lat="43.017624" lon="-1.816329">
        <ele>767.6</ele>
        <time>2026-03-01T13:26:14Z</time>
      </trkpt>
      <trkpt lat="43.017617" lon="-1.816304">
        <ele>768.2</ele>
        <time>2026-03-01T13:26:15Z</time>
      </trkpt>
      <trkpt lat="43.017612" lon="-1.816253">
        <ele>769.0</ele>
        <time>2026-03-01T13:26:17Z</time>
      </trkpt>
      <trkpt lat="43.017613" lon="-1.816226">
        <ele>769.2</ele>
        <time>2026-03-01T13:26:18Z</time>
      </trkpt>
      <trkpt lat="43.017621" lon="-1.816069">
        <ele>769.0</ele>
        <time>2026-03-01T13:26:24Z</time>
      </trkpt>
      <trkpt lat="43.017605" lon="-1.815969">
        <ele>768.4</ele>
        <time>2026-03-01T13:26:28Z</time>
      </trkpt>
      <trkpt lat="43.017606" lon="-1.815940">
        <ele>768.2</ele>
        <time>2026-03-01T13:26:29Z</time>
      </trkpt>
      <trkpt lat="43.017602" lon="-1.815725">
        <ele>767.6</ele>
        <time>2026-03-01T13:26:35Z</time>
      </trkpt>
      <trkpt lat="43.017573" lon="-1.815592">
        <ele>767.0</ele>
        <time>2026-03-01T13:26:38Z</time>
      </trkpt>
      <trkpt lat="43.017568" lon="-1.815503">
        <ele>766.8</ele>
        <time>2026-03-01T13:26:40Z</time>
      </trkpt>
      <trkpt lat="43.017572" lon="-1.815459">
        <ele>766.0</ele>
        <time>2026-03-01T13:26:41Z</time>
      </trkpt>
      <trkpt lat="43.017578" lon="-1.815416">
        <ele>765.6</ele>
        <time>2026-03-01T13:26:42Z</time>
      </trkpt>
      <trkpt lat="43.017589" lon="-1.815334">
        <ele>765.2</ele>
        <time>2026-03-01T13:26:45Z</time>
      </trkpt>
      <trkpt lat="43.017629" lon="-1.815228">
        <ele>766.6</ele>
        <time>2026-03-01T13:26:52Z</time>
      </trkpt>
      <trkpt lat="43.017637" lon="-1.815214">
        <ele>767.6</ele>
        <time>2026-03-01T13:26:53Z</time>
      </trkpt>
      <trkpt lat="43.017651" lon="-1.815172">
        <ele>769.0</ele>
        <time>2026-03-01T13:26:56Z</time>
      </trkpt>
      <trkpt lat="43.017657" lon="-1.815149">
        <ele>769.6</ele>
        <time>2026-03-01T13:26:58Z</time>
      </trkpt>
      <trkpt lat="43.017662" lon="-1.815136">
        <ele>769.8</ele>
        <time>2026-03-01T13:26:59Z</time>
      </trkpt>
      <trkpt lat="43.017662" lon="-1.815118">
        <ele>770.0</ele>
        <time>2026-03-01T13:27:00Z</time>
      </trkpt>
      <trkpt lat="43.017673" lon="-1.815058">
        <ele>770.6</ele>
        <time>2026-03-01T13:27:04Z</time>
      </trkpt>
      <trkpt lat="43.017686" lon="-1.815029">
        <ele>771.4</ele>
        <time>2026-03-01T13:27:06Z</time>
      </trkpt>
      <trkpt lat="43.017697" lon="-1.814996">
        <ele>771.8</ele>
        <time>2026-03-01T13:27:08Z</time>
      </trkpt>
      <trkpt lat="43.017702" lon="-1.814945">
        <ele>772.2</ele>
        <time>2026-03-01T13:27:11Z</time>
      </trkpt>
      <trkpt lat="43.017703" lon="-1.814929">
        <ele>772.4</ele>
        <time>2026-03-01T13:27:12Z</time>
      </trkpt>
      <trkpt lat="43.017731" lon="-1.814863">
        <ele>773.6</ele>
        <time>2026-03-01T13:27:17Z</time>
      </trkpt>
      <trkpt lat="43.017737" lon="-1.814849">
        <ele>774.4</ele>
        <time>2026-03-01T13:27:18Z</time>
      </trkpt>
      <trkpt lat="43.017739" lon="-1.814833">
        <ele>774.8</ele>
        <time>2026-03-01T13:27:19Z</time>
      </trkpt>
      <trkpt lat="43.017738" lon="-1.814818">
        <ele>775.0</ele>
        <time>2026-03-01T13:27:20Z</time>
      </trkpt>
      <trkpt lat="43.017732" lon="-1.814803">
        <ele>775.2</ele>
        <time>2026-03-01T13:27:21Z</time>
      </trkpt>
      <trkpt lat="43.017726" lon="-1.814766">
        <ele>775.4</ele>
        <time>2026-03-01T13:27:24Z</time>
      </trkpt>
      <trkpt lat="43.017735" lon="-1.814742">
        <ele>775.8</ele>
        <time>2026-03-01T13:27:26Z</time>
      </trkpt>
      <trkpt lat="43.017735" lon="-1.814703">
        <ele>776.6</ele>
        <time>2026-03-01T13:27:29Z</time>
      </trkpt>
      <trkpt lat="43.017730" lon="-1.814692">
        <ele>776.8</ele>
        <time>2026-03-01T13:27:30Z</time>
      </trkpt>
      <trkpt lat="43.017731" lon="-1.814683">
        <ele>776.8</ele>
        <time>2026-03-01T13:27:31Z</time>
      </trkpt>
      <trkpt lat="43.017732" lon="-1.814673">
        <ele>777.0</ele>
        <time>2026-03-01T13:27:32Z</time>
      </trkpt>
      <trkpt lat="43.017738" lon="-1.814651">
        <ele>777.4</ele>
        <time>2026-03-01T13:27:34Z</time>
      </trkpt>
      <trkpt lat="43.017744" lon="-1.814636">
        <ele>777.4</ele>
        <time>2026-03-01T13:27:35Z</time>
      </trkpt>
      <trkpt lat="43.017740" lon="-1.814594">
        <ele>777.8</ele>
        <time>2026-03-01T13:27:38Z</time>
      </trkpt>
      <trkpt lat="43.017738" lon="-1.814580">
        <ele>778.2</ele>
        <time>2026-03-01T13:27:39Z</time>
      </trkpt>
      <trkpt lat="43.017739" lon="-1.814566">
        <ele>778.4</ele>
        <time>2026-03-01T13:27:40Z</time>
      </trkpt>
      <trkpt lat="43.017748" lon="-1.814518">
        <ele>779.2</ele>
        <time>2026-03-01T13:27:44Z</time>
      </trkpt>
      <trkpt lat="43.017741" lon="-1.814460">
        <ele>779.8</ele>
        <time>2026-03-01T13:27:48Z</time>
      </trkpt>
      <trkpt lat="43.017747" lon="-1.814448">
        <ele>779.8</ele>
        <time>2026-03-01T13:27:49Z</time>
      </trkpt>
      <trkpt lat="43.017751" lon="-1.814432">
        <ele>780.2</ele>
        <time>2026-03-01T13:27:50Z</time>
      </trkpt>
      <trkpt lat="43.017749" lon="-1.814418">
        <ele>780.6</ele>
        <time>2026-03-01T13:27:51Z</time>
      </trkpt>
      <trkpt lat="43.017752" lon="-1.814379">
        <ele>781.8</ele>
        <time>2026-03-01T13:27:54Z</time>
      </trkpt>
      <trkpt lat="43.017752" lon="-1.814363">
        <ele>782.0</ele>
        <time>2026-03-01T13:27:55Z</time>
      </trkpt>
      <trkpt lat="43.017760" lon="-1.814314">
        <ele>782.6</ele>
        <time>2026-03-01T13:27:59Z</time>
      </trkpt>
      <trkpt lat="43.017765" lon="-1.814300">
        <ele>783.0</ele>
        <time>2026-03-01T13:28:00Z</time>
      </trkpt>
      <trkpt lat="43.017770" lon="-1.814272">
        <ele>783.6</ele>
        <time>2026-03-01T13:28:02Z</time>
      </trkpt>
      <trkpt lat="43.017768" lon="-1.814246">
        <ele>784.0</ele>
        <time>2026-03-01T13:28:04Z</time>
      </trkpt>
      <trkpt lat="43.017770" lon="-1.814231">
        <ele>784.2</ele>
        <time>2026-03-01T13:28:05Z</time>
      </trkpt>
      <trkpt lat="43.017773" lon="-1.814191">
        <ele>784.6</ele>
        <time>2026-03-01T13:28:08Z</time>
      </trkpt>
      <trkpt lat="43.017776" lon="-1.814148">
        <ele>785.2</ele>
        <time>2026-03-01T13:28:11Z</time>
      </trkpt>
      <trkpt lat="43.017781" lon="-1.814104">
        <ele>786.2</ele>
        <time>2026-03-01T13:28:15Z</time>
      </trkpt>
      <trkpt lat="43.017803" lon="-1.814070">
        <ele>786.6</ele>
        <time>2026-03-01T13:28:18Z</time>
      </trkpt>
      <trkpt lat="43.017822" lon="-1.814038">
        <ele>787.4</ele>
        <time>2026-03-01T13:28:21Z</time>
      </trkpt>
      <trkpt lat="43.017827" lon="-1.814024">
        <ele>787.6</ele>
        <time>2026-03-01T13:28:22Z</time>
      </trkpt>
      <trkpt lat="43.017813" lon="-1.813979">
        <ele>788.4</ele>
        <time>2026-03-01T13:28:25Z</time>
      </trkpt>
      <trkpt lat="43.017804" lon="-1.813967">
        <ele>788.4</ele>
        <time>2026-03-01T13:28:26Z</time>
      </trkpt>
      <trkpt lat="43.017799" lon="-1.813955">
        <ele>788.6</ele>
        <time>2026-03-01T13:28:27Z</time>
      </trkpt>
      <trkpt lat="43.017797" lon="-1.813943">
        <ele>788.8</ele>
        <time>2026-03-01T13:28:28Z</time>
      </trkpt>
      <trkpt lat="43.017779" lon="-1.813895">
        <ele>789.4</ele>
        <time>2026-03-01T13:28:32Z</time>
      </trkpt>
      <trkpt lat="43.017772" lon="-1.813884">
        <ele>789.8</ele>
        <time>2026-03-01T13:28:33Z</time>
      </trkpt>
      <trkpt lat="43.017752" lon="-1.813841">
        <ele>790.6</ele>
        <time>2026-03-01T13:28:36Z</time>
      </trkpt>
      <trkpt lat="43.017749" lon="-1.813786">
        <ele>791.0</ele>
        <time>2026-03-01T13:28:39Z</time>
      </trkpt>
      <trkpt lat="43.017737" lon="-1.813752">
        <ele>791.8</ele>
        <time>2026-03-01T13:28:41Z</time>
      </trkpt>
      <trkpt lat="43.017738" lon="-1.813671">
        <ele>792.4</ele>
        <time>2026-03-01T13:28:45Z</time>
      </trkpt>
      <trkpt lat="43.017741" lon="-1.813611">
        <ele>792.8</ele>
        <time>2026-03-01T13:28:48Z</time>
      </trkpt>
      <trkpt lat="43.017752" lon="-1.813516">
        <ele>793.8</ele>
        <time>2026-03-01T13:28:53Z</time>
      </trkpt>
      <trkpt lat="43.017757" lon="-1.813496">
        <ele>794.0</ele>
        <time>2026-03-01T13:28:54Z</time>
      </trkpt>
      <trkpt lat="43.017781" lon="-1.813415">
        <ele>794.6</ele>
        <time>2026-03-01T13:28:59Z</time>
      </trkpt>
      <trkpt lat="43.017785" lon="-1.813399">
        <ele>794.6</ele>
        <time>2026-03-01T13:29:00Z</time>
      </trkpt>
      <trkpt lat="43.017804" lon="-1.813231">
        <ele>794.8</ele>
        <time>2026-03-01T13:29:08Z</time>
      </trkpt>
      <trkpt lat="43.017803" lon="-1.813196">
        <ele>794.6</ele>
        <time>2026-03-01T13:29:09Z</time>
      </trkpt>
      <trkpt lat="43.017804" lon="-1.813041">
        <ele>794.4</ele>
        <time>2026-03-01T13:29:12Z</time>
      </trkpt>
      <trkpt lat="43.017770" lon="-1.812768">
        <ele>792.8</ele>
        <time>2026-03-01T13:29:16Z</time>
      </trkpt>
      <trkpt lat="43.017756" lon="-1.812691">
        <ele>792.4</ele>
        <time>2026-03-01T13:29:17Z</time>
      </trkpt>
      <trkpt lat="43.017691" lon="-1.812374">
        <ele>792.2</ele>
        <time>2026-03-01T13:29:22Z</time>
      </trkpt>
      <trkpt lat="43.017681" lon="-1.812333">
        <ele>792.4</ele>
        <time>2026-03-01T13:29:23Z</time>
      </trkpt>
      <trkpt lat="43.017667" lon="-1.812273">
        <ele>793.4</ele>
        <time>2026-03-01T13:29:25Z</time>
      </trkpt>
      <trkpt lat="43.017661" lon="-1.812253">
        <ele>794.0</ele>
        <time>2026-03-01T13:29:26Z</time>
      </trkpt>
      <trkpt lat="43.017650" lon="-1.812215">
        <ele>794.8</ele>
        <time>2026-03-01T13:29:28Z</time>
      </trkpt>
      <trkpt lat="43.017647" lon="-1.812198">
        <ele>795.0</ele>
        <time>2026-03-01T13:29:29Z</time>
      </trkpt>
      <trkpt lat="43.017641" lon="-1.812097">
        <ele>796.0</ele>
        <time>2026-03-01T13:29:34Z</time>
      </trkpt>
      <trkpt lat="43.017642" lon="-1.812073">
        <ele>796.0</ele>
        <time>2026-03-01T13:29:35Z</time>
      </trkpt>
      <trkpt lat="43.017643" lon="-1.812013">
        <ele>797.2</ele>
        <time>2026-03-01T13:29:38Z</time>
      </trkpt>
      <trkpt lat="43.017656" lon="-1.811968">
        <ele>798.0</ele>
        <time>2026-03-01T13:29:40Z</time>
      </trkpt>
      <trkpt lat="43.017663" lon="-1.811935">
        <ele>798.4</ele>
        <time>2026-03-01T13:29:41Z</time>
      </trkpt>
      <trkpt lat="43.017687" lon="-1.811866">
        <ele>799.0</ele>
        <time>2026-03-01T13:29:44Z</time>
      </trkpt>
      <trkpt lat="43.017704" lon="-1.811817">
        <ele>799.4</ele>
        <time>2026-03-01T13:29:46Z</time>
      </trkpt>
      <trkpt lat="43.017741" lon="-1.811696">
        <ele>799.8</ele>
        <time>2026-03-01T13:29:51Z</time>
      </trkpt>
      <trkpt lat="43.017749" lon="-1.811607">
        <ele>799.8</ele>
        <time>2026-03-01T13:29:54Z</time>
      </trkpt>
      <trkpt lat="43.017732" lon="-1.811477">
        <ele>800.6</ele>
        <time>2026-03-01T13:29:59Z</time>
      </trkpt>
      <trkpt lat="43.017719" lon="-1.811446">
        <ele>801.2</ele>
        <time>2026-03-01T13:30:01Z</time>
      </trkpt>
      <trkpt lat="43.017707" lon="-1.811421">
        <ele>801.6</ele>
        <time>2026-03-01T13:30:03Z</time>
      </trkpt>
      <trkpt lat="43.017690" lon="-1.811388">
        <ele>802.0</ele>
        <time>2026-03-01T13:30:05Z</time>
      </trkpt>
      <trkpt lat="43.017669" lon="-1.811349">
        <ele>802.4</ele>
        <time>2026-03-01T13:30:08Z</time>
      </trkpt>
      <trkpt lat="43.017650" lon="-1.811333">
        <ele>802.8</ele>
        <time>2026-03-01T13:30:10Z</time>
      </trkpt>
      <trkpt lat="43.017613" lon="-1.811296">
        <ele>804.0</ele>
        <time>2026-03-01T13:30:14Z</time>
      </trkpt>
      <trkpt lat="43.017589" lon="-1.811283">
        <ele>804.6</ele>
        <time>2026-03-01T13:30:16Z</time>
      </trkpt>
      <trkpt lat="43.017578" lon="-1.811272">
        <ele>805.0</ele>
        <time>2026-03-01T13:30:17Z</time>
      </trkpt>
      <trkpt lat="43.017532" lon="-1.811189">
        <ele>805.8</ele>
        <time>2026-03-01T13:30:23Z</time>
      </trkpt>
      <trkpt lat="43.017524" lon="-1.811176">
        <ele>806.0</ele>
        <time>2026-03-01T13:30:24Z</time>
      </trkpt>
      <trkpt lat="43.017476" lon="-1.811135">
        <ele>806.6</ele>
        <time>2026-03-01T13:30:28Z</time>
      </trkpt>
      <trkpt lat="43.017463" lon="-1.811120">
        <ele>807.0</ele>
        <time>2026-03-01T13:30:29Z</time>
      </trkpt>
      <trkpt lat="43.017447" lon="-1.811101">
        <ele>807.2</ele>
        <time>2026-03-01T13:30:30Z</time>
      </trkpt>
      <trkpt lat="43.017400" lon="-1.811041">
        <ele>808.2</ele>
        <time>2026-03-01T13:30:34Z</time>
      </trkpt>
      <trkpt lat="43.017379" lon="-1.811004">
        <ele>809.2</ele>
        <time>2026-03-01T13:30:37Z</time>
      </trkpt>
      <trkpt lat="43.017271" lon="-1.810913">
        <ele>809.8</ele>
        <time>2026-03-01T13:30:45Z</time>
      </trkpt>
      <trkpt lat="43.017258" lon="-1.810896">
        <ele>810.2</ele>
        <time>2026-03-01T13:30:46Z</time>
      </trkpt>
      <trkpt lat="43.017243" lon="-1.810880">
        <ele>810.2</ele>
        <time>2026-03-01T13:30:47Z</time>
      </trkpt>
      <trkpt lat="43.017195" lon="-1.810844">
        <ele>810.6</ele>
        <time>2026-03-01T13:30:50Z</time>
      </trkpt>
      <trkpt lat="43.017162" lon="-1.810831">
        <ele>811.0</ele>
        <time>2026-03-01T13:30:52Z</time>
      </trkpt>
      <trkpt lat="43.017104" lon="-1.810801">
        <ele>811.6</ele>
        <time>2026-03-01T13:30:56Z</time>
      </trkpt>
      <trkpt lat="43.017041" lon="-1.810763">
        <ele>812.8</ele>
        <time>2026-03-01T13:31:00Z</time>
      </trkpt>
      <trkpt lat="43.017025" lon="-1.810759">
        <ele>813.0</ele>
        <time>2026-03-01T13:31:01Z</time>
      </trkpt>
      <trkpt lat="43.016900" lon="-1.810718">
        <ele>813.8</ele>
        <time>2026-03-01T13:31:09Z</time>
      </trkpt>
      <trkpt lat="43.016804" lon="-1.810740">
        <ele>814.2</ele>
        <time>2026-03-01T13:31:14Z</time>
      </trkpt>
      <trkpt lat="43.016785" lon="-1.810742">
        <ele>814.2</ele>
        <time>2026-03-01T13:31:15Z</time>
      </trkpt>
      <trkpt lat="43.016766" lon="-1.810738">
        <ele>814.2</ele>
        <time>2026-03-01T13:31:16Z</time>
      </trkpt>
      <trkpt lat="43.016710" lon="-1.810715">
        <ele>814.8</ele>
        <time>2026-03-01T13:31:19Z</time>
      </trkpt>
      <trkpt lat="43.016626" lon="-1.810722">
        <ele>815.6</ele>
        <time>2026-03-01T13:31:23Z</time>
      </trkpt>
      <trkpt lat="43.016537" lon="-1.810720">
        <ele>815.8</ele>
        <time>2026-03-01T13:31:28Z</time>
      </trkpt>
      <trkpt lat="43.016497" lon="-1.810724">
        <ele>816.0</ele>
        <time>2026-03-01T13:31:30Z</time>
      </trkpt>
      <trkpt lat="43.016372" lon="-1.810699">
        <ele>816.4</ele>
        <time>2026-03-01T13:31:37Z</time>
      </trkpt>
      <trkpt lat="43.016354" lon="-1.810700">
        <ele>816.6</ele>
        <time>2026-03-01T13:31:38Z</time>
      </trkpt>
      <trkpt lat="43.016336" lon="-1.810699">
        <ele>816.8</ele>
        <time>2026-03-01T13:31:39Z</time>
      </trkpt>
      <trkpt lat="43.016318" lon="-1.810697">
        <ele>816.8</ele>
        <time>2026-03-01T13:31:40Z</time>
      </trkpt>
      <trkpt lat="43.016280" lon="-1.810691">
        <ele>817.0</ele>
        <time>2026-03-01T13:31:42Z</time>
      </trkpt>
      <trkpt lat="43.016205" lon="-1.810670">
        <ele>818.0</ele>
        <time>2026-03-01T13:31:46Z</time>
      </trkpt>
      <trkpt lat="43.016186" lon="-1.810666">
        <ele>818.0</ele>
        <time>2026-03-01T13:31:47Z</time>
      </trkpt>
      <trkpt lat="43.016110" lon="-1.810640">
        <ele>819.2</ele>
        <time>2026-03-01T13:31:51Z</time>
      </trkpt>
      <trkpt lat="43.016056" lon="-1.810619">
        <ele>820.0</ele>
        <time>2026-03-01T13:31:54Z</time>
      </trkpt>
      <trkpt lat="43.016038" lon="-1.810612">
        <ele>820.4</ele>
        <time>2026-03-01T13:31:55Z</time>
      </trkpt>
      <trkpt lat="43.015985" lon="-1.810586">
        <ele>821.0</ele>
        <time>2026-03-01T13:31:58Z</time>
      </trkpt>
      <trkpt lat="43.015948" lon="-1.810571">
        <ele>821.6</ele>
        <time>2026-03-01T13:32:00Z</time>
      </trkpt>
      <trkpt lat="43.015914" lon="-1.810550">
        <ele>821.8</ele>
        <time>2026-03-01T13:32:02Z</time>
      </trkpt>
      <trkpt lat="43.015840" lon="-1.810505">
        <ele>822.2</ele>
        <time>2026-03-01T13:32:06Z</time>
      </trkpt>
      <trkpt lat="43.015822" lon="-1.810494">
        <ele>822.4</ele>
        <time>2026-03-01T13:32:07Z</time>
      </trkpt>
      <trkpt lat="43.015762" lon="-1.810454">
        <ele>822.6</ele>
        <time>2026-03-01T13:32:10Z</time>
      </trkpt>
      <trkpt lat="43.015743" lon="-1.810439">
        <ele>822.8</ele>
        <time>2026-03-01T13:32:11Z</time>
      </trkpt>
      <trkpt lat="43.015628" lon="-1.810313">
        <ele>823.4</ele>
        <time>2026-03-01T13:32:18Z</time>
      </trkpt>
      <trkpt lat="43.015613" lon="-1.810291">
        <ele>823.6</ele>
        <time>2026-03-01T13:32:19Z</time>
      </trkpt>
      <trkpt lat="43.015571" lon="-1.810220">
        <ele>812.0</ele>
        <time>2026-03-01T13:32:22Z</time>
      </trkpt>
      <trkpt lat="43.015558" lon="-1.810193">
        <ele>819.6</ele>
        <time>2026-03-01T13:32:23Z</time>
      </trkpt>
      <trkpt lat="43.015545" lon="-1.810167">
        <ele>824.0</ele>
        <time>2026-03-01T13:32:24Z</time>
      </trkpt>
      <trkpt lat="43.015533" lon="-1.810143">
        <ele>826.0</ele>
        <time>2026-03-01T13:32:25Z</time>
      </trkpt>
      <trkpt lat="43.015511" lon="-1.810088">
        <ele>824.6</ele>
        <time>2026-03-01T13:32:27Z</time>
      </trkpt>
      <trkpt lat="43.015498" lon="-1.810063">
        <ele>819.0</ele>
        <time>2026-03-01T13:32:28Z</time>
      </trkpt>
      <trkpt lat="43.015485" lon="-1.810039">
        <ele>821.6</ele>
        <time>2026-03-01T13:32:29Z</time>
      </trkpt>
      <trkpt lat="43.015473" lon="-1.810014">
        <ele>822.8</ele>
        <time>2026-03-01T13:32:30Z</time>
      </trkpt>
      <trkpt lat="43.015433" lon="-1.809933">
        <ele>818.2</ele>
        <time>2026-03-01T13:32:33Z</time>
      </trkpt>
      <trkpt lat="43.015380" lon="-1.809854">
        <ele>815.8</ele>
        <time>2026-03-01T13:32:36Z</time>
      </trkpt>
      <trkpt lat="43.015359" lon="-1.809826">
        <ele>814.2</ele>
        <time>2026-03-01T13:32:37Z</time>
      </trkpt>
      <trkpt lat="43.015286" lon="-1.809733">
        <ele>816.4</ele>
        <time>2026-03-01T13:32:40Z</time>
      </trkpt>
      <trkpt lat="43.015264" lon="-1.809694">
        <ele>818.2</ele>
        <time>2026-03-01T13:32:41Z</time>
      </trkpt>
      <trkpt lat="43.015244" lon="-1.809653">
        <ele>820.6</ele>
        <time>2026-03-01T13:32:42Z</time>
      </trkpt>
      <trkpt lat="43.015227" lon="-1.809609">
        <ele>822.2</ele>
        <time>2026-03-01T13:32:43Z</time>
      </trkpt>
      <trkpt lat="43.015188" lon="-1.809518">
        <ele>823.6</ele>
        <time>2026-03-01T13:32:45Z</time>
      </trkpt>
      <trkpt lat="43.015151" lon="-1.809423">
        <ele>824.6</ele>
        <time>2026-03-01T13:32:47Z</time>
      </trkpt>
      <trkpt lat="43.015118" lon="-1.809327">
        <ele>825.2</ele>
        <time>2026-03-01T13:32:49Z</time>
      </trkpt>
      <trkpt lat="43.015098" lon="-1.809234">
        <ele>825.8</ele>
        <time>2026-03-01T13:32:51Z</time>
      </trkpt>
      <trkpt lat="43.015072" lon="-1.809043">
        <ele>826.4</ele>
        <time>2026-03-01T13:32:56Z</time>
      </trkpt>
      <trkpt lat="43.015062" lon="-1.809021">
        <ele>826.4</ele>
        <time>2026-03-01T13:32:58Z</time>
      </trkpt>
      <trkpt lat="43.015065" lon="-1.809018">
        <ele>826.4</ele>
        <time>2026-03-01T13:33:00Z</time>
      </trkpt>
      <trkpt lat="43.015053" lon="-1.809067">
        <ele>825.8</ele>
        <time>2026-03-01T13:33:05Z</time>
      </trkpt>
      <trkpt lat="43.015060" lon="-1.809076">
        <ele>826.4</ele>
        <time>2026-03-01T13:33:11Z</time>
      </trkpt>
      <trkpt lat="43.015054" lon="-1.809081">
        <ele>826.2</ele>
        <time>2026-03-01T13:33:13Z</time>
      </trkpt>
      <trkpt lat="43.015044" lon="-1.809098">
        <ele>826.0</ele>
        <time>2026-03-01T13:33:17Z</time>
      </trkpt>
      <trkpt lat="43.015052" lon="-1.809096">
        <ele>826.2</ele>
        <time>2026-03-01T13:33:20Z</time>
      </trkpt>
      <trkpt lat="43.015053" lon="-1.809092">
        <ele>826.2</ele>
        <time>2026-03-01T13:33:23Z</time>
      </trkpt>
      <trkpt lat="43.015055" lon="-1.809097">
        <ele>826.2</ele>
        <time>2026-03-01T13:33:33Z</time>
      </trkpt>
      <trkpt lat="43.015055" lon="-1.809097">
        <ele>826.2</ele>
        <time>2026-03-01T13:33:34Z</time>
      </trkpt>
      <trkpt lat="43.015055" lon="-1.809097">
        <ele>826.2</ele>
        <time>2026-03-01T13:33:35Z</time>
      </trkpt>
      <trkpt lat="43.015055" lon="-1.809097">
        <ele>826.2</ele>
        <time>2026-03-01T13:33:38Z</time>
      </trkpt>
      <trkpt lat="43.015053" lon="-1.809098">
        <ele>825.6</ele>
        <time>2026-03-01T13:33:52Z</time>
      </trkpt>
      <trkpt lat="43.015054" lon="-1.809097">
        <ele>825.4</ele>
        <time>2026-03-01T13:33:58Z</time>
      </trkpt>
      <trkpt lat="43.015054" lon="-1.809095">
        <ele>826.0</ele>
        <time>2026-03-01T13:34:07Z</time>
      </trkpt>
      <trkpt lat="43.015053" lon="-1.809096">
        <ele>826.2</ele>
        <time>2026-03-01T13:34:10Z</time>
      </trkpt>
      <trkpt lat="43.015053" lon="-1.809096">
        <ele>826.2</ele>
        <time>2026-03-01T13:34:11Z</time>
      </trkpt>
      <trkpt lat="43.015054" lon="-1.809097">
        <ele>825.8</ele>
        <time>2026-03-01T13:34:13Z</time>
      </trkpt>
      <trkpt lat="43.015055" lon="-1.809096">
        <ele>825.8</ele>
        <time>2026-03-01T13:34:16Z</time>
      </trkpt>
      <trkpt lat="43.015055" lon="-1.809095">
        <ele>825.4</ele>
        <time>2026-03-01T13:34:24Z</time>
      </trkpt>
      <trkpt lat="43.015056" lon="-1.809093">
        <ele>825.8</ele>
        <time>2026-03-01T13:34:33Z</time>
      </trkpt>
      <trkpt lat="43.015058" lon="-1.809092">
        <ele>826.8</ele>
        <time>2026-03-01T13:34:37Z</time>
      </trkpt>
      <trkpt lat="43.015058" lon="-1.809092">
        <ele>826.8</ele>
        <time>2026-03-01T13:34:38Z</time>
      </trkpt>
      <trkpt lat="43.015057" lon="-1.809091">
        <ele>825.8</ele>
        <time>2026-03-01T13:34:46Z</time>
      </trkpt>
      <trkpt lat="43.015057" lon="-1.809090">
        <ele>826.0</ele>
        <time>2026-03-01T13:34:49Z</time>
      </trkpt>
      <trkpt lat="43.015059" lon="-1.809090">
        <ele>827.0</ele>
        <time>2026-03-01T13:34:56Z</time>
      </trkpt>
      <trkpt lat="43.015058" lon="-1.809087">
        <ele>827.0</ele>
        <time>2026-03-01T13:35:01Z</time>
      </trkpt>
      <trkpt lat="43.015059" lon="-1.809081">
        <ele>826.8</ele>
        <time>2026-03-01T13:35:13Z</time>
      </trkpt>
      <trkpt lat="43.015060" lon="-1.809077">
        <ele>827.6</ele>
        <time>2026-03-01T13:35:30Z</time>
      </trkpt>
      <trkpt lat="43.015060" lon="-1.809076">
        <ele>827.4</ele>
        <time>2026-03-01T13:35:33Z</time>
      </trkpt>
      <trkpt lat="43.015064" lon="-1.809073">
        <ele>827.4</ele>
        <time>2026-03-01T13:35:40Z</time>
      </trkpt>
      <trkpt lat="43.015065" lon="-1.809071">
        <ele>827.4</ele>
        <time>2026-03-01T13:35:55Z</time>
      </trkpt>
      <trkpt lat="43.015065" lon="-1.809072">
        <ele>827.0</ele>
        <time>2026-03-01T13:36:07Z</time>
      </trkpt>
      <trkpt lat="43.015064" lon="-1.809074">
        <ele>827.0</ele>
        <time>2026-03-01T13:36:10Z</time>
      </trkpt>
      <trkpt lat="43.015063" lon="-1.809073">
        <ele>827.2</ele>
        <time>2026-03-01T13:36:14Z</time>
      </trkpt>
      <trkpt lat="43.015061" lon="-1.809072">
        <ele>827.0</ele>
        <time>2026-03-01T13:36:17Z</time>
      </trkpt>
      <trkpt lat="43.015059" lon="-1.809066">
        <ele>827.2</ele>
        <time>2026-03-01T13:36:26Z</time>
      </trkpt>
      <trkpt lat="43.015067" lon="-1.809055">
        <ele>827.2</ele>
        <time>2026-03-01T13:36:30Z</time>
      </trkpt>
      <trkpt lat="43.015072" lon="-1.809045">
        <ele>827.2</ele>
        <time>2026-03-01T13:36:31Z</time>
      </trkpt>
      <trkpt lat="43.015075" lon="-1.809041">
        <ele>827.0</ele>
        <time>2026-03-01T13:36:34Z</time>
      </trkpt>
      <trkpt lat="43.015074" lon="-1.809039">
        <ele>827.2</ele>
        <time>2026-03-01T13:36:51Z</time>
      </trkpt>
      <trkpt lat="43.015073" lon="-1.809040">
        <ele>827.4</ele>
        <time>2026-03-01T13:37:06Z</time>
      </trkpt>
      <trkpt lat="43.015072" lon="-1.809040">
        <ele>827.2</ele>
        <time>2026-03-01T13:37:09Z</time>
      </trkpt>
      <trkpt lat="43.015072" lon="-1.809040">
        <ele>827.4</ele>
        <time>2026-03-01T13:37:10Z</time>
      </trkpt>
      <trkpt lat="43.015072" lon="-1.809040">
        <ele>827.4</ele>
        <time>2026-03-01T13:37:11Z</time>
      </trkpt>
      <trkpt lat="43.015071" lon="-1.809040">
        <ele>827.4</ele>
        <time>2026-03-01T13:37:12Z</time>
      </trkpt>
      <trkpt lat="43.015071" lon="-1.809040">
        <ele>827.4</ele>
        <time>2026-03-01T13:37:14Z</time>
      </trkpt>
      <trkpt lat="43.015072" lon="-1.809040">
        <ele>827.4</ele>
        <time>2026-03-01T13:37:17Z</time>
      </trkpt>
      <trkpt lat="43.015071" lon="-1.809040">
        <ele>827.4</ele>
        <time>2026-03-01T13:37:19Z</time>
      </trkpt>
      <trkpt lat="43.015071" lon="-1.809040">
        <ele>827.4</ele>
        <time>2026-03-01T13:37:22Z</time>
      </trkpt>
      <trkpt lat="43.015065" lon="-1.809039">
        <ele>828.0</ele>
        <time>2026-03-01T13:37:28Z</time>
      </trkpt>
      <trkpt lat="43.015066" lon="-1.809041">
        <ele>828.4</ele>
        <time>2026-03-01T13:37:30Z</time>
      </trkpt>
      <trkpt lat="43.015067" lon="-1.809042">
        <ele>828.8</ele>
        <time>2026-03-01T13:37:39Z</time>
      </trkpt>
      <trkpt lat="43.015067" lon="-1.809043">
        <ele>828.6</ele>
        <time>2026-03-01T13:37:46Z</time>
      </trkpt>
      <trkpt lat="43.015067" lon="-1.809043">
        <ele>828.4</ele>
        <time>2026-03-01T13:37:48Z</time>
      </trkpt>
      <trkpt lat="43.015067" lon="-1.809044">
        <ele>828.2</ele>
        <time>2026-03-01T13:37:52Z</time>
      </trkpt>
      <trkpt lat="43.015067" lon="-1.809044">
        <ele>829.0</ele>
        <time>2026-03-01T13:37:56Z</time>
      </trkpt>
      <trkpt lat="43.015065" lon="-1.809045">
        <ele>829.0</ele>
        <time>2026-03-01T13:38:03Z</time>
      </trkpt>
      <trkpt lat="43.015065" lon="-1.809046">
        <ele>829.0</ele>
        <time>2026-03-01T13:38:05Z</time>
      </trkpt>
      <trkpt lat="43.015065" lon="-1.809046">
        <ele>829.0</ele>
        <time>2026-03-01T13:38:10Z</time>
      </trkpt>
      <trkpt lat="43.015065" lon="-1.809043">
        <ele>829.4</ele>
        <time>2026-03-01T13:38:15Z</time>
      </trkpt>
      <trkpt lat="43.015064" lon="-1.809047">
        <ele>829.2</ele>
        <time>2026-03-01T13:38:24Z</time>
      </trkpt>
      <trkpt lat="43.015065" lon="-1.809048">
        <ele>829.4</ele>
        <time>2026-03-01T13:38:28Z</time>
      </trkpt>
      <trkpt lat="43.015065" lon="-1.809049">
        <ele>829.0</ele>
        <time>2026-03-01T13:38:31Z</time>
      </trkpt>
      <trkpt lat="43.015049" lon="-1.809060">
        <ele>829.0</ele>
        <time>2026-03-01T13:38:40Z</time>
      </trkpt>
      <trkpt lat="43.015043" lon="-1.809059">
        <ele>829.0</ele>
        <time>2026-03-01T13:38:41Z</time>
      </trkpt>
      <trkpt lat="43.015012" lon="-1.809083">
        <ele>828.4</ele>
        <time>2026-03-01T13:38:46Z</time>
      </trkpt>
      <trkpt lat="43.015005" lon="-1.809087">
        <ele>828.2</ele>
        <time>2026-03-01T13:38:47Z</time>
      </trkpt>
      <trkpt lat="43.014997" lon="-1.809088">
        <ele>827.6</ele>
        <time>2026-03-01T13:38:48Z</time>
      </trkpt>
      <trkpt lat="43.014970" lon="-1.809093">
        <ele>826.6</ele>
        <time>2026-03-01T13:38:51Z</time>
      </trkpt>
      <trkpt lat="43.014959" lon="-1.809093">
        <ele>826.2</ele>
        <time>2026-03-01T13:38:52Z</time>
      </trkpt>
      <trkpt lat="43.014948" lon="-1.809096">
        <ele>826.0</ele>
        <time>2026-03-01T13:38:53Z</time>
      </trkpt>
      <trkpt lat="43.014940" lon="-1.809096">
        <ele>825.6</ele>
        <time>2026-03-01T13:38:54Z</time>
      </trkpt>
      <trkpt lat="43.014936" lon="-1.809095">
        <ele>825.4</ele>
        <time>2026-03-01T13:38:55Z</time>
      </trkpt>
      <trkpt lat="43.014934" lon="-1.809094">
        <ele>825.0</ele>
        <time>2026-03-01T13:38:56Z</time>
      </trkpt>
      <trkpt lat="43.014933" lon="-1.809094">
        <ele>824.8</ele>
        <time>2026-03-01T13:38:57Z</time>
      </trkpt>
      <trkpt lat="43.014926" lon="-1.809089">
        <ele>824.6</ele>
        <time>2026-03-01T13:38:59Z</time>
      </trkpt>
      <trkpt lat="43.014916" lon="-1.809087">
        <ele>823.6</ele>
        <time>2026-03-01T13:39:02Z</time>
      </trkpt>
      <trkpt lat="43.014914" lon="-1.809086">
        <ele>823.0</ele>
        <time>2026-03-01T13:39:03Z</time>
      </trkpt>
      <trkpt lat="43.014897" lon="-1.809076">
        <ele>821.6</ele>
        <time>2026-03-01T13:39:06Z</time>
      </trkpt>
      <trkpt lat="43.014879" lon="-1.809065">
        <ele>820.8</ele>
        <time>2026-03-01T13:39:07Z</time>
      </trkpt>
      <trkpt lat="43.014873" lon="-1.809069">
        <ele>820.4</ele>
        <time>2026-03-01T13:39:08Z</time>
      </trkpt>
      <trkpt lat="43.014869" lon="-1.809076">
        <ele>820.2</ele>
        <time>2026-03-01T13:39:09Z</time>
      </trkpt>
      <trkpt lat="43.014868" lon="-1.809078">
        <ele>820.0</ele>
        <time>2026-03-01T13:39:10Z</time>
      </trkpt>
      <trkpt lat="43.014865" lon="-1.809075">
        <ele>819.4</ele>
        <time>2026-03-01T13:39:13Z</time>
      </trkpt>
      <trkpt lat="43.014836" lon="-1.809125">
        <ele>818.6</ele>
        <time>2026-03-01T13:39:19Z</time>
      </trkpt>
      <trkpt lat="43.014829" lon="-1.809133">
        <ele>818.4</ele>
        <time>2026-03-01T13:39:20Z</time>
      </trkpt>
      <trkpt lat="43.014811" lon="-1.809155">
        <ele>817.8</ele>
        <time>2026-03-01T13:39:23Z</time>
      </trkpt>
      <trkpt lat="43.014801" lon="-1.809161">
        <ele>817.4</ele>
        <time>2026-03-01T13:39:24Z</time>
      </trkpt>
      <trkpt lat="43.014793" lon="-1.809167">
        <ele>817.2</ele>
        <time>2026-03-01T13:39:25Z</time>
      </trkpt>
      <trkpt lat="43.014785" lon="-1.809176">
        <ele>816.2</ele>
        <time>2026-03-01T13:39:26Z</time>
      </trkpt>
      <trkpt lat="43.014778" lon="-1.809183">
        <ele>815.0</ele>
        <time>2026-03-01T13:39:27Z</time>
      </trkpt>
      <trkpt lat="43.014766" lon="-1.809201">
        <ele>814.0</ele>
        <time>2026-03-01T13:39:29Z</time>
      </trkpt>
      <trkpt lat="43.014746" lon="-1.809250">
        <ele>812.4</ele>
        <time>2026-03-01T13:39:32Z</time>
      </trkpt>
      <trkpt lat="43.014730" lon="-1.809279">
        <ele>811.0</ele>
        <time>2026-03-01T13:39:35Z</time>
      </trkpt>
      <trkpt lat="43.014711" lon="-1.809315">
        <ele>809.4</ele>
        <time>2026-03-01T13:39:39Z</time>
      </trkpt>
      <trkpt lat="43.014692" lon="-1.809339">
        <ele>808.4</ele>
        <time>2026-03-01T13:39:42Z</time>
      </trkpt>
      <trkpt lat="43.014677" lon="-1.809347">
        <ele>807.2</ele>
        <time>2026-03-01T13:39:44Z</time>
      </trkpt>
      <trkpt lat="43.014651" lon="-1.809358">
        <ele>806.6</ele>
        <time>2026-03-01T13:39:47Z</time>
      </trkpt>
      <trkpt lat="43.014624" lon="-1.809365">
        <ele>806.2</ele>
        <time>2026-03-01T13:39:48Z</time>
      </trkpt>
      <trkpt lat="43.014592" lon="-1.809374">
        <ele>805.4</ele>
        <time>2026-03-01T13:39:49Z</time>
      </trkpt>
      <trkpt lat="43.014509" lon="-1.809420">
        <ele>803.8</ele>
        <time>2026-03-01T13:39:51Z</time>
      </trkpt>
      <trkpt lat="43.014458" lon="-1.809443">
        <ele>802.8</ele>
        <time>2026-03-01T13:39:52Z</time>
      </trkpt>
      <trkpt lat="43.014408" lon="-1.809452">
        <ele>801.0</ele>
        <time>2026-03-01T13:39:53Z</time>
      </trkpt>
      <trkpt lat="43.014367" lon="-1.809449">
        <ele>799.8</ele>
        <time>2026-03-01T13:39:54Z</time>
      </trkpt>
      <trkpt lat="43.014323" lon="-1.809445">
        <ele>799.2</ele>
        <time>2026-03-01T13:39:55Z</time>
      </trkpt>
      <trkpt lat="43.014286" lon="-1.809431">
        <ele>798.8</ele>
        <time>2026-03-01T13:39:56Z</time>
      </trkpt>
      <trkpt lat="43.014256" lon="-1.809408">
        <ele>797.4</ele>
        <time>2026-03-01T13:39:57Z</time>
      </trkpt>
      <trkpt lat="43.014197" lon="-1.809333">
        <ele>796.2</ele>
        <time>2026-03-01T13:39:59Z</time>
      </trkpt>
      <trkpt lat="43.014161" lon="-1.809294">
        <ele>795.8</ele>
        <time>2026-03-01T13:40:00Z</time>
      </trkpt>
      <trkpt lat="43.014123" lon="-1.809241">
        <ele>794.6</ele>
        <time>2026-03-01T13:40:01Z</time>
      </trkpt>
      <trkpt lat="43.014078" lon="-1.809178">
        <ele>792.8</ele>
        <time>2026-03-01T13:40:02Z</time>
      </trkpt>
      <trkpt lat="43.014043" lon="-1.809116">
        <ele>791.0</ele>
        <time>2026-03-01T13:40:03Z</time>
      </trkpt>
      <trkpt lat="43.014012" lon="-1.809039">
        <ele>790.0</ele>
        <time>2026-03-01T13:40:04Z</time>
      </trkpt>
      <trkpt lat="43.013954" lon="-1.808895">
        <ele>788.6</ele>
        <time>2026-03-01T13:40:06Z</time>
      </trkpt>
      <trkpt lat="43.013909" lon="-1.808802">
        <ele>787.2</ele>
        <time>2026-03-01T13:40:08Z</time>
      </trkpt>
      <trkpt lat="43.013845" lon="-1.808735">
        <ele>785.6</ele>
        <time>2026-03-01T13:40:10Z</time>
      </trkpt>
      <trkpt lat="43.013804" lon="-1.808712">
        <ele>783.4</ele>
        <time>2026-03-01T13:40:11Z</time>
      </trkpt>
      <trkpt lat="43.013761" lon="-1.808687">
        <ele>781.2</ele>
        <time>2026-03-01T13:40:12Z</time>
      </trkpt>
      <trkpt lat="43.013717" lon="-1.808670">
        <ele>778.8</ele>
        <time>2026-03-01T13:40:13Z</time>
      </trkpt>
      <trkpt lat="43.013679" lon="-1.808649">
        <ele>777.2</ele>
        <time>2026-03-01T13:40:14Z</time>
      </trkpt>
      <trkpt lat="43.013634" lon="-1.808610">
        <ele>775.2</ele>
        <time>2026-03-01T13:40:15Z</time>
      </trkpt>
      <trkpt lat="43.013587" lon="-1.808558">
        <ele>773.8</ele>
        <time>2026-03-01T13:40:16Z</time>
      </trkpt>
      <trkpt lat="43.013536" lon="-1.808490">
        <ele>771.8</ele>
        <time>2026-03-01T13:40:17Z</time>
      </trkpt>
      <trkpt lat="43.013487" lon="-1.808411">
        <ele>770.2</ele>
        <time>2026-03-01T13:40:18Z</time>
      </trkpt>
      <trkpt lat="43.013440" lon="-1.808334">
        <ele>769.2</ele>
        <time>2026-03-01T13:40:19Z</time>
      </trkpt>
      <trkpt lat="43.013400" lon="-1.808277">
        <ele>766.8</ele>
        <time>2026-03-01T13:40:20Z</time>
      </trkpt>
      <trkpt lat="43.013360" lon="-1.808236">
        <ele>765.4</ele>
        <time>2026-03-01T13:40:21Z</time>
      </trkpt>
      <trkpt lat="43.013323" lon="-1.808210">
        <ele>764.4</ele>
        <time>2026-03-01T13:40:22Z</time>
      </trkpt>
      <trkpt lat="43.013285" lon="-1.808181">
        <ele>763.0</ele>
        <time>2026-03-01T13:40:23Z</time>
      </trkpt>
      <trkpt lat="43.013247" lon="-1.808153">
        <ele>761.8</ele>
        <time>2026-03-01T13:40:24Z</time>
      </trkpt>
      <trkpt lat="43.013214" lon="-1.808125">
        <ele>759.8</ele>
        <time>2026-03-01T13:40:25Z</time>
      </trkpt>
      <trkpt lat="43.013181" lon="-1.808091">
        <ele>758.6</ele>
        <time>2026-03-01T13:40:26Z</time>
      </trkpt>
      <trkpt lat="43.013135" lon="-1.808049">
        <ele>757.4</ele>
        <time>2026-03-01T13:40:27Z</time>
      </trkpt>
      <trkpt lat="43.013104" lon="-1.808018">
        <ele>756.8</ele>
        <time>2026-03-01T13:40:28Z</time>
      </trkpt>
      <trkpt lat="43.013083" lon="-1.808009">
        <ele>755.6</ele>
        <time>2026-03-01T13:40:29Z</time>
      </trkpt>
      <trkpt lat="43.013068" lon="-1.808009">
        <ele>754.4</ele>
        <time>2026-03-01T13:40:30Z</time>
      </trkpt>
      <trkpt lat="43.013058" lon="-1.808003">
        <ele>753.8</ele>
        <time>2026-03-01T13:40:31Z</time>
      </trkpt>
      <trkpt lat="43.013047" lon="-1.807997">
        <ele>753.2</ele>
        <time>2026-03-01T13:40:33Z</time>
      </trkpt>
      <trkpt lat="43.013046" lon="-1.807992">
        <ele>753.0</ele>
        <time>2026-03-01T13:40:42Z</time>
      </trkpt>
      <trkpt lat="43.013045" lon="-1.807988">
        <ele>753.0</ele>
        <time>2026-03-01T13:40:48Z</time>
      </trkpt>
      <trkpt lat="43.013044" lon="-1.807985">
        <ele>753.2</ele>
        <time>2026-03-01T13:40:51Z</time>
      </trkpt>
      <trkpt lat="43.013042" lon="-1.807982">
        <ele>753.0</ele>
        <time>2026-03-01T13:40:55Z</time>
      </trkpt>
      <trkpt lat="43.013035" lon="-1.807973">
        <ele>753.0</ele>
        <time>2026-03-01T13:40:59Z</time>
      </trkpt>
      <trkpt lat="43.013031" lon="-1.807956">
        <ele>753.0</ele>
        <time>2026-03-01T13:41:00Z</time>
      </trkpt>
      <trkpt lat="43.013030" lon="-1.807948">
        <ele>753.0</ele>
        <time>2026-03-01T13:41:06Z</time>
      </trkpt>
      <trkpt lat="43.013029" lon="-1.807946">
        <ele>753.0</ele>
        <time>2026-03-01T13:41:09Z</time>
      </trkpt>
      <trkpt lat="43.013028" lon="-1.807943">
        <ele>754.2</ele>
        <time>2026-03-01T13:41:18Z</time>
      </trkpt>
      <trkpt lat="43.013030" lon="-1.807943">
        <ele>753.4</ele>
        <time>2026-03-01T13:41:22Z</time>
      </trkpt>
      <trkpt lat="43.013031" lon="-1.807941">
        <ele>753.2</ele>
        <time>2026-03-01T13:41:23Z</time>
      </trkpt>
      <trkpt lat="43.013034" lon="-1.807940">
        <ele>753.2</ele>
        <time>2026-03-01T13:41:28Z</time>
      </trkpt>
      <trkpt lat="43.013036" lon="-1.807940">
        <ele>753.2</ele>
        <time>2026-03-01T13:41:31Z</time>
      </trkpt>
      <trkpt lat="43.013035" lon="-1.807938">
        <ele>747.6</ele>
        <time>2026-03-01T13:41:33Z</time>
      </trkpt>
      <trkpt lat="43.013031" lon="-1.807934">
        <ele>750.4</ele>
        <time>2026-03-01T13:41:37Z</time>
      </trkpt>
      <trkpt lat="43.013030" lon="-1.807929">
        <ele>751.6</ele>
        <time>2026-03-01T13:41:38Z</time>
      </trkpt>
      <trkpt lat="43.013032" lon="-1.807921">
        <ele>752.6</ele>
        <time>2026-03-01T13:41:40Z</time>
      </trkpt>
      <trkpt lat="43.013038" lon="-1.807891">
        <ele>753.0</ele>
        <time>2026-03-01T13:41:47Z</time>
      </trkpt>
      <trkpt lat="43.013032" lon="-1.807874">
        <ele>753.0</ele>
        <time>2026-03-01T13:41:49Z</time>
      </trkpt>
      <trkpt lat="43.013039" lon="-1.807864">
        <ele>753.0</ele>
        <time>2026-03-01T13:41:54Z</time>
      </trkpt>
      <trkpt lat="43.013041" lon="-1.807868">
        <ele>753.0</ele>
        <time>2026-03-01T13:41:55Z</time>
      </trkpt>
      <trkpt lat="43.012983" lon="-1.807822">
        <ele>753.0</ele>
        <time>2026-03-01T13:41:58Z</time>
      </trkpt>
      <trkpt lat="43.012914" lon="-1.807789">
        <ele>752.4</ele>
        <time>2026-03-01T13:42:00Z</time>
      </trkpt>
      <trkpt lat="43.012805" lon="-1.807743">
        <ele>751.0</ele>
        <time>2026-03-01T13:42:02Z</time>
      </trkpt>
      <trkpt lat="43.012747" lon="-1.807710">
        <ele>749.2</ele>
        <time>2026-03-01T13:42:03Z</time>
      </trkpt>
      <trkpt lat="43.012692" lon="-1.807671">
        <ele>748.2</ele>
        <time>2026-03-01T13:42:04Z</time>
      </trkpt>
      <trkpt lat="43.012584" lon="-1.807599">
        <ele>747.0</ele>
        <time>2026-03-01T13:42:06Z</time>
      </trkpt>
      <trkpt lat="43.012536" lon="-1.807553">
        <ele>746.4</ele>
        <time>2026-03-01T13:42:07Z</time>
      </trkpt>
      <trkpt lat="43.012492" lon="-1.807507">
        <ele>745.8</ele>
        <time>2026-03-01T13:42:08Z</time>
      </trkpt>
      <trkpt lat="43.012411" lon="-1.807404">
        <ele>744.8</ele>
        <time>2026-03-01T13:42:10Z</time>
      </trkpt>
      <trkpt lat="43.012379" lon="-1.807344">
        <ele>744.0</ele>
        <time>2026-03-01T13:42:11Z</time>
      </trkpt>
      <trkpt lat="43.012347" lon="-1.807284">
        <ele>743.0</ele>
        <time>2026-03-01T13:42:12Z</time>
      </trkpt>
      <trkpt lat="43.012316" lon="-1.807216">
        <ele>740.6</ele>
        <time>2026-03-01T13:42:13Z</time>
      </trkpt>
      <trkpt lat="43.012288" lon="-1.807137">
        <ele>739.4</ele>
        <time>2026-03-01T13:42:14Z</time>
      </trkpt>
      <trkpt lat="43.012270" lon="-1.807052">
        <ele>738.4</ele>
        <time>2026-03-01T13:42:15Z</time>
      </trkpt>
      <trkpt lat="43.012259" lon="-1.806980">
        <ele>736.8</ele>
        <time>2026-03-01T13:42:16Z</time>
      </trkpt>
      <trkpt lat="43.012264" lon="-1.806911">
        <ele>735.6</ele>
        <time>2026-03-01T13:42:17Z</time>
      </trkpt>
      <trkpt lat="43.012280" lon="-1.806841">
        <ele>734.8</ele>
        <time>2026-03-01T13:42:18Z</time>
      </trkpt>
      <trkpt lat="43.012297" lon="-1.806762">
        <ele>733.8</ele>
        <time>2026-03-01T13:42:19Z</time>
      </trkpt>
      <trkpt lat="43.012324" lon="-1.806593">
        <ele>731.8</ele>
        <time>2026-03-01T13:42:21Z</time>
      </trkpt>
      <trkpt lat="43.012321" lon="-1.806518">
        <ele>731.2</ele>
        <time>2026-03-01T13:42:22Z</time>
      </trkpt>
      <trkpt lat="43.012290" lon="-1.806449">
        <ele>730.6</ele>
        <time>2026-03-01T13:42:23Z</time>
      </trkpt>
      <trkpt lat="43.012239" lon="-1.806382">
        <ele>730.0</ele>
        <time>2026-03-01T13:42:24Z</time>
      </trkpt>
      <trkpt lat="43.012188" lon="-1.806311">
        <ele>729.4</ele>
        <time>2026-03-01T13:42:25Z</time>
      </trkpt>
      <trkpt lat="43.012145" lon="-1.806237">
        <ele>729.0</ele>
        <time>2026-03-01T13:42:26Z</time>
      </trkpt>
      <trkpt lat="43.012117" lon="-1.806181">
        <ele>728.6</ele>
        <time>2026-03-01T13:42:27Z</time>
      </trkpt>
      <trkpt lat="43.012094" lon="-1.806128">
        <ele>728.2</ele>
        <time>2026-03-01T13:42:28Z</time>
      </trkpt>
      <trkpt lat="43.012000" lon="-1.805903">
        <ele>727.6</ele>
        <time>2026-03-01T13:42:32Z</time>
      </trkpt>
      <trkpt lat="43.011982" lon="-1.805845">
        <ele>727.6</ele>
        <time>2026-03-01T13:42:33Z</time>
      </trkpt>
      <trkpt lat="43.011959" lon="-1.805781">
        <ele>727.6</ele>
        <time>2026-03-01T13:42:34Z</time>
      </trkpt>
      <trkpt lat="43.011840" lon="-1.805578">
        <ele>727.0</ele>
        <time>2026-03-01T13:42:37Z</time>
      </trkpt>
      <trkpt lat="43.011803" lon="-1.805493">
        <ele>726.4</ele>
        <time>2026-03-01T13:42:38Z</time>
      </trkpt>
      <trkpt lat="43.011757" lon="-1.805310">
        <ele>726.0</ele>
        <time>2026-03-01T13:42:40Z</time>
      </trkpt>
      <trkpt lat="43.011724" lon="-1.805136">
        <ele>725.2</ele>
        <time>2026-03-01T13:42:42Z</time>
      </trkpt>
      <trkpt lat="43.011714" lon="-1.805040">
        <ele>725.0</ele>
        <time>2026-03-01T13:42:43Z</time>
      </trkpt>
      <trkpt lat="43.011720" lon="-1.804872">
        <ele>726.2</ele>
        <time>2026-03-01T13:42:45Z</time>
      </trkpt>
      <trkpt lat="43.011726" lon="-1.804808">
        <ele>726.4</ele>
        <time>2026-03-01T13:42:46Z</time>
      </trkpt>
      <trkpt lat="43.011728" lon="-1.804754">
        <ele>726.6</ele>
        <time>2026-03-01T13:42:47Z</time>
      </trkpt>
      <trkpt lat="43.011745" lon="-1.804595">
        <ele>726.6</ele>
        <time>2026-03-01T13:42:50Z</time>
      </trkpt>
      <trkpt lat="43.011798" lon="-1.804473">
        <ele>725.8</ele>
        <time>2026-03-01T13:42:52Z</time>
      </trkpt>
      <trkpt lat="43.011831" lon="-1.804333">
        <ele>725.2</ele>
        <time>2026-03-01T13:42:54Z</time>
      </trkpt>
      <trkpt lat="43.011808" lon="-1.804214">
        <ele>725.2</ele>
        <time>2026-03-01T13:42:56Z</time>
      </trkpt>
      <trkpt lat="43.011792" lon="-1.804158">
        <ele>725.2</ele>
        <time>2026-03-01T13:42:57Z</time>
      </trkpt>
      <trkpt lat="43.011774" lon="-1.804113">
        <ele>725.2</ele>
        <time>2026-03-01T13:42:58Z</time>
      </trkpt>
      <trkpt lat="43.011740" lon="-1.804047">
        <ele>725.2</ele>
        <time>2026-03-01T13:43:00Z</time>
      </trkpt>
      <trkpt lat="43.011720" lon="-1.804014">
        <ele>725.0</ele>
        <time>2026-03-01T13:43:01Z</time>
      </trkpt>
      <trkpt lat="43.011689" lon="-1.803947">
        <ele>724.8</ele>
        <time>2026-03-01T13:43:02Z</time>
      </trkpt>
      <trkpt lat="43.011615" lon="-1.803794">
        <ele>725.4</ele>
        <time>2026-03-01T13:43:06Z</time>
      </trkpt>
      <trkpt lat="43.011602" lon="-1.803754">
        <ele>726.2</ele>
        <time>2026-03-01T13:43:08Z</time>
      </trkpt>
      <trkpt lat="43.011597" lon="-1.803714">
        <ele>727.4</ele>
        <time>2026-03-01T13:43:10Z</time>
      </trkpt>
      <trkpt lat="43.011579" lon="-1.803659">
        <ele>728.6</ele>
        <time>2026-03-01T13:43:12Z</time>
      </trkpt>
      <trkpt lat="43.011539" lon="-1.803541">
        <ele>729.2</ele>
        <time>2026-03-01T13:43:16Z</time>
      </trkpt>
      <trkpt lat="43.011519" lon="-1.803449">
        <ele>729.6</ele>
        <time>2026-03-01T13:43:19Z</time>
      </trkpt>
      <trkpt lat="43.011511" lon="-1.803425">
        <ele>729.8</ele>
        <time>2026-03-01T13:43:20Z</time>
      </trkpt>
      <trkpt lat="43.011505" lon="-1.803401">
        <ele>730.2</ele>
        <time>2026-03-01T13:43:21Z</time>
      </trkpt>
      <trkpt lat="43.011486" lon="-1.803324">
        <ele>730.8</ele>
        <time>2026-03-01T13:43:24Z</time>
      </trkpt>
      <trkpt lat="43.011485" lon="-1.803296">
        <ele>731.0</ele>
        <time>2026-03-01T13:43:25Z</time>
      </trkpt>
      <trkpt lat="43.011476" lon="-1.803255">
        <ele>731.6</ele>
        <time>2026-03-01T13:43:27Z</time>
      </trkpt>
      <trkpt lat="43.011465" lon="-1.803206">
        <ele>732.0</ele>
        <time>2026-03-01T13:43:29Z</time>
      </trkpt>
      <trkpt lat="43.011451" lon="-1.803149">
        <ele>732.6</ele>
        <time>2026-03-01T13:43:32Z</time>
      </trkpt>
      <trkpt lat="43.011440" lon="-1.803113">
        <ele>733.2</ele>
        <time>2026-03-01T13:43:34Z</time>
      </trkpt>
      <trkpt lat="43.011430" lon="-1.803030">
        <ele>733.8</ele>
        <time>2026-03-01T13:43:38Z</time>
      </trkpt>
      <trkpt lat="43.011426" lon="-1.802991">
        <ele>734.2</ele>
        <time>2026-03-01T13:43:40Z</time>
      </trkpt>
      <trkpt lat="43.011414" lon="-1.802908">
        <ele>734.6</ele>
        <time>2026-03-01T13:43:44Z</time>
      </trkpt>
      <trkpt lat="43.011413" lon="-1.802886">
        <ele>735.4</ele>
        <time>2026-03-01T13:43:45Z</time>
      </trkpt>
      <trkpt lat="43.011426" lon="-1.802831">
        <ele>736.6</ele>
        <time>2026-03-01T13:43:48Z</time>
      </trkpt>
      <trkpt lat="43.011435" lon="-1.802790">
        <ele>737.2</ele>
        <time>2026-03-01T13:43:50Z</time>
      </trkpt>
      <trkpt lat="43.011449" lon="-1.802738">
        <ele>737.6</ele>
        <time>2026-03-01T13:43:52Z</time>
      </trkpt>
      <trkpt lat="43.011442" lon="-1.802649">
        <ele>738.0</ele>
        <time>2026-03-01T13:43:56Z</time>
      </trkpt>
      <trkpt lat="43.011448" lon="-1.802479">
        <ele>737.8</ele>
        <time>2026-03-01T13:44:01Z</time>
      </trkpt>
      <trkpt lat="43.011421" lon="-1.802194">
        <ele>737.0</ele>
        <time>2026-03-01T13:44:06Z</time>
      </trkpt>
      <trkpt lat="43.011413" lon="-1.802068">
        <ele>736.6</ele>
        <time>2026-03-01T13:44:08Z</time>
      </trkpt>
      <trkpt lat="43.011404" lon="-1.801941">
        <ele>736.0</ele>
        <time>2026-03-01T13:44:10Z</time>
      </trkpt>
      <trkpt lat="43.011396" lon="-1.801803">
        <ele>735.6</ele>
        <time>2026-03-01T13:44:12Z</time>
      </trkpt>
      <trkpt lat="43.011388" lon="-1.801720">
        <ele>735.4</ele>
        <time>2026-03-01T13:44:13Z</time>
      </trkpt>
      <trkpt lat="43.011390" lon="-1.801645">
        <ele>735.0</ele>
        <time>2026-03-01T13:44:14Z</time>
      </trkpt>
      <trkpt lat="43.011414" lon="-1.801503">
        <ele>733.8</ele>
        <time>2026-03-01T13:44:16Z</time>
      </trkpt>
      <trkpt lat="43.011433" lon="-1.801417">
        <ele>733.0</ele>
        <time>2026-03-01T13:44:17Z</time>
      </trkpt>
      <trkpt lat="43.011443" lon="-1.801313">
        <ele>732.0</ele>
        <time>2026-03-01T13:44:18Z</time>
      </trkpt>
      <trkpt lat="43.011451" lon="-1.801116">
        <ele>730.0</ele>
        <time>2026-03-01T13:44:20Z</time>
      </trkpt>
      <trkpt lat="43.011467" lon="-1.801031">
        <ele>728.6</ele>
        <time>2026-03-01T13:44:21Z</time>
      </trkpt>
      <trkpt lat="43.011494" lon="-1.800822">
        <ele>727.4</ele>
        <time>2026-03-01T13:44:23Z</time>
      </trkpt>
      <trkpt lat="43.011491" lon="-1.800620">
        <ele>726.6</ele>
        <time>2026-03-01T13:44:25Z</time>
      </trkpt>
      <trkpt lat="43.011469" lon="-1.800501">
        <ele>725.2</ele>
        <time>2026-03-01T13:44:26Z</time>
      </trkpt>
      <trkpt lat="43.011427" lon="-1.800266">
        <ele>723.2</ele>
        <time>2026-03-01T13:44:28Z</time>
      </trkpt>
      <trkpt lat="43.011414" lon="-1.800141">
        <ele>722.2</ele>
        <time>2026-03-01T13:44:29Z</time>
      </trkpt>
      <trkpt lat="43.011403" lon="-1.799911">
        <ele>720.8</ele>
        <time>2026-03-01T13:44:31Z</time>
      </trkpt>
      <trkpt lat="43.011383" lon="-1.799697">
        <ele>720.4</ele>
        <time>2026-03-01T13:44:33Z</time>
      </trkpt>
      <trkpt lat="43.011339" lon="-1.799535">
        <ele>719.8</ele>
        <time>2026-03-01T13:44:35Z</time>
      </trkpt>
      <trkpt lat="43.011299" lon="-1.799472">
        <ele>719.8</ele>
        <time>2026-03-01T13:44:36Z</time>
      </trkpt>
      <trkpt lat="43.011247" lon="-1.799426">
        <ele>719.0</ele>
        <time>2026-03-01T13:44:37Z</time>
      </trkpt>
      <trkpt lat="43.011129" lon="-1.799319">
        <ele>717.8</ele>
        <time>2026-03-01T13:44:39Z</time>
      </trkpt>
      <trkpt lat="43.011081" lon="-1.799255">
        <ele>717.0</ele>
        <time>2026-03-01T13:44:40Z</time>
      </trkpt>
      <trkpt lat="43.011002" lon="-1.799163">
        <ele>716.4</ele>
        <time>2026-03-01T13:44:42Z</time>
      </trkpt>
      <trkpt lat="43.010969" lon="-1.799112">
        <ele>716.0</ele>
        <time>2026-03-01T13:44:43Z</time>
      </trkpt>
      <trkpt lat="43.010957" lon="-1.799062">
        <ele>715.4</ele>
        <time>2026-03-01T13:44:44Z</time>
      </trkpt>
      <trkpt lat="43.010941" lon="-1.799006">
        <ele>714.8</ele>
        <time>2026-03-01T13:44:45Z</time>
      </trkpt>
      <trkpt lat="43.010913" lon="-1.798944">
        <ele>714.2</ele>
        <time>2026-03-01T13:44:46Z</time>
      </trkpt>
      <trkpt lat="43.010887" lon="-1.798894">
        <ele>713.6</ele>
        <time>2026-03-01T13:44:47Z</time>
      </trkpt>
      <trkpt lat="43.010879" lon="-1.798846">
        <ele>711.4</ele>
        <time>2026-03-01T13:44:48Z</time>
      </trkpt>
      <trkpt lat="43.010880" lon="-1.798797">
        <ele>710.0</ele>
        <time>2026-03-01T13:44:49Z</time>
      </trkpt>
      <trkpt lat="43.010879" lon="-1.798748">
        <ele>709.2</ele>
        <time>2026-03-01T13:44:50Z</time>
      </trkpt>
      <trkpt lat="43.010870" lon="-1.798684">
        <ele>708.6</ele>
        <time>2026-03-01T13:44:51Z</time>
      </trkpt>
      <trkpt lat="43.010842" lon="-1.798546">
        <ele>705.4</ele>
        <time>2026-03-01T13:44:53Z</time>
      </trkpt>
      <trkpt lat="43.010817" lon="-1.798495">
        <ele>704.2</ele>
        <time>2026-03-01T13:44:54Z</time>
      </trkpt>
      <trkpt lat="43.010785" lon="-1.798437">
        <ele>703.4</ele>
        <time>2026-03-01T13:44:55Z</time>
      </trkpt>
      <trkpt lat="43.010758" lon="-1.798366">
        <ele>702.6</ele>
        <time>2026-03-01T13:44:56Z</time>
      </trkpt>
      <trkpt lat="43.010739" lon="-1.798288">
        <ele>702.2</ele>
        <time>2026-03-01T13:44:57Z</time>
      </trkpt>
      <trkpt lat="43.010715" lon="-1.798210">
        <ele>700.0</ele>
        <time>2026-03-01T13:44:58Z</time>
      </trkpt>
      <trkpt lat="43.010687" lon="-1.798145">
        <ele>698.6</ele>
        <time>2026-03-01T13:44:59Z</time>
      </trkpt>
      <trkpt lat="43.010662" lon="-1.798087">
        <ele>696.0</ele>
        <time>2026-03-01T13:45:00Z</time>
      </trkpt>
      <trkpt lat="43.010630" lon="-1.798028">
        <ele>694.2</ele>
        <time>2026-03-01T13:45:01Z</time>
      </trkpt>
      <trkpt lat="43.010621" lon="-1.797977">
        <ele>693.0</ele>
        <time>2026-03-01T13:45:02Z</time>
      </trkpt>
      <trkpt lat="43.010589" lon="-1.797876">
        <ele>691.0</ele>
        <time>2026-03-01T13:45:04Z</time>
      </trkpt>
      <trkpt lat="43.010550" lon="-1.797857">
        <ele>689.0</ele>
        <time>2026-03-01T13:45:05Z</time>
      </trkpt>
      <trkpt lat="43.010513" lon="-1.797868">
        <ele>687.8</ele>
        <time>2026-03-01T13:45:06Z</time>
      </trkpt>
      <trkpt lat="43.010477" lon="-1.797885">
        <ele>686.2</ele>
        <time>2026-03-01T13:45:07Z</time>
      </trkpt>
      <trkpt lat="43.010430" lon="-1.797937">
        <ele>684.2</ele>
        <time>2026-03-01T13:45:09Z</time>
      </trkpt>
      <trkpt lat="43.010413" lon="-1.797927">
        <ele>683.2</ele>
        <time>2026-03-01T13:45:10Z</time>
      </trkpt>
      <trkpt lat="43.010398" lon="-1.797895">
        <ele>682.2</ele>
        <time>2026-03-01T13:45:11Z</time>
      </trkpt>
      <trkpt lat="43.010398" lon="-1.797851">
        <ele>681.4</ele>
        <time>2026-03-01T13:45:12Z</time>
      </trkpt>
      <trkpt lat="43.010406" lon="-1.797815">
        <ele>680.4</ele>
        <time>2026-03-01T13:45:13Z</time>
      </trkpt>
      <trkpt lat="43.010411" lon="-1.797747">
        <ele>679.0</ele>
        <time>2026-03-01T13:45:15Z</time>
      </trkpt>
      <trkpt lat="43.010413" lon="-1.797678">
        <ele>677.8</ele>
        <time>2026-03-01T13:45:17Z</time>
      </trkpt>
      <trkpt lat="43.010400" lon="-1.797655">
        <ele>676.6</ele>
        <time>2026-03-01T13:45:18Z</time>
      </trkpt>
      <trkpt lat="43.010379" lon="-1.797639">
        <ele>675.4</ele>
        <time>2026-03-01T13:45:19Z</time>
      </trkpt>
      <trkpt lat="43.010349" lon="-1.797648">
        <ele>674.2</ele>
        <time>2026-03-01T13:45:21Z</time>
      </trkpt>
      <trkpt lat="43.010275" lon="-1.797702">
        <ele>672.8</ele>
        <time>2026-03-01T13:45:24Z</time>
      </trkpt>
      <trkpt lat="43.010244" lon="-1.797735">
        <ele>672.4</ele>
        <time>2026-03-01T13:45:25Z</time>
      </trkpt>
      <trkpt lat="43.010207" lon="-1.797765">
        <ele>672.2</ele>
        <time>2026-03-01T13:45:26Z</time>
      </trkpt>
      <trkpt lat="43.010176" lon="-1.797776">
        <ele>671.4</ele>
        <time>2026-03-01T13:45:27Z</time>
      </trkpt>
      <trkpt lat="43.010112" lon="-1.797791">
        <ele>670.0</ele>
        <time>2026-03-01T13:45:29Z</time>
      </trkpt>
      <trkpt lat="43.010087" lon="-1.797786">
        <ele>669.6</ele>
        <time>2026-03-01T13:45:30Z</time>
      </trkpt>
      <trkpt lat="43.010072" lon="-1.797766">
        <ele>668.0</ele>
        <time>2026-03-01T13:45:31Z</time>
      </trkpt>
      <trkpt lat="43.010049" lon="-1.797743">
        <ele>667.4</ele>
        <time>2026-03-01T13:45:32Z</time>
      </trkpt>
      <trkpt lat="43.010019" lon="-1.797736">
        <ele>666.6</ele>
        <time>2026-03-01T13:45:33Z</time>
      </trkpt>
      <trkpt lat="43.009991" lon="-1.797735">
        <ele>665.0</ele>
        <time>2026-03-01T13:45:34Z</time>
      </trkpt>
      <trkpt lat="43.009958" lon="-1.797724">
        <ele>663.4</ele>
        <time>2026-03-01T13:45:35Z</time>
      </trkpt>
      <trkpt lat="43.009909" lon="-1.797706">
        <ele>661.4</ele>
        <time>2026-03-01T13:45:36Z</time>
      </trkpt>
      <trkpt lat="43.009857" lon="-1.797696">
        <ele>660.0</ele>
        <time>2026-03-01T13:45:37Z</time>
      </trkpt>
      <trkpt lat="43.009826" lon="-1.797721">
        <ele>658.8</ele>
        <time>2026-03-01T13:45:38Z</time>
      </trkpt>
      <trkpt lat="43.009803" lon="-1.797764">
        <ele>657.2</ele>
        <time>2026-03-01T13:45:39Z</time>
      </trkpt>
      <trkpt lat="43.009754" lon="-1.797824">
        <ele>654.8</ele>
        <time>2026-03-01T13:45:41Z</time>
      </trkpt>
      <trkpt lat="43.009707" lon="-1.797810">
        <ele>652.8</ele>
        <time>2026-03-01T13:45:43Z</time>
      </trkpt>
      <trkpt lat="43.009707" lon="-1.797776">
        <ele>652.0</ele>
        <time>2026-03-01T13:45:44Z</time>
      </trkpt>
      <trkpt lat="43.009712" lon="-1.797740">
        <ele>651.0</ele>
        <time>2026-03-01T13:45:45Z</time>
      </trkpt>
      <trkpt lat="43.009712" lon="-1.797699">
        <ele>650.0</ele>
        <time>2026-03-01T13:45:46Z</time>
      </trkpt>
      <trkpt lat="43.009697" lon="-1.797685">
        <ele>649.4</ele>
        <time>2026-03-01T13:45:47Z</time>
      </trkpt>
      <trkpt lat="43.009684" lon="-1.797684">
        <ele>649.2</ele>
        <time>2026-03-01T13:45:48Z</time>
      </trkpt>
      <trkpt lat="43.009645" lon="-1.797713">
        <ele>649.0</ele>
        <time>2026-03-01T13:45:50Z</time>
      </trkpt>
      <trkpt lat="43.009624" lon="-1.797736">
        <ele>649.0</ele>
        <time>2026-03-01T13:45:51Z</time>
      </trkpt>
      <trkpt lat="43.009596" lon="-1.797796">
        <ele>647.4</ele>
        <time>2026-03-01T13:45:53Z</time>
      </trkpt>
      <trkpt lat="43.009563" lon="-1.797774">
        <ele>646.2</ele>
        <time>2026-03-01T13:45:55Z</time>
      </trkpt>
      <trkpt lat="43.009560" lon="-1.797733">
        <ele>644.6</ele>
        <time>2026-03-01T13:45:56Z</time>
      </trkpt>
      <trkpt lat="43.009528" lon="-1.797633">
        <ele>643.2</ele>
        <time>2026-03-01T13:45:58Z</time>
      </trkpt>
      <trkpt lat="43.009517" lon="-1.797580">
        <ele>642.0</ele>
        <time>2026-03-01T13:45:59Z</time>
      </trkpt>
      <trkpt lat="43.009515" lon="-1.797528">
        <ele>641.2</ele>
        <time>2026-03-01T13:46:00Z</time>
      </trkpt>
      <trkpt lat="43.009498" lon="-1.797488">
        <ele>640.6</ele>
        <time>2026-03-01T13:46:01Z</time>
      </trkpt>
      <trkpt lat="43.009458" lon="-1.797457">
        <ele>638.8</ele>
        <time>2026-03-01T13:46:03Z</time>
      </trkpt>
      <trkpt lat="43.009433" lon="-1.797498">
        <ele>637.6</ele>
        <time>2026-03-01T13:46:05Z</time>
      </trkpt>
      <trkpt lat="43.009422" lon="-1.797522">
        <ele>637.0</ele>
        <time>2026-03-01T13:46:06Z</time>
      </trkpt>
      <trkpt lat="43.009416" lon="-1.797549">
        <ele>636.4</ele>
        <time>2026-03-01T13:46:07Z</time>
      </trkpt>
      <trkpt lat="43.009439" lon="-1.797665">
        <ele>635.8</ele>
        <time>2026-03-01T13:46:10Z</time>
      </trkpt>
      <trkpt lat="43.009440" lon="-1.797721">
        <ele>635.6</ele>
        <time>2026-03-01T13:46:11Z</time>
      </trkpt>
      <trkpt lat="43.009425" lon="-1.797750">
        <ele>635.4</ele>
        <time>2026-03-01T13:46:12Z</time>
      </trkpt>
      <trkpt lat="43.009409" lon="-1.797751">
        <ele>635.0</ele>
        <time>2026-03-01T13:46:13Z</time>
      </trkpt>
      <trkpt lat="43.009389" lon="-1.797736">
        <ele>634.2</ele>
        <time>2026-03-01T13:46:14Z</time>
      </trkpt>
      <trkpt lat="43.009362" lon="-1.797719">
        <ele>633.4</ele>
        <time>2026-03-01T13:46:15Z</time>
      </trkpt>
      <trkpt lat="43.009341" lon="-1.797735">
        <ele>632.4</ele>
        <time>2026-03-01T13:46:16Z</time>
      </trkpt>
      <trkpt lat="43.009328" lon="-1.797808">
        <ele>631.4</ele>
        <time>2026-03-01T13:46:18Z</time>
      </trkpt>
      <trkpt lat="43.009320" lon="-1.797862">
        <ele>630.2</ele>
        <time>2026-03-01T13:46:19Z</time>
      </trkpt>
      <trkpt lat="43.009316" lon="-1.797900">
        <ele>629.2</ele>
        <time>2026-03-01T13:46:20Z</time>
      </trkpt>
      <trkpt lat="43.009282" lon="-1.797920">
        <ele>628.6</ele>
        <time>2026-03-01T13:46:21Z</time>
      </trkpt>
      <trkpt lat="43.009232" lon="-1.797875">
        <ele>627.4</ele>
        <time>2026-03-01T13:46:23Z</time>
      </trkpt>
      <trkpt lat="43.009167" lon="-1.797785">
        <ele>626.2</ele>
        <time>2026-03-01T13:46:26Z</time>
      </trkpt>
      <trkpt lat="43.009161" lon="-1.797769">
        <ele>626.0</ele>
        <time>2026-03-01T13:46:27Z</time>
      </trkpt>
      <trkpt lat="43.009124" lon="-1.797578">
        <ele>625.8</ele>
        <time>2026-03-01T13:46:32Z</time>
      </trkpt>
      <trkpt lat="43.009087" lon="-1.797577">
        <ele>625.4</ele>
        <time>2026-03-01T13:46:34Z</time>
      </trkpt>
      <trkpt lat="43.009074" lon="-1.797618">
        <ele>625.2</ele>
        <time>2026-03-01T13:46:35Z</time>
      </trkpt>
      <trkpt lat="43.009064" lon="-1.797665">
        <ele>624.2</ele>
        <time>2026-03-01T13:46:36Z</time>
      </trkpt>
      <trkpt lat="43.009063" lon="-1.797718">
        <ele>623.6</ele>
        <time>2026-03-01T13:46:37Z</time>
      </trkpt>
      <trkpt lat="43.009064" lon="-1.797767">
        <ele>623.4</ele>
        <time>2026-03-01T13:46:38Z</time>
      </trkpt>
      <trkpt lat="43.009038" lon="-1.797865">
        <ele>622.2</ele>
        <time>2026-03-01T13:46:40Z</time>
      </trkpt>
      <trkpt lat="43.009006" lon="-1.797884">
        <ele>621.4</ele>
        <time>2026-03-01T13:46:41Z</time>
      </trkpt>
      <trkpt lat="43.008974" lon="-1.797893">
        <ele>620.8</ele>
        <time>2026-03-01T13:46:42Z</time>
      </trkpt>
      <trkpt lat="43.008828" lon="-1.797892">
        <ele>620.4</ele>
        <time>2026-03-01T13:46:46Z</time>
      </trkpt>
      <trkpt lat="43.008680" lon="-1.797906">
        <ele>621.2</ele>
        <time>2026-03-01T13:46:50Z</time>
      </trkpt>
      <trkpt lat="43.008647" lon="-1.797918">
        <ele>621.4</ele>
        <time>2026-03-01T13:46:51Z</time>
      </trkpt>
      <trkpt lat="43.008603" lon="-1.797929">
        <ele>622.0</ele>
        <time>2026-03-01T13:46:53Z</time>
      </trkpt>
      <trkpt lat="43.008534" lon="-1.797918">
        <ele>623.4</ele>
        <time>2026-03-01T13:46:56Z</time>
      </trkpt>
      <trkpt lat="43.008506" lon="-1.797916">
        <ele>623.8</ele>
        <time>2026-03-01T13:46:57Z</time>
      </trkpt>
      <trkpt lat="43.008356" lon="-1.797876">
        <ele>623.0</ele>
        <time>2026-03-01T13:47:02Z</time>
      </trkpt>
      <trkpt lat="43.008291" lon="-1.797846">
        <ele>622.2</ele>
        <time>2026-03-01T13:47:04Z</time>
      </trkpt>
      <trkpt lat="43.008263" lon="-1.797803">
        <ele>621.6</ele>
        <time>2026-03-01T13:47:05Z</time>
      </trkpt>
      <trkpt lat="43.008239" lon="-1.797748">
        <ele>621.2</ele>
        <time>2026-03-01T13:47:06Z</time>
      </trkpt>
      <trkpt lat="43.008179" lon="-1.797615">
        <ele>621.4</ele>
        <time>2026-03-01T13:47:09Z</time>
      </trkpt>
      <trkpt lat="43.008117" lon="-1.797448">
        <ele>622.0</ele>
        <time>2026-03-01T13:47:13Z</time>
      </trkpt>
      <trkpt lat="43.007982" lon="-1.797289">
        <ele>622.0</ele>
        <time>2026-03-01T13:47:18Z</time>
      </trkpt>
      <trkpt lat="43.007906" lon="-1.797210">
        <ele>622.4</ele>
        <time>2026-03-01T13:47:21Z</time>
      </trkpt>
      <trkpt lat="43.007896" lon="-1.797176">
        <ele>622.6</ele>
        <time>2026-03-01T13:47:22Z</time>
      </trkpt>
      <trkpt lat="43.007882" lon="-1.797126">
        <ele>623.2</ele>
        <time>2026-03-01T13:47:24Z</time>
      </trkpt>
      <trkpt lat="43.007868" lon="-1.797110">
        <ele>623.6</ele>
        <time>2026-03-01T13:47:25Z</time>
      </trkpt>
      <trkpt lat="43.007852" lon="-1.797101">
        <ele>624.2</ele>
        <time>2026-03-01T13:47:26Z</time>
      </trkpt>
      <trkpt lat="43.007829" lon="-1.797088">
        <ele>625.0</ele>
        <time>2026-03-01T13:47:28Z</time>
      </trkpt>
      <trkpt lat="43.007779" lon="-1.797089">
        <ele>625.4</ele>
        <time>2026-03-01T13:47:31Z</time>
      </trkpt>
      <trkpt lat="43.007701" lon="-1.797108">
        <ele>626.2</ele>
        <time>2026-03-01T13:47:35Z</time>
      </trkpt>
      <trkpt lat="43.007675" lon="-1.797079">
        <ele>626.6</ele>
        <time>2026-03-01T13:47:37Z</time>
      </trkpt>
      <trkpt lat="43.007648" lon="-1.797007">
        <ele>626.8</ele>
        <time>2026-03-01T13:47:41Z</time>
      </trkpt>
      <trkpt lat="43.007634" lon="-1.796985">
        <ele>626.8</ele>
        <time>2026-03-01T13:47:42Z</time>
      </trkpt>
      <trkpt lat="43.007578" lon="-1.796964">
        <ele>626.6</ele>
        <time>2026-03-01T13:47:44Z</time>
      </trkpt>
      <trkpt lat="43.007547" lon="-1.796986">
        <ele>626.0</ele>
        <time>2026-03-01T13:47:45Z</time>
      </trkpt>
      <trkpt lat="43.007492" lon="-1.797028">
        <ele>625.2</ele>
        <time>2026-03-01T13:47:47Z</time>
      </trkpt>
      <trkpt lat="43.007469" lon="-1.797017">
        <ele>624.2</ele>
        <time>2026-03-01T13:47:48Z</time>
      </trkpt>
      <trkpt lat="43.007457" lon="-1.796990">
        <ele>623.2</ele>
        <time>2026-03-01T13:47:49Z</time>
      </trkpt>
      <trkpt lat="43.007419" lon="-1.796943">
        <ele>622.0</ele>
        <time>2026-03-01T13:47:51Z</time>
      </trkpt>
      <trkpt lat="43.007324" lon="-1.796941">
        <ele>620.8</ele>
        <time>2026-03-01T13:47:53Z</time>
      </trkpt>
      <trkpt lat="43.007268" lon="-1.796948">
        <ele>619.2</ele>
        <time>2026-03-01T13:47:54Z</time>
      </trkpt>
      <trkpt lat="43.007209" lon="-1.796960">
        <ele>617.6</ele>
        <time>2026-03-01T13:47:55Z</time>
      </trkpt>
      <trkpt lat="43.007153" lon="-1.796964">
        <ele>616.4</ele>
        <time>2026-03-01T13:47:56Z</time>
      </trkpt>
      <trkpt lat="43.007107" lon="-1.796973">
        <ele>615.2</ele>
        <time>2026-03-01T13:47:57Z</time>
      </trkpt>
      <trkpt lat="43.007071" lon="-1.797001">
        <ele>614.4</ele>
        <time>2026-03-01T13:47:58Z</time>
      </trkpt>
      <trkpt lat="43.007027" lon="-1.797022">
        <ele>614.0</ele>
        <time>2026-03-01T13:47:59Z</time>
      </trkpt>
      <trkpt lat="43.006972" lon="-1.796971">
        <ele>613.2</ele>
        <time>2026-03-01T13:48:01Z</time>
      </trkpt>
      <trkpt lat="43.006949" lon="-1.796935">
        <ele>613.0</ele>
        <time>2026-03-01T13:48:02Z</time>
      </trkpt>
      <trkpt lat="43.006926" lon="-1.796888">
        <ele>611.8</ele>
        <time>2026-03-01T13:48:03Z</time>
      </trkpt>
      <trkpt lat="43.006898" lon="-1.796854">
        <ele>611.4</ele>
        <time>2026-03-01T13:48:04Z</time>
      </trkpt>
      <trkpt lat="43.006812" lon="-1.796787">
        <ele>610.8</ele>
        <time>2026-03-01T13:48:06Z</time>
      </trkpt>
      <trkpt lat="43.006712" lon="-1.796768">
        <ele>610.2</ele>
        <time>2026-03-01T13:48:08Z</time>
      </trkpt>
      <trkpt lat="43.006670" lon="-1.796748">
        <ele>609.8</ele>
        <time>2026-03-01T13:48:09Z</time>
      </trkpt>
      <trkpt lat="43.006583" lon="-1.796680">
        <ele>609.0</ele>
        <time>2026-03-01T13:48:11Z</time>
      </trkpt>
      <trkpt lat="43.006544" lon="-1.796629">
        <ele>608.4</ele>
        <time>2026-03-01T13:48:12Z</time>
      </trkpt>
      <trkpt lat="43.006506" lon="-1.796577">
        <ele>607.8</ele>
        <time>2026-03-01T13:48:13Z</time>
      </trkpt>
      <trkpt lat="43.006464" lon="-1.796522">
        <ele>607.4</ele>
        <time>2026-03-01T13:48:14Z</time>
      </trkpt>
      <trkpt lat="43.006417" lon="-1.796486">
        <ele>606.6</ele>
        <time>2026-03-01T13:48:15Z</time>
      </trkpt>
      <trkpt lat="43.006361" lon="-1.796441">
        <ele>606.2</ele>
        <time>2026-03-01T13:48:16Z</time>
      </trkpt>
      <trkpt lat="43.006246" lon="-1.796372">
        <ele>605.8</ele>
        <time>2026-03-01T13:48:18Z</time>
      </trkpt>
      <trkpt lat="43.006121" lon="-1.796290">
        <ele>605.6</ele>
        <time>2026-03-01T13:48:21Z</time>
      </trkpt>
      <trkpt lat="43.006030" lon="-1.796200">
        <ele>605.2</ele>
        <time>2026-03-01T13:48:24Z</time>
      </trkpt>
      <trkpt lat="43.005994" lon="-1.796161">
        <ele>604.8</ele>
        <time>2026-03-01T13:48:25Z</time>
      </trkpt>
      <trkpt lat="43.005942" lon="-1.796085">
        <ele>604.0</ele>
        <time>2026-03-01T13:48:27Z</time>
      </trkpt>
      <trkpt lat="43.005915" lon="-1.796053">
        <ele>603.8</ele>
        <time>2026-03-01T13:48:28Z</time>
      </trkpt>
      <trkpt lat="43.005879" lon="-1.796027">
        <ele>603.4</ele>
        <time>2026-03-01T13:48:29Z</time>
      </trkpt>
      <trkpt lat="43.005816" lon="-1.795975">
        <ele>602.8</ele>
        <time>2026-03-01T13:48:31Z</time>
      </trkpt>
      <trkpt lat="43.005738" lon="-1.795956">
        <ele>601.6</ele>
        <time>2026-03-01T13:48:33Z</time>
      </trkpt>
      <trkpt lat="43.005714" lon="-1.795967">
        <ele>601.2</ele>
        <time>2026-03-01T13:48:34Z</time>
      </trkpt>
      <trkpt lat="43.005689" lon="-1.795974">
        <ele>600.6</ele>
        <time>2026-03-01T13:48:35Z</time>
      </trkpt>
      <trkpt lat="43.005623" lon="-1.795959">
        <ele>599.2</ele>
        <time>2026-03-01T13:48:37Z</time>
      </trkpt>
      <trkpt lat="43.005600" lon="-1.795936">
        <ele>599.0</ele>
        <time>2026-03-01T13:48:38Z</time>
      </trkpt>
      <trkpt lat="43.005574" lon="-1.795901">
        <ele>598.4</ele>
        <time>2026-03-01T13:48:39Z</time>
      </trkpt>
      <trkpt lat="43.005542" lon="-1.795871">
        <ele>597.8</ele>
        <time>2026-03-01T13:48:40Z</time>
      </trkpt>
      <trkpt lat="43.005521" lon="-1.795841">
        <ele>597.6</ele>
        <time>2026-03-01T13:48:41Z</time>
      </trkpt>
      <trkpt lat="43.005492" lon="-1.795779">
        <ele>596.8</ele>
        <time>2026-03-01T13:48:43Z</time>
      </trkpt>
      <trkpt lat="43.005446" lon="-1.795752">
        <ele>596.0</ele>
        <time>2026-03-01T13:48:45Z</time>
      </trkpt>
      <trkpt lat="43.005420" lon="-1.795725">
        <ele>595.6</ele>
        <time>2026-03-01T13:48:46Z</time>
      </trkpt>
      <trkpt lat="43.005304" lon="-1.795639">
        <ele>594.4</ele>
        <time>2026-03-01T13:48:49Z</time>
      </trkpt>
      <trkpt lat="43.005271" lon="-1.795599">
        <ele>593.2</ele>
        <time>2026-03-01T13:48:50Z</time>
      </trkpt>
      <trkpt lat="43.005181" lon="-1.795515">
        <ele>592.0</ele>
        <time>2026-03-01T13:48:52Z</time>
      </trkpt>
      <trkpt lat="43.005127" lon="-1.795479">
        <ele>591.4</ele>
        <time>2026-03-01T13:48:53Z</time>
      </trkpt>
      <trkpt lat="43.005078" lon="-1.795439">
        <ele>590.6</ele>
        <time>2026-03-01T13:48:54Z</time>
      </trkpt>
      <trkpt lat="43.004979" lon="-1.795326">
        <ele>589.6</ele>
        <time>2026-03-01T13:48:56Z</time>
      </trkpt>
      <trkpt lat="43.004936" lon="-1.795268">
        <ele>588.8</ele>
        <time>2026-03-01T13:48:57Z</time>
      </trkpt>
      <trkpt lat="43.004896" lon="-1.795222">
        <ele>588.6</ele>
        <time>2026-03-01T13:48:58Z</time>
      </trkpt>
      <trkpt lat="43.004850" lon="-1.795189">
        <ele>588.2</ele>
        <time>2026-03-01T13:48:59Z</time>
      </trkpt>
      <trkpt lat="43.004798" lon="-1.795103">
        <ele>587.0</ele>
        <time>2026-03-01T13:49:01Z</time>
      </trkpt>
      <trkpt lat="43.004797" lon="-1.795044">
        <ele>585.8</ele>
        <time>2026-03-01T13:49:02Z</time>
      </trkpt>
      <trkpt lat="43.004785" lon="-1.794989">
        <ele>585.0</ele>
        <time>2026-03-01T13:49:03Z</time>
      </trkpt>
      <trkpt lat="43.004765" lon="-1.794956">
        <ele>584.4</ele>
        <time>2026-03-01T13:49:04Z</time>
      </trkpt>
      <trkpt lat="43.004750" lon="-1.794912">
        <ele>584.0</ele>
        <time>2026-03-01T13:49:05Z</time>
      </trkpt>
      <trkpt lat="43.004738" lon="-1.794857">
        <ele>583.4</ele>
        <time>2026-03-01T13:49:06Z</time>
      </trkpt>
      <trkpt lat="43.004709" lon="-1.794814">
        <ele>582.6</ele>
        <time>2026-03-01T13:49:07Z</time>
      </trkpt>
      <trkpt lat="43.004673" lon="-1.794804">
        <ele>581.4</ele>
        <time>2026-03-01T13:49:08Z</time>
      </trkpt>
      <trkpt lat="43.004630" lon="-1.794818">
        <ele>580.4</ele>
        <time>2026-03-01T13:49:09Z</time>
      </trkpt>
      <trkpt lat="43.004591" lon="-1.794832">
        <ele>579.0</ele>
        <time>2026-03-01T13:49:10Z</time>
      </trkpt>
      <trkpt lat="43.004557" lon="-1.794807">
        <ele>577.8</ele>
        <time>2026-03-01T13:49:11Z</time>
      </trkpt>
      <trkpt lat="43.004476" lon="-1.794716">
        <ele>576.8</ele>
        <time>2026-03-01T13:49:13Z</time>
      </trkpt>
      <trkpt lat="43.004417" lon="-1.794654">
        <ele>574.6</ele>
        <time>2026-03-01T13:49:14Z</time>
      </trkpt>
      <trkpt lat="43.004358" lon="-1.794602">
        <ele>573.4</ele>
        <time>2026-03-01T13:49:15Z</time>
      </trkpt>
      <trkpt lat="43.004294" lon="-1.794556">
        <ele>572.0</ele>
        <time>2026-03-01T13:49:16Z</time>
      </trkpt>
      <trkpt lat="43.004233" lon="-1.794515">
        <ele>570.8</ele>
        <time>2026-03-01T13:49:17Z</time>
      </trkpt>
      <trkpt lat="43.004179" lon="-1.794470">
        <ele>569.0</ele>
        <time>2026-03-01T13:49:18Z</time>
      </trkpt>
      <trkpt lat="43.004085" lon="-1.794366">
        <ele>567.8</ele>
        <time>2026-03-01T13:49:20Z</time>
      </trkpt>
      <trkpt lat="43.004039" lon="-1.794333">
        <ele>567.0</ele>
        <time>2026-03-01T13:49:21Z</time>
      </trkpt>
      <trkpt lat="43.003993" lon="-1.794333">
        <ele>566.6</ele>
        <time>2026-03-01T13:49:22Z</time>
      </trkpt>
      <trkpt lat="43.003947" lon="-1.794357">
        <ele>566.4</ele>
        <time>2026-03-01T13:49:23Z</time>
      </trkpt>
      <trkpt lat="43.003911" lon="-1.794393">
        <ele>566.4</ele>
        <time>2026-03-01T13:49:24Z</time>
      </trkpt>
      <trkpt lat="43.003841" lon="-1.794476">
        <ele>566.4</ele>
        <time>2026-03-01T13:49:26Z</time>
      </trkpt>
      <trkpt lat="43.003812" lon="-1.794492">
        <ele>566.0</ele>
        <time>2026-03-01T13:49:27Z</time>
      </trkpt>
      <trkpt lat="43.003755" lon="-1.794501">
        <ele>565.6</ele>
        <time>2026-03-01T13:49:29Z</time>
      </trkpt>
      <trkpt lat="43.003724" lon="-1.794503">
        <ele>565.6</ele>
        <time>2026-03-01T13:49:30Z</time>
      </trkpt>
      <trkpt lat="43.003685" lon="-1.794537">
        <ele>565.6</ele>
        <time>2026-03-01T13:49:31Z</time>
      </trkpt>
      <trkpt lat="43.003597" lon="-1.794630">
        <ele>564.8</ele>
        <time>2026-03-01T13:49:33Z</time>
      </trkpt>
      <trkpt lat="43.003549" lon="-1.794654">
        <ele>564.4</ele>
        <time>2026-03-01T13:49:34Z</time>
      </trkpt>
      <trkpt lat="43.003450" lon="-1.794679">
        <ele>564.2</ele>
        <time>2026-03-01T13:49:36Z</time>
      </trkpt>
      <trkpt lat="43.003379" lon="-1.794758">
        <ele>564.0</ele>
        <time>2026-03-01T13:49:38Z</time>
      </trkpt>
      <trkpt lat="43.003344" lon="-1.794803">
        <ele>563.6</ele>
        <time>2026-03-01T13:49:39Z</time>
      </trkpt>
      <trkpt lat="43.003308" lon="-1.794845">
        <ele>563.6</ele>
        <time>2026-03-01T13:49:40Z</time>
      </trkpt>
      <trkpt lat="43.003271" lon="-1.794894">
        <ele>563.0</ele>
        <time>2026-03-01T13:49:41Z</time>
      </trkpt>
      <trkpt lat="43.003142" lon="-1.795052">
        <ele>562.0</ele>
        <time>2026-03-01T13:49:44Z</time>
      </trkpt>
      <trkpt lat="43.003094" lon="-1.795112">
        <ele>561.2</ele>
        <time>2026-03-01T13:49:45Z</time>
      </trkpt>
      <trkpt lat="43.003044" lon="-1.795171">
        <ele>560.6</ele>
        <time>2026-03-01T13:49:46Z</time>
      </trkpt>
      <trkpt lat="43.002932" lon="-1.795296">
        <ele>559.6</ele>
        <time>2026-03-01T13:49:48Z</time>
      </trkpt>
      <trkpt lat="43.002765" lon="-1.795483">
        <ele>559.0</ele>
        <time>2026-03-01T13:49:51Z</time>
      </trkpt>
      <trkpt lat="43.002711" lon="-1.795534">
        <ele>559.0</ele>
        <time>2026-03-01T13:49:52Z</time>
      </trkpt>
      <trkpt lat="43.002659" lon="-1.795592">
        <ele>558.6</ele>
        <time>2026-03-01T13:49:53Z</time>
      </trkpt>
      <trkpt lat="43.002609" lon="-1.795657">
        <ele>558.4</ele>
        <time>2026-03-01T13:49:54Z</time>
      </trkpt>
      <trkpt lat="43.002449" lon="-1.795849">
        <ele>558.0</ele>
        <time>2026-03-01T13:49:57Z</time>
      </trkpt>
      <trkpt lat="43.002415" lon="-1.795892">
        <ele>558.2</ele>
        <time>2026-03-01T13:49:58Z</time>
      </trkpt>
      <trkpt lat="43.002373" lon="-1.795977">
        <ele>559.0</ele>
        <time>2026-03-01T13:50:00Z</time>
      </trkpt>
      <trkpt lat="43.002308" lon="-1.796135">
        <ele>559.2</ele>
        <time>2026-03-01T13:50:03Z</time>
      </trkpt>
      <trkpt lat="43.002263" lon="-1.796252">
        <ele>558.6</ele>
        <time>2026-03-01T13:50:05Z</time>
      </trkpt>
      <trkpt lat="43.002238" lon="-1.796313">
        <ele>558.0</ele>
        <time>2026-03-01T13:50:06Z</time>
      </trkpt>
      <trkpt lat="43.002190" lon="-1.796439">
        <ele>557.4</ele>
        <time>2026-03-01T13:50:08Z</time>
      </trkpt>
      <trkpt lat="43.002164" lon="-1.796512">
        <ele>557.2</ele>
        <time>2026-03-01T13:50:09Z</time>
      </trkpt>
      <trkpt lat="43.002143" lon="-1.796579">
        <ele>557.0</ele>
        <time>2026-03-01T13:50:10Z</time>
      </trkpt>
      <trkpt lat="43.002090" lon="-1.796721">
        <ele>556.4</ele>
        <time>2026-03-01T13:50:12Z</time>
      </trkpt>
      <trkpt lat="43.002065" lon="-1.796794">
        <ele>556.0</ele>
        <time>2026-03-01T13:50:13Z</time>
      </trkpt>
      <trkpt lat="43.002012" lon="-1.796952">
        <ele>555.6</ele>
        <time>2026-03-01T13:50:15Z</time>
      </trkpt>
      <trkpt lat="43.001967" lon="-1.797146">
        <ele>555.6</ele>
        <time>2026-03-01T13:50:18Z</time>
      </trkpt>
      <trkpt lat="43.001946" lon="-1.797200">
        <ele>555.6</ele>
        <time>2026-03-01T13:50:19Z</time>
      </trkpt>
      <trkpt lat="43.001867" lon="-1.797397">
        <ele>555.6</ele>
        <time>2026-03-01T13:50:23Z</time>
      </trkpt>
      <trkpt lat="43.001858" lon="-1.797459">
        <ele>555.6</ele>
        <time>2026-03-01T13:50:24Z</time>
      </trkpt>
      <trkpt lat="43.001867" lon="-1.797509">
        <ele>555.8</ele>
        <time>2026-03-01T13:50:25Z</time>
      </trkpt>
      <trkpt lat="43.001921" lon="-1.797553">
        <ele>556.2</ele>
        <time>2026-03-01T13:50:27Z</time>
      </trkpt>
      <trkpt lat="43.002033" lon="-1.797637">
        <ele>556.6</ele>
        <time>2026-03-01T13:50:32Z</time>
      </trkpt>
      <trkpt lat="43.002083" lon="-1.797671">
        <ele>557.4</ele>
        <time>2026-03-01T13:50:34Z</time>
      </trkpt>
      <trkpt lat="43.002198" lon="-1.797736">
        <ele>557.8</ele>
        <time>2026-03-01T13:50:39Z</time>
      </trkpt>
      <trkpt lat="43.002353" lon="-1.797774">
        <ele>557.8</ele>
        <time>2026-03-01T13:50:45Z</time>
      </trkpt>
      <trkpt lat="43.002375" lon="-1.797782">
        <ele>557.8</ele>
        <time>2026-03-01T13:50:46Z</time>
      </trkpt>
      <trkpt lat="43.002434" lon="-1.797815">
        <ele>558.4</ele>
        <time>2026-03-01T13:50:50Z</time>
      </trkpt>
      <trkpt lat="43.002449" lon="-1.797849">
        <ele>558.6</ele>
        <time>2026-03-01T13:50:52Z</time>
      </trkpt>
      <trkpt lat="43.002475" lon="-1.797896">
        <ele>558.8</ele>
        <time>2026-03-01T13:50:57Z</time>
      </trkpt>
      <trkpt lat="43.002520" lon="-1.797916">
        <ele>559.2</ele>
        <time>2026-03-01T13:51:04Z</time>
      </trkpt>
      <trkpt lat="43.002523" lon="-1.797907">
        <ele>559.4</ele>
        <time>2026-03-01T13:51:06Z</time>
      </trkpt>
      <trkpt lat="43.002526" lon="-1.797906">
        <ele>559.4</ele>
        <time>2026-03-01T13:51:09Z</time>
      </trkpt>
    </trkseg>
  </trk>
</gpx>
